<?xml version="1.0" encoding="UTF-8" standalone="no" ?>
<gpx xmlns="http://www.topografix.com/GPX/1/1" xmlns:xsi="http://www.w3.org/2001/XMLSchema-instance" xsi:schemaLocation="http://www.topografix.com/GPX/1/1 http://www.topografix.com/GPX/1/1/gpx.xsd" version="1.1" creator="VisuGPX - https://www.visugpx.com">
  <metadata>
    <name>Rando sur Saint Didier 2</name>
    <desc><![CDATA[rando à revoir pour tracé final]]></desc>
  </metadata>
  <wpt lat="43.97124" lon="5.13767">
    <ele>448.3</ele>
    <name><![CDATA[Repère 1]]></name>
    <desc><![CDATA[]]></desc>
  </wpt>
  <trk>
    <name><![CDATA[24/01/2013 13:40 St Didier 2]]></name>
    <desc><![CDATA[]]></desc>
    <trkseg>
      <trkpt lat="43.98346" lon="5.11897">
        <ele>288.4</ele>
        <time>2013-01-24T12:40:40.000Z</time>
      </trkpt>
      <trkpt lat="43.98345" lon="5.11902">
        <ele>295.3</ele>
        <time>2013-01-24T12:40:59.000Z</time>
      </trkpt>
      <trkpt lat="43.98344" lon="5.11903">
        <ele>294.9</ele>
        <time>2013-01-24T12:41:00.000Z</time>
      </trkpt>
      <trkpt lat="43.98341" lon="5.11906">
        <ele>293.7</ele>
        <time>2013-01-24T12:41:02.000Z</time>
      </trkpt>
      <trkpt lat="43.98339" lon="5.11905">
        <ele>293.7</ele>
        <time>2013-01-24T12:41:03.000Z</time>
      </trkpt>
      <trkpt lat="43.98335" lon="5.11905">
        <ele>294.5</ele>
        <time>2013-01-24T12:41:06.000Z</time>
      </trkpt>
      <trkpt lat="43.98333" lon="5.11905">
        <ele>294.4</ele>
        <time>2013-01-24T12:41:07.000Z</time>
      </trkpt>
      <trkpt lat="43.9833" lon="5.11901">
        <ele>294.7</ele>
        <time>2013-01-24T12:41:10.000Z</time>
      </trkpt>
      <trkpt lat="43.98329" lon="5.11899">
        <ele>294.1</ele>
        <time>2013-01-24T12:41:11.000Z</time>
      </trkpt>
      <trkpt lat="43.98327" lon="5.11897">
        <ele>294.3</ele>
        <time>2013-01-24T12:41:12.000Z</time>
      </trkpt>
      <trkpt lat="43.98325" lon="5.11894">
        <ele>294.6</ele>
        <time>2013-01-24T12:41:13.000Z</time>
      </trkpt>
      <trkpt lat="43.98324" lon="5.11891">
        <ele>294.7</ele>
        <time>2013-01-24T12:41:14.000Z</time>
      </trkpt>
      <trkpt lat="43.98323" lon="5.11888">
        <ele>295.5</ele>
        <time>2013-01-24T12:41:15.000Z</time>
      </trkpt>
      <trkpt lat="43.98323" lon="5.11883">
        <ele>295.8</ele>
        <time>2013-01-24T12:41:16.000Z</time>
      </trkpt>
      <trkpt lat="43.98324" lon="5.11879">
        <ele>294.3</ele>
        <time>2013-01-24T12:41:17.000Z</time>
      </trkpt>
      <trkpt lat="43.98326" lon="5.11875">
        <ele>293.8</ele>
        <time>2013-01-24T12:41:18.000Z</time>
      </trkpt>
      <trkpt lat="43.98329" lon="5.11872">
        <ele>292.8</ele>
        <time>2013-01-24T12:41:19.000Z</time>
      </trkpt>
      <trkpt lat="43.98334" lon="5.1187">
        <ele>291.7</ele>
        <time>2013-01-24T12:41:20.000Z</time>
      </trkpt>
      <trkpt lat="43.98338" lon="5.11866">
        <ele>290.4</ele>
        <time>2013-01-24T12:41:21.000Z</time>
      </trkpt>
      <trkpt lat="43.98342" lon="5.11861">
        <ele>289.7</ele>
        <time>2013-01-24T12:41:22.000Z</time>
      </trkpt>
      <trkpt lat="43.98347" lon="5.11857">
        <ele>289.3</ele>
        <time>2013-01-24T12:41:23.000Z</time>
      </trkpt>
      <trkpt lat="43.98351" lon="5.11852">
        <ele>288.6</ele>
        <time>2013-01-24T12:41:24.000Z</time>
      </trkpt>
      <trkpt lat="43.98355" lon="5.11848">
        <ele>287.6</ele>
        <time>2013-01-24T12:41:25.000Z</time>
      </trkpt>
      <trkpt lat="43.9836" lon="5.11844">
        <ele>287.1</ele>
        <time>2013-01-24T12:41:26.000Z</time>
      </trkpt>
      <trkpt lat="43.98365" lon="5.1184">
        <ele>286.5</ele>
        <time>2013-01-24T12:41:27.000Z</time>
      </trkpt>
      <trkpt lat="43.98369" lon="5.11835">
        <ele>285.7</ele>
        <time>2013-01-24T12:41:28.000Z</time>
      </trkpt>
      <trkpt lat="43.98374" lon="5.1183">
        <ele>285.3</ele>
        <time>2013-01-24T12:41:29.000Z</time>
      </trkpt>
      <trkpt lat="43.98379" lon="5.11825">
        <ele>284.7</ele>
        <time>2013-01-24T12:41:30.000Z</time>
      </trkpt>
      <trkpt lat="43.98384" lon="5.11821">
        <ele>284</ele>
        <time>2013-01-24T12:41:31.000Z</time>
      </trkpt>
      <trkpt lat="43.98388" lon="5.11816">
        <ele>283.7</ele>
        <time>2013-01-24T12:41:32.000Z</time>
      </trkpt>
      <trkpt lat="43.98393" lon="5.11812">
        <ele>283.5</ele>
        <time>2013-01-24T12:41:33.000Z</time>
      </trkpt>
      <trkpt lat="43.98397" lon="5.11811">
        <ele>282.9</ele>
        <time>2013-01-24T12:41:34.000Z</time>
      </trkpt>
      <trkpt lat="43.984" lon="5.11809">
        <ele>282.4</ele>
        <time>2013-01-24T12:41:35.000Z</time>
      </trkpt>
      <trkpt lat="43.98403" lon="5.11808">
        <ele>281.9</ele>
        <time>2013-01-24T12:41:36.000Z</time>
      </trkpt>
      <trkpt lat="43.98406" lon="5.11808">
        <ele>281.4</ele>
        <time>2013-01-24T12:41:37.000Z</time>
      </trkpt>
      <trkpt lat="43.98409" lon="5.11809">
        <ele>280.6</ele>
        <time>2013-01-24T12:41:38.000Z</time>
      </trkpt>
      <trkpt lat="43.98412" lon="5.11812">
        <ele>280</ele>
        <time>2013-01-24T12:41:39.000Z</time>
      </trkpt>
      <trkpt lat="43.98414" lon="5.11817">
        <ele>279.9</ele>
        <time>2013-01-24T12:41:40.000Z</time>
      </trkpt>
      <trkpt lat="43.98415" lon="5.11823">
        <ele>279.4</ele>
        <time>2013-01-24T12:41:41.000Z</time>
      </trkpt>
      <trkpt lat="43.98417" lon="5.1183">
        <ele>279.3</ele>
        <time>2013-01-24T12:41:42.000Z</time>
      </trkpt>
      <trkpt lat="43.98417" lon="5.11836">
        <ele>279.3</ele>
        <time>2013-01-24T12:41:43.000Z</time>
      </trkpt>
      <trkpt lat="43.98418" lon="5.11841">
        <ele>279.3</ele>
        <time>2013-01-24T12:41:44.000Z</time>
      </trkpt>
      <trkpt lat="43.9842" lon="5.11846">
        <ele>279</ele>
        <time>2013-01-24T12:41:45.000Z</time>
      </trkpt>
      <trkpt lat="43.98422" lon="5.1185">
        <ele>278.8</ele>
        <time>2013-01-24T12:41:46.000Z</time>
      </trkpt>
      <trkpt lat="43.98425" lon="5.11854">
        <ele>278.3</ele>
        <time>2013-01-24T12:41:47.000Z</time>
      </trkpt>
      <trkpt lat="43.98429" lon="5.11857">
        <ele>277.6</ele>
        <time>2013-01-24T12:41:48.000Z</time>
      </trkpt>
      <trkpt lat="43.98434" lon="5.11859">
        <ele>277.2</ele>
        <time>2013-01-24T12:41:49.000Z</time>
      </trkpt>
      <trkpt lat="43.98439" lon="5.11861">
        <ele>276.9</ele>
        <time>2013-01-24T12:41:50.000Z</time>
      </trkpt>
      <trkpt lat="43.98444" lon="5.11863">
        <ele>276.9</ele>
        <time>2013-01-24T12:41:51.000Z</time>
      </trkpt>
      <trkpt lat="43.98449" lon="5.11864">
        <ele>276.5</ele>
        <time>2013-01-24T12:41:52.000Z</time>
      </trkpt>
      <trkpt lat="43.98455" lon="5.11866">
        <ele>276.1</ele>
        <time>2013-01-24T12:41:53.000Z</time>
      </trkpt>
      <trkpt lat="43.98461" lon="5.11867">
        <ele>275.8</ele>
        <time>2013-01-24T12:41:54.000Z</time>
      </trkpt>
      <trkpt lat="43.98467" lon="5.11869">
        <ele>275.5</ele>
        <time>2013-01-24T12:41:55.000Z</time>
      </trkpt>
      <trkpt lat="43.98474" lon="5.1187">
        <ele>275.2</ele>
        <time>2013-01-24T12:41:56.000Z</time>
      </trkpt>
      <trkpt lat="43.9848" lon="5.11872">
        <ele>274.6</ele>
        <time>2013-01-24T12:41:57.000Z</time>
      </trkpt>
      <trkpt lat="43.98487" lon="5.11874">
        <ele>274.2</ele>
        <time>2013-01-24T12:41:58.000Z</time>
      </trkpt>
      <trkpt lat="43.98495" lon="5.11876">
        <ele>274.1</ele>
        <time>2013-01-24T12:41:59.000Z</time>
      </trkpt>
      <trkpt lat="43.98502" lon="5.11878">
        <ele>273.2</ele>
        <time>2013-01-24T12:42:00.000Z</time>
      </trkpt>
      <trkpt lat="43.9851" lon="5.1188">
        <ele>272.9</ele>
        <time>2013-01-24T12:42:01.000Z</time>
      </trkpt>
      <trkpt lat="43.98517" lon="5.11883">
        <ele>272.4</ele>
        <time>2013-01-24T12:42:02.000Z</time>
      </trkpt>
      <trkpt lat="43.98525" lon="5.11885">
        <ele>271.8</ele>
        <time>2013-01-24T12:42:03.000Z</time>
      </trkpt>
      <trkpt lat="43.98532" lon="5.11887">
        <ele>271.5</ele>
        <time>2013-01-24T12:42:04.000Z</time>
      </trkpt>
      <trkpt lat="43.98539" lon="5.11888">
        <ele>271.5</ele>
        <time>2013-01-24T12:42:05.000Z</time>
      </trkpt>
      <trkpt lat="43.98546" lon="5.11889">
        <ele>271.1</ele>
        <time>2013-01-24T12:42:06.000Z</time>
      </trkpt>
      <trkpt lat="43.98553" lon="5.11891">
        <ele>270.7</ele>
        <time>2013-01-24T12:42:07.000Z</time>
      </trkpt>
      <trkpt lat="43.9856" lon="5.11894">
        <ele>270.7</ele>
        <time>2013-01-24T12:42:08.000Z</time>
      </trkpt>
      <trkpt lat="43.98566" lon="5.11899">
        <ele>271</ele>
        <time>2013-01-24T12:42:09.000Z</time>
      </trkpt>
      <trkpt lat="43.98571" lon="5.11904">
        <ele>271.3</ele>
        <time>2013-01-24T12:42:10.000Z</time>
      </trkpt>
      <trkpt lat="43.98575" lon="5.1191">
        <ele>271.9</ele>
        <time>2013-01-24T12:42:11.000Z</time>
      </trkpt>
      <trkpt lat="43.98579" lon="5.11914">
        <ele>272.2</ele>
        <time>2013-01-24T12:42:12.000Z</time>
      </trkpt>
      <trkpt lat="43.98582" lon="5.11919">
        <ele>272.5</ele>
        <time>2013-01-24T12:42:13.000Z</time>
      </trkpt>
      <trkpt lat="43.98585" lon="5.11922">
        <ele>273</ele>
        <time>2013-01-24T12:42:14.000Z</time>
      </trkpt>
      <trkpt lat="43.98587" lon="5.11924">
        <ele>273.4</ele>
        <time>2013-01-24T12:42:15.000Z</time>
      </trkpt>
      <trkpt lat="43.98589" lon="5.11927">
        <ele>273.4</ele>
        <time>2013-01-24T12:42:16.000Z</time>
      </trkpt>
      <trkpt lat="43.98591" lon="5.1193">
        <ele>273.9</ele>
        <time>2013-01-24T12:42:17.000Z</time>
      </trkpt>
      <trkpt lat="43.98593" lon="5.11934">
        <ele>274.5</ele>
        <time>2013-01-24T12:42:18.000Z</time>
      </trkpt>
      <trkpt lat="43.98596" lon="5.11938">
        <ele>274.8</ele>
        <time>2013-01-24T12:42:19.000Z</time>
      </trkpt>
      <trkpt lat="43.98599" lon="5.11942">
        <ele>275.3</ele>
        <time>2013-01-24T12:42:20.000Z</time>
      </trkpt>
      <trkpt lat="43.98601" lon="5.11945">
        <ele>275.9</ele>
        <time>2013-01-24T12:42:21.000Z</time>
      </trkpt>
      <trkpt lat="43.98605" lon="5.11949">
        <ele>276.4</ele>
        <time>2013-01-24T12:42:22.000Z</time>
      </trkpt>
      <trkpt lat="43.98608" lon="5.11951">
        <ele>276.7</ele>
        <time>2013-01-24T12:42:23.000Z</time>
      </trkpt>
      <trkpt lat="43.98613" lon="5.11952">
        <ele>277.2</ele>
        <time>2013-01-24T12:42:24.000Z</time>
      </trkpt>
      <trkpt lat="43.98617" lon="5.11952">
        <ele>277.6</ele>
        <time>2013-01-24T12:42:25.000Z</time>
      </trkpt>
      <trkpt lat="43.98621" lon="5.11952">
        <ele>278.2</ele>
        <time>2013-01-24T12:42:26.000Z</time>
      </trkpt>
      <trkpt lat="43.98625" lon="5.11952">
        <ele>278.5</ele>
        <time>2013-01-24T12:42:27.000Z</time>
      </trkpt>
      <trkpt lat="43.98629" lon="5.11951">
        <ele>279.7</ele>
        <time>2013-01-24T12:42:28.000Z</time>
      </trkpt>
      <trkpt lat="43.98632" lon="5.11949">
        <ele>280.9</ele>
        <time>2013-01-24T12:42:29.000Z</time>
      </trkpt>
      <trkpt lat="43.98635" lon="5.11949">
        <ele>282.2</ele>
        <time>2013-01-24T12:42:30.000Z</time>
      </trkpt>
      <trkpt lat="43.98638" lon="5.11946">
        <ele>281.5</ele>
        <time>2013-01-24T12:42:31.000Z</time>
      </trkpt>
      <trkpt lat="43.98641" lon="5.11944">
        <ele>282</ele>
        <time>2013-01-24T12:42:32.000Z</time>
      </trkpt>
      <trkpt lat="43.98644" lon="5.11941">
        <ele>282</ele>
        <time>2013-01-24T12:42:33.000Z</time>
      </trkpt>
      <trkpt lat="43.98648" lon="5.11938">
        <ele>281.3</ele>
        <time>2013-01-24T12:42:34.000Z</time>
      </trkpt>
      <trkpt lat="43.98653" lon="5.11934">
        <ele>280.6</ele>
        <time>2013-01-24T12:42:35.000Z</time>
      </trkpt>
      <trkpt lat="43.98657" lon="5.11931">
        <ele>280.4</ele>
        <time>2013-01-24T12:42:36.000Z</time>
      </trkpt>
      <trkpt lat="43.98659" lon="5.11928">
        <ele>280.3</ele>
        <time>2013-01-24T12:42:37.000Z</time>
      </trkpt>
      <trkpt lat="43.98661" lon="5.11927">
        <ele>280.2</ele>
        <time>2013-01-24T12:42:38.000Z</time>
      </trkpt>
      <trkpt lat="43.98664" lon="5.11925">
        <ele>280.3</ele>
        <time>2013-01-24T12:42:39.000Z</time>
      </trkpt>
      <trkpt lat="43.98667" lon="5.11924">
        <ele>280.9</ele>
        <time>2013-01-24T12:42:40.000Z</time>
      </trkpt>
      <trkpt lat="43.98669" lon="5.11922">
        <ele>281.5</ele>
        <time>2013-01-24T12:42:41.000Z</time>
      </trkpt>
      <trkpt lat="43.98672" lon="5.1192">
        <ele>281.8</ele>
        <time>2013-01-24T12:42:42.000Z</time>
      </trkpt>
      <trkpt lat="43.98675" lon="5.11919">
        <ele>282.3</ele>
        <time>2013-01-24T12:42:43.000Z</time>
      </trkpt>
      <trkpt lat="43.98678" lon="5.11917">
        <ele>282.1</ele>
        <time>2013-01-24T12:42:44.000Z</time>
      </trkpt>
      <trkpt lat="43.98681" lon="5.11916">
        <ele>282.7</ele>
        <time>2013-01-24T12:42:45.000Z</time>
      </trkpt>
      <trkpt lat="43.98684" lon="5.11915">
        <ele>283.3</ele>
        <time>2013-01-24T12:42:46.000Z</time>
      </trkpt>
      <trkpt lat="43.98686" lon="5.11914">
        <ele>284</ele>
        <time>2013-01-24T12:42:47.000Z</time>
      </trkpt>
      <trkpt lat="43.98688" lon="5.11913">
        <ele>284.7</ele>
        <time>2013-01-24T12:42:48.000Z</time>
      </trkpt>
      <trkpt lat="43.98691" lon="5.11912">
        <ele>284.4</ele>
        <time>2013-01-24T12:42:49.000Z</time>
      </trkpt>
      <trkpt lat="43.98693" lon="5.1191">
        <ele>284.7</ele>
        <time>2013-01-24T12:42:50.000Z</time>
      </trkpt>
      <trkpt lat="43.98695" lon="5.11908">
        <ele>285.1</ele>
        <time>2013-01-24T12:42:51.000Z</time>
      </trkpt>
      <trkpt lat="43.98698" lon="5.11908">
        <ele>285.2</ele>
        <time>2013-01-24T12:42:52.000Z</time>
      </trkpt>
      <trkpt lat="43.98701" lon="5.11907">
        <ele>285.4</ele>
        <time>2013-01-24T12:42:53.000Z</time>
      </trkpt>
      <trkpt lat="43.98703" lon="5.11905">
        <ele>285.1</ele>
        <time>2013-01-24T12:42:54.000Z</time>
      </trkpt>
      <trkpt lat="43.98705" lon="5.11905">
        <ele>285.1</ele>
        <time>2013-01-24T12:42:55.000Z</time>
      </trkpt>
      <trkpt lat="43.98709" lon="5.11904">
        <ele>285.4</ele>
        <time>2013-01-24T12:42:56.000Z</time>
      </trkpt>
      <trkpt lat="43.98711" lon="5.11904">
        <ele>285.7</ele>
        <time>2013-01-24T12:42:57.000Z</time>
      </trkpt>
      <trkpt lat="43.98714" lon="5.11903">
        <ele>285.6</ele>
        <time>2013-01-24T12:42:58.000Z</time>
      </trkpt>
      <trkpt lat="43.98716" lon="5.11902">
        <ele>286</ele>
        <time>2013-01-24T12:42:59.000Z</time>
      </trkpt>
      <trkpt lat="43.98718" lon="5.11902">
        <ele>286.4</ele>
        <time>2013-01-24T12:43:00.000Z</time>
      </trkpt>
      <trkpt lat="43.98721" lon="5.119">
        <ele>286.3</ele>
        <time>2013-01-24T12:43:01.000Z</time>
      </trkpt>
      <trkpt lat="43.98724" lon="5.11899">
        <ele>286.4</ele>
        <time>2013-01-24T12:43:02.000Z</time>
      </trkpt>
      <trkpt lat="43.98726" lon="5.119">
        <ele>286.4</ele>
        <time>2013-01-24T12:43:03.000Z</time>
      </trkpt>
      <trkpt lat="43.98728" lon="5.11899">
        <ele>286.4</ele>
        <time>2013-01-24T12:43:04.000Z</time>
      </trkpt>
      <trkpt lat="43.98731" lon="5.119">
        <ele>286.9</ele>
        <time>2013-01-24T12:43:05.000Z</time>
      </trkpt>
      <trkpt lat="43.98737" lon="5.11897">
        <ele>286.6</ele>
        <time>2013-01-24T12:43:06.000Z</time>
      </trkpt>
      <trkpt lat="43.9874" lon="5.11896">
        <ele>286.5</ele>
        <time>2013-01-24T12:43:08.000Z</time>
      </trkpt>
      <trkpt lat="43.98743" lon="5.11895">
        <ele>286.4</ele>
        <time>2013-01-24T12:43:09.000Z</time>
      </trkpt>
      <trkpt lat="43.98745" lon="5.11895">
        <ele>286.6</ele>
        <time>2013-01-24T12:43:10.000Z</time>
      </trkpt>
      <trkpt lat="43.98748" lon="5.11894">
        <ele>286.6</ele>
        <time>2013-01-24T12:43:11.000Z</time>
      </trkpt>
      <trkpt lat="43.98751" lon="5.11892">
        <ele>286.6</ele>
        <time>2013-01-24T12:43:12.000Z</time>
      </trkpt>
      <trkpt lat="43.98754" lon="5.11892">
        <ele>286.3</ele>
        <time>2013-01-24T12:43:13.000Z</time>
      </trkpt>
      <trkpt lat="43.98758" lon="5.1189">
        <ele>287.1</ele>
        <time>2013-01-24T12:43:15.000Z</time>
      </trkpt>
      <trkpt lat="43.98761" lon="5.1189">
        <ele>287.1</ele>
        <time>2013-01-24T12:43:16.000Z</time>
      </trkpt>
      <trkpt lat="43.98763" lon="5.11889">
        <ele>287</ele>
        <time>2013-01-24T12:43:17.000Z</time>
      </trkpt>
      <trkpt lat="43.98765" lon="5.11888">
        <ele>286.6</ele>
        <time>2013-01-24T12:43:18.000Z</time>
      </trkpt>
      <trkpt lat="43.9877" lon="5.11887">
        <ele>286.8</ele>
        <time>2013-01-24T12:43:19.000Z</time>
      </trkpt>
      <trkpt lat="43.98774" lon="5.11885">
        <ele>286.5</ele>
        <time>2013-01-24T12:43:20.000Z</time>
      </trkpt>
      <trkpt lat="43.98779" lon="5.11883">
        <ele>285.8</ele>
        <time>2013-01-24T12:43:22.000Z</time>
      </trkpt>
      <trkpt lat="43.9878" lon="5.11882">
        <ele>285.6</ele>
        <time>2013-01-24T12:43:23.000Z</time>
      </trkpt>
      <trkpt lat="43.98784" lon="5.1188">
        <ele>285.9</ele>
        <time>2013-01-24T12:43:24.000Z</time>
      </trkpt>
      <trkpt lat="43.98787" lon="5.11879">
        <ele>288.8</ele>
        <time>2013-01-24T12:43:25.000Z</time>
      </trkpt>
      <trkpt lat="43.9879" lon="5.11878">
        <ele>289</ele>
        <time>2013-01-24T12:43:26.000Z</time>
      </trkpt>
      <trkpt lat="43.98793" lon="5.11877">
        <ele>289.1</ele>
        <time>2013-01-24T12:43:27.000Z</time>
      </trkpt>
      <trkpt lat="43.98796" lon="5.11876">
        <ele>288.9</ele>
        <time>2013-01-24T12:43:28.000Z</time>
      </trkpt>
      <trkpt lat="43.98798" lon="5.11876">
        <ele>289.4</ele>
        <time>2013-01-24T12:43:29.000Z</time>
      </trkpt>
      <trkpt lat="43.98801" lon="5.11875">
        <ele>288.5</ele>
        <time>2013-01-24T12:43:30.000Z</time>
      </trkpt>
      <trkpt lat="43.98804" lon="5.11876">
        <ele>288.4</ele>
        <time>2013-01-24T12:43:31.000Z</time>
      </trkpt>
      <trkpt lat="43.98807" lon="5.11876">
        <ele>288.3</ele>
        <time>2013-01-24T12:43:32.000Z</time>
      </trkpt>
      <trkpt lat="43.9881" lon="5.11875">
        <ele>288.6</ele>
        <time>2013-01-24T12:43:33.000Z</time>
      </trkpt>
      <trkpt lat="43.98813" lon="5.11874">
        <ele>290.1</ele>
        <time>2013-01-24T12:43:34.000Z</time>
      </trkpt>
      <trkpt lat="43.98817" lon="5.11872">
        <ele>290.8</ele>
        <time>2013-01-24T12:43:35.000Z</time>
      </trkpt>
      <trkpt lat="43.9882" lon="5.11871">
        <ele>290.1</ele>
        <time>2013-01-24T12:43:36.000Z</time>
      </trkpt>
      <trkpt lat="43.98824" lon="5.1187">
        <ele>290.8</ele>
        <time>2013-01-24T12:43:37.000Z</time>
      </trkpt>
      <trkpt lat="43.98826" lon="5.11869">
        <ele>290.9</ele>
        <time>2013-01-24T12:43:38.000Z</time>
      </trkpt>
      <trkpt lat="43.98829" lon="5.11868">
        <ele>291.7</ele>
        <time>2013-01-24T12:43:39.000Z</time>
      </trkpt>
      <trkpt lat="43.98831" lon="5.11868">
        <ele>293.8</ele>
        <time>2013-01-24T12:43:40.000Z</time>
      </trkpt>
      <trkpt lat="43.98834" lon="5.11868">
        <ele>295</ele>
        <time>2013-01-24T12:43:41.000Z</time>
      </trkpt>
      <trkpt lat="43.98837" lon="5.11867">
        <ele>295.6</ele>
        <time>2013-01-24T12:43:42.000Z</time>
      </trkpt>
      <trkpt lat="43.98839" lon="5.11867">
        <ele>295.7</ele>
        <time>2013-01-24T12:43:43.000Z</time>
      </trkpt>
      <trkpt lat="43.98842" lon="5.11865">
        <ele>295.2</ele>
        <time>2013-01-24T12:43:44.000Z</time>
      </trkpt>
      <trkpt lat="43.98847" lon="5.11864">
        <ele>294.9</ele>
        <time>2013-01-24T12:43:45.000Z</time>
      </trkpt>
      <trkpt lat="43.98852" lon="5.11863">
        <ele>302.7</ele>
        <time>2013-01-24T12:43:46.000Z</time>
      </trkpt>
      <trkpt lat="43.98856" lon="5.1186">
        <ele>302.6</ele>
        <time>2013-01-24T12:43:47.000Z</time>
      </trkpt>
      <trkpt lat="43.98861" lon="5.1186">
        <ele>302.3</ele>
        <time>2013-01-24T12:43:48.000Z</time>
      </trkpt>
      <trkpt lat="43.98865" lon="5.1186">
        <ele>301.7</ele>
        <time>2013-01-24T12:43:49.000Z</time>
      </trkpt>
      <trkpt lat="43.98869" lon="5.1186">
        <ele>301.4</ele>
        <time>2013-01-24T12:43:50.000Z</time>
      </trkpt>
      <trkpt lat="43.98873" lon="5.1186">
        <ele>300.6</ele>
        <time>2013-01-24T12:43:51.000Z</time>
      </trkpt>
      <trkpt lat="43.98876" lon="5.11861">
        <ele>299.7</ele>
        <time>2013-01-24T12:43:52.000Z</time>
      </trkpt>
      <trkpt lat="43.9888" lon="5.11861">
        <ele>299.7</ele>
        <time>2013-01-24T12:43:53.000Z</time>
      </trkpt>
      <trkpt lat="43.98885" lon="5.11862">
        <ele>299.1</ele>
        <time>2013-01-24T12:43:54.000Z</time>
      </trkpt>
      <trkpt lat="43.98888" lon="5.11861">
        <ele>298.9</ele>
        <time>2013-01-24T12:43:55.000Z</time>
      </trkpt>
      <trkpt lat="43.98892" lon="5.11861">
        <ele>298.6</ele>
        <time>2013-01-24T12:43:56.000Z</time>
      </trkpt>
      <trkpt lat="43.98896" lon="5.11861">
        <ele>298.1</ele>
        <time>2013-01-24T12:43:57.000Z</time>
      </trkpt>
      <trkpt lat="43.989" lon="5.1186">
        <ele>298</ele>
        <time>2013-01-24T12:43:58.000Z</time>
      </trkpt>
      <trkpt lat="43.98904" lon="5.11861">
        <ele>298.1</ele>
        <time>2013-01-24T12:43:59.000Z</time>
      </trkpt>
      <trkpt lat="43.98908" lon="5.1186">
        <ele>298</ele>
        <time>2013-01-24T12:44:00.000Z</time>
      </trkpt>
      <trkpt lat="43.98912" lon="5.1186">
        <ele>298</ele>
        <time>2013-01-24T12:44:01.000Z</time>
      </trkpt>
      <trkpt lat="43.98916" lon="5.11861">
        <ele>297.4</ele>
        <time>2013-01-24T12:44:02.000Z</time>
      </trkpt>
      <trkpt lat="43.98919" lon="5.11861">
        <ele>296.3</ele>
        <time>2013-01-24T12:44:03.000Z</time>
      </trkpt>
      <trkpt lat="43.98924" lon="5.11861">
        <ele>296.1</ele>
        <time>2013-01-24T12:44:04.000Z</time>
      </trkpt>
      <trkpt lat="43.98928" lon="5.11861">
        <ele>296</ele>
        <time>2013-01-24T12:44:05.000Z</time>
      </trkpt>
      <trkpt lat="43.98932" lon="5.1186">
        <ele>295.9</ele>
        <time>2013-01-24T12:44:06.000Z</time>
      </trkpt>
      <trkpt lat="43.98937" lon="5.1186">
        <ele>296</ele>
        <time>2013-01-24T12:44:07.000Z</time>
      </trkpt>
      <trkpt lat="43.98941" lon="5.1186">
        <ele>296</ele>
        <time>2013-01-24T12:44:08.000Z</time>
      </trkpt>
      <trkpt lat="43.98945" lon="5.11861">
        <ele>296.2</ele>
        <time>2013-01-24T12:44:09.000Z</time>
      </trkpt>
      <trkpt lat="43.9895" lon="5.1186">
        <ele>296.1</ele>
        <time>2013-01-24T12:44:10.000Z</time>
      </trkpt>
      <trkpt lat="43.98954" lon="5.1186">
        <ele>296</ele>
        <time>2013-01-24T12:44:11.000Z</time>
      </trkpt>
      <trkpt lat="43.98958" lon="5.1186">
        <ele>296.6</ele>
        <time>2013-01-24T12:44:12.000Z</time>
      </trkpt>
      <trkpt lat="43.98962" lon="5.1186">
        <ele>296.7</ele>
        <time>2013-01-24T12:44:13.000Z</time>
      </trkpt>
      <trkpt lat="43.98966" lon="5.11861">
        <ele>296.4</ele>
        <time>2013-01-24T12:44:14.000Z</time>
      </trkpt>
      <trkpt lat="43.9897" lon="5.11861">
        <ele>295.7</ele>
        <time>2013-01-24T12:44:15.000Z</time>
      </trkpt>
      <trkpt lat="43.98974" lon="5.11862">
        <ele>295.3</ele>
        <time>2013-01-24T12:44:16.000Z</time>
      </trkpt>
      <trkpt lat="43.98978" lon="5.11862">
        <ele>295.2</ele>
        <time>2013-01-24T12:44:17.000Z</time>
      </trkpt>
      <trkpt lat="43.98982" lon="5.11863">
        <ele>295.1</ele>
        <time>2013-01-24T12:44:18.000Z</time>
      </trkpt>
      <trkpt lat="43.98986" lon="5.11863">
        <ele>295.1</ele>
        <time>2013-01-24T12:44:19.000Z</time>
      </trkpt>
      <trkpt lat="43.98992" lon="5.11865">
        <ele>294.7</ele>
        <time>2013-01-24T12:44:20.000Z</time>
      </trkpt>
      <trkpt lat="43.98996" lon="5.11866">
        <ele>294.9</ele>
        <time>2013-01-24T12:44:21.000Z</time>
      </trkpt>
      <trkpt lat="43.99001" lon="5.11868">
        <ele>294.5</ele>
        <time>2013-01-24T12:44:22.000Z</time>
      </trkpt>
      <trkpt lat="43.99005" lon="5.11869">
        <ele>294.4</ele>
        <time>2013-01-24T12:44:23.000Z</time>
      </trkpt>
      <trkpt lat="43.99009" lon="5.11871">
        <ele>294.5</ele>
        <time>2013-01-24T12:44:24.000Z</time>
      </trkpt>
      <trkpt lat="43.99014" lon="5.11872">
        <ele>294.4</ele>
        <time>2013-01-24T12:44:25.000Z</time>
      </trkpt>
      <trkpt lat="43.99018" lon="5.11874">
        <ele>294.5</ele>
        <time>2013-01-24T12:44:26.000Z</time>
      </trkpt>
      <trkpt lat="43.99022" lon="5.11875">
        <ele>294.4</ele>
        <time>2013-01-24T12:44:27.000Z</time>
      </trkpt>
      <trkpt lat="43.99027" lon="5.11877">
        <ele>294.7</ele>
        <time>2013-01-24T12:44:28.000Z</time>
      </trkpt>
      <trkpt lat="43.99032" lon="5.11878">
        <ele>294.5</ele>
        <time>2013-01-24T12:44:29.000Z</time>
      </trkpt>
      <trkpt lat="43.99037" lon="5.11879">
        <ele>294.5</ele>
        <time>2013-01-24T12:44:30.000Z</time>
      </trkpt>
      <trkpt lat="43.99041" lon="5.11879">
        <ele>294.5</ele>
        <time>2013-01-24T12:44:31.000Z</time>
      </trkpt>
      <trkpt lat="43.99047" lon="5.11879">
        <ele>294.4</ele>
        <time>2013-01-24T12:44:32.000Z</time>
      </trkpt>
      <trkpt lat="43.99052" lon="5.11879">
        <ele>294.1</ele>
        <time>2013-01-24T12:44:33.000Z</time>
      </trkpt>
      <trkpt lat="43.99056" lon="5.1188">
        <ele>294</ele>
        <time>2013-01-24T12:44:34.000Z</time>
      </trkpt>
      <trkpt lat="43.99061" lon="5.1188">
        <ele>294.2</ele>
        <time>2013-01-24T12:44:35.000Z</time>
      </trkpt>
      <trkpt lat="43.99066" lon="5.1188">
        <ele>294.6</ele>
        <time>2013-01-24T12:44:36.000Z</time>
      </trkpt>
      <trkpt lat="43.99072" lon="5.1188">
        <ele>294.5</ele>
        <time>2013-01-24T12:44:37.000Z</time>
      </trkpt>
      <trkpt lat="43.99077" lon="5.11879">
        <ele>294.5</ele>
        <time>2013-01-24T12:44:38.000Z</time>
      </trkpt>
      <trkpt lat="43.99082" lon="5.11879">
        <ele>295.1</ele>
        <time>2013-01-24T12:44:39.000Z</time>
      </trkpt>
      <trkpt lat="43.99087" lon="5.11879">
        <ele>295.4</ele>
        <time>2013-01-24T12:44:40.000Z</time>
      </trkpt>
      <trkpt lat="43.99092" lon="5.11879">
        <ele>295.8</ele>
        <time>2013-01-24T12:44:41.000Z</time>
      </trkpt>
      <trkpt lat="43.99097" lon="5.11879">
        <ele>296</ele>
        <time>2013-01-24T12:44:42.000Z</time>
      </trkpt>
      <trkpt lat="43.99101" lon="5.11879">
        <ele>296.1</ele>
        <time>2013-01-24T12:44:43.000Z</time>
      </trkpt>
      <trkpt lat="43.99106" lon="5.1188">
        <ele>295.9</ele>
        <time>2013-01-24T12:44:44.000Z</time>
      </trkpt>
      <trkpt lat="43.99111" lon="5.1188">
        <ele>295.7</ele>
        <time>2013-01-24T12:44:45.000Z</time>
      </trkpt>
      <trkpt lat="43.99116" lon="5.1188">
        <ele>295.9</ele>
        <time>2013-01-24T12:44:46.000Z</time>
      </trkpt>
      <trkpt lat="43.9912" lon="5.1188">
        <ele>295.8</ele>
        <time>2013-01-24T12:44:47.000Z</time>
      </trkpt>
      <trkpt lat="43.99125" lon="5.1188">
        <ele>295.7</ele>
        <time>2013-01-24T12:44:48.000Z</time>
      </trkpt>
      <trkpt lat="43.99129" lon="5.1188">
        <ele>295.8</ele>
        <time>2013-01-24T12:44:49.000Z</time>
      </trkpt>
      <trkpt lat="43.99134" lon="5.11881">
        <ele>295.9</ele>
        <time>2013-01-24T12:44:50.000Z</time>
      </trkpt>
      <trkpt lat="43.99138" lon="5.11882">
        <ele>295.7</ele>
        <time>2013-01-24T12:44:51.000Z</time>
      </trkpt>
      <trkpt lat="43.99142" lon="5.11883">
        <ele>295.6</ele>
        <time>2013-01-24T12:44:52.000Z</time>
      </trkpt>
      <trkpt lat="43.99147" lon="5.11884">
        <ele>295.5</ele>
        <time>2013-01-24T12:44:53.000Z</time>
      </trkpt>
      <trkpt lat="43.99151" lon="5.11885">
        <ele>295</ele>
        <time>2013-01-24T12:44:54.000Z</time>
      </trkpt>
      <trkpt lat="43.99155" lon="5.11887">
        <ele>294.3</ele>
        <time>2013-01-24T12:44:55.000Z</time>
      </trkpt>
      <trkpt lat="43.99158" lon="5.11888">
        <ele>294.5</ele>
        <time>2013-01-24T12:44:56.000Z</time>
      </trkpt>
      <trkpt lat="43.99162" lon="5.1189">
        <ele>294.4</ele>
        <time>2013-01-24T12:44:57.000Z</time>
      </trkpt>
      <trkpt lat="43.99166" lon="5.11891">
        <ele>294.4</ele>
        <time>2013-01-24T12:44:58.000Z</time>
      </trkpt>
      <trkpt lat="43.9917" lon="5.11893">
        <ele>294.7</ele>
        <time>2013-01-24T12:44:59.000Z</time>
      </trkpt>
      <trkpt lat="43.99173" lon="5.11894">
        <ele>294.9</ele>
        <time>2013-01-24T12:45:00.000Z</time>
      </trkpt>
      <trkpt lat="43.99177" lon="5.11895">
        <ele>295.4</ele>
        <time>2013-01-24T12:45:01.000Z</time>
      </trkpt>
      <trkpt lat="43.9918" lon="5.11896">
        <ele>295.4</ele>
        <time>2013-01-24T12:45:02.000Z</time>
      </trkpt>
      <trkpt lat="43.99184" lon="5.11898">
        <ele>295.8</ele>
        <time>2013-01-24T12:45:03.000Z</time>
      </trkpt>
      <trkpt lat="43.99187" lon="5.119">
        <ele>296.2</ele>
        <time>2013-01-24T12:45:04.000Z</time>
      </trkpt>
      <trkpt lat="43.9919" lon="5.11901">
        <ele>296.7</ele>
        <time>2013-01-24T12:45:05.000Z</time>
      </trkpt>
      <trkpt lat="43.99193" lon="5.11903">
        <ele>296.7</ele>
        <time>2013-01-24T12:45:06.000Z</time>
      </trkpt>
      <trkpt lat="43.99196" lon="5.11904">
        <ele>296.9</ele>
        <time>2013-01-24T12:45:07.000Z</time>
      </trkpt>
      <trkpt lat="43.992" lon="5.11906">
        <ele>297</ele>
        <time>2013-01-24T12:45:08.000Z</time>
      </trkpt>
      <trkpt lat="43.99203" lon="5.11907">
        <ele>297.3</ele>
        <time>2013-01-24T12:45:09.000Z</time>
      </trkpt>
      <trkpt lat="43.99206" lon="5.11908">
        <ele>297.3</ele>
        <time>2013-01-24T12:45:10.000Z</time>
      </trkpt>
      <trkpt lat="43.99209" lon="5.1191">
        <ele>297.4</ele>
        <time>2013-01-24T12:45:11.000Z</time>
      </trkpt>
      <trkpt lat="43.99213" lon="5.11911">
        <ele>297.5</ele>
        <time>2013-01-24T12:45:12.000Z</time>
      </trkpt>
      <trkpt lat="43.99216" lon="5.11913">
        <ele>297.5</ele>
        <time>2013-01-24T12:45:13.000Z</time>
      </trkpt>
      <trkpt lat="43.99219" lon="5.11915">
        <ele>297.3</ele>
        <time>2013-01-24T12:45:14.000Z</time>
      </trkpt>
      <trkpt lat="43.99222" lon="5.11917">
        <ele>297.5</ele>
        <time>2013-01-24T12:45:15.000Z</time>
      </trkpt>
      <trkpt lat="43.99225" lon="5.11919">
        <ele>297.7</ele>
        <time>2013-01-24T12:45:16.000Z</time>
      </trkpt>
      <trkpt lat="43.99229" lon="5.11921">
        <ele>297.8</ele>
        <time>2013-01-24T12:45:17.000Z</time>
      </trkpt>
      <trkpt lat="43.99232" lon="5.11922">
        <ele>298.3</ele>
        <time>2013-01-24T12:45:18.000Z</time>
      </trkpt>
      <trkpt lat="43.99235" lon="5.11924">
        <ele>298.7</ele>
        <time>2013-01-24T12:45:19.000Z</time>
      </trkpt>
      <trkpt lat="43.99238" lon="5.11927">
        <ele>298.7</ele>
        <time>2013-01-24T12:45:20.000Z</time>
      </trkpt>
      <trkpt lat="43.99241" lon="5.1193">
        <ele>298.8</ele>
        <time>2013-01-24T12:45:21.000Z</time>
      </trkpt>
      <trkpt lat="43.99244" lon="5.11933">
        <ele>298.9</ele>
        <time>2013-01-24T12:45:22.000Z</time>
      </trkpt>
      <trkpt lat="43.99246" lon="5.11937">
        <ele>299.1</ele>
        <time>2013-01-24T12:45:23.000Z</time>
      </trkpt>
      <trkpt lat="43.99247" lon="5.11941">
        <ele>299.1</ele>
        <time>2013-01-24T12:45:24.000Z</time>
      </trkpt>
      <trkpt lat="43.99248" lon="5.11945">
        <ele>299.3</ele>
        <time>2013-01-24T12:45:25.000Z</time>
      </trkpt>
      <trkpt lat="43.99249" lon="5.1195">
        <ele>299.3</ele>
        <time>2013-01-24T12:45:26.000Z</time>
      </trkpt>
      <trkpt lat="43.99247" lon="5.11953">
        <ele>300.1</ele>
        <time>2013-01-24T12:45:27.000Z</time>
      </trkpt>
      <trkpt lat="43.99246" lon="5.11956">
        <ele>300.3</ele>
        <time>2013-01-24T12:45:28.000Z</time>
      </trkpt>
      <trkpt lat="43.99245" lon="5.11959">
        <ele>300.7</ele>
        <time>2013-01-24T12:45:29.000Z</time>
      </trkpt>
      <trkpt lat="43.99244" lon="5.11963">
        <ele>301</ele>
        <time>2013-01-24T12:45:30.000Z</time>
      </trkpt>
      <trkpt lat="43.99243" lon="5.11966">
        <ele>301</ele>
        <time>2013-01-24T12:45:31.000Z</time>
      </trkpt>
      <trkpt lat="43.99242" lon="5.11968">
        <ele>301</ele>
        <time>2013-01-24T12:45:32.000Z</time>
      </trkpt>
      <trkpt lat="43.99239" lon="5.11972">
        <ele>302.6</ele>
        <time>2013-01-24T12:45:34.000Z</time>
      </trkpt>
      <trkpt lat="43.99238" lon="5.11974">
        <ele>302.8</ele>
        <time>2013-01-24T12:45:35.000Z</time>
      </trkpt>
      <trkpt lat="43.99236" lon="5.11976">
        <ele>302.8</ele>
        <time>2013-01-24T12:45:36.000Z</time>
      </trkpt>
      <trkpt lat="43.99234" lon="5.11979">
        <ele>303.1</ele>
        <time>2013-01-24T12:45:37.000Z</time>
      </trkpt>
      <trkpt lat="43.99232" lon="5.11981">
        <ele>303.5</ele>
        <time>2013-01-24T12:45:38.000Z</time>
      </trkpt>
      <trkpt lat="43.99231" lon="5.11984">
        <ele>302.4</ele>
        <time>2013-01-24T12:45:39.000Z</time>
      </trkpt>
      <trkpt lat="43.99229" lon="5.11989">
        <ele>302.7</ele>
        <time>2013-01-24T12:45:41.000Z</time>
      </trkpt>
      <trkpt lat="43.99228" lon="5.11991">
        <ele>302.9</ele>
        <time>2013-01-24T12:45:42.000Z</time>
      </trkpt>
      <trkpt lat="43.99226" lon="5.11996">
        <ele>302.4</ele>
        <time>2013-01-24T12:45:44.000Z</time>
      </trkpt>
      <trkpt lat="43.99225" lon="5.11998">
        <ele>302.4</ele>
        <time>2013-01-24T12:45:45.000Z</time>
      </trkpt>
      <trkpt lat="43.99222" lon="5.12002">
        <ele>303</ele>
        <time>2013-01-24T12:45:47.000Z</time>
      </trkpt>
      <trkpt lat="43.9922" lon="5.12004">
        <ele>303.4</ele>
        <time>2013-01-24T12:45:48.000Z</time>
      </trkpt>
      <trkpt lat="43.99218" lon="5.12009">
        <ele>303.9</ele>
        <time>2013-01-24T12:45:50.000Z</time>
      </trkpt>
      <trkpt lat="43.99216" lon="5.1201">
        <ele>304.2</ele>
        <time>2013-01-24T12:45:51.000Z</time>
      </trkpt>
      <trkpt lat="43.99214" lon="5.12014">
        <ele>304.3</ele>
        <time>2013-01-24T12:45:53.000Z</time>
      </trkpt>
      <trkpt lat="43.99213" lon="5.12016">
        <ele>304.4</ele>
        <time>2013-01-24T12:45:54.000Z</time>
      </trkpt>
      <trkpt lat="43.9921" lon="5.1202">
        <ele>305</ele>
        <time>2013-01-24T12:45:56.000Z</time>
      </trkpt>
      <trkpt lat="43.99208" lon="5.12021">
        <ele>305</ele>
        <time>2013-01-24T12:45:57.000Z</time>
      </trkpt>
      <trkpt lat="43.99205" lon="5.12024">
        <ele>305.3</ele>
        <time>2013-01-24T12:45:59.000Z</time>
      </trkpt>
      <trkpt lat="43.99204" lon="5.12026">
        <ele>305.4</ele>
        <time>2013-01-24T12:46:00.000Z</time>
      </trkpt>
      <trkpt lat="43.992" lon="5.12029">
        <ele>305.9</ele>
        <time>2013-01-24T12:46:02.000Z</time>
      </trkpt>
      <trkpt lat="43.99199" lon="5.1203">
        <ele>306</ele>
        <time>2013-01-24T12:46:03.000Z</time>
      </trkpt>
      <trkpt lat="43.99195" lon="5.12033">
        <ele>306.3</ele>
        <time>2013-01-24T12:46:05.000Z</time>
      </trkpt>
      <trkpt lat="43.99193" lon="5.12035">
        <ele>306.8</ele>
        <time>2013-01-24T12:46:06.000Z</time>
      </trkpt>
      <trkpt lat="43.9919" lon="5.12036">
        <ele>307</ele>
        <time>2013-01-24T12:46:07.000Z</time>
      </trkpt>
      <trkpt lat="43.99188" lon="5.12038">
        <ele>307.4</ele>
        <time>2013-01-24T12:46:08.000Z</time>
      </trkpt>
      <trkpt lat="43.99186" lon="5.12039">
        <ele>307.6</ele>
        <time>2013-01-24T12:46:09.000Z</time>
      </trkpt>
      <trkpt lat="43.99184" lon="5.12041">
        <ele>307.9</ele>
        <time>2013-01-24T12:46:10.000Z</time>
      </trkpt>
      <trkpt lat="43.99181" lon="5.12043">
        <ele>308.2</ele>
        <time>2013-01-24T12:46:11.000Z</time>
      </trkpt>
      <trkpt lat="43.99179" lon="5.12044">
        <ele>308.3</ele>
        <time>2013-01-24T12:46:12.000Z</time>
      </trkpt>
      <trkpt lat="43.99177" lon="5.12046">
        <ele>308.6</ele>
        <time>2013-01-24T12:46:13.000Z</time>
      </trkpt>
      <trkpt lat="43.99175" lon="5.12047">
        <ele>308.9</ele>
        <time>2013-01-24T12:46:14.000Z</time>
      </trkpt>
      <trkpt lat="43.99173" lon="5.12049">
        <ele>309.1</ele>
        <time>2013-01-24T12:46:15.000Z</time>
      </trkpt>
      <trkpt lat="43.99171" lon="5.12051">
        <ele>309.5</ele>
        <time>2013-01-24T12:46:16.000Z</time>
      </trkpt>
      <trkpt lat="43.99169" lon="5.12053">
        <ele>309.7</ele>
        <time>2013-01-24T12:46:17.000Z</time>
      </trkpt>
      <trkpt lat="43.99167" lon="5.12055">
        <ele>310</ele>
        <time>2013-01-24T12:46:18.000Z</time>
      </trkpt>
      <trkpt lat="43.99165" lon="5.12056">
        <ele>310.2</ele>
        <time>2013-01-24T12:46:19.000Z</time>
      </trkpt>
      <trkpt lat="43.99163" lon="5.12058">
        <ele>310.4</ele>
        <time>2013-01-24T12:46:20.000Z</time>
      </trkpt>
      <trkpt lat="43.99159" lon="5.12061">
        <ele>310.4</ele>
        <time>2013-01-24T12:46:22.000Z</time>
      </trkpt>
      <trkpt lat="43.99157" lon="5.12062">
        <ele>310.4</ele>
        <time>2013-01-24T12:46:23.000Z</time>
      </trkpt>
      <trkpt lat="43.99154" lon="5.12066">
        <ele>310.6</ele>
        <time>2013-01-24T12:46:26.000Z</time>
      </trkpt>
      <trkpt lat="43.99153" lon="5.12068">
        <ele>311</ele>
        <time>2013-01-24T12:46:27.000Z</time>
      </trkpt>
      <trkpt lat="43.99149" lon="5.1207">
        <ele>311.5</ele>
        <time>2013-01-24T12:46:29.000Z</time>
      </trkpt>
      <trkpt lat="43.99147" lon="5.12072">
        <ele>311.8</ele>
        <time>2013-01-24T12:46:30.000Z</time>
      </trkpt>
      <trkpt lat="43.99144" lon="5.12074">
        <ele>312.6</ele>
        <time>2013-01-24T12:46:32.000Z</time>
      </trkpt>
      <trkpt lat="43.99142" lon="5.12076">
        <ele>312.7</ele>
        <time>2013-01-24T12:46:33.000Z</time>
      </trkpt>
      <trkpt lat="43.99139" lon="5.12079">
        <ele>312.8</ele>
        <time>2013-01-24T12:46:35.000Z</time>
      </trkpt>
      <trkpt lat="43.99137" lon="5.12081">
        <ele>312.8</ele>
        <time>2013-01-24T12:46:36.000Z</time>
      </trkpt>
      <trkpt lat="43.99133" lon="5.12083">
        <ele>313.6</ele>
        <time>2013-01-24T12:46:38.000Z</time>
      </trkpt>
      <trkpt lat="43.99131" lon="5.12085">
        <ele>314</ele>
        <time>2013-01-24T12:46:39.000Z</time>
      </trkpt>
      <trkpt lat="43.99128" lon="5.12087">
        <ele>314.4</ele>
        <time>2013-01-24T12:46:41.000Z</time>
      </trkpt>
      <trkpt lat="43.99126" lon="5.12089">
        <ele>314.5</ele>
        <time>2013-01-24T12:46:42.000Z</time>
      </trkpt>
      <trkpt lat="43.99123" lon="5.12092">
        <ele>315.1</ele>
        <time>2013-01-24T12:46:44.000Z</time>
      </trkpt>
      <trkpt lat="43.99121" lon="5.12093">
        <ele>315.5</ele>
        <time>2013-01-24T12:46:45.000Z</time>
      </trkpt>
      <trkpt lat="43.99118" lon="5.12096">
        <ele>316.3</ele>
        <time>2013-01-24T12:46:47.000Z</time>
      </trkpt>
      <trkpt lat="43.99117" lon="5.12098">
        <ele>316.6</ele>
        <time>2013-01-24T12:46:48.000Z</time>
      </trkpt>
      <trkpt lat="43.99113" lon="5.121">
        <ele>317.1</ele>
        <time>2013-01-24T12:46:50.000Z</time>
      </trkpt>
      <trkpt lat="43.99112" lon="5.12101">
        <ele>317.1</ele>
        <time>2013-01-24T12:46:51.000Z</time>
      </trkpt>
      <trkpt lat="43.99108" lon="5.12103">
        <ele>317.9</ele>
        <time>2013-01-24T12:46:53.000Z</time>
      </trkpt>
      <trkpt lat="43.99107" lon="5.12105">
        <ele>318</ele>
        <time>2013-01-24T12:46:54.000Z</time>
      </trkpt>
      <trkpt lat="43.99103" lon="5.12108">
        <ele>318.5</ele>
        <time>2013-01-24T12:46:56.000Z</time>
      </trkpt>
      <trkpt lat="43.99101" lon="5.12109">
        <ele>318.9</ele>
        <time>2013-01-24T12:46:57.000Z</time>
      </trkpt>
      <trkpt lat="43.99098" lon="5.12112">
        <ele>318.9</ele>
        <time>2013-01-24T12:46:59.000Z</time>
      </trkpt>
      <trkpt lat="43.99096" lon="5.12113">
        <ele>319</ele>
        <time>2013-01-24T12:47:00.000Z</time>
      </trkpt>
      <trkpt lat="43.99093" lon="5.12116">
        <ele>318.6</ele>
        <time>2013-01-24T12:47:02.000Z</time>
      </trkpt>
      <trkpt lat="43.99091" lon="5.12118">
        <ele>318.5</ele>
        <time>2013-01-24T12:47:03.000Z</time>
      </trkpt>
      <trkpt lat="43.99088" lon="5.1212">
        <ele>319.1</ele>
        <time>2013-01-24T12:47:05.000Z</time>
      </trkpt>
      <trkpt lat="43.99086" lon="5.12122">
        <ele>319.5</ele>
        <time>2013-01-24T12:47:06.000Z</time>
      </trkpt>
      <trkpt lat="43.99082" lon="5.12124">
        <ele>320.1</ele>
        <time>2013-01-24T12:47:08.000Z</time>
      </trkpt>
      <trkpt lat="43.9908" lon="5.12125">
        <ele>320.2</ele>
        <time>2013-01-24T12:47:09.000Z</time>
      </trkpt>
      <trkpt lat="43.99077" lon="5.12128">
        <ele>321</ele>
        <time>2013-01-24T12:47:12.000Z</time>
      </trkpt>
      <trkpt lat="43.99076" lon="5.12129">
        <ele>320.9</ele>
        <time>2013-01-24T12:47:13.000Z</time>
      </trkpt>
      <trkpt lat="43.99073" lon="5.1213">
        <ele>321</ele>
        <time>2013-01-24T12:47:15.000Z</time>
      </trkpt>
      <trkpt lat="43.99071" lon="5.12131">
        <ele>321</ele>
        <time>2013-01-24T12:47:16.000Z</time>
      </trkpt>
      <trkpt lat="43.9907" lon="5.12133">
        <ele>321.1</ele>
        <time>2013-01-24T12:47:17.000Z</time>
      </trkpt>
      <trkpt lat="43.99067" lon="5.12136">
        <ele>319.5</ele>
        <time>2013-01-24T12:47:18.000Z</time>
      </trkpt>
      <trkpt lat="43.99063" lon="5.12138">
        <ele>320.9</ele>
        <time>2013-01-24T12:47:21.000Z</time>
      </trkpt>
      <trkpt lat="43.99062" lon="5.1214">
        <ele>320.1</ele>
        <time>2013-01-24T12:47:22.000Z</time>
      </trkpt>
      <trkpt lat="43.99059" lon="5.12142">
        <ele>320.9</ele>
        <time>2013-01-24T12:47:24.000Z</time>
      </trkpt>
      <trkpt lat="43.99057" lon="5.12144">
        <ele>321.1</ele>
        <time>2013-01-24T12:47:25.000Z</time>
      </trkpt>
      <trkpt lat="43.99054" lon="5.12146">
        <ele>319.6</ele>
        <time>2013-01-24T12:47:27.000Z</time>
      </trkpt>
      <trkpt lat="43.99052" lon="5.12148">
        <ele>319</ele>
        <time>2013-01-24T12:47:28.000Z</time>
      </trkpt>
      <trkpt lat="43.99048" lon="5.12148">
        <ele>317.9</ele>
        <time>2013-01-24T12:47:30.000Z</time>
      </trkpt>
      <trkpt lat="43.99047" lon="5.12149">
        <ele>317.2</ele>
        <time>2013-01-24T12:47:31.000Z</time>
      </trkpt>
      <trkpt lat="43.99044" lon="5.12153">
        <ele>319.2</ele>
        <time>2013-01-24T12:47:34.000Z</time>
      </trkpt>
      <trkpt lat="43.99043" lon="5.12155">
        <ele>319</ele>
        <time>2013-01-24T12:47:35.000Z</time>
      </trkpt>
      <trkpt lat="43.9904" lon="5.12156">
        <ele>319.8</ele>
        <time>2013-01-24T12:47:37.000Z</time>
      </trkpt>
      <trkpt lat="43.99038" lon="5.12157">
        <ele>320</ele>
        <time>2013-01-24T12:47:38.000Z</time>
      </trkpt>
      <trkpt lat="43.99034" lon="5.12159">
        <ele>320.9</ele>
        <time>2013-01-24T12:47:40.000Z</time>
      </trkpt>
      <trkpt lat="43.99033" lon="5.12161">
        <ele>321.2</ele>
        <time>2013-01-24T12:47:41.000Z</time>
      </trkpt>
      <trkpt lat="43.99029" lon="5.12162">
        <ele>321.3</ele>
        <time>2013-01-24T12:47:43.000Z</time>
      </trkpt>
      <trkpt lat="43.99028" lon="5.12163">
        <ele>322</ele>
        <time>2013-01-24T12:47:44.000Z</time>
      </trkpt>
      <trkpt lat="43.99024" lon="5.12165">
        <ele>322.4</ele>
        <time>2013-01-24T12:47:46.000Z</time>
      </trkpt>
      <trkpt lat="43.99023" lon="5.12165">
        <ele>322.9</ele>
        <time>2013-01-24T12:47:47.000Z</time>
      </trkpt>
      <trkpt lat="43.99019" lon="5.12166">
        <ele>325.5</ele>
        <time>2013-01-24T12:47:49.000Z</time>
      </trkpt>
      <trkpt lat="43.99018" lon="5.12167">
        <ele>326.7</ele>
        <time>2013-01-24T12:47:50.000Z</time>
      </trkpt>
      <trkpt lat="43.99015" lon="5.12169">
        <ele>332.7</ele>
        <time>2013-01-24T12:47:54.000Z</time>
      </trkpt>
      <trkpt lat="43.99013" lon="5.1217">
        <ele>332.8</ele>
        <time>2013-01-24T12:47:55.000Z</time>
      </trkpt>
      <trkpt lat="43.99009" lon="5.12171">
        <ele>333.1</ele>
        <time>2013-01-24T12:47:57.000Z</time>
      </trkpt>
      <trkpt lat="43.99007" lon="5.12172">
        <ele>333.4</ele>
        <time>2013-01-24T12:47:58.000Z</time>
      </trkpt>
      <trkpt lat="43.99003" lon="5.12173">
        <ele>334.3</ele>
        <time>2013-01-24T12:48:00.000Z</time>
      </trkpt>
      <trkpt lat="43.99001" lon="5.12173">
        <ele>334.8</ele>
        <time>2013-01-24T12:48:01.000Z</time>
      </trkpt>
      <trkpt lat="43.98997" lon="5.12174">
        <ele>335</ele>
        <time>2013-01-24T12:48:03.000Z</time>
      </trkpt>
      <trkpt lat="43.98995" lon="5.12175">
        <ele>335.2</ele>
        <time>2013-01-24T12:48:04.000Z</time>
      </trkpt>
      <trkpt lat="43.98991" lon="5.12176">
        <ele>335.4</ele>
        <time>2013-01-24T12:48:06.000Z</time>
      </trkpt>
      <trkpt lat="43.98989" lon="5.12177">
        <ele>335.4</ele>
        <time>2013-01-24T12:48:07.000Z</time>
      </trkpt>
      <trkpt lat="43.98985" lon="5.12178">
        <ele>334.6</ele>
        <time>2013-01-24T12:48:09.000Z</time>
      </trkpt>
      <trkpt lat="43.98983" lon="5.12178">
        <ele>334.7</ele>
        <time>2013-01-24T12:48:10.000Z</time>
      </trkpt>
      <trkpt lat="43.98979" lon="5.12179">
        <ele>334.4</ele>
        <time>2013-01-24T12:48:12.000Z</time>
      </trkpt>
      <trkpt lat="43.98977" lon="5.1218">
        <ele>334.2</ele>
        <time>2013-01-24T12:48:13.000Z</time>
      </trkpt>
      <trkpt lat="43.98973" lon="5.1218">
        <ele>334.3</ele>
        <time>2013-01-24T12:48:15.000Z</time>
      </trkpt>
      <trkpt lat="43.98972" lon="5.12181">
        <ele>334.2</ele>
        <time>2013-01-24T12:48:16.000Z</time>
      </trkpt>
      <trkpt lat="43.98968" lon="5.12183">
        <ele>335.2</ele>
        <time>2013-01-24T12:48:18.000Z</time>
      </trkpt>
      <trkpt lat="43.98967" lon="5.12183">
        <ele>335.9</ele>
        <time>2013-01-24T12:48:19.000Z</time>
      </trkpt>
      <trkpt lat="43.98964" lon="5.12183">
        <ele>334.6</ele>
        <time>2013-01-24T12:48:20.000Z</time>
      </trkpt>
      <trkpt lat="43.98962" lon="5.12183">
        <ele>334.5</ele>
        <time>2013-01-24T12:48:21.000Z</time>
      </trkpt>
      <trkpt lat="43.98959" lon="5.12184">
        <ele>335.1</ele>
        <time>2013-01-24T12:48:23.000Z</time>
      </trkpt>
      <trkpt lat="43.98957" lon="5.12185">
        <ele>334.7</ele>
        <time>2013-01-24T12:48:24.000Z</time>
      </trkpt>
      <trkpt lat="43.98953" lon="5.12186">
        <ele>334.6</ele>
        <time>2013-01-24T12:48:26.000Z</time>
      </trkpt>
      <trkpt lat="43.98951" lon="5.12186">
        <ele>334.7</ele>
        <time>2013-01-24T12:48:27.000Z</time>
      </trkpt>
      <trkpt lat="43.98948" lon="5.12188">
        <ele>334.5</ele>
        <time>2013-01-24T12:48:29.000Z</time>
      </trkpt>
      <trkpt lat="43.98946" lon="5.12189">
        <ele>335</ele>
        <time>2013-01-24T12:48:30.000Z</time>
      </trkpt>
      <trkpt lat="43.98943" lon="5.1219">
        <ele>336</ele>
        <time>2013-01-24T12:48:32.000Z</time>
      </trkpt>
      <trkpt lat="43.98941" lon="5.12191">
        <ele>336.2</ele>
        <time>2013-01-24T12:48:33.000Z</time>
      </trkpt>
      <trkpt lat="43.98938" lon="5.12192">
        <ele>336.9</ele>
        <time>2013-01-24T12:48:35.000Z</time>
      </trkpt>
      <trkpt lat="43.98936" lon="5.12192">
        <ele>337.1</ele>
        <time>2013-01-24T12:48:36.000Z</time>
      </trkpt>
      <trkpt lat="43.98932" lon="5.12194">
        <ele>337.9</ele>
        <time>2013-01-24T12:48:38.000Z</time>
      </trkpt>
      <trkpt lat="43.9893" lon="5.12194">
        <ele>338</ele>
        <time>2013-01-24T12:48:39.000Z</time>
      </trkpt>
      <trkpt lat="43.98926" lon="5.12196">
        <ele>338.7</ele>
        <time>2013-01-24T12:48:41.000Z</time>
      </trkpt>
      <trkpt lat="43.98924" lon="5.12197">
        <ele>338.9</ele>
        <time>2013-01-24T12:48:42.000Z</time>
      </trkpt>
      <trkpt lat="43.98921" lon="5.122">
        <ele>339.4</ele>
        <time>2013-01-24T12:48:44.000Z</time>
      </trkpt>
      <trkpt lat="43.9892" lon="5.12201">
        <ele>339.6</ele>
        <time>2013-01-24T12:48:45.000Z</time>
      </trkpt>
      <trkpt lat="43.98916" lon="5.12204">
        <ele>339.3</ele>
        <time>2013-01-24T12:48:47.000Z</time>
      </trkpt>
      <trkpt lat="43.98914" lon="5.12205">
        <ele>339.5</ele>
        <time>2013-01-24T12:48:48.000Z</time>
      </trkpt>
      <trkpt lat="43.98911" lon="5.12208">
        <ele>340.2</ele>
        <time>2013-01-24T12:48:50.000Z</time>
      </trkpt>
      <trkpt lat="43.9891" lon="5.1221">
        <ele>340.7</ele>
        <time>2013-01-24T12:48:51.000Z</time>
      </trkpt>
      <trkpt lat="43.98907" lon="5.12213">
        <ele>341.4</ele>
        <time>2013-01-24T12:48:53.000Z</time>
      </trkpt>
      <trkpt lat="43.98905" lon="5.12215">
        <ele>341.6</ele>
        <time>2013-01-24T12:48:54.000Z</time>
      </trkpt>
      <trkpt lat="43.98902" lon="5.12219">
        <ele>342.3</ele>
        <time>2013-01-24T12:48:56.000Z</time>
      </trkpt>
      <trkpt lat="43.98901" lon="5.12221">
        <ele>342.7</ele>
        <time>2013-01-24T12:48:57.000Z</time>
      </trkpt>
      <trkpt lat="43.98898" lon="5.12225">
        <ele>342.9</ele>
        <time>2013-01-24T12:48:59.000Z</time>
      </trkpt>
      <trkpt lat="43.98897" lon="5.12227">
        <ele>343</ele>
        <time>2013-01-24T12:49:00.000Z</time>
      </trkpt>
      <trkpt lat="43.98894" lon="5.12231">
        <ele>343.3</ele>
        <time>2013-01-24T12:49:02.000Z</time>
      </trkpt>
      <trkpt lat="43.98893" lon="5.12234">
        <ele>343.4</ele>
        <time>2013-01-24T12:49:03.000Z</time>
      </trkpt>
      <trkpt lat="43.9889" lon="5.12238">
        <ele>343.4</ele>
        <time>2013-01-24T12:49:05.000Z</time>
      </trkpt>
      <trkpt lat="43.98889" lon="5.1224">
        <ele>343.6</ele>
        <time>2013-01-24T12:49:06.000Z</time>
      </trkpt>
      <trkpt lat="43.98887" lon="5.12245">
        <ele>342.8</ele>
        <time>2013-01-24T12:49:08.000Z</time>
      </trkpt>
      <trkpt lat="43.98887" lon="5.12247">
        <ele>342.6</ele>
        <time>2013-01-24T12:49:09.000Z</time>
      </trkpt>
      <trkpt lat="43.98885" lon="5.12251">
        <ele>342.4</ele>
        <time>2013-01-24T12:49:22.000Z</time>
      </trkpt>
      <trkpt lat="43.98884" lon="5.12252">
        <ele>342.6</ele>
        <time>2013-01-24T12:49:23.000Z</time>
      </trkpt>
      <trkpt lat="43.98881" lon="5.12256">
        <ele>342.8</ele>
        <time>2013-01-24T12:49:25.000Z</time>
      </trkpt>
      <trkpt lat="43.9888" lon="5.12258">
        <ele>343.2</ele>
        <time>2013-01-24T12:49:26.000Z</time>
      </trkpt>
      <trkpt lat="43.98877" lon="5.12261">
        <ele>344</ele>
        <time>2013-01-24T12:49:28.000Z</time>
      </trkpt>
      <trkpt lat="43.98876" lon="5.12263">
        <ele>344.2</ele>
        <time>2013-01-24T12:49:29.000Z</time>
      </trkpt>
      <trkpt lat="43.98873" lon="5.12268">
        <ele>344.5</ele>
        <time>2013-01-24T12:49:31.000Z</time>
      </trkpt>
      <trkpt lat="43.98872" lon="5.1227">
        <ele>344.4</ele>
        <time>2013-01-24T12:49:32.000Z</time>
      </trkpt>
      <trkpt lat="43.9887" lon="5.12273">
        <ele>344.7</ele>
        <time>2013-01-24T12:49:33.000Z</time>
      </trkpt>
      <trkpt lat="43.98868" lon="5.12275">
        <ele>344.7</ele>
        <time>2013-01-24T12:49:34.000Z</time>
      </trkpt>
      <trkpt lat="43.98866" lon="5.12277">
        <ele>345</ele>
        <time>2013-01-24T12:49:35.000Z</time>
      </trkpt>
      <trkpt lat="43.98865" lon="5.1228">
        <ele>345.2</ele>
        <time>2013-01-24T12:49:36.000Z</time>
      </trkpt>
      <trkpt lat="43.98863" lon="5.12282">
        <ele>345.4</ele>
        <time>2013-01-24T12:49:37.000Z</time>
      </trkpt>
      <trkpt lat="43.98861" lon="5.12285">
        <ele>345.5</ele>
        <time>2013-01-24T12:49:38.000Z</time>
      </trkpt>
      <trkpt lat="43.9886" lon="5.12287">
        <ele>345.7</ele>
        <time>2013-01-24T12:49:39.000Z</time>
      </trkpt>
      <trkpt lat="43.98858" lon="5.1229">
        <ele>346.1</ele>
        <time>2013-01-24T12:49:40.000Z</time>
      </trkpt>
      <trkpt lat="43.98856" lon="5.12292">
        <ele>346.2</ele>
        <time>2013-01-24T12:49:41.000Z</time>
      </trkpt>
      <trkpt lat="43.98854" lon="5.12295">
        <ele>346.3</ele>
        <time>2013-01-24T12:49:42.000Z</time>
      </trkpt>
      <trkpt lat="43.98852" lon="5.12297">
        <ele>346.4</ele>
        <time>2013-01-24T12:49:43.000Z</time>
      </trkpt>
      <trkpt lat="43.98851" lon="5.123">
        <ele>346.6</ele>
        <time>2013-01-24T12:49:44.000Z</time>
      </trkpt>
      <trkpt lat="43.98849" lon="5.12302">
        <ele>346.8</ele>
        <time>2013-01-24T12:49:45.000Z</time>
      </trkpt>
      <trkpt lat="43.98847" lon="5.12305">
        <ele>346.8</ele>
        <time>2013-01-24T12:49:46.000Z</time>
      </trkpt>
      <trkpt lat="43.98845" lon="5.12308">
        <ele>346.8</ele>
        <time>2013-01-24T12:49:47.000Z</time>
      </trkpt>
      <trkpt lat="43.98844" lon="5.1231">
        <ele>346.9</ele>
        <time>2013-01-24T12:49:48.000Z</time>
      </trkpt>
      <trkpt lat="43.98842" lon="5.12313">
        <ele>347.2</ele>
        <time>2013-01-24T12:49:49.000Z</time>
      </trkpt>
      <trkpt lat="43.98841" lon="5.12315">
        <ele>347.4</ele>
        <time>2013-01-24T12:49:50.000Z</time>
      </trkpt>
      <trkpt lat="43.98839" lon="5.12318">
        <ele>347.4</ele>
        <time>2013-01-24T12:49:51.000Z</time>
      </trkpt>
      <trkpt lat="43.98837" lon="5.12321">
        <ele>347.7</ele>
        <time>2013-01-24T12:49:52.000Z</time>
      </trkpt>
      <trkpt lat="43.98835" lon="5.12323">
        <ele>347.7</ele>
        <time>2013-01-24T12:49:53.000Z</time>
      </trkpt>
      <trkpt lat="43.98834" lon="5.12326">
        <ele>347.7</ele>
        <time>2013-01-24T12:49:54.000Z</time>
      </trkpt>
      <trkpt lat="43.98832" lon="5.12328">
        <ele>347.9</ele>
        <time>2013-01-24T12:49:55.000Z</time>
      </trkpt>
      <trkpt lat="43.9883" lon="5.12331">
        <ele>348.1</ele>
        <time>2013-01-24T12:49:56.000Z</time>
      </trkpt>
      <trkpt lat="43.98828" lon="5.12333">
        <ele>348.2</ele>
        <time>2013-01-24T12:49:57.000Z</time>
      </trkpt>
      <trkpt lat="43.98827" lon="5.12336">
        <ele>348.1</ele>
        <time>2013-01-24T12:49:58.000Z</time>
      </trkpt>
      <trkpt lat="43.98825" lon="5.12338">
        <ele>348.2</ele>
        <time>2013-01-24T12:49:59.000Z</time>
      </trkpt>
      <trkpt lat="43.98824" lon="5.12341">
        <ele>348.3</ele>
        <time>2013-01-24T12:50:00.000Z</time>
      </trkpt>
      <trkpt lat="43.98821" lon="5.12345">
        <ele>348.4</ele>
        <time>2013-01-24T12:50:02.000Z</time>
      </trkpt>
      <trkpt lat="43.98819" lon="5.12347">
        <ele>349.6</ele>
        <time>2013-01-24T12:50:03.000Z</time>
      </trkpt>
      <trkpt lat="43.98818" lon="5.12349">
        <ele>350.5</ele>
        <time>2013-01-24T12:50:04.000Z</time>
      </trkpt>
      <trkpt lat="43.98817" lon="5.12352">
        <ele>347.1</ele>
        <time>2013-01-24T12:50:05.000Z</time>
      </trkpt>
      <trkpt lat="43.98814" lon="5.12357">
        <ele>346.3</ele>
        <time>2013-01-24T12:50:07.000Z</time>
      </trkpt>
      <trkpt lat="43.98815" lon="5.12359">
        <ele>347.4</ele>
        <time>2013-01-24T12:50:08.000Z</time>
      </trkpt>
      <trkpt lat="43.98816" lon="5.12362">
        <ele>346.5</ele>
        <time>2013-01-24T12:50:09.000Z</time>
      </trkpt>
      <trkpt lat="43.98817" lon="5.12365">
        <ele>346.3</ele>
        <time>2013-01-24T12:50:10.000Z</time>
      </trkpt>
      <trkpt lat="43.98819" lon="5.12368">
        <ele>346.4</ele>
        <time>2013-01-24T12:50:11.000Z</time>
      </trkpt>
      <trkpt lat="43.98821" lon="5.12371">
        <ele>346.3</ele>
        <time>2013-01-24T12:50:12.000Z</time>
      </trkpt>
      <trkpt lat="43.98823" lon="5.12374">
        <ele>346.4</ele>
        <time>2013-01-24T12:50:13.000Z</time>
      </trkpt>
      <trkpt lat="43.98824" lon="5.12378">
        <ele>346.2</ele>
        <time>2013-01-24T12:50:14.000Z</time>
      </trkpt>
      <trkpt lat="43.98826" lon="5.12381">
        <ele>346.6</ele>
        <time>2013-01-24T12:50:15.000Z</time>
      </trkpt>
      <trkpt lat="43.98828" lon="5.12385">
        <ele>345.4</ele>
        <time>2013-01-24T12:50:16.000Z</time>
      </trkpt>
      <trkpt lat="43.98829" lon="5.12389">
        <ele>347.3</ele>
        <time>2013-01-24T12:50:17.000Z</time>
      </trkpt>
      <trkpt lat="43.9883" lon="5.12392">
        <ele>347.2</ele>
        <time>2013-01-24T12:50:18.000Z</time>
      </trkpt>
      <trkpt lat="43.98832" lon="5.12396">
        <ele>347.2</ele>
        <time>2013-01-24T12:50:19.000Z</time>
      </trkpt>
      <trkpt lat="43.98834" lon="5.12399">
        <ele>347.2</ele>
        <time>2013-01-24T12:50:20.000Z</time>
      </trkpt>
      <trkpt lat="43.98836" lon="5.12402">
        <ele>347.4</ele>
        <time>2013-01-24T12:50:21.000Z</time>
      </trkpt>
      <trkpt lat="43.98838" lon="5.12405">
        <ele>347.6</ele>
        <time>2013-01-24T12:50:22.000Z</time>
      </trkpt>
      <trkpt lat="43.9884" lon="5.12408">
        <ele>348.3</ele>
        <time>2013-01-24T12:50:23.000Z</time>
      </trkpt>
      <trkpt lat="43.98843" lon="5.1241">
        <ele>347.6</ele>
        <time>2013-01-24T12:50:24.000Z</time>
      </trkpt>
      <trkpt lat="43.98845" lon="5.12413">
        <ele>347.4</ele>
        <time>2013-01-24T12:50:25.000Z</time>
      </trkpt>
      <trkpt lat="43.98847" lon="5.12417">
        <ele>347.3</ele>
        <time>2013-01-24T12:50:26.000Z</time>
      </trkpt>
      <trkpt lat="43.98849" lon="5.1242">
        <ele>347.2</ele>
        <time>2013-01-24T12:50:27.000Z</time>
      </trkpt>
      <trkpt lat="43.98852" lon="5.12423">
        <ele>347.1</ele>
        <time>2013-01-24T12:50:28.000Z</time>
      </trkpt>
      <trkpt lat="43.98854" lon="5.12426">
        <ele>347.1</ele>
        <time>2013-01-24T12:50:29.000Z</time>
      </trkpt>
      <trkpt lat="43.98856" lon="5.12429">
        <ele>346.8</ele>
        <time>2013-01-24T12:50:30.000Z</time>
      </trkpt>
      <trkpt lat="43.98857" lon="5.12432">
        <ele>346.5</ele>
        <time>2013-01-24T12:50:31.000Z</time>
      </trkpt>
      <trkpt lat="43.98859" lon="5.12434">
        <ele>346.7</ele>
        <time>2013-01-24T12:50:32.000Z</time>
      </trkpt>
      <trkpt lat="43.98861" lon="5.12436">
        <ele>346.7</ele>
        <time>2013-01-24T12:50:33.000Z</time>
      </trkpt>
      <trkpt lat="43.98863" lon="5.12439">
        <ele>347.2</ele>
        <time>2013-01-24T12:50:34.000Z</time>
      </trkpt>
      <trkpt lat="43.98866" lon="5.12442">
        <ele>347.2</ele>
        <time>2013-01-24T12:50:35.000Z</time>
      </trkpt>
      <trkpt lat="43.98868" lon="5.12444">
        <ele>347.3</ele>
        <time>2013-01-24T12:50:36.000Z</time>
      </trkpt>
      <trkpt lat="43.9887" lon="5.12447">
        <ele>347.4</ele>
        <time>2013-01-24T12:50:37.000Z</time>
      </trkpt>
      <trkpt lat="43.98872" lon="5.1245">
        <ele>347.2</ele>
        <time>2013-01-24T12:50:38.000Z</time>
      </trkpt>
      <trkpt lat="43.98875" lon="5.12453">
        <ele>347.4</ele>
        <time>2013-01-24T12:50:39.000Z</time>
      </trkpt>
      <trkpt lat="43.98878" lon="5.12455">
        <ele>347.4</ele>
        <time>2013-01-24T12:50:40.000Z</time>
      </trkpt>
      <trkpt lat="43.9888" lon="5.12458">
        <ele>347.6</ele>
        <time>2013-01-24T12:50:41.000Z</time>
      </trkpt>
      <trkpt lat="43.98883" lon="5.12461">
        <ele>348.1</ele>
        <time>2013-01-24T12:50:42.000Z</time>
      </trkpt>
      <trkpt lat="43.98886" lon="5.12463">
        <ele>348.4</ele>
        <time>2013-01-24T12:50:43.000Z</time>
      </trkpt>
      <trkpt lat="43.98889" lon="5.12466">
        <ele>348.4</ele>
        <time>2013-01-24T12:50:44.000Z</time>
      </trkpt>
      <trkpt lat="43.98891" lon="5.12469">
        <ele>348.6</ele>
        <time>2013-01-24T12:50:45.000Z</time>
      </trkpt>
      <trkpt lat="43.98894" lon="5.12471">
        <ele>348.5</ele>
        <time>2013-01-24T12:50:46.000Z</time>
      </trkpt>
      <trkpt lat="43.98896" lon="5.12474">
        <ele>348.4</ele>
        <time>2013-01-24T12:50:47.000Z</time>
      </trkpt>
      <trkpt lat="43.98899" lon="5.12477">
        <ele>348.5</ele>
        <time>2013-01-24T12:50:48.000Z</time>
      </trkpt>
      <trkpt lat="43.98901" lon="5.1248">
        <ele>348.5</ele>
        <time>2013-01-24T12:50:49.000Z</time>
      </trkpt>
      <trkpt lat="43.98902" lon="5.12484">
        <ele>348.4</ele>
        <time>2013-01-24T12:50:50.000Z</time>
      </trkpt>
      <trkpt lat="43.98903" lon="5.12486">
        <ele>348.4</ele>
        <time>2013-01-24T12:50:51.000Z</time>
      </trkpt>
      <trkpt lat="43.98904" lon="5.1249">
        <ele>348.5</ele>
        <time>2013-01-24T12:50:52.000Z</time>
      </trkpt>
      <trkpt lat="43.98905" lon="5.12493">
        <ele>348.5</ele>
        <time>2013-01-24T12:50:53.000Z</time>
      </trkpt>
      <trkpt lat="43.98905" lon="5.12496">
        <ele>348.6</ele>
        <time>2013-01-24T12:50:54.000Z</time>
      </trkpt>
      <trkpt lat="43.98906" lon="5.125">
        <ele>348.3</ele>
        <time>2013-01-24T12:50:55.000Z</time>
      </trkpt>
      <trkpt lat="43.98906" lon="5.12505">
        <ele>347.2</ele>
        <time>2013-01-24T12:50:56.000Z</time>
      </trkpt>
      <trkpt lat="43.98907" lon="5.1251">
        <ele>346.7</ele>
        <time>2013-01-24T12:50:57.000Z</time>
      </trkpt>
      <trkpt lat="43.98907" lon="5.12515">
        <ele>346.5</ele>
        <time>2013-01-24T12:50:58.000Z</time>
      </trkpt>
      <trkpt lat="43.98907" lon="5.12521">
        <ele>346.2</ele>
        <time>2013-01-24T12:50:59.000Z</time>
      </trkpt>
      <trkpt lat="43.98904" lon="5.12527">
        <ele>345.7</ele>
        <time>2013-01-24T12:51:00.000Z</time>
      </trkpt>
      <trkpt lat="43.98904" lon="5.12533">
        <ele>344.7</ele>
        <time>2013-01-24T12:51:01.000Z</time>
      </trkpt>
      <trkpt lat="43.98903" lon="5.12539">
        <ele>344.3</ele>
        <time>2013-01-24T12:51:02.000Z</time>
      </trkpt>
      <trkpt lat="43.98903" lon="5.12546">
        <ele>343.2</ele>
        <time>2013-01-24T12:51:03.000Z</time>
      </trkpt>
      <trkpt lat="43.98902" lon="5.12554">
        <ele>342.4</ele>
        <time>2013-01-24T12:51:04.000Z</time>
      </trkpt>
      <trkpt lat="43.98901" lon="5.12561">
        <ele>341.7</ele>
        <time>2013-01-24T12:51:05.000Z</time>
      </trkpt>
      <trkpt lat="43.98901" lon="5.12568">
        <ele>341.4</ele>
        <time>2013-01-24T12:51:06.000Z</time>
      </trkpt>
      <trkpt lat="43.98901" lon="5.12575">
        <ele>341.1</ele>
        <time>2013-01-24T12:51:07.000Z</time>
      </trkpt>
      <trkpt lat="43.98901" lon="5.12581">
        <ele>340.7</ele>
        <time>2013-01-24T12:51:08.000Z</time>
      </trkpt>
      <trkpt lat="43.989" lon="5.12586">
        <ele>340.6</ele>
        <time>2013-01-24T12:51:09.000Z</time>
      </trkpt>
      <trkpt lat="43.98901" lon="5.12592">
        <ele>340.8</ele>
        <time>2013-01-24T12:51:10.000Z</time>
      </trkpt>
      <trkpt lat="43.98899" lon="5.12599">
        <ele>338.7</ele>
        <time>2013-01-24T12:51:11.000Z</time>
      </trkpt>
      <trkpt lat="43.98899" lon="5.12605">
        <ele>338.2</ele>
        <time>2013-01-24T12:51:12.000Z</time>
      </trkpt>
      <trkpt lat="43.98898" lon="5.12612">
        <ele>337.6</ele>
        <time>2013-01-24T12:51:13.000Z</time>
      </trkpt>
      <trkpt lat="43.98897" lon="5.12617">
        <ele>336.8</ele>
        <time>2013-01-24T12:51:14.000Z</time>
      </trkpt>
      <trkpt lat="43.98896" lon="5.12623">
        <ele>336.1</ele>
        <time>2013-01-24T12:51:15.000Z</time>
      </trkpt>
      <trkpt lat="43.98895" lon="5.12628">
        <ele>335.6</ele>
        <time>2013-01-24T12:51:16.000Z</time>
      </trkpt>
      <trkpt lat="43.98893" lon="5.12633">
        <ele>335.7</ele>
        <time>2013-01-24T12:51:17.000Z</time>
      </trkpt>
      <trkpt lat="43.9889" lon="5.12637">
        <ele>335.7</ele>
        <time>2013-01-24T12:51:18.000Z</time>
      </trkpt>
      <trkpt lat="43.98886" lon="5.12642">
        <ele>335.7</ele>
        <time>2013-01-24T12:51:19.000Z</time>
      </trkpt>
      <trkpt lat="43.98883" lon="5.12647">
        <ele>335.9</ele>
        <time>2013-01-24T12:51:20.000Z</time>
      </trkpt>
      <trkpt lat="43.98878" lon="5.12653">
        <ele>333.4</ele>
        <time>2013-01-24T12:51:21.000Z</time>
      </trkpt>
      <trkpt lat="43.98875" lon="5.12658">
        <ele>332.9</ele>
        <time>2013-01-24T12:51:22.000Z</time>
      </trkpt>
      <trkpt lat="43.98873" lon="5.12664">
        <ele>332.1</ele>
        <time>2013-01-24T12:51:23.000Z</time>
      </trkpt>
      <trkpt lat="43.98871" lon="5.12669">
        <ele>331.4</ele>
        <time>2013-01-24T12:51:24.000Z</time>
      </trkpt>
      <trkpt lat="43.98873" lon="5.12677">
        <ele>330.8</ele>
        <time>2013-01-24T12:51:25.000Z</time>
      </trkpt>
      <trkpt lat="43.98874" lon="5.12684">
        <ele>330.5</ele>
        <time>2013-01-24T12:51:26.000Z</time>
      </trkpt>
      <trkpt lat="43.98874" lon="5.12691">
        <ele>330.2</ele>
        <time>2013-01-24T12:51:27.000Z</time>
      </trkpt>
      <trkpt lat="43.98874" lon="5.12698">
        <ele>329.8</ele>
        <time>2013-01-24T12:51:28.000Z</time>
      </trkpt>
      <trkpt lat="43.98875" lon="5.12704">
        <ele>329.3</ele>
        <time>2013-01-24T12:51:29.000Z</time>
      </trkpt>
      <trkpt lat="43.98874" lon="5.1271">
        <ele>328.8</ele>
        <time>2013-01-24T12:51:30.000Z</time>
      </trkpt>
      <trkpt lat="43.98873" lon="5.12716">
        <ele>328.4</ele>
        <time>2013-01-24T12:51:31.000Z</time>
      </trkpt>
      <trkpt lat="43.98873" lon="5.12723">
        <ele>328.2</ele>
        <time>2013-01-24T12:51:32.000Z</time>
      </trkpt>
      <trkpt lat="43.98873" lon="5.1273">
        <ele>328.5</ele>
        <time>2013-01-24T12:51:33.000Z</time>
      </trkpt>
      <trkpt lat="43.98873" lon="5.12735">
        <ele>328.4</ele>
        <time>2013-01-24T12:51:34.000Z</time>
      </trkpt>
      <trkpt lat="43.98874" lon="5.12741">
        <ele>328.5</ele>
        <time>2013-01-24T12:51:35.000Z</time>
      </trkpt>
      <trkpt lat="43.98875" lon="5.12745">
        <ele>328.4</ele>
        <time>2013-01-24T12:51:36.000Z</time>
      </trkpt>
      <trkpt lat="43.98876" lon="5.1275">
        <ele>328.3</ele>
        <time>2013-01-24T12:51:37.000Z</time>
      </trkpt>
      <trkpt lat="43.98878" lon="5.12753">
        <ele>328.3</ele>
        <time>2013-01-24T12:51:38.000Z</time>
      </trkpt>
      <trkpt lat="43.9888" lon="5.12756">
        <ele>328.2</ele>
        <time>2013-01-24T12:51:39.000Z</time>
      </trkpt>
      <trkpt lat="43.98881" lon="5.12759">
        <ele>327.7</ele>
        <time>2013-01-24T12:51:40.000Z</time>
      </trkpt>
      <trkpt lat="43.98883" lon="5.12762">
        <ele>326.8</ele>
        <time>2013-01-24T12:51:41.000Z</time>
      </trkpt>
      <trkpt lat="43.98882" lon="5.12767">
        <ele>328.6</ele>
        <time>2013-01-24T12:51:56.000Z</time>
      </trkpt>
      <trkpt lat="43.98882" lon="5.1277">
        <ele>328.7</ele>
        <time>2013-01-24T12:51:57.000Z</time>
      </trkpt>
      <trkpt lat="43.98883" lon="5.12775">
        <ele>330.7</ele>
        <time>2013-01-24T12:52:00.000Z</time>
      </trkpt>
      <trkpt lat="43.98883" lon="5.12779">
        <ele>329.9</ele>
        <time>2013-01-24T12:52:01.000Z</time>
      </trkpt>
      <trkpt lat="43.98883" lon="5.12784">
        <ele>330.8</ele>
        <time>2013-01-24T12:52:03.000Z</time>
      </trkpt>
      <trkpt lat="43.98884" lon="5.12785">
        <ele>331</ele>
        <time>2013-01-24T12:52:04.000Z</time>
      </trkpt>
      <trkpt lat="43.98885" lon="5.1279">
        <ele>331.6</ele>
        <time>2013-01-24T12:52:06.000Z</time>
      </trkpt>
      <trkpt lat="43.98886" lon="5.12792">
        <ele>331.7</ele>
        <time>2013-01-24T12:52:07.000Z</time>
      </trkpt>
      <trkpt lat="43.98887" lon="5.12796">
        <ele>332.1</ele>
        <time>2013-01-24T12:52:09.000Z</time>
      </trkpt>
      <trkpt lat="43.98888" lon="5.12798">
        <ele>331.9</ele>
        <time>2013-01-24T12:52:10.000Z</time>
      </trkpt>
      <trkpt lat="43.98891" lon="5.12802">
        <ele>332.7</ele>
        <time>2013-01-24T12:52:12.000Z</time>
      </trkpt>
      <trkpt lat="43.98892" lon="5.12804">
        <ele>333</ele>
        <time>2013-01-24T12:52:13.000Z</time>
      </trkpt>
      <trkpt lat="43.98894" lon="5.12807">
        <ele>333.2</ele>
        <time>2013-01-24T12:52:15.000Z</time>
      </trkpt>
      <trkpt lat="43.98895" lon="5.12809">
        <ele>333.6</ele>
        <time>2013-01-24T12:52:16.000Z</time>
      </trkpt>
      <trkpt lat="43.98897" lon="5.12811">
        <ele>334.7</ele>
        <time>2013-01-24T12:52:18.000Z</time>
      </trkpt>
      <trkpt lat="43.98898" lon="5.12813">
        <ele>334.9</ele>
        <time>2013-01-24T12:52:19.000Z</time>
      </trkpt>
      <trkpt lat="43.98902" lon="5.12817">
        <ele>336.2</ele>
        <time>2013-01-24T12:52:21.000Z</time>
      </trkpt>
      <trkpt lat="43.98903" lon="5.12818">
        <ele>336.6</ele>
        <time>2013-01-24T12:52:22.000Z</time>
      </trkpt>
      <trkpt lat="43.98906" lon="5.12822">
        <ele>337.2</ele>
        <time>2013-01-24T12:52:32.000Z</time>
      </trkpt>
      <trkpt lat="43.98907" lon="5.12823">
        <ele>337</ele>
        <time>2013-01-24T12:52:33.000Z</time>
      </trkpt>
      <trkpt lat="43.98909" lon="5.12828">
        <ele>337.4</ele>
        <time>2013-01-24T12:52:38.000Z</time>
      </trkpt>
      <trkpt lat="43.98909" lon="5.1283">
        <ele>336.7</ele>
        <time>2013-01-24T12:52:39.000Z</time>
      </trkpt>
      <trkpt lat="43.9891" lon="5.12835">
        <ele>337</ele>
        <time>2013-01-24T12:52:43.000Z</time>
      </trkpt>
      <trkpt lat="43.9891" lon="5.12836">
        <ele>337.5</ele>
        <time>2013-01-24T12:52:44.000Z</time>
      </trkpt>
      <trkpt lat="43.98911" lon="5.12841">
        <ele>339.5</ele>
        <time>2013-01-24T12:52:49.000Z</time>
      </trkpt>
      <trkpt lat="43.98911" lon="5.12842">
        <ele>339.6</ele>
        <time>2013-01-24T12:52:50.000Z</time>
      </trkpt>
      <trkpt lat="43.98912" lon="5.12845">
        <ele>346.1</ele>
        <time>2013-01-24T12:52:55.000Z</time>
      </trkpt>
      <trkpt lat="43.98914" lon="5.12853">
        <ele>343.4</ele>
        <time>2013-01-24T12:52:56.000Z</time>
      </trkpt>
      <trkpt lat="43.98915" lon="5.12857">
        <ele>343.5</ele>
        <time>2013-01-24T12:52:57.000Z</time>
      </trkpt>
      <trkpt lat="43.98916" lon="5.1286">
        <ele>343.3</ele>
        <time>2013-01-24T12:52:58.000Z</time>
      </trkpt>
      <trkpt lat="43.98917" lon="5.12866">
        <ele>343.5</ele>
        <time>2013-01-24T12:53:00.000Z</time>
      </trkpt>
      <trkpt lat="43.98917" lon="5.1287">
        <ele>343</ele>
        <time>2013-01-24T12:53:01.000Z</time>
      </trkpt>
      <trkpt lat="43.98918" lon="5.12872">
        <ele>342.7</ele>
        <time>2013-01-24T12:53:02.000Z</time>
      </trkpt>
      <trkpt lat="43.9892" lon="5.12875">
        <ele>342.7</ele>
        <time>2013-01-24T12:53:03.000Z</time>
      </trkpt>
      <trkpt lat="43.98921" lon="5.1288">
        <ele>343.2</ele>
        <time>2013-01-24T12:53:04.000Z</time>
      </trkpt>
      <trkpt lat="43.98922" lon="5.12883">
        <ele>344.2</ele>
        <time>2013-01-24T12:53:05.000Z</time>
      </trkpt>
      <trkpt lat="43.98923" lon="5.12889">
        <ele>342.2</ele>
        <time>2013-01-24T12:53:07.000Z</time>
      </trkpt>
      <trkpt lat="43.98925" lon="5.12892">
        <ele>342</ele>
        <time>2013-01-24T12:53:08.000Z</time>
      </trkpt>
      <trkpt lat="43.98927" lon="5.12897">
        <ele>342</ele>
        <time>2013-01-24T12:53:10.000Z</time>
      </trkpt>
      <trkpt lat="43.98928" lon="5.12898">
        <ele>341.4</ele>
        <time>2013-01-24T12:53:11.000Z</time>
      </trkpt>
      <trkpt lat="43.98931" lon="5.12902">
        <ele>341.1</ele>
        <time>2013-01-24T12:53:13.000Z</time>
      </trkpt>
      <trkpt lat="43.98932" lon="5.12904">
        <ele>341.6</ele>
        <time>2013-01-24T12:53:14.000Z</time>
      </trkpt>
      <trkpt lat="43.98935" lon="5.12908">
        <ele>342</ele>
        <time>2013-01-24T12:53:16.000Z</time>
      </trkpt>
      <trkpt lat="43.98936" lon="5.12913">
        <ele>342.2</ele>
        <time>2013-01-24T12:53:17.000Z</time>
      </trkpt>
      <trkpt lat="43.98938" lon="5.12916">
        <ele>342</ele>
        <time>2013-01-24T12:53:18.000Z</time>
      </trkpt>
      <trkpt lat="43.98939" lon="5.12919">
        <ele>342</ele>
        <time>2013-01-24T12:53:19.000Z</time>
      </trkpt>
      <trkpt lat="43.98941" lon="5.12925">
        <ele>341.6</ele>
        <time>2013-01-24T12:53:21.000Z</time>
      </trkpt>
      <trkpt lat="43.98941" lon="5.12928">
        <ele>342.3</ele>
        <time>2013-01-24T12:53:22.000Z</time>
      </trkpt>
      <trkpt lat="43.98942" lon="5.12931">
        <ele>341.8</ele>
        <time>2013-01-24T12:53:23.000Z</time>
      </trkpt>
      <trkpt lat="43.98944" lon="5.12934">
        <ele>342.1</ele>
        <time>2013-01-24T12:53:24.000Z</time>
      </trkpt>
      <trkpt lat="43.98947" lon="5.12938">
        <ele>341.3</ele>
        <time>2013-01-24T12:53:26.000Z</time>
      </trkpt>
      <trkpt lat="43.98948" lon="5.12941">
        <ele>341.5</ele>
        <time>2013-01-24T12:53:27.000Z</time>
      </trkpt>
      <trkpt lat="43.9895" lon="5.12946">
        <ele>343</ele>
        <time>2013-01-24T12:53:29.000Z</time>
      </trkpt>
      <trkpt lat="43.9895" lon="5.1295">
        <ele>340</ele>
        <time>2013-01-24T12:53:30.000Z</time>
      </trkpt>
      <trkpt lat="43.9895" lon="5.12954">
        <ele>339.5</ele>
        <time>2013-01-24T12:53:31.000Z</time>
      </trkpt>
      <trkpt lat="43.98951" lon="5.12957">
        <ele>338.7</ele>
        <time>2013-01-24T12:53:32.000Z</time>
      </trkpt>
      <trkpt lat="43.98952" lon="5.12963">
        <ele>338.2</ele>
        <time>2013-01-24T12:53:34.000Z</time>
      </trkpt>
      <trkpt lat="43.98951" lon="5.12967">
        <ele>337.6</ele>
        <time>2013-01-24T12:53:35.000Z</time>
      </trkpt>
      <trkpt lat="43.9895" lon="5.12969">
        <ele>336.6</ele>
        <time>2013-01-24T12:53:36.000Z</time>
      </trkpt>
      <trkpt lat="43.9895" lon="5.12973">
        <ele>336.2</ele>
        <time>2013-01-24T12:53:37.000Z</time>
      </trkpt>
      <trkpt lat="43.9895" lon="5.12978">
        <ele>336</ele>
        <time>2013-01-24T12:53:38.000Z</time>
      </trkpt>
      <trkpt lat="43.98949" lon="5.12983">
        <ele>335.3</ele>
        <time>2013-01-24T12:53:39.000Z</time>
      </trkpt>
      <trkpt lat="43.98949" lon="5.1299">
        <ele>334.8</ele>
        <time>2013-01-24T12:53:40.000Z</time>
      </trkpt>
      <trkpt lat="43.98949" lon="5.13">
        <ele>334.3</ele>
        <time>2013-01-24T12:53:41.000Z</time>
      </trkpt>
      <trkpt lat="43.98952" lon="5.13007">
        <ele>333.9</ele>
        <time>2013-01-24T12:53:42.000Z</time>
      </trkpt>
      <trkpt lat="43.98949" lon="5.13001">
        <ele>341.4</ele>
        <time>2013-01-24T12:53:43.000Z</time>
      </trkpt>
      <trkpt lat="43.98951" lon="5.13005">
        <ele>340.2</ele>
        <time>2013-01-24T12:53:44.000Z</time>
      </trkpt>
      <trkpt lat="43.98952" lon="5.13008">
        <ele>338.5</ele>
        <time>2013-01-24T12:53:45.000Z</time>
      </trkpt>
      <trkpt lat="43.98953" lon="5.13013">
        <ele>336.7</ele>
        <time>2013-01-24T12:53:47.000Z</time>
      </trkpt>
      <trkpt lat="43.98955" lon="5.13017">
        <ele>335.6</ele>
        <time>2013-01-24T12:53:48.000Z</time>
      </trkpt>
      <trkpt lat="43.98958" lon="5.1302">
        <ele>333.2</ele>
        <time>2013-01-24T12:53:50.000Z</time>
      </trkpt>
      <trkpt lat="43.98963" lon="5.13023">
        <ele>333.3</ele>
        <time>2013-01-24T12:53:51.000Z</time>
      </trkpt>
      <trkpt lat="43.98966" lon="5.13025">
        <ele>333.3</ele>
        <time>2013-01-24T12:53:52.000Z</time>
      </trkpt>
      <trkpt lat="43.98967" lon="5.13029">
        <ele>333.1</ele>
        <time>2013-01-24T12:53:53.000Z</time>
      </trkpt>
      <trkpt lat="43.98968" lon="5.13033">
        <ele>333.9</ele>
        <time>2013-01-24T12:53:55.000Z</time>
      </trkpt>
      <trkpt lat="43.98967" lon="5.13035">
        <ele>334.1</ele>
        <time>2013-01-24T12:53:56.000Z</time>
      </trkpt>
      <trkpt lat="43.98968" lon="5.13041">
        <ele>334</ele>
        <time>2013-01-24T12:53:59.000Z</time>
      </trkpt>
      <trkpt lat="43.98971" lon="5.13042">
        <ele>332.9</ele>
        <time>2013-01-24T12:54:00.000Z</time>
      </trkpt>
      <trkpt lat="43.98974" lon="5.13044">
        <ele>330.7</ele>
        <time>2013-01-24T12:54:02.000Z</time>
      </trkpt>
      <trkpt lat="43.98978" lon="5.13046">
        <ele>331.8</ele>
        <time>2013-01-24T12:54:03.000Z</time>
      </trkpt>
      <trkpt lat="43.98982" lon="5.13047">
        <ele>331.8</ele>
        <time>2013-01-24T12:54:05.000Z</time>
      </trkpt>
      <trkpt lat="43.98983" lon="5.13047">
        <ele>331.7</ele>
        <time>2013-01-24T12:54:06.000Z</time>
      </trkpt>
      <trkpt lat="43.98985" lon="5.13047">
        <ele>331.2</ele>
        <time>2013-01-24T12:54:07.000Z</time>
      </trkpt>
      <trkpt lat="43.98988" lon="5.13047">
        <ele>330.8</ele>
        <time>2013-01-24T12:54:08.000Z</time>
      </trkpt>
      <trkpt lat="43.98991" lon="5.13048">
        <ele>329.9</ele>
        <time>2013-01-24T12:54:09.000Z</time>
      </trkpt>
      <trkpt lat="43.98994" lon="5.13047">
        <ele>329.5</ele>
        <time>2013-01-24T12:54:10.000Z</time>
      </trkpt>
      <trkpt lat="43.98996" lon="5.13048">
        <ele>328.9</ele>
        <time>2013-01-24T12:54:11.000Z</time>
      </trkpt>
      <trkpt lat="43.98999" lon="5.13048">
        <ele>328.3</ele>
        <time>2013-01-24T12:54:12.000Z</time>
      </trkpt>
      <trkpt lat="43.99002" lon="5.13049">
        <ele>328.3</ele>
        <time>2013-01-24T12:54:13.000Z</time>
      </trkpt>
      <trkpt lat="43.99005" lon="5.1305">
        <ele>329.2</ele>
        <time>2013-01-24T12:54:14.000Z</time>
      </trkpt>
      <trkpt lat="43.99007" lon="5.13054">
        <ele>327.3</ele>
        <time>2013-01-24T12:54:15.000Z</time>
      </trkpt>
      <trkpt lat="43.99008" lon="5.13057">
        <ele>326.4</ele>
        <time>2013-01-24T12:54:16.000Z</time>
      </trkpt>
      <trkpt lat="43.99009" lon="5.1306">
        <ele>325.7</ele>
        <time>2013-01-24T12:54:17.000Z</time>
      </trkpt>
      <trkpt lat="43.99012" lon="5.13064">
        <ele>324.8</ele>
        <time>2013-01-24T12:54:18.000Z</time>
      </trkpt>
      <trkpt lat="43.99014" lon="5.13067">
        <ele>324.3</ele>
        <time>2013-01-24T12:54:19.000Z</time>
      </trkpt>
      <trkpt lat="43.99017" lon="5.13067">
        <ele>324.3</ele>
        <time>2013-01-24T12:54:20.000Z</time>
      </trkpt>
      <trkpt lat="43.99021" lon="5.13068">
        <ele>324.4</ele>
        <time>2013-01-24T12:54:22.000Z</time>
      </trkpt>
      <trkpt lat="43.99023" lon="5.13069">
        <ele>324.5</ele>
        <time>2013-01-24T12:54:23.000Z</time>
      </trkpt>
      <trkpt lat="43.99026" lon="5.13067">
        <ele>323.4</ele>
        <time>2013-01-24T12:54:30.000Z</time>
      </trkpt>
      <trkpt lat="43.99029" lon="5.13069">
        <ele>323.3</ele>
        <time>2013-01-24T12:54:31.000Z</time>
      </trkpt>
      <trkpt lat="43.99031" lon="5.13071">
        <ele>322.9</ele>
        <time>2013-01-24T12:54:32.000Z</time>
      </trkpt>
      <trkpt lat="43.99033" lon="5.13073">
        <ele>323.1</ele>
        <time>2013-01-24T12:54:33.000Z</time>
      </trkpt>
      <trkpt lat="43.99035" lon="5.13075">
        <ele>322.5</ele>
        <time>2013-01-24T12:54:34.000Z</time>
      </trkpt>
      <trkpt lat="43.99037" lon="5.13077">
        <ele>321.9</ele>
        <time>2013-01-24T12:54:35.000Z</time>
      </trkpt>
      <trkpt lat="43.99041" lon="5.13079">
        <ele>321.6</ele>
        <time>2013-01-24T12:54:36.000Z</time>
      </trkpt>
      <trkpt lat="43.99044" lon="5.13081">
        <ele>321.6</ele>
        <time>2013-01-24T12:54:37.000Z</time>
      </trkpt>
      <trkpt lat="43.99048" lon="5.13083">
        <ele>321.2</ele>
        <time>2013-01-24T12:54:38.000Z</time>
      </trkpt>
      <trkpt lat="43.99051" lon="5.13085">
        <ele>320.4</ele>
        <time>2013-01-24T12:54:39.000Z</time>
      </trkpt>
      <trkpt lat="43.99056" lon="5.13087">
        <ele>319.8</ele>
        <time>2013-01-24T12:54:40.000Z</time>
      </trkpt>
      <trkpt lat="43.9906" lon="5.13088">
        <ele>319.3</ele>
        <time>2013-01-24T12:54:41.000Z</time>
      </trkpt>
      <trkpt lat="43.99065" lon="5.1309">
        <ele>319</ele>
        <time>2013-01-24T12:54:42.000Z</time>
      </trkpt>
      <trkpt lat="43.99071" lon="5.1309">
        <ele>318.5</ele>
        <time>2013-01-24T12:54:43.000Z</time>
      </trkpt>
      <trkpt lat="43.99077" lon="5.13091">
        <ele>317.8</ele>
        <time>2013-01-24T12:54:44.000Z</time>
      </trkpt>
      <trkpt lat="43.99083" lon="5.1309">
        <ele>316.9</ele>
        <time>2013-01-24T12:54:45.000Z</time>
      </trkpt>
      <trkpt lat="43.99088" lon="5.1309">
        <ele>317</ele>
        <time>2013-01-24T12:54:46.000Z</time>
      </trkpt>
      <trkpt lat="43.99094" lon="5.13092">
        <ele>317.4</ele>
        <time>2013-01-24T12:54:47.000Z</time>
      </trkpt>
      <trkpt lat="43.991" lon="5.13093">
        <ele>317.8</ele>
        <time>2013-01-24T12:54:48.000Z</time>
      </trkpt>
      <trkpt lat="43.99105" lon="5.13096">
        <ele>318.2</ele>
        <time>2013-01-24T12:54:49.000Z</time>
      </trkpt>
      <trkpt lat="43.99107" lon="5.13099">
        <ele>316.9</ele>
        <time>2013-01-24T12:54:50.000Z</time>
      </trkpt>
      <trkpt lat="43.99111" lon="5.13101">
        <ele>316.8</ele>
        <time>2013-01-24T12:54:51.000Z</time>
      </trkpt>
      <trkpt lat="43.99114" lon="5.13104">
        <ele>316.7</ele>
        <time>2013-01-24T12:54:52.000Z</time>
      </trkpt>
      <trkpt lat="43.99119" lon="5.13106">
        <ele>316.1</ele>
        <time>2013-01-24T12:54:53.000Z</time>
      </trkpt>
      <trkpt lat="43.99123" lon="5.13107">
        <ele>315.4</ele>
        <time>2013-01-24T12:54:54.000Z</time>
      </trkpt>
      <trkpt lat="43.99128" lon="5.13107">
        <ele>314.7</ele>
        <time>2013-01-24T12:54:55.000Z</time>
      </trkpt>
      <trkpt lat="43.99132" lon="5.13108">
        <ele>314.3</ele>
        <time>2013-01-24T12:54:56.000Z</time>
      </trkpt>
      <trkpt lat="43.99137" lon="5.13109">
        <ele>313.6</ele>
        <time>2013-01-24T12:54:57.000Z</time>
      </trkpt>
      <trkpt lat="43.99141" lon="5.13112">
        <ele>313.1</ele>
        <time>2013-01-24T12:54:58.000Z</time>
      </trkpt>
      <trkpt lat="43.99146" lon="5.13112">
        <ele>312.9</ele>
        <time>2013-01-24T12:54:59.000Z</time>
      </trkpt>
      <trkpt lat="43.9915" lon="5.13113">
        <ele>312.8</ele>
        <time>2013-01-24T12:55:00.000Z</time>
      </trkpt>
      <trkpt lat="43.99153" lon="5.13113">
        <ele>313</ele>
        <time>2013-01-24T12:55:01.000Z</time>
      </trkpt>
      <trkpt lat="43.9916" lon="5.13114">
        <ele>313.8</ele>
        <time>2013-01-24T12:55:02.000Z</time>
      </trkpt>
      <trkpt lat="43.99166" lon="5.13114">
        <ele>313.2</ele>
        <time>2013-01-24T12:55:03.000Z</time>
      </trkpt>
      <trkpt lat="43.9917" lon="5.13114">
        <ele>312.6</ele>
        <time>2013-01-24T12:55:11.000Z</time>
      </trkpt>
      <trkpt lat="43.9917" lon="5.13114">
        <ele>312.8</ele>
        <time>2013-01-24T12:55:12.000Z</time>
      </trkpt>
      <trkpt lat="43.99171" lon="5.13119">
        <ele>311.7</ele>
        <time>2013-01-24T12:55:22.000Z</time>
      </trkpt>
      <trkpt lat="43.99171" lon="5.13123">
        <ele>312.2</ele>
        <time>2013-01-24T12:55:23.000Z</time>
      </trkpt>
      <trkpt lat="43.99171" lon="5.13127">
        <ele>311.7</ele>
        <time>2013-01-24T12:55:24.000Z</time>
      </trkpt>
      <trkpt lat="43.99173" lon="5.1313">
        <ele>310.9</ele>
        <time>2013-01-24T12:55:25.000Z</time>
      </trkpt>
      <trkpt lat="43.99173" lon="5.13134">
        <ele>311.2</ele>
        <time>2013-01-24T12:55:26.000Z</time>
      </trkpt>
      <trkpt lat="43.99175" lon="5.13137">
        <ele>311.4</ele>
        <time>2013-01-24T12:55:27.000Z</time>
      </trkpt>
      <trkpt lat="43.99177" lon="5.1314">
        <ele>311.3</ele>
        <time>2013-01-24T12:55:28.000Z</time>
      </trkpt>
      <trkpt lat="43.99179" lon="5.13143">
        <ele>311.6</ele>
        <time>2013-01-24T12:55:29.000Z</time>
      </trkpt>
      <trkpt lat="43.99181" lon="5.13144">
        <ele>311.5</ele>
        <time>2013-01-24T12:55:30.000Z</time>
      </trkpt>
      <trkpt lat="43.99183" lon="5.13145">
        <ele>311.7</ele>
        <time>2013-01-24T12:55:31.000Z</time>
      </trkpt>
      <trkpt lat="43.99185" lon="5.13145">
        <ele>311.6</ele>
        <time>2013-01-24T12:55:32.000Z</time>
      </trkpt>
      <trkpt lat="43.99188" lon="5.13145">
        <ele>310.6</ele>
        <time>2013-01-24T12:55:33.000Z</time>
      </trkpt>
      <trkpt lat="43.99191" lon="5.13145">
        <ele>311.3</ele>
        <time>2013-01-24T12:55:35.000Z</time>
      </trkpt>
      <trkpt lat="43.99192" lon="5.13146">
        <ele>311.3</ele>
        <time>2013-01-24T12:55:36.000Z</time>
      </trkpt>
      <trkpt lat="43.99196" lon="5.13147">
        <ele>312.1</ele>
        <time>2013-01-24T12:55:38.000Z</time>
      </trkpt>
      <trkpt lat="43.99199" lon="5.13147">
        <ele>312.4</ele>
        <time>2013-01-24T12:55:39.000Z</time>
      </trkpt>
      <trkpt lat="43.99204" lon="5.13148">
        <ele>312.6</ele>
        <time>2013-01-24T12:55:41.000Z</time>
      </trkpt>
      <trkpt lat="43.99206" lon="5.13148">
        <ele>312.7</ele>
        <time>2013-01-24T12:55:42.000Z</time>
      </trkpt>
      <trkpt lat="43.99209" lon="5.13148">
        <ele>312.8</ele>
        <time>2013-01-24T12:55:44.000Z</time>
      </trkpt>
      <trkpt lat="43.99211" lon="5.13148">
        <ele>313.7</ele>
        <time>2013-01-24T12:55:45.000Z</time>
      </trkpt>
      <trkpt lat="43.99214" lon="5.13149">
        <ele>314.6</ele>
        <time>2013-01-24T12:55:47.000Z</time>
      </trkpt>
      <trkpt lat="43.99215" lon="5.1315">
        <ele>314.9</ele>
        <time>2013-01-24T12:55:48.000Z</time>
      </trkpt>
      <trkpt lat="43.99217" lon="5.13151">
        <ele>314.8</ele>
        <time>2013-01-24T12:55:49.000Z</time>
      </trkpt>
      <trkpt lat="43.9922" lon="5.13151">
        <ele>314.6</ele>
        <time>2013-01-24T12:55:50.000Z</time>
      </trkpt>
      <trkpt lat="43.99223" lon="5.13154">
        <ele>315.9</ele>
        <time>2013-01-24T12:55:53.000Z</time>
      </trkpt>
      <trkpt lat="43.99225" lon="5.13155">
        <ele>316.3</ele>
        <time>2013-01-24T12:55:54.000Z</time>
      </trkpt>
      <trkpt lat="43.99228" lon="5.13155">
        <ele>316.7</ele>
        <time>2013-01-24T12:55:56.000Z</time>
      </trkpt>
      <trkpt lat="43.9923" lon="5.13155">
        <ele>317.4</ele>
        <time>2013-01-24T12:55:57.000Z</time>
      </trkpt>
      <trkpt lat="43.99234" lon="5.13158">
        <ele>318.1</ele>
        <time>2013-01-24T12:56:00.000Z</time>
      </trkpt>
      <trkpt lat="43.99235" lon="5.1316">
        <ele>318.2</ele>
        <time>2013-01-24T12:56:01.000Z</time>
      </trkpt>
      <trkpt lat="43.99238" lon="5.13162">
        <ele>318.7</ele>
        <time>2013-01-24T12:56:03.000Z</time>
      </trkpt>
      <trkpt lat="43.99239" lon="5.13163">
        <ele>319.1</ele>
        <time>2013-01-24T12:56:04.000Z</time>
      </trkpt>
      <trkpt lat="43.99244" lon="5.13164">
        <ele>318.8</ele>
        <time>2013-01-24T12:56:07.000Z</time>
      </trkpt>
      <trkpt lat="43.99245" lon="5.13165">
        <ele>318.8</ele>
        <time>2013-01-24T12:56:08.000Z</time>
      </trkpt>
      <trkpt lat="43.99249" lon="5.13166">
        <ele>319.1</ele>
        <time>2013-01-24T12:56:10.000Z</time>
      </trkpt>
      <trkpt lat="43.9925" lon="5.13167">
        <ele>319</ele>
        <time>2013-01-24T12:56:11.000Z</time>
      </trkpt>
      <trkpt lat="43.99252" lon="5.1317">
        <ele>319.2</ele>
        <time>2013-01-24T12:56:13.000Z</time>
      </trkpt>
      <trkpt lat="43.99254" lon="5.13172">
        <ele>319.2</ele>
        <time>2013-01-24T12:56:14.000Z</time>
      </trkpt>
      <trkpt lat="43.99256" lon="5.13175">
        <ele>319.4</ele>
        <time>2013-01-24T12:56:16.000Z</time>
      </trkpt>
      <trkpt lat="43.99257" lon="5.13176">
        <ele>319.7</ele>
        <time>2013-01-24T12:56:17.000Z</time>
      </trkpt>
      <trkpt lat="43.99258" lon="5.13182">
        <ele>320.3</ele>
        <time>2013-01-24T12:56:20.000Z</time>
      </trkpt>
      <trkpt lat="43.99258" lon="5.13185">
        <ele>320.9</ele>
        <time>2013-01-24T12:56:21.000Z</time>
      </trkpt>
      <trkpt lat="43.99258" lon="5.13189">
        <ele>321.8</ele>
        <time>2013-01-24T12:56:23.000Z</time>
      </trkpt>
      <trkpt lat="43.9926" lon="5.13191">
        <ele>321.9</ele>
        <time>2013-01-24T12:56:24.000Z</time>
      </trkpt>
      <trkpt lat="43.99262" lon="5.13195">
        <ele>322</ele>
        <time>2013-01-24T12:56:26.000Z</time>
      </trkpt>
      <trkpt lat="43.99263" lon="5.13197">
        <ele>322.4</ele>
        <time>2013-01-24T12:56:27.000Z</time>
      </trkpt>
      <trkpt lat="43.99265" lon="5.13201">
        <ele>322.4</ele>
        <time>2013-01-24T12:56:29.000Z</time>
      </trkpt>
      <trkpt lat="43.99266" lon="5.13203">
        <ele>322.1</ele>
        <time>2013-01-24T12:56:30.000Z</time>
      </trkpt>
      <trkpt lat="43.99267" lon="5.13207">
        <ele>322.4</ele>
        <time>2013-01-24T12:56:32.000Z</time>
      </trkpt>
      <trkpt lat="43.99268" lon="5.13209">
        <ele>322.8</ele>
        <time>2013-01-24T12:56:33.000Z</time>
      </trkpt>
      <trkpt lat="43.99272" lon="5.13213">
        <ele>322.4</ele>
        <time>2013-01-24T12:56:36.000Z</time>
      </trkpt>
      <trkpt lat="43.99273" lon="5.13214">
        <ele>322.8</ele>
        <time>2013-01-24T12:56:37.000Z</time>
      </trkpt>
      <trkpt lat="43.99276" lon="5.13214">
        <ele>323.2</ele>
        <time>2013-01-24T12:56:39.000Z</time>
      </trkpt>
      <trkpt lat="43.99278" lon="5.13215">
        <ele>322.9</ele>
        <time>2013-01-24T12:56:40.000Z</time>
      </trkpt>
      <trkpt lat="43.99282" lon="5.13217">
        <ele>323.3</ele>
        <time>2013-01-24T12:56:42.000Z</time>
      </trkpt>
      <trkpt lat="43.99283" lon="5.13218">
        <ele>323.3</ele>
        <time>2013-01-24T12:56:43.000Z</time>
      </trkpt>
      <trkpt lat="43.99287" lon="5.13219">
        <ele>323.9</ele>
        <time>2013-01-24T12:56:45.000Z</time>
      </trkpt>
      <trkpt lat="43.99288" lon="5.1322">
        <ele>324.5</ele>
        <time>2013-01-24T12:56:46.000Z</time>
      </trkpt>
      <trkpt lat="43.99291" lon="5.1322">
        <ele>327.4</ele>
        <time>2013-01-24T12:56:48.000Z</time>
      </trkpt>
      <trkpt lat="43.99294" lon="5.13222">
        <ele>325.3</ele>
        <time>2013-01-24T12:56:49.000Z</time>
      </trkpt>
      <trkpt lat="43.99297" lon="5.13223">
        <ele>324.3</ele>
        <time>2013-01-24T12:56:51.000Z</time>
      </trkpt>
      <trkpt lat="43.99298" lon="5.13224">
        <ele>322.8</ele>
        <time>2013-01-24T12:56:52.000Z</time>
      </trkpt>
      <trkpt lat="43.99301" lon="5.13228">
        <ele>321.7</ele>
        <time>2013-01-24T12:56:54.000Z</time>
      </trkpt>
      <trkpt lat="43.99302" lon="5.13229">
        <ele>321.6</ele>
        <time>2013-01-24T12:56:55.000Z</time>
      </trkpt>
      <trkpt lat="43.99306" lon="5.13232">
        <ele>324.1</ele>
        <time>2013-01-24T12:56:58.000Z</time>
      </trkpt>
      <trkpt lat="43.99307" lon="5.13233">
        <ele>324.6</ele>
        <time>2013-01-24T12:56:59.000Z</time>
      </trkpt>
      <trkpt lat="43.9931" lon="5.13234">
        <ele>324.4</ele>
        <time>2013-01-24T12:57:02.000Z</time>
      </trkpt>
      <trkpt lat="43.99311" lon="5.13235">
        <ele>324.3</ele>
        <time>2013-01-24T12:57:03.000Z</time>
      </trkpt>
      <trkpt lat="43.99315" lon="5.13235">
        <ele>325.4</ele>
        <time>2013-01-24T12:57:12.000Z</time>
      </trkpt>
      <trkpt lat="43.99316" lon="5.13236">
        <ele>327.1</ele>
        <time>2013-01-24T12:57:13.000Z</time>
      </trkpt>
      <trkpt lat="43.9932" lon="5.13237">
        <ele>326.9</ele>
        <time>2013-01-24T12:57:18.000Z</time>
      </trkpt>
      <trkpt lat="43.99321" lon="5.13237">
        <ele>326.7</ele>
        <time>2013-01-24T12:57:19.000Z</time>
      </trkpt>
      <trkpt lat="43.99324" lon="5.1324">
        <ele>326.1</ele>
        <time>2013-01-24T12:57:24.000Z</time>
      </trkpt>
      <trkpt lat="43.99325" lon="5.13241">
        <ele>326.4</ele>
        <time>2013-01-24T12:57:25.000Z</time>
      </trkpt>
      <trkpt lat="43.99329" lon="5.13244">
        <ele>328</ele>
        <time>2013-01-24T12:57:36.000Z</time>
      </trkpt>
      <trkpt lat="43.99329" lon="5.13244">
        <ele>328</ele>
        <time>2013-01-24T12:57:37.000Z</time>
      </trkpt>
      <trkpt lat="43.99333" lon="5.13246">
        <ele>328.6</ele>
        <time>2013-01-24T12:57:45.000Z</time>
      </trkpt>
      <trkpt lat="43.99334" lon="5.13247">
        <ele>328.3</ele>
        <time>2013-01-24T12:57:46.000Z</time>
      </trkpt>
      <trkpt lat="43.99337" lon="5.13249">
        <ele>328.8</ele>
        <time>2013-01-24T12:57:48.000Z</time>
      </trkpt>
      <trkpt lat="43.99338" lon="5.1325">
        <ele>329.2</ele>
        <time>2013-01-24T12:57:49.000Z</time>
      </trkpt>
      <trkpt lat="43.99341" lon="5.13251">
        <ele>329.4</ele>
        <time>2013-01-24T12:57:52.000Z</time>
      </trkpt>
      <trkpt lat="43.99342" lon="5.13252">
        <ele>329.7</ele>
        <time>2013-01-24T12:57:53.000Z</time>
      </trkpt>
      <trkpt lat="43.99345" lon="5.13255">
        <ele>330.7</ele>
        <time>2013-01-24T12:57:56.000Z</time>
      </trkpt>
      <trkpt lat="43.99347" lon="5.13255">
        <ele>329.9</ele>
        <time>2013-01-24T12:57:57.000Z</time>
      </trkpt>
      <trkpt lat="43.9935" lon="5.13257">
        <ele>330.2</ele>
        <time>2013-01-24T12:57:59.000Z</time>
      </trkpt>
      <trkpt lat="43.99351" lon="5.13257">
        <ele>329.9</ele>
        <time>2013-01-24T12:58:00.000Z</time>
      </trkpt>
      <trkpt lat="43.99355" lon="5.1326">
        <ele>329.3</ele>
        <time>2013-01-24T12:58:02.000Z</time>
      </trkpt>
      <trkpt lat="43.99357" lon="5.13261">
        <ele>329</ele>
        <time>2013-01-24T12:58:03.000Z</time>
      </trkpt>
      <trkpt lat="43.99359" lon="5.13265">
        <ele>330.6</ele>
        <time>2013-01-24T12:58:05.000Z</time>
      </trkpt>
      <trkpt lat="43.99361" lon="5.13266">
        <ele>330</ele>
        <time>2013-01-24T12:58:06.000Z</time>
      </trkpt>
      <trkpt lat="43.99364" lon="5.13269">
        <ele>328.9</ele>
        <time>2013-01-24T12:58:08.000Z</time>
      </trkpt>
      <trkpt lat="43.99364" lon="5.13272">
        <ele>329</ele>
        <time>2013-01-24T12:58:09.000Z</time>
      </trkpt>
      <trkpt lat="43.99366" lon="5.13276">
        <ele>329.6</ele>
        <time>2013-01-24T12:58:11.000Z</time>
      </trkpt>
      <trkpt lat="43.99368" lon="5.13279">
        <ele>329.5</ele>
        <time>2013-01-24T12:58:12.000Z</time>
      </trkpt>
      <trkpt lat="43.9937" lon="5.13283">
        <ele>329.2</ele>
        <time>2013-01-24T12:58:14.000Z</time>
      </trkpt>
      <trkpt lat="43.99371" lon="5.13286">
        <ele>329.3</ele>
        <time>2013-01-24T12:58:15.000Z</time>
      </trkpt>
      <trkpt lat="43.99373" lon="5.13291">
        <ele>329.6</ele>
        <time>2013-01-24T12:58:17.000Z</time>
      </trkpt>
      <trkpt lat="43.99374" lon="5.13294">
        <ele>329.6</ele>
        <time>2013-01-24T12:58:18.000Z</time>
      </trkpt>
      <trkpt lat="43.99376" lon="5.13297">
        <ele>329.5</ele>
        <time>2013-01-24T12:58:19.000Z</time>
      </trkpt>
      <trkpt lat="43.99377" lon="5.13299">
        <ele>329.5</ele>
        <time>2013-01-24T12:58:20.000Z</time>
      </trkpt>
      <trkpt lat="43.99378" lon="5.13305">
        <ele>329.6</ele>
        <time>2013-01-24T12:58:22.000Z</time>
      </trkpt>
      <trkpt lat="43.99379" lon="5.13308">
        <ele>329.6</ele>
        <time>2013-01-24T12:58:23.000Z</time>
      </trkpt>
      <trkpt lat="43.99379" lon="5.13312">
        <ele>330</ele>
        <time>2013-01-24T12:58:25.000Z</time>
      </trkpt>
      <trkpt lat="43.99379" lon="5.13315">
        <ele>330.5</ele>
        <time>2013-01-24T12:58:26.000Z</time>
      </trkpt>
      <trkpt lat="43.99379" lon="5.1332">
        <ele>330.5</ele>
        <time>2013-01-24T12:58:28.000Z</time>
      </trkpt>
      <trkpt lat="43.99379" lon="5.13323">
        <ele>330.6</ele>
        <time>2013-01-24T12:58:29.000Z</time>
      </trkpt>
      <trkpt lat="43.9938" lon="5.13328">
        <ele>331.1</ele>
        <time>2013-01-24T12:58:31.000Z</time>
      </trkpt>
      <trkpt lat="43.9938" lon="5.13331">
        <ele>330.9</ele>
        <time>2013-01-24T12:58:32.000Z</time>
      </trkpt>
      <trkpt lat="43.99381" lon="5.13336">
        <ele>331.1</ele>
        <time>2013-01-24T12:58:34.000Z</time>
      </trkpt>
      <trkpt lat="43.99382" lon="5.13339">
        <ele>331.2</ele>
        <time>2013-01-24T12:58:35.000Z</time>
      </trkpt>
      <trkpt lat="43.99383" lon="5.13344">
        <ele>331.1</ele>
        <time>2013-01-24T12:58:37.000Z</time>
      </trkpt>
      <trkpt lat="43.99383" lon="5.13346">
        <ele>331</ele>
        <time>2013-01-24T12:58:38.000Z</time>
      </trkpt>
      <trkpt lat="43.99383" lon="5.13349">
        <ele>331.2</ele>
        <time>2013-01-24T12:58:39.000Z</time>
      </trkpt>
      <trkpt lat="43.99384" lon="5.13352">
        <ele>331.7</ele>
        <time>2013-01-24T12:58:40.000Z</time>
      </trkpt>
      <trkpt lat="43.99385" lon="5.13357">
        <ele>332.2</ele>
        <time>2013-01-24T12:58:42.000Z</time>
      </trkpt>
      <trkpt lat="43.99386" lon="5.13361">
        <ele>332.1</ele>
        <time>2013-01-24T12:58:43.000Z</time>
      </trkpt>
      <trkpt lat="43.99387" lon="5.13364">
        <ele>331.8</ele>
        <time>2013-01-24T12:58:44.000Z</time>
      </trkpt>
      <trkpt lat="43.99388" lon="5.13366">
        <ele>331.6</ele>
        <time>2013-01-24T12:58:45.000Z</time>
      </trkpt>
      <trkpt lat="43.99389" lon="5.13369">
        <ele>331.2</ele>
        <time>2013-01-24T12:58:46.000Z</time>
      </trkpt>
      <trkpt lat="43.9939" lon="5.13372">
        <ele>331.1</ele>
        <time>2013-01-24T12:58:47.000Z</time>
      </trkpt>
      <trkpt lat="43.99392" lon="5.13376">
        <ele>330.7</ele>
        <time>2013-01-24T12:58:49.000Z</time>
      </trkpt>
      <trkpt lat="43.99393" lon="5.13379">
        <ele>330.6</ele>
        <time>2013-01-24T12:58:50.000Z</time>
      </trkpt>
      <trkpt lat="43.99393" lon="5.13385">
        <ele>330.5</ele>
        <time>2013-01-24T12:58:52.000Z</time>
      </trkpt>
      <trkpt lat="43.99394" lon="5.13389">
        <ele>330</ele>
        <time>2013-01-24T12:58:53.000Z</time>
      </trkpt>
      <trkpt lat="43.99395" lon="5.13392">
        <ele>330.6</ele>
        <time>2013-01-24T12:58:54.000Z</time>
      </trkpt>
      <trkpt lat="43.99396" lon="5.13395">
        <ele>330.5</ele>
        <time>2013-01-24T12:58:55.000Z</time>
      </trkpt>
      <trkpt lat="43.99397" lon="5.13399">
        <ele>330.1</ele>
        <time>2013-01-24T12:58:56.000Z</time>
      </trkpt>
      <trkpt lat="43.99398" lon="5.13402">
        <ele>330.3</ele>
        <time>2013-01-24T12:58:57.000Z</time>
      </trkpt>
      <trkpt lat="43.99401" lon="5.13405">
        <ele>330</ele>
        <time>2013-01-24T12:58:58.000Z</time>
      </trkpt>
      <trkpt lat="43.99403" lon="5.13408">
        <ele>329.8</ele>
        <time>2013-01-24T12:58:59.000Z</time>
      </trkpt>
      <trkpt lat="43.99405" lon="5.13411">
        <ele>329.7</ele>
        <time>2013-01-24T12:59:00.000Z</time>
      </trkpt>
      <trkpt lat="43.99407" lon="5.13414">
        <ele>329.8</ele>
        <time>2013-01-24T12:59:01.000Z</time>
      </trkpt>
      <trkpt lat="43.99408" lon="5.13418">
        <ele>329.8</ele>
        <time>2013-01-24T12:59:02.000Z</time>
      </trkpt>
      <trkpt lat="43.99409" lon="5.13421">
        <ele>329.7</ele>
        <time>2013-01-24T12:59:03.000Z</time>
      </trkpt>
      <trkpt lat="43.9941" lon="5.13424">
        <ele>329.7</ele>
        <time>2013-01-24T12:59:04.000Z</time>
      </trkpt>
      <trkpt lat="43.99411" lon="5.13428">
        <ele>329.5</ele>
        <time>2013-01-24T12:59:05.000Z</time>
      </trkpt>
      <trkpt lat="43.99412" lon="5.13433">
        <ele>329.4</ele>
        <time>2013-01-24T12:59:06.000Z</time>
      </trkpt>
      <trkpt lat="43.99413" lon="5.13437">
        <ele>329</ele>
        <time>2013-01-24T12:59:07.000Z</time>
      </trkpt>
      <trkpt lat="43.99414" lon="5.13441">
        <ele>329.1</ele>
        <time>2013-01-24T12:59:08.000Z</time>
      </trkpt>
      <trkpt lat="43.99415" lon="5.13445">
        <ele>328.8</ele>
        <time>2013-01-24T12:59:09.000Z</time>
      </trkpt>
      <trkpt lat="43.99416" lon="5.13449">
        <ele>328.5</ele>
        <time>2013-01-24T12:59:10.000Z</time>
      </trkpt>
      <trkpt lat="43.99417" lon="5.13453">
        <ele>328.4</ele>
        <time>2013-01-24T12:59:11.000Z</time>
      </trkpt>
      <trkpt lat="43.99418" lon="5.13457">
        <ele>328.5</ele>
        <time>2013-01-24T12:59:12.000Z</time>
      </trkpt>
      <trkpt lat="43.99419" lon="5.1346">
        <ele>328.7</ele>
        <time>2013-01-24T12:59:13.000Z</time>
      </trkpt>
      <trkpt lat="43.99419" lon="5.13464">
        <ele>328.8</ele>
        <time>2013-01-24T12:59:14.000Z</time>
      </trkpt>
      <trkpt lat="43.9942" lon="5.13467">
        <ele>329</ele>
        <time>2013-01-24T12:59:15.000Z</time>
      </trkpt>
      <trkpt lat="43.99421" lon="5.13471">
        <ele>328.7</ele>
        <time>2013-01-24T12:59:16.000Z</time>
      </trkpt>
      <trkpt lat="43.99423" lon="5.13474">
        <ele>328.7</ele>
        <time>2013-01-24T12:59:17.000Z</time>
      </trkpt>
      <trkpt lat="43.99424" lon="5.13478">
        <ele>328.8</ele>
        <time>2013-01-24T12:59:18.000Z</time>
      </trkpt>
      <trkpt lat="43.99425" lon="5.13482">
        <ele>328.7</ele>
        <time>2013-01-24T12:59:19.000Z</time>
      </trkpt>
      <trkpt lat="43.99427" lon="5.13486">
        <ele>329</ele>
        <time>2013-01-24T12:59:20.000Z</time>
      </trkpt>
      <trkpt lat="43.99429" lon="5.1349">
        <ele>329</ele>
        <time>2013-01-24T12:59:21.000Z</time>
      </trkpt>
      <trkpt lat="43.99431" lon="5.13494">
        <ele>328.8</ele>
        <time>2013-01-24T12:59:22.000Z</time>
      </trkpt>
      <trkpt lat="43.99433" lon="5.13498">
        <ele>328.3</ele>
        <time>2013-01-24T12:59:23.000Z</time>
      </trkpt>
      <trkpt lat="43.99434" lon="5.13501">
        <ele>328.8</ele>
        <time>2013-01-24T12:59:24.000Z</time>
      </trkpt>
      <trkpt lat="43.99435" lon="5.13505">
        <ele>328.5</ele>
        <time>2013-01-24T12:59:25.000Z</time>
      </trkpt>
      <trkpt lat="43.99436" lon="5.13509">
        <ele>328.3</ele>
        <time>2013-01-24T12:59:26.000Z</time>
      </trkpt>
      <trkpt lat="43.99438" lon="5.13513">
        <ele>328.3</ele>
        <time>2013-01-24T12:59:27.000Z</time>
      </trkpt>
      <trkpt lat="43.99441" lon="5.13516">
        <ele>328.3</ele>
        <time>2013-01-24T12:59:28.000Z</time>
      </trkpt>
      <trkpt lat="43.99443" lon="5.13519">
        <ele>328.6</ele>
        <time>2013-01-24T12:59:29.000Z</time>
      </trkpt>
      <trkpt lat="43.99445" lon="5.13522">
        <ele>328.3</ele>
        <time>2013-01-24T12:59:30.000Z</time>
      </trkpt>
      <trkpt lat="43.99447" lon="5.13526">
        <ele>328.5</ele>
        <time>2013-01-24T12:59:31.000Z</time>
      </trkpt>
      <trkpt lat="43.99449" lon="5.13529">
        <ele>328.7</ele>
        <time>2013-01-24T12:59:32.000Z</time>
      </trkpt>
      <trkpt lat="43.99452" lon="5.13533">
        <ele>328.4</ele>
        <time>2013-01-24T12:59:33.000Z</time>
      </trkpt>
      <trkpt lat="43.99455" lon="5.13536">
        <ele>328</ele>
        <time>2013-01-24T12:59:34.000Z</time>
      </trkpt>
      <trkpt lat="43.99458" lon="5.13539">
        <ele>327.6</ele>
        <time>2013-01-24T12:59:35.000Z</time>
      </trkpt>
      <trkpt lat="43.99461" lon="5.13543">
        <ele>327.8</ele>
        <time>2013-01-24T12:59:36.000Z</time>
      </trkpt>
      <trkpt lat="43.99463" lon="5.13546">
        <ele>327.6</ele>
        <time>2013-01-24T12:59:37.000Z</time>
      </trkpt>
      <trkpt lat="43.99466" lon="5.1355">
        <ele>327.8</ele>
        <time>2013-01-24T12:59:38.000Z</time>
      </trkpt>
      <trkpt lat="43.99468" lon="5.13553">
        <ele>327.8</ele>
        <time>2013-01-24T12:59:39.000Z</time>
      </trkpt>
      <trkpt lat="43.9947" lon="5.13557">
        <ele>327.9</ele>
        <time>2013-01-24T12:59:40.000Z</time>
      </trkpt>
      <trkpt lat="43.99472" lon="5.1356">
        <ele>328</ele>
        <time>2013-01-24T12:59:41.000Z</time>
      </trkpt>
      <trkpt lat="43.99475" lon="5.13564">
        <ele>327.7</ele>
        <time>2013-01-24T12:59:42.000Z</time>
      </trkpt>
      <trkpt lat="43.99478" lon="5.13568">
        <ele>327.6</ele>
        <time>2013-01-24T12:59:43.000Z</time>
      </trkpt>
      <trkpt lat="43.9948" lon="5.13571">
        <ele>327.6</ele>
        <time>2013-01-24T12:59:44.000Z</time>
      </trkpt>
      <trkpt lat="43.99483" lon="5.13575">
        <ele>327.6</ele>
        <time>2013-01-24T12:59:45.000Z</time>
      </trkpt>
      <trkpt lat="43.99485" lon="5.13579">
        <ele>327.5</ele>
        <time>2013-01-24T12:59:46.000Z</time>
      </trkpt>
      <trkpt lat="43.99488" lon="5.13582">
        <ele>327.5</ele>
        <time>2013-01-24T12:59:47.000Z</time>
      </trkpt>
      <trkpt lat="43.99491" lon="5.13586">
        <ele>327.3</ele>
        <time>2013-01-24T12:59:48.000Z</time>
      </trkpt>
      <trkpt lat="43.99493" lon="5.13589">
        <ele>327.2</ele>
        <time>2013-01-24T12:59:49.000Z</time>
      </trkpt>
      <trkpt lat="43.99496" lon="5.13593">
        <ele>327</ele>
        <time>2013-01-24T12:59:50.000Z</time>
      </trkpt>
      <trkpt lat="43.99498" lon="5.13596">
        <ele>327.2</ele>
        <time>2013-01-24T12:59:51.000Z</time>
      </trkpt>
      <trkpt lat="43.995" lon="5.136">
        <ele>327.3</ele>
        <time>2013-01-24T12:59:52.000Z</time>
      </trkpt>
      <trkpt lat="43.99502" lon="5.13603">
        <ele>327</ele>
        <time>2013-01-24T12:59:53.000Z</time>
      </trkpt>
      <trkpt lat="43.99505" lon="5.13607">
        <ele>327</ele>
        <time>2013-01-24T12:59:54.000Z</time>
      </trkpt>
      <trkpt lat="43.99507" lon="5.1361">
        <ele>326.9</ele>
        <time>2013-01-24T12:59:55.000Z</time>
      </trkpt>
      <trkpt lat="43.99509" lon="5.13613">
        <ele>327</ele>
        <time>2013-01-24T12:59:56.000Z</time>
      </trkpt>
      <trkpt lat="43.99511" lon="5.13616">
        <ele>327.3</ele>
        <time>2013-01-24T12:59:57.000Z</time>
      </trkpt>
      <trkpt lat="43.99513" lon="5.13619">
        <ele>327.3</ele>
        <time>2013-01-24T12:59:58.000Z</time>
      </trkpt>
      <trkpt lat="43.99516" lon="5.13622">
        <ele>327.4</ele>
        <time>2013-01-24T12:59:59.000Z</time>
      </trkpt>
      <trkpt lat="43.99518" lon="5.13626">
        <ele>327.7</ele>
        <time>2013-01-24T13:00:00.000Z</time>
      </trkpt>
      <trkpt lat="43.9952" lon="5.13629">
        <ele>327.8</ele>
        <time>2013-01-24T13:00:01.000Z</time>
      </trkpt>
      <trkpt lat="43.99522" lon="5.13633">
        <ele>327.5</ele>
        <time>2013-01-24T13:00:02.000Z</time>
      </trkpt>
      <trkpt lat="43.99525" lon="5.13636">
        <ele>327.3</ele>
        <time>2013-01-24T13:00:03.000Z</time>
      </trkpt>
      <trkpt lat="43.99527" lon="5.1364">
        <ele>327.3</ele>
        <time>2013-01-24T13:00:04.000Z</time>
      </trkpt>
      <trkpt lat="43.99529" lon="5.13643">
        <ele>327.4</ele>
        <time>2013-01-24T13:00:05.000Z</time>
      </trkpt>
      <trkpt lat="43.99532" lon="5.13647">
        <ele>327.3</ele>
        <time>2013-01-24T13:00:06.000Z</time>
      </trkpt>
      <trkpt lat="43.99535" lon="5.13651">
        <ele>327.4</ele>
        <time>2013-01-24T13:00:07.000Z</time>
      </trkpt>
      <trkpt lat="43.99538" lon="5.13656">
        <ele>327.5</ele>
        <time>2013-01-24T13:00:08.000Z</time>
      </trkpt>
      <trkpt lat="43.9954" lon="5.13659">
        <ele>327.3</ele>
        <time>2013-01-24T13:00:09.000Z</time>
      </trkpt>
      <trkpt lat="43.99543" lon="5.13663">
        <ele>327.2</ele>
        <time>2013-01-24T13:00:10.000Z</time>
      </trkpt>
      <trkpt lat="43.99545" lon="5.13666">
        <ele>327</ele>
        <time>2013-01-24T13:00:11.000Z</time>
      </trkpt>
      <trkpt lat="43.99548" lon="5.1367">
        <ele>327.3</ele>
        <time>2013-01-24T13:00:12.000Z</time>
      </trkpt>
      <trkpt lat="43.99551" lon="5.13674">
        <ele>327.1</ele>
        <time>2013-01-24T13:00:13.000Z</time>
      </trkpt>
      <trkpt lat="43.99553" lon="5.13677">
        <ele>326.9</ele>
        <time>2013-01-24T13:00:14.000Z</time>
      </trkpt>
      <trkpt lat="43.99556" lon="5.13681">
        <ele>326.8</ele>
        <time>2013-01-24T13:00:15.000Z</time>
      </trkpt>
      <trkpt lat="43.99558" lon="5.13684">
        <ele>326.2</ele>
        <time>2013-01-24T13:00:16.000Z</time>
      </trkpt>
      <trkpt lat="43.9956" lon="5.13688">
        <ele>325.7</ele>
        <time>2013-01-24T13:00:17.000Z</time>
      </trkpt>
      <trkpt lat="43.99563" lon="5.13692">
        <ele>325.5</ele>
        <time>2013-01-24T13:00:18.000Z</time>
      </trkpt>
      <trkpt lat="43.99565" lon="5.13695">
        <ele>325.5</ele>
        <time>2013-01-24T13:00:19.000Z</time>
      </trkpt>
      <trkpt lat="43.99568" lon="5.13698">
        <ele>325.1</ele>
        <time>2013-01-24T13:00:20.000Z</time>
      </trkpt>
      <trkpt lat="43.9957" lon="5.13701">
        <ele>324.9</ele>
        <time>2013-01-24T13:00:21.000Z</time>
      </trkpt>
      <trkpt lat="43.99572" lon="5.13705">
        <ele>325.1</ele>
        <time>2013-01-24T13:00:22.000Z</time>
      </trkpt>
      <trkpt lat="43.99574" lon="5.13708">
        <ele>324.9</ele>
        <time>2013-01-24T13:00:23.000Z</time>
      </trkpt>
      <trkpt lat="43.99576" lon="5.1371">
        <ele>324.4</ele>
        <time>2013-01-24T13:00:24.000Z</time>
      </trkpt>
      <trkpt lat="43.99578" lon="5.13713">
        <ele>324.3</ele>
        <time>2013-01-24T13:00:25.000Z</time>
      </trkpt>
      <trkpt lat="43.9958" lon="5.13716">
        <ele>324.1</ele>
        <time>2013-01-24T13:00:26.000Z</time>
      </trkpt>
      <trkpt lat="43.99582" lon="5.13719">
        <ele>323.8</ele>
        <time>2013-01-24T13:00:27.000Z</time>
      </trkpt>
      <trkpt lat="43.99584" lon="5.13722">
        <ele>323.6</ele>
        <time>2013-01-24T13:00:28.000Z</time>
      </trkpt>
      <trkpt lat="43.99586" lon="5.13725">
        <ele>323.4</ele>
        <time>2013-01-24T13:00:29.000Z</time>
      </trkpt>
      <trkpt lat="43.99589" lon="5.13728">
        <ele>323.4</ele>
        <time>2013-01-24T13:00:30.000Z</time>
      </trkpt>
      <trkpt lat="43.99591" lon="5.13731">
        <ele>323.4</ele>
        <time>2013-01-24T13:00:31.000Z</time>
      </trkpt>
      <trkpt lat="43.99593" lon="5.13734">
        <ele>323.5</ele>
        <time>2013-01-24T13:00:32.000Z</time>
      </trkpt>
      <trkpt lat="43.99594" lon="5.13737">
        <ele>323.7</ele>
        <time>2013-01-24T13:00:33.000Z</time>
      </trkpt>
      <trkpt lat="43.99596" lon="5.1374">
        <ele>323.7</ele>
        <time>2013-01-24T13:00:34.000Z</time>
      </trkpt>
      <trkpt lat="43.99598" lon="5.13742">
        <ele>323.9</ele>
        <time>2013-01-24T13:00:35.000Z</time>
      </trkpt>
      <trkpt lat="43.99599" lon="5.13745">
        <ele>323.2</ele>
        <time>2013-01-24T13:00:36.000Z</time>
      </trkpt>
      <trkpt lat="43.99601" lon="5.13747">
        <ele>323.1</ele>
        <time>2013-01-24T13:00:37.000Z</time>
      </trkpt>
      <trkpt lat="43.99603" lon="5.13749">
        <ele>322.9</ele>
        <time>2013-01-24T13:00:38.000Z</time>
      </trkpt>
      <trkpt lat="43.99603" lon="5.13753">
        <ele>322.7</ele>
        <time>2013-01-24T13:00:39.000Z</time>
      </trkpt>
      <trkpt lat="43.99603" lon="5.13759">
        <ele>321.6</ele>
        <time>2013-01-24T13:00:41.000Z</time>
      </trkpt>
      <trkpt lat="43.99604" lon="5.13762">
        <ele>321.4</ele>
        <time>2013-01-24T13:00:42.000Z</time>
      </trkpt>
      <trkpt lat="43.99605" lon="5.13766">
        <ele>321.5</ele>
        <time>2013-01-24T13:00:44.000Z</time>
      </trkpt>
      <trkpt lat="43.99606" lon="5.13769">
        <ele>321.1</ele>
        <time>2013-01-24T13:00:45.000Z</time>
      </trkpt>
      <trkpt lat="43.99607" lon="5.13772">
        <ele>320.8</ele>
        <time>2013-01-24T13:00:46.000Z</time>
      </trkpt>
      <trkpt lat="43.99609" lon="5.13774">
        <ele>320.5</ele>
        <time>2013-01-24T13:00:47.000Z</time>
      </trkpt>
      <trkpt lat="43.9961" lon="5.13776">
        <ele>320.3</ele>
        <time>2013-01-24T13:00:48.000Z</time>
      </trkpt>
      <trkpt lat="43.99612" lon="5.13779">
        <ele>320.2</ele>
        <time>2013-01-24T13:00:49.000Z</time>
      </trkpt>
      <trkpt lat="43.99613" lon="5.13782">
        <ele>319.6</ele>
        <time>2013-01-24T13:00:50.000Z</time>
      </trkpt>
      <trkpt lat="43.99615" lon="5.13785">
        <ele>318.6</ele>
        <time>2013-01-24T13:00:51.000Z</time>
      </trkpt>
      <trkpt lat="43.99617" lon="5.13788">
        <ele>318.5</ele>
        <time>2013-01-24T13:00:52.000Z</time>
      </trkpt>
      <trkpt lat="43.99619" lon="5.1379">
        <ele>318.2</ele>
        <time>2013-01-24T13:00:53.000Z</time>
      </trkpt>
      <trkpt lat="43.99621" lon="5.13793">
        <ele>317.9</ele>
        <time>2013-01-24T13:00:54.000Z</time>
      </trkpt>
      <trkpt lat="43.99623" lon="5.13795">
        <ele>317.8</ele>
        <time>2013-01-24T13:00:55.000Z</time>
      </trkpt>
      <trkpt lat="43.99624" lon="5.13798">
        <ele>318.1</ele>
        <time>2013-01-24T13:00:56.000Z</time>
      </trkpt>
      <trkpt lat="43.99625" lon="5.13801">
        <ele>318.3</ele>
        <time>2013-01-24T13:00:57.000Z</time>
      </trkpt>
      <trkpt lat="43.99625" lon="5.13806">
        <ele>317.1</ele>
        <time>2013-01-24T13:00:59.000Z</time>
      </trkpt>
      <trkpt lat="43.99626" lon="5.13809">
        <ele>317</ele>
        <time>2013-01-24T13:01:00.000Z</time>
      </trkpt>
      <trkpt lat="43.99627" lon="5.13812">
        <ele>316.6</ele>
        <time>2013-01-24T13:01:01.000Z</time>
      </trkpt>
      <trkpt lat="43.99628" lon="5.13815">
        <ele>316.2</ele>
        <time>2013-01-24T13:01:02.000Z</time>
      </trkpt>
      <trkpt lat="43.99629" lon="5.13818">
        <ele>316.2</ele>
        <time>2013-01-24T13:01:03.000Z</time>
      </trkpt>
      <trkpt lat="43.99631" lon="5.1382">
        <ele>316.3</ele>
        <time>2013-01-24T13:01:04.000Z</time>
      </trkpt>
      <trkpt lat="43.99633" lon="5.13822">
        <ele>316.2</ele>
        <time>2013-01-24T13:01:05.000Z</time>
      </trkpt>
      <trkpt lat="43.99634" lon="5.13824">
        <ele>315.9</ele>
        <time>2013-01-24T13:01:06.000Z</time>
      </trkpt>
      <trkpt lat="43.99637" lon="5.1383">
        <ele>315.7</ele>
        <time>2013-01-24T13:01:08.000Z</time>
      </trkpt>
      <trkpt lat="43.99638" lon="5.13832">
        <ele>315.5</ele>
        <time>2013-01-24T13:01:09.000Z</time>
      </trkpt>
      <trkpt lat="43.99641" lon="5.13835">
        <ele>315.4</ele>
        <time>2013-01-24T13:01:11.000Z</time>
      </trkpt>
      <trkpt lat="43.99643" lon="5.13837">
        <ele>315.1</ele>
        <time>2013-01-24T13:01:12.000Z</time>
      </trkpt>
      <trkpt lat="43.99645" lon="5.13838">
        <ele>314.7</ele>
        <time>2013-01-24T13:01:13.000Z</time>
      </trkpt>
      <trkpt lat="43.99647" lon="5.1384">
        <ele>314.6</ele>
        <time>2013-01-24T13:01:14.000Z</time>
      </trkpt>
      <trkpt lat="43.99649" lon="5.13842">
        <ele>314.6</ele>
        <time>2013-01-24T13:01:15.000Z</time>
      </trkpt>
      <trkpt lat="43.99652" lon="5.13842">
        <ele>314.3</ele>
        <time>2013-01-24T13:01:16.000Z</time>
      </trkpt>
      <trkpt lat="43.99654" lon="5.13844">
        <ele>313.8</ele>
        <time>2013-01-24T13:01:17.000Z</time>
      </trkpt>
      <trkpt lat="43.99656" lon="5.13845">
        <ele>313.7</ele>
        <time>2013-01-24T13:01:18.000Z</time>
      </trkpt>
      <trkpt lat="43.99658" lon="5.13846">
        <ele>313.1</ele>
        <time>2013-01-24T13:01:19.000Z</time>
      </trkpt>
      <trkpt lat="43.9966" lon="5.13848">
        <ele>312.8</ele>
        <time>2013-01-24T13:01:20.000Z</time>
      </trkpt>
      <trkpt lat="43.99662" lon="5.1385">
        <ele>312.6</ele>
        <time>2013-01-24T13:01:21.000Z</time>
      </trkpt>
      <trkpt lat="43.99664" lon="5.13852">
        <ele>312.4</ele>
        <time>2013-01-24T13:01:22.000Z</time>
      </trkpt>
      <trkpt lat="43.99667" lon="5.13854">
        <ele>312.2</ele>
        <time>2013-01-24T13:01:23.000Z</time>
      </trkpt>
      <trkpt lat="43.99669" lon="5.13856">
        <ele>311.7</ele>
        <time>2013-01-24T13:01:24.000Z</time>
      </trkpt>
      <trkpt lat="43.99672" lon="5.1386">
        <ele>311.4</ele>
        <time>2013-01-24T13:02:40.000Z</time>
      </trkpt>
      <trkpt lat="43.99673" lon="5.1386">
        <ele>311.4</ele>
        <time>2013-01-24T13:02:41.000Z</time>
      </trkpt>
      <trkpt lat="43.99676" lon="5.13862">
        <ele>310.9</ele>
        <time>2013-01-24T13:02:43.000Z</time>
      </trkpt>
      <trkpt lat="43.99677" lon="5.13864">
        <ele>310.3</ele>
        <time>2013-01-24T13:02:44.000Z</time>
      </trkpt>
      <trkpt lat="43.99679" lon="5.13865">
        <ele>310.3</ele>
        <time>2013-01-24T13:02:45.000Z</time>
      </trkpt>
      <trkpt lat="43.99681" lon="5.13868">
        <ele>310.3</ele>
        <time>2013-01-24T13:02:46.000Z</time>
      </trkpt>
      <trkpt lat="43.99682" lon="5.1387">
        <ele>309.9</ele>
        <time>2013-01-24T13:02:47.000Z</time>
      </trkpt>
      <trkpt lat="43.99685" lon="5.13872">
        <ele>309.4</ele>
        <time>2013-01-24T13:02:48.000Z</time>
      </trkpt>
      <trkpt lat="43.99688" lon="5.13876">
        <ele>308.8</ele>
        <time>2013-01-24T13:02:50.000Z</time>
      </trkpt>
      <trkpt lat="43.9969" lon="5.13878">
        <ele>308.1</ele>
        <time>2013-01-24T13:02:51.000Z</time>
      </trkpt>
      <trkpt lat="43.99693" lon="5.13881">
        <ele>307.5</ele>
        <time>2013-01-24T13:02:52.000Z</time>
      </trkpt>
      <trkpt lat="43.99695" lon="5.13883">
        <ele>307.4</ele>
        <time>2013-01-24T13:02:53.000Z</time>
      </trkpt>
      <trkpt lat="43.99698" lon="5.13886">
        <ele>306.6</ele>
        <time>2013-01-24T13:02:54.000Z</time>
      </trkpt>
      <trkpt lat="43.99701" lon="5.13888">
        <ele>306.3</ele>
        <time>2013-01-24T13:02:55.000Z</time>
      </trkpt>
      <trkpt lat="43.99704" lon="5.13889">
        <ele>305.8</ele>
        <time>2013-01-24T13:02:56.000Z</time>
      </trkpt>
      <trkpt lat="43.99707" lon="5.13891">
        <ele>305.3</ele>
        <time>2013-01-24T13:02:57.000Z</time>
      </trkpt>
      <trkpt lat="43.9971" lon="5.13892">
        <ele>305.2</ele>
        <time>2013-01-24T13:02:58.000Z</time>
      </trkpt>
      <trkpt lat="43.99713" lon="5.13893">
        <ele>305.4</ele>
        <time>2013-01-24T13:02:59.000Z</time>
      </trkpt>
      <trkpt lat="43.99715" lon="5.13894">
        <ele>305.1</ele>
        <time>2013-01-24T13:03:00.000Z</time>
      </trkpt>
      <trkpt lat="43.99718" lon="5.13895">
        <ele>305</ele>
        <time>2013-01-24T13:03:01.000Z</time>
      </trkpt>
      <trkpt lat="43.9972" lon="5.13895">
        <ele>304.7</ele>
        <time>2013-01-24T13:03:02.000Z</time>
      </trkpt>
      <trkpt lat="43.99723" lon="5.13897">
        <ele>304.2</ele>
        <time>2013-01-24T13:03:03.000Z</time>
      </trkpt>
      <trkpt lat="43.99725" lon="5.13899">
        <ele>304</ele>
        <time>2013-01-24T13:03:04.000Z</time>
      </trkpt>
      <trkpt lat="43.99728" lon="5.139">
        <ele>303.9</ele>
        <time>2013-01-24T13:03:05.000Z</time>
      </trkpt>
      <trkpt lat="43.99731" lon="5.13902">
        <ele>303.4</ele>
        <time>2013-01-24T13:03:06.000Z</time>
      </trkpt>
      <trkpt lat="43.99734" lon="5.13903">
        <ele>303</ele>
        <time>2013-01-24T13:03:07.000Z</time>
      </trkpt>
      <trkpt lat="43.99737" lon="5.13905">
        <ele>302.8</ele>
        <time>2013-01-24T13:03:08.000Z</time>
      </trkpt>
      <trkpt lat="43.99739" lon="5.13906">
        <ele>302.2</ele>
        <time>2013-01-24T13:03:09.000Z</time>
      </trkpt>
      <trkpt lat="43.99741" lon="5.13908">
        <ele>301.7</ele>
        <time>2013-01-24T13:03:10.000Z</time>
      </trkpt>
      <trkpt lat="43.99744" lon="5.1391">
        <ele>301</ele>
        <time>2013-01-24T13:03:11.000Z</time>
      </trkpt>
      <trkpt lat="43.99746" lon="5.13911">
        <ele>300.4</ele>
        <time>2013-01-24T13:03:12.000Z</time>
      </trkpt>
      <trkpt lat="43.99749" lon="5.13912">
        <ele>300.1</ele>
        <time>2013-01-24T13:03:13.000Z</time>
      </trkpt>
      <trkpt lat="43.99752" lon="5.13913">
        <ele>299.7</ele>
        <time>2013-01-24T13:03:14.000Z</time>
      </trkpt>
      <trkpt lat="43.99755" lon="5.13914">
        <ele>299.2</ele>
        <time>2013-01-24T13:03:15.000Z</time>
      </trkpt>
      <trkpt lat="43.99757" lon="5.13915">
        <ele>298.9</ele>
        <time>2013-01-24T13:03:16.000Z</time>
      </trkpt>
      <trkpt lat="43.99759" lon="5.13916">
        <ele>298.5</ele>
        <time>2013-01-24T13:03:17.000Z</time>
      </trkpt>
      <trkpt lat="43.99763" lon="5.13917">
        <ele>297.8</ele>
        <time>2013-01-24T13:03:19.000Z</time>
      </trkpt>
      <trkpt lat="43.99765" lon="5.13916">
        <ele>297.4</ele>
        <time>2013-01-24T13:03:20.000Z</time>
      </trkpt>
      <trkpt lat="43.99769" lon="5.13917">
        <ele>296.7</ele>
        <time>2013-01-24T13:03:22.000Z</time>
      </trkpt>
      <trkpt lat="43.99771" lon="5.13917">
        <ele>296.4</ele>
        <time>2013-01-24T13:03:23.000Z</time>
      </trkpt>
      <trkpt lat="43.99775" lon="5.13919">
        <ele>295.9</ele>
        <time>2013-01-24T13:03:25.000Z</time>
      </trkpt>
      <trkpt lat="43.99777" lon="5.13919">
        <ele>295.4</ele>
        <time>2013-01-24T13:03:26.000Z</time>
      </trkpt>
      <trkpt lat="43.99779" lon="5.1392">
        <ele>295</ele>
        <time>2013-01-24T13:03:27.000Z</time>
      </trkpt>
      <trkpt lat="43.99782" lon="5.13921">
        <ele>294.8</ele>
        <time>2013-01-24T13:03:28.000Z</time>
      </trkpt>
      <trkpt lat="43.99784" lon="5.13921">
        <ele>294.7</ele>
        <time>2013-01-24T13:03:29.000Z</time>
      </trkpt>
      <trkpt lat="43.99787" lon="5.13921">
        <ele>294.6</ele>
        <time>2013-01-24T13:03:30.000Z</time>
      </trkpt>
      <trkpt lat="43.99789" lon="5.13922">
        <ele>294.4</ele>
        <time>2013-01-24T13:03:31.000Z</time>
      </trkpt>
      <trkpt lat="43.99794" lon="5.13923">
        <ele>293.2</ele>
        <time>2013-01-24T13:03:32.000Z</time>
      </trkpt>
      <trkpt lat="43.99797" lon="5.13923">
        <ele>292.7</ele>
        <time>2013-01-24T13:03:33.000Z</time>
      </trkpt>
      <trkpt lat="43.998" lon="5.13923">
        <ele>292.6</ele>
        <time>2013-01-24T13:03:34.000Z</time>
      </trkpt>
      <trkpt lat="43.99803" lon="5.13923">
        <ele>292</ele>
        <time>2013-01-24T13:03:35.000Z</time>
      </trkpt>
      <trkpt lat="43.99807" lon="5.13923">
        <ele>291.8</ele>
        <time>2013-01-24T13:03:36.000Z</time>
      </trkpt>
      <trkpt lat="43.9981" lon="5.13922">
        <ele>291.6</ele>
        <time>2013-01-24T13:03:37.000Z</time>
      </trkpt>
      <trkpt lat="43.99813" lon="5.13923">
        <ele>291.6</ele>
        <time>2013-01-24T13:03:38.000Z</time>
      </trkpt>
      <trkpt lat="43.99816" lon="5.13924">
        <ele>291.4</ele>
        <time>2013-01-24T13:03:39.000Z</time>
      </trkpt>
      <trkpt lat="43.99818" lon="5.13924">
        <ele>289.4</ele>
        <time>2013-01-24T13:03:40.000Z</time>
      </trkpt>
      <trkpt lat="43.99822" lon="5.13925">
        <ele>288.8</ele>
        <time>2013-01-24T13:03:41.000Z</time>
      </trkpt>
      <trkpt lat="43.99826" lon="5.13927">
        <ele>288.7</ele>
        <time>2013-01-24T13:03:42.000Z</time>
      </trkpt>
      <trkpt lat="43.99829" lon="5.13928">
        <ele>288.1</ele>
        <time>2013-01-24T13:03:43.000Z</time>
      </trkpt>
      <trkpt lat="43.99833" lon="5.13929">
        <ele>287.7</ele>
        <time>2013-01-24T13:03:44.000Z</time>
      </trkpt>
      <trkpt lat="43.99836" lon="5.1393">
        <ele>287.2</ele>
        <time>2013-01-24T13:03:45.000Z</time>
      </trkpt>
      <trkpt lat="43.99839" lon="5.1393">
        <ele>287.1</ele>
        <time>2013-01-24T13:03:46.000Z</time>
      </trkpt>
      <trkpt lat="43.99843" lon="5.13931">
        <ele>286.5</ele>
        <time>2013-01-24T13:03:48.000Z</time>
      </trkpt>
      <trkpt lat="43.99845" lon="5.13931">
        <ele>286</ele>
        <time>2013-01-24T13:03:49.000Z</time>
      </trkpt>
      <trkpt lat="43.99849" lon="5.13931">
        <ele>285.6</ele>
        <time>2013-01-24T13:03:52.000Z</time>
      </trkpt>
      <trkpt lat="43.9985" lon="5.13931">
        <ele>285.5</ele>
        <time>2013-01-24T13:03:53.000Z</time>
      </trkpt>
      <trkpt lat="43.99854" lon="5.1393">
        <ele>285.7</ele>
        <time>2013-01-24T13:04:16.000Z</time>
      </trkpt>
      <trkpt lat="43.99854" lon="5.1393">
        <ele>285.9</ele>
        <time>2013-01-24T13:04:17.000Z</time>
      </trkpt>
      <trkpt lat="43.99858" lon="5.13929">
        <ele>286.3</ele>
        <time>2013-01-24T13:04:21.000Z</time>
      </trkpt>
      <trkpt lat="43.99859" lon="5.13928">
        <ele>286.1</ele>
        <time>2013-01-24T13:04:22.000Z</time>
      </trkpt>
      <trkpt lat="43.99863" lon="5.13927">
        <ele>287.4</ele>
        <time>2013-01-24T13:04:28.000Z</time>
      </trkpt>
      <trkpt lat="43.99864" lon="5.13926">
        <ele>287.3</ele>
        <time>2013-01-24T13:04:29.000Z</time>
      </trkpt>
      <trkpt lat="43.99867" lon="5.13923">
        <ele>287.5</ele>
        <time>2013-01-24T13:04:34.000Z</time>
      </trkpt>
      <trkpt lat="43.99868" lon="5.13923">
        <ele>287.9</ele>
        <time>2013-01-24T13:04:35.000Z</time>
      </trkpt>
      <trkpt lat="43.9987" lon="5.13919">
        <ele>288.5</ele>
        <time>2013-01-24T13:04:42.000Z</time>
      </trkpt>
      <trkpt lat="43.9987" lon="5.13917">
        <ele>288.4</ele>
        <time>2013-01-24T13:04:43.000Z</time>
      </trkpt>
      <trkpt lat="43.99873" lon="5.13914">
        <ele>290.3</ele>
        <time>2013-01-24T13:04:47.000Z</time>
      </trkpt>
      <trkpt lat="43.99874" lon="5.13913">
        <ele>290.7</ele>
        <time>2013-01-24T13:04:48.000Z</time>
      </trkpt>
      <trkpt lat="43.99877" lon="5.1391">
        <ele>290.1</ele>
        <time>2013-01-24T13:04:54.000Z</time>
      </trkpt>
      <trkpt lat="43.99878" lon="5.13908">
        <ele>289.9</ele>
        <time>2013-01-24T13:04:55.000Z</time>
      </trkpt>
      <trkpt lat="43.99881" lon="5.13904">
        <ele>291</ele>
        <time>2013-01-24T13:05:00.000Z</time>
      </trkpt>
      <trkpt lat="43.99881" lon="5.13904">
        <ele>291.3</ele>
        <time>2013-01-24T13:05:01.000Z</time>
      </trkpt>
      <trkpt lat="43.99883" lon="5.13899">
        <ele>290.4</ele>
        <time>2013-01-24T13:05:06.000Z</time>
      </trkpt>
      <trkpt lat="43.99884" lon="5.13898">
        <ele>290.2</ele>
        <time>2013-01-24T13:05:07.000Z</time>
      </trkpt>
      <trkpt lat="43.99886" lon="5.13893">
        <ele>290.6</ele>
        <time>2013-01-24T13:05:10.000Z</time>
      </trkpt>
      <trkpt lat="43.99886" lon="5.13892">
        <ele>290.7</ele>
        <time>2013-01-24T13:05:11.000Z</time>
      </trkpt>
      <trkpt lat="43.99889" lon="5.13888">
        <ele>291.3</ele>
        <time>2013-01-24T13:05:14.000Z</time>
      </trkpt>
      <trkpt lat="43.99889" lon="5.13887">
        <ele>291.2</ele>
        <time>2013-01-24T13:05:15.000Z</time>
      </trkpt>
      <trkpt lat="43.99892" lon="5.13886">
        <ele>291</ele>
        <time>2013-01-24T13:05:23.000Z</time>
      </trkpt>
      <trkpt lat="43.99893" lon="5.13882">
        <ele>291.3</ele>
        <time>2013-01-24T13:05:24.000Z</time>
      </trkpt>
      <trkpt lat="43.99894" lon="5.13876">
        <ele>291.7</ele>
        <time>2013-01-24T13:05:27.000Z</time>
      </trkpt>
      <trkpt lat="43.99894" lon="5.13875">
        <ele>291.3</ele>
        <time>2013-01-24T13:05:28.000Z</time>
      </trkpt>
      <trkpt lat="43.99897" lon="5.13871">
        <ele>292</ele>
        <time>2013-01-24T13:05:36.000Z</time>
      </trkpt>
      <trkpt lat="43.99897" lon="5.13869">
        <ele>292.1</ele>
        <time>2013-01-24T13:05:37.000Z</time>
      </trkpt>
      <trkpt lat="43.99899" lon="5.13864">
        <ele>292.1</ele>
        <time>2013-01-24T13:05:40.000Z</time>
      </trkpt>
      <trkpt lat="43.99899" lon="5.13862">
        <ele>291.9</ele>
        <time>2013-01-24T13:05:41.000Z</time>
      </trkpt>
      <trkpt lat="43.99901" lon="5.13858">
        <ele>291.8</ele>
        <time>2013-01-24T13:05:44.000Z</time>
      </trkpt>
      <trkpt lat="43.99902" lon="5.13857">
        <ele>291.7</ele>
        <time>2013-01-24T13:05:45.000Z</time>
      </trkpt>
      <trkpt lat="43.99904" lon="5.13853">
        <ele>291.8</ele>
        <time>2013-01-24T13:05:50.000Z</time>
      </trkpt>
      <trkpt lat="43.99905" lon="5.13852">
        <ele>291.9</ele>
        <time>2013-01-24T13:05:51.000Z</time>
      </trkpt>
      <trkpt lat="43.99906" lon="5.13851">
        <ele>292.2</ele>
        <time>2013-01-24T13:05:52.000Z</time>
      </trkpt>
      <trkpt lat="43.99909" lon="5.13848">
        <ele>291.9</ele>
        <time>2013-01-24T13:05:53.000Z</time>
      </trkpt>
      <trkpt lat="43.99912" lon="5.13845">
        <ele>292.4</ele>
        <time>2013-01-24T13:05:55.000Z</time>
      </trkpt>
      <trkpt lat="43.99914" lon="5.13845">
        <ele>292</ele>
        <time>2013-01-24T13:05:56.000Z</time>
      </trkpt>
      <trkpt lat="43.99918" lon="5.13844">
        <ele>292.3</ele>
        <time>2013-01-24T13:05:58.000Z</time>
      </trkpt>
      <trkpt lat="43.9992" lon="5.13844">
        <ele>292.5</ele>
        <time>2013-01-24T13:05:59.000Z</time>
      </trkpt>
      <trkpt lat="43.99923" lon="5.13842">
        <ele>293</ele>
        <time>2013-01-24T13:06:01.000Z</time>
      </trkpt>
      <trkpt lat="43.99925" lon="5.13841">
        <ele>293</ele>
        <time>2013-01-24T13:06:02.000Z</time>
      </trkpt>
      <trkpt lat="43.99929" lon="5.13839">
        <ele>292.2</ele>
        <time>2013-01-24T13:06:04.000Z</time>
      </trkpt>
      <trkpt lat="43.99931" lon="5.13836">
        <ele>292</ele>
        <time>2013-01-24T13:06:05.000Z</time>
      </trkpt>
      <trkpt lat="43.99933" lon="5.13834">
        <ele>291.5</ele>
        <time>2013-01-24T13:06:06.000Z</time>
      </trkpt>
      <trkpt lat="43.99936" lon="5.13834">
        <ele>291</ele>
        <time>2013-01-24T13:06:07.000Z</time>
      </trkpt>
      <trkpt lat="43.99939" lon="5.13832">
        <ele>291.8</ele>
        <time>2013-01-24T13:06:09.000Z</time>
      </trkpt>
      <trkpt lat="43.99942" lon="5.1383">
        <ele>291.4</ele>
        <time>2013-01-24T13:06:10.000Z</time>
      </trkpt>
      <trkpt lat="43.99946" lon="5.13829">
        <ele>292.8</ele>
        <time>2013-01-24T13:06:13.000Z</time>
      </trkpt>
      <trkpt lat="43.99948" lon="5.13828">
        <ele>292.4</ele>
        <time>2013-01-24T13:06:14.000Z</time>
      </trkpt>
      <trkpt lat="43.99949" lon="5.13823">
        <ele>292.8</ele>
        <time>2013-01-24T13:06:16.000Z</time>
      </trkpt>
      <trkpt lat="43.99949" lon="5.13821">
        <ele>293.3</ele>
        <time>2013-01-24T13:06:17.000Z</time>
      </trkpt>
      <trkpt lat="43.99952" lon="5.13816">
        <ele>293.3</ele>
        <time>2013-01-24T13:06:19.000Z</time>
      </trkpt>
      <trkpt lat="43.99953" lon="5.13815">
        <ele>293.5</ele>
        <time>2013-01-24T13:06:20.000Z</time>
      </trkpt>
      <trkpt lat="43.99956" lon="5.13811">
        <ele>295</ele>
        <time>2013-01-24T13:06:22.000Z</time>
      </trkpt>
      <trkpt lat="43.99956" lon="5.1381">
        <ele>296.8</ele>
        <time>2013-01-24T13:06:23.000Z</time>
      </trkpt>
      <trkpt lat="43.99958" lon="5.13807">
        <ele>298.6</ele>
        <time>2013-01-24T13:06:25.000Z</time>
      </trkpt>
      <trkpt lat="43.99959" lon="5.13804">
        <ele>298.9</ele>
        <time>2013-01-24T13:06:26.000Z</time>
      </trkpt>
      <trkpt lat="43.99961" lon="5.138">
        <ele>299.6</ele>
        <time>2013-01-24T13:06:28.000Z</time>
      </trkpt>
      <trkpt lat="43.99963" lon="5.13798">
        <ele>299.8</ele>
        <time>2013-01-24T13:06:29.000Z</time>
      </trkpt>
      <trkpt lat="43.99964" lon="5.13795">
        <ele>300.4</ele>
        <time>2013-01-24T13:06:30.000Z</time>
      </trkpt>
      <trkpt lat="43.99966" lon="5.13793">
        <ele>299.4</ele>
        <time>2013-01-24T13:06:31.000Z</time>
      </trkpt>
      <trkpt lat="43.99969" lon="5.13789">
        <ele>299.9</ele>
        <time>2013-01-24T13:06:33.000Z</time>
      </trkpt>
      <trkpt lat="43.99971" lon="5.13786">
        <ele>300</ele>
        <time>2013-01-24T13:06:34.000Z</time>
      </trkpt>
      <trkpt lat="43.99973" lon="5.13782">
        <ele>300.8</ele>
        <time>2013-01-24T13:06:36.000Z</time>
      </trkpt>
      <trkpt lat="43.99975" lon="5.1378">
        <ele>301.2</ele>
        <time>2013-01-24T13:06:37.000Z</time>
      </trkpt>
      <trkpt lat="43.99977" lon="5.13777">
        <ele>300.8</ele>
        <time>2013-01-24T13:06:38.000Z</time>
      </trkpt>
      <trkpt lat="43.99978" lon="5.13775">
        <ele>300.9</ele>
        <time>2013-01-24T13:06:39.000Z</time>
      </trkpt>
      <trkpt lat="43.9998" lon="5.13773">
        <ele>301</ele>
        <time>2013-01-24T13:06:40.000Z</time>
      </trkpt>
      <trkpt lat="43.99982" lon="5.1377">
        <ele>300.6</ele>
        <time>2013-01-24T13:06:41.000Z</time>
      </trkpt>
      <trkpt lat="43.99984" lon="5.13768">
        <ele>300.3</ele>
        <time>2013-01-24T13:06:42.000Z</time>
      </trkpt>
      <trkpt lat="43.99985" lon="5.13766">
        <ele>300.9</ele>
        <time>2013-01-24T13:06:43.000Z</time>
      </trkpt>
      <trkpt lat="43.99987" lon="5.13763">
        <ele>300.9</ele>
        <time>2013-01-24T13:06:44.000Z</time>
      </trkpt>
      <trkpt lat="43.99989" lon="5.13761">
        <ele>301.1</ele>
        <time>2013-01-24T13:06:45.000Z</time>
      </trkpt>
      <trkpt lat="43.99991" lon="5.13759">
        <ele>301.1</ele>
        <time>2013-01-24T13:06:46.000Z</time>
      </trkpt>
      <trkpt lat="43.99994" lon="5.13757">
        <ele>300.7</ele>
        <time>2013-01-24T13:06:47.000Z</time>
      </trkpt>
      <trkpt lat="43.99996" lon="5.13754">
        <ele>299.6</ele>
        <time>2013-01-24T13:06:48.000Z</time>
      </trkpt>
      <trkpt lat="43.99998" lon="5.13752">
        <ele>299.6</ele>
        <time>2013-01-24T13:06:49.000Z</time>
      </trkpt>
      <trkpt lat="44" lon="5.13748">
        <ele>299.6</ele>
        <time>2013-01-24T13:06:50.000Z</time>
      </trkpt>
      <trkpt lat="44.00001" lon="5.13745">
        <ele>298.8</ele>
        <time>2013-01-24T13:06:51.000Z</time>
      </trkpt>
      <trkpt lat="44.00003" lon="5.13742">
        <ele>299.5</ele>
        <time>2013-01-24T13:06:52.000Z</time>
      </trkpt>
      <trkpt lat="44.00005" lon="5.1374">
        <ele>300.1</ele>
        <time>2013-01-24T13:06:53.000Z</time>
      </trkpt>
      <trkpt lat="44.00007" lon="5.13738">
        <ele>300.7</ele>
        <time>2013-01-24T13:06:54.000Z</time>
      </trkpt>
      <trkpt lat="44.0001" lon="5.13735">
        <ele>302.1</ele>
        <time>2013-01-24T13:06:55.000Z</time>
      </trkpt>
      <trkpt lat="44.00012" lon="5.13733">
        <ele>302.8</ele>
        <time>2013-01-24T13:06:56.000Z</time>
      </trkpt>
      <trkpt lat="44.00014" lon="5.13731">
        <ele>303.1</ele>
        <time>2013-01-24T13:06:57.000Z</time>
      </trkpt>
      <trkpt lat="44.00016" lon="5.13728">
        <ele>303.3</ele>
        <time>2013-01-24T13:06:58.000Z</time>
      </trkpt>
      <trkpt lat="44.00018" lon="5.13724">
        <ele>302.9</ele>
        <time>2013-01-24T13:06:59.000Z</time>
      </trkpt>
      <trkpt lat="44.00009" lon="5.1372">
        <ele>303.6</ele>
        <time>2013-01-24T13:07:00.000Z</time>
      </trkpt>
      <trkpt lat="44.00006" lon="5.13715">
        <ele>303.1</ele>
        <time>2013-01-24T13:07:03.000Z</time>
      </trkpt>
      <trkpt lat="44.00004" lon="5.13713">
        <ele>304</ele>
        <time>2013-01-24T13:07:04.000Z</time>
      </trkpt>
      <trkpt lat="44.00001" lon="5.13709">
        <ele>304.5</ele>
        <time>2013-01-24T13:07:06.000Z</time>
      </trkpt>
      <trkpt lat="44.00002" lon="5.13706">
        <ele>304.9</ele>
        <time>2013-01-24T13:07:07.000Z</time>
      </trkpt>
      <trkpt lat="44.00001" lon="5.13701">
        <ele>304.8</ele>
        <time>2013-01-24T13:07:09.000Z</time>
      </trkpt>
      <trkpt lat="44" lon="5.13699">
        <ele>304.9</ele>
        <time>2013-01-24T13:07:10.000Z</time>
      </trkpt>
      <trkpt lat="43.99998" lon="5.13693">
        <ele>304.2</ele>
        <time>2013-01-24T13:07:13.000Z</time>
      </trkpt>
      <trkpt lat="43.99996" lon="5.13692">
        <ele>304.1</ele>
        <time>2013-01-24T13:07:14.000Z</time>
      </trkpt>
      <trkpt lat="43.99994" lon="5.13687">
        <ele>303.5</ele>
        <time>2013-01-24T13:07:17.000Z</time>
      </trkpt>
      <trkpt lat="43.99992" lon="5.13687">
        <ele>303.8</ele>
        <time>2013-01-24T13:07:18.000Z</time>
      </trkpt>
      <trkpt lat="43.99989" lon="5.13686">
        <ele>303.6</ele>
        <time>2013-01-24T13:07:20.000Z</time>
      </trkpt>
      <trkpt lat="43.99987" lon="5.13686">
        <ele>303.5</ele>
        <time>2013-01-24T13:07:21.000Z</time>
      </trkpt>
      <trkpt lat="43.99985" lon="5.13681">
        <ele>304</ele>
        <time>2013-01-24T13:07:23.000Z</time>
      </trkpt>
      <trkpt lat="43.99984" lon="5.1368">
        <ele>304.4</ele>
        <time>2013-01-24T13:07:24.000Z</time>
      </trkpt>
      <trkpt lat="43.9998" lon="5.13679">
        <ele>305.1</ele>
        <time>2013-01-24T13:07:27.000Z</time>
      </trkpt>
      <trkpt lat="43.99979" lon="5.13679">
        <ele>305</ele>
        <time>2013-01-24T13:07:28.000Z</time>
      </trkpt>
      <trkpt lat="43.99975" lon="5.13679">
        <ele>305</ele>
        <time>2013-01-24T13:07:30.000Z</time>
      </trkpt>
      <trkpt lat="43.99973" lon="5.13679">
        <ele>305.1</ele>
        <time>2013-01-24T13:07:31.000Z</time>
      </trkpt>
      <trkpt lat="43.99969" lon="5.13679">
        <ele>306.6</ele>
        <time>2013-01-24T13:07:33.000Z</time>
      </trkpt>
      <trkpt lat="43.99968" lon="5.13678">
        <ele>306.7</ele>
        <time>2013-01-24T13:07:34.000Z</time>
      </trkpt>
      <trkpt lat="43.99964" lon="5.13677">
        <ele>306.5</ele>
        <time>2013-01-24T13:07:36.000Z</time>
      </trkpt>
      <trkpt lat="43.99963" lon="5.13676">
        <ele>306.9</ele>
        <time>2013-01-24T13:07:37.000Z</time>
      </trkpt>
      <trkpt lat="43.9996" lon="5.13674">
        <ele>307.2</ele>
        <time>2013-01-24T13:07:39.000Z</time>
      </trkpt>
      <trkpt lat="43.99958" lon="5.13673">
        <ele>307.3</ele>
        <time>2013-01-24T13:07:40.000Z</time>
      </trkpt>
      <trkpt lat="43.99955" lon="5.13672">
        <ele>307</ele>
        <time>2013-01-24T13:07:42.000Z</time>
      </trkpt>
      <trkpt lat="43.99953" lon="5.13671">
        <ele>306.8</ele>
        <time>2013-01-24T13:07:43.000Z</time>
      </trkpt>
      <trkpt lat="43.99949" lon="5.13671">
        <ele>306.7</ele>
        <time>2013-01-24T13:07:45.000Z</time>
      </trkpt>
      <trkpt lat="43.99947" lon="5.13672">
        <ele>306.8</ele>
        <time>2013-01-24T13:07:46.000Z</time>
      </trkpt>
      <trkpt lat="43.99944" lon="5.13673">
        <ele>306.9</ele>
        <time>2013-01-24T13:07:48.000Z</time>
      </trkpt>
      <trkpt lat="43.99942" lon="5.13675">
        <ele>307.2</ele>
        <time>2013-01-24T13:07:49.000Z</time>
      </trkpt>
      <trkpt lat="43.99938" lon="5.13677">
        <ele>307.3</ele>
        <time>2013-01-24T13:07:51.000Z</time>
      </trkpt>
      <trkpt lat="43.99936" lon="5.13679">
        <ele>307.5</ele>
        <time>2013-01-24T13:07:52.000Z</time>
      </trkpt>
      <trkpt lat="43.99932" lon="5.13681">
        <ele>307.1</ele>
        <time>2013-01-24T13:07:54.000Z</time>
      </trkpt>
      <trkpt lat="43.9993" lon="5.13681">
        <ele>307.6</ele>
        <time>2013-01-24T13:07:55.000Z</time>
      </trkpt>
      <trkpt lat="43.99926" lon="5.13683">
        <ele>307.6</ele>
        <time>2013-01-24T13:07:57.000Z</time>
      </trkpt>
      <trkpt lat="43.99923" lon="5.13684">
        <ele>307.6</ele>
        <time>2013-01-24T13:07:58.000Z</time>
      </trkpt>
      <trkpt lat="43.99921" lon="5.13685">
        <ele>307.3</ele>
        <time>2013-01-24T13:07:59.000Z</time>
      </trkpt>
      <trkpt lat="43.99919" lon="5.13686">
        <ele>307.7</ele>
        <time>2013-01-24T13:08:00.000Z</time>
      </trkpt>
      <trkpt lat="43.99916" lon="5.13687">
        <ele>308.1</ele>
        <time>2013-01-24T13:08:01.000Z</time>
      </trkpt>
      <trkpt lat="43.99914" lon="5.13687">
        <ele>307.9</ele>
        <time>2013-01-24T13:08:02.000Z</time>
      </trkpt>
      <trkpt lat="43.99911" lon="5.13688">
        <ele>308</ele>
        <time>2013-01-24T13:08:03.000Z</time>
      </trkpt>
      <trkpt lat="43.99909" lon="5.13689">
        <ele>308.6</ele>
        <time>2013-01-24T13:08:04.000Z</time>
      </trkpt>
      <trkpt lat="43.99906" lon="5.13691">
        <ele>308.2</ele>
        <time>2013-01-24T13:08:05.000Z</time>
      </trkpt>
      <trkpt lat="43.99904" lon="5.13692">
        <ele>308.3</ele>
        <time>2013-01-24T13:08:06.000Z</time>
      </trkpt>
      <trkpt lat="43.99902" lon="5.13693">
        <ele>308.4</ele>
        <time>2013-01-24T13:08:07.000Z</time>
      </trkpt>
      <trkpt lat="43.999" lon="5.13695">
        <ele>308.3</ele>
        <time>2013-01-24T13:08:08.000Z</time>
      </trkpt>
      <trkpt lat="43.99898" lon="5.13697">
        <ele>308.5</ele>
        <time>2013-01-24T13:08:09.000Z</time>
      </trkpt>
      <trkpt lat="43.99895" lon="5.13698">
        <ele>308.8</ele>
        <time>2013-01-24T13:08:10.000Z</time>
      </trkpt>
      <trkpt lat="43.99892" lon="5.13699">
        <ele>308.7</ele>
        <time>2013-01-24T13:08:11.000Z</time>
      </trkpt>
      <trkpt lat="43.99889" lon="5.137">
        <ele>308.4</ele>
        <time>2013-01-24T13:08:12.000Z</time>
      </trkpt>
      <trkpt lat="43.99887" lon="5.13701">
        <ele>308.3</ele>
        <time>2013-01-24T13:08:13.000Z</time>
      </trkpt>
      <trkpt lat="43.99884" lon="5.13702">
        <ele>308.6</ele>
        <time>2013-01-24T13:08:14.000Z</time>
      </trkpt>
      <trkpt lat="43.99881" lon="5.13704">
        <ele>308.9</ele>
        <time>2013-01-24T13:08:15.000Z</time>
      </trkpt>
      <trkpt lat="43.99879" lon="5.13705">
        <ele>309</ele>
        <time>2013-01-24T13:08:16.000Z</time>
      </trkpt>
      <trkpt lat="43.99876" lon="5.13706">
        <ele>309.2</ele>
        <time>2013-01-24T13:08:17.000Z</time>
      </trkpt>
      <trkpt lat="43.99873" lon="5.13708">
        <ele>309</ele>
        <time>2013-01-24T13:08:18.000Z</time>
      </trkpt>
      <trkpt lat="43.9987" lon="5.13709">
        <ele>309</ele>
        <time>2013-01-24T13:08:19.000Z</time>
      </trkpt>
      <trkpt lat="43.99867" lon="5.1371">
        <ele>309.3</ele>
        <time>2013-01-24T13:08:20.000Z</time>
      </trkpt>
      <trkpt lat="43.99864" lon="5.13712">
        <ele>309.5</ele>
        <time>2013-01-24T13:08:21.000Z</time>
      </trkpt>
      <trkpt lat="43.99862" lon="5.13713">
        <ele>309.3</ele>
        <time>2013-01-24T13:08:22.000Z</time>
      </trkpt>
      <trkpt lat="43.99859" lon="5.13714">
        <ele>309.4</ele>
        <time>2013-01-24T13:08:23.000Z</time>
      </trkpt>
      <trkpt lat="43.99856" lon="5.13715">
        <ele>309.5</ele>
        <time>2013-01-24T13:08:24.000Z</time>
      </trkpt>
      <trkpt lat="43.99853" lon="5.13716">
        <ele>309.6</ele>
        <time>2013-01-24T13:08:25.000Z</time>
      </trkpt>
      <trkpt lat="43.9985" lon="5.13718">
        <ele>309.7</ele>
        <time>2013-01-24T13:08:26.000Z</time>
      </trkpt>
      <trkpt lat="43.99847" lon="5.13718">
        <ele>309.9</ele>
        <time>2013-01-24T13:08:27.000Z</time>
      </trkpt>
      <trkpt lat="43.99844" lon="5.13719">
        <ele>309.5</ele>
        <time>2013-01-24T13:08:28.000Z</time>
      </trkpt>
      <trkpt lat="43.99841" lon="5.13721">
        <ele>309.8</ele>
        <time>2013-01-24T13:08:29.000Z</time>
      </trkpt>
      <trkpt lat="43.99839" lon="5.13722">
        <ele>309.6</ele>
        <time>2013-01-24T13:08:30.000Z</time>
      </trkpt>
      <trkpt lat="43.99837" lon="5.13723">
        <ele>309.5</ele>
        <time>2013-01-24T13:08:31.000Z</time>
      </trkpt>
      <trkpt lat="43.99834" lon="5.13725">
        <ele>309.5</ele>
        <time>2013-01-24T13:08:32.000Z</time>
      </trkpt>
      <trkpt lat="43.9983" lon="5.13727">
        <ele>312.7</ele>
        <time>2013-01-24T13:08:34.000Z</time>
      </trkpt>
      <trkpt lat="43.99827" lon="5.13728">
        <ele>312.5</ele>
        <time>2013-01-24T13:08:35.000Z</time>
      </trkpt>
      <trkpt lat="43.99824" lon="5.1373">
        <ele>312.7</ele>
        <time>2013-01-24T13:08:36.000Z</time>
      </trkpt>
      <trkpt lat="43.99821" lon="5.13732">
        <ele>312.3</ele>
        <time>2013-01-24T13:08:37.000Z</time>
      </trkpt>
      <trkpt lat="43.99818" lon="5.13733">
        <ele>312.6</ele>
        <time>2013-01-24T13:08:38.000Z</time>
      </trkpt>
      <trkpt lat="43.99816" lon="5.13733">
        <ele>313.7</ele>
        <time>2013-01-24T13:08:39.000Z</time>
      </trkpt>
      <trkpt lat="43.99813" lon="5.13733">
        <ele>313.8</ele>
        <time>2013-01-24T13:08:40.000Z</time>
      </trkpt>
      <trkpt lat="43.99811" lon="5.13734">
        <ele>313.7</ele>
        <time>2013-01-24T13:08:41.000Z</time>
      </trkpt>
      <trkpt lat="43.99807" lon="5.13734">
        <ele>313.9</ele>
        <time>2013-01-24T13:08:44.000Z</time>
      </trkpt>
      <trkpt lat="43.99805" lon="5.13734">
        <ele>314</ele>
        <time>2013-01-24T13:08:45.000Z</time>
      </trkpt>
      <trkpt lat="43.99801" lon="5.13731">
        <ele>313.8</ele>
        <time>2013-01-24T13:08:47.000Z</time>
      </trkpt>
      <trkpt lat="43.998" lon="5.13729">
        <ele>313.7</ele>
        <time>2013-01-24T13:08:48.000Z</time>
      </trkpt>
      <trkpt lat="43.99798" lon="5.13724">
        <ele>313.9</ele>
        <time>2013-01-24T13:08:50.000Z</time>
      </trkpt>
      <trkpt lat="43.99797" lon="5.13722">
        <ele>314.1</ele>
        <time>2013-01-24T13:08:51.000Z</time>
      </trkpt>
      <trkpt lat="43.99795" lon="5.13717">
        <ele>314.4</ele>
        <time>2013-01-24T13:08:53.000Z</time>
      </trkpt>
      <trkpt lat="43.99794" lon="5.13716">
        <ele>314</ele>
        <time>2013-01-24T13:08:54.000Z</time>
      </trkpt>
      <trkpt lat="43.99791" lon="5.13711">
        <ele>313.8</ele>
        <time>2013-01-24T13:08:56.000Z</time>
      </trkpt>
      <trkpt lat="43.9979" lon="5.13709">
        <ele>313.5</ele>
        <time>2013-01-24T13:08:57.000Z</time>
      </trkpt>
      <trkpt lat="43.99788" lon="5.13705">
        <ele>313.2</ele>
        <time>2013-01-24T13:08:59.000Z</time>
      </trkpt>
      <trkpt lat="43.99787" lon="5.13702">
        <ele>312.8</ele>
        <time>2013-01-24T13:09:00.000Z</time>
      </trkpt>
      <trkpt lat="43.99786" lon="5.137">
        <ele>312.4</ele>
        <time>2013-01-24T13:09:01.000Z</time>
      </trkpt>
      <trkpt lat="43.99784" lon="5.13697">
        <ele>312.2</ele>
        <time>2013-01-24T13:09:02.000Z</time>
      </trkpt>
      <trkpt lat="43.99782" lon="5.13692">
        <ele>312.1</ele>
        <time>2013-01-24T13:09:05.000Z</time>
      </trkpt>
      <trkpt lat="43.99781" lon="5.13689">
        <ele>312.2</ele>
        <time>2013-01-24T13:09:06.000Z</time>
      </trkpt>
      <trkpt lat="43.9978" lon="5.13685">
        <ele>311.2</ele>
        <time>2013-01-24T13:09:08.000Z</time>
      </trkpt>
      <trkpt lat="43.99778" lon="5.13682">
        <ele>310.8</ele>
        <time>2013-01-24T13:09:09.000Z</time>
      </trkpt>
      <trkpt lat="43.99775" lon="5.13684">
        <ele>314</ele>
        <time>2013-01-24T13:09:11.000Z</time>
      </trkpt>
      <trkpt lat="43.99773" lon="5.13684">
        <ele>313</ele>
        <time>2013-01-24T13:09:12.000Z</time>
      </trkpt>
      <trkpt lat="43.9977" lon="5.13685">
        <ele>312.7</ele>
        <time>2013-01-24T13:09:14.000Z</time>
      </trkpt>
      <trkpt lat="43.99768" lon="5.13688">
        <ele>313</ele>
        <time>2013-01-24T13:09:15.000Z</time>
      </trkpt>
      <trkpt lat="43.99767" lon="5.13691">
        <ele>312.9</ele>
        <time>2013-01-24T13:09:16.000Z</time>
      </trkpt>
      <trkpt lat="43.99765" lon="5.13694">
        <ele>313</ele>
        <time>2013-01-24T13:09:17.000Z</time>
      </trkpt>
      <trkpt lat="43.99764" lon="5.13697">
        <ele>312.8</ele>
        <time>2013-01-24T13:09:18.000Z</time>
      </trkpt>
      <trkpt lat="43.99762" lon="5.13699">
        <ele>312.8</ele>
        <time>2013-01-24T13:09:19.000Z</time>
      </trkpt>
      <trkpt lat="43.99761" lon="5.13702">
        <ele>312.6</ele>
        <time>2013-01-24T13:09:20.000Z</time>
      </trkpt>
      <trkpt lat="43.99759" lon="5.13704">
        <ele>312.6</ele>
        <time>2013-01-24T13:09:21.000Z</time>
      </trkpt>
      <trkpt lat="43.99757" lon="5.13707">
        <ele>312.9</ele>
        <time>2013-01-24T13:09:22.000Z</time>
      </trkpt>
      <trkpt lat="43.99755" lon="5.13709">
        <ele>312.9</ele>
        <time>2013-01-24T13:09:23.000Z</time>
      </trkpt>
      <trkpt lat="43.99752" lon="5.13712">
        <ele>313</ele>
        <time>2013-01-24T13:09:24.000Z</time>
      </trkpt>
      <trkpt lat="43.99751" lon="5.13716">
        <ele>313</ele>
        <time>2013-01-24T13:09:25.000Z</time>
      </trkpt>
      <trkpt lat="43.9975" lon="5.13719">
        <ele>313.2</ele>
        <time>2013-01-24T13:09:26.000Z</time>
      </trkpt>
      <trkpt lat="43.99748" lon="5.13722">
        <ele>313.4</ele>
        <time>2013-01-24T13:09:27.000Z</time>
      </trkpt>
      <trkpt lat="43.99745" lon="5.13725">
        <ele>313.4</ele>
        <time>2013-01-24T13:09:28.000Z</time>
      </trkpt>
      <trkpt lat="43.99743" lon="5.13728">
        <ele>313.2</ele>
        <time>2013-01-24T13:09:29.000Z</time>
      </trkpt>
      <trkpt lat="43.99741" lon="5.13731">
        <ele>312.8</ele>
        <time>2013-01-24T13:09:30.000Z</time>
      </trkpt>
      <trkpt lat="43.9974" lon="5.13735">
        <ele>313</ele>
        <time>2013-01-24T13:09:31.000Z</time>
      </trkpt>
      <trkpt lat="43.99738" lon="5.13739">
        <ele>312.9</ele>
        <time>2013-01-24T13:09:32.000Z</time>
      </trkpt>
      <trkpt lat="43.99736" lon="5.13743">
        <ele>313</ele>
        <time>2013-01-24T13:09:33.000Z</time>
      </trkpt>
      <trkpt lat="43.99736" lon="5.13746">
        <ele>312.8</ele>
        <time>2013-01-24T13:09:34.000Z</time>
      </trkpt>
      <trkpt lat="43.99734" lon="5.13751">
        <ele>312.2</ele>
        <time>2013-01-24T13:09:35.000Z</time>
      </trkpt>
      <trkpt lat="43.99732" lon="5.13756">
        <ele>312.1</ele>
        <time>2013-01-24T13:09:36.000Z</time>
      </trkpt>
      <trkpt lat="43.99731" lon="5.13761">
        <ele>313</ele>
        <time>2013-01-24T13:09:37.000Z</time>
      </trkpt>
      <trkpt lat="43.9973" lon="5.13765">
        <ele>312.8</ele>
        <time>2013-01-24T13:09:38.000Z</time>
      </trkpt>
      <trkpt lat="43.99729" lon="5.13771">
        <ele>312.6</ele>
        <time>2013-01-24T13:09:39.000Z</time>
      </trkpt>
      <trkpt lat="43.99728" lon="5.13776">
        <ele>312.4</ele>
        <time>2013-01-24T13:09:40.000Z</time>
      </trkpt>
      <trkpt lat="43.99726" lon="5.13781">
        <ele>312.4</ele>
        <time>2013-01-24T13:09:41.000Z</time>
      </trkpt>
      <trkpt lat="43.99725" lon="5.13785">
        <ele>312.9</ele>
        <time>2013-01-24T13:09:42.000Z</time>
      </trkpt>
      <trkpt lat="43.99723" lon="5.1379">
        <ele>313.2</ele>
        <time>2013-01-24T13:09:43.000Z</time>
      </trkpt>
      <trkpt lat="43.99722" lon="5.13794">
        <ele>313.5</ele>
        <time>2013-01-24T13:09:44.000Z</time>
      </trkpt>
      <trkpt lat="43.9972" lon="5.13798">
        <ele>313.9</ele>
        <time>2013-01-24T13:09:45.000Z</time>
      </trkpt>
      <trkpt lat="43.99718" lon="5.13798">
        <ele>313.2</ele>
        <time>2013-01-24T13:09:46.000Z</time>
      </trkpt>
      <trkpt lat="43.99715" lon="5.13801">
        <ele>313.5</ele>
        <time>2013-01-24T13:09:47.000Z</time>
      </trkpt>
      <trkpt lat="43.99714" lon="5.13804">
        <ele>313.7</ele>
        <time>2013-01-24T13:09:48.000Z</time>
      </trkpt>
      <trkpt lat="43.99713" lon="5.13808">
        <ele>313.8</ele>
        <time>2013-01-24T13:09:49.000Z</time>
      </trkpt>
      <trkpt lat="43.99712" lon="5.13811">
        <ele>314</ele>
        <time>2013-01-24T13:09:50.000Z</time>
      </trkpt>
      <trkpt lat="43.99711" lon="5.13815">
        <ele>314.1</ele>
        <time>2013-01-24T13:09:51.000Z</time>
      </trkpt>
      <trkpt lat="43.9971" lon="5.13818">
        <ele>314.3</ele>
        <time>2013-01-24T13:09:52.000Z</time>
      </trkpt>
      <trkpt lat="43.99709" lon="5.13821">
        <ele>314.9</ele>
        <time>2013-01-24T13:09:53.000Z</time>
      </trkpt>
      <trkpt lat="43.99708" lon="5.13824">
        <ele>315.2</ele>
        <time>2013-01-24T13:09:54.000Z</time>
      </trkpt>
      <trkpt lat="43.99706" lon="5.13828">
        <ele>315.4</ele>
        <time>2013-01-24T13:09:55.000Z</time>
      </trkpt>
      <trkpt lat="43.99706" lon="5.1383">
        <ele>315.5</ele>
        <time>2013-01-24T13:09:56.000Z</time>
      </trkpt>
      <trkpt lat="43.99706" lon="5.13836">
        <ele>316</ele>
        <time>2013-01-24T13:09:58.000Z</time>
      </trkpt>
      <trkpt lat="43.99705" lon="5.1384">
        <ele>315.7</ele>
        <time>2013-01-24T13:09:59.000Z</time>
      </trkpt>
      <trkpt lat="43.99702" lon="5.13842">
        <ele>315.8</ele>
        <time>2013-01-24T13:10:01.000Z</time>
      </trkpt>
      <trkpt lat="43.99701" lon="5.13843">
        <ele>316</ele>
        <time>2013-01-24T13:10:02.000Z</time>
      </trkpt>
      <trkpt lat="43.99699" lon="5.13848">
        <ele>315.4</ele>
        <time>2013-01-24T13:10:07.000Z</time>
      </trkpt>
      <trkpt lat="43.99698" lon="5.13848">
        <ele>315.5</ele>
        <time>2013-01-24T13:10:08.000Z</time>
      </trkpt>
      <trkpt lat="43.99696" lon="5.13851">
        <ele>315.9</ele>
        <time>2013-01-24T13:10:11.000Z</time>
      </trkpt>
      <trkpt lat="43.99694" lon="5.13853">
        <ele>316.4</ele>
        <time>2013-01-24T13:10:12.000Z</time>
      </trkpt>
      <trkpt lat="43.99691" lon="5.13853">
        <ele>316.2</ele>
        <time>2013-01-24T13:10:15.000Z</time>
      </trkpt>
      <trkpt lat="43.9969" lon="5.13852">
        <ele>316.3</ele>
        <time>2013-01-24T13:10:16.000Z</time>
      </trkpt>
      <trkpt lat="43.99687" lon="5.13849">
        <ele>316.3</ele>
        <time>2013-01-24T13:10:18.000Z</time>
      </trkpt>
      <trkpt lat="43.99687" lon="5.13847">
        <ele>316.8</ele>
        <time>2013-01-24T13:10:19.000Z</time>
      </trkpt>
      <trkpt lat="43.99683" lon="5.13843">
        <ele>317.2</ele>
        <time>2013-01-24T13:10:22.000Z</time>
      </trkpt>
      <trkpt lat="43.99682" lon="5.13842">
        <ele>317.4</ele>
        <time>2013-01-24T13:10:23.000Z</time>
      </trkpt>
      <trkpt lat="43.99679" lon="5.13839">
        <ele>317.5</ele>
        <time>2013-01-24T13:10:25.000Z</time>
      </trkpt>
      <trkpt lat="43.99678" lon="5.13838">
        <ele>317.6</ele>
        <time>2013-01-24T13:10:26.000Z</time>
      </trkpt>
      <trkpt lat="43.99675" lon="5.13835">
        <ele>317.8</ele>
        <time>2013-01-24T13:10:28.000Z</time>
      </trkpt>
      <trkpt lat="43.99673" lon="5.13834">
        <ele>318</ele>
        <time>2013-01-24T13:10:29.000Z</time>
      </trkpt>
      <trkpt lat="43.99669" lon="5.13832">
        <ele>318.2</ele>
        <time>2013-01-24T13:10:32.000Z</time>
      </trkpt>
      <trkpt lat="43.99668" lon="5.13831">
        <ele>318.3</ele>
        <time>2013-01-24T13:10:33.000Z</time>
      </trkpt>
      <trkpt lat="43.99665" lon="5.13827">
        <ele>318.6</ele>
        <time>2013-01-24T13:10:53.000Z</time>
      </trkpt>
      <trkpt lat="43.99665" lon="5.13824">
        <ele>318.7</ele>
        <time>2013-01-24T13:10:54.000Z</time>
      </trkpt>
      <trkpt lat="43.99665" lon="5.13819">
        <ele>318.5</ele>
        <time>2013-01-24T13:10:56.000Z</time>
      </trkpt>
      <trkpt lat="43.99665" lon="5.13815">
        <ele>318.4</ele>
        <time>2013-01-24T13:10:57.000Z</time>
      </trkpt>
      <trkpt lat="43.99666" lon="5.1381">
        <ele>318.3</ele>
        <time>2013-01-24T13:10:59.000Z</time>
      </trkpt>
      <trkpt lat="43.99665" lon="5.13807">
        <ele>318.6</ele>
        <time>2013-01-24T13:11:00.000Z</time>
      </trkpt>
      <trkpt lat="43.99664" lon="5.13803">
        <ele>318.6</ele>
        <time>2013-01-24T13:11:01.000Z</time>
      </trkpt>
      <trkpt lat="43.99664" lon="5.138">
        <ele>319</ele>
        <time>2013-01-24T13:11:02.000Z</time>
      </trkpt>
      <trkpt lat="43.99662" lon="5.13795">
        <ele>319.3</ele>
        <time>2013-01-24T13:11:04.000Z</time>
      </trkpt>
      <trkpt lat="43.9966" lon="5.13793">
        <ele>319</ele>
        <time>2013-01-24T13:11:05.000Z</time>
      </trkpt>
      <trkpt lat="43.99658" lon="5.13791">
        <ele>319.1</ele>
        <time>2013-01-24T13:11:06.000Z</time>
      </trkpt>
      <trkpt lat="43.99657" lon="5.13788">
        <ele>318.9</ele>
        <time>2013-01-24T13:11:07.000Z</time>
      </trkpt>
      <trkpt lat="43.99655" lon="5.13785">
        <ele>318.8</ele>
        <time>2013-01-24T13:11:08.000Z</time>
      </trkpt>
      <trkpt lat="43.99654" lon="5.13782">
        <ele>318.9</ele>
        <time>2013-01-24T13:11:09.000Z</time>
      </trkpt>
      <trkpt lat="43.99653" lon="5.13779">
        <ele>318.9</ele>
        <time>2013-01-24T13:11:10.000Z</time>
      </trkpt>
      <trkpt lat="43.99651" lon="5.13776">
        <ele>318.8</ele>
        <time>2013-01-24T13:11:11.000Z</time>
      </trkpt>
      <trkpt lat="43.9965" lon="5.13773">
        <ele>318.8</ele>
        <time>2013-01-24T13:11:12.000Z</time>
      </trkpt>
      <trkpt lat="43.99648" lon="5.13771">
        <ele>318.2</ele>
        <time>2013-01-24T13:11:13.000Z</time>
      </trkpt>
      <trkpt lat="43.99646" lon="5.13768">
        <ele>318.1</ele>
        <time>2013-01-24T13:11:14.000Z</time>
      </trkpt>
      <trkpt lat="43.99644" lon="5.13765">
        <ele>318.6</ele>
        <time>2013-01-24T13:11:15.000Z</time>
      </trkpt>
      <trkpt lat="43.99643" lon="5.13763">
        <ele>318.7</ele>
        <time>2013-01-24T13:11:16.000Z</time>
      </trkpt>
      <trkpt lat="43.99641" lon="5.1376">
        <ele>318.8</ele>
        <time>2013-01-24T13:11:17.000Z</time>
      </trkpt>
      <trkpt lat="43.99639" lon="5.13758">
        <ele>318.5</ele>
        <time>2013-01-24T13:11:18.000Z</time>
      </trkpt>
      <trkpt lat="43.99636" lon="5.13756">
        <ele>317.9</ele>
        <time>2013-01-24T13:11:19.000Z</time>
      </trkpt>
      <trkpt lat="43.99634" lon="5.13757">
        <ele>316.4</ele>
        <time>2013-01-24T13:11:20.000Z</time>
      </trkpt>
      <trkpt lat="43.99632" lon="5.13756">
        <ele>316.3</ele>
        <time>2013-01-24T13:11:21.000Z</time>
      </trkpt>
      <trkpt lat="43.9963" lon="5.13753">
        <ele>325.1</ele>
        <time>2013-01-24T13:11:24.000Z</time>
      </trkpt>
      <trkpt lat="43.99628" lon="5.13751">
        <ele>322.9</ele>
        <time>2013-01-24T13:11:25.000Z</time>
      </trkpt>
      <trkpt lat="43.99624" lon="5.1375">
        <ele>321.9</ele>
        <time>2013-01-24T13:11:27.000Z</time>
      </trkpt>
      <trkpt lat="43.99621" lon="5.13749">
        <ele>321.9</ele>
        <time>2013-01-24T13:11:28.000Z</time>
      </trkpt>
      <trkpt lat="43.99617" lon="5.13748">
        <ele>322.7</ele>
        <time>2013-01-24T13:11:30.000Z</time>
      </trkpt>
      <trkpt lat="43.99615" lon="5.13748">
        <ele>322.8</ele>
        <time>2013-01-24T13:11:31.000Z</time>
      </trkpt>
      <trkpt lat="43.99611" lon="5.13747">
        <ele>322.9</ele>
        <time>2013-01-24T13:11:34.000Z</time>
      </trkpt>
      <trkpt lat="43.9961" lon="5.13745">
        <ele>323</ele>
        <time>2013-01-24T13:11:35.000Z</time>
      </trkpt>
      <trkpt lat="43.99606" lon="5.13743">
        <ele>323.4</ele>
        <time>2013-01-24T13:11:38.000Z</time>
      </trkpt>
      <trkpt lat="43.99605" lon="5.13743">
        <ele>323.5</ele>
        <time>2013-01-24T13:11:39.000Z</time>
      </trkpt>
      <trkpt lat="43.99603" lon="5.13747">
        <ele>322.4</ele>
        <time>2013-01-24T13:11:44.000Z</time>
      </trkpt>
      <trkpt lat="43.99602" lon="5.13749">
        <ele>322.5</ele>
        <time>2013-01-24T13:11:45.000Z</time>
      </trkpt>
      <trkpt lat="43.99601" lon="5.13752">
        <ele>322.6</ele>
        <time>2013-01-24T13:11:46.000Z</time>
      </trkpt>
      <trkpt lat="43.99599" lon="5.13757">
        <ele>320.7</ele>
        <time>2013-01-24T13:11:47.000Z</time>
      </trkpt>
      <trkpt lat="43.99597" lon="5.13759">
        <ele>320.5</ele>
        <time>2013-01-24T13:11:48.000Z</time>
      </trkpt>
      <trkpt lat="43.99596" lon="5.13762">
        <ele>320.3</ele>
        <time>2013-01-24T13:11:49.000Z</time>
      </trkpt>
      <trkpt lat="43.99594" lon="5.13764">
        <ele>320.4</ele>
        <time>2013-01-24T13:11:50.000Z</time>
      </trkpt>
      <trkpt lat="43.99591" lon="5.13769">
        <ele>320.1</ele>
        <time>2013-01-24T13:11:51.000Z</time>
      </trkpt>
      <trkpt lat="43.99587" lon="5.13767">
        <ele>321.1</ele>
        <time>2013-01-24T13:11:54.000Z</time>
      </trkpt>
      <trkpt lat="43.99586" lon="5.1376">
        <ele>334.2</ele>
        <time>2013-01-24T13:11:55.000Z</time>
      </trkpt>
      <trkpt lat="43.99582" lon="5.13759">
        <ele>333.7</ele>
        <time>2013-01-24T13:11:56.000Z</time>
      </trkpt>
      <trkpt lat="43.9958" lon="5.13757">
        <ele>332.8</ele>
        <time>2013-01-24T13:11:57.000Z</time>
      </trkpt>
      <trkpt lat="43.99579" lon="5.13754">
        <ele>332.8</ele>
        <time>2013-01-24T13:11:58.000Z</time>
      </trkpt>
      <trkpt lat="43.99577" lon="5.13749">
        <ele>335.1</ele>
        <time>2013-01-24T13:11:59.000Z</time>
      </trkpt>
      <trkpt lat="43.99575" lon="5.13751">
        <ele>333.7</ele>
        <time>2013-01-24T13:12:00.000Z</time>
      </trkpt>
      <trkpt lat="43.99573" lon="5.13751">
        <ele>333.6</ele>
        <time>2013-01-24T13:12:01.000Z</time>
      </trkpt>
      <trkpt lat="43.99571" lon="5.13749">
        <ele>334.9</ele>
        <time>2013-01-24T13:12:02.000Z</time>
      </trkpt>
      <trkpt lat="43.99568" lon="5.13746">
        <ele>335.8</ele>
        <time>2013-01-24T13:12:03.000Z</time>
      </trkpt>
      <trkpt lat="43.99564" lon="5.13745">
        <ele>336.5</ele>
        <time>2013-01-24T13:12:04.000Z</time>
      </trkpt>
      <trkpt lat="43.99564" lon="5.13739">
        <ele>342.5</ele>
        <time>2013-01-24T13:12:05.000Z</time>
      </trkpt>
      <trkpt lat="43.99562" lon="5.13736">
        <ele>341</ele>
        <time>2013-01-24T13:12:09.000Z</time>
      </trkpt>
      <trkpt lat="43.9956" lon="5.13734">
        <ele>340.6</ele>
        <time>2013-01-24T13:12:10.000Z</time>
      </trkpt>
      <trkpt lat="43.99558" lon="5.13733">
        <ele>340.3</ele>
        <time>2013-01-24T13:12:11.000Z</time>
      </trkpt>
      <trkpt lat="43.99555" lon="5.1373">
        <ele>340.3</ele>
        <time>2013-01-24T13:12:12.000Z</time>
      </trkpt>
      <trkpt lat="43.99552" lon="5.13729">
        <ele>338.7</ele>
        <time>2013-01-24T13:12:13.000Z</time>
      </trkpt>
      <trkpt lat="43.9955" lon="5.13727">
        <ele>338.6</ele>
        <time>2013-01-24T13:12:14.000Z</time>
      </trkpt>
      <trkpt lat="43.99547" lon="5.13724">
        <ele>338.4</ele>
        <time>2013-01-24T13:12:16.000Z</time>
      </trkpt>
      <trkpt lat="43.99545" lon="5.13723">
        <ele>338.7</ele>
        <time>2013-01-24T13:12:17.000Z</time>
      </trkpt>
      <trkpt lat="43.9954" lon="5.13721">
        <ele>338.3</ele>
        <time>2013-01-24T13:12:19.000Z</time>
      </trkpt>
      <trkpt lat="43.99538" lon="5.13721">
        <ele>338</ele>
        <time>2013-01-24T13:12:20.000Z</time>
      </trkpt>
      <trkpt lat="43.99535" lon="5.13719">
        <ele>338.6</ele>
        <time>2013-01-24T13:12:22.000Z</time>
      </trkpt>
      <trkpt lat="43.99534" lon="5.13718">
        <ele>339.1</ele>
        <time>2013-01-24T13:12:23.000Z</time>
      </trkpt>
      <trkpt lat="43.99531" lon="5.13714">
        <ele>343.4</ele>
        <time>2013-01-24T13:12:25.000Z</time>
      </trkpt>
      <trkpt lat="43.99531" lon="5.1371">
        <ele>346</ele>
        <time>2013-01-24T13:12:26.000Z</time>
      </trkpt>
      <trkpt lat="43.9953" lon="5.13711">
        <ele>347</ele>
        <time>2013-01-24T13:12:27.000Z</time>
      </trkpt>
      <trkpt lat="43.99527" lon="5.13715">
        <ele>351.4</ele>
        <time>2013-01-24T13:12:28.000Z</time>
      </trkpt>
      <trkpt lat="43.99524" lon="5.13714">
        <ele>350.8</ele>
        <time>2013-01-24T13:12:30.000Z</time>
      </trkpt>
      <trkpt lat="43.99523" lon="5.13711">
        <ele>350.9</ele>
        <time>2013-01-24T13:12:31.000Z</time>
      </trkpt>
      <trkpt lat="43.9952" lon="5.1371">
        <ele>349.8</ele>
        <time>2013-01-24T13:12:32.000Z</time>
      </trkpt>
      <trkpt lat="43.99516" lon="5.13708">
        <ele>348.8</ele>
        <time>2013-01-24T13:12:33.000Z</time>
      </trkpt>
      <trkpt lat="43.99513" lon="5.13706">
        <ele>348.7</ele>
        <time>2013-01-24T13:12:35.000Z</time>
      </trkpt>
      <trkpt lat="43.9951" lon="5.13708">
        <ele>347.4</ele>
        <time>2013-01-24T13:12:36.000Z</time>
      </trkpt>
      <trkpt lat="43.99506" lon="5.13709">
        <ele>345.5</ele>
        <time>2013-01-24T13:12:37.000Z</time>
      </trkpt>
      <trkpt lat="43.99503" lon="5.1371">
        <ele>344.5</ele>
        <time>2013-01-24T13:12:38.000Z</time>
      </trkpt>
      <trkpt lat="43.995" lon="5.13711">
        <ele>343.2</ele>
        <time>2013-01-24T13:12:39.000Z</time>
      </trkpt>
      <trkpt lat="43.99498" lon="5.13711">
        <ele>342.7</ele>
        <time>2013-01-24T13:12:40.000Z</time>
      </trkpt>
      <trkpt lat="43.99494" lon="5.1371">
        <ele>340.8</ele>
        <time>2013-01-24T13:12:42.000Z</time>
      </trkpt>
      <trkpt lat="43.99492" lon="5.13709">
        <ele>340.2</ele>
        <time>2013-01-24T13:12:43.000Z</time>
      </trkpt>
      <trkpt lat="43.99488" lon="5.13707">
        <ele>339</ele>
        <time>2013-01-24T13:12:45.000Z</time>
      </trkpt>
      <trkpt lat="43.99486" lon="5.13705">
        <ele>338.8</ele>
        <time>2013-01-24T13:12:46.000Z</time>
      </trkpt>
      <trkpt lat="43.99484" lon="5.13704">
        <ele>338.5</ele>
        <time>2013-01-24T13:12:47.000Z</time>
      </trkpt>
      <trkpt lat="43.99482" lon="5.13703">
        <ele>338.2</ele>
        <time>2013-01-24T13:12:48.000Z</time>
      </trkpt>
      <trkpt lat="43.99477" lon="5.13701">
        <ele>338.1</ele>
        <time>2013-01-24T13:12:50.000Z</time>
      </trkpt>
      <trkpt lat="43.99475" lon="5.137">
        <ele>338.3</ele>
        <time>2013-01-24T13:12:51.000Z</time>
      </trkpt>
      <trkpt lat="43.99472" lon="5.13699">
        <ele>338.2</ele>
        <time>2013-01-24T13:12:52.000Z</time>
      </trkpt>
      <trkpt lat="43.9947" lon="5.13697">
        <ele>337.8</ele>
        <time>2013-01-24T13:12:53.000Z</time>
      </trkpt>
      <trkpt lat="43.99467" lon="5.13696">
        <ele>337.3</ele>
        <time>2013-01-24T13:12:54.000Z</time>
      </trkpt>
      <trkpt lat="43.99465" lon="5.13695">
        <ele>337.2</ele>
        <time>2013-01-24T13:12:55.000Z</time>
      </trkpt>
      <trkpt lat="43.99462" lon="5.13694">
        <ele>337.2</ele>
        <time>2013-01-24T13:12:56.000Z</time>
      </trkpt>
      <trkpt lat="43.99459" lon="5.13693">
        <ele>337.2</ele>
        <time>2013-01-24T13:12:57.000Z</time>
      </trkpt>
      <trkpt lat="43.99457" lon="5.13693">
        <ele>336.3</ele>
        <time>2013-01-24T13:12:58.000Z</time>
      </trkpt>
      <trkpt lat="43.99455" lon="5.13692">
        <ele>336.1</ele>
        <time>2013-01-24T13:12:59.000Z</time>
      </trkpt>
      <trkpt lat="43.99452" lon="5.13691">
        <ele>336.2</ele>
        <time>2013-01-24T13:13:00.000Z</time>
      </trkpt>
      <trkpt lat="43.99449" lon="5.13691">
        <ele>335.8</ele>
        <time>2013-01-24T13:13:01.000Z</time>
      </trkpt>
      <trkpt lat="43.99445" lon="5.1369">
        <ele>335.2</ele>
        <time>2013-01-24T13:13:03.000Z</time>
      </trkpt>
      <trkpt lat="43.99442" lon="5.13689">
        <ele>335.2</ele>
        <time>2013-01-24T13:13:04.000Z</time>
      </trkpt>
      <trkpt lat="43.9944" lon="5.13688">
        <ele>335.2</ele>
        <time>2013-01-24T13:13:05.000Z</time>
      </trkpt>
      <trkpt lat="43.99437" lon="5.13686">
        <ele>334.9</ele>
        <time>2013-01-24T13:13:06.000Z</time>
      </trkpt>
      <trkpt lat="43.99434" lon="5.13684">
        <ele>336.1</ele>
        <time>2013-01-24T13:13:07.000Z</time>
      </trkpt>
      <trkpt lat="43.99431" lon="5.13682">
        <ele>336.2</ele>
        <time>2013-01-24T13:13:08.000Z</time>
      </trkpt>
      <trkpt lat="43.99429" lon="5.13682">
        <ele>336.1</ele>
        <time>2013-01-24T13:13:09.000Z</time>
      </trkpt>
      <trkpt lat="43.99426" lon="5.13681">
        <ele>336.1</ele>
        <time>2013-01-24T13:13:10.000Z</time>
      </trkpt>
      <trkpt lat="43.99423" lon="5.1368">
        <ele>335.9</ele>
        <time>2013-01-24T13:13:11.000Z</time>
      </trkpt>
      <trkpt lat="43.99421" lon="5.13679">
        <ele>335.9</ele>
        <time>2013-01-24T13:13:12.000Z</time>
      </trkpt>
      <trkpt lat="43.99418" lon="5.13678">
        <ele>335.6</ele>
        <time>2013-01-24T13:13:13.000Z</time>
      </trkpt>
      <trkpt lat="43.99416" lon="5.13676">
        <ele>335.5</ele>
        <time>2013-01-24T13:13:14.000Z</time>
      </trkpt>
      <trkpt lat="43.99414" lon="5.13674">
        <ele>335.3</ele>
        <time>2013-01-24T13:13:15.000Z</time>
      </trkpt>
      <trkpt lat="43.99412" lon="5.13672">
        <ele>335</ele>
        <time>2013-01-24T13:13:16.000Z</time>
      </trkpt>
      <trkpt lat="43.99409" lon="5.13671">
        <ele>335</ele>
        <time>2013-01-24T13:13:17.000Z</time>
      </trkpt>
      <trkpt lat="43.99407" lon="5.13669">
        <ele>334.9</ele>
        <time>2013-01-24T13:13:18.000Z</time>
      </trkpt>
      <trkpt lat="43.99405" lon="5.13667">
        <ele>335.1</ele>
        <time>2013-01-24T13:13:19.000Z</time>
      </trkpt>
      <trkpt lat="43.99402" lon="5.13665">
        <ele>335.1</ele>
        <time>2013-01-24T13:13:20.000Z</time>
      </trkpt>
      <trkpt lat="43.99398" lon="5.13665">
        <ele>335.2</ele>
        <time>2013-01-24T13:13:22.000Z</time>
      </trkpt>
      <trkpt lat="43.99396" lon="5.13665">
        <ele>335.5</ele>
        <time>2013-01-24T13:13:23.000Z</time>
      </trkpt>
      <trkpt lat="43.99392" lon="5.13666">
        <ele>336.9</ele>
        <time>2013-01-24T13:13:25.000Z</time>
      </trkpt>
      <trkpt lat="43.99389" lon="5.13666">
        <ele>334</ele>
        <time>2013-01-24T13:13:26.000Z</time>
      </trkpt>
      <trkpt lat="43.99386" lon="5.13667">
        <ele>333.5</ele>
        <time>2013-01-24T13:13:27.000Z</time>
      </trkpt>
      <trkpt lat="43.99383" lon="5.13666">
        <ele>333.1</ele>
        <time>2013-01-24T13:13:28.000Z</time>
      </trkpt>
      <trkpt lat="43.99381" lon="5.13665">
        <ele>333.4</ele>
        <time>2013-01-24T13:13:29.000Z</time>
      </trkpt>
      <trkpt lat="43.99378" lon="5.13664">
        <ele>333.2</ele>
        <time>2013-01-24T13:13:30.000Z</time>
      </trkpt>
      <trkpt lat="43.99376" lon="5.13663">
        <ele>333.3</ele>
        <time>2013-01-24T13:13:31.000Z</time>
      </trkpt>
      <trkpt lat="43.99373" lon="5.13663">
        <ele>333.4</ele>
        <time>2013-01-24T13:13:32.000Z</time>
      </trkpt>
      <trkpt lat="43.99371" lon="5.13662">
        <ele>333.3</ele>
        <time>2013-01-24T13:13:33.000Z</time>
      </trkpt>
      <trkpt lat="43.99369" lon="5.13662">
        <ele>333.5</ele>
        <time>2013-01-24T13:13:34.000Z</time>
      </trkpt>
      <trkpt lat="43.99365" lon="5.13661">
        <ele>332.8</ele>
        <time>2013-01-24T13:15:19.000Z</time>
      </trkpt>
      <trkpt lat="43.99364" lon="5.13661">
        <ele>332.5</ele>
        <time>2013-01-24T13:15:20.000Z</time>
      </trkpt>
      <trkpt lat="43.99361" lon="5.13661">
        <ele>332.4</ele>
        <time>2013-01-24T13:15:21.000Z</time>
      </trkpt>
      <trkpt lat="43.99359" lon="5.13661">
        <ele>332.1</ele>
        <time>2013-01-24T13:15:22.000Z</time>
      </trkpt>
      <trkpt lat="43.99355" lon="5.1366">
        <ele>331.9</ele>
        <time>2013-01-24T13:15:24.000Z</time>
      </trkpt>
      <trkpt lat="43.99353" lon="5.1366">
        <ele>332.2</ele>
        <time>2013-01-24T13:15:25.000Z</time>
      </trkpt>
      <trkpt lat="43.99351" lon="5.13659">
        <ele>332.3</ele>
        <time>2013-01-24T13:15:26.000Z</time>
      </trkpt>
      <trkpt lat="43.99348" lon="5.13658">
        <ele>332.3</ele>
        <time>2013-01-24T13:15:27.000Z</time>
      </trkpt>
      <trkpt lat="43.99346" lon="5.13658">
        <ele>332</ele>
        <time>2013-01-24T13:15:28.000Z</time>
      </trkpt>
      <trkpt lat="43.99343" lon="5.13657">
        <ele>332</ele>
        <time>2013-01-24T13:15:29.000Z</time>
      </trkpt>
      <trkpt lat="43.99341" lon="5.13657">
        <ele>331.9</ele>
        <time>2013-01-24T13:15:30.000Z</time>
      </trkpt>
      <trkpt lat="43.99339" lon="5.13656">
        <ele>332</ele>
        <time>2013-01-24T13:15:31.000Z</time>
      </trkpt>
      <trkpt lat="43.99334" lon="5.13656">
        <ele>332</ele>
        <time>2013-01-24T13:15:33.000Z</time>
      </trkpt>
      <trkpt lat="43.99332" lon="5.13656">
        <ele>332.1</ele>
        <time>2013-01-24T13:15:34.000Z</time>
      </trkpt>
      <trkpt lat="43.99329" lon="5.13655">
        <ele>332.1</ele>
        <time>2013-01-24T13:15:35.000Z</time>
      </trkpt>
      <trkpt lat="43.99327" lon="5.13654">
        <ele>332.5</ele>
        <time>2013-01-24T13:15:36.000Z</time>
      </trkpt>
      <trkpt lat="43.99325" lon="5.13654">
        <ele>332.5</ele>
        <time>2013-01-24T13:15:37.000Z</time>
      </trkpt>
      <trkpt lat="43.99322" lon="5.13654">
        <ele>332.6</ele>
        <time>2013-01-24T13:15:38.000Z</time>
      </trkpt>
      <trkpt lat="43.9932" lon="5.13653">
        <ele>332.9</ele>
        <time>2013-01-24T13:15:39.000Z</time>
      </trkpt>
      <trkpt lat="43.99318" lon="5.13653">
        <ele>333.2</ele>
        <time>2013-01-24T13:15:40.000Z</time>
      </trkpt>
      <trkpt lat="43.99314" lon="5.13651">
        <ele>333.4</ele>
        <time>2013-01-24T13:15:42.000Z</time>
      </trkpt>
      <trkpt lat="43.99312" lon="5.13651">
        <ele>333.4</ele>
        <time>2013-01-24T13:15:43.000Z</time>
      </trkpt>
      <trkpt lat="43.99309" lon="5.13651">
        <ele>333.5</ele>
        <time>2013-01-24T13:15:44.000Z</time>
      </trkpt>
      <trkpt lat="43.99307" lon="5.1365">
        <ele>333.6</ele>
        <time>2013-01-24T13:15:45.000Z</time>
      </trkpt>
      <trkpt lat="43.99305" lon="5.1365">
        <ele>333.6</ele>
        <time>2013-01-24T13:15:46.000Z</time>
      </trkpt>
      <trkpt lat="43.99302" lon="5.1365">
        <ele>333.8</ele>
        <time>2013-01-24T13:15:47.000Z</time>
      </trkpt>
      <trkpt lat="43.993" lon="5.1365">
        <ele>334.2</ele>
        <time>2013-01-24T13:15:48.000Z</time>
      </trkpt>
      <trkpt lat="43.99297" lon="5.1365">
        <ele>334</ele>
        <time>2013-01-24T13:15:49.000Z</time>
      </trkpt>
      <trkpt lat="43.99293" lon="5.13649">
        <ele>334.5</ele>
        <time>2013-01-24T13:15:51.000Z</time>
      </trkpt>
      <trkpt lat="43.99291" lon="5.13649">
        <ele>334.5</ele>
        <time>2013-01-24T13:15:52.000Z</time>
      </trkpt>
      <trkpt lat="43.99286" lon="5.13648">
        <ele>334.7</ele>
        <time>2013-01-24T13:15:54.000Z</time>
      </trkpt>
      <trkpt lat="43.99284" lon="5.13647">
        <ele>335.3</ele>
        <time>2013-01-24T13:15:55.000Z</time>
      </trkpt>
      <trkpt lat="43.99281" lon="5.13646">
        <ele>337.2</ele>
        <time>2013-01-24T13:15:57.000Z</time>
      </trkpt>
      <trkpt lat="43.9928" lon="5.13644">
        <ele>337.9</ele>
        <time>2013-01-24T13:15:58.000Z</time>
      </trkpt>
      <trkpt lat="43.99278" lon="5.13641">
        <ele>339.5</ele>
        <time>2013-01-24T13:16:00.000Z</time>
      </trkpt>
      <trkpt lat="43.99275" lon="5.13642">
        <ele>339.9</ele>
        <time>2013-01-24T13:16:01.000Z</time>
      </trkpt>
      <trkpt lat="43.99273" lon="5.13639">
        <ele>343.8</ele>
        <time>2013-01-24T13:16:02.000Z</time>
      </trkpt>
      <trkpt lat="43.9927" lon="5.13638">
        <ele>343.7</ele>
        <time>2013-01-24T13:16:03.000Z</time>
      </trkpt>
      <trkpt lat="43.99266" lon="5.13637">
        <ele>344.4</ele>
        <time>2013-01-24T13:16:05.000Z</time>
      </trkpt>
      <trkpt lat="43.99264" lon="5.13637">
        <ele>345</ele>
        <time>2013-01-24T13:16:06.000Z</time>
      </trkpt>
      <trkpt lat="43.99262" lon="5.13637">
        <ele>344</ele>
        <time>2013-01-24T13:16:07.000Z</time>
      </trkpt>
      <trkpt lat="43.99259" lon="5.13637">
        <ele>344</ele>
        <time>2013-01-24T13:16:08.000Z</time>
      </trkpt>
      <trkpt lat="43.99255" lon="5.13636">
        <ele>343.3</ele>
        <time>2013-01-24T13:16:10.000Z</time>
      </trkpt>
      <trkpt lat="43.99253" lon="5.13636">
        <ele>342.9</ele>
        <time>2013-01-24T13:16:11.000Z</time>
      </trkpt>
      <trkpt lat="43.99249" lon="5.13635">
        <ele>342.8</ele>
        <time>2013-01-24T13:16:13.000Z</time>
      </trkpt>
      <trkpt lat="43.99247" lon="5.13635">
        <ele>342.5</ele>
        <time>2013-01-24T13:16:14.000Z</time>
      </trkpt>
      <trkpt lat="43.99243" lon="5.13634">
        <ele>341.5</ele>
        <time>2013-01-24T13:16:16.000Z</time>
      </trkpt>
      <trkpt lat="43.9924" lon="5.13633">
        <ele>341.4</ele>
        <time>2013-01-24T13:16:17.000Z</time>
      </trkpt>
      <trkpt lat="43.99238" lon="5.13632">
        <ele>341.4</ele>
        <time>2013-01-24T13:16:18.000Z</time>
      </trkpt>
      <trkpt lat="43.99236" lon="5.13632">
        <ele>341.4</ele>
        <time>2013-01-24T13:16:19.000Z</time>
      </trkpt>
      <trkpt lat="43.99234" lon="5.13632">
        <ele>341.3</ele>
        <time>2013-01-24T13:16:20.000Z</time>
      </trkpt>
      <trkpt lat="43.99231" lon="5.13632">
        <ele>341.5</ele>
        <time>2013-01-24T13:16:21.000Z</time>
      </trkpt>
      <trkpt lat="43.99227" lon="5.13631">
        <ele>341.5</ele>
        <time>2013-01-24T13:16:23.000Z</time>
      </trkpt>
      <trkpt lat="43.99224" lon="5.13631">
        <ele>341.3</ele>
        <time>2013-01-24T13:16:24.000Z</time>
      </trkpt>
      <trkpt lat="43.99222" lon="5.13631">
        <ele>341.3</ele>
        <time>2013-01-24T13:16:25.000Z</time>
      </trkpt>
      <trkpt lat="43.99219" lon="5.13631">
        <ele>340.8</ele>
        <time>2013-01-24T13:16:26.000Z</time>
      </trkpt>
      <trkpt lat="43.99216" lon="5.13632">
        <ele>340.4</ele>
        <time>2013-01-24T13:16:27.000Z</time>
      </trkpt>
      <trkpt lat="43.99213" lon="5.13633">
        <ele>340.1</ele>
        <time>2013-01-24T13:16:28.000Z</time>
      </trkpt>
      <trkpt lat="43.9921" lon="5.13633">
        <ele>340.2</ele>
        <time>2013-01-24T13:16:29.000Z</time>
      </trkpt>
      <trkpt lat="43.99208" lon="5.13633">
        <ele>340.1</ele>
        <time>2013-01-24T13:16:30.000Z</time>
      </trkpt>
      <trkpt lat="43.99205" lon="5.13633">
        <ele>340.6</ele>
        <time>2013-01-24T13:16:31.000Z</time>
      </trkpt>
      <trkpt lat="43.99203" lon="5.13632">
        <ele>340.4</ele>
        <time>2013-01-24T13:16:32.000Z</time>
      </trkpt>
      <trkpt lat="43.992" lon="5.13632">
        <ele>340.5</ele>
        <time>2013-01-24T13:16:33.000Z</time>
      </trkpt>
      <trkpt lat="43.99198" lon="5.13632">
        <ele>340.4</ele>
        <time>2013-01-24T13:16:34.000Z</time>
      </trkpt>
      <trkpt lat="43.99196" lon="5.13632">
        <ele>340.4</ele>
        <time>2013-01-24T13:16:35.000Z</time>
      </trkpt>
      <trkpt lat="43.99193" lon="5.13632">
        <ele>340.9</ele>
        <time>2013-01-24T13:16:36.000Z</time>
      </trkpt>
      <trkpt lat="43.9919" lon="5.13631">
        <ele>340</ele>
        <time>2013-01-24T13:16:37.000Z</time>
      </trkpt>
      <trkpt lat="43.99188" lon="5.13631">
        <ele>340.1</ele>
        <time>2013-01-24T13:16:38.000Z</time>
      </trkpt>
      <trkpt lat="43.99185" lon="5.13631">
        <ele>339.9</ele>
        <time>2013-01-24T13:16:39.000Z</time>
      </trkpt>
      <trkpt lat="43.99183" lon="5.13632">
        <ele>339.1</ele>
        <time>2013-01-24T13:16:40.000Z</time>
      </trkpt>
      <trkpt lat="43.9918" lon="5.13632">
        <ele>338.5</ele>
        <time>2013-01-24T13:16:41.000Z</time>
      </trkpt>
      <trkpt lat="43.99177" lon="5.13633">
        <ele>338.3</ele>
        <time>2013-01-24T13:16:42.000Z</time>
      </trkpt>
      <trkpt lat="43.99174" lon="5.13633">
        <ele>338</ele>
        <time>2013-01-24T13:16:43.000Z</time>
      </trkpt>
      <trkpt lat="43.99172" lon="5.13634">
        <ele>337.9</ele>
        <time>2013-01-24T13:16:44.000Z</time>
      </trkpt>
      <trkpt lat="43.99167" lon="5.13636">
        <ele>340.2</ele>
        <time>2013-01-24T13:16:47.000Z</time>
      </trkpt>
      <trkpt lat="43.99165" lon="5.13637">
        <ele>340.5</ele>
        <time>2013-01-24T13:16:48.000Z</time>
      </trkpt>
      <trkpt lat="43.99161" lon="5.13637">
        <ele>339.9</ele>
        <time>2013-01-24T13:16:50.000Z</time>
      </trkpt>
      <trkpt lat="43.99159" lon="5.13637">
        <ele>340</ele>
        <time>2013-01-24T13:16:51.000Z</time>
      </trkpt>
      <trkpt lat="43.99155" lon="5.13637">
        <ele>339.8</ele>
        <time>2013-01-24T13:16:53.000Z</time>
      </trkpt>
      <trkpt lat="43.99153" lon="5.13637">
        <ele>339.4</ele>
        <time>2013-01-24T13:16:54.000Z</time>
      </trkpt>
      <trkpt lat="43.9915" lon="5.13637">
        <ele>339.4</ele>
        <time>2013-01-24T13:16:55.000Z</time>
      </trkpt>
      <trkpt lat="43.99148" lon="5.13637">
        <ele>339.3</ele>
        <time>2013-01-24T13:16:56.000Z</time>
      </trkpt>
      <trkpt lat="43.99143" lon="5.13636">
        <ele>339.7</ele>
        <time>2013-01-24T13:16:58.000Z</time>
      </trkpt>
      <trkpt lat="43.99141" lon="5.13635">
        <ele>339.6</ele>
        <time>2013-01-24T13:16:59.000Z</time>
      </trkpt>
      <trkpt lat="43.99137" lon="5.13633">
        <ele>339.9</ele>
        <time>2013-01-24T13:17:01.000Z</time>
      </trkpt>
      <trkpt lat="43.99135" lon="5.13632">
        <ele>340.3</ele>
        <time>2013-01-24T13:17:02.000Z</time>
      </trkpt>
      <trkpt lat="43.99132" lon="5.13632">
        <ele>340.5</ele>
        <time>2013-01-24T13:17:03.000Z</time>
      </trkpt>
      <trkpt lat="43.9913" lon="5.13632">
        <ele>340.1</ele>
        <time>2013-01-24T13:17:04.000Z</time>
      </trkpt>
      <trkpt lat="43.99126" lon="5.13634">
        <ele>340.5</ele>
        <time>2013-01-24T13:17:06.000Z</time>
      </trkpt>
      <trkpt lat="43.99124" lon="5.13635">
        <ele>340.6</ele>
        <time>2013-01-24T13:17:07.000Z</time>
      </trkpt>
      <trkpt lat="43.99121" lon="5.13637">
        <ele>340.3</ele>
        <time>2013-01-24T13:17:08.000Z</time>
      </trkpt>
      <trkpt lat="43.99119" lon="5.13639">
        <ele>340.2</ele>
        <time>2013-01-24T13:17:09.000Z</time>
      </trkpt>
      <trkpt lat="43.99117" lon="5.13641">
        <ele>340.3</ele>
        <time>2013-01-24T13:17:10.000Z</time>
      </trkpt>
      <trkpt lat="43.99115" lon="5.13643">
        <ele>340.5</ele>
        <time>2013-01-24T13:17:11.000Z</time>
      </trkpt>
      <trkpt lat="43.99113" lon="5.13646">
        <ele>340.6</ele>
        <time>2013-01-24T13:17:12.000Z</time>
      </trkpt>
      <trkpt lat="43.99111" lon="5.13648">
        <ele>340.5</ele>
        <time>2013-01-24T13:17:13.000Z</time>
      </trkpt>
      <trkpt lat="43.99108" lon="5.1365">
        <ele>340</ele>
        <time>2013-01-24T13:17:14.000Z</time>
      </trkpt>
      <trkpt lat="43.99106" lon="5.13652">
        <ele>339.8</ele>
        <time>2013-01-24T13:17:15.000Z</time>
      </trkpt>
      <trkpt lat="43.99103" lon="5.13654">
        <ele>340.1</ele>
        <time>2013-01-24T13:17:16.000Z</time>
      </trkpt>
      <trkpt lat="43.99101" lon="5.13656">
        <ele>340.1</ele>
        <time>2013-01-24T13:17:17.000Z</time>
      </trkpt>
      <trkpt lat="43.99098" lon="5.13658">
        <ele>340.5</ele>
        <time>2013-01-24T13:17:18.000Z</time>
      </trkpt>
      <trkpt lat="43.99096" lon="5.1366">
        <ele>340.7</ele>
        <time>2013-01-24T13:17:19.000Z</time>
      </trkpt>
      <trkpt lat="43.99093" lon="5.13662">
        <ele>340.8</ele>
        <time>2013-01-24T13:17:20.000Z</time>
      </trkpt>
      <trkpt lat="43.9909" lon="5.13664">
        <ele>340.9</ele>
        <time>2013-01-24T13:17:21.000Z</time>
      </trkpt>
      <trkpt lat="43.99088" lon="5.13665">
        <ele>341.5</ele>
        <time>2013-01-24T13:17:22.000Z</time>
      </trkpt>
      <trkpt lat="43.99086" lon="5.13666">
        <ele>343</ele>
        <time>2013-01-24T13:17:23.000Z</time>
      </trkpt>
      <trkpt lat="43.99082" lon="5.13668">
        <ele>345.9</ele>
        <time>2013-01-24T13:17:25.000Z</time>
      </trkpt>
      <trkpt lat="43.99078" lon="5.13671">
        <ele>342.7</ele>
        <time>2013-01-24T13:17:26.000Z</time>
      </trkpt>
      <trkpt lat="43.99076" lon="5.13673">
        <ele>343.2</ele>
        <time>2013-01-24T13:17:27.000Z</time>
      </trkpt>
      <trkpt lat="43.99074" lon="5.13675">
        <ele>343.6</ele>
        <time>2013-01-24T13:17:28.000Z</time>
      </trkpt>
      <trkpt lat="43.99071" lon="5.13676">
        <ele>343.4</ele>
        <time>2013-01-24T13:17:29.000Z</time>
      </trkpt>
      <trkpt lat="43.99069" lon="5.13678">
        <ele>342.6</ele>
        <time>2013-01-24T13:17:30.000Z</time>
      </trkpt>
      <trkpt lat="43.99067" lon="5.1368">
        <ele>343.8</ele>
        <time>2013-01-24T13:17:31.000Z</time>
      </trkpt>
      <trkpt lat="43.99065" lon="5.13682">
        <ele>344.1</ele>
        <time>2013-01-24T13:17:32.000Z</time>
      </trkpt>
      <trkpt lat="43.99062" lon="5.13683">
        <ele>344.3</ele>
        <time>2013-01-24T13:17:33.000Z</time>
      </trkpt>
      <trkpt lat="43.9906" lon="5.13685">
        <ele>344.7</ele>
        <time>2013-01-24T13:17:34.000Z</time>
      </trkpt>
      <trkpt lat="43.99058" lon="5.13687">
        <ele>345.4</ele>
        <time>2013-01-24T13:17:35.000Z</time>
      </trkpt>
      <trkpt lat="43.99056" lon="5.13688">
        <ele>345.8</ele>
        <time>2013-01-24T13:17:36.000Z</time>
      </trkpt>
      <trkpt lat="43.99054" lon="5.13689">
        <ele>346.1</ele>
        <time>2013-01-24T13:17:37.000Z</time>
      </trkpt>
      <trkpt lat="43.99052" lon="5.13691">
        <ele>346.5</ele>
        <time>2013-01-24T13:17:38.000Z</time>
      </trkpt>
      <trkpt lat="43.9905" lon="5.13692">
        <ele>346.6</ele>
        <time>2013-01-24T13:17:39.000Z</time>
      </trkpt>
      <trkpt lat="43.99047" lon="5.13693">
        <ele>346.8</ele>
        <time>2013-01-24T13:17:40.000Z</time>
      </trkpt>
      <trkpt lat="43.99045" lon="5.13695">
        <ele>346.4</ele>
        <time>2013-01-24T13:17:41.000Z</time>
      </trkpt>
      <trkpt lat="43.99043" lon="5.13697">
        <ele>346.6</ele>
        <time>2013-01-24T13:17:42.000Z</time>
      </trkpt>
      <trkpt lat="43.9904" lon="5.13699">
        <ele>346.4</ele>
        <time>2013-01-24T13:17:43.000Z</time>
      </trkpt>
      <trkpt lat="43.99038" lon="5.137">
        <ele>347.3</ele>
        <time>2013-01-24T13:17:44.000Z</time>
      </trkpt>
      <trkpt lat="43.99034" lon="5.13703">
        <ele>347.2</ele>
        <time>2013-01-24T13:17:46.000Z</time>
      </trkpt>
      <trkpt lat="43.99032" lon="5.13705">
        <ele>347.3</ele>
        <time>2013-01-24T13:17:47.000Z</time>
      </trkpt>
      <trkpt lat="43.9903" lon="5.13707">
        <ele>347</ele>
        <time>2013-01-24T13:17:48.000Z</time>
      </trkpt>
      <trkpt lat="43.99028" lon="5.1371">
        <ele>346.8</ele>
        <time>2013-01-24T13:17:49.000Z</time>
      </trkpt>
      <trkpt lat="43.99026" lon="5.13712">
        <ele>346.9</ele>
        <time>2013-01-24T13:17:50.000Z</time>
      </trkpt>
      <trkpt lat="43.99023" lon="5.13715">
        <ele>346.3</ele>
        <time>2013-01-24T13:17:51.000Z</time>
      </trkpt>
      <trkpt lat="43.99021" lon="5.13717">
        <ele>346</ele>
        <time>2013-01-24T13:17:52.000Z</time>
      </trkpt>
      <trkpt lat="43.99019" lon="5.1372">
        <ele>345.7</ele>
        <time>2013-01-24T13:17:53.000Z</time>
      </trkpt>
      <trkpt lat="43.99017" lon="5.13723">
        <ele>345.8</ele>
        <time>2013-01-24T13:17:54.000Z</time>
      </trkpt>
      <trkpt lat="43.99015" lon="5.13725">
        <ele>346.4</ele>
        <time>2013-01-24T13:17:55.000Z</time>
      </trkpt>
      <trkpt lat="43.99014" lon="5.13728">
        <ele>346.8</ele>
        <time>2013-01-24T13:17:56.000Z</time>
      </trkpt>
      <trkpt lat="43.99011" lon="5.13731">
        <ele>346.6</ele>
        <time>2013-01-24T13:17:57.000Z</time>
      </trkpt>
      <trkpt lat="43.99009" lon="5.13733">
        <ele>346.8</ele>
        <time>2013-01-24T13:17:58.000Z</time>
      </trkpt>
      <trkpt lat="43.99007" lon="5.13737">
        <ele>346.8</ele>
        <time>2013-01-24T13:17:59.000Z</time>
      </trkpt>
      <trkpt lat="43.99006" lon="5.13739">
        <ele>346.9</ele>
        <time>2013-01-24T13:18:00.000Z</time>
      </trkpt>
      <trkpt lat="43.99004" lon="5.13742">
        <ele>346.7</ele>
        <time>2013-01-24T13:18:01.000Z</time>
      </trkpt>
      <trkpt lat="43.99002" lon="5.13745">
        <ele>347</ele>
        <time>2013-01-24T13:18:02.000Z</time>
      </trkpt>
      <trkpt lat="43.99001" lon="5.13748">
        <ele>347</ele>
        <time>2013-01-24T13:18:03.000Z</time>
      </trkpt>
      <trkpt lat="43.98999" lon="5.1375">
        <ele>347</ele>
        <time>2013-01-24T13:18:04.000Z</time>
      </trkpt>
      <trkpt lat="43.98997" lon="5.13753">
        <ele>347.2</ele>
        <time>2013-01-24T13:18:05.000Z</time>
      </trkpt>
      <trkpt lat="43.98995" lon="5.13756">
        <ele>347.2</ele>
        <time>2013-01-24T13:18:06.000Z</time>
      </trkpt>
      <trkpt lat="43.98993" lon="5.13759">
        <ele>347.2</ele>
        <time>2013-01-24T13:18:07.000Z</time>
      </trkpt>
      <trkpt lat="43.98992" lon="5.13761">
        <ele>347.4</ele>
        <time>2013-01-24T13:18:08.000Z</time>
      </trkpt>
      <trkpt lat="43.9899" lon="5.13764">
        <ele>347.6</ele>
        <time>2013-01-24T13:18:09.000Z</time>
      </trkpt>
      <trkpt lat="43.98988" lon="5.13767">
        <ele>347.8</ele>
        <time>2013-01-24T13:18:10.000Z</time>
      </trkpt>
      <trkpt lat="43.98986" lon="5.13769">
        <ele>348.1</ele>
        <time>2013-01-24T13:18:11.000Z</time>
      </trkpt>
      <trkpt lat="43.98984" lon="5.13771">
        <ele>348.4</ele>
        <time>2013-01-24T13:18:12.000Z</time>
      </trkpt>
      <trkpt lat="43.98983" lon="5.13773">
        <ele>348.7</ele>
        <time>2013-01-24T13:18:13.000Z</time>
      </trkpt>
      <trkpt lat="43.9898" lon="5.13775">
        <ele>348.9</ele>
        <time>2013-01-24T13:18:14.000Z</time>
      </trkpt>
      <trkpt lat="43.98979" lon="5.13777">
        <ele>349</ele>
        <time>2013-01-24T13:18:15.000Z</time>
      </trkpt>
      <trkpt lat="43.98976" lon="5.13779">
        <ele>349.1</ele>
        <time>2013-01-24T13:18:16.000Z</time>
      </trkpt>
      <trkpt lat="43.98974" lon="5.13781">
        <ele>349.2</ele>
        <time>2013-01-24T13:18:17.000Z</time>
      </trkpt>
      <trkpt lat="43.9897" lon="5.13783">
        <ele>349.4</ele>
        <time>2013-01-24T13:18:19.000Z</time>
      </trkpt>
      <trkpt lat="43.98968" lon="5.13784">
        <ele>349.4</ele>
        <time>2013-01-24T13:18:20.000Z</time>
      </trkpt>
      <trkpt lat="43.98964" lon="5.13785">
        <ele>349.4</ele>
        <time>2013-01-24T13:18:22.000Z</time>
      </trkpt>
      <trkpt lat="43.98962" lon="5.13785">
        <ele>349.9</ele>
        <time>2013-01-24T13:18:23.000Z</time>
      </trkpt>
      <trkpt lat="43.98958" lon="5.13785">
        <ele>350.5</ele>
        <time>2013-01-24T13:18:25.000Z</time>
      </trkpt>
      <trkpt lat="43.98956" lon="5.13785">
        <ele>351.2</ele>
        <time>2013-01-24T13:18:26.000Z</time>
      </trkpt>
      <trkpt lat="43.98952" lon="5.13785">
        <ele>352.6</ele>
        <time>2013-01-24T13:18:28.000Z</time>
      </trkpt>
      <trkpt lat="43.98949" lon="5.13785">
        <ele>353</ele>
        <time>2013-01-24T13:18:29.000Z</time>
      </trkpt>
      <trkpt lat="43.98945" lon="5.13784">
        <ele>353.1</ele>
        <time>2013-01-24T13:18:31.000Z</time>
      </trkpt>
      <trkpt lat="43.98945" lon="5.13781">
        <ele>357.7</ele>
        <time>2013-01-24T13:18:32.000Z</time>
      </trkpt>
      <trkpt lat="43.98941" lon="5.13779">
        <ele>357.2</ele>
        <time>2013-01-24T13:18:33.000Z</time>
      </trkpt>
      <trkpt lat="43.98938" lon="5.13779">
        <ele>357.4</ele>
        <time>2013-01-24T13:18:34.000Z</time>
      </trkpt>
      <trkpt lat="43.98936" lon="5.13779">
        <ele>357.6</ele>
        <time>2013-01-24T13:18:35.000Z</time>
      </trkpt>
      <trkpt lat="43.98933" lon="5.13779">
        <ele>357.5</ele>
        <time>2013-01-24T13:18:36.000Z</time>
      </trkpt>
      <trkpt lat="43.98929" lon="5.13778">
        <ele>356.9</ele>
        <time>2013-01-24T13:18:38.000Z</time>
      </trkpt>
      <trkpt lat="43.98927" lon="5.13779">
        <ele>356.8</ele>
        <time>2013-01-24T13:18:39.000Z</time>
      </trkpt>
      <trkpt lat="43.98924" lon="5.13779">
        <ele>356.8</ele>
        <time>2013-01-24T13:18:40.000Z</time>
      </trkpt>
      <trkpt lat="43.98921" lon="5.13779">
        <ele>356.7</ele>
        <time>2013-01-24T13:18:41.000Z</time>
      </trkpt>
      <trkpt lat="43.98919" lon="5.13779">
        <ele>356.4</ele>
        <time>2013-01-24T13:18:42.000Z</time>
      </trkpt>
      <trkpt lat="43.98916" lon="5.1378">
        <ele>356.4</ele>
        <time>2013-01-24T13:18:43.000Z</time>
      </trkpt>
      <trkpt lat="43.98914" lon="5.13781">
        <ele>356.4</ele>
        <time>2013-01-24T13:18:44.000Z</time>
      </trkpt>
      <trkpt lat="43.98911" lon="5.13781">
        <ele>356.4</ele>
        <time>2013-01-24T13:18:45.000Z</time>
      </trkpt>
      <trkpt lat="43.98908" lon="5.13782">
        <ele>356.5</ele>
        <time>2013-01-24T13:18:46.000Z</time>
      </trkpt>
      <trkpt lat="43.98905" lon="5.13783">
        <ele>356.4</ele>
        <time>2013-01-24T13:18:47.000Z</time>
      </trkpt>
      <trkpt lat="43.98903" lon="5.13783">
        <ele>356.7</ele>
        <time>2013-01-24T13:18:48.000Z</time>
      </trkpt>
      <trkpt lat="43.98899" lon="5.13784">
        <ele>356.5</ele>
        <time>2013-01-24T13:18:49.000Z</time>
      </trkpt>
      <trkpt lat="43.98896" lon="5.13785">
        <ele>356.4</ele>
        <time>2013-01-24T13:18:50.000Z</time>
      </trkpt>
      <trkpt lat="43.98893" lon="5.13785">
        <ele>356.3</ele>
        <time>2013-01-24T13:18:51.000Z</time>
      </trkpt>
      <trkpt lat="43.9889" lon="5.13786">
        <ele>356.6</ele>
        <time>2013-01-24T13:18:52.000Z</time>
      </trkpt>
      <trkpt lat="43.98887" lon="5.13786">
        <ele>356.5</ele>
        <time>2013-01-24T13:18:53.000Z</time>
      </trkpt>
      <trkpt lat="43.98884" lon="5.13787">
        <ele>356.6</ele>
        <time>2013-01-24T13:18:54.000Z</time>
      </trkpt>
      <trkpt lat="43.98881" lon="5.13787">
        <ele>356.5</ele>
        <time>2013-01-24T13:18:55.000Z</time>
      </trkpt>
      <trkpt lat="43.98878" lon="5.13787">
        <ele>356.3</ele>
        <time>2013-01-24T13:18:56.000Z</time>
      </trkpt>
      <trkpt lat="43.98875" lon="5.13787">
        <ele>356.2</ele>
        <time>2013-01-24T13:18:57.000Z</time>
      </trkpt>
      <trkpt lat="43.98872" lon="5.13788">
        <ele>356.2</ele>
        <time>2013-01-24T13:18:58.000Z</time>
      </trkpt>
      <trkpt lat="43.98869" lon="5.13788">
        <ele>356.3</ele>
        <time>2013-01-24T13:18:59.000Z</time>
      </trkpt>
      <trkpt lat="43.98866" lon="5.13789">
        <ele>356.4</ele>
        <time>2013-01-24T13:19:00.000Z</time>
      </trkpt>
      <trkpt lat="43.98863" lon="5.13791">
        <ele>356.7</ele>
        <time>2013-01-24T13:19:01.000Z</time>
      </trkpt>
      <trkpt lat="43.98859" lon="5.13792">
        <ele>356.7</ele>
        <time>2013-01-24T13:19:02.000Z</time>
      </trkpt>
      <trkpt lat="43.98856" lon="5.13793">
        <ele>356.7</ele>
        <time>2013-01-24T13:19:03.000Z</time>
      </trkpt>
      <trkpt lat="43.98853" lon="5.13795">
        <ele>356.5</ele>
        <time>2013-01-24T13:19:04.000Z</time>
      </trkpt>
      <trkpt lat="43.98849" lon="5.13797">
        <ele>356.3</ele>
        <time>2013-01-24T13:19:05.000Z</time>
      </trkpt>
      <trkpt lat="43.98846" lon="5.13799">
        <ele>356.3</ele>
        <time>2013-01-24T13:19:06.000Z</time>
      </trkpt>
      <trkpt lat="43.98843" lon="5.138">
        <ele>356.2</ele>
        <time>2013-01-24T13:19:07.000Z</time>
      </trkpt>
      <trkpt lat="43.9884" lon="5.13802">
        <ele>356.4</ele>
        <time>2013-01-24T13:19:08.000Z</time>
      </trkpt>
      <trkpt lat="43.98836" lon="5.13804">
        <ele>356.6</ele>
        <time>2013-01-24T13:19:09.000Z</time>
      </trkpt>
      <trkpt lat="43.98833" lon="5.13805">
        <ele>356.5</ele>
        <time>2013-01-24T13:19:10.000Z</time>
      </trkpt>
      <trkpt lat="43.9883" lon="5.13807">
        <ele>356.4</ele>
        <time>2013-01-24T13:19:11.000Z</time>
      </trkpt>
      <trkpt lat="43.98826" lon="5.13809">
        <ele>356.2</ele>
        <time>2013-01-24T13:19:12.000Z</time>
      </trkpt>
      <trkpt lat="43.98823" lon="5.13811">
        <ele>356.3</ele>
        <time>2013-01-24T13:19:13.000Z</time>
      </trkpt>
      <trkpt lat="43.98821" lon="5.13812">
        <ele>356.4</ele>
        <time>2013-01-24T13:19:14.000Z</time>
      </trkpt>
      <trkpt lat="43.98818" lon="5.13814">
        <ele>356.5</ele>
        <time>2013-01-24T13:19:15.000Z</time>
      </trkpt>
      <trkpt lat="43.98814" lon="5.13816">
        <ele>356.5</ele>
        <time>2013-01-24T13:19:16.000Z</time>
      </trkpt>
      <trkpt lat="43.98811" lon="5.13819">
        <ele>356.4</ele>
        <time>2013-01-24T13:19:17.000Z</time>
      </trkpt>
      <trkpt lat="43.98808" lon="5.13821">
        <ele>356.4</ele>
        <time>2013-01-24T13:19:18.000Z</time>
      </trkpt>
      <trkpt lat="43.98805" lon="5.13824">
        <ele>356.3</ele>
        <time>2013-01-24T13:19:19.000Z</time>
      </trkpt>
      <trkpt lat="43.98802" lon="5.13826">
        <ele>356.3</ele>
        <time>2013-01-24T13:19:20.000Z</time>
      </trkpt>
      <trkpt lat="43.98799" lon="5.13829">
        <ele>356.3</ele>
        <time>2013-01-24T13:19:21.000Z</time>
      </trkpt>
      <trkpt lat="43.98796" lon="5.13831">
        <ele>356.4</ele>
        <time>2013-01-24T13:19:22.000Z</time>
      </trkpt>
      <trkpt lat="43.98793" lon="5.13834">
        <ele>356.2</ele>
        <time>2013-01-24T13:19:23.000Z</time>
      </trkpt>
      <trkpt lat="43.9879" lon="5.13836">
        <ele>355.8</ele>
        <time>2013-01-24T13:19:24.000Z</time>
      </trkpt>
      <trkpt lat="43.98787" lon="5.13839">
        <ele>356</ele>
        <time>2013-01-24T13:19:25.000Z</time>
      </trkpt>
      <trkpt lat="43.98784" lon="5.13841">
        <ele>355.8</ele>
        <time>2013-01-24T13:19:26.000Z</time>
      </trkpt>
      <trkpt lat="43.98782" lon="5.13843">
        <ele>356</ele>
        <time>2013-01-24T13:19:27.000Z</time>
      </trkpt>
      <trkpt lat="43.98779" lon="5.13846">
        <ele>355.9</ele>
        <time>2013-01-24T13:19:28.000Z</time>
      </trkpt>
      <trkpt lat="43.98776" lon="5.13848">
        <ele>356</ele>
        <time>2013-01-24T13:19:29.000Z</time>
      </trkpt>
      <trkpt lat="43.98774" lon="5.1385">
        <ele>356</ele>
        <time>2013-01-24T13:19:30.000Z</time>
      </trkpt>
      <trkpt lat="43.98771" lon="5.13853">
        <ele>356.2</ele>
        <time>2013-01-24T13:19:31.000Z</time>
      </trkpt>
      <trkpt lat="43.98768" lon="5.13855">
        <ele>356.3</ele>
        <time>2013-01-24T13:19:32.000Z</time>
      </trkpt>
      <trkpt lat="43.98765" lon="5.13857">
        <ele>356.4</ele>
        <time>2013-01-24T13:19:33.000Z</time>
      </trkpt>
      <trkpt lat="43.98763" lon="5.1386">
        <ele>356.5</ele>
        <time>2013-01-24T13:19:34.000Z</time>
      </trkpt>
      <trkpt lat="43.9876" lon="5.13862">
        <ele>356.6</ele>
        <time>2013-01-24T13:19:35.000Z</time>
      </trkpt>
      <trkpt lat="43.98757" lon="5.13864">
        <ele>356.8</ele>
        <time>2013-01-24T13:19:36.000Z</time>
      </trkpt>
      <trkpt lat="43.98755" lon="5.13866">
        <ele>356.7</ele>
        <time>2013-01-24T13:19:37.000Z</time>
      </trkpt>
      <trkpt lat="43.98752" lon="5.13868">
        <ele>356.7</ele>
        <time>2013-01-24T13:19:38.000Z</time>
      </trkpt>
      <trkpt lat="43.98749" lon="5.1387">
        <ele>356.8</ele>
        <time>2013-01-24T13:19:39.000Z</time>
      </trkpt>
      <trkpt lat="43.98746" lon="5.13872">
        <ele>356.9</ele>
        <time>2013-01-24T13:19:40.000Z</time>
      </trkpt>
      <trkpt lat="43.98743" lon="5.13873">
        <ele>356.8</ele>
        <time>2013-01-24T13:19:41.000Z</time>
      </trkpt>
      <trkpt lat="43.9874" lon="5.13875">
        <ele>357</ele>
        <time>2013-01-24T13:19:42.000Z</time>
      </trkpt>
      <trkpt lat="43.98736" lon="5.13876">
        <ele>357</ele>
        <time>2013-01-24T13:19:43.000Z</time>
      </trkpt>
      <trkpt lat="43.98733" lon="5.13878">
        <ele>357.2</ele>
        <time>2013-01-24T13:19:44.000Z</time>
      </trkpt>
      <trkpt lat="43.9873" lon="5.13879">
        <ele>357.1</ele>
        <time>2013-01-24T13:19:45.000Z</time>
      </trkpt>
      <trkpt lat="43.98727" lon="5.1388">
        <ele>357.1</ele>
        <time>2013-01-24T13:19:46.000Z</time>
      </trkpt>
      <trkpt lat="43.98724" lon="5.13881">
        <ele>357.2</ele>
        <time>2013-01-24T13:19:47.000Z</time>
      </trkpt>
      <trkpt lat="43.98721" lon="5.13882">
        <ele>357.4</ele>
        <time>2013-01-24T13:19:48.000Z</time>
      </trkpt>
      <trkpt lat="43.98718" lon="5.13883">
        <ele>357.4</ele>
        <time>2013-01-24T13:19:49.000Z</time>
      </trkpt>
      <trkpt lat="43.98715" lon="5.13883">
        <ele>357.5</ele>
        <time>2013-01-24T13:19:50.000Z</time>
      </trkpt>
      <trkpt lat="43.98712" lon="5.13884">
        <ele>357.4</ele>
        <time>2013-01-24T13:19:51.000Z</time>
      </trkpt>
      <trkpt lat="43.98709" lon="5.13885">
        <ele>357.5</ele>
        <time>2013-01-24T13:19:52.000Z</time>
      </trkpt>
      <trkpt lat="43.98706" lon="5.13887">
        <ele>357.7</ele>
        <time>2013-01-24T13:19:53.000Z</time>
      </trkpt>
      <trkpt lat="43.98703" lon="5.13888">
        <ele>357.9</ele>
        <time>2013-01-24T13:19:54.000Z</time>
      </trkpt>
      <trkpt lat="43.98699" lon="5.13889">
        <ele>358</ele>
        <time>2013-01-24T13:19:55.000Z</time>
      </trkpt>
      <trkpt lat="43.98696" lon="5.1389">
        <ele>358.1</ele>
        <time>2013-01-24T13:19:56.000Z</time>
      </trkpt>
      <trkpt lat="43.98693" lon="5.13892">
        <ele>358.1</ele>
        <time>2013-01-24T13:19:57.000Z</time>
      </trkpt>
      <trkpt lat="43.98689" lon="5.13893">
        <ele>358.2</ele>
        <time>2013-01-24T13:19:58.000Z</time>
      </trkpt>
      <trkpt lat="43.98686" lon="5.13895">
        <ele>358.1</ele>
        <time>2013-01-24T13:19:59.000Z</time>
      </trkpt>
      <trkpt lat="43.98682" lon="5.13896">
        <ele>358.2</ele>
        <time>2013-01-24T13:20:00.000Z</time>
      </trkpt>
      <trkpt lat="43.98679" lon="5.13898">
        <ele>358.1</ele>
        <time>2013-01-24T13:20:01.000Z</time>
      </trkpt>
      <trkpt lat="43.98676" lon="5.139">
        <ele>358.2</ele>
        <time>2013-01-24T13:20:02.000Z</time>
      </trkpt>
      <trkpt lat="43.98672" lon="5.13902">
        <ele>358.4</ele>
        <time>2013-01-24T13:20:03.000Z</time>
      </trkpt>
      <trkpt lat="43.98669" lon="5.13904">
        <ele>358.4</ele>
        <time>2013-01-24T13:20:04.000Z</time>
      </trkpt>
      <trkpt lat="43.98666" lon="5.13906">
        <ele>358.5</ele>
        <time>2013-01-24T13:20:05.000Z</time>
      </trkpt>
      <trkpt lat="43.98663" lon="5.13908">
        <ele>358.5</ele>
        <time>2013-01-24T13:20:06.000Z</time>
      </trkpt>
      <trkpt lat="43.98659" lon="5.13909">
        <ele>358.5</ele>
        <time>2013-01-24T13:20:07.000Z</time>
      </trkpt>
      <trkpt lat="43.98657" lon="5.1391">
        <ele>358.7</ele>
        <time>2013-01-24T13:20:08.000Z</time>
      </trkpt>
      <trkpt lat="43.98653" lon="5.13911">
        <ele>358.2</ele>
        <time>2013-01-24T13:20:09.000Z</time>
      </trkpt>
      <trkpt lat="43.98649" lon="5.13912">
        <ele>358.3</ele>
        <time>2013-01-24T13:20:10.000Z</time>
      </trkpt>
      <trkpt lat="43.98646" lon="5.13912">
        <ele>358.4</ele>
        <time>2013-01-24T13:20:11.000Z</time>
      </trkpt>
      <trkpt lat="43.98642" lon="5.13912">
        <ele>358.5</ele>
        <time>2013-01-24T13:20:12.000Z</time>
      </trkpt>
      <trkpt lat="43.98638" lon="5.13912">
        <ele>358.6</ele>
        <time>2013-01-24T13:20:13.000Z</time>
      </trkpt>
      <trkpt lat="43.98635" lon="5.13912">
        <ele>358.8</ele>
        <time>2013-01-24T13:20:14.000Z</time>
      </trkpt>
      <trkpt lat="43.98631" lon="5.13911">
        <ele>358.8</ele>
        <time>2013-01-24T13:20:15.000Z</time>
      </trkpt>
      <trkpt lat="43.98627" lon="5.13909">
        <ele>359.3</ele>
        <time>2013-01-24T13:20:16.000Z</time>
      </trkpt>
      <trkpt lat="43.98623" lon="5.13908">
        <ele>359.4</ele>
        <time>2013-01-24T13:20:17.000Z</time>
      </trkpt>
      <trkpt lat="43.9862" lon="5.13906">
        <ele>359.6</ele>
        <time>2013-01-24T13:20:18.000Z</time>
      </trkpt>
      <trkpt lat="43.98617" lon="5.13906">
        <ele>359.8</ele>
        <time>2013-01-24T13:20:19.000Z</time>
      </trkpt>
      <trkpt lat="43.98613" lon="5.13905">
        <ele>360.1</ele>
        <time>2013-01-24T13:20:20.000Z</time>
      </trkpt>
      <trkpt lat="43.9861" lon="5.13905">
        <ele>360.1</ele>
        <time>2013-01-24T13:20:21.000Z</time>
      </trkpt>
      <trkpt lat="43.98606" lon="5.13905">
        <ele>360.1</ele>
        <time>2013-01-24T13:20:22.000Z</time>
      </trkpt>
      <trkpt lat="43.98602" lon="5.13905">
        <ele>359.6</ele>
        <time>2013-01-24T13:20:23.000Z</time>
      </trkpt>
      <trkpt lat="43.98598" lon="5.13905">
        <ele>359</ele>
        <time>2013-01-24T13:20:24.000Z</time>
      </trkpt>
      <trkpt lat="43.98594" lon="5.13906">
        <ele>358.4</ele>
        <time>2013-01-24T13:20:25.000Z</time>
      </trkpt>
      <trkpt lat="43.9859" lon="5.13907">
        <ele>357.6</ele>
        <time>2013-01-24T13:20:26.000Z</time>
      </trkpt>
      <trkpt lat="43.98586" lon="5.13909">
        <ele>356.9</ele>
        <time>2013-01-24T13:20:27.000Z</time>
      </trkpt>
      <trkpt lat="43.98582" lon="5.13911">
        <ele>356.5</ele>
        <time>2013-01-24T13:20:29.000Z</time>
      </trkpt>
      <trkpt lat="43.98578" lon="5.13913">
        <ele>355.7</ele>
        <time>2013-01-24T13:20:30.000Z</time>
      </trkpt>
      <trkpt lat="43.98574" lon="5.13914">
        <ele>354.6</ele>
        <time>2013-01-24T13:20:31.000Z</time>
      </trkpt>
      <trkpt lat="43.98571" lon="5.13916">
        <ele>353.7</ele>
        <time>2013-01-24T13:20:32.000Z</time>
      </trkpt>
      <trkpt lat="43.98567" lon="5.13916">
        <ele>352.6</ele>
        <time>2013-01-24T13:20:33.000Z</time>
      </trkpt>
      <trkpt lat="43.98564" lon="5.13917">
        <ele>351.8</ele>
        <time>2013-01-24T13:20:34.000Z</time>
      </trkpt>
      <trkpt lat="43.9856" lon="5.13918">
        <ele>350.8</ele>
        <time>2013-01-24T13:20:35.000Z</time>
      </trkpt>
      <trkpt lat="43.98556" lon="5.13918">
        <ele>350.6</ele>
        <time>2013-01-24T13:20:36.000Z</time>
      </trkpt>
      <trkpt lat="43.98553" lon="5.13917">
        <ele>350.5</ele>
        <time>2013-01-24T13:20:37.000Z</time>
      </trkpt>
      <trkpt lat="43.98549" lon="5.13917">
        <ele>350.8</ele>
        <time>2013-01-24T13:20:38.000Z</time>
      </trkpt>
      <trkpt lat="43.98546" lon="5.13917">
        <ele>350.8</ele>
        <time>2013-01-24T13:20:39.000Z</time>
      </trkpt>
      <trkpt lat="43.98542" lon="5.13917">
        <ele>350.9</ele>
        <time>2013-01-24T13:20:40.000Z</time>
      </trkpt>
      <trkpt lat="43.9854" lon="5.13919">
        <ele>351.6</ele>
        <time>2013-01-24T13:20:41.000Z</time>
      </trkpt>
      <trkpt lat="43.98537" lon="5.1392">
        <ele>352.3</ele>
        <time>2013-01-24T13:20:42.000Z</time>
      </trkpt>
      <trkpt lat="43.98534" lon="5.13921">
        <ele>353.4</ele>
        <time>2013-01-24T13:20:43.000Z</time>
      </trkpt>
      <trkpt lat="43.98531" lon="5.13922">
        <ele>353.4</ele>
        <time>2013-01-24T13:20:44.000Z</time>
      </trkpt>
      <trkpt lat="43.98528" lon="5.13923">
        <ele>353.7</ele>
        <time>2013-01-24T13:20:45.000Z</time>
      </trkpt>
      <trkpt lat="43.98524" lon="5.13923">
        <ele>353.8</ele>
        <time>2013-01-24T13:20:46.000Z</time>
      </trkpt>
      <trkpt lat="43.98521" lon="5.13925">
        <ele>353.9</ele>
        <time>2013-01-24T13:20:47.000Z</time>
      </trkpt>
      <trkpt lat="43.98518" lon="5.13926">
        <ele>354.3</ele>
        <time>2013-01-24T13:20:48.000Z</time>
      </trkpt>
      <trkpt lat="43.98515" lon="5.13926">
        <ele>354.4</ele>
        <time>2013-01-24T13:20:49.000Z</time>
      </trkpt>
      <trkpt lat="43.98512" lon="5.13927">
        <ele>355</ele>
        <time>2013-01-24T13:20:50.000Z</time>
      </trkpt>
      <trkpt lat="43.98509" lon="5.13928">
        <ele>355.5</ele>
        <time>2013-01-24T13:20:51.000Z</time>
      </trkpt>
      <trkpt lat="43.98505" lon="5.13929">
        <ele>356</ele>
        <time>2013-01-24T13:20:52.000Z</time>
      </trkpt>
      <trkpt lat="43.98502" lon="5.1393">
        <ele>356.1</ele>
        <time>2013-01-24T13:20:53.000Z</time>
      </trkpt>
      <trkpt lat="43.98499" lon="5.13931">
        <ele>356.4</ele>
        <time>2013-01-24T13:20:54.000Z</time>
      </trkpt>
      <trkpt lat="43.98496" lon="5.13933">
        <ele>356.6</ele>
        <time>2013-01-24T13:20:55.000Z</time>
      </trkpt>
      <trkpt lat="43.98494" lon="5.13935">
        <ele>357.2</ele>
        <time>2013-01-24T13:20:56.000Z</time>
      </trkpt>
      <trkpt lat="43.9849" lon="5.13938">
        <ele>358.4</ele>
        <time>2013-01-24T13:20:58.000Z</time>
      </trkpt>
      <trkpt lat="43.98487" lon="5.13939">
        <ele>358.8</ele>
        <time>2013-01-24T13:20:59.000Z</time>
      </trkpt>
      <trkpt lat="43.98485" lon="5.1394">
        <ele>359.3</ele>
        <time>2013-01-24T13:21:00.000Z</time>
      </trkpt>
      <trkpt lat="43.98483" lon="5.13941">
        <ele>359.8</ele>
        <time>2013-01-24T13:21:01.000Z</time>
      </trkpt>
      <trkpt lat="43.98478" lon="5.13941">
        <ele>360.9</ele>
        <time>2013-01-24T13:21:03.000Z</time>
      </trkpt>
      <trkpt lat="43.98477" lon="5.13939">
        <ele>361.3</ele>
        <time>2013-01-24T13:21:04.000Z</time>
      </trkpt>
      <trkpt lat="43.98475" lon="5.13936">
        <ele>361.3</ele>
        <time>2013-01-24T13:21:05.000Z</time>
      </trkpt>
      <trkpt lat="43.98474" lon="5.13932">
        <ele>361.4</ele>
        <time>2013-01-24T13:21:06.000Z</time>
      </trkpt>
      <trkpt lat="43.98472" lon="5.13928">
        <ele>361.4</ele>
        <time>2013-01-24T13:21:07.000Z</time>
      </trkpt>
      <trkpt lat="43.9847" lon="5.13924">
        <ele>361.4</ele>
        <time>2013-01-24T13:21:08.000Z</time>
      </trkpt>
      <trkpt lat="43.98469" lon="5.13921">
        <ele>361.7</ele>
        <time>2013-01-24T13:21:09.000Z</time>
      </trkpt>
      <trkpt lat="43.98468" lon="5.13917">
        <ele>361.7</ele>
        <time>2013-01-24T13:21:10.000Z</time>
      </trkpt>
      <trkpt lat="43.98466" lon="5.13913">
        <ele>362</ele>
        <time>2013-01-24T13:21:11.000Z</time>
      </trkpt>
      <trkpt lat="43.98464" lon="5.1391">
        <ele>361.9</ele>
        <time>2013-01-24T13:21:12.000Z</time>
      </trkpt>
      <trkpt lat="43.98463" lon="5.13907">
        <ele>361.8</ele>
        <time>2013-01-24T13:21:13.000Z</time>
      </trkpt>
      <trkpt lat="43.98461" lon="5.13903">
        <ele>361.7</ele>
        <time>2013-01-24T13:21:14.000Z</time>
      </trkpt>
      <trkpt lat="43.9846" lon="5.139">
        <ele>361.9</ele>
        <time>2013-01-24T13:21:15.000Z</time>
      </trkpt>
      <trkpt lat="43.98458" lon="5.13897">
        <ele>362.2</ele>
        <time>2013-01-24T13:21:16.000Z</time>
      </trkpt>
      <trkpt lat="43.98457" lon="5.13893">
        <ele>362.6</ele>
        <time>2013-01-24T13:21:17.000Z</time>
      </trkpt>
      <trkpt lat="43.98456" lon="5.1389">
        <ele>362.6</ele>
        <time>2013-01-24T13:21:18.000Z</time>
      </trkpt>
      <trkpt lat="43.98454" lon="5.13886">
        <ele>362.7</ele>
        <time>2013-01-24T13:21:19.000Z</time>
      </trkpt>
      <trkpt lat="43.98453" lon="5.13884">
        <ele>362.9</ele>
        <time>2013-01-24T13:21:20.000Z</time>
      </trkpt>
      <trkpt lat="43.98451" lon="5.13878">
        <ele>363.2</ele>
        <time>2013-01-24T13:21:22.000Z</time>
      </trkpt>
      <trkpt lat="43.98449" lon="5.13876">
        <ele>363.5</ele>
        <time>2013-01-24T13:21:23.000Z</time>
      </trkpt>
      <trkpt lat="43.98447" lon="5.13872">
        <ele>363.5</ele>
        <time>2013-01-24T13:21:25.000Z</time>
      </trkpt>
      <trkpt lat="43.98446" lon="5.1387">
        <ele>363.8</ele>
        <time>2013-01-24T13:21:26.000Z</time>
      </trkpt>
      <trkpt lat="43.98444" lon="5.13865">
        <ele>364.2</ele>
        <time>2013-01-24T13:21:28.000Z</time>
      </trkpt>
      <trkpt lat="43.98442" lon="5.13863">
        <ele>364</ele>
        <time>2013-01-24T13:21:29.000Z</time>
      </trkpt>
      <trkpt lat="43.98438" lon="5.13864">
        <ele>364.4</ele>
        <time>2013-01-24T13:21:32.000Z</time>
      </trkpt>
      <trkpt lat="43.98436" lon="5.13865">
        <ele>364.5</ele>
        <time>2013-01-24T13:21:33.000Z</time>
      </trkpt>
      <trkpt lat="43.98434" lon="5.13869">
        <ele>365.2</ele>
        <time>2013-01-24T13:21:35.000Z</time>
      </trkpt>
      <trkpt lat="43.98433" lon="5.1387">
        <ele>365.4</ele>
        <time>2013-01-24T13:21:36.000Z</time>
      </trkpt>
      <trkpt lat="43.9843" lon="5.13873">
        <ele>365.7</ele>
        <time>2013-01-24T13:21:38.000Z</time>
      </trkpt>
      <trkpt lat="43.98428" lon="5.13875">
        <ele>365.4</ele>
        <time>2013-01-24T13:21:39.000Z</time>
      </trkpt>
      <trkpt lat="43.98425" lon="5.13879">
        <ele>364.9</ele>
        <time>2013-01-24T13:21:41.000Z</time>
      </trkpt>
      <trkpt lat="43.98424" lon="5.13881">
        <ele>366</ele>
        <time>2013-01-24T13:21:42.000Z</time>
      </trkpt>
      <trkpt lat="43.98421" lon="5.13884">
        <ele>366.4</ele>
        <time>2013-01-24T13:21:44.000Z</time>
      </trkpt>
      <trkpt lat="43.9842" lon="5.13886">
        <ele>366.9</ele>
        <time>2013-01-24T13:21:45.000Z</time>
      </trkpt>
      <trkpt lat="43.98417" lon="5.1389">
        <ele>368.1</ele>
        <time>2013-01-24T13:21:47.000Z</time>
      </trkpt>
      <trkpt lat="43.98416" lon="5.13893">
        <ele>368</ele>
        <time>2013-01-24T13:21:48.000Z</time>
      </trkpt>
      <trkpt lat="43.98415" lon="5.13898">
        <ele>366.9</ele>
        <time>2013-01-24T13:21:50.000Z</time>
      </trkpt>
      <trkpt lat="43.98414" lon="5.13901">
        <ele>366.1</ele>
        <time>2013-01-24T13:21:51.000Z</time>
      </trkpt>
      <trkpt lat="43.98411" lon="5.13902">
        <ele>367.9</ele>
        <time>2013-01-24T13:21:52.000Z</time>
      </trkpt>
      <trkpt lat="43.98409" lon="5.13904">
        <ele>367.3</ele>
        <time>2013-01-24T13:21:53.000Z</time>
      </trkpt>
      <trkpt lat="43.98406" lon="5.13907">
        <ele>368.2</ele>
        <time>2013-01-24T13:21:55.000Z</time>
      </trkpt>
      <trkpt lat="43.98405" lon="5.13908">
        <ele>370.1</ele>
        <time>2013-01-24T13:21:56.000Z</time>
      </trkpt>
      <trkpt lat="43.98403" lon="5.1391">
        <ele>370.4</ele>
        <time>2013-01-24T13:21:57.000Z</time>
      </trkpt>
      <trkpt lat="43.98401" lon="5.13913">
        <ele>370.5</ele>
        <time>2013-01-24T13:21:58.000Z</time>
      </trkpt>
      <trkpt lat="43.98399" lon="5.13916">
        <ele>370.4</ele>
        <time>2013-01-24T13:21:59.000Z</time>
      </trkpt>
      <trkpt lat="43.98398" lon="5.13919">
        <ele>370.1</ele>
        <time>2013-01-24T13:22:00.000Z</time>
      </trkpt>
      <trkpt lat="43.98395" lon="5.13922">
        <ele>370.1</ele>
        <time>2013-01-24T13:22:02.000Z</time>
      </trkpt>
      <trkpt lat="43.98393" lon="5.13924">
        <ele>370.2</ele>
        <time>2013-01-24T13:22:03.000Z</time>
      </trkpt>
      <trkpt lat="43.9839" lon="5.13927">
        <ele>370.4</ele>
        <time>2013-01-24T13:22:05.000Z</time>
      </trkpt>
      <trkpt lat="43.98388" lon="5.13929">
        <ele>370.5</ele>
        <time>2013-01-24T13:22:06.000Z</time>
      </trkpt>
      <trkpt lat="43.98385" lon="5.13933">
        <ele>370.7</ele>
        <time>2013-01-24T13:22:08.000Z</time>
      </trkpt>
      <trkpt lat="43.98384" lon="5.13936">
        <ele>370.6</ele>
        <time>2013-01-24T13:22:09.000Z</time>
      </trkpt>
      <trkpt lat="43.98382" lon="5.13938">
        <ele>370.8</ele>
        <time>2013-01-24T13:22:10.000Z</time>
      </trkpt>
      <trkpt lat="43.9838" lon="5.1394">
        <ele>370.9</ele>
        <time>2013-01-24T13:22:11.000Z</time>
      </trkpt>
      <trkpt lat="43.98378" lon="5.13941">
        <ele>371.3</ele>
        <time>2013-01-24T13:22:12.000Z</time>
      </trkpt>
      <trkpt lat="43.98376" lon="5.13943">
        <ele>371.7</ele>
        <time>2013-01-24T13:22:13.000Z</time>
      </trkpt>
      <trkpt lat="43.98374" lon="5.13946">
        <ele>371.6</ele>
        <time>2013-01-24T13:22:14.000Z</time>
      </trkpt>
      <trkpt lat="43.98372" lon="5.13947">
        <ele>371.8</ele>
        <time>2013-01-24T13:22:15.000Z</time>
      </trkpt>
      <trkpt lat="43.9837" lon="5.13949">
        <ele>372.1</ele>
        <time>2013-01-24T13:22:16.000Z</time>
      </trkpt>
      <trkpt lat="43.98368" lon="5.1395">
        <ele>372.3</ele>
        <time>2013-01-24T13:22:17.000Z</time>
      </trkpt>
      <trkpt lat="43.98364" lon="5.13952">
        <ele>372.7</ele>
        <time>2013-01-24T13:22:19.000Z</time>
      </trkpt>
      <trkpt lat="43.98362" lon="5.13953">
        <ele>372.6</ele>
        <time>2013-01-24T13:22:20.000Z</time>
      </trkpt>
      <trkpt lat="43.98358" lon="5.13954">
        <ele>372.8</ele>
        <time>2013-01-24T13:22:22.000Z</time>
      </trkpt>
      <trkpt lat="43.98356" lon="5.13954">
        <ele>373</ele>
        <time>2013-01-24T13:22:23.000Z</time>
      </trkpt>
      <trkpt lat="43.98351" lon="5.13954">
        <ele>373</ele>
        <time>2013-01-24T13:22:25.000Z</time>
      </trkpt>
      <trkpt lat="43.98349" lon="5.13955">
        <ele>373</ele>
        <time>2013-01-24T13:22:26.000Z</time>
      </trkpt>
      <trkpt lat="43.98344" lon="5.13955">
        <ele>373.2</ele>
        <time>2013-01-24T13:22:28.000Z</time>
      </trkpt>
      <trkpt lat="43.98342" lon="5.13955">
        <ele>373.5</ele>
        <time>2013-01-24T13:22:29.000Z</time>
      </trkpt>
      <trkpt lat="43.98338" lon="5.13955">
        <ele>373.8</ele>
        <time>2013-01-24T13:22:31.000Z</time>
      </trkpt>
      <trkpt lat="43.98336" lon="5.13955">
        <ele>374</ele>
        <time>2013-01-24T13:22:32.000Z</time>
      </trkpt>
      <trkpt lat="43.98334" lon="5.13955">
        <ele>373.3</ele>
        <time>2013-01-24T13:22:33.000Z</time>
      </trkpt>
      <trkpt lat="43.98331" lon="5.13956">
        <ele>374</ele>
        <time>2013-01-24T13:22:34.000Z</time>
      </trkpt>
      <trkpt lat="43.98327" lon="5.13955">
        <ele>374.5</ele>
        <time>2013-01-24T13:22:36.000Z</time>
      </trkpt>
      <trkpt lat="43.98325" lon="5.13955">
        <ele>374.5</ele>
        <time>2013-01-24T13:22:37.000Z</time>
      </trkpt>
      <trkpt lat="43.98321" lon="5.13956">
        <ele>375</ele>
        <time>2013-01-24T13:22:39.000Z</time>
      </trkpt>
      <trkpt lat="43.98319" lon="5.13956">
        <ele>375.2</ele>
        <time>2013-01-24T13:22:40.000Z</time>
      </trkpt>
      <trkpt lat="43.98315" lon="5.13956">
        <ele>375.6</ele>
        <time>2013-01-24T13:22:42.000Z</time>
      </trkpt>
      <trkpt lat="43.98314" lon="5.13956">
        <ele>375.8</ele>
        <time>2013-01-24T13:22:43.000Z</time>
      </trkpt>
      <trkpt lat="43.9831" lon="5.13957">
        <ele>376.2</ele>
        <time>2013-01-24T13:22:45.000Z</time>
      </trkpt>
      <trkpt lat="43.98308" lon="5.13958">
        <ele>376.1</ele>
        <time>2013-01-24T13:22:46.000Z</time>
      </trkpt>
      <trkpt lat="43.98304" lon="5.13958">
        <ele>377.3</ele>
        <time>2013-01-24T13:22:48.000Z</time>
      </trkpt>
      <trkpt lat="43.98303" lon="5.13958">
        <ele>377.3</ele>
        <time>2013-01-24T13:22:49.000Z</time>
      </trkpt>
      <trkpt lat="43.98299" lon="5.13958">
        <ele>377.7</ele>
        <time>2013-01-24T13:22:51.000Z</time>
      </trkpt>
      <trkpt lat="43.98297" lon="5.13959">
        <ele>377.8</ele>
        <time>2013-01-24T13:22:52.000Z</time>
      </trkpt>
      <trkpt lat="43.98293" lon="5.1396">
        <ele>378.3</ele>
        <time>2013-01-24T13:22:55.000Z</time>
      </trkpt>
      <trkpt lat="43.98291" lon="5.13958">
        <ele>378.5</ele>
        <time>2013-01-24T13:22:56.000Z</time>
      </trkpt>
      <trkpt lat="43.98288" lon="5.13959">
        <ele>379</ele>
        <time>2013-01-24T13:22:59.000Z</time>
      </trkpt>
      <trkpt lat="43.98286" lon="5.1396">
        <ele>379.4</ele>
        <time>2013-01-24T13:23:00.000Z</time>
      </trkpt>
      <trkpt lat="43.98281" lon="5.13961">
        <ele>379.8</ele>
        <time>2013-01-24T13:23:03.000Z</time>
      </trkpt>
      <trkpt lat="43.9828" lon="5.13961">
        <ele>379.9</ele>
        <time>2013-01-24T13:23:04.000Z</time>
      </trkpt>
      <trkpt lat="43.98275" lon="5.13962">
        <ele>380.5</ele>
        <time>2013-01-24T13:23:07.000Z</time>
      </trkpt>
      <trkpt lat="43.98274" lon="5.13962">
        <ele>380.6</ele>
        <time>2013-01-24T13:23:08.000Z</time>
      </trkpt>
      <trkpt lat="43.9827" lon="5.13964">
        <ele>381.6</ele>
        <time>2013-01-24T13:23:11.000Z</time>
      </trkpt>
      <trkpt lat="43.98269" lon="5.13964">
        <ele>381.9</ele>
        <time>2013-01-24T13:23:12.000Z</time>
      </trkpt>
      <trkpt lat="43.98265" lon="5.13966">
        <ele>381.8</ele>
        <time>2013-01-24T13:23:18.000Z</time>
      </trkpt>
      <trkpt lat="43.98265" lon="5.13966">
        <ele>382</ele>
        <time>2013-01-24T13:23:19.000Z</time>
      </trkpt>
      <trkpt lat="43.98261" lon="5.13968">
        <ele>382.3</ele>
        <time>2013-01-24T13:23:24.000Z</time>
      </trkpt>
      <trkpt lat="43.9826" lon="5.13968">
        <ele>382.4</ele>
        <time>2013-01-24T13:23:25.000Z</time>
      </trkpt>
      <trkpt lat="43.98256" lon="5.13971">
        <ele>382.8</ele>
        <time>2013-01-24T13:23:29.000Z</time>
      </trkpt>
      <trkpt lat="43.98256" lon="5.13972">
        <ele>383.1</ele>
        <time>2013-01-24T13:23:30.000Z</time>
      </trkpt>
      <trkpt lat="43.98252" lon="5.13972">
        <ele>382.9</ele>
        <time>2013-01-24T13:23:43.000Z</time>
      </trkpt>
      <trkpt lat="43.98251" lon="5.13973">
        <ele>382.9</ele>
        <time>2013-01-24T13:23:44.000Z</time>
      </trkpt>
      <trkpt lat="43.98248" lon="5.13974">
        <ele>383.2</ele>
        <time>2013-01-24T13:23:47.000Z</time>
      </trkpt>
      <trkpt lat="43.98247" lon="5.13975">
        <ele>383.6</ele>
        <time>2013-01-24T13:23:48.000Z</time>
      </trkpt>
      <trkpt lat="43.98244" lon="5.13979">
        <ele>383.1</ele>
        <time>2013-01-24T13:23:54.000Z</time>
      </trkpt>
      <trkpt lat="43.98243" lon="5.1398">
        <ele>383.2</ele>
        <time>2013-01-24T13:23:55.000Z</time>
      </trkpt>
      <trkpt lat="43.9824" lon="5.13982">
        <ele>383.2</ele>
        <time>2013-01-24T13:23:58.000Z</time>
      </trkpt>
      <trkpt lat="43.98238" lon="5.13983">
        <ele>383.4</ele>
        <time>2013-01-24T13:23:59.000Z</time>
      </trkpt>
      <trkpt lat="43.98235" lon="5.13984">
        <ele>383</ele>
        <time>2013-01-24T13:24:01.000Z</time>
      </trkpt>
      <trkpt lat="43.98234" lon="5.13985">
        <ele>382.9</ele>
        <time>2013-01-24T13:24:02.000Z</time>
      </trkpt>
      <trkpt lat="43.9823" lon="5.13986">
        <ele>383.1</ele>
        <time>2013-01-24T13:24:04.000Z</time>
      </trkpt>
      <trkpt lat="43.98228" lon="5.13986">
        <ele>383</ele>
        <time>2013-01-24T13:24:05.000Z</time>
      </trkpt>
      <trkpt lat="43.98225" lon="5.13986">
        <ele>383</ele>
        <time>2013-01-24T13:24:07.000Z</time>
      </trkpt>
      <trkpt lat="43.98223" lon="5.13987">
        <ele>383.1</ele>
        <time>2013-01-24T13:24:08.000Z</time>
      </trkpt>
      <trkpt lat="43.9822" lon="5.13987">
        <ele>383.2</ele>
        <time>2013-01-24T13:24:10.000Z</time>
      </trkpt>
      <trkpt lat="43.98218" lon="5.13986">
        <ele>383.2</ele>
        <time>2013-01-24T13:24:11.000Z</time>
      </trkpt>
      <trkpt lat="43.98214" lon="5.13985">
        <ele>383.1</ele>
        <time>2013-01-24T13:24:13.000Z</time>
      </trkpt>
      <trkpt lat="43.98212" lon="5.13985">
        <ele>383.4</ele>
        <time>2013-01-24T13:24:14.000Z</time>
      </trkpt>
      <trkpt lat="43.98208" lon="5.13985">
        <ele>383.5</ele>
        <time>2013-01-24T13:24:16.000Z</time>
      </trkpt>
      <trkpt lat="43.98207" lon="5.13983">
        <ele>383.7</ele>
        <time>2013-01-24T13:24:17.000Z</time>
      </trkpt>
      <trkpt lat="43.98204" lon="5.1398">
        <ele>383.9</ele>
        <time>2013-01-24T13:24:19.000Z</time>
      </trkpt>
      <trkpt lat="43.98202" lon="5.1398">
        <ele>384.1</ele>
        <time>2013-01-24T13:24:20.000Z</time>
      </trkpt>
      <trkpt lat="43.98198" lon="5.13978">
        <ele>384.6</ele>
        <time>2013-01-24T13:24:22.000Z</time>
      </trkpt>
      <trkpt lat="43.98196" lon="5.13977">
        <ele>384.6</ele>
        <time>2013-01-24T13:24:23.000Z</time>
      </trkpt>
      <trkpt lat="43.98193" lon="5.13974">
        <ele>384.9</ele>
        <time>2013-01-24T13:24:25.000Z</time>
      </trkpt>
      <trkpt lat="43.98191" lon="5.13974">
        <ele>385</ele>
        <time>2013-01-24T13:24:26.000Z</time>
      </trkpt>
      <trkpt lat="43.98188" lon="5.13973">
        <ele>385</ele>
        <time>2013-01-24T13:24:28.000Z</time>
      </trkpt>
      <trkpt lat="43.98186" lon="5.13972">
        <ele>385.1</ele>
        <time>2013-01-24T13:24:29.000Z</time>
      </trkpt>
      <trkpt lat="43.98182" lon="5.1397">
        <ele>385.3</ele>
        <time>2013-01-24T13:24:31.000Z</time>
      </trkpt>
      <trkpt lat="43.98181" lon="5.13969">
        <ele>385.3</ele>
        <time>2013-01-24T13:24:32.000Z</time>
      </trkpt>
      <trkpt lat="43.98177" lon="5.13968">
        <ele>385.5</ele>
        <time>2013-01-24T13:24:34.000Z</time>
      </trkpt>
      <trkpt lat="43.98175" lon="5.13968">
        <ele>385.6</ele>
        <time>2013-01-24T13:24:35.000Z</time>
      </trkpt>
      <trkpt lat="43.98171" lon="5.13969">
        <ele>385.7</ele>
        <time>2013-01-24T13:24:37.000Z</time>
      </trkpt>
      <trkpt lat="43.98169" lon="5.1397">
        <ele>385.8</ele>
        <time>2013-01-24T13:24:38.000Z</time>
      </trkpt>
      <trkpt lat="43.98165" lon="5.13972">
        <ele>386</ele>
        <time>2013-01-24T13:24:40.000Z</time>
      </trkpt>
      <trkpt lat="43.98163" lon="5.13973">
        <ele>386</ele>
        <time>2013-01-24T13:24:41.000Z</time>
      </trkpt>
      <trkpt lat="43.98161" lon="5.13978">
        <ele>386</ele>
        <time>2013-01-24T13:24:43.000Z</time>
      </trkpt>
      <trkpt lat="43.9816" lon="5.13981">
        <ele>386.1</ele>
        <time>2013-01-24T13:24:44.000Z</time>
      </trkpt>
      <trkpt lat="43.98159" lon="5.13986">
        <ele>386</ele>
        <time>2013-01-24T13:24:46.000Z</time>
      </trkpt>
      <trkpt lat="43.98158" lon="5.13988">
        <ele>385.1</ele>
        <time>2013-01-24T13:24:47.000Z</time>
      </trkpt>
      <trkpt lat="43.98154" lon="5.13991">
        <ele>386.1</ele>
        <time>2013-01-24T13:24:49.000Z</time>
      </trkpt>
      <trkpt lat="43.98152" lon="5.13991">
        <ele>386.4</ele>
        <time>2013-01-24T13:24:50.000Z</time>
      </trkpt>
      <trkpt lat="43.9815" lon="5.13996">
        <ele>386.6</ele>
        <time>2013-01-24T13:24:52.000Z</time>
      </trkpt>
      <trkpt lat="43.98149" lon="5.13998">
        <ele>386.5</ele>
        <time>2013-01-24T13:24:53.000Z</time>
      </trkpt>
      <trkpt lat="43.98146" lon="5.14003">
        <ele>386.5</ele>
        <time>2013-01-24T13:24:55.000Z</time>
      </trkpt>
      <trkpt lat="43.98144" lon="5.14004">
        <ele>386.4</ele>
        <time>2013-01-24T13:24:56.000Z</time>
      </trkpt>
      <trkpt lat="43.98141" lon="5.14007">
        <ele>386.6</ele>
        <time>2013-01-24T13:24:58.000Z</time>
      </trkpt>
      <trkpt lat="43.9814" lon="5.1401">
        <ele>386.4</ele>
        <time>2013-01-24T13:24:59.000Z</time>
      </trkpt>
      <trkpt lat="43.9814" lon="5.14013">
        <ele>386</ele>
        <time>2013-01-24T13:25:00.000Z</time>
      </trkpt>
      <trkpt lat="43.98139" lon="5.14017">
        <ele>385.8</ele>
        <time>2013-01-24T13:25:01.000Z</time>
      </trkpt>
      <trkpt lat="43.98138" lon="5.14021">
        <ele>385.5</ele>
        <time>2013-01-24T13:25:02.000Z</time>
      </trkpt>
      <trkpt lat="43.98136" lon="5.14024">
        <ele>385.5</ele>
        <time>2013-01-24T13:25:03.000Z</time>
      </trkpt>
      <trkpt lat="43.98134" lon="5.14026">
        <ele>385.6</ele>
        <time>2013-01-24T13:25:04.000Z</time>
      </trkpt>
      <trkpt lat="43.98132" lon="5.14027">
        <ele>385.6</ele>
        <time>2013-01-24T13:25:05.000Z</time>
      </trkpt>
      <trkpt lat="43.98129" lon="5.14031">
        <ele>385.9</ele>
        <time>2013-01-24T13:25:07.000Z</time>
      </trkpt>
      <trkpt lat="43.98127" lon="5.14034">
        <ele>385.9</ele>
        <time>2013-01-24T13:25:08.000Z</time>
      </trkpt>
      <trkpt lat="43.98125" lon="5.14036">
        <ele>385.9</ele>
        <time>2013-01-24T13:25:09.000Z</time>
      </trkpt>
      <trkpt lat="43.98123" lon="5.14037">
        <ele>386</ele>
        <time>2013-01-24T13:25:10.000Z</time>
      </trkpt>
      <trkpt lat="43.98121" lon="5.14039">
        <ele>386.2</ele>
        <time>2013-01-24T13:25:11.000Z</time>
      </trkpt>
      <trkpt lat="43.98119" lon="5.1404">
        <ele>386.3</ele>
        <time>2013-01-24T13:25:12.000Z</time>
      </trkpt>
      <trkpt lat="43.98117" lon="5.14042">
        <ele>386.3</ele>
        <time>2013-01-24T13:25:13.000Z</time>
      </trkpt>
      <trkpt lat="43.98116" lon="5.14044">
        <ele>386.4</ele>
        <time>2013-01-24T13:25:14.000Z</time>
      </trkpt>
      <trkpt lat="43.98112" lon="5.14047">
        <ele>386.6</ele>
        <time>2013-01-24T13:25:16.000Z</time>
      </trkpt>
      <trkpt lat="43.9811" lon="5.14048">
        <ele>387</ele>
        <time>2013-01-24T13:25:17.000Z</time>
      </trkpt>
      <trkpt lat="43.98106" lon="5.14051">
        <ele>387.9</ele>
        <time>2013-01-24T13:25:19.000Z</time>
      </trkpt>
      <trkpt lat="43.98105" lon="5.14051">
        <ele>388.6</ele>
        <time>2013-01-24T13:25:20.000Z</time>
      </trkpt>
      <trkpt lat="43.98103" lon="5.14049">
        <ele>389.5</ele>
        <time>2013-01-24T13:25:21.000Z</time>
      </trkpt>
      <trkpt lat="43.981" lon="5.14048">
        <ele>391.5</ele>
        <time>2013-01-24T13:25:22.000Z</time>
      </trkpt>
      <trkpt lat="43.98098" lon="5.14054">
        <ele>391.6</ele>
        <time>2013-01-24T13:25:23.000Z</time>
      </trkpt>
      <trkpt lat="43.98096" lon="5.14057">
        <ele>392.6</ele>
        <time>2013-01-24T13:25:24.000Z</time>
      </trkpt>
      <trkpt lat="43.98094" lon="5.14059">
        <ele>392.7</ele>
        <time>2013-01-24T13:25:25.000Z</time>
      </trkpt>
      <trkpt lat="43.98092" lon="5.14059">
        <ele>392.9</ele>
        <time>2013-01-24T13:25:26.000Z</time>
      </trkpt>
      <trkpt lat="43.98089" lon="5.14061">
        <ele>393.4</ele>
        <time>2013-01-24T13:25:27.000Z</time>
      </trkpt>
      <trkpt lat="43.98086" lon="5.14062">
        <ele>393.8</ele>
        <time>2013-01-24T13:25:28.000Z</time>
      </trkpt>
      <trkpt lat="43.98084" lon="5.14063">
        <ele>394.4</ele>
        <time>2013-01-24T13:25:29.000Z</time>
      </trkpt>
      <trkpt lat="43.98081" lon="5.14065">
        <ele>395</ele>
        <time>2013-01-24T13:25:30.000Z</time>
      </trkpt>
      <trkpt lat="43.98079" lon="5.14067">
        <ele>394.5</ele>
        <time>2013-01-24T13:25:31.000Z</time>
      </trkpt>
      <trkpt lat="43.98077" lon="5.14069">
        <ele>394.9</ele>
        <time>2013-01-24T13:25:32.000Z</time>
      </trkpt>
      <trkpt lat="43.98075" lon="5.1407">
        <ele>395</ele>
        <time>2013-01-24T13:25:33.000Z</time>
      </trkpt>
      <trkpt lat="43.98072" lon="5.14074">
        <ele>395.8</ele>
        <time>2013-01-24T13:25:35.000Z</time>
      </trkpt>
      <trkpt lat="43.9807" lon="5.14076">
        <ele>395.8</ele>
        <time>2013-01-24T13:25:36.000Z</time>
      </trkpt>
      <trkpt lat="43.98069" lon="5.1408">
        <ele>395.1</ele>
        <time>2013-01-24T13:25:37.000Z</time>
      </trkpt>
      <trkpt lat="43.98067" lon="5.14082">
        <ele>395</ele>
        <time>2013-01-24T13:25:38.000Z</time>
      </trkpt>
      <trkpt lat="43.98063" lon="5.14086">
        <ele>394.8</ele>
        <time>2013-01-24T13:25:40.000Z</time>
      </trkpt>
      <trkpt lat="43.98061" lon="5.14087">
        <ele>394.7</ele>
        <time>2013-01-24T13:25:41.000Z</time>
      </trkpt>
      <trkpt lat="43.98059" lon="5.14088">
        <ele>395.2</ele>
        <time>2013-01-24T13:25:42.000Z</time>
      </trkpt>
      <trkpt lat="43.98057" lon="5.1409">
        <ele>395.3</ele>
        <time>2013-01-24T13:25:43.000Z</time>
      </trkpt>
      <trkpt lat="43.98055" lon="5.14092">
        <ele>395.6</ele>
        <time>2013-01-24T13:25:44.000Z</time>
      </trkpt>
      <trkpt lat="43.98053" lon="5.14095">
        <ele>394.8</ele>
        <time>2013-01-24T13:25:45.000Z</time>
      </trkpt>
      <trkpt lat="43.98051" lon="5.14097">
        <ele>394.7</ele>
        <time>2013-01-24T13:25:46.000Z</time>
      </trkpt>
      <trkpt lat="43.98049" lon="5.14099">
        <ele>394.6</ele>
        <time>2013-01-24T13:25:47.000Z</time>
      </trkpt>
      <trkpt lat="43.98047" lon="5.14101">
        <ele>394.7</ele>
        <time>2013-01-24T13:25:48.000Z</time>
      </trkpt>
      <trkpt lat="43.98044" lon="5.14096">
        <ele>395.5</ele>
        <time>2013-01-24T13:25:49.000Z</time>
      </trkpt>
      <trkpt lat="43.9804" lon="5.14092">
        <ele>396.1</ele>
        <time>2013-01-24T13:25:51.000Z</time>
      </trkpt>
      <trkpt lat="43.98039" lon="5.14091">
        <ele>396.6</ele>
        <time>2013-01-24T13:25:52.000Z</time>
      </trkpt>
      <trkpt lat="43.98035" lon="5.14091">
        <ele>396.1</ele>
        <time>2013-01-24T13:25:55.000Z</time>
      </trkpt>
      <trkpt lat="43.98034" lon="5.14092">
        <ele>395.6</ele>
        <time>2013-01-24T13:25:56.000Z</time>
      </trkpt>
      <trkpt lat="43.9803" lon="5.14093">
        <ele>395.1</ele>
        <time>2013-01-24T13:25:58.000Z</time>
      </trkpt>
      <trkpt lat="43.98028" lon="5.14093">
        <ele>394.8</ele>
        <time>2013-01-24T13:25:59.000Z</time>
      </trkpt>
      <trkpt lat="43.98027" lon="5.14098">
        <ele>392.2</ele>
        <time>2013-01-24T13:28:36.000Z</time>
      </trkpt>
      <trkpt lat="43.98026" lon="5.14099">
        <ele>392.4</ele>
        <time>2013-01-24T13:28:37.000Z</time>
      </trkpt>
      <trkpt lat="43.98022" lon="5.141">
        <ele>392.2</ele>
        <time>2013-01-24T13:28:39.000Z</time>
      </trkpt>
      <trkpt lat="43.98021" lon="5.14102">
        <ele>392.5</ele>
        <time>2013-01-24T13:28:40.000Z</time>
      </trkpt>
      <trkpt lat="43.98018" lon="5.14106">
        <ele>392</ele>
        <time>2013-01-24T13:28:42.000Z</time>
      </trkpt>
      <trkpt lat="43.98016" lon="5.14109">
        <ele>392</ele>
        <time>2013-01-24T13:28:43.000Z</time>
      </trkpt>
      <trkpt lat="43.98015" lon="5.14111">
        <ele>391.9</ele>
        <time>2013-01-24T13:28:44.000Z</time>
      </trkpt>
      <trkpt lat="43.98013" lon="5.14114">
        <ele>391.6</ele>
        <time>2013-01-24T13:28:45.000Z</time>
      </trkpt>
      <trkpt lat="43.98011" lon="5.14117">
        <ele>391.3</ele>
        <time>2013-01-24T13:28:46.000Z</time>
      </trkpt>
      <trkpt lat="43.98009" lon="5.1412">
        <ele>391.3</ele>
        <time>2013-01-24T13:28:47.000Z</time>
      </trkpt>
      <trkpt lat="43.98008" lon="5.14123">
        <ele>391.1</ele>
        <time>2013-01-24T13:28:48.000Z</time>
      </trkpt>
      <trkpt lat="43.98006" lon="5.14126">
        <ele>391.3</ele>
        <time>2013-01-24T13:28:49.000Z</time>
      </trkpt>
      <trkpt lat="43.98004" lon="5.14129">
        <ele>391.2</ele>
        <time>2013-01-24T13:28:50.000Z</time>
      </trkpt>
      <trkpt lat="43.98002" lon="5.14132">
        <ele>391.1</ele>
        <time>2013-01-24T13:28:51.000Z</time>
      </trkpt>
      <trkpt lat="43.98001" lon="5.14136">
        <ele>391.2</ele>
        <time>2013-01-24T13:28:52.000Z</time>
      </trkpt>
      <trkpt lat="43.97999" lon="5.14139">
        <ele>392</ele>
        <time>2013-01-24T13:28:53.000Z</time>
      </trkpt>
      <trkpt lat="43.97998" lon="5.14143">
        <ele>391.7</ele>
        <time>2013-01-24T13:28:54.000Z</time>
      </trkpt>
      <trkpt lat="43.97996" lon="5.14146">
        <ele>392.7</ele>
        <time>2013-01-24T13:28:55.000Z</time>
      </trkpt>
      <trkpt lat="43.97994" lon="5.1415">
        <ele>393.6</ele>
        <time>2013-01-24T13:28:56.000Z</time>
      </trkpt>
      <trkpt lat="43.97992" lon="5.14154">
        <ele>392.4</ele>
        <time>2013-01-24T13:28:57.000Z</time>
      </trkpt>
      <trkpt lat="43.9799" lon="5.14158">
        <ele>393.1</ele>
        <time>2013-01-24T13:28:58.000Z</time>
      </trkpt>
      <trkpt lat="43.97989" lon="5.14161">
        <ele>393.3</ele>
        <time>2013-01-24T13:28:59.000Z</time>
      </trkpt>
      <trkpt lat="43.97987" lon="5.14165">
        <ele>393.3</ele>
        <time>2013-01-24T13:29:00.000Z</time>
      </trkpt>
      <trkpt lat="43.97986" lon="5.14168">
        <ele>393.2</ele>
        <time>2013-01-24T13:29:01.000Z</time>
      </trkpt>
      <trkpt lat="43.97985" lon="5.14172">
        <ele>392.5</ele>
        <time>2013-01-24T13:29:02.000Z</time>
      </trkpt>
      <trkpt lat="43.97984" lon="5.14176">
        <ele>392.5</ele>
        <time>2013-01-24T13:29:03.000Z</time>
      </trkpt>
      <trkpt lat="43.97982" lon="5.1418">
        <ele>391.9</ele>
        <time>2013-01-24T13:29:04.000Z</time>
      </trkpt>
      <trkpt lat="43.9798" lon="5.14185">
        <ele>392.3</ele>
        <time>2013-01-24T13:29:05.000Z</time>
      </trkpt>
      <trkpt lat="43.97978" lon="5.1419">
        <ele>392.5</ele>
        <time>2013-01-24T13:29:06.000Z</time>
      </trkpt>
      <trkpt lat="43.97977" lon="5.14194">
        <ele>392.2</ele>
        <time>2013-01-24T13:29:07.000Z</time>
      </trkpt>
      <trkpt lat="43.97975" lon="5.14199">
        <ele>392.3</ele>
        <time>2013-01-24T13:29:08.000Z</time>
      </trkpt>
      <trkpt lat="43.97973" lon="5.14203">
        <ele>392.4</ele>
        <time>2013-01-24T13:29:09.000Z</time>
      </trkpt>
      <trkpt lat="43.97972" lon="5.14209">
        <ele>392.7</ele>
        <time>2013-01-24T13:29:10.000Z</time>
      </trkpt>
      <trkpt lat="43.97971" lon="5.14214">
        <ele>392.9</ele>
        <time>2013-01-24T13:29:11.000Z</time>
      </trkpt>
      <trkpt lat="43.9797" lon="5.14219">
        <ele>392.8</ele>
        <time>2013-01-24T13:29:12.000Z</time>
      </trkpt>
      <trkpt lat="43.9797" lon="5.14224">
        <ele>392.9</ele>
        <time>2013-01-24T13:29:13.000Z</time>
      </trkpt>
      <trkpt lat="43.97969" lon="5.14229">
        <ele>393.1</ele>
        <time>2013-01-24T13:29:14.000Z</time>
      </trkpt>
      <trkpt lat="43.97969" lon="5.14233">
        <ele>393.2</ele>
        <time>2013-01-24T13:29:15.000Z</time>
      </trkpt>
      <trkpt lat="43.97969" lon="5.14238">
        <ele>393.7</ele>
        <time>2013-01-24T13:29:16.000Z</time>
      </trkpt>
      <trkpt lat="43.97969" lon="5.14242">
        <ele>393.8</ele>
        <time>2013-01-24T13:29:17.000Z</time>
      </trkpt>
      <trkpt lat="43.9797" lon="5.14247">
        <ele>393.8</ele>
        <time>2013-01-24T13:29:18.000Z</time>
      </trkpt>
      <trkpt lat="43.9797" lon="5.14251">
        <ele>394.1</ele>
        <time>2013-01-24T13:29:19.000Z</time>
      </trkpt>
      <trkpt lat="43.9797" lon="5.14255">
        <ele>394.1</ele>
        <time>2013-01-24T13:29:20.000Z</time>
      </trkpt>
      <trkpt lat="43.97971" lon="5.14259">
        <ele>394.3</ele>
        <time>2013-01-24T13:29:21.000Z</time>
      </trkpt>
      <trkpt lat="43.97971" lon="5.14262">
        <ele>394.3</ele>
        <time>2013-01-24T13:29:22.000Z</time>
      </trkpt>
      <trkpt lat="43.9797" lon="5.14265">
        <ele>394.7</ele>
        <time>2013-01-24T13:29:23.000Z</time>
      </trkpt>
      <trkpt lat="43.9797" lon="5.14269">
        <ele>395.1</ele>
        <time>2013-01-24T13:29:24.000Z</time>
      </trkpt>
      <trkpt lat="43.9797" lon="5.14272">
        <ele>395.1</ele>
        <time>2013-01-24T13:29:25.000Z</time>
      </trkpt>
      <trkpt lat="43.97969" lon="5.14278">
        <ele>395.9</ele>
        <time>2013-01-24T13:29:27.000Z</time>
      </trkpt>
      <trkpt lat="43.97967" lon="5.14281">
        <ele>396.2</ele>
        <time>2013-01-24T13:29:28.000Z</time>
      </trkpt>
      <trkpt lat="43.97967" lon="5.14284">
        <ele>396.4</ele>
        <time>2013-01-24T13:29:29.000Z</time>
      </trkpt>
      <trkpt lat="43.97965" lon="5.14287">
        <ele>396.8</ele>
        <time>2013-01-24T13:29:30.000Z</time>
      </trkpt>
      <trkpt lat="43.97964" lon="5.1429">
        <ele>397.1</ele>
        <time>2013-01-24T13:29:31.000Z</time>
      </trkpt>
      <trkpt lat="43.97963" lon="5.14293">
        <ele>397.3</ele>
        <time>2013-01-24T13:29:32.000Z</time>
      </trkpt>
      <trkpt lat="43.9796" lon="5.14297">
        <ele>397.4</ele>
        <time>2013-01-24T13:29:34.000Z</time>
      </trkpt>
      <trkpt lat="43.97959" lon="5.14299">
        <ele>397.7</ele>
        <time>2013-01-24T13:29:35.000Z</time>
      </trkpt>
      <trkpt lat="43.97957" lon="5.14303">
        <ele>399.3</ele>
        <time>2013-01-24T13:29:37.000Z</time>
      </trkpt>
      <trkpt lat="43.97956" lon="5.14305">
        <ele>400</ele>
        <time>2013-01-24T13:29:38.000Z</time>
      </trkpt>
      <trkpt lat="43.97954" lon="5.14308">
        <ele>399.5</ele>
        <time>2013-01-24T13:29:39.000Z</time>
      </trkpt>
      <trkpt lat="43.97953" lon="5.1431">
        <ele>399.7</ele>
        <time>2013-01-24T13:29:40.000Z</time>
      </trkpt>
      <trkpt lat="43.97951" lon="5.14312">
        <ele>399.3</ele>
        <time>2013-01-24T13:29:41.000Z</time>
      </trkpt>
      <trkpt lat="43.97949" lon="5.14315">
        <ele>397.9</ele>
        <time>2013-01-24T13:29:42.000Z</time>
      </trkpt>
      <trkpt lat="43.97946" lon="5.1432">
        <ele>397.5</ele>
        <time>2013-01-24T13:29:44.000Z</time>
      </trkpt>
      <trkpt lat="43.97945" lon="5.14321">
        <ele>397.6</ele>
        <time>2013-01-24T13:29:45.000Z</time>
      </trkpt>
      <trkpt lat="43.97943" lon="5.14325">
        <ele>398.1</ele>
        <time>2013-01-24T13:29:47.000Z</time>
      </trkpt>
      <trkpt lat="43.97941" lon="5.14328">
        <ele>398.7</ele>
        <time>2013-01-24T13:29:48.000Z</time>
      </trkpt>
      <trkpt lat="43.97939" lon="5.14332">
        <ele>399.1</ele>
        <time>2013-01-24T13:29:50.000Z</time>
      </trkpt>
      <trkpt lat="43.97937" lon="5.14334">
        <ele>398.6</ele>
        <time>2013-01-24T13:29:51.000Z</time>
      </trkpt>
      <trkpt lat="43.97935" lon="5.14337">
        <ele>399.2</ele>
        <time>2013-01-24T13:29:53.000Z</time>
      </trkpt>
      <trkpt lat="43.97933" lon="5.14339">
        <ele>399.4</ele>
        <time>2013-01-24T13:29:54.000Z</time>
      </trkpt>
      <trkpt lat="43.97931" lon="5.14342">
        <ele>400.1</ele>
        <time>2013-01-24T13:29:56.000Z</time>
      </trkpt>
      <trkpt lat="43.9793" lon="5.14344">
        <ele>400.5</ele>
        <time>2013-01-24T13:29:57.000Z</time>
      </trkpt>
      <trkpt lat="43.97928" lon="5.14348">
        <ele>401.4</ele>
        <time>2013-01-24T13:29:59.000Z</time>
      </trkpt>
      <trkpt lat="43.97927" lon="5.14349">
        <ele>401.6</ele>
        <time>2013-01-24T13:30:00.000Z</time>
      </trkpt>
      <trkpt lat="43.97924" lon="5.14353">
        <ele>401.1</ele>
        <time>2013-01-24T13:30:02.000Z</time>
      </trkpt>
      <trkpt lat="43.97922" lon="5.14354">
        <ele>401.2</ele>
        <time>2013-01-24T13:30:03.000Z</time>
      </trkpt>
      <trkpt lat="43.9792" lon="5.14358">
        <ele>401.9</ele>
        <time>2013-01-24T13:30:05.000Z</time>
      </trkpt>
      <trkpt lat="43.97918" lon="5.14359">
        <ele>401.5</ele>
        <time>2013-01-24T13:30:06.000Z</time>
      </trkpt>
      <trkpt lat="43.97915" lon="5.14363">
        <ele>401.9</ele>
        <time>2013-01-24T13:30:08.000Z</time>
      </trkpt>
      <trkpt lat="43.97913" lon="5.14365">
        <ele>402</ele>
        <time>2013-01-24T13:30:09.000Z</time>
      </trkpt>
      <trkpt lat="43.97911" lon="5.14369">
        <ele>402.1</ele>
        <time>2013-01-24T13:30:11.000Z</time>
      </trkpt>
      <trkpt lat="43.97909" lon="5.14371">
        <ele>402.7</ele>
        <time>2013-01-24T13:30:12.000Z</time>
      </trkpt>
      <trkpt lat="43.97907" lon="5.14375">
        <ele>403.1</ele>
        <time>2013-01-24T13:30:14.000Z</time>
      </trkpt>
      <trkpt lat="43.97905" lon="5.14377">
        <ele>403.4</ele>
        <time>2013-01-24T13:30:15.000Z</time>
      </trkpt>
      <trkpt lat="43.97902" lon="5.14381">
        <ele>403.6</ele>
        <time>2013-01-24T13:30:17.000Z</time>
      </trkpt>
      <trkpt lat="43.97901" lon="5.14382">
        <ele>403.8</ele>
        <time>2013-01-24T13:30:18.000Z</time>
      </trkpt>
      <trkpt lat="43.97899" lon="5.14385">
        <ele>403.8</ele>
        <time>2013-01-24T13:30:19.000Z</time>
      </trkpt>
      <trkpt lat="43.97897" lon="5.14387">
        <ele>403.8</ele>
        <time>2013-01-24T13:30:20.000Z</time>
      </trkpt>
      <trkpt lat="43.97895" lon="5.1439">
        <ele>404.9</ele>
        <time>2013-01-24T13:30:22.000Z</time>
      </trkpt>
      <trkpt lat="43.97893" lon="5.14391">
        <ele>405.4</ele>
        <time>2013-01-24T13:30:23.000Z</time>
      </trkpt>
      <trkpt lat="43.9789" lon="5.14395">
        <ele>405.9</ele>
        <time>2013-01-24T13:30:25.000Z</time>
      </trkpt>
      <trkpt lat="43.97887" lon="5.14396">
        <ele>405.6</ele>
        <time>2013-01-24T13:30:26.000Z</time>
      </trkpt>
      <trkpt lat="43.97884" lon="5.144">
        <ele>406.7</ele>
        <time>2013-01-24T13:30:28.000Z</time>
      </trkpt>
      <trkpt lat="43.97882" lon="5.14401">
        <ele>408.1</ele>
        <time>2013-01-24T13:30:29.000Z</time>
      </trkpt>
      <trkpt lat="43.97879" lon="5.14402">
        <ele>409</ele>
        <time>2013-01-24T13:30:30.000Z</time>
      </trkpt>
      <trkpt lat="43.97875" lon="5.14405">
        <ele>409.6</ele>
        <time>2013-01-24T13:30:31.000Z</time>
      </trkpt>
      <trkpt lat="43.97873" lon="5.14409">
        <ele>409.9</ele>
        <time>2013-01-24T13:30:33.000Z</time>
      </trkpt>
      <trkpt lat="43.9787" lon="5.1441">
        <ele>409.9</ele>
        <time>2013-01-24T13:30:34.000Z</time>
      </trkpt>
      <trkpt lat="43.97868" lon="5.14413">
        <ele>409.9</ele>
        <time>2013-01-24T13:30:35.000Z</time>
      </trkpt>
      <trkpt lat="43.97866" lon="5.14414">
        <ele>410.1</ele>
        <time>2013-01-24T13:30:36.000Z</time>
      </trkpt>
      <trkpt lat="43.97864" lon="5.14415">
        <ele>410.1</ele>
        <time>2013-01-24T13:30:37.000Z</time>
      </trkpt>
      <trkpt lat="43.97861" lon="5.14417">
        <ele>410.6</ele>
        <time>2013-01-24T13:30:38.000Z</time>
      </trkpt>
      <trkpt lat="43.97858" lon="5.1442">
        <ele>410.3</ele>
        <time>2013-01-24T13:30:40.000Z</time>
      </trkpt>
      <trkpt lat="43.97856" lon="5.14422">
        <ele>410.1</ele>
        <time>2013-01-24T13:30:41.000Z</time>
      </trkpt>
      <trkpt lat="43.97852" lon="5.14425">
        <ele>410.3</ele>
        <time>2013-01-24T13:30:43.000Z</time>
      </trkpt>
      <trkpt lat="43.9785" lon="5.14427">
        <ele>410.5</ele>
        <time>2013-01-24T13:30:44.000Z</time>
      </trkpt>
      <trkpt lat="43.97848" lon="5.14429">
        <ele>410.1</ele>
        <time>2013-01-24T13:30:45.000Z</time>
      </trkpt>
      <trkpt lat="43.97846" lon="5.14431">
        <ele>410.4</ele>
        <time>2013-01-24T13:30:46.000Z</time>
      </trkpt>
      <trkpt lat="43.97844" lon="5.14433">
        <ele>410.5</ele>
        <time>2013-01-24T13:30:47.000Z</time>
      </trkpt>
      <trkpt lat="43.97841" lon="5.14435">
        <ele>410.5</ele>
        <time>2013-01-24T13:30:48.000Z</time>
      </trkpt>
      <trkpt lat="43.97839" lon="5.14435">
        <ele>412.1</ele>
        <time>2013-01-24T13:30:49.000Z</time>
      </trkpt>
      <trkpt lat="43.97836" lon="5.14438">
        <ele>411.7</ele>
        <time>2013-01-24T13:30:50.000Z</time>
      </trkpt>
      <trkpt lat="43.97834" lon="5.14439">
        <ele>412.4</ele>
        <time>2013-01-24T13:30:51.000Z</time>
      </trkpt>
      <trkpt lat="43.97832" lon="5.14441">
        <ele>412.7</ele>
        <time>2013-01-24T13:30:52.000Z</time>
      </trkpt>
      <trkpt lat="43.9783" lon="5.14442">
        <ele>412.8</ele>
        <time>2013-01-24T13:30:53.000Z</time>
      </trkpt>
      <trkpt lat="43.97827" lon="5.14445">
        <ele>412.5</ele>
        <time>2013-01-24T13:30:54.000Z</time>
      </trkpt>
      <trkpt lat="43.97825" lon="5.14446">
        <ele>413.3</ele>
        <time>2013-01-24T13:30:55.000Z</time>
      </trkpt>
      <trkpt lat="43.97823" lon="5.14448">
        <ele>413.5</ele>
        <time>2013-01-24T13:30:56.000Z</time>
      </trkpt>
      <trkpt lat="43.9782" lon="5.1445">
        <ele>413.9</ele>
        <time>2013-01-24T13:30:57.000Z</time>
      </trkpt>
      <trkpt lat="43.97818" lon="5.14451">
        <ele>413.7</ele>
        <time>2013-01-24T13:30:58.000Z</time>
      </trkpt>
      <trkpt lat="43.97815" lon="5.14453">
        <ele>413.7</ele>
        <time>2013-01-24T13:30:59.000Z</time>
      </trkpt>
      <trkpt lat="43.97813" lon="5.14455">
        <ele>413.8</ele>
        <time>2013-01-24T13:31:00.000Z</time>
      </trkpt>
      <trkpt lat="43.97811" lon="5.14457">
        <ele>413.8</ele>
        <time>2013-01-24T13:31:01.000Z</time>
      </trkpt>
      <trkpt lat="43.97809" lon="5.14459">
        <ele>413.8</ele>
        <time>2013-01-24T13:31:02.000Z</time>
      </trkpt>
      <trkpt lat="43.97806" lon="5.14461">
        <ele>413.5</ele>
        <time>2013-01-24T13:31:03.000Z</time>
      </trkpt>
      <trkpt lat="43.97803" lon="5.14463">
        <ele>413.4</ele>
        <time>2013-01-24T13:31:04.000Z</time>
      </trkpt>
      <trkpt lat="43.978" lon="5.14465">
        <ele>414.7</ele>
        <time>2013-01-24T13:31:06.000Z</time>
      </trkpt>
      <trkpt lat="43.97797" lon="5.14468">
        <ele>413.8</ele>
        <time>2013-01-24T13:31:07.000Z</time>
      </trkpt>
      <trkpt lat="43.97793" lon="5.1447">
        <ele>416.2</ele>
        <time>2013-01-24T13:31:09.000Z</time>
      </trkpt>
      <trkpt lat="43.97791" lon="5.14472">
        <ele>416.1</ele>
        <time>2013-01-24T13:31:10.000Z</time>
      </trkpt>
      <trkpt lat="43.97789" lon="5.14474">
        <ele>416.2</ele>
        <time>2013-01-24T13:31:11.000Z</time>
      </trkpt>
      <trkpt lat="43.97786" lon="5.14476">
        <ele>416.2</ele>
        <time>2013-01-24T13:31:12.000Z</time>
      </trkpt>
      <trkpt lat="43.97784" lon="5.14477">
        <ele>416.1</ele>
        <time>2013-01-24T13:31:13.000Z</time>
      </trkpt>
      <trkpt lat="43.97781" lon="5.1448">
        <ele>416</ele>
        <time>2013-01-24T13:31:14.000Z</time>
      </trkpt>
      <trkpt lat="43.97779" lon="5.14482">
        <ele>416.1</ele>
        <time>2013-01-24T13:31:15.000Z</time>
      </trkpt>
      <trkpt lat="43.97777" lon="5.14484">
        <ele>415.9</ele>
        <time>2013-01-24T13:31:16.000Z</time>
      </trkpt>
      <trkpt lat="43.97774" lon="5.14486">
        <ele>416</ele>
        <time>2013-01-24T13:31:17.000Z</time>
      </trkpt>
      <trkpt lat="43.97771" lon="5.14488">
        <ele>415.9</ele>
        <time>2013-01-24T13:31:18.000Z</time>
      </trkpt>
      <trkpt lat="43.97769" lon="5.14489">
        <ele>416.1</ele>
        <time>2013-01-24T13:31:19.000Z</time>
      </trkpt>
      <trkpt lat="43.97767" lon="5.1449">
        <ele>416</ele>
        <time>2013-01-24T13:31:20.000Z</time>
      </trkpt>
      <trkpt lat="43.97764" lon="5.14492">
        <ele>415.9</ele>
        <time>2013-01-24T13:31:21.000Z</time>
      </trkpt>
      <trkpt lat="43.97762" lon="5.14493">
        <ele>416</ele>
        <time>2013-01-24T13:31:22.000Z</time>
      </trkpt>
      <trkpt lat="43.9776" lon="5.14495">
        <ele>415.8</ele>
        <time>2013-01-24T13:31:23.000Z</time>
      </trkpt>
      <trkpt lat="43.97758" lon="5.14497">
        <ele>415.9</ele>
        <time>2013-01-24T13:31:24.000Z</time>
      </trkpt>
      <trkpt lat="43.97755" lon="5.14499">
        <ele>415.7</ele>
        <time>2013-01-24T13:31:25.000Z</time>
      </trkpt>
      <trkpt lat="43.97753" lon="5.14502">
        <ele>415.6</ele>
        <time>2013-01-24T13:31:26.000Z</time>
      </trkpt>
      <trkpt lat="43.97751" lon="5.14504">
        <ele>415.8</ele>
        <time>2013-01-24T13:31:27.000Z</time>
      </trkpt>
      <trkpt lat="43.97749" lon="5.14506">
        <ele>415.8</ele>
        <time>2013-01-24T13:31:28.000Z</time>
      </trkpt>
      <trkpt lat="43.97746" lon="5.14508">
        <ele>415.8</ele>
        <time>2013-01-24T13:31:29.000Z</time>
      </trkpt>
      <trkpt lat="43.97744" lon="5.14511">
        <ele>415.7</ele>
        <time>2013-01-24T13:31:30.000Z</time>
      </trkpt>
      <trkpt lat="43.97741" lon="5.14512">
        <ele>415.6</ele>
        <time>2013-01-24T13:31:31.000Z</time>
      </trkpt>
      <trkpt lat="43.97739" lon="5.14514">
        <ele>415.5</ele>
        <time>2013-01-24T13:31:32.000Z</time>
      </trkpt>
      <trkpt lat="43.97736" lon="5.14515">
        <ele>415.6</ele>
        <time>2013-01-24T13:31:33.000Z</time>
      </trkpt>
      <trkpt lat="43.97734" lon="5.14516">
        <ele>415.5</ele>
        <time>2013-01-24T13:31:34.000Z</time>
      </trkpt>
      <trkpt lat="43.97731" lon="5.14517">
        <ele>415.7</ele>
        <time>2013-01-24T13:31:35.000Z</time>
      </trkpt>
      <trkpt lat="43.97729" lon="5.14519">
        <ele>415.9</ele>
        <time>2013-01-24T13:31:36.000Z</time>
      </trkpt>
      <trkpt lat="43.97727" lon="5.1452">
        <ele>415.9</ele>
        <time>2013-01-24T13:31:37.000Z</time>
      </trkpt>
      <trkpt lat="43.97725" lon="5.14522">
        <ele>416</ele>
        <time>2013-01-24T13:31:38.000Z</time>
      </trkpt>
      <trkpt lat="43.97722" lon="5.14523">
        <ele>416.3</ele>
        <time>2013-01-24T13:31:39.000Z</time>
      </trkpt>
      <trkpt lat="43.9772" lon="5.14525">
        <ele>416.5</ele>
        <time>2013-01-24T13:31:40.000Z</time>
      </trkpt>
      <trkpt lat="43.97718" lon="5.14526">
        <ele>416.5</ele>
        <time>2013-01-24T13:31:41.000Z</time>
      </trkpt>
      <trkpt lat="43.97715" lon="5.14528">
        <ele>416.7</ele>
        <time>2013-01-24T13:31:42.000Z</time>
      </trkpt>
      <trkpt lat="43.97713" lon="5.1453">
        <ele>416.7</ele>
        <time>2013-01-24T13:31:43.000Z</time>
      </trkpt>
      <trkpt lat="43.97711" lon="5.14532">
        <ele>416.7</ele>
        <time>2013-01-24T13:31:44.000Z</time>
      </trkpt>
      <trkpt lat="43.97709" lon="5.14534">
        <ele>416.7</ele>
        <time>2013-01-24T13:31:45.000Z</time>
      </trkpt>
      <trkpt lat="43.97707" lon="5.14536">
        <ele>416.8</ele>
        <time>2013-01-24T13:31:46.000Z</time>
      </trkpt>
      <trkpt lat="43.97705" lon="5.14538">
        <ele>416.7</ele>
        <time>2013-01-24T13:31:47.000Z</time>
      </trkpt>
      <trkpt lat="43.97703" lon="5.14541">
        <ele>416.7</ele>
        <time>2013-01-24T13:31:48.000Z</time>
      </trkpt>
      <trkpt lat="43.97701" lon="5.14543">
        <ele>416.8</ele>
        <time>2013-01-24T13:31:49.000Z</time>
      </trkpt>
      <trkpt lat="43.97699" lon="5.14545">
        <ele>416.8</ele>
        <time>2013-01-24T13:31:50.000Z</time>
      </trkpt>
      <trkpt lat="43.97698" lon="5.14548">
        <ele>416.7</ele>
        <time>2013-01-24T13:31:51.000Z</time>
      </trkpt>
      <trkpt lat="43.97696" lon="5.1455">
        <ele>416.8</ele>
        <time>2013-01-24T13:31:52.000Z</time>
      </trkpt>
      <trkpt lat="43.97694" lon="5.14553">
        <ele>416.7</ele>
        <time>2013-01-24T13:31:53.000Z</time>
      </trkpt>
      <trkpt lat="43.97692" lon="5.14555">
        <ele>416.8</ele>
        <time>2013-01-24T13:31:54.000Z</time>
      </trkpt>
      <trkpt lat="43.9769" lon="5.14557">
        <ele>416.8</ele>
        <time>2013-01-24T13:31:55.000Z</time>
      </trkpt>
      <trkpt lat="43.97687" lon="5.1456">
        <ele>416.8</ele>
        <time>2013-01-24T13:31:56.000Z</time>
      </trkpt>
      <trkpt lat="43.97686" lon="5.14563">
        <ele>416.8</ele>
        <time>2013-01-24T13:31:57.000Z</time>
      </trkpt>
      <trkpt lat="43.97684" lon="5.14565">
        <ele>416.9</ele>
        <time>2013-01-24T13:31:58.000Z</time>
      </trkpt>
      <trkpt lat="43.97682" lon="5.14568">
        <ele>417</ele>
        <time>2013-01-24T13:31:59.000Z</time>
      </trkpt>
      <trkpt lat="43.9768" lon="5.14571">
        <ele>417</ele>
        <time>2013-01-24T13:32:00.000Z</time>
      </trkpt>
      <trkpt lat="43.97678" lon="5.14573">
        <ele>417</ele>
        <time>2013-01-24T13:32:01.000Z</time>
      </trkpt>
      <trkpt lat="43.97676" lon="5.14576">
        <ele>417.1</ele>
        <time>2013-01-24T13:32:02.000Z</time>
      </trkpt>
      <trkpt lat="43.97675" lon="5.14578">
        <ele>417.1</ele>
        <time>2013-01-24T13:32:03.000Z</time>
      </trkpt>
      <trkpt lat="43.97673" lon="5.1458">
        <ele>417.2</ele>
        <time>2013-01-24T13:32:04.000Z</time>
      </trkpt>
      <trkpt lat="43.97669" lon="5.14583">
        <ele>417.4</ele>
        <time>2013-01-24T13:32:06.000Z</time>
      </trkpt>
      <trkpt lat="43.97667" lon="5.14583">
        <ele>417.5</ele>
        <time>2013-01-24T13:32:07.000Z</time>
      </trkpt>
      <trkpt lat="43.97664" lon="5.14582">
        <ele>417.6</ele>
        <time>2013-01-24T13:32:09.000Z</time>
      </trkpt>
      <trkpt lat="43.97662" lon="5.14582">
        <ele>417.4</ele>
        <time>2013-01-24T13:32:10.000Z</time>
      </trkpt>
      <trkpt lat="43.97659" lon="5.14581">
        <ele>417.2</ele>
        <time>2013-01-24T13:32:11.000Z</time>
      </trkpt>
      <trkpt lat="43.97656" lon="5.1458">
        <ele>417</ele>
        <time>2013-01-24T13:32:12.000Z</time>
      </trkpt>
      <trkpt lat="43.97653" lon="5.14579">
        <ele>416.8</ele>
        <time>2013-01-24T13:32:13.000Z</time>
      </trkpt>
      <trkpt lat="43.97649" lon="5.14578">
        <ele>416.5</ele>
        <time>2013-01-24T13:32:14.000Z</time>
      </trkpt>
      <trkpt lat="43.97646" lon="5.14577">
        <ele>416.3</ele>
        <time>2013-01-24T13:32:15.000Z</time>
      </trkpt>
      <trkpt lat="43.97642" lon="5.14577">
        <ele>415.6</ele>
        <time>2013-01-24T13:32:16.000Z</time>
      </trkpt>
      <trkpt lat="43.97638" lon="5.14577">
        <ele>415.8</ele>
        <time>2013-01-24T13:32:17.000Z</time>
      </trkpt>
      <trkpt lat="43.97635" lon="5.14578">
        <ele>415.3</ele>
        <time>2013-01-24T13:32:18.000Z</time>
      </trkpt>
      <trkpt lat="43.97632" lon="5.14578">
        <ele>414.9</ele>
        <time>2013-01-24T13:32:19.000Z</time>
      </trkpt>
      <trkpt lat="43.97629" lon="5.14578">
        <ele>414.7</ele>
        <time>2013-01-24T13:32:20.000Z</time>
      </trkpt>
      <trkpt lat="43.97626" lon="5.14578">
        <ele>416.3</ele>
        <time>2013-01-24T13:32:21.000Z</time>
      </trkpt>
      <trkpt lat="43.97622" lon="5.14576">
        <ele>419.5</ele>
        <time>2013-01-24T13:32:22.000Z</time>
      </trkpt>
      <trkpt lat="43.97619" lon="5.14575">
        <ele>422.3</ele>
        <time>2013-01-24T13:32:23.000Z</time>
      </trkpt>
      <trkpt lat="43.97608" lon="5.14581">
        <ele>425.3</ele>
        <time>2013-01-24T13:32:24.000Z</time>
      </trkpt>
      <trkpt lat="43.97603" lon="5.14581">
        <ele>427.1</ele>
        <time>2013-01-24T13:32:25.000Z</time>
      </trkpt>
      <trkpt lat="43.97599" lon="5.14582">
        <ele>427.1</ele>
        <time>2013-01-24T13:32:26.000Z</time>
      </trkpt>
      <trkpt lat="43.97595" lon="5.14584">
        <ele>428.3</ele>
        <time>2013-01-24T13:32:27.000Z</time>
      </trkpt>
      <trkpt lat="43.97588" lon="5.14584">
        <ele>430.6</ele>
        <time>2013-01-24T13:32:28.000Z</time>
      </trkpt>
      <trkpt lat="43.97586" lon="5.14567">
        <ele>434.7</ele>
        <time>2013-01-24T13:32:29.000Z</time>
      </trkpt>
      <trkpt lat="43.97582" lon="5.14548">
        <ele>438</ele>
        <time>2013-01-24T13:32:30.000Z</time>
      </trkpt>
      <trkpt lat="43.9758" lon="5.14566">
        <ele>439.3</ele>
        <time>2013-01-24T13:32:31.000Z</time>
      </trkpt>
      <trkpt lat="43.97578" lon="5.1457">
        <ele>440.2</ele>
        <time>2013-01-24T13:32:32.000Z</time>
      </trkpt>
      <trkpt lat="43.97574" lon="5.14572">
        <ele>440.4</ele>
        <time>2013-01-24T13:32:33.000Z</time>
      </trkpt>
      <trkpt lat="43.9757" lon="5.14575">
        <ele>439.9</ele>
        <time>2013-01-24T13:32:34.000Z</time>
      </trkpt>
      <trkpt lat="43.97567" lon="5.14577">
        <ele>439.1</ele>
        <time>2013-01-24T13:32:35.000Z</time>
      </trkpt>
      <trkpt lat="43.97564" lon="5.14578">
        <ele>440.3</ele>
        <time>2013-01-24T13:32:36.000Z</time>
      </trkpt>
      <trkpt lat="43.9756" lon="5.14581">
        <ele>439.5</ele>
        <time>2013-01-24T13:32:37.000Z</time>
      </trkpt>
      <trkpt lat="43.97556" lon="5.14581">
        <ele>439.3</ele>
        <time>2013-01-24T13:32:38.000Z</time>
      </trkpt>
      <trkpt lat="43.97553" lon="5.14581">
        <ele>438.6</ele>
        <time>2013-01-24T13:32:39.000Z</time>
      </trkpt>
      <trkpt lat="43.97551" lon="5.14583">
        <ele>438.3</ele>
        <time>2013-01-24T13:32:40.000Z</time>
      </trkpt>
      <trkpt lat="43.97549" lon="5.14584">
        <ele>437.6</ele>
        <time>2013-01-24T13:32:41.000Z</time>
      </trkpt>
      <trkpt lat="43.97547" lon="5.14584">
        <ele>436.9</ele>
        <time>2013-01-24T13:32:42.000Z</time>
      </trkpt>
      <trkpt lat="43.97544" lon="5.14586">
        <ele>436.3</ele>
        <time>2013-01-24T13:32:43.000Z</time>
      </trkpt>
      <trkpt lat="43.97541" lon="5.14586">
        <ele>435.3</ele>
        <time>2013-01-24T13:32:44.000Z</time>
      </trkpt>
      <trkpt lat="43.97538" lon="5.14587">
        <ele>434.3</ele>
        <time>2013-01-24T13:32:45.000Z</time>
      </trkpt>
      <trkpt lat="43.97534" lon="5.14587">
        <ele>433.3</ele>
        <time>2013-01-24T13:32:46.000Z</time>
      </trkpt>
      <trkpt lat="43.97529" lon="5.14585">
        <ele>432.6</ele>
        <time>2013-01-24T13:32:47.000Z</time>
      </trkpt>
      <trkpt lat="43.97525" lon="5.14585">
        <ele>431.4</ele>
        <time>2013-01-24T13:32:48.000Z</time>
      </trkpt>
      <trkpt lat="43.97521" lon="5.14584">
        <ele>430.7</ele>
        <time>2013-01-24T13:32:49.000Z</time>
      </trkpt>
      <trkpt lat="43.97517" lon="5.14584">
        <ele>430.7</ele>
        <time>2013-01-24T13:32:50.000Z</time>
      </trkpt>
      <trkpt lat="43.97513" lon="5.14584">
        <ele>430.7</ele>
        <time>2013-01-24T13:32:51.000Z</time>
      </trkpt>
      <trkpt lat="43.9751" lon="5.14584">
        <ele>430.3</ele>
        <time>2013-01-24T13:32:52.000Z</time>
      </trkpt>
      <trkpt lat="43.97507" lon="5.14583">
        <ele>429.3</ele>
        <time>2013-01-24T13:32:53.000Z</time>
      </trkpt>
      <trkpt lat="43.97504" lon="5.14583">
        <ele>428.7</ele>
        <time>2013-01-24T13:32:54.000Z</time>
      </trkpt>
      <trkpt lat="43.97501" lon="5.14583">
        <ele>428.3</ele>
        <time>2013-01-24T13:32:55.000Z</time>
      </trkpt>
      <trkpt lat="43.97498" lon="5.14583">
        <ele>427.6</ele>
        <time>2013-01-24T13:32:56.000Z</time>
      </trkpt>
      <trkpt lat="43.97494" lon="5.14583">
        <ele>426.7</ele>
        <time>2013-01-24T13:32:58.000Z</time>
      </trkpt>
      <trkpt lat="43.97492" lon="5.14584">
        <ele>426.5</ele>
        <time>2013-01-24T13:32:59.000Z</time>
      </trkpt>
      <trkpt lat="43.9749" lon="5.14584">
        <ele>426.3</ele>
        <time>2013-01-24T13:33:00.000Z</time>
      </trkpt>
      <trkpt lat="43.97488" lon="5.14586">
        <ele>426.1</ele>
        <time>2013-01-24T13:33:01.000Z</time>
      </trkpt>
      <trkpt lat="43.97485" lon="5.14587">
        <ele>426.1</ele>
        <time>2013-01-24T13:33:02.000Z</time>
      </trkpt>
      <trkpt lat="43.97483" lon="5.14588">
        <ele>426.2</ele>
        <time>2013-01-24T13:33:03.000Z</time>
      </trkpt>
      <trkpt lat="43.97481" lon="5.14589">
        <ele>426.4</ele>
        <time>2013-01-24T13:33:04.000Z</time>
      </trkpt>
      <trkpt lat="43.97479" lon="5.1459">
        <ele>426.3</ele>
        <time>2013-01-24T13:33:05.000Z</time>
      </trkpt>
      <trkpt lat="43.97475" lon="5.14593">
        <ele>426</ele>
        <time>2013-01-24T13:33:07.000Z</time>
      </trkpt>
      <trkpt lat="43.97473" lon="5.14594">
        <ele>426</ele>
        <time>2013-01-24T13:33:08.000Z</time>
      </trkpt>
      <trkpt lat="43.97468" lon="5.14596">
        <ele>426.2</ele>
        <time>2013-01-24T13:33:10.000Z</time>
      </trkpt>
      <trkpt lat="43.97466" lon="5.14597">
        <ele>426.5</ele>
        <time>2013-01-24T13:33:11.000Z</time>
      </trkpt>
      <trkpt lat="43.97462" lon="5.14597">
        <ele>426.5</ele>
        <time>2013-01-24T13:33:13.000Z</time>
      </trkpt>
      <trkpt lat="43.9746" lon="5.14597">
        <ele>426</ele>
        <time>2013-01-24T13:33:14.000Z</time>
      </trkpt>
      <trkpt lat="43.97456" lon="5.14598">
        <ele>425.8</ele>
        <time>2013-01-24T13:33:17.000Z</time>
      </trkpt>
      <trkpt lat="43.97454" lon="5.14598">
        <ele>425.5</ele>
        <time>2013-01-24T13:33:18.000Z</time>
      </trkpt>
      <trkpt lat="43.9745" lon="5.14597">
        <ele>425.1</ele>
        <time>2013-01-24T13:33:20.000Z</time>
      </trkpt>
      <trkpt lat="43.97448" lon="5.14597">
        <ele>424.7</ele>
        <time>2013-01-24T13:33:21.000Z</time>
      </trkpt>
      <trkpt lat="43.97446" lon="5.14598">
        <ele>424.2</ele>
        <time>2013-01-24T13:33:22.000Z</time>
      </trkpt>
      <trkpt lat="43.97443" lon="5.14599">
        <ele>424.1</ele>
        <time>2013-01-24T13:33:23.000Z</time>
      </trkpt>
      <trkpt lat="43.9744" lon="5.14599">
        <ele>424.3</ele>
        <time>2013-01-24T13:33:24.000Z</time>
      </trkpt>
      <trkpt lat="43.97437" lon="5.14599">
        <ele>424.9</ele>
        <time>2013-01-24T13:33:25.000Z</time>
      </trkpt>
      <trkpt lat="43.97434" lon="5.14595">
        <ele>426.6</ele>
        <time>2013-01-24T13:33:26.000Z</time>
      </trkpt>
      <trkpt lat="43.97432" lon="5.14604">
        <ele>424.7</ele>
        <time>2013-01-24T13:33:27.000Z</time>
      </trkpt>
      <trkpt lat="43.97429" lon="5.14605">
        <ele>423.7</ele>
        <time>2013-01-24T13:33:28.000Z</time>
      </trkpt>
      <trkpt lat="43.97426" lon="5.14608">
        <ele>422.6</ele>
        <time>2013-01-24T13:33:29.000Z</time>
      </trkpt>
      <trkpt lat="43.97425" lon="5.14612">
        <ele>420.5</ele>
        <time>2013-01-24T13:33:30.000Z</time>
      </trkpt>
      <trkpt lat="43.97422" lon="5.14615">
        <ele>418.9</ele>
        <time>2013-01-24T13:33:31.000Z</time>
      </trkpt>
      <trkpt lat="43.97418" lon="5.14617">
        <ele>417.5</ele>
        <time>2013-01-24T13:33:33.000Z</time>
      </trkpt>
      <trkpt lat="43.97416" lon="5.14617">
        <ele>417.2</ele>
        <time>2013-01-24T13:33:34.000Z</time>
      </trkpt>
      <trkpt lat="43.97416" lon="5.14617">
        <ele>416.9</ele>
        <time>2013-01-24T13:33:36.000Z</time>
      </trkpt>
      <trkpt lat="43.97421" lon="5.14616">
        <ele>417.1</ele>
        <time>2013-01-24T13:33:37.000Z</time>
      </trkpt>
      <trkpt lat="43.97418" lon="5.14619">
        <ele>417.5</ele>
        <time>2013-01-24T13:33:45.000Z</time>
      </trkpt>
      <trkpt lat="43.97417" lon="5.14621">
        <ele>417.1</ele>
        <time>2013-01-24T13:33:46.000Z</time>
      </trkpt>
      <trkpt lat="43.97412" lon="5.14623">
        <ele>418.8</ele>
        <time>2013-01-24T13:33:47.000Z</time>
      </trkpt>
      <trkpt lat="43.97408" lon="5.14623">
        <ele>418.5</ele>
        <time>2013-01-24T13:33:49.000Z</time>
      </trkpt>
      <trkpt lat="43.97407" lon="5.1462">
        <ele>420.4</ele>
        <time>2013-01-24T13:33:50.000Z</time>
      </trkpt>
      <trkpt lat="43.97405" lon="5.1461">
        <ele>423.3</ele>
        <time>2013-01-24T13:33:51.000Z</time>
      </trkpt>
      <trkpt lat="43.97401" lon="5.14593">
        <ele>426</ele>
        <time>2013-01-24T13:33:52.000Z</time>
      </trkpt>
      <trkpt lat="43.97394" lon="5.14587">
        <ele>427.7</ele>
        <time>2013-01-24T13:33:53.000Z</time>
      </trkpt>
      <trkpt lat="43.97391" lon="5.14587">
        <ele>429.4</ele>
        <time>2013-01-24T13:33:54.000Z</time>
      </trkpt>
      <trkpt lat="43.97384" lon="5.14598">
        <ele>428.1</ele>
        <time>2013-01-24T13:33:55.000Z</time>
      </trkpt>
      <trkpt lat="43.9738" lon="5.146">
        <ele>427.7</ele>
        <time>2013-01-24T13:33:56.000Z</time>
      </trkpt>
      <trkpt lat="43.97378" lon="5.14601">
        <ele>427.2</ele>
        <time>2013-01-24T13:33:57.000Z</time>
      </trkpt>
      <trkpt lat="43.97371" lon="5.14597">
        <ele>433.9</ele>
        <time>2013-01-24T13:33:58.000Z</time>
      </trkpt>
      <trkpt lat="43.9737" lon="5.14604">
        <ele>431.3</ele>
        <time>2013-01-24T13:33:59.000Z</time>
      </trkpt>
      <trkpt lat="43.9737" lon="5.1461">
        <ele>428.5</ele>
        <time>2013-01-24T13:34:00.000Z</time>
      </trkpt>
      <trkpt lat="43.97371" lon="5.1462">
        <ele>424.4</ele>
        <time>2013-01-24T13:34:01.000Z</time>
      </trkpt>
      <trkpt lat="43.97369" lon="5.14624">
        <ele>423.2</ele>
        <time>2013-01-24T13:34:02.000Z</time>
      </trkpt>
      <trkpt lat="43.97365" lon="5.14626">
        <ele>426</ele>
        <time>2013-01-24T13:34:03.000Z</time>
      </trkpt>
      <trkpt lat="43.97363" lon="5.14621">
        <ele>434.4</ele>
        <time>2013-01-24T13:34:05.000Z</time>
      </trkpt>
      <trkpt lat="43.97354" lon="5.14621">
        <ele>435.5</ele>
        <time>2013-01-24T13:34:06.000Z</time>
      </trkpt>
      <trkpt lat="43.97354" lon="5.14628">
        <ele>440.1</ele>
        <time>2013-01-24T13:34:07.000Z</time>
      </trkpt>
      <trkpt lat="43.97356" lon="5.14639">
        <ele>439.3</ele>
        <time>2013-01-24T13:34:08.000Z</time>
      </trkpt>
      <trkpt lat="43.97353" lon="5.14646">
        <ele>438.4</ele>
        <time>2013-01-24T13:34:09.000Z</time>
      </trkpt>
      <trkpt lat="43.97354" lon="5.14652">
        <ele>435.6</ele>
        <time>2013-01-24T13:34:10.000Z</time>
      </trkpt>
      <trkpt lat="43.97355" lon="5.14656">
        <ele>432</ele>
        <time>2013-01-24T13:34:11.000Z</time>
      </trkpt>
      <trkpt lat="43.97353" lon="5.14659">
        <ele>430.8</ele>
        <time>2013-01-24T13:34:12.000Z</time>
      </trkpt>
      <trkpt lat="43.97351" lon="5.14661">
        <ele>430.4</ele>
        <time>2013-01-24T13:34:13.000Z</time>
      </trkpt>
      <trkpt lat="43.97349" lon="5.14665">
        <ele>429.5</ele>
        <time>2013-01-24T13:34:14.000Z</time>
      </trkpt>
      <trkpt lat="43.97347" lon="5.14668">
        <ele>428.5</ele>
        <time>2013-01-24T13:34:15.000Z</time>
      </trkpt>
      <trkpt lat="43.97346" lon="5.14672">
        <ele>427.5</ele>
        <time>2013-01-24T13:34:16.000Z</time>
      </trkpt>
      <trkpt lat="43.97345" lon="5.14676">
        <ele>425.5</ele>
        <time>2013-01-24T13:34:17.000Z</time>
      </trkpt>
      <trkpt lat="43.97347" lon="5.14679">
        <ele>419.1</ele>
        <time>2013-01-24T13:34:21.000Z</time>
      </trkpt>
      <trkpt lat="43.97348" lon="5.14681">
        <ele>418</ele>
        <time>2013-01-24T13:34:22.000Z</time>
      </trkpt>
      <trkpt lat="43.97349" lon="5.14687">
        <ele>415.1</ele>
        <time>2013-01-24T13:34:26.000Z</time>
      </trkpt>
      <trkpt lat="43.97349" lon="5.14688">
        <ele>414.8</ele>
        <time>2013-01-24T13:34:27.000Z</time>
      </trkpt>
      <trkpt lat="43.97352" lon="5.1469">
        <ele>414.2</ele>
        <time>2013-01-24T13:34:32.000Z</time>
      </trkpt>
      <trkpt lat="43.97353" lon="5.14691">
        <ele>414.2</ele>
        <time>2013-01-24T13:34:33.000Z</time>
      </trkpt>
      <trkpt lat="43.97356" lon="5.14694">
        <ele>415.5</ele>
        <time>2013-01-24T13:34:39.000Z</time>
      </trkpt>
      <trkpt lat="43.97357" lon="5.14693">
        <ele>415.8</ele>
        <time>2013-01-24T13:34:40.000Z</time>
      </trkpt>
      <trkpt lat="43.97362" lon="5.14694">
        <ele>418.9</ele>
        <time>2013-01-24T13:34:48.000Z</time>
      </trkpt>
      <trkpt lat="43.97362" lon="5.14694">
        <ele>418.6</ele>
        <time>2013-01-24T13:34:49.000Z</time>
      </trkpt>
      <trkpt lat="43.97365" lon="5.14689">
        <ele>417.1</ele>
        <time>2013-01-24T13:34:51.000Z</time>
      </trkpt>
      <trkpt lat="43.97367" lon="5.14687">
        <ele>416.1</ele>
        <time>2013-01-24T13:34:52.000Z</time>
      </trkpt>
      <trkpt lat="43.97369" lon="5.14682">
        <ele>414.7</ele>
        <time>2013-01-24T13:34:54.000Z</time>
      </trkpt>
      <trkpt lat="43.9737" lon="5.14682">
        <ele>414.1</ele>
        <time>2013-01-24T13:34:55.000Z</time>
      </trkpt>
      <trkpt lat="43.97369" lon="5.14688">
        <ele>418.4</ele>
        <time>2013-01-24T13:34:56.000Z</time>
      </trkpt>
      <trkpt lat="43.97373" lon="5.14687">
        <ele>418.5</ele>
        <time>2013-01-24T13:35:03.000Z</time>
      </trkpt>
      <trkpt lat="43.97374" lon="5.14687">
        <ele>418.5</ele>
        <time>2013-01-24T13:35:04.000Z</time>
      </trkpt>
      <trkpt lat="43.97375" lon="5.14681">
        <ele>418.3</ele>
        <time>2013-01-24T13:35:21.000Z</time>
      </trkpt>
      <trkpt lat="43.97375" lon="5.1468">
        <ele>418.5</ele>
        <time>2013-01-24T13:35:22.000Z</time>
      </trkpt>
      <trkpt lat="43.97376" lon="5.14685">
        <ele>416.2</ele>
        <time>2013-01-24T13:35:43.000Z</time>
      </trkpt>
      <trkpt lat="43.97375" lon="5.14687">
        <ele>416</ele>
        <time>2013-01-24T13:35:44.000Z</time>
      </trkpt>
      <trkpt lat="43.97372" lon="5.14691">
        <ele>417.1</ele>
        <time>2013-01-24T13:35:50.000Z</time>
      </trkpt>
      <trkpt lat="43.97372" lon="5.14692">
        <ele>417.2</ele>
        <time>2013-01-24T13:35:51.000Z</time>
      </trkpt>
      <trkpt lat="43.9737" lon="5.14697">
        <ele>416.7</ele>
        <time>2013-01-24T13:36:00.000Z</time>
      </trkpt>
      <trkpt lat="43.9737" lon="5.14698">
        <ele>415.9</ele>
        <time>2013-01-24T13:36:01.000Z</time>
      </trkpt>
      <trkpt lat="43.97368" lon="5.14703">
        <ele>414.7</ele>
        <time>2013-01-24T13:36:07.000Z</time>
      </trkpt>
      <trkpt lat="43.97367" lon="5.14704">
        <ele>414.4</ele>
        <time>2013-01-24T13:36:08.000Z</time>
      </trkpt>
      <trkpt lat="43.97365" lon="5.14699">
        <ele>410.4</ele>
        <time>2013-01-24T13:36:25.000Z</time>
      </trkpt>
      <trkpt lat="43.97364" lon="5.14697">
        <ele>410</ele>
        <time>2013-01-24T13:36:26.000Z</time>
      </trkpt>
      <trkpt lat="43.97361" lon="5.14693">
        <ele>408.2</ele>
        <time>2013-01-24T13:36:35.000Z</time>
      </trkpt>
      <trkpt lat="43.97361" lon="5.14693">
        <ele>407.9</ele>
        <time>2013-01-24T13:36:36.000Z</time>
      </trkpt>
      <trkpt lat="43.97357" lon="5.14692">
        <ele>407.2</ele>
        <time>2013-01-24T13:36:39.000Z</time>
      </trkpt>
      <trkpt lat="43.97355" lon="5.14692">
        <ele>407.4</ele>
        <time>2013-01-24T13:36:40.000Z</time>
      </trkpt>
      <trkpt lat="43.97352" lon="5.14696">
        <ele>406</ele>
        <time>2013-01-24T13:36:46.000Z</time>
      </trkpt>
      <trkpt lat="43.97352" lon="5.14697">
        <ele>405.7</ele>
        <time>2013-01-24T13:36:47.000Z</time>
      </trkpt>
      <trkpt lat="43.97351" lon="5.14702">
        <ele>404.8</ele>
        <time>2013-01-24T13:36:49.000Z</time>
      </trkpt>
      <trkpt lat="43.9735" lon="5.14703">
        <ele>403.7</ele>
        <time>2013-01-24T13:36:50.000Z</time>
      </trkpt>
      <trkpt lat="43.97347" lon="5.14706">
        <ele>404</ele>
        <time>2013-01-24T13:37:25.000Z</time>
      </trkpt>
      <trkpt lat="43.97347" lon="5.14708">
        <ele>405</ele>
        <time>2013-01-24T13:37:26.000Z</time>
      </trkpt>
      <trkpt lat="43.97346" lon="5.14713">
        <ele>405.9</ele>
        <time>2013-01-24T13:37:31.000Z</time>
      </trkpt>
      <trkpt lat="43.97347" lon="5.14715">
        <ele>405.2</ele>
        <time>2013-01-24T13:37:32.000Z</time>
      </trkpt>
      <trkpt lat="43.97345" lon="5.1472">
        <ele>406.4</ele>
        <time>2013-01-24T13:37:36.000Z</time>
      </trkpt>
      <trkpt lat="43.97344" lon="5.14721">
        <ele>406.5</ele>
        <time>2013-01-24T13:37:37.000Z</time>
      </trkpt>
      <trkpt lat="43.97348" lon="5.14718">
        <ele>404.4</ele>
        <time>2013-01-24T13:38:37.000Z</time>
      </trkpt>
      <trkpt lat="43.97348" lon="5.14716">
        <ele>404</ele>
        <time>2013-01-24T13:38:38.000Z</time>
      </trkpt>
      <trkpt lat="43.9735" lon="5.14712">
        <ele>403.4</ele>
        <time>2013-01-24T13:38:42.000Z</time>
      </trkpt>
      <trkpt lat="43.9735" lon="5.1471">
        <ele>402.7</ele>
        <time>2013-01-24T13:38:43.000Z</time>
      </trkpt>
      <trkpt lat="43.9735" lon="5.14705">
        <ele>407.3</ele>
        <time>2013-01-24T13:38:54.000Z</time>
      </trkpt>
      <trkpt lat="43.9735" lon="5.14703">
        <ele>407.2</ele>
        <time>2013-01-24T13:38:55.000Z</time>
      </trkpt>
      <trkpt lat="43.97352" lon="5.14697">
        <ele>405.2</ele>
        <time>2013-01-24T13:38:56.000Z</time>
      </trkpt>
      <trkpt lat="43.97355" lon="5.14694">
        <ele>404.5</ele>
        <time>2013-01-24T13:39:11.000Z</time>
      </trkpt>
      <trkpt lat="43.97355" lon="5.14692">
        <ele>404.9</ele>
        <time>2013-01-24T13:39:12.000Z</time>
      </trkpt>
      <trkpt lat="43.97356" lon="5.14686">
        <ele>403.9</ele>
        <time>2013-01-24T13:39:20.000Z</time>
      </trkpt>
      <trkpt lat="43.97355" lon="5.14685">
        <ele>403.8</ele>
        <time>2013-01-24T13:39:21.000Z</time>
      </trkpt>
      <trkpt lat="43.97353" lon="5.14686">
        <ele>404.2</ele>
        <time>2013-01-24T13:39:22.000Z</time>
      </trkpt>
      <trkpt lat="43.97351" lon="5.14687">
        <ele>403.9</ele>
        <time>2013-01-24T13:39:23.000Z</time>
      </trkpt>
      <trkpt lat="43.97348" lon="5.1469">
        <ele>403</ele>
        <time>2013-01-24T13:39:24.000Z</time>
      </trkpt>
      <trkpt lat="43.97345" lon="5.14695">
        <ele>401.6</ele>
        <time>2013-01-24T13:39:25.000Z</time>
      </trkpt>
      <trkpt lat="43.97341" lon="5.147">
        <ele>401.3</ele>
        <time>2013-01-24T13:39:26.000Z</time>
      </trkpt>
      <trkpt lat="43.97338" lon="5.14705">
        <ele>401.6</ele>
        <time>2013-01-24T13:39:27.000Z</time>
      </trkpt>
      <trkpt lat="43.97335" lon="5.14707">
        <ele>401.6</ele>
        <time>2013-01-24T13:39:28.000Z</time>
      </trkpt>
      <trkpt lat="43.97333" lon="5.14708">
        <ele>401.4</ele>
        <time>2013-01-24T13:39:29.000Z</time>
      </trkpt>
      <trkpt lat="43.97329" lon="5.14711">
        <ele>401.4</ele>
        <time>2013-01-24T13:39:31.000Z</time>
      </trkpt>
      <trkpt lat="43.97327" lon="5.14712">
        <ele>401.6</ele>
        <time>2013-01-24T13:39:32.000Z</time>
      </trkpt>
      <trkpt lat="43.97325" lon="5.14713">
        <ele>401.6</ele>
        <time>2013-01-24T13:39:33.000Z</time>
      </trkpt>
      <trkpt lat="43.97323" lon="5.14714">
        <ele>402.1</ele>
        <time>2013-01-24T13:39:34.000Z</time>
      </trkpt>
      <trkpt lat="43.9732" lon="5.14717">
        <ele>402.8</ele>
        <time>2013-01-24T13:39:36.000Z</time>
      </trkpt>
      <trkpt lat="43.97319" lon="5.14719">
        <ele>402.8</ele>
        <time>2013-01-24T13:39:37.000Z</time>
      </trkpt>
      <trkpt lat="43.97318" lon="5.14724">
        <ele>402.7</ele>
        <time>2013-01-24T13:39:39.000Z</time>
      </trkpt>
      <trkpt lat="43.97318" lon="5.14726">
        <ele>402.7</ele>
        <time>2013-01-24T13:39:40.000Z</time>
      </trkpt>
      <trkpt lat="43.97318" lon="5.1473">
        <ele>402.4</ele>
        <time>2013-01-24T13:39:42.000Z</time>
      </trkpt>
      <trkpt lat="43.97317" lon="5.14733">
        <ele>402.4</ele>
        <time>2013-01-24T13:39:43.000Z</time>
      </trkpt>
      <trkpt lat="43.97317" lon="5.14737">
        <ele>401.7</ele>
        <time>2013-01-24T13:39:45.000Z</time>
      </trkpt>
      <trkpt lat="43.97317" lon="5.14739">
        <ele>401.9</ele>
        <time>2013-01-24T13:39:46.000Z</time>
      </trkpt>
      <trkpt lat="43.97316" lon="5.14743">
        <ele>402</ele>
        <time>2013-01-24T13:39:48.000Z</time>
      </trkpt>
      <trkpt lat="43.97316" lon="5.14746">
        <ele>402.2</ele>
        <time>2013-01-24T13:39:49.000Z</time>
      </trkpt>
      <trkpt lat="43.97315" lon="5.1475">
        <ele>401.9</ele>
        <time>2013-01-24T13:39:51.000Z</time>
      </trkpt>
      <trkpt lat="43.97315" lon="5.14753">
        <ele>402</ele>
        <time>2013-01-24T13:39:52.000Z</time>
      </trkpt>
      <trkpt lat="43.97314" lon="5.14758">
        <ele>402.2</ele>
        <time>2013-01-24T13:39:54.000Z</time>
      </trkpt>
      <trkpt lat="43.97314" lon="5.1476">
        <ele>402.2</ele>
        <time>2013-01-24T13:39:55.000Z</time>
      </trkpt>
      <trkpt lat="43.97313" lon="5.14765">
        <ele>402.3</ele>
        <time>2013-01-24T13:39:57.000Z</time>
      </trkpt>
      <trkpt lat="43.97313" lon="5.14768">
        <ele>402.3</ele>
        <time>2013-01-24T13:39:58.000Z</time>
      </trkpt>
      <trkpt lat="43.97312" lon="5.14773">
        <ele>402.4</ele>
        <time>2013-01-24T13:40:00.000Z</time>
      </trkpt>
      <trkpt lat="43.97312" lon="5.14775">
        <ele>402.9</ele>
        <time>2013-01-24T13:40:01.000Z</time>
      </trkpt>
      <trkpt lat="43.97311" lon="5.14777">
        <ele>403.2</ele>
        <time>2013-01-24T13:40:02.000Z</time>
      </trkpt>
      <trkpt lat="43.97309" lon="5.14782">
        <ele>404.3</ele>
        <time>2013-01-24T13:40:04.000Z</time>
      </trkpt>
      <trkpt lat="43.97308" lon="5.14787">
        <ele>404.1</ele>
        <time>2013-01-24T13:40:06.000Z</time>
      </trkpt>
      <trkpt lat="43.97308" lon="5.14789">
        <ele>404</ele>
        <time>2013-01-24T13:40:07.000Z</time>
      </trkpt>
      <trkpt lat="43.97306" lon="5.14793">
        <ele>404.2</ele>
        <time>2013-01-24T13:40:09.000Z</time>
      </trkpt>
      <trkpt lat="43.97306" lon="5.14796">
        <ele>404.1</ele>
        <time>2013-01-24T13:40:10.000Z</time>
      </trkpt>
      <trkpt lat="43.97305" lon="5.148">
        <ele>404.2</ele>
        <time>2013-01-24T13:40:12.000Z</time>
      </trkpt>
      <trkpt lat="43.97305" lon="5.14803">
        <ele>404.4</ele>
        <time>2013-01-24T13:40:13.000Z</time>
      </trkpt>
      <trkpt lat="43.97305" lon="5.14808">
        <ele>405.2</ele>
        <time>2013-01-24T13:40:15.000Z</time>
      </trkpt>
      <trkpt lat="43.97304" lon="5.1481">
        <ele>405.3</ele>
        <time>2013-01-24T13:40:16.000Z</time>
      </trkpt>
      <trkpt lat="43.97304" lon="5.14815">
        <ele>405.7</ele>
        <time>2013-01-24T13:40:18.000Z</time>
      </trkpt>
      <trkpt lat="43.97304" lon="5.14817">
        <ele>405.6</ele>
        <time>2013-01-24T13:40:19.000Z</time>
      </trkpt>
      <trkpt lat="43.97304" lon="5.14823">
        <ele>405.8</ele>
        <time>2013-01-24T13:40:21.000Z</time>
      </trkpt>
      <trkpt lat="43.97304" lon="5.14825">
        <ele>406</ele>
        <time>2013-01-24T13:40:22.000Z</time>
      </trkpt>
      <trkpt lat="43.97304" lon="5.1483">
        <ele>406</ele>
        <time>2013-01-24T13:40:24.000Z</time>
      </trkpt>
      <trkpt lat="43.97304" lon="5.14832">
        <ele>406.3</ele>
        <time>2013-01-24T13:40:25.000Z</time>
      </trkpt>
      <trkpt lat="43.97304" lon="5.14837">
        <ele>406.7</ele>
        <time>2013-01-24T13:40:27.000Z</time>
      </trkpt>
      <trkpt lat="43.97304" lon="5.14839">
        <ele>407.1</ele>
        <time>2013-01-24T13:40:28.000Z</time>
      </trkpt>
      <trkpt lat="43.97304" lon="5.14844">
        <ele>407.4</ele>
        <time>2013-01-24T13:40:30.000Z</time>
      </trkpt>
      <trkpt lat="43.97303" lon="5.14846">
        <ele>407.4</ele>
        <time>2013-01-24T13:40:31.000Z</time>
      </trkpt>
      <trkpt lat="43.97302" lon="5.1485">
        <ele>407.5</ele>
        <time>2013-01-24T13:40:33.000Z</time>
      </trkpt>
      <trkpt lat="43.97301" lon="5.14852">
        <ele>407.6</ele>
        <time>2013-01-24T13:40:34.000Z</time>
      </trkpt>
      <trkpt lat="43.97299" lon="5.14856">
        <ele>408</ele>
        <time>2013-01-24T13:40:36.000Z</time>
      </trkpt>
      <trkpt lat="43.97298" lon="5.14858">
        <ele>408.3</ele>
        <time>2013-01-24T13:40:37.000Z</time>
      </trkpt>
      <trkpt lat="43.97296" lon="5.14862">
        <ele>408.4</ele>
        <time>2013-01-24T13:40:39.000Z</time>
      </trkpt>
      <trkpt lat="43.97295" lon="5.14864">
        <ele>408.5</ele>
        <time>2013-01-24T13:40:40.000Z</time>
      </trkpt>
      <trkpt lat="43.97294" lon="5.14869">
        <ele>409</ele>
        <time>2013-01-24T13:40:43.000Z</time>
      </trkpt>
      <trkpt lat="43.97294" lon="5.14871">
        <ele>409.2</ele>
        <time>2013-01-24T13:40:44.000Z</time>
      </trkpt>
      <trkpt lat="43.97293" lon="5.14875">
        <ele>409.4</ele>
        <time>2013-01-24T13:40:46.000Z</time>
      </trkpt>
      <trkpt lat="43.97293" lon="5.14878">
        <ele>409.4</ele>
        <time>2013-01-24T13:40:47.000Z</time>
      </trkpt>
      <trkpt lat="43.97292" lon="5.14884">
        <ele>409.8</ele>
        <time>2013-01-24T13:40:50.000Z</time>
      </trkpt>
      <trkpt lat="43.97292" lon="5.14886">
        <ele>410</ele>
        <time>2013-01-24T13:40:51.000Z</time>
      </trkpt>
      <trkpt lat="43.97291" lon="5.14892">
        <ele>410.4</ele>
        <time>2013-01-24T13:40:54.000Z</time>
      </trkpt>
      <trkpt lat="43.9729" lon="5.14893">
        <ele>410.7</ele>
        <time>2013-01-24T13:40:55.000Z</time>
      </trkpt>
      <trkpt lat="43.97289" lon="5.14897">
        <ele>410.9</ele>
        <time>2013-01-24T13:40:57.000Z</time>
      </trkpt>
      <trkpt lat="43.97289" lon="5.14899">
        <ele>410.9</ele>
        <time>2013-01-24T13:40:58.000Z</time>
      </trkpt>
      <trkpt lat="43.97288" lon="5.14905">
        <ele>411.3</ele>
        <time>2013-01-24T13:41:01.000Z</time>
      </trkpt>
      <trkpt lat="43.97287" lon="5.14907">
        <ele>411.5</ele>
        <time>2013-01-24T13:41:02.000Z</time>
      </trkpt>
      <trkpt lat="43.97286" lon="5.14913">
        <ele>411.5</ele>
        <time>2013-01-24T13:41:05.000Z</time>
      </trkpt>
      <trkpt lat="43.97286" lon="5.14915">
        <ele>411.6</ele>
        <time>2013-01-24T13:41:06.000Z</time>
      </trkpt>
      <trkpt lat="43.97285" lon="5.14918">
        <ele>411.9</ele>
        <time>2013-01-24T13:41:08.000Z</time>
      </trkpt>
      <trkpt lat="43.97285" lon="5.14921">
        <ele>411.9</ele>
        <time>2013-01-24T13:41:09.000Z</time>
      </trkpt>
      <trkpt lat="43.97283" lon="5.14925">
        <ele>412.1</ele>
        <time>2013-01-24T13:41:11.000Z</time>
      </trkpt>
      <trkpt lat="43.97283" lon="5.14927">
        <ele>412.4</ele>
        <time>2013-01-24T13:41:12.000Z</time>
      </trkpt>
      <trkpt lat="43.97283" lon="5.14933">
        <ele>413.4</ele>
        <time>2013-01-24T13:41:15.000Z</time>
      </trkpt>
      <trkpt lat="43.97283" lon="5.14934">
        <ele>413.9</ele>
        <time>2013-01-24T13:41:16.000Z</time>
      </trkpt>
      <trkpt lat="43.97284" lon="5.14939">
        <ele>414.6</ele>
        <time>2013-01-24T13:41:19.000Z</time>
      </trkpt>
      <trkpt lat="43.97284" lon="5.14941">
        <ele>415.4</ele>
        <time>2013-01-24T13:41:20.000Z</time>
      </trkpt>
      <trkpt lat="43.9728" lon="5.14942">
        <ele>416.3</ele>
        <time>2013-01-24T13:41:24.000Z</time>
      </trkpt>
      <trkpt lat="43.9728" lon="5.14942">
        <ele>417.8</ele>
        <time>2013-01-24T13:41:25.000Z</time>
      </trkpt>
      <trkpt lat="43.97276" lon="5.14941">
        <ele>419.4</ele>
        <time>2013-01-24T13:41:28.000Z</time>
      </trkpt>
      <trkpt lat="43.97275" lon="5.1494">
        <ele>420.5</ele>
        <time>2013-01-24T13:41:29.000Z</time>
      </trkpt>
      <trkpt lat="43.9727" lon="5.1494">
        <ele>421.7</ele>
        <time>2013-01-24T13:41:33.000Z</time>
      </trkpt>
      <trkpt lat="43.97269" lon="5.1494">
        <ele>421.7</ele>
        <time>2013-01-24T13:41:34.000Z</time>
      </trkpt>
      <trkpt lat="43.97266" lon="5.1494">
        <ele>421.8</ele>
        <time>2013-01-24T13:41:36.000Z</time>
      </trkpt>
      <trkpt lat="43.97264" lon="5.1494">
        <ele>421.4</ele>
        <time>2013-01-24T13:41:37.000Z</time>
      </trkpt>
      <trkpt lat="43.97261" lon="5.14941">
        <ele>421.4</ele>
        <time>2013-01-24T13:41:39.000Z</time>
      </trkpt>
      <trkpt lat="43.97259" lon="5.14942">
        <ele>421.3</ele>
        <time>2013-01-24T13:41:40.000Z</time>
      </trkpt>
      <trkpt lat="43.97255" lon="5.14943">
        <ele>422.4</ele>
        <time>2013-01-24T13:41:43.000Z</time>
      </trkpt>
      <trkpt lat="43.97254" lon="5.14944">
        <ele>422.5</ele>
        <time>2013-01-24T13:41:44.000Z</time>
      </trkpt>
      <trkpt lat="43.97251" lon="5.14946">
        <ele>422.3</ele>
        <time>2013-01-24T13:41:46.000Z</time>
      </trkpt>
      <trkpt lat="43.9725" lon="5.14947">
        <ele>422.2</ele>
        <time>2013-01-24T13:41:47.000Z</time>
      </trkpt>
      <trkpt lat="43.97247" lon="5.14951">
        <ele>422.6</ele>
        <time>2013-01-24T13:41:50.000Z</time>
      </trkpt>
      <trkpt lat="43.97247" lon="5.14953">
        <ele>423</ele>
        <time>2013-01-24T13:41:51.000Z</time>
      </trkpt>
      <trkpt lat="43.97243" lon="5.14955">
        <ele>423.1</ele>
        <time>2013-01-24T13:41:55.000Z</time>
      </trkpt>
      <trkpt lat="43.97242" lon="5.14954">
        <ele>423.3</ele>
        <time>2013-01-24T13:41:56.000Z</time>
      </trkpt>
      <trkpt lat="43.9724" lon="5.1495">
        <ele>423.3</ele>
        <time>2013-01-24T13:41:59.000Z</time>
      </trkpt>
      <trkpt lat="43.97239" lon="5.14949">
        <ele>423.4</ele>
        <time>2013-01-24T13:42:00.000Z</time>
      </trkpt>
      <trkpt lat="43.97236" lon="5.14946">
        <ele>424.9</ele>
        <time>2013-01-24T13:42:04.000Z</time>
      </trkpt>
      <trkpt lat="43.97235" lon="5.14946">
        <ele>425.2</ele>
        <time>2013-01-24T13:42:05.000Z</time>
      </trkpt>
      <trkpt lat="43.97231" lon="5.14946">
        <ele>426.3</ele>
        <time>2013-01-24T13:42:08.000Z</time>
      </trkpt>
      <trkpt lat="43.97229" lon="5.14947">
        <ele>425.4</ele>
        <time>2013-01-24T13:42:09.000Z</time>
      </trkpt>
      <trkpt lat="43.97225" lon="5.14949">
        <ele>425.1</ele>
        <time>2013-01-24T13:42:12.000Z</time>
      </trkpt>
      <trkpt lat="43.97224" lon="5.1495">
        <ele>425.3</ele>
        <time>2013-01-24T13:42:13.000Z</time>
      </trkpt>
      <trkpt lat="43.97221" lon="5.14952">
        <ele>425.1</ele>
        <time>2013-01-24T13:42:15.000Z</time>
      </trkpt>
      <trkpt lat="43.9722" lon="5.14954">
        <ele>424.5</ele>
        <time>2013-01-24T13:42:16.000Z</time>
      </trkpt>
      <trkpt lat="43.97217" lon="5.14957">
        <ele>423.7</ele>
        <time>2013-01-24T13:42:18.000Z</time>
      </trkpt>
      <trkpt lat="43.97216" lon="5.14958">
        <ele>423.4</ele>
        <time>2013-01-24T13:42:19.000Z</time>
      </trkpt>
      <trkpt lat="43.97214" lon="5.14963">
        <ele>424.3</ele>
        <time>2013-01-24T13:42:23.000Z</time>
      </trkpt>
      <trkpt lat="43.97213" lon="5.14964">
        <ele>424.6</ele>
        <time>2013-01-24T13:42:24.000Z</time>
      </trkpt>
      <trkpt lat="43.97212" lon="5.14968">
        <ele>425.9</ele>
        <time>2013-01-24T13:42:27.000Z</time>
      </trkpt>
      <trkpt lat="43.97211" lon="5.1497">
        <ele>425.8</ele>
        <time>2013-01-24T13:42:28.000Z</time>
      </trkpt>
      <trkpt lat="43.97208" lon="5.14975">
        <ele>426.3</ele>
        <time>2013-01-24T13:42:32.000Z</time>
      </trkpt>
      <trkpt lat="43.97208" lon="5.14976">
        <ele>427.4</ele>
        <time>2013-01-24T13:42:33.000Z</time>
      </trkpt>
      <trkpt lat="43.97205" lon="5.1498">
        <ele>427.1</ele>
        <time>2013-01-24T13:42:36.000Z</time>
      </trkpt>
      <trkpt lat="43.97204" lon="5.14982">
        <ele>427</ele>
        <time>2013-01-24T13:42:37.000Z</time>
      </trkpt>
      <trkpt lat="43.97202" lon="5.14986">
        <ele>427.7</ele>
        <time>2013-01-24T13:42:41.000Z</time>
      </trkpt>
      <trkpt lat="43.97202" lon="5.14987">
        <ele>428.2</ele>
        <time>2013-01-24T13:42:42.000Z</time>
      </trkpt>
      <trkpt lat="43.97198" lon="5.14989">
        <ele>428.7</ele>
        <time>2013-01-24T13:42:46.000Z</time>
      </trkpt>
      <trkpt lat="43.97196" lon="5.1499">
        <ele>429.2</ele>
        <time>2013-01-24T13:42:47.000Z</time>
      </trkpt>
      <trkpt lat="43.97195" lon="5.14991">
        <ele>429.4</ele>
        <time>2013-01-24T13:42:48.000Z</time>
      </trkpt>
      <trkpt lat="43.97191" lon="5.14992">
        <ele>428.6</ele>
        <time>2013-01-24T13:42:49.000Z</time>
      </trkpt>
      <trkpt lat="43.97188" lon="5.14991">
        <ele>429.9</ele>
        <time>2013-01-24T13:42:52.000Z</time>
      </trkpt>
      <trkpt lat="43.97187" lon="5.14991">
        <ele>429.8</ele>
        <time>2013-01-24T13:42:53.000Z</time>
      </trkpt>
      <trkpt lat="43.97183" lon="5.14989">
        <ele>431.1</ele>
        <time>2013-01-24T13:42:57.000Z</time>
      </trkpt>
      <trkpt lat="43.97182" lon="5.14987">
        <ele>431.9</ele>
        <time>2013-01-24T13:42:58.000Z</time>
      </trkpt>
      <trkpt lat="43.97181" lon="5.14983">
        <ele>432.2</ele>
        <time>2013-01-24T13:43:01.000Z</time>
      </trkpt>
      <trkpt lat="43.9718" lon="5.14982">
        <ele>431.9</ele>
        <time>2013-01-24T13:43:02.000Z</time>
      </trkpt>
      <trkpt lat="43.97179" lon="5.14976">
        <ele>431.8</ele>
        <time>2013-01-24T13:43:05.000Z</time>
      </trkpt>
      <trkpt lat="43.97179" lon="5.14973">
        <ele>432</ele>
        <time>2013-01-24T13:43:06.000Z</time>
      </trkpt>
      <trkpt lat="43.97179" lon="5.14968">
        <ele>432.3</ele>
        <time>2013-01-24T13:43:09.000Z</time>
      </trkpt>
      <trkpt lat="43.97179" lon="5.14966">
        <ele>432.4</ele>
        <time>2013-01-24T13:43:10.000Z</time>
      </trkpt>
      <trkpt lat="43.9718" lon="5.14961">
        <ele>432.4</ele>
        <time>2013-01-24T13:43:13.000Z</time>
      </trkpt>
      <trkpt lat="43.9718" lon="5.14959">
        <ele>433.1</ele>
        <time>2013-01-24T13:43:14.000Z</time>
      </trkpt>
      <trkpt lat="43.9718" lon="5.14955">
        <ele>432.9</ele>
        <time>2013-01-24T13:43:16.000Z</time>
      </trkpt>
      <trkpt lat="43.9718" lon="5.14953">
        <ele>433.4</ele>
        <time>2013-01-24T13:43:17.000Z</time>
      </trkpt>
      <trkpt lat="43.97179" lon="5.14948">
        <ele>433.9</ele>
        <time>2013-01-24T13:43:19.000Z</time>
      </trkpt>
      <trkpt lat="43.9718" lon="5.14946">
        <ele>434.2</ele>
        <time>2013-01-24T13:43:20.000Z</time>
      </trkpt>
      <trkpt lat="43.9718" lon="5.14942">
        <ele>434.1</ele>
        <time>2013-01-24T13:43:22.000Z</time>
      </trkpt>
      <trkpt lat="43.9718" lon="5.14939">
        <ele>434.4</ele>
        <time>2013-01-24T13:43:23.000Z</time>
      </trkpt>
      <trkpt lat="43.97179" lon="5.14935">
        <ele>434.7</ele>
        <time>2013-01-24T13:43:25.000Z</time>
      </trkpt>
      <trkpt lat="43.97179" lon="5.14932">
        <ele>435</ele>
        <time>2013-01-24T13:43:26.000Z</time>
      </trkpt>
      <trkpt lat="43.97178" lon="5.14928">
        <ele>435.4</ele>
        <time>2013-01-24T13:43:28.000Z</time>
      </trkpt>
      <trkpt lat="43.97178" lon="5.14926">
        <ele>435.8</ele>
        <time>2013-01-24T13:43:29.000Z</time>
      </trkpt>
      <trkpt lat="43.97178" lon="5.14922">
        <ele>436.5</ele>
        <time>2013-01-24T13:43:31.000Z</time>
      </trkpt>
      <trkpt lat="43.97178" lon="5.14919">
        <ele>436.7</ele>
        <time>2013-01-24T13:43:32.000Z</time>
      </trkpt>
      <trkpt lat="43.97177" lon="5.14915">
        <ele>437.3</ele>
        <time>2013-01-24T13:43:34.000Z</time>
      </trkpt>
      <trkpt lat="43.97177" lon="5.14913">
        <ele>437.3</ele>
        <time>2013-01-24T13:43:35.000Z</time>
      </trkpt>
      <trkpt lat="43.97176" lon="5.14908">
        <ele>437.3</ele>
        <time>2013-01-24T13:43:37.000Z</time>
      </trkpt>
      <trkpt lat="43.97176" lon="5.14906">
        <ele>437.4</ele>
        <time>2013-01-24T13:43:38.000Z</time>
      </trkpt>
      <trkpt lat="43.97176" lon="5.14902">
        <ele>437.6</ele>
        <time>2013-01-24T13:43:40.000Z</time>
      </trkpt>
      <trkpt lat="43.97176" lon="5.14899">
        <ele>438.3</ele>
        <time>2013-01-24T13:43:41.000Z</time>
      </trkpt>
      <trkpt lat="43.97175" lon="5.14894">
        <ele>438.2</ele>
        <time>2013-01-24T13:43:43.000Z</time>
      </trkpt>
      <trkpt lat="43.97175" lon="5.14892">
        <ele>438.4</ele>
        <time>2013-01-24T13:43:44.000Z</time>
      </trkpt>
      <trkpt lat="43.97175" lon="5.14888">
        <ele>438.5</ele>
        <time>2013-01-24T13:43:46.000Z</time>
      </trkpt>
      <trkpt lat="43.97175" lon="5.14885">
        <ele>438.6</ele>
        <time>2013-01-24T13:43:47.000Z</time>
      </trkpt>
      <trkpt lat="43.97175" lon="5.14881">
        <ele>439</ele>
        <time>2013-01-24T13:43:49.000Z</time>
      </trkpt>
      <trkpt lat="43.97174" lon="5.14879">
        <ele>439.4</ele>
        <time>2013-01-24T13:43:50.000Z</time>
      </trkpt>
      <trkpt lat="43.97174" lon="5.14873">
        <ele>439.1</ele>
        <time>2013-01-24T13:43:52.000Z</time>
      </trkpt>
      <trkpt lat="43.97174" lon="5.14871">
        <ele>439.3</ele>
        <time>2013-01-24T13:43:53.000Z</time>
      </trkpt>
      <trkpt lat="43.97174" lon="5.14866">
        <ele>439.1</ele>
        <time>2013-01-24T13:43:55.000Z</time>
      </trkpt>
      <trkpt lat="43.97174" lon="5.14863">
        <ele>439.5</ele>
        <time>2013-01-24T13:43:56.000Z</time>
      </trkpt>
      <trkpt lat="43.97174" lon="5.14858">
        <ele>439.2</ele>
        <time>2013-01-24T13:43:58.000Z</time>
      </trkpt>
      <trkpt lat="43.97174" lon="5.14856">
        <ele>439.6</ele>
        <time>2013-01-24T13:43:59.000Z</time>
      </trkpt>
      <trkpt lat="43.97174" lon="5.14851">
        <ele>439.9</ele>
        <time>2013-01-24T13:44:01.000Z</time>
      </trkpt>
      <trkpt lat="43.97173" lon="5.14849">
        <ele>440.1</ele>
        <time>2013-01-24T13:44:02.000Z</time>
      </trkpt>
      <trkpt lat="43.97173" lon="5.14844">
        <ele>440.2</ele>
        <time>2013-01-24T13:44:04.000Z</time>
      </trkpt>
      <trkpt lat="43.97173" lon="5.14841">
        <ele>440.3</ele>
        <time>2013-01-24T13:44:05.000Z</time>
      </trkpt>
      <trkpt lat="43.97172" lon="5.14837">
        <ele>440.5</ele>
        <time>2013-01-24T13:44:07.000Z</time>
      </trkpt>
      <trkpt lat="43.97172" lon="5.14834">
        <ele>440.7</ele>
        <time>2013-01-24T13:44:08.000Z</time>
      </trkpt>
      <trkpt lat="43.97172" lon="5.14829">
        <ele>440.9</ele>
        <time>2013-01-24T13:44:10.000Z</time>
      </trkpt>
      <trkpt lat="43.97172" lon="5.14827">
        <ele>441</ele>
        <time>2013-01-24T13:44:11.000Z</time>
      </trkpt>
      <trkpt lat="43.97172" lon="5.14822">
        <ele>441.3</ele>
        <time>2013-01-24T13:44:13.000Z</time>
      </trkpt>
      <trkpt lat="43.97172" lon="5.1482">
        <ele>441.8</ele>
        <time>2013-01-24T13:44:14.000Z</time>
      </trkpt>
      <trkpt lat="43.97172" lon="5.14816">
        <ele>442.3</ele>
        <time>2013-01-24T13:44:16.000Z</time>
      </trkpt>
      <trkpt lat="43.97172" lon="5.14814">
        <ele>442.3</ele>
        <time>2013-01-24T13:44:17.000Z</time>
      </trkpt>
      <trkpt lat="43.97172" lon="5.14807">
        <ele>442.5</ele>
        <time>2013-01-24T13:44:20.000Z</time>
      </trkpt>
      <trkpt lat="43.97172" lon="5.14805">
        <ele>442.6</ele>
        <time>2013-01-24T13:44:21.000Z</time>
      </trkpt>
      <trkpt lat="43.97172" lon="5.14801">
        <ele>443.1</ele>
        <time>2013-01-24T13:44:23.000Z</time>
      </trkpt>
      <trkpt lat="43.97172" lon="5.14798">
        <ele>443.1</ele>
        <time>2013-01-24T13:44:24.000Z</time>
      </trkpt>
      <trkpt lat="43.97173" lon="5.14794">
        <ele>443.4</ele>
        <time>2013-01-24T13:44:26.000Z</time>
      </trkpt>
      <trkpt lat="43.97173" lon="5.14792">
        <ele>443.6</ele>
        <time>2013-01-24T13:44:27.000Z</time>
      </trkpt>
      <trkpt lat="43.97174" lon="5.14786">
        <ele>444.2</ele>
        <time>2013-01-24T13:44:30.000Z</time>
      </trkpt>
      <trkpt lat="43.97174" lon="5.14784">
        <ele>444.1</ele>
        <time>2013-01-24T13:44:31.000Z</time>
      </trkpt>
      <trkpt lat="43.97175" lon="5.14778">
        <ele>444.9</ele>
        <time>2013-01-24T13:44:34.000Z</time>
      </trkpt>
      <trkpt lat="43.97175" lon="5.14777">
        <ele>444.5</ele>
        <time>2013-01-24T13:44:35.000Z</time>
      </trkpt>
      <trkpt lat="43.97175" lon="5.14771">
        <ele>444.3</ele>
        <time>2013-01-24T13:44:38.000Z</time>
      </trkpt>
      <trkpt lat="43.97175" lon="5.1477">
        <ele>444.5</ele>
        <time>2013-01-24T13:44:39.000Z</time>
      </trkpt>
      <trkpt lat="43.97176" lon="5.14765">
        <ele>446.3</ele>
        <time>2013-01-24T13:44:41.000Z</time>
      </trkpt>
      <trkpt lat="43.97177" lon="5.14762">
        <ele>446.6</ele>
        <time>2013-01-24T13:44:42.000Z</time>
      </trkpt>
      <trkpt lat="43.97177" lon="5.14756">
        <ele>447.4</ele>
        <time>2013-01-24T13:44:45.000Z</time>
      </trkpt>
      <trkpt lat="43.97178" lon="5.14754">
        <ele>447.7</ele>
        <time>2013-01-24T13:44:46.000Z</time>
      </trkpt>
      <trkpt lat="43.97178" lon="5.14749">
        <ele>448.5</ele>
        <time>2013-01-24T13:44:49.000Z</time>
      </trkpt>
      <trkpt lat="43.97179" lon="5.14746">
        <ele>448.8</ele>
        <time>2013-01-24T13:44:50.000Z</time>
      </trkpt>
      <trkpt lat="43.9718" lon="5.14742">
        <ele>448.9</ele>
        <time>2013-01-24T13:44:52.000Z</time>
      </trkpt>
      <trkpt lat="43.9718" lon="5.1474">
        <ele>449.2</ele>
        <time>2013-01-24T13:44:53.000Z</time>
      </trkpt>
      <trkpt lat="43.97181" lon="5.14735">
        <ele>450.7</ele>
        <time>2013-01-24T13:44:56.000Z</time>
      </trkpt>
      <trkpt lat="43.97182" lon="5.14732">
        <ele>450.3</ele>
        <time>2013-01-24T13:44:57.000Z</time>
      </trkpt>
      <trkpt lat="43.97184" lon="5.14728">
        <ele>451.8</ele>
        <time>2013-01-24T13:45:00.000Z</time>
      </trkpt>
      <trkpt lat="43.97184" lon="5.14725">
        <ele>452</ele>
        <time>2013-01-24T13:45:01.000Z</time>
      </trkpt>
      <trkpt lat="43.97186" lon="5.14721">
        <ele>452.4</ele>
        <time>2013-01-24T13:45:04.000Z</time>
      </trkpt>
      <trkpt lat="43.97187" lon="5.14719">
        <ele>452.2</ele>
        <time>2013-01-24T13:45:05.000Z</time>
      </trkpt>
      <trkpt lat="43.97188" lon="5.14714">
        <ele>456.3</ele>
        <time>2013-01-24T13:45:09.000Z</time>
      </trkpt>
      <trkpt lat="43.97187" lon="5.14712">
        <ele>456.6</ele>
        <time>2013-01-24T13:45:10.000Z</time>
      </trkpt>
      <trkpt lat="43.97188" lon="5.14706">
        <ele>456.6</ele>
        <time>2013-01-24T13:45:13.000Z</time>
      </trkpt>
      <trkpt lat="43.97189" lon="5.14705">
        <ele>456.6</ele>
        <time>2013-01-24T13:45:14.000Z</time>
      </trkpt>
      <trkpt lat="43.97191" lon="5.14701">
        <ele>458.1</ele>
        <time>2013-01-24T13:45:17.000Z</time>
      </trkpt>
      <trkpt lat="43.97192" lon="5.14699">
        <ele>458</ele>
        <time>2013-01-24T13:45:18.000Z</time>
      </trkpt>
      <trkpt lat="43.97194" lon="5.14694">
        <ele>456.1</ele>
        <time>2013-01-24T13:45:21.000Z</time>
      </trkpt>
      <trkpt lat="43.97194" lon="5.14693">
        <ele>459.7</ele>
        <time>2013-01-24T13:45:22.000Z</time>
      </trkpt>
      <trkpt lat="43.97195" lon="5.14688">
        <ele>459.6</ele>
        <time>2013-01-24T13:45:25.000Z</time>
      </trkpt>
      <trkpt lat="43.97196" lon="5.14686">
        <ele>460</ele>
        <time>2013-01-24T13:45:26.000Z</time>
      </trkpt>
      <trkpt lat="43.97197" lon="5.14682">
        <ele>460</ele>
        <time>2013-01-24T13:45:29.000Z</time>
      </trkpt>
      <trkpt lat="43.97198" lon="5.1468">
        <ele>460.2</ele>
        <time>2013-01-24T13:45:30.000Z</time>
      </trkpt>
      <trkpt lat="43.972" lon="5.14675">
        <ele>459.9</ele>
        <time>2013-01-24T13:45:33.000Z</time>
      </trkpt>
      <trkpt lat="43.972" lon="5.14674">
        <ele>460.5</ele>
        <time>2013-01-24T13:45:34.000Z</time>
      </trkpt>
      <trkpt lat="43.972" lon="5.14669">
        <ele>461.2</ele>
        <time>2013-01-24T13:45:37.000Z</time>
      </trkpt>
      <trkpt lat="43.97201" lon="5.14667">
        <ele>461.3</ele>
        <time>2013-01-24T13:45:38.000Z</time>
      </trkpt>
      <trkpt lat="43.97201" lon="5.14662">
        <ele>460.9</ele>
        <time>2013-01-24T13:45:41.000Z</time>
      </trkpt>
      <trkpt lat="43.97202" lon="5.1466">
        <ele>461.3</ele>
        <time>2013-01-24T13:45:42.000Z</time>
      </trkpt>
      <trkpt lat="43.97201" lon="5.14654">
        <ele>460.9</ele>
        <time>2013-01-24T13:45:45.000Z</time>
      </trkpt>
      <trkpt lat="43.97201" lon="5.14652">
        <ele>460.8</ele>
        <time>2013-01-24T13:45:46.000Z</time>
      </trkpt>
      <trkpt lat="43.97198" lon="5.14648">
        <ele>461.7</ele>
        <time>2013-01-24T13:45:59.000Z</time>
      </trkpt>
      <trkpt lat="43.97197" lon="5.14647">
        <ele>461.6</ele>
        <time>2013-01-24T13:46:00.000Z</time>
      </trkpt>
      <trkpt lat="43.97192" lon="5.14645">
        <ele>462.1</ele>
        <time>2013-01-24T13:46:03.000Z</time>
      </trkpt>
      <trkpt lat="43.97191" lon="5.14645">
        <ele>462.2</ele>
        <time>2013-01-24T13:46:04.000Z</time>
      </trkpt>
      <trkpt lat="43.97188" lon="5.14644">
        <ele>462.5</ele>
        <time>2013-01-24T13:46:06.000Z</time>
      </trkpt>
      <trkpt lat="43.97186" lon="5.14644">
        <ele>462.7</ele>
        <time>2013-01-24T13:46:07.000Z</time>
      </trkpt>
      <trkpt lat="43.97183" lon="5.14644">
        <ele>462.8</ele>
        <time>2013-01-24T13:46:09.000Z</time>
      </trkpt>
      <trkpt lat="43.97182" lon="5.14644">
        <ele>463.2</ele>
        <time>2013-01-24T13:46:10.000Z</time>
      </trkpt>
      <trkpt lat="43.97177" lon="5.14645">
        <ele>463.7</ele>
        <time>2013-01-24T13:46:13.000Z</time>
      </trkpt>
      <trkpt lat="43.97176" lon="5.14646">
        <ele>463.1</ele>
        <time>2013-01-24T13:46:14.000Z</time>
      </trkpt>
      <trkpt lat="43.97172" lon="5.14645">
        <ele>466.5</ele>
        <time>2013-01-24T13:46:17.000Z</time>
      </trkpt>
      <trkpt lat="43.97171" lon="5.14645">
        <ele>467.8</ele>
        <time>2013-01-24T13:46:18.000Z</time>
      </trkpt>
      <trkpt lat="43.97168" lon="5.14642">
        <ele>471.3</ele>
        <time>2013-01-24T13:46:21.000Z</time>
      </trkpt>
      <trkpt lat="43.97163" lon="5.14644">
        <ele>468.3</ele>
        <time>2013-01-24T13:46:22.000Z</time>
      </trkpt>
      <trkpt lat="43.9716" lon="5.14645">
        <ele>468.9</ele>
        <time>2013-01-24T13:46:24.000Z</time>
      </trkpt>
      <trkpt lat="43.97157" lon="5.14646">
        <ele>467.3</ele>
        <time>2013-01-24T13:46:25.000Z</time>
      </trkpt>
      <trkpt lat="43.97153" lon="5.14645">
        <ele>467.3</ele>
        <time>2013-01-24T13:46:28.000Z</time>
      </trkpt>
      <trkpt lat="43.97151" lon="5.14646">
        <ele>466.2</ele>
        <time>2013-01-24T13:46:29.000Z</time>
      </trkpt>
      <trkpt lat="43.97148" lon="5.14646">
        <ele>467.6</ele>
        <time>2013-01-24T13:46:31.000Z</time>
      </trkpt>
      <trkpt lat="43.97146" lon="5.14646">
        <ele>467</ele>
        <time>2013-01-24T13:46:32.000Z</time>
      </trkpt>
      <trkpt lat="43.97142" lon="5.14646">
        <ele>467.4</ele>
        <time>2013-01-24T13:46:34.000Z</time>
      </trkpt>
      <trkpt lat="43.97141" lon="5.14646">
        <ele>467.9</ele>
        <time>2013-01-24T13:46:35.000Z</time>
      </trkpt>
      <trkpt lat="43.97138" lon="5.14646">
        <ele>469.1</ele>
        <time>2013-01-24T13:46:37.000Z</time>
      </trkpt>
      <trkpt lat="43.97135" lon="5.14647">
        <ele>467.7</ele>
        <time>2013-01-24T13:46:38.000Z</time>
      </trkpt>
      <trkpt lat="43.97131" lon="5.14648">
        <ele>468.1</ele>
        <time>2013-01-24T13:46:40.000Z</time>
      </trkpt>
      <trkpt lat="43.97129" lon="5.14648">
        <ele>468</ele>
        <time>2013-01-24T13:46:41.000Z</time>
      </trkpt>
      <trkpt lat="43.97126" lon="5.14648">
        <ele>468.2</ele>
        <time>2013-01-24T13:46:43.000Z</time>
      </trkpt>
      <trkpt lat="43.97124" lon="5.14649">
        <ele>468.2</ele>
        <time>2013-01-24T13:46:44.000Z</time>
      </trkpt>
      <trkpt lat="43.9712" lon="5.14649">
        <ele>468.7</ele>
        <time>2013-01-24T13:46:46.000Z</time>
      </trkpt>
      <trkpt lat="43.97118" lon="5.14649">
        <ele>468.6</ele>
        <time>2013-01-24T13:46:47.000Z</time>
      </trkpt>
      <trkpt lat="43.97115" lon="5.14649">
        <ele>469.3</ele>
        <time>2013-01-24T13:46:49.000Z</time>
      </trkpt>
      <trkpt lat="43.97113" lon="5.14649">
        <ele>469.4</ele>
        <time>2013-01-24T13:46:50.000Z</time>
      </trkpt>
      <trkpt lat="43.97109" lon="5.14649">
        <ele>469.4</ele>
        <time>2013-01-24T13:46:52.000Z</time>
      </trkpt>
      <trkpt lat="43.97108" lon="5.14649">
        <ele>470.2</ele>
        <time>2013-01-24T13:46:53.000Z</time>
      </trkpt>
      <trkpt lat="43.97105" lon="5.14649">
        <ele>471.6</ele>
        <time>2013-01-24T13:46:55.000Z</time>
      </trkpt>
      <trkpt lat="43.97102" lon="5.14649">
        <ele>471.1</ele>
        <time>2013-01-24T13:46:56.000Z</time>
      </trkpt>
      <trkpt lat="43.971" lon="5.1465">
        <ele>470.6</ele>
        <time>2013-01-24T13:46:57.000Z</time>
      </trkpt>
      <trkpt lat="43.97097" lon="5.1465">
        <ele>469.2</ele>
        <time>2013-01-24T13:46:58.000Z</time>
      </trkpt>
      <trkpt lat="43.97094" lon="5.14649">
        <ele>470.4</ele>
        <time>2013-01-24T13:47:00.000Z</time>
      </trkpt>
      <trkpt lat="43.97092" lon="5.14649">
        <ele>470.5</ele>
        <time>2013-01-24T13:47:01.000Z</time>
      </trkpt>
      <trkpt lat="43.97088" lon="5.14649">
        <ele>470.6</ele>
        <time>2013-01-24T13:47:03.000Z</time>
      </trkpt>
      <trkpt lat="43.97085" lon="5.14649">
        <ele>470.4</ele>
        <time>2013-01-24T13:47:04.000Z</time>
      </trkpt>
      <trkpt lat="43.97082" lon="5.14649">
        <ele>470.7</ele>
        <time>2013-01-24T13:47:06.000Z</time>
      </trkpt>
      <trkpt lat="43.9708" lon="5.14649">
        <ele>470.7</ele>
        <time>2013-01-24T13:47:07.000Z</time>
      </trkpt>
      <trkpt lat="43.97076" lon="5.14649">
        <ele>470.6</ele>
        <time>2013-01-24T13:47:09.000Z</time>
      </trkpt>
      <trkpt lat="43.97074" lon="5.14648">
        <ele>470.8</ele>
        <time>2013-01-24T13:47:10.000Z</time>
      </trkpt>
      <trkpt lat="43.9707" lon="5.14648">
        <ele>470.9</ele>
        <time>2013-01-24T13:47:12.000Z</time>
      </trkpt>
      <trkpt lat="43.97068" lon="5.14648">
        <ele>470.8</ele>
        <time>2013-01-24T13:47:13.000Z</time>
      </trkpt>
      <trkpt lat="43.97064" lon="5.14648">
        <ele>471.2</ele>
        <time>2013-01-24T13:47:15.000Z</time>
      </trkpt>
      <trkpt lat="43.97062" lon="5.14647">
        <ele>471.3</ele>
        <time>2013-01-24T13:47:16.000Z</time>
      </trkpt>
      <trkpt lat="43.97058" lon="5.14646">
        <ele>471</ele>
        <time>2013-01-24T13:47:18.000Z</time>
      </trkpt>
      <trkpt lat="43.97057" lon="5.14645">
        <ele>470.9</ele>
        <time>2013-01-24T13:47:19.000Z</time>
      </trkpt>
      <trkpt lat="43.97055" lon="5.14644">
        <ele>470.9</ele>
        <time>2013-01-24T13:47:20.000Z</time>
      </trkpt>
      <trkpt lat="43.97052" lon="5.14643">
        <ele>470.1</ele>
        <time>2013-01-24T13:47:21.000Z</time>
      </trkpt>
      <trkpt lat="43.97048" lon="5.1464">
        <ele>470.4</ele>
        <time>2013-01-24T13:47:23.000Z</time>
      </trkpt>
      <trkpt lat="43.97046" lon="5.14638">
        <ele>470</ele>
        <time>2013-01-24T13:47:24.000Z</time>
      </trkpt>
      <trkpt lat="43.97043" lon="5.14634">
        <ele>471</ele>
        <time>2013-01-24T13:47:26.000Z</time>
      </trkpt>
      <trkpt lat="43.97041" lon="5.14632">
        <ele>471.2</ele>
        <time>2013-01-24T13:47:27.000Z</time>
      </trkpt>
      <trkpt lat="43.97039" lon="5.1463">
        <ele>471.1</ele>
        <time>2013-01-24T13:47:28.000Z</time>
      </trkpt>
      <trkpt lat="43.97037" lon="5.14627">
        <ele>469.7</ele>
        <time>2013-01-24T13:47:29.000Z</time>
      </trkpt>
      <trkpt lat="43.97034" lon="5.14625">
        <ele>468.4</ele>
        <time>2013-01-24T13:47:30.000Z</time>
      </trkpt>
      <trkpt lat="43.97032" lon="5.14623">
        <ele>467.9</ele>
        <time>2013-01-24T13:47:31.000Z</time>
      </trkpt>
      <trkpt lat="43.9703" lon="5.14621">
        <ele>468</ele>
        <time>2013-01-24T13:47:32.000Z</time>
      </trkpt>
      <trkpt lat="43.97028" lon="5.14618">
        <ele>468.1</ele>
        <time>2013-01-24T13:47:33.000Z</time>
      </trkpt>
      <trkpt lat="43.97028" lon="5.14613">
        <ele>468.8</ele>
        <time>2013-01-24T13:47:35.000Z</time>
      </trkpt>
      <trkpt lat="43.97027" lon="5.1461">
        <ele>469.7</ele>
        <time>2013-01-24T13:47:36.000Z</time>
      </trkpt>
      <trkpt lat="43.97026" lon="5.14607">
        <ele>469.2</ele>
        <time>2013-01-24T13:47:37.000Z</time>
      </trkpt>
      <trkpt lat="43.97024" lon="5.14604">
        <ele>469.5</ele>
        <time>2013-01-24T13:47:38.000Z</time>
      </trkpt>
      <trkpt lat="43.97022" lon="5.146">
        <ele>471</ele>
        <time>2013-01-24T13:47:40.000Z</time>
      </trkpt>
      <trkpt lat="43.97022" lon="5.14596">
        <ele>470.8</ele>
        <time>2013-01-24T13:47:41.000Z</time>
      </trkpt>
      <trkpt lat="43.9702" lon="5.14593">
        <ele>467</ele>
        <time>2013-01-24T13:47:42.000Z</time>
      </trkpt>
      <trkpt lat="43.9702" lon="5.14591">
        <ele>466.7</ele>
        <time>2013-01-24T13:47:43.000Z</time>
      </trkpt>
      <trkpt lat="43.97022" lon="5.14587">
        <ele>467.9</ele>
        <time>2013-01-24T13:47:44.000Z</time>
      </trkpt>
      <trkpt lat="43.97021" lon="5.14585">
        <ele>468.1</ele>
        <time>2013-01-24T13:47:45.000Z</time>
      </trkpt>
      <trkpt lat="43.97022" lon="5.14581">
        <ele>468.1</ele>
        <time>2013-01-24T13:47:46.000Z</time>
      </trkpt>
      <trkpt lat="43.97022" lon="5.14578">
        <ele>467.6</ele>
        <time>2013-01-24T13:47:47.000Z</time>
      </trkpt>
      <trkpt lat="43.9702" lon="5.14574">
        <ele>468.3</ele>
        <time>2013-01-24T13:47:49.000Z</time>
      </trkpt>
      <trkpt lat="43.97019" lon="5.14573">
        <ele>468</ele>
        <time>2013-01-24T13:47:50.000Z</time>
      </trkpt>
      <trkpt lat="43.97016" lon="5.1457">
        <ele>468.5</ele>
        <time>2013-01-24T13:47:52.000Z</time>
      </trkpt>
      <trkpt lat="43.97014" lon="5.14568">
        <ele>468.3</ele>
        <time>2013-01-24T13:47:53.000Z</time>
      </trkpt>
      <trkpt lat="43.97011" lon="5.14566">
        <ele>468.2</ele>
        <time>2013-01-24T13:47:55.000Z</time>
      </trkpt>
      <trkpt lat="43.9701" lon="5.14562">
        <ele>468.2</ele>
        <time>2013-01-24T13:47:56.000Z</time>
      </trkpt>
      <trkpt lat="43.97007" lon="5.14558">
        <ele>467.9</ele>
        <time>2013-01-24T13:47:58.000Z</time>
      </trkpt>
      <trkpt lat="43.97007" lon="5.14554">
        <ele>468.4</ele>
        <time>2013-01-24T13:47:59.000Z</time>
      </trkpt>
      <trkpt lat="43.97005" lon="5.14549">
        <ele>469</ele>
        <time>2013-01-24T13:48:01.000Z</time>
      </trkpt>
      <trkpt lat="43.97004" lon="5.14547">
        <ele>469.1</ele>
        <time>2013-01-24T13:48:02.000Z</time>
      </trkpt>
      <trkpt lat="43.97001" lon="5.14543">
        <ele>470.2</ele>
        <time>2013-01-24T13:48:04.000Z</time>
      </trkpt>
      <trkpt lat="43.97" lon="5.14542">
        <ele>470.8</ele>
        <time>2013-01-24T13:48:05.000Z</time>
      </trkpt>
      <trkpt lat="43.96996" lon="5.14538">
        <ele>469.9</ele>
        <time>2013-01-24T13:48:07.000Z</time>
      </trkpt>
      <trkpt lat="43.96996" lon="5.14535">
        <ele>470.2</ele>
        <time>2013-01-24T13:48:08.000Z</time>
      </trkpt>
      <trkpt lat="43.96993" lon="5.1453">
        <ele>470.6</ele>
        <time>2013-01-24T13:48:10.000Z</time>
      </trkpt>
      <trkpt lat="43.96991" lon="5.14528">
        <ele>471</ele>
        <time>2013-01-24T13:48:11.000Z</time>
      </trkpt>
      <trkpt lat="43.9699" lon="5.14525">
        <ele>470.6</ele>
        <time>2013-01-24T13:48:12.000Z</time>
      </trkpt>
      <trkpt lat="43.96989" lon="5.14522">
        <ele>471.3</ele>
        <time>2013-01-24T13:48:13.000Z</time>
      </trkpt>
      <trkpt lat="43.96986" lon="5.14518">
        <ele>470.9</ele>
        <time>2013-01-24T13:48:15.000Z</time>
      </trkpt>
      <trkpt lat="43.96986" lon="5.14515">
        <ele>471.2</ele>
        <time>2013-01-24T13:48:16.000Z</time>
      </trkpt>
      <trkpt lat="43.96985" lon="5.14512">
        <ele>471.6</ele>
        <time>2013-01-24T13:48:17.000Z</time>
      </trkpt>
      <trkpt lat="43.96984" lon="5.14508">
        <ele>471.8</ele>
        <time>2013-01-24T13:48:18.000Z</time>
      </trkpt>
      <trkpt lat="43.96983" lon="5.14503">
        <ele>471.1</ele>
        <time>2013-01-24T13:48:20.000Z</time>
      </trkpt>
      <trkpt lat="43.96981" lon="5.145">
        <ele>471.6</ele>
        <time>2013-01-24T13:48:21.000Z</time>
      </trkpt>
      <trkpt lat="43.9698" lon="5.14497">
        <ele>471.5</ele>
        <time>2013-01-24T13:48:22.000Z</time>
      </trkpt>
      <trkpt lat="43.96978" lon="5.14494">
        <ele>471.2</ele>
        <time>2013-01-24T13:48:23.000Z</time>
      </trkpt>
      <trkpt lat="43.96977" lon="5.14491">
        <ele>470.6</ele>
        <time>2013-01-24T13:48:24.000Z</time>
      </trkpt>
      <trkpt lat="43.96976" lon="5.14488">
        <ele>471.2</ele>
        <time>2013-01-24T13:48:25.000Z</time>
      </trkpt>
      <trkpt lat="43.96974" lon="5.14483">
        <ele>471.7</ele>
        <time>2013-01-24T13:48:27.000Z</time>
      </trkpt>
      <trkpt lat="43.96973" lon="5.14481">
        <ele>472</ele>
        <time>2013-01-24T13:48:28.000Z</time>
      </trkpt>
      <trkpt lat="43.96971" lon="5.14477">
        <ele>472.9</ele>
        <time>2013-01-24T13:48:30.000Z</time>
      </trkpt>
      <trkpt lat="43.96971" lon="5.14475">
        <ele>472.7</ele>
        <time>2013-01-24T13:48:31.000Z</time>
      </trkpt>
      <trkpt lat="43.9697" lon="5.1447">
        <ele>472.4</ele>
        <time>2013-01-24T13:48:33.000Z</time>
      </trkpt>
      <trkpt lat="43.96969" lon="5.14464">
        <ele>471.8</ele>
        <time>2013-01-24T13:48:34.000Z</time>
      </trkpt>
      <trkpt lat="43.96968" lon="5.14459">
        <ele>472</ele>
        <time>2013-01-24T13:48:35.000Z</time>
      </trkpt>
      <trkpt lat="43.96967" lon="5.14455">
        <ele>473</ele>
        <time>2013-01-24T13:48:36.000Z</time>
      </trkpt>
      <trkpt lat="43.96967" lon="5.14449">
        <ele>473.6</ele>
        <time>2013-01-24T13:48:37.000Z</time>
      </trkpt>
      <trkpt lat="43.96969" lon="5.14442">
        <ele>476.3</ele>
        <time>2013-01-24T13:48:38.000Z</time>
      </trkpt>
      <trkpt lat="43.96968" lon="5.14437">
        <ele>476.8</ele>
        <time>2013-01-24T13:48:39.000Z</time>
      </trkpt>
      <trkpt lat="43.96969" lon="5.14431">
        <ele>476.7</ele>
        <time>2013-01-24T13:48:40.000Z</time>
      </trkpt>
      <trkpt lat="43.96968" lon="5.14427">
        <ele>481.1</ele>
        <time>2013-01-24T13:48:42.000Z</time>
      </trkpt>
      <trkpt lat="43.96968" lon="5.14424">
        <ele>481.5</ele>
        <time>2013-01-24T13:48:43.000Z</time>
      </trkpt>
      <trkpt lat="43.96968" lon="5.1442">
        <ele>481.4</ele>
        <time>2013-01-24T13:48:44.000Z</time>
      </trkpt>
      <trkpt lat="43.96967" lon="5.14417">
        <ele>481.6</ele>
        <time>2013-01-24T13:48:45.000Z</time>
      </trkpt>
      <trkpt lat="43.96965" lon="5.14414">
        <ele>480.6</ele>
        <time>2013-01-24T13:48:46.000Z</time>
      </trkpt>
      <trkpt lat="43.96965" lon="5.1441">
        <ele>480.9</ele>
        <time>2013-01-24T13:48:47.000Z</time>
      </trkpt>
      <trkpt lat="43.96964" lon="5.14407">
        <ele>481.1</ele>
        <time>2013-01-24T13:48:48.000Z</time>
      </trkpt>
      <trkpt lat="43.96963" lon="5.14403">
        <ele>481.3</ele>
        <time>2013-01-24T13:48:49.000Z</time>
      </trkpt>
      <trkpt lat="43.96962" lon="5.14399">
        <ele>481.4</ele>
        <time>2013-01-24T13:48:50.000Z</time>
      </trkpt>
      <trkpt lat="43.96961" lon="5.14396">
        <ele>481.7</ele>
        <time>2013-01-24T13:48:51.000Z</time>
      </trkpt>
      <trkpt lat="43.96959" lon="5.14393">
        <ele>481.9</ele>
        <time>2013-01-24T13:48:52.000Z</time>
      </trkpt>
      <trkpt lat="43.96957" lon="5.14389">
        <ele>481.9</ele>
        <time>2013-01-24T13:48:53.000Z</time>
      </trkpt>
      <trkpt lat="43.96956" lon="5.14385">
        <ele>481.6</ele>
        <time>2013-01-24T13:48:54.000Z</time>
      </trkpt>
      <trkpt lat="43.96952" lon="5.1438">
        <ele>480.6</ele>
        <time>2013-01-24T13:48:55.000Z</time>
      </trkpt>
      <trkpt lat="43.96948" lon="5.14376">
        <ele>480.6</ele>
        <time>2013-01-24T13:48:56.000Z</time>
      </trkpt>
      <trkpt lat="43.96947" lon="5.14374">
        <ele>481.6</ele>
        <time>2013-01-24T13:48:57.000Z</time>
      </trkpt>
      <trkpt lat="43.96945" lon="5.14372">
        <ele>481.9</ele>
        <time>2013-01-24T13:48:58.000Z</time>
      </trkpt>
      <trkpt lat="43.96943" lon="5.14368">
        <ele>481.8</ele>
        <time>2013-01-24T13:48:59.000Z</time>
      </trkpt>
      <trkpt lat="43.96941" lon="5.14366">
        <ele>482</ele>
        <time>2013-01-24T13:49:00.000Z</time>
      </trkpt>
      <trkpt lat="43.9694" lon="5.14363">
        <ele>482</ele>
        <time>2013-01-24T13:49:01.000Z</time>
      </trkpt>
      <trkpt lat="43.96938" lon="5.1436">
        <ele>481.9</ele>
        <time>2013-01-24T13:49:02.000Z</time>
      </trkpt>
      <trkpt lat="43.96937" lon="5.14358">
        <ele>481.7</ele>
        <time>2013-01-24T13:49:03.000Z</time>
      </trkpt>
      <trkpt lat="43.96935" lon="5.14353">
        <ele>484.8</ele>
        <time>2013-01-24T13:49:04.000Z</time>
      </trkpt>
      <trkpt lat="43.96933" lon="5.1435">
        <ele>484.2</ele>
        <time>2013-01-24T13:49:05.000Z</time>
      </trkpt>
      <trkpt lat="43.96932" lon="5.14347">
        <ele>484.9</ele>
        <time>2013-01-24T13:49:06.000Z</time>
      </trkpt>
      <trkpt lat="43.96929" lon="5.14345">
        <ele>483.2</ele>
        <time>2013-01-24T13:49:07.000Z</time>
      </trkpt>
      <trkpt lat="43.96927" lon="5.14343">
        <ele>482.2</ele>
        <time>2013-01-24T13:49:08.000Z</time>
      </trkpt>
      <trkpt lat="43.96924" lon="5.1434">
        <ele>481.7</ele>
        <time>2013-01-24T13:49:09.000Z</time>
      </trkpt>
      <trkpt lat="43.96922" lon="5.14336">
        <ele>481.5</ele>
        <time>2013-01-24T13:49:10.000Z</time>
      </trkpt>
      <trkpt lat="43.96919" lon="5.14334">
        <ele>480.1</ele>
        <time>2013-01-24T13:49:11.000Z</time>
      </trkpt>
      <trkpt lat="43.96917" lon="5.14331">
        <ele>480.7</ele>
        <time>2013-01-24T13:49:12.000Z</time>
      </trkpt>
      <trkpt lat="43.96914" lon="5.14328">
        <ele>481</ele>
        <time>2013-01-24T13:49:13.000Z</time>
      </trkpt>
      <trkpt lat="43.9691" lon="5.14328">
        <ele>477.1</ele>
        <time>2013-01-24T13:49:14.000Z</time>
      </trkpt>
      <trkpt lat="43.96907" lon="5.14326">
        <ele>475.4</ele>
        <time>2013-01-24T13:49:15.000Z</time>
      </trkpt>
      <trkpt lat="43.96904" lon="5.14324">
        <ele>473.6</ele>
        <time>2013-01-24T13:49:16.000Z</time>
      </trkpt>
      <trkpt lat="43.969" lon="5.14321">
        <ele>470.7</ele>
        <time>2013-01-24T13:49:17.000Z</time>
      </trkpt>
      <trkpt lat="43.96898" lon="5.14318">
        <ele>470.7</ele>
        <time>2013-01-24T13:49:18.000Z</time>
      </trkpt>
      <trkpt lat="43.96895" lon="5.14315">
        <ele>470.3</ele>
        <time>2013-01-24T13:49:19.000Z</time>
      </trkpt>
      <trkpt lat="43.96893" lon="5.14312">
        <ele>469.8</ele>
        <time>2013-01-24T13:49:20.000Z</time>
      </trkpt>
      <trkpt lat="43.9689" lon="5.14308">
        <ele>469.8</ele>
        <time>2013-01-24T13:49:21.000Z</time>
      </trkpt>
      <trkpt lat="43.96887" lon="5.14306">
        <ele>470.1</ele>
        <time>2013-01-24T13:49:22.000Z</time>
      </trkpt>
      <trkpt lat="43.96884" lon="5.14303">
        <ele>469.8</ele>
        <time>2013-01-24T13:49:23.000Z</time>
      </trkpt>
      <trkpt lat="43.96881" lon="5.143">
        <ele>470</ele>
        <time>2013-01-24T13:49:24.000Z</time>
      </trkpt>
      <trkpt lat="43.96879" lon="5.14298">
        <ele>470.3</ele>
        <time>2013-01-24T13:49:25.000Z</time>
      </trkpt>
      <trkpt lat="43.96878" lon="5.14294">
        <ele>470.7</ele>
        <time>2013-01-24T13:49:26.000Z</time>
      </trkpt>
      <trkpt lat="43.96876" lon="5.1429">
        <ele>471.1</ele>
        <time>2013-01-24T13:49:27.000Z</time>
      </trkpt>
      <trkpt lat="43.96874" lon="5.14287">
        <ele>471.2</ele>
        <time>2013-01-24T13:49:28.000Z</time>
      </trkpt>
      <trkpt lat="43.96872" lon="5.14283">
        <ele>470.5</ele>
        <time>2013-01-24T13:49:29.000Z</time>
      </trkpt>
      <trkpt lat="43.9687" lon="5.1428">
        <ele>471</ele>
        <time>2013-01-24T13:49:30.000Z</time>
      </trkpt>
      <trkpt lat="43.96869" lon="5.14276">
        <ele>470.7</ele>
        <time>2013-01-24T13:49:31.000Z</time>
      </trkpt>
      <trkpt lat="43.96865" lon="5.14274">
        <ele>467.6</ele>
        <time>2013-01-24T13:49:32.000Z</time>
      </trkpt>
      <trkpt lat="43.96865" lon="5.1427">
        <ele>469</ele>
        <time>2013-01-24T13:49:33.000Z</time>
      </trkpt>
      <trkpt lat="43.96864" lon="5.14267">
        <ele>469.3</ele>
        <time>2013-01-24T13:49:34.000Z</time>
      </trkpt>
      <trkpt lat="43.96863" lon="5.14263">
        <ele>469.3</ele>
        <time>2013-01-24T13:49:35.000Z</time>
      </trkpt>
      <trkpt lat="43.96862" lon="5.1426">
        <ele>469.5</ele>
        <time>2013-01-24T13:49:36.000Z</time>
      </trkpt>
      <trkpt lat="43.96861" lon="5.14256">
        <ele>469.8</ele>
        <time>2013-01-24T13:49:37.000Z</time>
      </trkpt>
      <trkpt lat="43.9686" lon="5.14253">
        <ele>469.6</ele>
        <time>2013-01-24T13:49:38.000Z</time>
      </trkpt>
      <trkpt lat="43.96859" lon="5.1425">
        <ele>469.6</ele>
        <time>2013-01-24T13:49:39.000Z</time>
      </trkpt>
      <trkpt lat="43.96857" lon="5.14247">
        <ele>469.3</ele>
        <time>2013-01-24T13:49:40.000Z</time>
      </trkpt>
      <trkpt lat="43.96855" lon="5.14243">
        <ele>468.9</ele>
        <time>2013-01-24T13:49:41.000Z</time>
      </trkpt>
      <trkpt lat="43.96854" lon="5.1424">
        <ele>469.5</ele>
        <time>2013-01-24T13:49:42.000Z</time>
      </trkpt>
      <trkpt lat="43.96853" lon="5.14236">
        <ele>469.7</ele>
        <time>2013-01-24T13:49:43.000Z</time>
      </trkpt>
      <trkpt lat="43.96851" lon="5.14233">
        <ele>470</ele>
        <time>2013-01-24T13:49:44.000Z</time>
      </trkpt>
      <trkpt lat="43.9685" lon="5.1423">
        <ele>470.6</ele>
        <time>2013-01-24T13:49:45.000Z</time>
      </trkpt>
      <trkpt lat="43.96848" lon="5.14226">
        <ele>470</ele>
        <time>2013-01-24T13:49:46.000Z</time>
      </trkpt>
      <trkpt lat="43.96847" lon="5.14222">
        <ele>470.9</ele>
        <time>2013-01-24T13:49:47.000Z</time>
      </trkpt>
      <trkpt lat="43.96846" lon="5.14219">
        <ele>470.7</ele>
        <time>2013-01-24T13:49:48.000Z</time>
      </trkpt>
      <trkpt lat="43.96843" lon="5.14216">
        <ele>469.9</ele>
        <time>2013-01-24T13:49:49.000Z</time>
      </trkpt>
      <trkpt lat="43.96841" lon="5.14213">
        <ele>469.6</ele>
        <time>2013-01-24T13:49:50.000Z</time>
      </trkpt>
      <trkpt lat="43.96839" lon="5.1421">
        <ele>469.2</ele>
        <time>2013-01-24T13:49:51.000Z</time>
      </trkpt>
      <trkpt lat="43.96836" lon="5.14207">
        <ele>468.6</ele>
        <time>2013-01-24T13:49:52.000Z</time>
      </trkpt>
      <trkpt lat="43.96834" lon="5.14204">
        <ele>467.9</ele>
        <time>2013-01-24T13:49:53.000Z</time>
      </trkpt>
      <trkpt lat="43.96832" lon="5.14202">
        <ele>467.5</ele>
        <time>2013-01-24T13:49:54.000Z</time>
      </trkpt>
      <trkpt lat="43.9683" lon="5.14198">
        <ele>467.3</ele>
        <time>2013-01-24T13:49:55.000Z</time>
      </trkpt>
      <trkpt lat="43.96829" lon="5.14195">
        <ele>467.7</ele>
        <time>2013-01-24T13:49:56.000Z</time>
      </trkpt>
      <trkpt lat="43.96829" lon="5.14192">
        <ele>468.4</ele>
        <time>2013-01-24T13:49:57.000Z</time>
      </trkpt>
      <trkpt lat="43.96828" lon="5.14189">
        <ele>468.5</ele>
        <time>2013-01-24T13:49:58.000Z</time>
      </trkpt>
      <trkpt lat="43.96827" lon="5.14185">
        <ele>468.8</ele>
        <time>2013-01-24T13:49:59.000Z</time>
      </trkpt>
      <trkpt lat="43.96825" lon="5.14181">
        <ele>468.5</ele>
        <time>2013-01-24T13:50:00.000Z</time>
      </trkpt>
      <trkpt lat="43.96825" lon="5.14178">
        <ele>468.8</ele>
        <time>2013-01-24T13:50:01.000Z</time>
      </trkpt>
      <trkpt lat="43.96824" lon="5.14174">
        <ele>468.9</ele>
        <time>2013-01-24T13:50:02.000Z</time>
      </trkpt>
      <trkpt lat="43.96823" lon="5.14171">
        <ele>469.1</ele>
        <time>2013-01-24T13:50:03.000Z</time>
      </trkpt>
      <trkpt lat="43.96822" lon="5.14165">
        <ele>471.4</ele>
        <time>2013-01-24T13:50:05.000Z</time>
      </trkpt>
      <trkpt lat="43.96821" lon="5.14162">
        <ele>471.5</ele>
        <time>2013-01-24T13:50:06.000Z</time>
      </trkpt>
      <trkpt lat="43.9682" lon="5.14159">
        <ele>470.6</ele>
        <time>2013-01-24T13:50:07.000Z</time>
      </trkpt>
      <trkpt lat="43.96818" lon="5.14156">
        <ele>470.4</ele>
        <time>2013-01-24T13:50:08.000Z</time>
      </trkpt>
      <trkpt lat="43.96817" lon="5.14152">
        <ele>470.3</ele>
        <time>2013-01-24T13:50:09.000Z</time>
      </trkpt>
      <trkpt lat="43.96816" lon="5.14149">
        <ele>470.3</ele>
        <time>2013-01-24T13:50:10.000Z</time>
      </trkpt>
      <trkpt lat="43.96814" lon="5.14146">
        <ele>470</ele>
        <time>2013-01-24T13:50:11.000Z</time>
      </trkpt>
      <trkpt lat="43.96813" lon="5.14143">
        <ele>470.3</ele>
        <time>2013-01-24T13:50:12.000Z</time>
      </trkpt>
      <trkpt lat="43.96811" lon="5.1414">
        <ele>470.3</ele>
        <time>2013-01-24T13:50:13.000Z</time>
      </trkpt>
      <trkpt lat="43.9681" lon="5.14137">
        <ele>470.4</ele>
        <time>2013-01-24T13:50:14.000Z</time>
      </trkpt>
      <trkpt lat="43.96808" lon="5.14134">
        <ele>470.7</ele>
        <time>2013-01-24T13:50:15.000Z</time>
      </trkpt>
      <trkpt lat="43.96806" lon="5.14131">
        <ele>471.6</ele>
        <time>2013-01-24T13:50:16.000Z</time>
      </trkpt>
      <trkpt lat="43.96805" lon="5.14128">
        <ele>472.8</ele>
        <time>2013-01-24T13:50:17.000Z</time>
      </trkpt>
      <trkpt lat="43.96802" lon="5.14126">
        <ele>469.9</ele>
        <time>2013-01-24T13:50:18.000Z</time>
      </trkpt>
      <trkpt lat="43.96802" lon="5.14123">
        <ele>470.7</ele>
        <time>2013-01-24T13:50:19.000Z</time>
      </trkpt>
      <trkpt lat="43.968" lon="5.1412">
        <ele>470.7</ele>
        <time>2013-01-24T13:50:20.000Z</time>
      </trkpt>
      <trkpt lat="43.96798" lon="5.14118">
        <ele>469.3</ele>
        <time>2013-01-24T13:50:21.000Z</time>
      </trkpt>
      <trkpt lat="43.96797" lon="5.14113">
        <ele>470.5</ele>
        <time>2013-01-24T13:50:22.000Z</time>
      </trkpt>
      <trkpt lat="43.96796" lon="5.1411">
        <ele>470.4</ele>
        <time>2013-01-24T13:50:23.000Z</time>
      </trkpt>
      <trkpt lat="43.96795" lon="5.14107">
        <ele>470.5</ele>
        <time>2013-01-24T13:50:24.000Z</time>
      </trkpt>
      <trkpt lat="43.96794" lon="5.14103">
        <ele>470.5</ele>
        <time>2013-01-24T13:50:25.000Z</time>
      </trkpt>
      <trkpt lat="43.96793" lon="5.141">
        <ele>471.2</ele>
        <time>2013-01-24T13:50:26.000Z</time>
      </trkpt>
      <trkpt lat="43.96791" lon="5.14097">
        <ele>471.1</ele>
        <time>2013-01-24T13:50:27.000Z</time>
      </trkpt>
      <trkpt lat="43.96791" lon="5.14093">
        <ele>471.9</ele>
        <time>2013-01-24T13:50:28.000Z</time>
      </trkpt>
      <trkpt lat="43.9679" lon="5.1409">
        <ele>472.2</ele>
        <time>2013-01-24T13:50:29.000Z</time>
      </trkpt>
      <trkpt lat="43.9679" lon="5.14086">
        <ele>472.7</ele>
        <time>2013-01-24T13:50:30.000Z</time>
      </trkpt>
      <trkpt lat="43.9679" lon="5.14083">
        <ele>472.5</ele>
        <time>2013-01-24T13:50:31.000Z</time>
      </trkpt>
      <trkpt lat="43.9679" lon="5.14079">
        <ele>473.3</ele>
        <time>2013-01-24T13:50:32.000Z</time>
      </trkpt>
      <trkpt lat="43.9679" lon="5.14076">
        <ele>473.7</ele>
        <time>2013-01-24T13:50:33.000Z</time>
      </trkpt>
      <trkpt lat="43.9679" lon="5.14073">
        <ele>473.7</ele>
        <time>2013-01-24T13:50:34.000Z</time>
      </trkpt>
      <trkpt lat="43.9679" lon="5.14069">
        <ele>473.7</ele>
        <time>2013-01-24T13:50:35.000Z</time>
      </trkpt>
      <trkpt lat="43.9679" lon="5.14066">
        <ele>473.6</ele>
        <time>2013-01-24T13:50:36.000Z</time>
      </trkpt>
      <trkpt lat="43.9679" lon="5.14063">
        <ele>473.8</ele>
        <time>2013-01-24T13:50:37.000Z</time>
      </trkpt>
      <trkpt lat="43.9679" lon="5.1406">
        <ele>473.6</ele>
        <time>2013-01-24T13:50:38.000Z</time>
      </trkpt>
      <trkpt lat="43.96792" lon="5.14057">
        <ele>473.5</ele>
        <time>2013-01-24T13:50:39.000Z</time>
      </trkpt>
      <trkpt lat="43.96792" lon="5.14054">
        <ele>473.8</ele>
        <time>2013-01-24T13:50:40.000Z</time>
      </trkpt>
      <trkpt lat="43.96793" lon="5.14051">
        <ele>473.8</ele>
        <time>2013-01-24T13:50:41.000Z</time>
      </trkpt>
      <trkpt lat="43.96794" lon="5.14047">
        <ele>474.7</ele>
        <time>2013-01-24T13:50:42.000Z</time>
      </trkpt>
      <trkpt lat="43.96796" lon="5.14042">
        <ele>475.2</ele>
        <time>2013-01-24T13:50:44.000Z</time>
      </trkpt>
      <trkpt lat="43.96797" lon="5.14039">
        <ele>475.7</ele>
        <time>2013-01-24T13:50:45.000Z</time>
      </trkpt>
      <trkpt lat="43.96798" lon="5.14037">
        <ele>476.1</ele>
        <time>2013-01-24T13:50:46.000Z</time>
      </trkpt>
      <trkpt lat="43.96799" lon="5.14034">
        <ele>476.2</ele>
        <time>2013-01-24T13:50:47.000Z</time>
      </trkpt>
      <trkpt lat="43.968" lon="5.14031">
        <ele>476</ele>
        <time>2013-01-24T13:50:48.000Z</time>
      </trkpt>
      <trkpt lat="43.96802" lon="5.14028">
        <ele>476</ele>
        <time>2013-01-24T13:50:49.000Z</time>
      </trkpt>
      <trkpt lat="43.96802" lon="5.14025">
        <ele>476.1</ele>
        <time>2013-01-24T13:50:50.000Z</time>
      </trkpt>
      <trkpt lat="43.96804" lon="5.14022">
        <ele>476.2</ele>
        <time>2013-01-24T13:50:51.000Z</time>
      </trkpt>
      <trkpt lat="43.96805" lon="5.14019">
        <ele>476.1</ele>
        <time>2013-01-24T13:50:52.000Z</time>
      </trkpt>
      <trkpt lat="43.96806" lon="5.14016">
        <ele>476.5</ele>
        <time>2013-01-24T13:50:53.000Z</time>
      </trkpt>
      <trkpt lat="43.96808" lon="5.14011">
        <ele>476.4</ele>
        <time>2013-01-24T13:50:55.000Z</time>
      </trkpt>
      <trkpt lat="43.9681" lon="5.14009">
        <ele>476.3</ele>
        <time>2013-01-24T13:50:56.000Z</time>
      </trkpt>
      <trkpt lat="43.96812" lon="5.14005">
        <ele>476.5</ele>
        <time>2013-01-24T13:50:58.000Z</time>
      </trkpt>
      <trkpt lat="43.96814" lon="5.14001">
        <ele>476.4</ele>
        <time>2013-01-24T13:50:59.000Z</time>
      </trkpt>
      <trkpt lat="43.96815" lon="5.13998">
        <ele>476.6</ele>
        <time>2013-01-24T13:51:00.000Z</time>
      </trkpt>
      <trkpt lat="43.96818" lon="5.13996">
        <ele>476.5</ele>
        <time>2013-01-24T13:51:01.000Z</time>
      </trkpt>
      <trkpt lat="43.9682" lon="5.13992">
        <ele>477</ele>
        <time>2013-01-24T13:51:03.000Z</time>
      </trkpt>
      <trkpt lat="43.96822" lon="5.13989">
        <ele>476.9</ele>
        <time>2013-01-24T13:51:04.000Z</time>
      </trkpt>
      <trkpt lat="43.96824" lon="5.13985">
        <ele>478.9</ele>
        <time>2013-01-24T13:51:06.000Z</time>
      </trkpt>
      <trkpt lat="43.96826" lon="5.13983">
        <ele>479</ele>
        <time>2013-01-24T13:51:07.000Z</time>
      </trkpt>
      <trkpt lat="43.96829" lon="5.13979">
        <ele>479.1</ele>
        <time>2013-01-24T13:51:09.000Z</time>
      </trkpt>
      <trkpt lat="43.9683" lon="5.13977">
        <ele>479.1</ele>
        <time>2013-01-24T13:51:10.000Z</time>
      </trkpt>
      <trkpt lat="43.96833" lon="5.13972">
        <ele>478.9</ele>
        <time>2013-01-24T13:51:12.000Z</time>
      </trkpt>
      <trkpt lat="43.96834" lon="5.13971">
        <ele>478.5</ele>
        <time>2013-01-24T13:51:13.000Z</time>
      </trkpt>
      <trkpt lat="43.96836" lon="5.13967">
        <ele>477.8</ele>
        <time>2013-01-24T13:51:15.000Z</time>
      </trkpt>
      <trkpt lat="43.96837" lon="5.13965">
        <ele>478.1</ele>
        <time>2013-01-24T13:51:16.000Z</time>
      </trkpt>
      <trkpt lat="43.9684" lon="5.13964">
        <ele>480.9</ele>
        <time>2013-01-24T13:51:18.000Z</time>
      </trkpt>
      <trkpt lat="43.96842" lon="5.13966">
        <ele>484.4</ele>
        <time>2013-01-24T13:51:19.000Z</time>
      </trkpt>
      <trkpt lat="43.96844" lon="5.13966">
        <ele>488.1</ele>
        <time>2013-01-24T13:51:21.000Z</time>
      </trkpt>
      <trkpt lat="43.96847" lon="5.13966">
        <ele>487.3</ele>
        <time>2013-01-24T13:51:22.000Z</time>
      </trkpt>
      <trkpt lat="43.9685" lon="5.13963">
        <ele>496.7</ele>
        <time>2013-01-24T13:51:23.000Z</time>
      </trkpt>
      <trkpt lat="43.96852" lon="5.13962">
        <ele>496.2</ele>
        <time>2013-01-24T13:51:24.000Z</time>
      </trkpt>
      <trkpt lat="43.96855" lon="5.1396">
        <ele>496</ele>
        <time>2013-01-24T13:51:26.000Z</time>
      </trkpt>
      <trkpt lat="43.96857" lon="5.13959">
        <ele>496.4</ele>
        <time>2013-01-24T13:51:27.000Z</time>
      </trkpt>
      <trkpt lat="43.96859" lon="5.13957">
        <ele>494.8</ele>
        <time>2013-01-24T13:51:28.000Z</time>
      </trkpt>
      <trkpt lat="43.96861" lon="5.13956">
        <ele>494.7</ele>
        <time>2013-01-24T13:51:29.000Z</time>
      </trkpt>
      <trkpt lat="43.96864" lon="5.13954">
        <ele>494.6</ele>
        <time>2013-01-24T13:51:30.000Z</time>
      </trkpt>
      <trkpt lat="43.96866" lon="5.13952">
        <ele>494.3</ele>
        <time>2013-01-24T13:51:31.000Z</time>
      </trkpt>
      <trkpt lat="43.96868" lon="5.13952">
        <ele>494.9</ele>
        <time>2013-01-24T13:51:32.000Z</time>
      </trkpt>
      <trkpt lat="43.96871" lon="5.13951">
        <ele>495.7</ele>
        <time>2013-01-24T13:51:33.000Z</time>
      </trkpt>
      <trkpt lat="43.96874" lon="5.13946">
        <ele>495.8</ele>
        <time>2013-01-24T13:51:34.000Z</time>
      </trkpt>
      <trkpt lat="43.96876" lon="5.13947">
        <ele>494</ele>
        <time>2013-01-24T13:51:35.000Z</time>
      </trkpt>
      <trkpt lat="43.96878" lon="5.13945">
        <ele>492.7</ele>
        <time>2013-01-24T13:51:36.000Z</time>
      </trkpt>
      <trkpt lat="43.9688" lon="5.13945">
        <ele>491.2</ele>
        <time>2013-01-24T13:51:37.000Z</time>
      </trkpt>
      <trkpt lat="43.96882" lon="5.13944">
        <ele>490.4</ele>
        <time>2013-01-24T13:51:38.000Z</time>
      </trkpt>
      <trkpt lat="43.96885" lon="5.13942">
        <ele>489.7</ele>
        <time>2013-01-24T13:51:39.000Z</time>
      </trkpt>
      <trkpt lat="43.96887" lon="5.1394">
        <ele>489.5</ele>
        <time>2013-01-24T13:51:40.000Z</time>
      </trkpt>
      <trkpt lat="43.96889" lon="5.13939">
        <ele>489.4</ele>
        <time>2013-01-24T13:51:41.000Z</time>
      </trkpt>
      <trkpt lat="43.96893" lon="5.13938">
        <ele>488.6</ele>
        <time>2013-01-24T13:51:43.000Z</time>
      </trkpt>
      <trkpt lat="43.96895" lon="5.13937">
        <ele>487.6</ele>
        <time>2013-01-24T13:51:44.000Z</time>
      </trkpt>
      <trkpt lat="43.96897" lon="5.13936">
        <ele>487.4</ele>
        <time>2013-01-24T13:51:45.000Z</time>
      </trkpt>
      <trkpt lat="43.96899" lon="5.13935">
        <ele>487.3</ele>
        <time>2013-01-24T13:51:46.000Z</time>
      </trkpt>
      <trkpt lat="43.96903" lon="5.13934">
        <ele>486.8</ele>
        <time>2013-01-24T13:51:48.000Z</time>
      </trkpt>
      <trkpt lat="43.96905" lon="5.13934">
        <ele>487.1</ele>
        <time>2013-01-24T13:51:49.000Z</time>
      </trkpt>
      <trkpt lat="43.96907" lon="5.13934">
        <ele>486.7</ele>
        <time>2013-01-24T13:51:50.000Z</time>
      </trkpt>
      <trkpt lat="43.9691" lon="5.13932">
        <ele>485.5</ele>
        <time>2013-01-24T13:51:51.000Z</time>
      </trkpt>
      <trkpt lat="43.96912" lon="5.1393">
        <ele>484.6</ele>
        <time>2013-01-24T13:51:52.000Z</time>
      </trkpt>
      <trkpt lat="43.96915" lon="5.13929">
        <ele>483.7</ele>
        <time>2013-01-24T13:51:53.000Z</time>
      </trkpt>
      <trkpt lat="43.96918" lon="5.13928">
        <ele>483.1</ele>
        <time>2013-01-24T13:51:54.000Z</time>
      </trkpt>
      <trkpt lat="43.9692" lon="5.13926">
        <ele>482.5</ele>
        <time>2013-01-24T13:51:55.000Z</time>
      </trkpt>
      <trkpt lat="43.96922" lon="5.13923">
        <ele>482.3</ele>
        <time>2013-01-24T13:51:56.000Z</time>
      </trkpt>
      <trkpt lat="43.96924" lon="5.13921">
        <ele>481.7</ele>
        <time>2013-01-24T13:51:57.000Z</time>
      </trkpt>
      <trkpt lat="43.96926" lon="5.13918">
        <ele>481</ele>
        <time>2013-01-24T13:51:58.000Z</time>
      </trkpt>
      <trkpt lat="43.96928" lon="5.13916">
        <ele>480.8</ele>
        <time>2013-01-24T13:51:59.000Z</time>
      </trkpt>
      <trkpt lat="43.96929" lon="5.13913">
        <ele>480.2</ele>
        <time>2013-01-24T13:52:00.000Z</time>
      </trkpt>
      <trkpt lat="43.9693" lon="5.13911">
        <ele>479.6</ele>
        <time>2013-01-24T13:52:01.000Z</time>
      </trkpt>
      <trkpt lat="43.96932" lon="5.13909">
        <ele>485.4</ele>
        <time>2013-01-24T13:52:04.000Z</time>
      </trkpt>
      <trkpt lat="43.96935" lon="5.13908">
        <ele>484.8</ele>
        <time>2013-01-24T13:52:05.000Z</time>
      </trkpt>
      <trkpt lat="43.9694" lon="5.13906">
        <ele>485.9</ele>
        <time>2013-01-24T13:52:07.000Z</time>
      </trkpt>
      <trkpt lat="43.96942" lon="5.13905">
        <ele>486.7</ele>
        <time>2013-01-24T13:52:08.000Z</time>
      </trkpt>
      <trkpt lat="43.96945" lon="5.13906">
        <ele>490</ele>
        <time>2013-01-24T13:52:09.000Z</time>
      </trkpt>
      <trkpt lat="43.96947" lon="5.1391">
        <ele>495.1</ele>
        <time>2013-01-24T13:52:10.000Z</time>
      </trkpt>
      <trkpt lat="43.9695" lon="5.13906">
        <ele>492.6</ele>
        <time>2013-01-24T13:52:11.000Z</time>
      </trkpt>
      <trkpt lat="43.96952" lon="5.13904">
        <ele>493.6</ele>
        <time>2013-01-24T13:52:12.000Z</time>
      </trkpt>
      <trkpt lat="43.96955" lon="5.13904">
        <ele>493.7</ele>
        <time>2013-01-24T13:52:13.000Z</time>
      </trkpt>
      <trkpt lat="43.96957" lon="5.13903">
        <ele>493.3</ele>
        <time>2013-01-24T13:52:14.000Z</time>
      </trkpt>
      <trkpt lat="43.96961" lon="5.139">
        <ele>493.3</ele>
        <time>2013-01-24T13:52:16.000Z</time>
      </trkpt>
      <trkpt lat="43.96963" lon="5.13899">
        <ele>493.4</ele>
        <time>2013-01-24T13:52:17.000Z</time>
      </trkpt>
      <trkpt lat="43.96967" lon="5.13896">
        <ele>493.1</ele>
        <time>2013-01-24T13:52:19.000Z</time>
      </trkpt>
      <trkpt lat="43.96969" lon="5.13895">
        <ele>493.4</ele>
        <time>2013-01-24T13:52:20.000Z</time>
      </trkpt>
      <trkpt lat="43.96972" lon="5.13894">
        <ele>494.1</ele>
        <time>2013-01-24T13:52:21.000Z</time>
      </trkpt>
      <trkpt lat="43.96975" lon="5.13891">
        <ele>495.2</ele>
        <time>2013-01-24T13:52:22.000Z</time>
      </trkpt>
      <trkpt lat="43.96977" lon="5.13889">
        <ele>488.1</ele>
        <time>2013-01-24T13:52:23.000Z</time>
      </trkpt>
      <trkpt lat="43.96979" lon="5.13887">
        <ele>488.1</ele>
        <time>2013-01-24T13:52:24.000Z</time>
      </trkpt>
      <trkpt lat="43.96982" lon="5.13885">
        <ele>487.6</ele>
        <time>2013-01-24T13:52:25.000Z</time>
      </trkpt>
      <trkpt lat="43.96985" lon="5.13884">
        <ele>487.1</ele>
        <time>2013-01-24T13:52:26.000Z</time>
      </trkpt>
      <trkpt lat="43.96988" lon="5.13882">
        <ele>486.6</ele>
        <time>2013-01-24T13:52:27.000Z</time>
      </trkpt>
      <trkpt lat="43.96992" lon="5.1388">
        <ele>486</ele>
        <time>2013-01-24T13:52:28.000Z</time>
      </trkpt>
      <trkpt lat="43.96995" lon="5.13877">
        <ele>485.4</ele>
        <time>2013-01-24T13:52:29.000Z</time>
      </trkpt>
      <trkpt lat="43.96997" lon="5.13879">
        <ele>485.9</ele>
        <time>2013-01-24T13:52:30.000Z</time>
      </trkpt>
      <trkpt lat="43.97" lon="5.13877">
        <ele>484.9</ele>
        <time>2013-01-24T13:52:31.000Z</time>
      </trkpt>
      <trkpt lat="43.97003" lon="5.13876">
        <ele>484.2</ele>
        <time>2013-01-24T13:52:32.000Z</time>
      </trkpt>
      <trkpt lat="43.97006" lon="5.13874">
        <ele>481.8</ele>
        <time>2013-01-24T13:52:33.000Z</time>
      </trkpt>
      <trkpt lat="43.9701" lon="5.13872">
        <ele>480.4</ele>
        <time>2013-01-24T13:52:34.000Z</time>
      </trkpt>
      <trkpt lat="43.97012" lon="5.1387">
        <ele>479.7</ele>
        <time>2013-01-24T13:52:35.000Z</time>
      </trkpt>
      <trkpt lat="43.97015" lon="5.13868">
        <ele>479</ele>
        <time>2013-01-24T13:52:36.000Z</time>
      </trkpt>
      <trkpt lat="43.97018" lon="5.13867">
        <ele>477.9</ele>
        <time>2013-01-24T13:52:38.000Z</time>
      </trkpt>
      <trkpt lat="43.9702" lon="5.13866">
        <ele>475.7</ele>
        <time>2013-01-24T13:52:39.000Z</time>
      </trkpt>
      <trkpt lat="43.97024" lon="5.13865">
        <ele>475.1</ele>
        <time>2013-01-24T13:52:41.000Z</time>
      </trkpt>
      <trkpt lat="43.97026" lon="5.13865">
        <ele>476</ele>
        <time>2013-01-24T13:52:42.000Z</time>
      </trkpt>
      <trkpt lat="43.97028" lon="5.13864">
        <ele>476</ele>
        <time>2013-01-24T13:52:43.000Z</time>
      </trkpt>
      <trkpt lat="43.9703" lon="5.13863">
        <ele>474.9</ele>
        <time>2013-01-24T13:52:44.000Z</time>
      </trkpt>
      <trkpt lat="43.97033" lon="5.13862">
        <ele>474.2</ele>
        <time>2013-01-24T13:52:45.000Z</time>
      </trkpt>
      <trkpt lat="43.97035" lon="5.1386">
        <ele>474.3</ele>
        <time>2013-01-24T13:52:46.000Z</time>
      </trkpt>
      <trkpt lat="43.97039" lon="5.13859">
        <ele>473.9</ele>
        <time>2013-01-24T13:52:48.000Z</time>
      </trkpt>
      <trkpt lat="43.97041" lon="5.13859">
        <ele>474.2</ele>
        <time>2013-01-24T13:52:49.000Z</time>
      </trkpt>
      <trkpt lat="43.97045" lon="5.13858">
        <ele>474.7</ele>
        <time>2013-01-24T13:52:51.000Z</time>
      </trkpt>
      <trkpt lat="43.97047" lon="5.13858">
        <ele>473.9</ele>
        <time>2013-01-24T13:52:52.000Z</time>
      </trkpt>
      <trkpt lat="43.97051" lon="5.13856">
        <ele>473.5</ele>
        <time>2013-01-24T13:52:54.000Z</time>
      </trkpt>
      <trkpt lat="43.97053" lon="5.13855">
        <ele>473.6</ele>
        <time>2013-01-24T13:52:55.000Z</time>
      </trkpt>
      <trkpt lat="43.97055" lon="5.13855">
        <ele>473</ele>
        <time>2013-01-24T13:52:56.000Z</time>
      </trkpt>
      <trkpt lat="43.97057" lon="5.13855">
        <ele>472.9</ele>
        <time>2013-01-24T13:52:57.000Z</time>
      </trkpt>
      <trkpt lat="43.97061" lon="5.13855">
        <ele>472.4</ele>
        <time>2013-01-24T13:52:59.000Z</time>
      </trkpt>
      <trkpt lat="43.97063" lon="5.13856">
        <ele>471.4</ele>
        <time>2013-01-24T13:53:00.000Z</time>
      </trkpt>
      <trkpt lat="43.97067" lon="5.13856">
        <ele>470.7</ele>
        <time>2013-01-24T13:53:02.000Z</time>
      </trkpt>
      <trkpt lat="43.97069" lon="5.13857">
        <ele>470.6</ele>
        <time>2013-01-24T13:53:03.000Z</time>
      </trkpt>
      <trkpt lat="43.97073" lon="5.13858">
        <ele>470.4</ele>
        <time>2013-01-24T13:53:05.000Z</time>
      </trkpt>
      <trkpt lat="43.97074" lon="5.13859">
        <ele>470.2</ele>
        <time>2013-01-24T13:53:06.000Z</time>
      </trkpt>
      <trkpt lat="43.97077" lon="5.13862">
        <ele>470.7</ele>
        <time>2013-01-24T13:53:08.000Z</time>
      </trkpt>
      <trkpt lat="43.97079" lon="5.13864">
        <ele>471.7</ele>
        <time>2013-01-24T13:53:09.000Z</time>
      </trkpt>
      <trkpt lat="43.97082" lon="5.13867">
        <ele>474.8</ele>
        <time>2013-01-24T13:53:10.000Z</time>
      </trkpt>
      <trkpt lat="43.97085" lon="5.13874">
        <ele>480.2</ele>
        <time>2013-01-24T13:53:11.000Z</time>
      </trkpt>
      <trkpt lat="43.97089" lon="5.13873">
        <ele>486.7</ele>
        <time>2013-01-24T13:53:13.000Z</time>
      </trkpt>
      <trkpt lat="43.97093" lon="5.13872">
        <ele>486.9</ele>
        <time>2013-01-24T13:53:14.000Z</time>
      </trkpt>
      <trkpt lat="43.97097" lon="5.13873">
        <ele>486.1</ele>
        <time>2013-01-24T13:53:16.000Z</time>
      </trkpt>
      <trkpt lat="43.97102" lon="5.13873">
        <ele>485.8</ele>
        <time>2013-01-24T13:53:17.000Z</time>
      </trkpt>
      <trkpt lat="43.97103" lon="5.13877">
        <ele>485.5</ele>
        <time>2013-01-24T13:53:19.000Z</time>
      </trkpt>
      <trkpt lat="43.971" lon="5.1388">
        <ele>485.3</ele>
        <time>2013-01-24T13:53:20.000Z</time>
      </trkpt>
      <trkpt lat="43.97099" lon="5.13869">
        <ele>484.8</ele>
        <time>2013-01-24T13:53:21.000Z</time>
      </trkpt>
      <trkpt lat="43.97108" lon="5.13872">
        <ele>484.2</ele>
        <time>2013-01-24T13:53:22.000Z</time>
      </trkpt>
      <trkpt lat="43.97108" lon="5.13875">
        <ele>483.7</ele>
        <time>2013-01-24T13:53:23.000Z</time>
      </trkpt>
      <trkpt lat="43.97113" lon="5.13875">
        <ele>482.8</ele>
        <time>2013-01-24T13:53:24.000Z</time>
      </trkpt>
      <trkpt lat="43.97117" lon="5.13877">
        <ele>481.1</ele>
        <time>2013-01-24T13:53:25.000Z</time>
      </trkpt>
      <trkpt lat="43.97118" lon="5.13878">
        <ele>479.7</ele>
        <time>2013-01-24T13:53:26.000Z</time>
      </trkpt>
      <trkpt lat="43.97119" lon="5.1388">
        <ele>477.7</ele>
        <time>2013-01-24T13:53:27.000Z</time>
      </trkpt>
      <trkpt lat="43.97121" lon="5.13883">
        <ele>477.3</ele>
        <time>2013-01-24T13:53:28.000Z</time>
      </trkpt>
      <trkpt lat="43.97124" lon="5.13887">
        <ele>474.8</ele>
        <time>2013-01-24T13:53:30.000Z</time>
      </trkpt>
      <trkpt lat="43.97125" lon="5.13889">
        <ele>473.2</ele>
        <time>2013-01-24T13:53:31.000Z</time>
      </trkpt>
      <trkpt lat="43.97128" lon="5.13893">
        <ele>474.1</ele>
        <time>2013-01-24T13:53:34.000Z</time>
      </trkpt>
      <trkpt lat="43.97131" lon="5.13895">
        <ele>470.5</ele>
        <time>2013-01-24T13:53:35.000Z</time>
      </trkpt>
      <trkpt lat="43.97133" lon="5.13899">
        <ele>469</ele>
        <time>2013-01-24T13:53:37.000Z</time>
      </trkpt>
      <trkpt lat="43.97135" lon="5.13901">
        <ele>468.9</ele>
        <time>2013-01-24T13:53:38.000Z</time>
      </trkpt>
      <trkpt lat="43.97138" lon="5.13905">
        <ele>466.5</ele>
        <time>2013-01-24T13:53:40.000Z</time>
      </trkpt>
      <trkpt lat="43.9714" lon="5.13907">
        <ele>466.1</ele>
        <time>2013-01-24T13:53:41.000Z</time>
      </trkpt>
      <trkpt lat="43.97141" lon="5.13907">
        <ele>465.6</ele>
        <time>2013-01-24T13:53:42.000Z</time>
      </trkpt>
      <trkpt lat="43.97144" lon="5.13906">
        <ele>463.2</ele>
        <time>2013-01-24T13:53:43.000Z</time>
      </trkpt>
      <trkpt lat="43.97147" lon="5.13904">
        <ele>461.9</ele>
        <time>2013-01-24T13:53:44.000Z</time>
      </trkpt>
      <trkpt lat="43.97149" lon="5.13902">
        <ele>461.8</ele>
        <time>2013-01-24T13:53:45.000Z</time>
      </trkpt>
      <trkpt lat="43.97152" lon="5.13899">
        <ele>461.9</ele>
        <time>2013-01-24T13:53:46.000Z</time>
      </trkpt>
      <trkpt lat="43.97152" lon="5.13896">
        <ele>458.7</ele>
        <time>2013-01-24T13:53:47.000Z</time>
      </trkpt>
      <trkpt lat="43.97154" lon="5.13894">
        <ele>457.6</ele>
        <time>2013-01-24T13:53:48.000Z</time>
      </trkpt>
      <trkpt lat="43.97157" lon="5.13892">
        <ele>456.5</ele>
        <time>2013-01-24T13:53:49.000Z</time>
      </trkpt>
      <trkpt lat="43.97159" lon="5.13889">
        <ele>455.4</ele>
        <time>2013-01-24T13:53:50.000Z</time>
      </trkpt>
      <trkpt lat="43.97161" lon="5.13887">
        <ele>455.9</ele>
        <time>2013-01-24T13:53:51.000Z</time>
      </trkpt>
      <trkpt lat="43.97163" lon="5.13884">
        <ele>455.4</ele>
        <time>2013-01-24T13:53:52.000Z</time>
      </trkpt>
      <trkpt lat="43.97165" lon="5.13882">
        <ele>454.4</ele>
        <time>2013-01-24T13:53:53.000Z</time>
      </trkpt>
      <trkpt lat="43.97167" lon="5.13878">
        <ele>454.1</ele>
        <time>2013-01-24T13:53:54.000Z</time>
      </trkpt>
      <trkpt lat="43.97168" lon="5.13874">
        <ele>453.5</ele>
        <time>2013-01-24T13:53:55.000Z</time>
      </trkpt>
      <trkpt lat="43.97168" lon="5.13869">
        <ele>453.2</ele>
        <time>2013-01-24T13:53:56.000Z</time>
      </trkpt>
      <trkpt lat="43.97168" lon="5.13865">
        <ele>452.6</ele>
        <time>2013-01-24T13:53:57.000Z</time>
      </trkpt>
      <trkpt lat="43.97166" lon="5.13861">
        <ele>452.2</ele>
        <time>2013-01-24T13:53:58.000Z</time>
      </trkpt>
      <trkpt lat="43.97164" lon="5.13858">
        <ele>452</ele>
        <time>2013-01-24T13:53:59.000Z</time>
      </trkpt>
      <trkpt lat="43.97163" lon="5.13854">
        <ele>452</ele>
        <time>2013-01-24T13:54:00.000Z</time>
      </trkpt>
      <trkpt lat="43.9716" lon="5.13852">
        <ele>451.2</ele>
        <time>2013-01-24T13:54:01.000Z</time>
      </trkpt>
      <trkpt lat="43.97159" lon="5.13849">
        <ele>450.7</ele>
        <time>2013-01-24T13:54:02.000Z</time>
      </trkpt>
      <trkpt lat="43.97157" lon="5.13846">
        <ele>450.8</ele>
        <time>2013-01-24T13:54:03.000Z</time>
      </trkpt>
      <trkpt lat="43.97154" lon="5.13843">
        <ele>450.5</ele>
        <time>2013-01-24T13:54:04.000Z</time>
      </trkpt>
      <trkpt lat="43.97152" lon="5.13841">
        <ele>450.1</ele>
        <time>2013-01-24T13:54:05.000Z</time>
      </trkpt>
      <trkpt lat="43.9715" lon="5.13838">
        <ele>450.2</ele>
        <time>2013-01-24T13:54:06.000Z</time>
      </trkpt>
      <trkpt lat="43.97148" lon="5.13835">
        <ele>449.8</ele>
        <time>2013-01-24T13:54:07.000Z</time>
      </trkpt>
      <trkpt lat="43.97146" lon="5.13831">
        <ele>449.5</ele>
        <time>2013-01-24T13:54:08.000Z</time>
      </trkpt>
      <trkpt lat="43.97144" lon="5.13827">
        <ele>449.6</ele>
        <time>2013-01-24T13:54:09.000Z</time>
      </trkpt>
      <trkpt lat="43.97142" lon="5.13823">
        <ele>449.2</ele>
        <time>2013-01-24T13:54:10.000Z</time>
      </trkpt>
      <trkpt lat="43.9714" lon="5.13819">
        <ele>448.2</ele>
        <time>2013-01-24T13:54:11.000Z</time>
      </trkpt>
      <trkpt lat="43.97137" lon="5.13817">
        <ele>446.7</ele>
        <time>2013-01-24T13:54:12.000Z</time>
      </trkpt>
      <trkpt lat="43.97136" lon="5.13814">
        <ele>446.5</ele>
        <time>2013-01-24T13:54:13.000Z</time>
      </trkpt>
      <trkpt lat="43.97134" lon="5.1381">
        <ele>445.7</ele>
        <time>2013-01-24T13:54:14.000Z</time>
      </trkpt>
      <trkpt lat="43.97132" lon="5.13807">
        <ele>445.9</ele>
        <time>2013-01-24T13:54:15.000Z</time>
      </trkpt>
      <trkpt lat="43.9713" lon="5.13803">
        <ele>445.9</ele>
        <time>2013-01-24T13:54:16.000Z</time>
      </trkpt>
      <trkpt lat="43.97129" lon="5.138">
        <ele>446.4</ele>
        <time>2013-01-24T13:54:17.000Z</time>
      </trkpt>
      <trkpt lat="43.97127" lon="5.13797">
        <ele>446.7</ele>
        <time>2013-01-24T13:54:18.000Z</time>
      </trkpt>
      <trkpt lat="43.97126" lon="5.13794">
        <ele>446.1</ele>
        <time>2013-01-24T13:54:19.000Z</time>
      </trkpt>
      <trkpt lat="43.97124" lon="5.13789">
        <ele>446.9</ele>
        <time>2013-01-24T13:54:21.000Z</time>
      </trkpt>
      <trkpt lat="43.97122" lon="5.13786">
        <ele>446.9</ele>
        <time>2013-01-24T13:54:22.000Z</time>
      </trkpt>
      <trkpt lat="43.97121" lon="5.13782">
        <ele>447.4</ele>
        <time>2013-01-24T13:54:23.000Z</time>
      </trkpt>
      <trkpt lat="43.9712" lon="5.13779">
        <ele>448.2</ele>
        <time>2013-01-24T13:54:24.000Z</time>
      </trkpt>
      <trkpt lat="43.97119" lon="5.13774">
        <ele>451.1</ele>
        <time>2013-01-24T13:54:25.000Z</time>
      </trkpt>
      <trkpt lat="43.97118" lon="5.13772">
        <ele>451.8</ele>
        <time>2013-01-24T13:54:26.000Z</time>
      </trkpt>
      <trkpt lat="43.97119" lon="5.13768">
        <ele>451.4</ele>
        <time>2013-01-24T13:54:27.000Z</time>
      </trkpt>
      <trkpt lat="43.97123" lon="5.13768">
        <ele>451.5</ele>
        <time>2013-01-24T13:54:28.000Z</time>
      </trkpt>
      <trkpt lat="43.97126" lon="5.13764">
        <ele>451</ele>
        <time>2013-01-24T13:54:31.000Z</time>
      </trkpt>
      <trkpt lat="43.97126" lon="5.13763">
        <ele>449.8</ele>
        <time>2013-01-24T13:54:32.000Z</time>
      </trkpt>
      <trkpt lat="43.97127" lon="5.13765">
        <ele>450.2</ele>
        <time>2013-01-24T13:55:05.000Z</time>
      </trkpt>
      <trkpt lat="43.97128" lon="5.1377">
        <ele>449.3</ele>
        <time>2013-01-24T13:55:06.000Z</time>
      </trkpt>
      <trkpt lat="43.97126" lon="5.13767">
        <ele>449</ele>
        <time>2013-01-24T13:55:08.000Z</time>
      </trkpt>
      <trkpt lat="43.97124" lon="5.13767">
        <ele>448.3</ele>
        <time>2013-01-24T13:55:09.000Z</time>
      </trkpt>
      <trkpt lat="43.97124" lon="5.13763">
        <ele>450</ele>
        <time>2013-01-24T13:56:04.000Z</time>
      </trkpt>
      <trkpt lat="43.97125" lon="5.13761">
        <ele>448.9</ele>
        <time>2013-01-24T13:56:05.000Z</time>
      </trkpt>
      <trkpt lat="43.97122" lon="5.13759">
        <ele>447.4</ele>
        <time>2013-01-24T13:56:11.000Z</time>
      </trkpt>
      <trkpt lat="43.97121" lon="5.13759">
        <ele>447</ele>
        <time>2013-01-24T13:56:12.000Z</time>
      </trkpt>
      <trkpt lat="43.97119" lon="5.13759">
        <ele>448.2</ele>
        <time>2013-01-24T13:56:14.000Z</time>
      </trkpt>
      <trkpt lat="43.97116" lon="5.13761">
        <ele>447.7</ele>
        <time>2013-01-24T13:56:15.000Z</time>
      </trkpt>
      <trkpt lat="43.97111" lon="5.13763">
        <ele>447.8</ele>
        <time>2013-01-24T13:56:17.000Z</time>
      </trkpt>
      <trkpt lat="43.9711" lon="5.13764">
        <ele>448.4</ele>
        <time>2013-01-24T13:56:18.000Z</time>
      </trkpt>
      <trkpt lat="43.97105" lon="5.13767">
        <ele>447.8</ele>
        <time>2013-01-24T13:56:19.000Z</time>
      </trkpt>
      <trkpt lat="43.97101" lon="5.13767">
        <ele>448.4</ele>
        <time>2013-01-24T13:56:20.000Z</time>
      </trkpt>
      <trkpt lat="43.97098" lon="5.13769">
        <ele>448.4</ele>
        <time>2013-01-24T13:56:21.000Z</time>
      </trkpt>
      <trkpt lat="43.97095" lon="5.13769">
        <ele>448.6</ele>
        <time>2013-01-24T13:56:22.000Z</time>
      </trkpt>
      <trkpt lat="43.97093" lon="5.1377">
        <ele>448.6</ele>
        <time>2013-01-24T13:56:23.000Z</time>
      </trkpt>
      <trkpt lat="43.97088" lon="5.13771">
        <ele>448.1</ele>
        <time>2013-01-24T13:56:25.000Z</time>
      </trkpt>
      <trkpt lat="43.97085" lon="5.13772">
        <ele>447.8</ele>
        <time>2013-01-24T13:56:26.000Z</time>
      </trkpt>
      <trkpt lat="43.97083" lon="5.13774">
        <ele>448</ele>
        <time>2013-01-24T13:56:27.000Z</time>
      </trkpt>
      <trkpt lat="43.9708" lon="5.13776">
        <ele>448.2</ele>
        <time>2013-01-24T13:56:28.000Z</time>
      </trkpt>
      <trkpt lat="43.97077" lon="5.13777">
        <ele>447.8</ele>
        <time>2013-01-24T13:56:29.000Z</time>
      </trkpt>
      <trkpt lat="43.97074" lon="5.13778">
        <ele>447.7</ele>
        <time>2013-01-24T13:56:30.000Z</time>
      </trkpt>
      <trkpt lat="43.97071" lon="5.1378">
        <ele>447.4</ele>
        <time>2013-01-24T13:56:31.000Z</time>
      </trkpt>
      <trkpt lat="43.97068" lon="5.13781">
        <ele>446.6</ele>
        <time>2013-01-24T13:56:32.000Z</time>
      </trkpt>
      <trkpt lat="43.97065" lon="5.13781">
        <ele>446.7</ele>
        <time>2013-01-24T13:56:33.000Z</time>
      </trkpt>
      <trkpt lat="43.97062" lon="5.13781">
        <ele>446.9</ele>
        <time>2013-01-24T13:56:34.000Z</time>
      </trkpt>
      <trkpt lat="43.97059" lon="5.13779">
        <ele>450.1</ele>
        <time>2013-01-24T13:56:36.000Z</time>
      </trkpt>
      <trkpt lat="43.97055" lon="5.1378">
        <ele>451.7</ele>
        <time>2013-01-24T13:56:37.000Z</time>
      </trkpt>
      <trkpt lat="43.97052" lon="5.13781">
        <ele>452</ele>
        <time>2013-01-24T13:56:38.000Z</time>
      </trkpt>
      <trkpt lat="43.97048" lon="5.13783">
        <ele>451.3</ele>
        <time>2013-01-24T13:56:39.000Z</time>
      </trkpt>
      <trkpt lat="43.97046" lon="5.13783">
        <ele>450.6</ele>
        <time>2013-01-24T13:56:40.000Z</time>
      </trkpt>
      <trkpt lat="43.97044" lon="5.13782">
        <ele>449.9</ele>
        <time>2013-01-24T13:56:41.000Z</time>
      </trkpt>
      <trkpt lat="43.9704" lon="5.13782">
        <ele>450.1</ele>
        <time>2013-01-24T13:56:42.000Z</time>
      </trkpt>
      <trkpt lat="43.97035" lon="5.13782">
        <ele>450.5</ele>
        <time>2013-01-24T13:56:43.000Z</time>
      </trkpt>
      <trkpt lat="43.97031" lon="5.13779">
        <ele>447.4</ele>
        <time>2013-01-24T13:56:46.000Z</time>
      </trkpt>
      <trkpt lat="43.97031" lon="5.13777">
        <ele>446.7</ele>
        <time>2013-01-24T13:56:47.000Z</time>
      </trkpt>
      <trkpt lat="43.97027" lon="5.13774">
        <ele>445.3</ele>
        <time>2013-01-24T13:56:49.000Z</time>
      </trkpt>
      <trkpt lat="43.97025" lon="5.13773">
        <ele>445.3</ele>
        <time>2013-01-24T13:56:50.000Z</time>
      </trkpt>
      <trkpt lat="43.97023" lon="5.13772">
        <ele>445.3</ele>
        <time>2013-01-24T13:56:51.000Z</time>
      </trkpt>
      <trkpt lat="43.9702" lon="5.13772">
        <ele>445.7</ele>
        <time>2013-01-24T13:56:52.000Z</time>
      </trkpt>
      <trkpt lat="43.97017" lon="5.13778">
        <ele>443.8</ele>
        <time>2013-01-24T13:56:53.000Z</time>
      </trkpt>
      <trkpt lat="43.97014" lon="5.1378">
        <ele>443.7</ele>
        <time>2013-01-24T13:56:54.000Z</time>
      </trkpt>
      <trkpt lat="43.97011" lon="5.13782">
        <ele>443.6</ele>
        <time>2013-01-24T13:56:55.000Z</time>
      </trkpt>
      <trkpt lat="43.97007" lon="5.13784">
        <ele>443.4</ele>
        <time>2013-01-24T13:56:56.000Z</time>
      </trkpt>
      <trkpt lat="43.97003" lon="5.13786">
        <ele>442.8</ele>
        <time>2013-01-24T13:56:57.000Z</time>
      </trkpt>
      <trkpt lat="43.96999" lon="5.13788">
        <ele>442.2</ele>
        <time>2013-01-24T13:56:58.000Z</time>
      </trkpt>
      <trkpt lat="43.96995" lon="5.1379">
        <ele>442</ele>
        <time>2013-01-24T13:56:59.000Z</time>
      </trkpt>
      <trkpt lat="43.96992" lon="5.13793">
        <ele>441.8</ele>
        <time>2013-01-24T13:57:00.000Z</time>
      </trkpt>
      <trkpt lat="43.96989" lon="5.13796">
        <ele>441.6</ele>
        <time>2013-01-24T13:57:01.000Z</time>
      </trkpt>
      <trkpt lat="43.96985" lon="5.13797">
        <ele>441.9</ele>
        <time>2013-01-24T13:57:02.000Z</time>
      </trkpt>
      <trkpt lat="43.96982" lon="5.13798">
        <ele>442.6</ele>
        <time>2013-01-24T13:57:03.000Z</time>
      </trkpt>
      <trkpt lat="43.96978" lon="5.138">
        <ele>442.8</ele>
        <time>2013-01-24T13:57:04.000Z</time>
      </trkpt>
      <trkpt lat="43.96975" lon="5.13802">
        <ele>442.6</ele>
        <time>2013-01-24T13:57:05.000Z</time>
      </trkpt>
      <trkpt lat="43.96972" lon="5.13804">
        <ele>442.8</ele>
        <time>2013-01-24T13:57:06.000Z</time>
      </trkpt>
      <trkpt lat="43.9697" lon="5.13806">
        <ele>442.6</ele>
        <time>2013-01-24T13:57:07.000Z</time>
      </trkpt>
      <trkpt lat="43.96967" lon="5.13808">
        <ele>442.7</ele>
        <time>2013-01-24T13:57:08.000Z</time>
      </trkpt>
      <trkpt lat="43.96965" lon="5.13809">
        <ele>443.2</ele>
        <time>2013-01-24T13:57:09.000Z</time>
      </trkpt>
      <trkpt lat="43.96962" lon="5.1381">
        <ele>443.7</ele>
        <time>2013-01-24T13:57:10.000Z</time>
      </trkpt>
      <trkpt lat="43.9696" lon="5.13811">
        <ele>443.8</ele>
        <time>2013-01-24T13:57:11.000Z</time>
      </trkpt>
      <trkpt lat="43.96958" lon="5.13812">
        <ele>444.1</ele>
        <time>2013-01-24T13:57:12.000Z</time>
      </trkpt>
      <trkpt lat="43.96955" lon="5.13812">
        <ele>444.5</ele>
        <time>2013-01-24T13:57:13.000Z</time>
      </trkpt>
      <trkpt lat="43.96952" lon="5.13813">
        <ele>444.1</ele>
        <time>2013-01-24T13:57:14.000Z</time>
      </trkpt>
      <trkpt lat="43.96949" lon="5.13813">
        <ele>443.8</ele>
        <time>2013-01-24T13:57:15.000Z</time>
      </trkpt>
      <trkpt lat="43.96946" lon="5.13814">
        <ele>443.9</ele>
        <time>2013-01-24T13:57:16.000Z</time>
      </trkpt>
      <trkpt lat="43.96943" lon="5.13815">
        <ele>444.1</ele>
        <time>2013-01-24T13:57:17.000Z</time>
      </trkpt>
      <trkpt lat="43.96939" lon="5.13816">
        <ele>444.2</ele>
        <time>2013-01-24T13:57:18.000Z</time>
      </trkpt>
      <trkpt lat="43.96936" lon="5.13816">
        <ele>444.5</ele>
        <time>2013-01-24T13:57:19.000Z</time>
      </trkpt>
      <trkpt lat="43.96933" lon="5.13817">
        <ele>444.3</ele>
        <time>2013-01-24T13:57:20.000Z</time>
      </trkpt>
      <trkpt lat="43.9693" lon="5.13819">
        <ele>444.4</ele>
        <time>2013-01-24T13:57:21.000Z</time>
      </trkpt>
      <trkpt lat="43.96926" lon="5.1382">
        <ele>444.3</ele>
        <time>2013-01-24T13:57:22.000Z</time>
      </trkpt>
      <trkpt lat="43.96923" lon="5.13821">
        <ele>444.2</ele>
        <time>2013-01-24T13:57:23.000Z</time>
      </trkpt>
      <trkpt lat="43.96919" lon="5.13821">
        <ele>443.4</ele>
        <time>2013-01-24T13:57:25.000Z</time>
      </trkpt>
      <trkpt lat="43.96916" lon="5.13821">
        <ele>443</ele>
        <time>2013-01-24T13:57:26.000Z</time>
      </trkpt>
      <trkpt lat="43.96914" lon="5.13822">
        <ele>442.9</ele>
        <time>2013-01-24T13:57:27.000Z</time>
      </trkpt>
      <trkpt lat="43.96911" lon="5.13823">
        <ele>443</ele>
        <time>2013-01-24T13:57:28.000Z</time>
      </trkpt>
      <trkpt lat="43.96908" lon="5.13825">
        <ele>443</ele>
        <time>2013-01-24T13:57:29.000Z</time>
      </trkpt>
      <trkpt lat="43.96906" lon="5.13827">
        <ele>442.7</ele>
        <time>2013-01-24T13:57:30.000Z</time>
      </trkpt>
      <trkpt lat="43.96903" lon="5.13827">
        <ele>442.4</ele>
        <time>2013-01-24T13:57:31.000Z</time>
      </trkpt>
      <trkpt lat="43.96901" lon="5.13828">
        <ele>442.4</ele>
        <time>2013-01-24T13:57:32.000Z</time>
      </trkpt>
      <trkpt lat="43.96898" lon="5.13829">
        <ele>442.2</ele>
        <time>2013-01-24T13:57:33.000Z</time>
      </trkpt>
      <trkpt lat="43.96895" lon="5.13829">
        <ele>442.1</ele>
        <time>2013-01-24T13:57:34.000Z</time>
      </trkpt>
      <trkpt lat="43.96892" lon="5.1383">
        <ele>443</ele>
        <time>2013-01-24T13:57:35.000Z</time>
      </trkpt>
      <trkpt lat="43.96889" lon="5.13832">
        <ele>442.6</ele>
        <time>2013-01-24T13:57:36.000Z</time>
      </trkpt>
      <trkpt lat="43.96886" lon="5.13834">
        <ele>442.7</ele>
        <time>2013-01-24T13:57:37.000Z</time>
      </trkpt>
      <trkpt lat="43.96883" lon="5.13836">
        <ele>442.7</ele>
        <time>2013-01-24T13:57:38.000Z</time>
      </trkpt>
      <trkpt lat="43.9688" lon="5.13839">
        <ele>443.1</ele>
        <time>2013-01-24T13:57:39.000Z</time>
      </trkpt>
      <trkpt lat="43.96877" lon="5.13841">
        <ele>443.3</ele>
        <time>2013-01-24T13:57:40.000Z</time>
      </trkpt>
      <trkpt lat="43.96875" lon="5.13842">
        <ele>443.5</ele>
        <time>2013-01-24T13:57:41.000Z</time>
      </trkpt>
      <trkpt lat="43.96872" lon="5.13843">
        <ele>443.5</ele>
        <time>2013-01-24T13:57:42.000Z</time>
      </trkpt>
      <trkpt lat="43.96869" lon="5.13845">
        <ele>443.3</ele>
        <time>2013-01-24T13:57:43.000Z</time>
      </trkpt>
      <trkpt lat="43.96866" lon="5.13846">
        <ele>443.5</ele>
        <time>2013-01-24T13:57:44.000Z</time>
      </trkpt>
      <trkpt lat="43.96864" lon="5.13847">
        <ele>443.8</ele>
        <time>2013-01-24T13:57:45.000Z</time>
      </trkpt>
      <trkpt lat="43.96861" lon="5.13849">
        <ele>444</ele>
        <time>2013-01-24T13:57:46.000Z</time>
      </trkpt>
      <trkpt lat="43.96858" lon="5.1385">
        <ele>444.2</ele>
        <time>2013-01-24T13:57:47.000Z</time>
      </trkpt>
      <trkpt lat="43.96855" lon="5.13851">
        <ele>444.3</ele>
        <time>2013-01-24T13:57:48.000Z</time>
      </trkpt>
      <trkpt lat="43.96852" lon="5.13852">
        <ele>444.2</ele>
        <time>2013-01-24T13:57:49.000Z</time>
      </trkpt>
      <trkpt lat="43.96849" lon="5.13852">
        <ele>444.4</ele>
        <time>2013-01-24T13:57:50.000Z</time>
      </trkpt>
      <trkpt lat="43.96846" lon="5.13853">
        <ele>444.4</ele>
        <time>2013-01-24T13:57:51.000Z</time>
      </trkpt>
      <trkpt lat="43.96843" lon="5.13853">
        <ele>444.4</ele>
        <time>2013-01-24T13:57:52.000Z</time>
      </trkpt>
      <trkpt lat="43.96839" lon="5.13853">
        <ele>444.2</ele>
        <time>2013-01-24T13:57:53.000Z</time>
      </trkpt>
      <trkpt lat="43.96836" lon="5.13853">
        <ele>444.2</ele>
        <time>2013-01-24T13:57:54.000Z</time>
      </trkpt>
      <trkpt lat="43.96833" lon="5.13853">
        <ele>444.1</ele>
        <time>2013-01-24T13:57:55.000Z</time>
      </trkpt>
      <trkpt lat="43.9683" lon="5.13853">
        <ele>444.1</ele>
        <time>2013-01-24T13:57:56.000Z</time>
      </trkpt>
      <trkpt lat="43.96827" lon="5.13853">
        <ele>444.1</ele>
        <time>2013-01-24T13:57:57.000Z</time>
      </trkpt>
      <trkpt lat="43.96825" lon="5.13853">
        <ele>444.2</ele>
        <time>2013-01-24T13:57:58.000Z</time>
      </trkpt>
      <trkpt lat="43.96822" lon="5.13853">
        <ele>444</ele>
        <time>2013-01-24T13:57:59.000Z</time>
      </trkpt>
      <trkpt lat="43.96819" lon="5.13853">
        <ele>443.2</ele>
        <time>2013-01-24T13:58:00.000Z</time>
      </trkpt>
      <trkpt lat="43.96815" lon="5.13853">
        <ele>442.4</ele>
        <time>2013-01-24T13:58:01.000Z</time>
      </trkpt>
      <trkpt lat="43.96812" lon="5.13853">
        <ele>442</ele>
        <time>2013-01-24T13:58:02.000Z</time>
      </trkpt>
      <trkpt lat="43.96807" lon="5.13853">
        <ele>442.3</ele>
        <time>2013-01-24T13:58:04.000Z</time>
      </trkpt>
      <trkpt lat="43.96805" lon="5.13855">
        <ele>442.5</ele>
        <time>2013-01-24T13:58:05.000Z</time>
      </trkpt>
      <trkpt lat="43.96801" lon="5.13856">
        <ele>443.3</ele>
        <time>2013-01-24T13:58:07.000Z</time>
      </trkpt>
      <trkpt lat="43.96799" lon="5.13856">
        <ele>443.4</ele>
        <time>2013-01-24T13:58:08.000Z</time>
      </trkpt>
      <trkpt lat="43.96797" lon="5.13856">
        <ele>443.2</ele>
        <time>2013-01-24T13:58:09.000Z</time>
      </trkpt>
      <trkpt lat="43.96794" lon="5.13857">
        <ele>443.1</ele>
        <time>2013-01-24T13:58:10.000Z</time>
      </trkpt>
      <trkpt lat="43.96792" lon="5.13858">
        <ele>442.9</ele>
        <time>2013-01-24T13:58:11.000Z</time>
      </trkpt>
      <trkpt lat="43.96789" lon="5.13858">
        <ele>443.2</ele>
        <time>2013-01-24T13:58:12.000Z</time>
      </trkpt>
      <trkpt lat="43.96785" lon="5.13858">
        <ele>442.3</ele>
        <time>2013-01-24T13:58:14.000Z</time>
      </trkpt>
      <trkpt lat="43.96783" lon="5.13856">
        <ele>441.6</ele>
        <time>2013-01-24T13:58:15.000Z</time>
      </trkpt>
      <trkpt lat="43.9678" lon="5.13856">
        <ele>441.1</ele>
        <time>2013-01-24T13:58:16.000Z</time>
      </trkpt>
      <trkpt lat="43.96778" lon="5.13855">
        <ele>440.2</ele>
        <time>2013-01-24T13:58:17.000Z</time>
      </trkpt>
      <trkpt lat="43.96775" lon="5.13854">
        <ele>439.3</ele>
        <time>2013-01-24T13:58:18.000Z</time>
      </trkpt>
      <trkpt lat="43.96774" lon="5.13851">
        <ele>438.4</ele>
        <time>2013-01-24T13:58:19.000Z</time>
      </trkpt>
      <trkpt lat="43.96772" lon="5.13849">
        <ele>437.6</ele>
        <time>2013-01-24T13:58:20.000Z</time>
      </trkpt>
      <trkpt lat="43.96768" lon="5.13848">
        <ele>436.8</ele>
        <time>2013-01-24T13:58:21.000Z</time>
      </trkpt>
      <trkpt lat="43.96764" lon="5.13848">
        <ele>436.3</ele>
        <time>2013-01-24T13:58:22.000Z</time>
      </trkpt>
      <trkpt lat="43.96762" lon="5.13848">
        <ele>435.7</ele>
        <time>2013-01-24T13:58:23.000Z</time>
      </trkpt>
      <trkpt lat="43.96759" lon="5.13848">
        <ele>434.8</ele>
        <time>2013-01-24T13:58:24.000Z</time>
      </trkpt>
      <trkpt lat="43.96757" lon="5.13848">
        <ele>434.2</ele>
        <time>2013-01-24T13:58:25.000Z</time>
      </trkpt>
      <trkpt lat="43.96754" lon="5.13846">
        <ele>436.7</ele>
        <time>2013-01-24T13:58:26.000Z</time>
      </trkpt>
      <trkpt lat="43.96751" lon="5.13846">
        <ele>437.8</ele>
        <time>2013-01-24T13:58:27.000Z</time>
      </trkpt>
      <trkpt lat="43.96747" lon="5.13844">
        <ele>436.6</ele>
        <time>2013-01-24T13:58:29.000Z</time>
      </trkpt>
      <trkpt lat="43.96745" lon="5.13843">
        <ele>435.9</ele>
        <time>2013-01-24T13:58:30.000Z</time>
      </trkpt>
      <trkpt lat="43.96741" lon="5.13841">
        <ele>434.6</ele>
        <time>2013-01-24T13:58:39.000Z</time>
      </trkpt>
      <trkpt lat="43.9674" lon="5.13842">
        <ele>434.5</ele>
        <time>2013-01-24T13:58:40.000Z</time>
      </trkpt>
      <trkpt lat="43.96736" lon="5.13842">
        <ele>434.3</ele>
        <time>2013-01-24T13:58:42.000Z</time>
      </trkpt>
      <trkpt lat="43.96733" lon="5.13842">
        <ele>434.2</ele>
        <time>2013-01-24T13:58:43.000Z</time>
      </trkpt>
      <trkpt lat="43.96728" lon="5.13843">
        <ele>434</ele>
        <time>2013-01-24T13:58:44.000Z</time>
      </trkpt>
      <trkpt lat="43.96722" lon="5.13847">
        <ele>433</ele>
        <time>2013-01-24T13:58:45.000Z</time>
      </trkpt>
      <trkpt lat="43.96718" lon="5.1385">
        <ele>433.3</ele>
        <time>2013-01-24T13:58:46.000Z</time>
      </trkpt>
      <trkpt lat="43.96715" lon="5.13852">
        <ele>432.4</ele>
        <time>2013-01-24T13:58:47.000Z</time>
      </trkpt>
      <trkpt lat="43.96712" lon="5.13855">
        <ele>431.6</ele>
        <time>2013-01-24T13:58:48.000Z</time>
      </trkpt>
      <trkpt lat="43.96709" lon="5.13856">
        <ele>431.1</ele>
        <time>2013-01-24T13:58:49.000Z</time>
      </trkpt>
      <trkpt lat="43.96706" lon="5.13859">
        <ele>430.7</ele>
        <time>2013-01-24T13:58:50.000Z</time>
      </trkpt>
      <trkpt lat="43.96702" lon="5.13859">
        <ele>429.3</ele>
        <time>2013-01-24T13:58:51.000Z</time>
      </trkpt>
      <trkpt lat="43.96699" lon="5.13861">
        <ele>428.4</ele>
        <time>2013-01-24T13:58:52.000Z</time>
      </trkpt>
      <trkpt lat="43.96693" lon="5.13863">
        <ele>428.7</ele>
        <time>2013-01-24T13:58:53.000Z</time>
      </trkpt>
      <trkpt lat="43.96689" lon="5.13864">
        <ele>428</ele>
        <time>2013-01-24T13:58:54.000Z</time>
      </trkpt>
      <trkpt lat="43.96684" lon="5.13864">
        <ele>427.5</ele>
        <time>2013-01-24T13:58:55.000Z</time>
      </trkpt>
      <trkpt lat="43.9668" lon="5.13865">
        <ele>427.5</ele>
        <time>2013-01-24T13:58:56.000Z</time>
      </trkpt>
      <trkpt lat="43.96677" lon="5.13866">
        <ele>427</ele>
        <time>2013-01-24T13:58:57.000Z</time>
      </trkpt>
      <trkpt lat="43.96675" lon="5.13867">
        <ele>426.6</ele>
        <time>2013-01-24T13:58:58.000Z</time>
      </trkpt>
      <trkpt lat="43.96672" lon="5.13867">
        <ele>426.6</ele>
        <time>2013-01-24T13:58:59.000Z</time>
      </trkpt>
      <trkpt lat="43.96669" lon="5.13867">
        <ele>426.4</ele>
        <time>2013-01-24T13:59:00.000Z</time>
      </trkpt>
      <trkpt lat="43.96666" lon="5.13867">
        <ele>426.1</ele>
        <time>2013-01-24T13:59:01.000Z</time>
      </trkpt>
      <trkpt lat="43.96664" lon="5.13867">
        <ele>426.4</ele>
        <time>2013-01-24T13:59:02.000Z</time>
      </trkpt>
      <trkpt lat="43.9666" lon="5.13868">
        <ele>426.4</ele>
        <time>2013-01-24T13:59:03.000Z</time>
      </trkpt>
      <trkpt lat="43.96657" lon="5.13868">
        <ele>427</ele>
        <time>2013-01-24T13:59:04.000Z</time>
      </trkpt>
      <trkpt lat="43.96654" lon="5.13868">
        <ele>427.1</ele>
        <time>2013-01-24T13:59:05.000Z</time>
      </trkpt>
      <trkpt lat="43.96651" lon="5.13869">
        <ele>427.1</ele>
        <time>2013-01-24T13:59:06.000Z</time>
      </trkpt>
      <trkpt lat="43.96649" lon="5.13869">
        <ele>427.4</ele>
        <time>2013-01-24T13:59:07.000Z</time>
      </trkpt>
      <trkpt lat="43.96645" lon="5.1387">
        <ele>427.4</ele>
        <time>2013-01-24T13:59:09.000Z</time>
      </trkpt>
      <trkpt lat="43.96642" lon="5.13871">
        <ele>427.7</ele>
        <time>2013-01-24T13:59:10.000Z</time>
      </trkpt>
      <trkpt lat="43.9664" lon="5.13872">
        <ele>427.8</ele>
        <time>2013-01-24T13:59:11.000Z</time>
      </trkpt>
      <trkpt lat="43.96637" lon="5.13872">
        <ele>428.2</ele>
        <time>2013-01-24T13:59:12.000Z</time>
      </trkpt>
      <trkpt lat="43.96635" lon="5.13873">
        <ele>428.5</ele>
        <time>2013-01-24T13:59:13.000Z</time>
      </trkpt>
      <trkpt lat="43.96632" lon="5.13874">
        <ele>428.7</ele>
        <time>2013-01-24T13:59:14.000Z</time>
      </trkpt>
      <trkpt lat="43.9663" lon="5.13874">
        <ele>428.7</ele>
        <time>2013-01-24T13:59:15.000Z</time>
      </trkpt>
      <trkpt lat="43.96627" lon="5.13874">
        <ele>428.7</ele>
        <time>2013-01-24T13:59:16.000Z</time>
      </trkpt>
      <trkpt lat="43.96625" lon="5.13875">
        <ele>428.6</ele>
        <time>2013-01-24T13:59:17.000Z</time>
      </trkpt>
      <trkpt lat="43.96622" lon="5.13876">
        <ele>427.8</ele>
        <time>2013-01-24T13:59:18.000Z</time>
      </trkpt>
      <trkpt lat="43.9662" lon="5.13876">
        <ele>428.8</ele>
        <time>2013-01-24T13:59:19.000Z</time>
      </trkpt>
      <trkpt lat="43.96618" lon="5.13877">
        <ele>428.8</ele>
        <time>2013-01-24T13:59:20.000Z</time>
      </trkpt>
      <trkpt lat="43.96615" lon="5.13878">
        <ele>428.9</ele>
        <time>2013-01-24T13:59:21.000Z</time>
      </trkpt>
      <trkpt lat="43.96613" lon="5.13879">
        <ele>429.1</ele>
        <time>2013-01-24T13:59:22.000Z</time>
      </trkpt>
      <trkpt lat="43.96608" lon="5.1388">
        <ele>429.1</ele>
        <time>2013-01-24T13:59:24.000Z</time>
      </trkpt>
      <trkpt lat="43.96606" lon="5.13882">
        <ele>428.8</ele>
        <time>2013-01-24T13:59:25.000Z</time>
      </trkpt>
      <trkpt lat="43.96602" lon="5.13884">
        <ele>428</ele>
        <time>2013-01-24T13:59:27.000Z</time>
      </trkpt>
      <trkpt lat="43.966" lon="5.13885">
        <ele>427.5</ele>
        <time>2013-01-24T13:59:28.000Z</time>
      </trkpt>
      <trkpt lat="43.96596" lon="5.13887">
        <ele>426.6</ele>
        <time>2013-01-24T13:59:29.000Z</time>
      </trkpt>
      <trkpt lat="43.96592" lon="5.13889">
        <ele>425.8</ele>
        <time>2013-01-24T13:59:30.000Z</time>
      </trkpt>
      <trkpt lat="43.96588" lon="5.1389">
        <ele>425.9</ele>
        <time>2013-01-24T13:59:31.000Z</time>
      </trkpt>
      <trkpt lat="43.96583" lon="5.13892">
        <ele>425.7</ele>
        <time>2013-01-24T13:59:32.000Z</time>
      </trkpt>
      <trkpt lat="43.96579" lon="5.13894">
        <ele>425.5</ele>
        <time>2013-01-24T13:59:33.000Z</time>
      </trkpt>
      <trkpt lat="43.96577" lon="5.13895">
        <ele>426</ele>
        <time>2013-01-24T13:59:34.000Z</time>
      </trkpt>
      <trkpt lat="43.96579" lon="5.139">
        <ele>427.8</ele>
        <time>2013-01-24T13:59:44.000Z</time>
      </trkpt>
      <trkpt lat="43.96581" lon="5.139">
        <ele>429.3</ele>
        <time>2013-01-24T13:59:45.000Z</time>
      </trkpt>
      <trkpt lat="43.96579" lon="5.13896">
        <ele>428.1</ele>
        <time>2013-01-24T13:59:46.000Z</time>
      </trkpt>
      <trkpt lat="43.96579" lon="5.13894">
        <ele>428.8</ele>
        <time>2013-01-24T13:59:47.000Z</time>
      </trkpt>
      <trkpt lat="43.96576" lon="5.13892">
        <ele>424.4</ele>
        <time>2013-01-24T14:02:50.000Z</time>
      </trkpt>
      <trkpt lat="43.96575" lon="5.13891">
        <ele>424.3</ele>
        <time>2013-01-24T14:02:51.000Z</time>
      </trkpt>
      <trkpt lat="43.96572" lon="5.13896">
        <ele>420.1</ele>
        <time>2013-01-24T14:07:59.000Z</time>
      </trkpt>
      <trkpt lat="43.9657" lon="5.13896">
        <ele>420.7</ele>
        <time>2013-01-24T14:08:00.000Z</time>
      </trkpt>
      <trkpt lat="43.96567" lon="5.13899">
        <ele>422.2</ele>
        <time>2013-01-24T14:08:02.000Z</time>
      </trkpt>
      <trkpt lat="43.96565" lon="5.13901">
        <ele>422.1</ele>
        <time>2013-01-24T14:08:03.000Z</time>
      </trkpt>
      <trkpt lat="43.96561" lon="5.13905">
        <ele>421.9</ele>
        <time>2013-01-24T14:08:05.000Z</time>
      </trkpt>
      <trkpt lat="43.9656" lon="5.13907">
        <ele>421.6</ele>
        <time>2013-01-24T14:08:06.000Z</time>
      </trkpt>
      <trkpt lat="43.96558" lon="5.13912">
        <ele>422.2</ele>
        <time>2013-01-24T14:08:08.000Z</time>
      </trkpt>
      <trkpt lat="43.96557" lon="5.13914">
        <ele>422</ele>
        <time>2013-01-24T14:08:09.000Z</time>
      </trkpt>
      <trkpt lat="43.96555" lon="5.13917">
        <ele>421.4</ele>
        <time>2013-01-24T14:08:12.000Z</time>
      </trkpt>
      <trkpt lat="43.96554" lon="5.13918">
        <ele>421.8</ele>
        <time>2013-01-24T14:08:13.000Z</time>
      </trkpt>
      <trkpt lat="43.96552" lon="5.13919">
        <ele>421.4</ele>
        <time>2013-01-24T14:08:15.000Z</time>
      </trkpt>
      <trkpt lat="43.96549" lon="5.13918">
        <ele>419.6</ele>
        <time>2013-01-24T14:08:16.000Z</time>
      </trkpt>
      <trkpt lat="43.96545" lon="5.13918">
        <ele>418</ele>
        <time>2013-01-24T14:08:18.000Z</time>
      </trkpt>
      <trkpt lat="43.96544" lon="5.13917">
        <ele>417.5</ele>
        <time>2013-01-24T14:08:19.000Z</time>
      </trkpt>
      <trkpt lat="43.96546" lon="5.13913">
        <ele>417.5</ele>
        <time>2013-01-24T14:08:21.000Z</time>
      </trkpt>
      <trkpt lat="43.96546" lon="5.13911">
        <ele>417.6</ele>
        <time>2013-01-24T14:08:22.000Z</time>
      </trkpt>
      <trkpt lat="43.96548" lon="5.13908">
        <ele>417.5</ele>
        <time>2013-01-24T14:08:24.000Z</time>
      </trkpt>
      <trkpt lat="43.96549" lon="5.13906">
        <ele>417.5</ele>
        <time>2013-01-24T14:08:25.000Z</time>
      </trkpt>
      <trkpt lat="43.96546" lon="5.13904">
        <ele>417.6</ele>
        <time>2013-01-24T14:08:37.000Z</time>
      </trkpt>
      <trkpt lat="43.96545" lon="5.13903">
        <ele>417.5</ele>
        <time>2013-01-24T14:08:38.000Z</time>
      </trkpt>
      <trkpt lat="43.96542" lon="5.13899">
        <ele>417.1</ele>
        <time>2013-01-24T14:08:50.000Z</time>
      </trkpt>
      <trkpt lat="43.96541" lon="5.13898">
        <ele>416.7</ele>
        <time>2013-01-24T14:08:51.000Z</time>
      </trkpt>
      <trkpt lat="43.96544" lon="5.13896">
        <ele>417.1</ele>
        <time>2013-01-24T14:08:58.000Z</time>
      </trkpt>
      <trkpt lat="43.96544" lon="5.13894">
        <ele>416.9</ele>
        <time>2013-01-24T14:08:59.000Z</time>
      </trkpt>
      <trkpt lat="43.96547" lon="5.13889">
        <ele>416.5</ele>
        <time>2013-01-24T14:09:06.000Z</time>
      </trkpt>
      <trkpt lat="43.96548" lon="5.13889">
        <ele>416.5</ele>
        <time>2013-01-24T14:09:07.000Z</time>
      </trkpt>
      <trkpt lat="43.96551" lon="5.13886">
        <ele>417.1</ele>
        <time>2013-01-24T14:09:12.000Z</time>
      </trkpt>
      <trkpt lat="43.96551" lon="5.13885">
        <ele>417.6</ele>
        <time>2013-01-24T14:09:13.000Z</time>
      </trkpt>
      <trkpt lat="43.96553" lon="5.13881">
        <ele>421</ele>
        <time>2013-01-24T14:09:21.000Z</time>
      </trkpt>
      <trkpt lat="43.96555" lon="5.1388">
        <ele>420.9</ele>
        <time>2013-01-24T14:09:22.000Z</time>
      </trkpt>
      <trkpt lat="43.96558" lon="5.13879">
        <ele>420.9</ele>
        <time>2013-01-24T14:09:24.000Z</time>
      </trkpt>
      <trkpt lat="43.9656" lon="5.13879">
        <ele>420.4</ele>
        <time>2013-01-24T14:09:25.000Z</time>
      </trkpt>
      <trkpt lat="43.96562" lon="5.13877">
        <ele>420.5</ele>
        <time>2013-01-24T14:09:26.000Z</time>
      </trkpt>
      <trkpt lat="43.96564" lon="5.13876">
        <ele>420.9</ele>
        <time>2013-01-24T14:09:27.000Z</time>
      </trkpt>
      <trkpt lat="43.96568" lon="5.13873">
        <ele>421.3</ele>
        <time>2013-01-24T14:09:29.000Z</time>
      </trkpt>
      <trkpt lat="43.9657" lon="5.1387">
        <ele>420</ele>
        <time>2013-01-24T14:09:30.000Z</time>
      </trkpt>
      <trkpt lat="43.9657" lon="5.13866">
        <ele>418.3</ele>
        <time>2013-01-24T14:09:31.000Z</time>
      </trkpt>
      <trkpt lat="43.96572" lon="5.13863">
        <ele>417.2</ele>
        <time>2013-01-24T14:09:32.000Z</time>
      </trkpt>
      <trkpt lat="43.96575" lon="5.1386">
        <ele>416.4</ele>
        <time>2013-01-24T14:09:34.000Z</time>
      </trkpt>
      <trkpt lat="43.96576" lon="5.13857">
        <ele>416.3</ele>
        <time>2013-01-24T14:09:35.000Z</time>
      </trkpt>
      <trkpt lat="43.96577" lon="5.13852">
        <ele>416</ele>
        <time>2013-01-24T14:09:37.000Z</time>
      </trkpt>
      <trkpt lat="43.96578" lon="5.1385">
        <ele>416.3</ele>
        <time>2013-01-24T14:09:38.000Z</time>
      </trkpt>
      <trkpt lat="43.96579" lon="5.13844">
        <ele>415.3</ele>
        <time>2013-01-24T14:09:40.000Z</time>
      </trkpt>
      <trkpt lat="43.96578" lon="5.13841">
        <ele>415.4</ele>
        <time>2013-01-24T14:09:41.000Z</time>
      </trkpt>
      <trkpt lat="43.96573" lon="5.13841">
        <ele>414.7</ele>
        <time>2013-01-24T14:09:44.000Z</time>
      </trkpt>
      <trkpt lat="43.96572" lon="5.13842">
        <ele>415</ele>
        <time>2013-01-24T14:09:45.000Z</time>
      </trkpt>
      <trkpt lat="43.96568" lon="5.13844">
        <ele>414.8</ele>
        <time>2013-01-24T14:09:48.000Z</time>
      </trkpt>
      <trkpt lat="43.96567" lon="5.13845">
        <ele>414.6</ele>
        <time>2013-01-24T14:09:49.000Z</time>
      </trkpt>
      <trkpt lat="43.96564" lon="5.13847">
        <ele>414.5</ele>
        <time>2013-01-24T14:09:51.000Z</time>
      </trkpt>
      <trkpt lat="43.96562" lon="5.13847">
        <ele>414.4</ele>
        <time>2013-01-24T14:09:52.000Z</time>
      </trkpt>
      <trkpt lat="43.96559" lon="5.13848">
        <ele>414.2</ele>
        <time>2013-01-24T14:09:54.000Z</time>
      </trkpt>
      <trkpt lat="43.96558" lon="5.13849">
        <ele>414.5</ele>
        <time>2013-01-24T14:09:55.000Z</time>
      </trkpt>
      <trkpt lat="43.96554" lon="5.1385">
        <ele>414.4</ele>
        <time>2013-01-24T14:09:58.000Z</time>
      </trkpt>
      <trkpt lat="43.96552" lon="5.13851">
        <ele>414.6</ele>
        <time>2013-01-24T14:09:59.000Z</time>
      </trkpt>
      <trkpt lat="43.96549" lon="5.13853">
        <ele>415.4</ele>
        <time>2013-01-24T14:10:03.000Z</time>
      </trkpt>
      <trkpt lat="43.96548" lon="5.13855">
        <ele>415.5</ele>
        <time>2013-01-24T14:10:04.000Z</time>
      </trkpt>
      <trkpt lat="43.96544" lon="5.13856">
        <ele>414.8</ele>
        <time>2013-01-24T14:10:10.000Z</time>
      </trkpt>
      <trkpt lat="43.96543" lon="5.13854">
        <ele>414.8</ele>
        <time>2013-01-24T14:10:11.000Z</time>
      </trkpt>
      <trkpt lat="43.96539" lon="5.13852">
        <ele>414.1</ele>
        <time>2013-01-24T14:10:17.000Z</time>
      </trkpt>
      <trkpt lat="43.96538" lon="5.13851">
        <ele>413.7</ele>
        <time>2013-01-24T14:10:18.000Z</time>
      </trkpt>
      <trkpt lat="43.96535" lon="5.1385">
        <ele>414.3</ele>
        <time>2013-01-24T14:10:33.000Z</time>
      </trkpt>
      <trkpt lat="43.96534" lon="5.1385">
        <ele>414.4</ele>
        <time>2013-01-24T14:10:34.000Z</time>
      </trkpt>
      <trkpt lat="43.96533" lon="5.13844">
        <ele>415.6</ele>
        <time>2013-01-24T14:19:26.000Z</time>
      </trkpt>
      <trkpt lat="43.96533" lon="5.13843">
        <ele>423.9</ele>
        <time>2013-01-24T14:19:27.000Z</time>
      </trkpt>
      <trkpt lat="43.96537" lon="5.13844">
        <ele>430</ele>
        <time>2013-01-24T14:19:33.000Z</time>
      </trkpt>
      <trkpt lat="43.96537" lon="5.13845">
        <ele>429.3</ele>
        <time>2013-01-24T14:19:34.000Z</time>
      </trkpt>
      <trkpt lat="43.96541" lon="5.13849">
        <ele>428.1</ele>
        <time>2013-01-24T14:19:38.000Z</time>
      </trkpt>
      <trkpt lat="43.96542" lon="5.1385">
        <ele>427.1</ele>
        <time>2013-01-24T14:19:39.000Z</time>
      </trkpt>
      <trkpt lat="43.96545" lon="5.13854">
        <ele>421</ele>
        <time>2013-01-24T14:19:44.000Z</time>
      </trkpt>
      <trkpt lat="43.96545" lon="5.13855">
        <ele>420.4</ele>
        <time>2013-01-24T14:19:45.000Z</time>
      </trkpt>
      <trkpt lat="43.96549" lon="5.13858">
        <ele>421.3</ele>
        <time>2013-01-24T14:19:48.000Z</time>
      </trkpt>
      <trkpt lat="43.96549" lon="5.13858">
        <ele>421.5</ele>
        <time>2013-01-24T14:19:49.000Z</time>
      </trkpt>
      <trkpt lat="43.96554" lon="5.13858">
        <ele>416.1</ele>
        <time>2013-01-24T14:20:01.000Z</time>
      </trkpt>
      <trkpt lat="43.96554" lon="5.13858">
        <ele>415.1</ele>
        <time>2013-01-24T14:20:02.000Z</time>
      </trkpt>
      <trkpt lat="43.9655" lon="5.1386">
        <ele>420.2</ele>
        <time>2013-01-24T14:27:24.000Z</time>
      </trkpt>
      <trkpt lat="43.96549" lon="5.1386">
        <ele>419.6</ele>
        <time>2013-01-24T14:27:25.000Z</time>
      </trkpt>
      <trkpt lat="43.96547" lon="5.13856">
        <ele>413.5</ele>
        <time>2013-01-24T14:27:32.000Z</time>
      </trkpt>
      <trkpt lat="43.96545" lon="5.13855">
        <ele>412.8</ele>
        <time>2013-01-24T14:27:33.000Z</time>
      </trkpt>
      <trkpt lat="43.96542" lon="5.13854">
        <ele>413.7</ele>
        <time>2013-01-24T14:27:37.000Z</time>
      </trkpt>
      <trkpt lat="43.96541" lon="5.13854">
        <ele>413</ele>
        <time>2013-01-24T14:27:38.000Z</time>
      </trkpt>
      <trkpt lat="43.96544" lon="5.13856">
        <ele>413.2</ele>
        <time>2013-01-24T14:28:14.000Z</time>
      </trkpt>
      <trkpt lat="43.96545" lon="5.13857">
        <ele>413.1</ele>
        <time>2013-01-24T14:28:15.000Z</time>
      </trkpt>
      <trkpt lat="43.96546" lon="5.13861">
        <ele>414.8</ele>
        <time>2013-01-24T14:28:40.000Z</time>
      </trkpt>
      <trkpt lat="43.96546" lon="5.13863">
        <ele>414.7</ele>
        <time>2013-01-24T14:28:41.000Z</time>
      </trkpt>
      <trkpt lat="43.96545" lon="5.13869">
        <ele>414.5</ele>
        <time>2013-01-24T14:28:44.000Z</time>
      </trkpt>
      <trkpt lat="43.96544" lon="5.13871">
        <ele>414.2</ele>
        <time>2013-01-24T14:28:45.000Z</time>
      </trkpt>
      <trkpt lat="43.96542" lon="5.13875">
        <ele>413.1</ele>
        <time>2013-01-24T14:28:47.000Z</time>
      </trkpt>
      <trkpt lat="43.96541" lon="5.13878">
        <ele>413.5</ele>
        <time>2013-01-24T14:28:48.000Z</time>
      </trkpt>
      <trkpt lat="43.96539" lon="5.13883">
        <ele>412.5</ele>
        <time>2013-01-24T14:28:50.000Z</time>
      </trkpt>
      <trkpt lat="43.96538" lon="5.13885">
        <ele>412.2</ele>
        <time>2013-01-24T14:28:51.000Z</time>
      </trkpt>
      <trkpt lat="43.96537" lon="5.13889">
        <ele>413</ele>
        <time>2013-01-24T14:28:53.000Z</time>
      </trkpt>
      <trkpt lat="43.96537" lon="5.13892">
        <ele>413.3</ele>
        <time>2013-01-24T14:28:54.000Z</time>
      </trkpt>
      <trkpt lat="43.96535" lon="5.13897">
        <ele>415.5</ele>
        <time>2013-01-24T14:28:56.000Z</time>
      </trkpt>
      <trkpt lat="43.96535" lon="5.139">
        <ele>415.4</ele>
        <time>2013-01-24T14:28:57.000Z</time>
      </trkpt>
      <trkpt lat="43.96534" lon="5.13904">
        <ele>416</ele>
        <time>2013-01-24T14:28:59.000Z</time>
      </trkpt>
      <trkpt lat="43.96533" lon="5.13906">
        <ele>416.3</ele>
        <time>2013-01-24T14:29:00.000Z</time>
      </trkpt>
      <trkpt lat="43.96529" lon="5.13906">
        <ele>417.2</ele>
        <time>2013-01-24T14:29:04.000Z</time>
      </trkpt>
      <trkpt lat="43.96527" lon="5.13906">
        <ele>417.8</ele>
        <time>2013-01-24T14:29:05.000Z</time>
      </trkpt>
      <trkpt lat="43.96523" lon="5.13905">
        <ele>418.1</ele>
        <time>2013-01-24T14:29:07.000Z</time>
      </trkpt>
      <trkpt lat="43.9652" lon="5.13906">
        <ele>417.9</ele>
        <time>2013-01-24T14:29:08.000Z</time>
      </trkpt>
      <trkpt lat="43.96517" lon="5.13909">
        <ele>417.8</ele>
        <time>2013-01-24T14:29:10.000Z</time>
      </trkpt>
      <trkpt lat="43.96516" lon="5.13911">
        <ele>417.4</ele>
        <time>2013-01-24T14:29:11.000Z</time>
      </trkpt>
      <trkpt lat="43.96516" lon="5.13916">
        <ele>418.7</ele>
        <time>2013-01-24T14:29:13.000Z</time>
      </trkpt>
      <trkpt lat="43.96517" lon="5.1392">
        <ele>418.5</ele>
        <time>2013-01-24T14:29:14.000Z</time>
      </trkpt>
      <trkpt lat="43.96517" lon="5.13925">
        <ele>418.5</ele>
        <time>2013-01-24T14:29:16.000Z</time>
      </trkpt>
      <trkpt lat="43.96516" lon="5.13928">
        <ele>418.9</ele>
        <time>2013-01-24T14:29:17.000Z</time>
      </trkpt>
      <trkpt lat="43.96515" lon="5.13933">
        <ele>420.4</ele>
        <time>2013-01-24T14:29:19.000Z</time>
      </trkpt>
      <trkpt lat="43.96515" lon="5.13936">
        <ele>420.6</ele>
        <time>2013-01-24T14:29:20.000Z</time>
      </trkpt>
      <trkpt lat="43.96514" lon="5.1394">
        <ele>421.8</ele>
        <time>2013-01-24T14:29:22.000Z</time>
      </trkpt>
      <trkpt lat="43.96513" lon="5.13942">
        <ele>422.1</ele>
        <time>2013-01-24T14:29:23.000Z</time>
      </trkpt>
      <trkpt lat="43.96513" lon="5.13946">
        <ele>422.2</ele>
        <time>2013-01-24T14:29:26.000Z</time>
      </trkpt>
      <trkpt lat="43.96514" lon="5.13948">
        <ele>423</ele>
        <time>2013-01-24T14:29:27.000Z</time>
      </trkpt>
      <trkpt lat="43.96518" lon="5.1395">
        <ele>418.1</ele>
        <time>2013-01-24T14:29:29.000Z</time>
      </trkpt>
      <trkpt lat="43.96519" lon="5.13951">
        <ele>417.6</ele>
        <time>2013-01-24T14:29:30.000Z</time>
      </trkpt>
      <trkpt lat="43.9652" lon="5.13956">
        <ele>416.4</ele>
        <time>2013-01-24T14:29:34.000Z</time>
      </trkpt>
      <trkpt lat="43.9652" lon="5.13958">
        <ele>415.2</ele>
        <time>2013-01-24T14:29:35.000Z</time>
      </trkpt>
      <trkpt lat="43.96519" lon="5.13963">
        <ele>415</ele>
        <time>2013-01-24T14:29:39.000Z</time>
      </trkpt>
      <trkpt lat="43.96518" lon="5.13964">
        <ele>414.7</ele>
        <time>2013-01-24T14:29:40.000Z</time>
      </trkpt>
      <trkpt lat="43.96517" lon="5.13969">
        <ele>416.4</ele>
        <time>2013-01-24T14:29:45.000Z</time>
      </trkpt>
      <trkpt lat="43.96517" lon="5.13971">
        <ele>417</ele>
        <time>2013-01-24T14:29:46.000Z</time>
      </trkpt>
      <trkpt lat="43.96516" lon="5.13976">
        <ele>421.3</ele>
        <time>2013-01-24T14:29:51.000Z</time>
      </trkpt>
      <trkpt lat="43.96516" lon="5.13978">
        <ele>421.7</ele>
        <time>2013-01-24T14:29:52.000Z</time>
      </trkpt>
      <trkpt lat="43.96515" lon="5.13982">
        <ele>423.1</ele>
        <time>2013-01-24T14:29:55.000Z</time>
      </trkpt>
      <trkpt lat="43.96515" lon="5.13984">
        <ele>423.4</ele>
        <time>2013-01-24T14:29:56.000Z</time>
      </trkpt>
      <trkpt lat="43.96514" lon="5.1399">
        <ele>423.4</ele>
        <time>2013-01-24T14:30:00.000Z</time>
      </trkpt>
      <trkpt lat="43.96513" lon="5.13992">
        <ele>423.6</ele>
        <time>2013-01-24T14:30:01.000Z</time>
      </trkpt>
      <trkpt lat="43.96512" lon="5.13996">
        <ele>424.5</ele>
        <time>2013-01-24T14:30:04.000Z</time>
      </trkpt>
      <trkpt lat="43.96512" lon="5.13998">
        <ele>424.6</ele>
        <time>2013-01-24T14:30:05.000Z</time>
      </trkpt>
      <trkpt lat="43.9651" lon="5.14003">
        <ele>425.9</ele>
        <time>2013-01-24T14:30:08.000Z</time>
      </trkpt>
      <trkpt lat="43.9651" lon="5.14004">
        <ele>426.4</ele>
        <time>2013-01-24T14:30:09.000Z</time>
      </trkpt>
      <trkpt lat="43.96507" lon="5.14009">
        <ele>426.7</ele>
        <time>2013-01-24T14:30:13.000Z</time>
      </trkpt>
      <trkpt lat="43.96507" lon="5.1401">
        <ele>426.6</ele>
        <time>2013-01-24T14:30:14.000Z</time>
      </trkpt>
      <trkpt lat="43.96506" lon="5.14016">
        <ele>427.7</ele>
        <time>2013-01-24T14:30:17.000Z</time>
      </trkpt>
      <trkpt lat="43.96505" lon="5.14017">
        <ele>427.1</ele>
        <time>2013-01-24T14:30:18.000Z</time>
      </trkpt>
      <trkpt lat="43.96504" lon="5.14022">
        <ele>427.1</ele>
        <time>2013-01-24T14:30:21.000Z</time>
      </trkpt>
      <trkpt lat="43.96503" lon="5.14023">
        <ele>427.7</ele>
        <time>2013-01-24T14:30:22.000Z</time>
      </trkpt>
      <trkpt lat="43.96502" lon="5.14029">
        <ele>427.8</ele>
        <time>2013-01-24T14:30:25.000Z</time>
      </trkpt>
      <trkpt lat="43.96501" lon="5.14031">
        <ele>427.7</ele>
        <time>2013-01-24T14:30:26.000Z</time>
      </trkpt>
      <trkpt lat="43.965" lon="5.14037">
        <ele>428.8</ele>
        <time>2013-01-24T14:30:29.000Z</time>
      </trkpt>
      <trkpt lat="43.96499" lon="5.14038">
        <ele>428.9</ele>
        <time>2013-01-24T14:30:30.000Z</time>
      </trkpt>
      <trkpt lat="43.96498" lon="5.14044">
        <ele>429.4</ele>
        <time>2013-01-24T14:30:33.000Z</time>
      </trkpt>
      <trkpt lat="43.96497" lon="5.14046">
        <ele>429.7</ele>
        <time>2013-01-24T14:30:34.000Z</time>
      </trkpt>
      <trkpt lat="43.96496" lon="5.14051">
        <ele>430</ele>
        <time>2013-01-24T14:30:37.000Z</time>
      </trkpt>
      <trkpt lat="43.96495" lon="5.14053">
        <ele>430.2</ele>
        <time>2013-01-24T14:30:38.000Z</time>
      </trkpt>
      <trkpt lat="43.96494" lon="5.14058">
        <ele>431.2</ele>
        <time>2013-01-24T14:30:41.000Z</time>
      </trkpt>
      <trkpt lat="43.96494" lon="5.1406">
        <ele>431.7</ele>
        <time>2013-01-24T14:30:42.000Z</time>
      </trkpt>
      <trkpt lat="43.96492" lon="5.14065">
        <ele>431</ele>
        <time>2013-01-24T14:30:45.000Z</time>
      </trkpt>
      <trkpt lat="43.96492" lon="5.14067">
        <ele>431</ele>
        <time>2013-01-24T14:30:46.000Z</time>
      </trkpt>
      <trkpt lat="43.96491" lon="5.14072">
        <ele>431.3</ele>
        <time>2013-01-24T14:30:49.000Z</time>
      </trkpt>
      <trkpt lat="43.9649" lon="5.14073">
        <ele>431.5</ele>
        <time>2013-01-24T14:30:50.000Z</time>
      </trkpt>
      <trkpt lat="43.96489" lon="5.14079">
        <ele>431.7</ele>
        <time>2013-01-24T14:30:53.000Z</time>
      </trkpt>
      <trkpt lat="43.96488" lon="5.1408">
        <ele>431.6</ele>
        <time>2013-01-24T14:30:54.000Z</time>
      </trkpt>
      <trkpt lat="43.96486" lon="5.14086">
        <ele>432.7</ele>
        <time>2013-01-24T14:30:57.000Z</time>
      </trkpt>
      <trkpt lat="43.96486" lon="5.14088">
        <ele>433.1</ele>
        <time>2013-01-24T14:30:58.000Z</time>
      </trkpt>
      <trkpt lat="43.96484" lon="5.14091">
        <ele>433.5</ele>
        <time>2013-01-24T14:31:00.000Z</time>
      </trkpt>
      <trkpt lat="43.96484" lon="5.14093">
        <ele>433.6</ele>
        <time>2013-01-24T14:31:01.000Z</time>
      </trkpt>
      <trkpt lat="43.96482" lon="5.14097">
        <ele>433.9</ele>
        <time>2013-01-24T14:31:03.000Z</time>
      </trkpt>
      <trkpt lat="43.96481" lon="5.14098">
        <ele>434</ele>
        <time>2013-01-24T14:31:04.000Z</time>
      </trkpt>
      <trkpt lat="43.9648" lon="5.14102">
        <ele>434</ele>
        <time>2013-01-24T14:31:06.000Z</time>
      </trkpt>
      <trkpt lat="43.96479" lon="5.14104">
        <ele>434.3</ele>
        <time>2013-01-24T14:31:07.000Z</time>
      </trkpt>
      <trkpt lat="43.96476" lon="5.14109">
        <ele>435</ele>
        <time>2013-01-24T14:31:10.000Z</time>
      </trkpt>
      <trkpt lat="43.96475" lon="5.14111">
        <ele>435.2</ele>
        <time>2013-01-24T14:31:11.000Z</time>
      </trkpt>
      <trkpt lat="43.96473" lon="5.14114">
        <ele>435.8</ele>
        <time>2013-01-24T14:31:13.000Z</time>
      </trkpt>
      <trkpt lat="43.96472" lon="5.14116">
        <ele>436</ele>
        <time>2013-01-24T14:31:14.000Z</time>
      </trkpt>
      <trkpt lat="43.9647" lon="5.14119">
        <ele>436.7</ele>
        <time>2013-01-24T14:31:16.000Z</time>
      </trkpt>
      <trkpt lat="43.96469" lon="5.14121">
        <ele>436.8</ele>
        <time>2013-01-24T14:31:17.000Z</time>
      </trkpt>
      <trkpt lat="43.96467" lon="5.14124">
        <ele>437</ele>
        <time>2013-01-24T14:31:19.000Z</time>
      </trkpt>
      <trkpt lat="43.96466" lon="5.14126">
        <ele>437.2</ele>
        <time>2013-01-24T14:31:20.000Z</time>
      </trkpt>
      <trkpt lat="43.96464" lon="5.1413">
        <ele>437.8</ele>
        <time>2013-01-24T14:31:22.000Z</time>
      </trkpt>
      <trkpt lat="43.96462" lon="5.14132">
        <ele>437.8</ele>
        <time>2013-01-24T14:31:23.000Z</time>
      </trkpt>
      <trkpt lat="43.9646" lon="5.14135">
        <ele>437.6</ele>
        <time>2013-01-24T14:31:25.000Z</time>
      </trkpt>
      <trkpt lat="43.96459" lon="5.14137">
        <ele>437.8</ele>
        <time>2013-01-24T14:31:26.000Z</time>
      </trkpt>
      <trkpt lat="43.96457" lon="5.14141">
        <ele>437.7</ele>
        <time>2013-01-24T14:31:28.000Z</time>
      </trkpt>
      <trkpt lat="43.96456" lon="5.14143">
        <ele>437.7</ele>
        <time>2013-01-24T14:31:29.000Z</time>
      </trkpt>
      <trkpt lat="43.96453" lon="5.14146">
        <ele>438</ele>
        <time>2013-01-24T14:31:31.000Z</time>
      </trkpt>
      <trkpt lat="43.96452" lon="5.14147">
        <ele>438.1</ele>
        <time>2013-01-24T14:31:32.000Z</time>
      </trkpt>
      <trkpt lat="43.9645" lon="5.14151">
        <ele>438.5</ele>
        <time>2013-01-24T14:31:34.000Z</time>
      </trkpt>
      <trkpt lat="43.96449" lon="5.14153">
        <ele>438.3</ele>
        <time>2013-01-24T14:31:35.000Z</time>
      </trkpt>
      <trkpt lat="43.96446" lon="5.14156">
        <ele>438.4</ele>
        <time>2013-01-24T14:31:37.000Z</time>
      </trkpt>
      <trkpt lat="43.96445" lon="5.14158">
        <ele>438.5</ele>
        <time>2013-01-24T14:31:38.000Z</time>
      </trkpt>
      <trkpt lat="43.96443" lon="5.14162">
        <ele>438.9</ele>
        <time>2013-01-24T14:31:40.000Z</time>
      </trkpt>
      <trkpt lat="43.96442" lon="5.14163">
        <ele>439.2</ele>
        <time>2013-01-24T14:31:41.000Z</time>
      </trkpt>
      <trkpt lat="43.96439" lon="5.14166">
        <ele>439</ele>
        <time>2013-01-24T14:31:43.000Z</time>
      </trkpt>
      <trkpt lat="43.96438" lon="5.14168">
        <ele>438.9</ele>
        <time>2013-01-24T14:31:44.000Z</time>
      </trkpt>
      <trkpt lat="43.96434" lon="5.14171">
        <ele>439</ele>
        <time>2013-01-24T14:31:47.000Z</time>
      </trkpt>
      <trkpt lat="43.96433" lon="5.14172">
        <ele>439.2</ele>
        <time>2013-01-24T14:31:48.000Z</time>
      </trkpt>
      <trkpt lat="43.96429" lon="5.14172">
        <ele>439.3</ele>
        <time>2013-01-24T14:31:51.000Z</time>
      </trkpt>
      <trkpt lat="43.96428" lon="5.14172">
        <ele>439.1</ele>
        <time>2013-01-24T14:31:52.000Z</time>
      </trkpt>
      <trkpt lat="43.96425" lon="5.14167">
        <ele>439</ele>
        <time>2013-01-24T14:31:55.000Z</time>
      </trkpt>
      <trkpt lat="43.96424" lon="5.14166">
        <ele>439.2</ele>
        <time>2013-01-24T14:31:56.000Z</time>
      </trkpt>
      <trkpt lat="43.96424" lon="5.1416">
        <ele>440.1</ele>
        <time>2013-01-24T14:31:59.000Z</time>
      </trkpt>
      <trkpt lat="43.96424" lon="5.14158">
        <ele>440.2</ele>
        <time>2013-01-24T14:32:00.000Z</time>
      </trkpt>
      <trkpt lat="43.96426" lon="5.14152">
        <ele>440.8</ele>
        <time>2013-01-24T14:32:03.000Z</time>
      </trkpt>
      <trkpt lat="43.96427" lon="5.1415">
        <ele>443.4</ele>
        <time>2013-01-24T14:32:04.000Z</time>
      </trkpt>
      <trkpt lat="43.96429" lon="5.14146">
        <ele>443.9</ele>
        <time>2013-01-24T14:32:06.000Z</time>
      </trkpt>
      <trkpt lat="43.9643" lon="5.14145">
        <ele>443.7</ele>
        <time>2013-01-24T14:32:07.000Z</time>
      </trkpt>
      <trkpt lat="43.96432" lon="5.14141">
        <ele>443.8</ele>
        <time>2013-01-24T14:32:09.000Z</time>
      </trkpt>
      <trkpt lat="43.96433" lon="5.14139">
        <ele>443.9</ele>
        <time>2013-01-24T14:32:10.000Z</time>
      </trkpt>
      <trkpt lat="43.96435" lon="5.14135">
        <ele>444.6</ele>
        <time>2013-01-24T14:32:12.000Z</time>
      </trkpt>
      <trkpt lat="43.96436" lon="5.14133">
        <ele>444.6</ele>
        <time>2013-01-24T14:32:13.000Z</time>
      </trkpt>
      <trkpt lat="43.96438" lon="5.14129">
        <ele>445.2</ele>
        <time>2013-01-24T14:32:15.000Z</time>
      </trkpt>
      <trkpt lat="43.96439" lon="5.14127">
        <ele>445.5</ele>
        <time>2013-01-24T14:32:16.000Z</time>
      </trkpt>
      <trkpt lat="43.96441" lon="5.14124">
        <ele>446.1</ele>
        <time>2013-01-24T14:32:18.000Z</time>
      </trkpt>
      <trkpt lat="43.96442" lon="5.14122">
        <ele>446.1</ele>
        <time>2013-01-24T14:32:19.000Z</time>
      </trkpt>
      <trkpt lat="43.96444" lon="5.14118">
        <ele>446.6</ele>
        <time>2013-01-24T14:32:21.000Z</time>
      </trkpt>
      <trkpt lat="43.96445" lon="5.14117">
        <ele>446.9</ele>
        <time>2013-01-24T14:32:22.000Z</time>
      </trkpt>
      <trkpt lat="43.96448" lon="5.14113">
        <ele>447.3</ele>
        <time>2013-01-24T14:32:24.000Z</time>
      </trkpt>
      <trkpt lat="43.96449" lon="5.14112">
        <ele>447.7</ele>
        <time>2013-01-24T14:32:25.000Z</time>
      </trkpt>
      <trkpt lat="43.96451" lon="5.14108">
        <ele>448.5</ele>
        <time>2013-01-24T14:32:27.000Z</time>
      </trkpt>
      <trkpt lat="43.96452" lon="5.14106">
        <ele>448.2</ele>
        <time>2013-01-24T14:32:28.000Z</time>
      </trkpt>
      <trkpt lat="43.96454" lon="5.14102">
        <ele>448.5</ele>
        <time>2013-01-24T14:32:30.000Z</time>
      </trkpt>
      <trkpt lat="43.96455" lon="5.141">
        <ele>448.5</ele>
        <time>2013-01-24T14:32:31.000Z</time>
      </trkpt>
      <trkpt lat="43.96457" lon="5.14095">
        <ele>448.9</ele>
        <time>2013-01-24T14:32:33.000Z</time>
      </trkpt>
      <trkpt lat="43.96457" lon="5.14093">
        <ele>449.1</ele>
        <time>2013-01-24T14:32:34.000Z</time>
      </trkpt>
      <trkpt lat="43.96457" lon="5.14088">
        <ele>449.3</ele>
        <time>2013-01-24T14:32:36.000Z</time>
      </trkpt>
      <trkpt lat="43.96458" lon="5.14085">
        <ele>449.5</ele>
        <time>2013-01-24T14:32:37.000Z</time>
      </trkpt>
      <trkpt lat="43.96457" lon="5.1408">
        <ele>449.7</ele>
        <time>2013-01-24T14:32:39.000Z</time>
      </trkpt>
      <trkpt lat="43.96457" lon="5.14078">
        <ele>450.1</ele>
        <time>2013-01-24T14:32:40.000Z</time>
      </trkpt>
      <trkpt lat="43.96456" lon="5.14073">
        <ele>450.1</ele>
        <time>2013-01-24T14:32:42.000Z</time>
      </trkpt>
      <trkpt lat="43.96456" lon="5.1407">
        <ele>449.6</ele>
        <time>2013-01-24T14:32:43.000Z</time>
      </trkpt>
      <trkpt lat="43.96456" lon="5.14065">
        <ele>449.3</ele>
        <time>2013-01-24T14:32:45.000Z</time>
      </trkpt>
      <trkpt lat="43.96456" lon="5.14063">
        <ele>449.5</ele>
        <time>2013-01-24T14:32:46.000Z</time>
      </trkpt>
      <trkpt lat="43.96455" lon="5.14057">
        <ele>449.6</ele>
        <time>2013-01-24T14:32:48.000Z</time>
      </trkpt>
      <trkpt lat="43.96455" lon="5.14054">
        <ele>449.7</ele>
        <time>2013-01-24T14:32:49.000Z</time>
      </trkpt>
      <trkpt lat="43.96454" lon="5.14048">
        <ele>450</ele>
        <time>2013-01-24T14:32:51.000Z</time>
      </trkpt>
      <trkpt lat="43.96454" lon="5.14045">
        <ele>450</ele>
        <time>2013-01-24T14:32:52.000Z</time>
      </trkpt>
      <trkpt lat="43.96454" lon="5.14039">
        <ele>449.5</ele>
        <time>2013-01-24T14:32:54.000Z</time>
      </trkpt>
      <trkpt lat="43.96454" lon="5.14036">
        <ele>449.5</ele>
        <time>2013-01-24T14:32:55.000Z</time>
      </trkpt>
      <trkpt lat="43.96453" lon="5.1403">
        <ele>449.9</ele>
        <time>2013-01-24T14:32:57.000Z</time>
      </trkpt>
      <trkpt lat="43.96453" lon="5.14027">
        <ele>450.1</ele>
        <time>2013-01-24T14:32:58.000Z</time>
      </trkpt>
      <trkpt lat="43.96455" lon="5.14023">
        <ele>450.3</ele>
        <time>2013-01-24T14:32:59.000Z</time>
      </trkpt>
      <trkpt lat="43.96455" lon="5.1402">
        <ele>450.5</ele>
        <time>2013-01-24T14:33:00.000Z</time>
      </trkpt>
      <trkpt lat="43.96456" lon="5.14014">
        <ele>450.2</ele>
        <time>2013-01-24T14:33:02.000Z</time>
      </trkpt>
      <trkpt lat="43.96456" lon="5.1401">
        <ele>450.8</ele>
        <time>2013-01-24T14:33:03.000Z</time>
      </trkpt>
      <trkpt lat="43.96457" lon="5.14007">
        <ele>450.7</ele>
        <time>2013-01-24T14:33:04.000Z</time>
      </trkpt>
      <trkpt lat="43.96457" lon="5.14003">
        <ele>450.5</ele>
        <time>2013-01-24T14:33:05.000Z</time>
      </trkpt>
      <trkpt lat="43.96458" lon="5.13997">
        <ele>450.4</ele>
        <time>2013-01-24T14:33:07.000Z</time>
      </trkpt>
      <trkpt lat="43.96457" lon="5.13994">
        <ele>450.5</ele>
        <time>2013-01-24T14:33:08.000Z</time>
      </trkpt>
      <trkpt lat="43.96456" lon="5.1399">
        <ele>450.9</ele>
        <time>2013-01-24T14:33:09.000Z</time>
      </trkpt>
      <trkpt lat="43.96456" lon="5.13987">
        <ele>451.1</ele>
        <time>2013-01-24T14:33:10.000Z</time>
      </trkpt>
      <trkpt lat="43.96455" lon="5.13984">
        <ele>451</ele>
        <time>2013-01-24T14:33:11.000Z</time>
      </trkpt>
      <trkpt lat="43.96455" lon="5.13981">
        <ele>451.1</ele>
        <time>2013-01-24T14:33:12.000Z</time>
      </trkpt>
      <trkpt lat="43.96455" lon="5.13977">
        <ele>450.9</ele>
        <time>2013-01-24T14:33:13.000Z</time>
      </trkpt>
      <trkpt lat="43.96454" lon="5.13974">
        <ele>451.2</ele>
        <time>2013-01-24T14:33:14.000Z</time>
      </trkpt>
      <trkpt lat="43.96453" lon="5.13971">
        <ele>451.4</ele>
        <time>2013-01-24T14:33:15.000Z</time>
      </trkpt>
      <trkpt lat="43.96453" lon="5.13967">
        <ele>451.7</ele>
        <time>2013-01-24T14:33:16.000Z</time>
      </trkpt>
      <trkpt lat="43.96452" lon="5.13964">
        <ele>452.2</ele>
        <time>2013-01-24T14:33:17.000Z</time>
      </trkpt>
      <trkpt lat="43.96451" lon="5.13961">
        <ele>452</ele>
        <time>2013-01-24T14:33:18.000Z</time>
      </trkpt>
      <trkpt lat="43.96451" lon="5.13958">
        <ele>451.9</ele>
        <time>2013-01-24T14:33:19.000Z</time>
      </trkpt>
      <trkpt lat="43.9645" lon="5.13955">
        <ele>451.6</ele>
        <time>2013-01-24T14:33:20.000Z</time>
      </trkpt>
      <trkpt lat="43.96449" lon="5.13952">
        <ele>451.7</ele>
        <time>2013-01-24T14:33:21.000Z</time>
      </trkpt>
      <trkpt lat="43.96448" lon="5.13949">
        <ele>451.8</ele>
        <time>2013-01-24T14:33:22.000Z</time>
      </trkpt>
      <trkpt lat="43.96447" lon="5.13945">
        <ele>451.9</ele>
        <time>2013-01-24T14:33:23.000Z</time>
      </trkpt>
      <trkpt lat="43.96446" lon="5.13942">
        <ele>452.1</ele>
        <time>2013-01-24T14:33:24.000Z</time>
      </trkpt>
      <trkpt lat="43.96445" lon="5.1394">
        <ele>452.3</ele>
        <time>2013-01-24T14:33:25.000Z</time>
      </trkpt>
      <trkpt lat="43.96444" lon="5.13937">
        <ele>452.3</ele>
        <time>2013-01-24T14:33:26.000Z</time>
      </trkpt>
      <trkpt lat="43.96443" lon="5.13934">
        <ele>452.4</ele>
        <time>2013-01-24T14:33:27.000Z</time>
      </trkpt>
      <trkpt lat="43.96441" lon="5.13932">
        <ele>452.5</ele>
        <time>2013-01-24T14:33:28.000Z</time>
      </trkpt>
      <trkpt lat="43.96439" lon="5.13929">
        <ele>452.8</ele>
        <time>2013-01-24T14:33:29.000Z</time>
      </trkpt>
      <trkpt lat="43.96437" lon="5.13927">
        <ele>452.8</ele>
        <time>2013-01-24T14:33:30.000Z</time>
      </trkpt>
      <trkpt lat="43.96435" lon="5.13925">
        <ele>452.8</ele>
        <time>2013-01-24T14:33:31.000Z</time>
      </trkpt>
      <trkpt lat="43.96433" lon="5.13923">
        <ele>453</ele>
        <time>2013-01-24T14:33:32.000Z</time>
      </trkpt>
      <trkpt lat="43.96431" lon="5.13921">
        <ele>453</ele>
        <time>2013-01-24T14:33:33.000Z</time>
      </trkpt>
      <trkpt lat="43.96429" lon="5.1392">
        <ele>453.2</ele>
        <time>2013-01-24T14:33:34.000Z</time>
      </trkpt>
      <trkpt lat="43.96425" lon="5.13916">
        <ele>453.4</ele>
        <time>2013-01-24T14:33:36.000Z</time>
      </trkpt>
      <trkpt lat="43.96424" lon="5.13914">
        <ele>453.7</ele>
        <time>2013-01-24T14:33:37.000Z</time>
      </trkpt>
      <trkpt lat="43.9642" lon="5.13912">
        <ele>453.4</ele>
        <time>2013-01-24T14:33:39.000Z</time>
      </trkpt>
      <trkpt lat="43.96419" lon="5.1391">
        <ele>453.1</ele>
        <time>2013-01-24T14:33:40.000Z</time>
      </trkpt>
      <trkpt lat="43.96416" lon="5.13908">
        <ele>453</ele>
        <time>2013-01-24T14:33:42.000Z</time>
      </trkpt>
      <trkpt lat="43.96415" lon="5.13907">
        <ele>453</ele>
        <time>2013-01-24T14:33:43.000Z</time>
      </trkpt>
      <trkpt lat="43.96412" lon="5.13905">
        <ele>453.6</ele>
        <time>2013-01-24T14:33:45.000Z</time>
      </trkpt>
      <trkpt lat="43.9641" lon="5.13904">
        <ele>453.6</ele>
        <time>2013-01-24T14:33:46.000Z</time>
      </trkpt>
      <trkpt lat="43.96407" lon="5.13902">
        <ele>454</ele>
        <time>2013-01-24T14:33:48.000Z</time>
      </trkpt>
      <trkpt lat="43.96406" lon="5.139">
        <ele>454.5</ele>
        <time>2013-01-24T14:33:49.000Z</time>
      </trkpt>
      <trkpt lat="43.96402" lon="5.13897">
        <ele>454</ele>
        <time>2013-01-24T14:33:52.000Z</time>
      </trkpt>
      <trkpt lat="43.964" lon="5.13897">
        <ele>453.1</ele>
        <time>2013-01-24T14:33:53.000Z</time>
      </trkpt>
      <trkpt lat="43.96398" lon="5.13898">
        <ele>452.4</ele>
        <time>2013-01-24T14:33:54.000Z</time>
      </trkpt>
      <trkpt lat="43.96396" lon="5.13899">
        <ele>451.2</ele>
        <time>2013-01-24T14:33:55.000Z</time>
      </trkpt>
      <trkpt lat="43.96394" lon="5.13894">
        <ele>454.3</ele>
        <time>2013-01-24T14:33:57.000Z</time>
      </trkpt>
      <trkpt lat="43.96393" lon="5.13893">
        <ele>454.4</ele>
        <time>2013-01-24T14:33:58.000Z</time>
      </trkpt>
      <trkpt lat="43.9639" lon="5.13891">
        <ele>454</ele>
        <time>2013-01-24T14:34:00.000Z</time>
      </trkpt>
      <trkpt lat="43.96388" lon="5.1389">
        <ele>454.3</ele>
        <time>2013-01-24T14:34:01.000Z</time>
      </trkpt>
      <trkpt lat="43.96384" lon="5.13887">
        <ele>454.8</ele>
        <time>2013-01-24T14:34:04.000Z</time>
      </trkpt>
      <trkpt lat="43.96382" lon="5.13886">
        <ele>454.4</ele>
        <time>2013-01-24T14:34:05.000Z</time>
      </trkpt>
      <trkpt lat="43.96378" lon="5.13884">
        <ele>455.1</ele>
        <time>2013-01-24T14:34:08.000Z</time>
      </trkpt>
      <trkpt lat="43.96377" lon="5.13883">
        <ele>455.4</ele>
        <time>2013-01-24T14:34:09.000Z</time>
      </trkpt>
      <trkpt lat="43.96373" lon="5.1388">
        <ele>456.7</ele>
        <time>2013-01-24T14:34:12.000Z</time>
      </trkpt>
      <trkpt lat="43.96371" lon="5.13879">
        <ele>457.2</ele>
        <time>2013-01-24T14:34:13.000Z</time>
      </trkpt>
      <trkpt lat="43.96368" lon="5.13878">
        <ele>457.9</ele>
        <time>2013-01-24T14:34:15.000Z</time>
      </trkpt>
      <trkpt lat="43.96366" lon="5.13876">
        <ele>458.1</ele>
        <time>2013-01-24T14:34:16.000Z</time>
      </trkpt>
      <trkpt lat="43.96363" lon="5.13874">
        <ele>458.9</ele>
        <time>2013-01-24T14:34:18.000Z</time>
      </trkpt>
      <trkpt lat="43.96362" lon="5.13873">
        <ele>459</ele>
        <time>2013-01-24T14:34:19.000Z</time>
      </trkpt>
      <trkpt lat="43.96358" lon="5.13871">
        <ele>459.4</ele>
        <time>2013-01-24T14:34:21.000Z</time>
      </trkpt>
      <trkpt lat="43.96357" lon="5.13869">
        <ele>459.5</ele>
        <time>2013-01-24T14:34:22.000Z</time>
      </trkpt>
      <trkpt lat="43.96354" lon="5.13867">
        <ele>459.6</ele>
        <time>2013-01-24T14:34:24.000Z</time>
      </trkpt>
      <trkpt lat="43.96352" lon="5.13866">
        <ele>460.3</ele>
        <time>2013-01-24T14:34:25.000Z</time>
      </trkpt>
      <trkpt lat="43.96349" lon="5.13864">
        <ele>460.3</ele>
        <time>2013-01-24T14:34:27.000Z</time>
      </trkpt>
      <trkpt lat="43.96348" lon="5.13863">
        <ele>460.6</ele>
        <time>2013-01-24T14:34:28.000Z</time>
      </trkpt>
      <trkpt lat="43.96345" lon="5.13861">
        <ele>460.5</ele>
        <time>2013-01-24T14:34:30.000Z</time>
      </trkpt>
      <trkpt lat="43.96343" lon="5.1386">
        <ele>460.3</ele>
        <time>2013-01-24T14:34:31.000Z</time>
      </trkpt>
      <trkpt lat="43.96339" lon="5.13858">
        <ele>461</ele>
        <time>2013-01-24T14:34:34.000Z</time>
      </trkpt>
      <trkpt lat="43.96338" lon="5.13857">
        <ele>461</ele>
        <time>2013-01-24T14:34:35.000Z</time>
      </trkpt>
      <trkpt lat="43.96334" lon="5.13855">
        <ele>461.2</ele>
        <time>2013-01-24T14:34:37.000Z</time>
      </trkpt>
      <trkpt lat="43.96332" lon="5.13853">
        <ele>461.3</ele>
        <time>2013-01-24T14:34:38.000Z</time>
      </trkpt>
      <trkpt lat="43.96329" lon="5.13852">
        <ele>461.8</ele>
        <time>2013-01-24T14:34:40.000Z</time>
      </trkpt>
      <trkpt lat="43.96328" lon="5.13852">
        <ele>462</ele>
        <time>2013-01-24T14:34:41.000Z</time>
      </trkpt>
      <trkpt lat="43.96326" lon="5.13847">
        <ele>463</ele>
        <time>2013-01-24T14:34:43.000Z</time>
      </trkpt>
      <trkpt lat="43.96325" lon="5.13846">
        <ele>463.1</ele>
        <time>2013-01-24T14:34:44.000Z</time>
      </trkpt>
      <trkpt lat="43.96321" lon="5.13845">
        <ele>464.2</ele>
        <time>2013-01-24T14:34:46.000Z</time>
      </trkpt>
      <trkpt lat="43.9632" lon="5.13844">
        <ele>464.5</ele>
        <time>2013-01-24T14:34:47.000Z</time>
      </trkpt>
      <trkpt lat="43.96317" lon="5.13841">
        <ele>464.6</ele>
        <time>2013-01-24T14:34:49.000Z</time>
      </trkpt>
      <trkpt lat="43.96315" lon="5.1384">
        <ele>465.3</ele>
        <time>2013-01-24T14:34:50.000Z</time>
      </trkpt>
      <trkpt lat="43.96312" lon="5.13838">
        <ele>466.1</ele>
        <time>2013-01-24T14:34:52.000Z</time>
      </trkpt>
      <trkpt lat="43.9631" lon="5.13837">
        <ele>466.2</ele>
        <time>2013-01-24T14:34:53.000Z</time>
      </trkpt>
      <trkpt lat="43.96307" lon="5.13835">
        <ele>466.5</ele>
        <time>2013-01-24T14:34:55.000Z</time>
      </trkpt>
      <trkpt lat="43.96305" lon="5.13833">
        <ele>467</ele>
        <time>2013-01-24T14:34:56.000Z</time>
      </trkpt>
      <trkpt lat="43.96303" lon="5.13831">
        <ele>467.6</ele>
        <time>2013-01-24T14:34:58.000Z</time>
      </trkpt>
      <trkpt lat="43.96301" lon="5.1383">
        <ele>467.7</ele>
        <time>2013-01-24T14:34:59.000Z</time>
      </trkpt>
      <trkpt lat="43.96298" lon="5.13828">
        <ele>468</ele>
        <time>2013-01-24T14:35:01.000Z</time>
      </trkpt>
      <trkpt lat="43.96296" lon="5.13827">
        <ele>468.6</ele>
        <time>2013-01-24T14:35:02.000Z</time>
      </trkpt>
      <trkpt lat="43.96293" lon="5.13825">
        <ele>469.2</ele>
        <time>2013-01-24T14:35:04.000Z</time>
      </trkpt>
      <trkpt lat="43.96291" lon="5.13823">
        <ele>470</ele>
        <time>2013-01-24T14:35:05.000Z</time>
      </trkpt>
      <trkpt lat="43.96288" lon="5.13821">
        <ele>469.8</ele>
        <time>2013-01-24T14:35:07.000Z</time>
      </trkpt>
      <trkpt lat="43.96286" lon="5.1382">
        <ele>469.8</ele>
        <time>2013-01-24T14:35:08.000Z</time>
      </trkpt>
      <trkpt lat="43.96283" lon="5.13818">
        <ele>470.2</ele>
        <time>2013-01-24T14:35:10.000Z</time>
      </trkpt>
      <trkpt lat="43.96281" lon="5.13817">
        <ele>470.6</ele>
        <time>2013-01-24T14:35:11.000Z</time>
      </trkpt>
      <trkpt lat="43.96278" lon="5.13814">
        <ele>471.1</ele>
        <time>2013-01-24T14:35:13.000Z</time>
      </trkpt>
      <trkpt lat="43.96277" lon="5.13813">
        <ele>471.8</ele>
        <time>2013-01-24T14:35:14.000Z</time>
      </trkpt>
      <trkpt lat="43.96273" lon="5.13811">
        <ele>472.4</ele>
        <time>2013-01-24T14:35:16.000Z</time>
      </trkpt>
      <trkpt lat="43.96271" lon="5.13809">
        <ele>472.5</ele>
        <time>2013-01-24T14:35:17.000Z</time>
      </trkpt>
      <trkpt lat="43.96268" lon="5.13808">
        <ele>472.7</ele>
        <time>2013-01-24T14:35:19.000Z</time>
      </trkpt>
      <trkpt lat="43.96267" lon="5.13806">
        <ele>473.1</ele>
        <time>2013-01-24T14:35:20.000Z</time>
      </trkpt>
      <trkpt lat="43.96263" lon="5.13804">
        <ele>473.9</ele>
        <time>2013-01-24T14:35:23.000Z</time>
      </trkpt>
      <trkpt lat="43.96262" lon="5.13803">
        <ele>474.1</ele>
        <time>2013-01-24T14:35:24.000Z</time>
      </trkpt>
      <trkpt lat="43.96258" lon="5.13801">
        <ele>474.6</ele>
        <time>2013-01-24T14:35:27.000Z</time>
      </trkpt>
      <trkpt lat="43.96257" lon="5.138">
        <ele>474.7</ele>
        <time>2013-01-24T14:35:28.000Z</time>
      </trkpt>
      <trkpt lat="43.96254" lon="5.13797">
        <ele>475</ele>
        <time>2013-01-24T14:35:30.000Z</time>
      </trkpt>
      <trkpt lat="43.96252" lon="5.13796">
        <ele>475</ele>
        <time>2013-01-24T14:35:31.000Z</time>
      </trkpt>
      <trkpt lat="43.96248" lon="5.13794">
        <ele>475.8</ele>
        <time>2013-01-24T14:35:34.000Z</time>
      </trkpt>
      <trkpt lat="43.96247" lon="5.13793">
        <ele>476.1</ele>
        <time>2013-01-24T14:35:35.000Z</time>
      </trkpt>
      <trkpt lat="43.96243" lon="5.1379">
        <ele>476.5</ele>
        <time>2013-01-24T14:35:38.000Z</time>
      </trkpt>
      <trkpt lat="43.96242" lon="5.13789">
        <ele>476.8</ele>
        <time>2013-01-24T14:35:39.000Z</time>
      </trkpt>
      <trkpt lat="43.96238" lon="5.13787">
        <ele>477.5</ele>
        <time>2013-01-24T14:35:42.000Z</time>
      </trkpt>
      <trkpt lat="43.96237" lon="5.13787">
        <ele>477.6</ele>
        <time>2013-01-24T14:35:43.000Z</time>
      </trkpt>
      <trkpt lat="43.96233" lon="5.13786">
        <ele>478.2</ele>
        <time>2013-01-24T14:35:47.000Z</time>
      </trkpt>
      <trkpt lat="43.96233" lon="5.13786">
        <ele>478.5</ele>
        <time>2013-01-24T14:35:48.000Z</time>
      </trkpt>
      <trkpt lat="43.96229" lon="5.13783">
        <ele>478.9</ele>
        <time>2013-01-24T14:35:52.000Z</time>
      </trkpt>
      <trkpt lat="43.96228" lon="5.13782">
        <ele>479.1</ele>
        <time>2013-01-24T14:35:53.000Z</time>
      </trkpt>
      <trkpt lat="43.96225" lon="5.13778">
        <ele>479.6</ele>
        <time>2013-01-24T14:35:56.000Z</time>
      </trkpt>
      <trkpt lat="43.96224" lon="5.13777">
        <ele>479.7</ele>
        <time>2013-01-24T14:35:57.000Z</time>
      </trkpt>
      <trkpt lat="43.9622" lon="5.13774">
        <ele>480.1</ele>
        <time>2013-01-24T14:36:00.000Z</time>
      </trkpt>
      <trkpt lat="43.96219" lon="5.13773">
        <ele>480.1</ele>
        <time>2013-01-24T14:36:01.000Z</time>
      </trkpt>
      <trkpt lat="43.96216" lon="5.13769">
        <ele>480.4</ele>
        <time>2013-01-24T14:36:04.000Z</time>
      </trkpt>
      <trkpt lat="43.96215" lon="5.13768">
        <ele>480.6</ele>
        <time>2013-01-24T14:36:05.000Z</time>
      </trkpt>
      <trkpt lat="43.96211" lon="5.13764">
        <ele>480.9</ele>
        <time>2013-01-24T14:36:08.000Z</time>
      </trkpt>
      <trkpt lat="43.9621" lon="5.13764">
        <ele>481.2</ele>
        <time>2013-01-24T14:36:09.000Z</time>
      </trkpt>
      <trkpt lat="43.96206" lon="5.13761">
        <ele>481.8</ele>
        <time>2013-01-24T14:36:12.000Z</time>
      </trkpt>
      <trkpt lat="43.96205" lon="5.1376">
        <ele>481.9</ele>
        <time>2013-01-24T14:36:13.000Z</time>
      </trkpt>
      <trkpt lat="43.96201" lon="5.13757">
        <ele>482.1</ele>
        <time>2013-01-24T14:36:16.000Z</time>
      </trkpt>
      <trkpt lat="43.962" lon="5.13756">
        <ele>482.1</ele>
        <time>2013-01-24T14:36:17.000Z</time>
      </trkpt>
      <trkpt lat="43.96197" lon="5.13753">
        <ele>482.7</ele>
        <time>2013-01-24T14:36:20.000Z</time>
      </trkpt>
      <trkpt lat="43.96195" lon="5.13752">
        <ele>482.9</ele>
        <time>2013-01-24T14:36:21.000Z</time>
      </trkpt>
      <trkpt lat="43.96193" lon="5.1375">
        <ele>483.3</ele>
        <time>2013-01-24T14:36:23.000Z</time>
      </trkpt>
      <trkpt lat="43.96191" lon="5.13749">
        <ele>483.2</ele>
        <time>2013-01-24T14:36:24.000Z</time>
      </trkpt>
      <trkpt lat="43.96188" lon="5.13746">
        <ele>483.8</ele>
        <time>2013-01-24T14:36:28.000Z</time>
      </trkpt>
      <trkpt lat="43.96187" lon="5.13744">
        <ele>483.9</ele>
        <time>2013-01-24T14:36:29.000Z</time>
      </trkpt>
      <trkpt lat="43.96184" lon="5.13741">
        <ele>484.2</ele>
        <time>2013-01-24T14:36:32.000Z</time>
      </trkpt>
      <trkpt lat="43.96183" lon="5.1374">
        <ele>484.4</ele>
        <time>2013-01-24T14:36:33.000Z</time>
      </trkpt>
      <trkpt lat="43.9618" lon="5.13737">
        <ele>485.3</ele>
        <time>2013-01-24T14:36:37.000Z</time>
      </trkpt>
      <trkpt lat="43.96179" lon="5.13736">
        <ele>485.5</ele>
        <time>2013-01-24T14:36:38.000Z</time>
      </trkpt>
      <trkpt lat="43.96175" lon="5.13734">
        <ele>485.7</ele>
        <time>2013-01-24T14:36:41.000Z</time>
      </trkpt>
      <trkpt lat="43.96174" lon="5.13733">
        <ele>485.8</ele>
        <time>2013-01-24T14:36:42.000Z</time>
      </trkpt>
      <trkpt lat="43.96171" lon="5.1373">
        <ele>486.5</ele>
        <time>2013-01-24T14:36:46.000Z</time>
      </trkpt>
      <trkpt lat="43.9617" lon="5.1373">
        <ele>486.7</ele>
        <time>2013-01-24T14:36:47.000Z</time>
      </trkpt>
      <trkpt lat="43.96166" lon="5.13727">
        <ele>487</ele>
        <time>2013-01-24T14:36:51.000Z</time>
      </trkpt>
      <trkpt lat="43.96165" lon="5.13726">
        <ele>487.1</ele>
        <time>2013-01-24T14:36:52.000Z</time>
      </trkpt>
      <trkpt lat="43.96162" lon="5.13722">
        <ele>488</ele>
        <time>2013-01-24T14:36:56.000Z</time>
      </trkpt>
      <trkpt lat="43.96161" lon="5.13721">
        <ele>488.2</ele>
        <time>2013-01-24T14:36:57.000Z</time>
      </trkpt>
      <trkpt lat="43.96159" lon="5.13716">
        <ele>489.5</ele>
        <time>2013-01-24T14:37:01.000Z</time>
      </trkpt>
      <trkpt lat="43.96161" lon="5.13713">
        <ele>493.7</ele>
        <time>2013-01-24T14:37:02.000Z</time>
      </trkpt>
      <trkpt lat="43.96163" lon="5.13703">
        <ele>499.4</ele>
        <time>2013-01-24T14:37:03.000Z</time>
      </trkpt>
      <trkpt lat="43.96159" lon="5.13708">
        <ele>495.7</ele>
        <time>2013-01-24T14:37:04.000Z</time>
      </trkpt>
      <trkpt lat="43.96156" lon="5.13705">
        <ele>494.3</ele>
        <time>2013-01-24T14:37:07.000Z</time>
      </trkpt>
      <trkpt lat="43.96155" lon="5.13704">
        <ele>493.6</ele>
        <time>2013-01-24T14:37:08.000Z</time>
      </trkpt>
      <trkpt lat="43.96151" lon="5.13701">
        <ele>494</ele>
        <time>2013-01-24T14:37:11.000Z</time>
      </trkpt>
      <trkpt lat="43.9615" lon="5.13699">
        <ele>493.6</ele>
        <time>2013-01-24T14:37:12.000Z</time>
      </trkpt>
      <trkpt lat="43.96148" lon="5.13694">
        <ele>490.5</ele>
        <time>2013-01-24T14:37:15.000Z</time>
      </trkpt>
      <trkpt lat="43.96146" lon="5.13693">
        <ele>489.6</ele>
        <time>2013-01-24T14:37:16.000Z</time>
      </trkpt>
      <trkpt lat="43.96142" lon="5.13693">
        <ele>487.2</ele>
        <time>2013-01-24T14:37:19.000Z</time>
      </trkpt>
      <trkpt lat="43.9614" lon="5.13693">
        <ele>486.8</ele>
        <time>2013-01-24T14:37:20.000Z</time>
      </trkpt>
      <trkpt lat="43.96137" lon="5.13691">
        <ele>486.4</ele>
        <time>2013-01-24T14:37:23.000Z</time>
      </trkpt>
      <trkpt lat="43.96136" lon="5.1369">
        <ele>486.8</ele>
        <time>2013-01-24T14:37:24.000Z</time>
      </trkpt>
      <trkpt lat="43.96133" lon="5.13687">
        <ele>487.7</ele>
        <time>2013-01-24T14:37:27.000Z</time>
      </trkpt>
      <trkpt lat="43.96132" lon="5.13686">
        <ele>487.9</ele>
        <time>2013-01-24T14:37:28.000Z</time>
      </trkpt>
      <trkpt lat="43.96129" lon="5.13682">
        <ele>488.7</ele>
        <time>2013-01-24T14:37:32.000Z</time>
      </trkpt>
      <trkpt lat="43.96127" lon="5.13681">
        <ele>489</ele>
        <time>2013-01-24T14:37:33.000Z</time>
      </trkpt>
      <trkpt lat="43.96124" lon="5.13678">
        <ele>489.8</ele>
        <time>2013-01-24T14:37:36.000Z</time>
      </trkpt>
      <trkpt lat="43.96123" lon="5.13677">
        <ele>490.1</ele>
        <time>2013-01-24T14:37:37.000Z</time>
      </trkpt>
      <trkpt lat="43.96119" lon="5.13674">
        <ele>491.4</ele>
        <time>2013-01-24T14:37:40.000Z</time>
      </trkpt>
      <trkpt lat="43.96118" lon="5.13674">
        <ele>491.3</ele>
        <time>2013-01-24T14:37:41.000Z</time>
      </trkpt>
      <trkpt lat="43.96115" lon="5.13672">
        <ele>492.3</ele>
        <time>2013-01-24T14:37:44.000Z</time>
      </trkpt>
      <trkpt lat="43.96113" lon="5.13671">
        <ele>492.8</ele>
        <time>2013-01-24T14:37:45.000Z</time>
      </trkpt>
      <trkpt lat="43.96109" lon="5.13671">
        <ele>493.2</ele>
        <time>2013-01-24T14:37:48.000Z</time>
      </trkpt>
      <trkpt lat="43.96108" lon="5.1367">
        <ele>493.5</ele>
        <time>2013-01-24T14:37:49.000Z</time>
      </trkpt>
      <trkpt lat="43.96106" lon="5.13665">
        <ele>494.3</ele>
        <time>2013-01-24T14:37:52.000Z</time>
      </trkpt>
      <trkpt lat="43.96107" lon="5.13663">
        <ele>495.1</ele>
        <time>2013-01-24T14:37:53.000Z</time>
      </trkpt>
      <trkpt lat="43.9611" lon="5.1366">
        <ele>496.1</ele>
        <time>2013-01-24T14:37:55.000Z</time>
      </trkpt>
      <trkpt lat="43.96111" lon="5.13658">
        <ele>496.6</ele>
        <time>2013-01-24T14:37:56.000Z</time>
      </trkpt>
      <trkpt lat="43.96113" lon="5.13656">
        <ele>497.2</ele>
        <time>2013-01-24T14:37:58.000Z</time>
      </trkpt>
      <trkpt lat="43.96115" lon="5.13654">
        <ele>497.5</ele>
        <time>2013-01-24T14:37:59.000Z</time>
      </trkpt>
      <trkpt lat="43.96118" lon="5.13652">
        <ele>498.4</ele>
        <time>2013-01-24T14:38:01.000Z</time>
      </trkpt>
      <trkpt lat="43.96119" lon="5.13652">
        <ele>498.9</ele>
        <time>2013-01-24T14:38:02.000Z</time>
      </trkpt>
      <trkpt lat="43.96122" lon="5.13652">
        <ele>499.5</ele>
        <time>2013-01-24T14:38:04.000Z</time>
      </trkpt>
      <trkpt lat="43.96124" lon="5.13652">
        <ele>500</ele>
        <time>2013-01-24T14:38:05.000Z</time>
      </trkpt>
      <trkpt lat="43.96127" lon="5.13652">
        <ele>500.6</ele>
        <time>2013-01-24T14:38:07.000Z</time>
      </trkpt>
      <trkpt lat="43.96129" lon="5.13652">
        <ele>500.8</ele>
        <time>2013-01-24T14:38:08.000Z</time>
      </trkpt>
      <trkpt lat="43.96133" lon="5.13652">
        <ele>501.5</ele>
        <time>2013-01-24T14:38:10.000Z</time>
      </trkpt>
      <trkpt lat="43.96134" lon="5.13652">
        <ele>502</ele>
        <time>2013-01-24T14:38:11.000Z</time>
      </trkpt>
      <trkpt lat="43.96138" lon="5.13651">
        <ele>502.5</ele>
        <time>2013-01-24T14:38:13.000Z</time>
      </trkpt>
      <trkpt lat="43.96139" lon="5.1365">
        <ele>502.9</ele>
        <time>2013-01-24T14:38:14.000Z</time>
      </trkpt>
      <trkpt lat="43.96142" lon="5.13648">
        <ele>503.6</ele>
        <time>2013-01-24T14:38:16.000Z</time>
      </trkpt>
      <trkpt lat="43.96144" lon="5.13648">
        <ele>504</ele>
        <time>2013-01-24T14:38:17.000Z</time>
      </trkpt>
      <trkpt lat="43.96147" lon="5.13647">
        <ele>504.6</ele>
        <time>2013-01-24T14:38:19.000Z</time>
      </trkpt>
      <trkpt lat="43.96149" lon="5.13646">
        <ele>504.7</ele>
        <time>2013-01-24T14:38:20.000Z</time>
      </trkpt>
      <trkpt lat="43.96152" lon="5.13646">
        <ele>505.4</ele>
        <time>2013-01-24T14:38:22.000Z</time>
      </trkpt>
      <trkpt lat="43.96153" lon="5.13646">
        <ele>505.6</ele>
        <time>2013-01-24T14:38:23.000Z</time>
      </trkpt>
      <trkpt lat="43.96156" lon="5.13646">
        <ele>506.1</ele>
        <time>2013-01-24T14:38:25.000Z</time>
      </trkpt>
      <trkpt lat="43.96158" lon="5.13646">
        <ele>506.1</ele>
        <time>2013-01-24T14:38:26.000Z</time>
      </trkpt>
      <trkpt lat="43.96161" lon="5.13647">
        <ele>506.7</ele>
        <time>2013-01-24T14:38:28.000Z</time>
      </trkpt>
      <trkpt lat="43.96163" lon="5.13647">
        <ele>507</ele>
        <time>2013-01-24T14:38:29.000Z</time>
      </trkpt>
      <trkpt lat="43.96166" lon="5.13647">
        <ele>507.4</ele>
        <time>2013-01-24T14:38:31.000Z</time>
      </trkpt>
      <trkpt lat="43.96168" lon="5.13647">
        <ele>507.6</ele>
        <time>2013-01-24T14:38:32.000Z</time>
      </trkpt>
      <trkpt lat="43.96171" lon="5.13646">
        <ele>508</ele>
        <time>2013-01-24T14:38:34.000Z</time>
      </trkpt>
      <trkpt lat="43.96173" lon="5.13646">
        <ele>508</ele>
        <time>2013-01-24T14:38:35.000Z</time>
      </trkpt>
      <trkpt lat="43.96176" lon="5.13645">
        <ele>508.3</ele>
        <time>2013-01-24T14:38:37.000Z</time>
      </trkpt>
      <trkpt lat="43.96177" lon="5.13644">
        <ele>508.5</ele>
        <time>2013-01-24T14:38:38.000Z</time>
      </trkpt>
      <trkpt lat="43.96181" lon="5.13643">
        <ele>508.8</ele>
        <time>2013-01-24T14:38:41.000Z</time>
      </trkpt>
      <trkpt lat="43.96183" lon="5.13642">
        <ele>509.2</ele>
        <time>2013-01-24T14:38:42.000Z</time>
      </trkpt>
      <trkpt lat="43.96186" lon="5.13641">
        <ele>510</ele>
        <time>2013-01-24T14:38:44.000Z</time>
      </trkpt>
      <trkpt lat="43.96187" lon="5.1364">
        <ele>510.1</ele>
        <time>2013-01-24T14:38:45.000Z</time>
      </trkpt>
      <trkpt lat="43.9619" lon="5.13639">
        <ele>509.6</ele>
        <time>2013-01-24T14:38:47.000Z</time>
      </trkpt>
      <trkpt lat="43.96192" lon="5.13639">
        <ele>509.8</ele>
        <time>2013-01-24T14:38:48.000Z</time>
      </trkpt>
      <trkpt lat="43.96195" lon="5.13637">
        <ele>510.1</ele>
        <time>2013-01-24T14:38:50.000Z</time>
      </trkpt>
      <trkpt lat="43.96196" lon="5.13637">
        <ele>509.9</ele>
        <time>2013-01-24T14:38:51.000Z</time>
      </trkpt>
      <trkpt lat="43.96199" lon="5.13636">
        <ele>510.2</ele>
        <time>2013-01-24T14:38:53.000Z</time>
      </trkpt>
      <trkpt lat="43.96201" lon="5.13636">
        <ele>510.1</ele>
        <time>2013-01-24T14:38:54.000Z</time>
      </trkpt>
      <trkpt lat="43.96205" lon="5.13635">
        <ele>510.4</ele>
        <time>2013-01-24T14:38:56.000Z</time>
      </trkpt>
      <trkpt lat="43.96206" lon="5.13634">
        <ele>510.5</ele>
        <time>2013-01-24T14:38:57.000Z</time>
      </trkpt>
      <trkpt lat="43.9621" lon="5.13634">
        <ele>510.5</ele>
        <time>2013-01-24T14:38:59.000Z</time>
      </trkpt>
      <trkpt lat="43.96212" lon="5.13634">
        <ele>510.3</ele>
        <time>2013-01-24T14:39:00.000Z</time>
      </trkpt>
      <trkpt lat="43.96215" lon="5.13633">
        <ele>510.5</ele>
        <time>2013-01-24T14:39:02.000Z</time>
      </trkpt>
      <trkpt lat="43.96217" lon="5.13634">
        <ele>510.4</ele>
        <time>2013-01-24T14:39:03.000Z</time>
      </trkpt>
      <trkpt lat="43.96221" lon="5.13634">
        <ele>510.3</ele>
        <time>2013-01-24T14:39:05.000Z</time>
      </trkpt>
      <trkpt lat="43.96223" lon="5.13633">
        <ele>510.1</ele>
        <time>2013-01-24T14:39:06.000Z</time>
      </trkpt>
      <trkpt lat="43.96226" lon="5.13633">
        <ele>510.5</ele>
        <time>2013-01-24T14:39:08.000Z</time>
      </trkpt>
      <trkpt lat="43.96228" lon="5.13632">
        <ele>510.5</ele>
        <time>2013-01-24T14:39:09.000Z</time>
      </trkpt>
      <trkpt lat="43.96232" lon="5.13631">
        <ele>510.7</ele>
        <time>2013-01-24T14:39:11.000Z</time>
      </trkpt>
      <trkpt lat="43.96234" lon="5.13631">
        <ele>510.6</ele>
        <time>2013-01-24T14:39:12.000Z</time>
      </trkpt>
      <trkpt lat="43.96238" lon="5.1363">
        <ele>510.5</ele>
        <time>2013-01-24T14:39:14.000Z</time>
      </trkpt>
      <trkpt lat="43.9624" lon="5.13629">
        <ele>510.6</ele>
        <time>2013-01-24T14:39:15.000Z</time>
      </trkpt>
      <trkpt lat="43.96244" lon="5.13629">
        <ele>510.7</ele>
        <time>2013-01-24T14:39:17.000Z</time>
      </trkpt>
      <trkpt lat="43.96246" lon="5.13628">
        <ele>510.8</ele>
        <time>2013-01-24T14:39:18.000Z</time>
      </trkpt>
      <trkpt lat="43.96248" lon="5.13628">
        <ele>510.8</ele>
        <time>2013-01-24T14:39:19.000Z</time>
      </trkpt>
      <trkpt lat="43.96251" lon="5.13628">
        <ele>510.9</ele>
        <time>2013-01-24T14:39:20.000Z</time>
      </trkpt>
      <trkpt lat="43.96255" lon="5.13627">
        <ele>510.9</ele>
        <time>2013-01-24T14:39:22.000Z</time>
      </trkpt>
      <trkpt lat="43.96257" lon="5.13627">
        <ele>511</ele>
        <time>2013-01-24T14:39:23.000Z</time>
      </trkpt>
      <trkpt lat="43.96259" lon="5.13626">
        <ele>511.5</ele>
        <time>2013-01-24T14:40:24.000Z</time>
      </trkpt>
      <trkpt lat="43.96262" lon="5.13625">
        <ele>511.6</ele>
        <time>2013-01-24T14:40:26.000Z</time>
      </trkpt>
      <trkpt lat="43.96265" lon="5.13625">
        <ele>511.7</ele>
        <time>2013-01-24T14:40:28.000Z</time>
      </trkpt>
      <trkpt lat="43.96267" lon="5.13624">
        <ele>511.8</ele>
        <time>2013-01-24T14:40:29.000Z</time>
      </trkpt>
      <trkpt lat="43.96269" lon="5.13623">
        <ele>511.7</ele>
        <time>2013-01-24T14:40:30.000Z</time>
      </trkpt>
      <trkpt lat="43.96271" lon="5.13622">
        <ele>511.8</ele>
        <time>2013-01-24T14:40:31.000Z</time>
      </trkpt>
      <trkpt lat="43.96273" lon="5.13622">
        <ele>511.6</ele>
        <time>2013-01-24T14:40:32.000Z</time>
      </trkpt>
      <trkpt lat="43.96276" lon="5.13621">
        <ele>511.4</ele>
        <time>2013-01-24T14:40:33.000Z</time>
      </trkpt>
      <trkpt lat="43.96278" lon="5.1362">
        <ele>511.5</ele>
        <time>2013-01-24T14:40:34.000Z</time>
      </trkpt>
      <trkpt lat="43.9628" lon="5.1362">
        <ele>511.5</ele>
        <time>2013-01-24T14:40:35.000Z</time>
      </trkpt>
      <trkpt lat="43.96285" lon="5.13619">
        <ele>511.5</ele>
        <time>2013-01-24T14:40:37.000Z</time>
      </trkpt>
      <trkpt lat="43.96287" lon="5.13618">
        <ele>511.4</ele>
        <time>2013-01-24T14:40:38.000Z</time>
      </trkpt>
      <trkpt lat="43.9629" lon="5.13617">
        <ele>511.5</ele>
        <time>2013-01-24T14:40:39.000Z</time>
      </trkpt>
      <trkpt lat="43.96292" lon="5.13616">
        <ele>511.4</ele>
        <time>2013-01-24T14:40:40.000Z</time>
      </trkpt>
      <trkpt lat="43.96296" lon="5.13615">
        <ele>511.1</ele>
        <time>2013-01-24T14:40:42.000Z</time>
      </trkpt>
      <trkpt lat="43.96298" lon="5.13614">
        <ele>510.6</ele>
        <time>2013-01-24T14:40:43.000Z</time>
      </trkpt>
      <trkpt lat="43.96301" lon="5.13614">
        <ele>510.8</ele>
        <time>2013-01-24T14:40:44.000Z</time>
      </trkpt>
      <trkpt lat="43.96303" lon="5.13614">
        <ele>511.3</ele>
        <time>2013-01-24T14:40:45.000Z</time>
      </trkpt>
      <trkpt lat="43.96307" lon="5.13612">
        <ele>511.6</ele>
        <time>2013-01-24T14:40:47.000Z</time>
      </trkpt>
      <trkpt lat="43.96309" lon="5.13612">
        <ele>511.4</ele>
        <time>2013-01-24T14:40:48.000Z</time>
      </trkpt>
      <trkpt lat="43.96313" lon="5.1361">
        <ele>511.1</ele>
        <time>2013-01-24T14:40:50.000Z</time>
      </trkpt>
      <trkpt lat="43.96316" lon="5.1361">
        <ele>511.1</ele>
        <time>2013-01-24T14:40:51.000Z</time>
      </trkpt>
      <trkpt lat="43.96318" lon="5.13609">
        <ele>511.2</ele>
        <time>2013-01-24T14:40:52.000Z</time>
      </trkpt>
      <trkpt lat="43.96321" lon="5.13608">
        <ele>511.3</ele>
        <time>2013-01-24T14:40:53.000Z</time>
      </trkpt>
      <trkpt lat="43.96323" lon="5.13607">
        <ele>511.2</ele>
        <time>2013-01-24T14:40:54.000Z</time>
      </trkpt>
      <trkpt lat="43.96326" lon="5.13606">
        <ele>511</ele>
        <time>2013-01-24T14:40:55.000Z</time>
      </trkpt>
      <trkpt lat="43.96329" lon="5.13605">
        <ele>510.8</ele>
        <time>2013-01-24T14:40:56.000Z</time>
      </trkpt>
      <trkpt lat="43.96331" lon="5.13605">
        <ele>511.1</ele>
        <time>2013-01-24T14:40:57.000Z</time>
      </trkpt>
      <trkpt lat="43.96334" lon="5.13604">
        <ele>511.1</ele>
        <time>2013-01-24T14:40:58.000Z</time>
      </trkpt>
      <trkpt lat="43.96337" lon="5.13603">
        <ele>511.2</ele>
        <time>2013-01-24T14:40:59.000Z</time>
      </trkpt>
      <trkpt lat="43.9634" lon="5.13602">
        <ele>511.2</ele>
        <time>2013-01-24T14:41:00.000Z</time>
      </trkpt>
      <trkpt lat="43.96343" lon="5.13601">
        <ele>511.2</ele>
        <time>2013-01-24T14:41:01.000Z</time>
      </trkpt>
      <trkpt lat="43.96346" lon="5.136">
        <ele>511.2</ele>
        <time>2013-01-24T14:41:02.000Z</time>
      </trkpt>
      <trkpt lat="43.96349" lon="5.136">
        <ele>511.3</ele>
        <time>2013-01-24T14:41:03.000Z</time>
      </trkpt>
      <trkpt lat="43.96352" lon="5.13598">
        <ele>511.2</ele>
        <time>2013-01-24T14:41:04.000Z</time>
      </trkpt>
      <trkpt lat="43.96355" lon="5.13598">
        <ele>511.5</ele>
        <time>2013-01-24T14:41:05.000Z</time>
      </trkpt>
      <trkpt lat="43.96358" lon="5.13597">
        <ele>511.6</ele>
        <time>2013-01-24T14:41:06.000Z</time>
      </trkpt>
      <trkpt lat="43.9636" lon="5.13595">
        <ele>511.4</ele>
        <time>2013-01-24T14:41:07.000Z</time>
      </trkpt>
      <trkpt lat="43.96363" lon="5.13595">
        <ele>511.6</ele>
        <time>2013-01-24T14:41:08.000Z</time>
      </trkpt>
      <trkpt lat="43.96365" lon="5.13594">
        <ele>511.7</ele>
        <time>2013-01-24T14:41:09.000Z</time>
      </trkpt>
      <trkpt lat="43.96367" lon="5.13593">
        <ele>511.9</ele>
        <time>2013-01-24T14:41:10.000Z</time>
      </trkpt>
      <trkpt lat="43.9637" lon="5.13592">
        <ele>511.7</ele>
        <time>2013-01-24T14:41:11.000Z</time>
      </trkpt>
      <trkpt lat="43.96374" lon="5.1359">
        <ele>511.7</ele>
        <time>2013-01-24T14:41:13.000Z</time>
      </trkpt>
      <trkpt lat="43.96376" lon="5.13589">
        <ele>511.4</ele>
        <time>2013-01-24T14:41:14.000Z</time>
      </trkpt>
      <trkpt lat="43.96379" lon="5.13588">
        <ele>511.3</ele>
        <time>2013-01-24T14:41:15.000Z</time>
      </trkpt>
      <trkpt lat="43.96381" lon="5.13587">
        <ele>511.1</ele>
        <time>2013-01-24T14:41:16.000Z</time>
      </trkpt>
      <trkpt lat="43.96383" lon="5.13586">
        <ele>511.1</ele>
        <time>2013-01-24T14:41:17.000Z</time>
      </trkpt>
      <trkpt lat="43.96386" lon="5.13585">
        <ele>510.9</ele>
        <time>2013-01-24T14:41:18.000Z</time>
      </trkpt>
      <trkpt lat="43.96388" lon="5.13584">
        <ele>511</ele>
        <time>2013-01-24T14:41:19.000Z</time>
      </trkpt>
      <trkpt lat="43.96391" lon="5.13583">
        <ele>510.9</ele>
        <time>2013-01-24T14:41:20.000Z</time>
      </trkpt>
      <trkpt lat="43.96394" lon="5.13582">
        <ele>510.8</ele>
        <time>2013-01-24T14:41:21.000Z</time>
      </trkpt>
      <trkpt lat="43.96397" lon="5.13581">
        <ele>510.4</ele>
        <time>2013-01-24T14:41:22.000Z</time>
      </trkpt>
      <trkpt lat="43.964" lon="5.1358">
        <ele>510.4</ele>
        <time>2013-01-24T14:41:23.000Z</time>
      </trkpt>
      <trkpt lat="43.96402" lon="5.13579">
        <ele>510.2</ele>
        <time>2013-01-24T14:41:24.000Z</time>
      </trkpt>
      <trkpt lat="43.96406" lon="5.13578">
        <ele>510.2</ele>
        <time>2013-01-24T14:41:25.000Z</time>
      </trkpt>
      <trkpt lat="43.96408" lon="5.13576">
        <ele>510.2</ele>
        <time>2013-01-24T14:41:26.000Z</time>
      </trkpt>
      <trkpt lat="43.96411" lon="5.13575">
        <ele>510.2</ele>
        <time>2013-01-24T14:41:27.000Z</time>
      </trkpt>
      <trkpt lat="43.96414" lon="5.13573">
        <ele>510.1</ele>
        <time>2013-01-24T14:41:28.000Z</time>
      </trkpt>
      <trkpt lat="43.96416" lon="5.13572">
        <ele>510</ele>
        <time>2013-01-24T14:41:29.000Z</time>
      </trkpt>
      <trkpt lat="43.96419" lon="5.1357">
        <ele>509.9</ele>
        <time>2013-01-24T14:41:30.000Z</time>
      </trkpt>
      <trkpt lat="43.96421" lon="5.13569">
        <ele>510</ele>
        <time>2013-01-24T14:41:31.000Z</time>
      </trkpt>
      <trkpt lat="43.96424" lon="5.13568">
        <ele>510</ele>
        <time>2013-01-24T14:41:32.000Z</time>
      </trkpt>
      <trkpt lat="43.96426" lon="5.13566">
        <ele>510</ele>
        <time>2013-01-24T14:41:33.000Z</time>
      </trkpt>
      <trkpt lat="43.96428" lon="5.13565">
        <ele>509.8</ele>
        <time>2013-01-24T14:41:34.000Z</time>
      </trkpt>
      <trkpt lat="43.96432" lon="5.13564">
        <ele>509.7</ele>
        <time>2013-01-24T14:41:36.000Z</time>
      </trkpt>
      <trkpt lat="43.96434" lon="5.13564">
        <ele>509.7</ele>
        <time>2013-01-24T14:41:37.000Z</time>
      </trkpt>
      <trkpt lat="43.96438" lon="5.13562">
        <ele>509.7</ele>
        <time>2013-01-24T14:41:39.000Z</time>
      </trkpt>
      <trkpt lat="43.9644" lon="5.13561">
        <ele>509.6</ele>
        <time>2013-01-24T14:41:40.000Z</time>
      </trkpt>
      <trkpt lat="43.96442" lon="5.13561">
        <ele>509.9</ele>
        <time>2013-01-24T14:41:41.000Z</time>
      </trkpt>
      <trkpt lat="43.96445" lon="5.1356">
        <ele>509.7</ele>
        <time>2013-01-24T14:41:42.000Z</time>
      </trkpt>
      <trkpt lat="43.96449" lon="5.13558">
        <ele>510</ele>
        <time>2013-01-24T14:41:44.000Z</time>
      </trkpt>
      <trkpt lat="43.96451" lon="5.13557">
        <ele>510.1</ele>
        <time>2013-01-24T14:41:45.000Z</time>
      </trkpt>
      <trkpt lat="43.96453" lon="5.13556">
        <ele>509.9</ele>
        <time>2013-01-24T14:41:46.000Z</time>
      </trkpt>
      <trkpt lat="43.96455" lon="5.13554">
        <ele>510</ele>
        <time>2013-01-24T14:41:47.000Z</time>
      </trkpt>
      <trkpt lat="43.96457" lon="5.13554">
        <ele>509.9</ele>
        <time>2013-01-24T14:41:48.000Z</time>
      </trkpt>
      <trkpt lat="43.96459" lon="5.13553">
        <ele>510</ele>
        <time>2013-01-24T14:41:49.000Z</time>
      </trkpt>
      <trkpt lat="43.96462" lon="5.13552">
        <ele>510.3</ele>
        <time>2013-01-24T14:41:50.000Z</time>
      </trkpt>
      <trkpt lat="43.96464" lon="5.13551">
        <ele>510.5</ele>
        <time>2013-01-24T14:41:51.000Z</time>
      </trkpt>
      <trkpt lat="43.96466" lon="5.1355">
        <ele>510.7</ele>
        <time>2013-01-24T14:41:52.000Z</time>
      </trkpt>
      <trkpt lat="43.96468" lon="5.13549">
        <ele>510.9</ele>
        <time>2013-01-24T14:41:53.000Z</time>
      </trkpt>
      <trkpt lat="43.9647" lon="5.13548">
        <ele>511</ele>
        <time>2013-01-24T14:41:54.000Z</time>
      </trkpt>
      <trkpt lat="43.96473" lon="5.13547">
        <ele>510.9</ele>
        <time>2013-01-24T14:41:55.000Z</time>
      </trkpt>
      <trkpt lat="43.96475" lon="5.13545">
        <ele>511.1</ele>
        <time>2013-01-24T14:41:56.000Z</time>
      </trkpt>
      <trkpt lat="43.96477" lon="5.13544">
        <ele>511.1</ele>
        <time>2013-01-24T14:41:57.000Z</time>
      </trkpt>
      <trkpt lat="43.96479" lon="5.13543">
        <ele>511.1</ele>
        <time>2013-01-24T14:41:58.000Z</time>
      </trkpt>
      <trkpt lat="43.96482" lon="5.13542">
        <ele>511.5</ele>
        <time>2013-01-24T14:41:59.000Z</time>
      </trkpt>
      <trkpt lat="43.96484" lon="5.1354">
        <ele>511.7</ele>
        <time>2013-01-24T14:42:00.000Z</time>
      </trkpt>
      <trkpt lat="43.96486" lon="5.13539">
        <ele>511.9</ele>
        <time>2013-01-24T14:42:01.000Z</time>
      </trkpt>
      <trkpt lat="43.96488" lon="5.13537">
        <ele>511.9</ele>
        <time>2013-01-24T14:42:02.000Z</time>
      </trkpt>
      <trkpt lat="43.9649" lon="5.13536">
        <ele>511.9</ele>
        <time>2013-01-24T14:42:03.000Z</time>
      </trkpt>
      <trkpt lat="43.96493" lon="5.13534">
        <ele>511.9</ele>
        <time>2013-01-24T14:42:04.000Z</time>
      </trkpt>
      <trkpt lat="43.96495" lon="5.13533">
        <ele>512.2</ele>
        <time>2013-01-24T14:42:05.000Z</time>
      </trkpt>
      <trkpt lat="43.96497" lon="5.13532">
        <ele>512.3</ele>
        <time>2013-01-24T14:42:06.000Z</time>
      </trkpt>
      <trkpt lat="43.96499" lon="5.1353">
        <ele>512.3</ele>
        <time>2013-01-24T14:42:07.000Z</time>
      </trkpt>
      <trkpt lat="43.96501" lon="5.13528">
        <ele>512.6</ele>
        <time>2013-01-24T14:42:08.000Z</time>
      </trkpt>
      <trkpt lat="43.96503" lon="5.13526">
        <ele>512.6</ele>
        <time>2013-01-24T14:42:09.000Z</time>
      </trkpt>
      <trkpt lat="43.96504" lon="5.13523">
        <ele>512.8</ele>
        <time>2013-01-24T14:42:10.000Z</time>
      </trkpt>
      <trkpt lat="43.96506" lon="5.13521">
        <ele>513.1</ele>
        <time>2013-01-24T14:42:11.000Z</time>
      </trkpt>
      <trkpt lat="43.96509" lon="5.13517">
        <ele>513</ele>
        <time>2013-01-24T14:42:13.000Z</time>
      </trkpt>
      <trkpt lat="43.9651" lon="5.13516">
        <ele>513</ele>
        <time>2013-01-24T14:42:14.000Z</time>
      </trkpt>
      <trkpt lat="43.96513" lon="5.13512">
        <ele>513.3</ele>
        <time>2013-01-24T14:42:16.000Z</time>
      </trkpt>
      <trkpt lat="43.96514" lon="5.1351">
        <ele>513.2</ele>
        <time>2013-01-24T14:42:17.000Z</time>
      </trkpt>
      <trkpt lat="43.96517" lon="5.13506">
        <ele>513.2</ele>
        <time>2013-01-24T14:42:19.000Z</time>
      </trkpt>
      <trkpt lat="43.96518" lon="5.13504">
        <ele>513.3</ele>
        <time>2013-01-24T14:42:20.000Z</time>
      </trkpt>
      <trkpt lat="43.96521" lon="5.135">
        <ele>512.9</ele>
        <time>2013-01-24T14:42:22.000Z</time>
      </trkpt>
      <trkpt lat="43.96522" lon="5.13499">
        <ele>513</ele>
        <time>2013-01-24T14:42:23.000Z</time>
      </trkpt>
      <trkpt lat="43.96525" lon="5.13495">
        <ele>513.2</ele>
        <time>2013-01-24T14:42:25.000Z</time>
      </trkpt>
      <trkpt lat="43.96527" lon="5.13493">
        <ele>513</ele>
        <time>2013-01-24T14:42:26.000Z</time>
      </trkpt>
      <trkpt lat="43.96529" lon="5.13492">
        <ele>512.8</ele>
        <time>2013-01-24T14:42:27.000Z</time>
      </trkpt>
      <trkpt lat="43.96531" lon="5.1349">
        <ele>512.8</ele>
        <time>2013-01-24T14:42:28.000Z</time>
      </trkpt>
      <trkpt lat="43.96533" lon="5.13487">
        <ele>511.4</ele>
        <time>2013-01-24T14:42:30.000Z</time>
      </trkpt>
      <trkpt lat="43.96535" lon="5.13485">
        <ele>511</ele>
        <time>2013-01-24T14:42:31.000Z</time>
      </trkpt>
      <trkpt lat="43.96536" lon="5.13482">
        <ele>510.5</ele>
        <time>2013-01-24T14:42:32.000Z</time>
      </trkpt>
      <trkpt lat="43.96538" lon="5.13478">
        <ele>510.1</ele>
        <time>2013-01-24T14:42:33.000Z</time>
      </trkpt>
      <trkpt lat="43.9654" lon="5.13473">
        <ele>509.1</ele>
        <time>2013-01-24T14:42:35.000Z</time>
      </trkpt>
      <trkpt lat="43.9654" lon="5.13471">
        <ele>508.7</ele>
        <time>2013-01-24T14:42:36.000Z</time>
      </trkpt>
      <trkpt lat="43.96537" lon="5.13469">
        <ele>510.1</ele>
        <time>2013-01-24T14:42:38.000Z</time>
      </trkpt>
      <trkpt lat="43.96536" lon="5.13468">
        <ele>509.8</ele>
        <time>2013-01-24T14:42:39.000Z</time>
      </trkpt>
      <trkpt lat="43.96536" lon="5.13466">
        <ele>509.5</ele>
        <time>2013-01-24T14:42:40.000Z</time>
      </trkpt>
      <trkpt lat="43.96535" lon="5.13461">
        <ele>509.6</ele>
        <time>2013-01-24T14:42:41.000Z</time>
      </trkpt>
      <trkpt lat="43.96534" lon="5.13457">
        <ele>509.5</ele>
        <time>2013-01-24T14:42:42.000Z</time>
      </trkpt>
      <trkpt lat="43.96534" lon="5.13453">
        <ele>509.4</ele>
        <time>2013-01-24T14:42:43.000Z</time>
      </trkpt>
      <trkpt lat="43.96532" lon="5.1345">
        <ele>509.5</ele>
        <time>2013-01-24T14:42:44.000Z</time>
      </trkpt>
      <trkpt lat="43.9653" lon="5.13446">
        <ele>509.6</ele>
        <time>2013-01-24T14:42:45.000Z</time>
      </trkpt>
      <trkpt lat="43.96525" lon="5.13444">
        <ele>509.4</ele>
        <time>2013-01-24T14:42:47.000Z</time>
      </trkpt>
      <trkpt lat="43.96523" lon="5.13442">
        <ele>509.5</ele>
        <time>2013-01-24T14:42:48.000Z</time>
      </trkpt>
      <trkpt lat="43.96521" lon="5.1344">
        <ele>509.3</ele>
        <time>2013-01-24T14:42:49.000Z</time>
      </trkpt>
      <trkpt lat="43.96519" lon="5.13439">
        <ele>509.2</ele>
        <time>2013-01-24T14:42:50.000Z</time>
      </trkpt>
      <trkpt lat="43.96515" lon="5.13438">
        <ele>509</ele>
        <time>2013-01-24T14:42:56.000Z</time>
      </trkpt>
      <trkpt lat="43.96515" lon="5.13438">
        <ele>508.9</ele>
        <time>2013-01-24T14:42:57.000Z</time>
      </trkpt>
      <trkpt lat="43.96512" lon="5.13435">
        <ele>508.2</ele>
        <time>2013-01-24T14:43:13.000Z</time>
      </trkpt>
      <trkpt lat="43.9651" lon="5.13434">
        <ele>508</ele>
        <time>2013-01-24T14:43:14.000Z</time>
      </trkpt>
      <trkpt lat="43.96506" lon="5.13431">
        <ele>508.3</ele>
        <time>2013-01-24T14:43:16.000Z</time>
      </trkpt>
      <trkpt lat="43.96504" lon="5.1343">
        <ele>508.6</ele>
        <time>2013-01-24T14:43:17.000Z</time>
      </trkpt>
      <trkpt lat="43.96501" lon="5.13429">
        <ele>508.7</ele>
        <time>2013-01-24T14:43:18.000Z</time>
      </trkpt>
      <trkpt lat="43.96499" lon="5.13428">
        <ele>508.6</ele>
        <time>2013-01-24T14:43:19.000Z</time>
      </trkpt>
      <trkpt lat="43.96495" lon="5.13426">
        <ele>508.4</ele>
        <time>2013-01-24T14:43:21.000Z</time>
      </trkpt>
      <trkpt lat="43.96493" lon="5.13424">
        <ele>508.6</ele>
        <time>2013-01-24T14:43:22.000Z</time>
      </trkpt>
      <trkpt lat="43.96491" lon="5.13422">
        <ele>508.5</ele>
        <time>2013-01-24T14:43:23.000Z</time>
      </trkpt>
      <trkpt lat="43.96489" lon="5.13419">
        <ele>508.9</ele>
        <time>2013-01-24T14:43:24.000Z</time>
      </trkpt>
      <trkpt lat="43.96486" lon="5.13418">
        <ele>509.1</ele>
        <time>2013-01-24T14:43:25.000Z</time>
      </trkpt>
      <trkpt lat="43.96484" lon="5.13415">
        <ele>509</ele>
        <time>2013-01-24T14:43:26.000Z</time>
      </trkpt>
      <trkpt lat="43.96482" lon="5.13413">
        <ele>509.5</ele>
        <time>2013-01-24T14:43:27.000Z</time>
      </trkpt>
      <trkpt lat="43.96481" lon="5.1341">
        <ele>509.7</ele>
        <time>2013-01-24T14:43:28.000Z</time>
      </trkpt>
      <trkpt lat="43.96479" lon="5.13407">
        <ele>509.8</ele>
        <time>2013-01-24T14:43:29.000Z</time>
      </trkpt>
      <trkpt lat="43.96477" lon="5.13405">
        <ele>510.1</ele>
        <time>2013-01-24T14:43:30.000Z</time>
      </trkpt>
      <trkpt lat="43.96474" lon="5.13403">
        <ele>510.2</ele>
        <time>2013-01-24T14:43:31.000Z</time>
      </trkpt>
      <trkpt lat="43.96472" lon="5.13401">
        <ele>509.5</ele>
        <time>2013-01-24T14:43:32.000Z</time>
      </trkpt>
      <trkpt lat="43.96468" lon="5.13401">
        <ele>509.8</ele>
        <time>2013-01-24T14:43:33.000Z</time>
      </trkpt>
      <trkpt lat="43.96465" lon="5.134">
        <ele>509.4</ele>
        <time>2013-01-24T14:43:34.000Z</time>
      </trkpt>
      <trkpt lat="43.96462" lon="5.134">
        <ele>509.6</ele>
        <time>2013-01-24T14:43:35.000Z</time>
      </trkpt>
      <trkpt lat="43.96459" lon="5.134">
        <ele>509.7</ele>
        <time>2013-01-24T14:43:36.000Z</time>
      </trkpt>
      <trkpt lat="43.96456" lon="5.134">
        <ele>509.9</ele>
        <time>2013-01-24T14:43:37.000Z</time>
      </trkpt>
      <trkpt lat="43.96453" lon="5.134">
        <ele>510.3</ele>
        <time>2013-01-24T14:43:38.000Z</time>
      </trkpt>
      <trkpt lat="43.9645" lon="5.134">
        <ele>510.1</ele>
        <time>2013-01-24T14:43:39.000Z</time>
      </trkpt>
      <trkpt lat="43.96448" lon="5.13399">
        <ele>510.4</ele>
        <time>2013-01-24T14:43:40.000Z</time>
      </trkpt>
      <trkpt lat="43.96445" lon="5.13399">
        <ele>510.5</ele>
        <time>2013-01-24T14:43:41.000Z</time>
      </trkpt>
      <trkpt lat="43.96442" lon="5.13399">
        <ele>510.4</ele>
        <time>2013-01-24T14:43:42.000Z</time>
      </trkpt>
      <trkpt lat="43.96439" lon="5.134">
        <ele>510.4</ele>
        <time>2013-01-24T14:43:43.000Z</time>
      </trkpt>
      <trkpt lat="43.96436" lon="5.134">
        <ele>510.4</ele>
        <time>2013-01-24T14:43:44.000Z</time>
      </trkpt>
      <trkpt lat="43.96433" lon="5.13401">
        <ele>510.5</ele>
        <time>2013-01-24T14:43:45.000Z</time>
      </trkpt>
      <trkpt lat="43.96431" lon="5.13401">
        <ele>510.6</ele>
        <time>2013-01-24T14:43:46.000Z</time>
      </trkpt>
      <trkpt lat="43.96429" lon="5.13402">
        <ele>510.7</ele>
        <time>2013-01-24T14:43:47.000Z</time>
      </trkpt>
      <trkpt lat="43.96426" lon="5.13402">
        <ele>510.7</ele>
        <time>2013-01-24T14:43:48.000Z</time>
      </trkpt>
      <trkpt lat="43.96422" lon="5.13403">
        <ele>510.7</ele>
        <time>2013-01-24T14:43:50.000Z</time>
      </trkpt>
      <trkpt lat="43.9642" lon="5.13403">
        <ele>511.3</ele>
        <time>2013-01-24T14:43:51.000Z</time>
      </trkpt>
      <trkpt lat="43.96417" lon="5.13403">
        <ele>511.5</ele>
        <time>2013-01-24T14:43:52.000Z</time>
      </trkpt>
      <trkpt lat="43.96414" lon="5.13403">
        <ele>511.8</ele>
        <time>2013-01-24T14:43:53.000Z</time>
      </trkpt>
      <trkpt lat="43.9641" lon="5.13404">
        <ele>512.1</ele>
        <time>2013-01-24T14:43:55.000Z</time>
      </trkpt>
      <trkpt lat="43.96409" lon="5.13404">
        <ele>512.2</ele>
        <time>2013-01-24T14:43:56.000Z</time>
      </trkpt>
      <trkpt lat="43.96405" lon="5.13405">
        <ele>512.5</ele>
        <time>2013-01-24T14:43:58.000Z</time>
      </trkpt>
      <trkpt lat="43.96403" lon="5.13405">
        <ele>512.2</ele>
        <time>2013-01-24T14:43:59.000Z</time>
      </trkpt>
      <trkpt lat="43.96399" lon="5.13406">
        <ele>512.3</ele>
        <time>2013-01-24T14:44:01.000Z</time>
      </trkpt>
      <trkpt lat="43.96398" lon="5.13406">
        <ele>512.2</ele>
        <time>2013-01-24T14:44:02.000Z</time>
      </trkpt>
      <trkpt lat="43.96393" lon="5.13406">
        <ele>511.7</ele>
        <time>2013-01-24T14:44:04.000Z</time>
      </trkpt>
      <trkpt lat="43.96391" lon="5.13407">
        <ele>511.4</ele>
        <time>2013-01-24T14:44:05.000Z</time>
      </trkpt>
      <trkpt lat="43.96389" lon="5.13407">
        <ele>511.4</ele>
        <time>2013-01-24T14:44:06.000Z</time>
      </trkpt>
      <trkpt lat="43.96386" lon="5.13407">
        <ele>511.5</ele>
        <time>2013-01-24T14:44:07.000Z</time>
      </trkpt>
      <trkpt lat="43.96384" lon="5.13406">
        <ele>511.3</ele>
        <time>2013-01-24T14:44:08.000Z</time>
      </trkpt>
      <trkpt lat="43.96381" lon="5.13406">
        <ele>512.4</ele>
        <time>2013-01-24T14:44:09.000Z</time>
      </trkpt>
      <trkpt lat="43.96378" lon="5.13405">
        <ele>512.9</ele>
        <time>2013-01-24T14:44:10.000Z</time>
      </trkpt>
      <trkpt lat="43.96375" lon="5.13405">
        <ele>512.4</ele>
        <time>2013-01-24T14:44:11.000Z</time>
      </trkpt>
      <trkpt lat="43.96373" lon="5.13404">
        <ele>512.4</ele>
        <time>2013-01-24T14:44:12.000Z</time>
      </trkpt>
      <trkpt lat="43.9637" lon="5.13403">
        <ele>512.9</ele>
        <time>2013-01-24T14:44:13.000Z</time>
      </trkpt>
      <trkpt lat="43.96367" lon="5.13404">
        <ele>512.6</ele>
        <time>2013-01-24T14:44:14.000Z</time>
      </trkpt>
      <trkpt lat="43.96364" lon="5.13404">
        <ele>512.7</ele>
        <time>2013-01-24T14:44:15.000Z</time>
      </trkpt>
      <trkpt lat="43.96362" lon="5.13404">
        <ele>512.5</ele>
        <time>2013-01-24T14:44:16.000Z</time>
      </trkpt>
      <trkpt lat="43.96359" lon="5.13404">
        <ele>512.4</ele>
        <time>2013-01-24T14:44:17.000Z</time>
      </trkpt>
      <trkpt lat="43.96356" lon="5.13405">
        <ele>512.6</ele>
        <time>2013-01-24T14:44:18.000Z</time>
      </trkpt>
      <trkpt lat="43.96353" lon="5.13405">
        <ele>512.7</ele>
        <time>2013-01-24T14:44:19.000Z</time>
      </trkpt>
      <trkpt lat="43.9635" lon="5.13406">
        <ele>512.8</ele>
        <time>2013-01-24T14:44:20.000Z</time>
      </trkpt>
      <trkpt lat="43.96348" lon="5.13407">
        <ele>512.7</ele>
        <time>2013-01-24T14:44:21.000Z</time>
      </trkpt>
      <trkpt lat="43.96345" lon="5.13409">
        <ele>512.9</ele>
        <time>2013-01-24T14:44:22.000Z</time>
      </trkpt>
      <trkpt lat="43.96342" lon="5.13409">
        <ele>512.9</ele>
        <time>2013-01-24T14:44:23.000Z</time>
      </trkpt>
      <trkpt lat="43.9634" lon="5.1341">
        <ele>513.1</ele>
        <time>2013-01-24T14:44:24.000Z</time>
      </trkpt>
      <trkpt lat="43.96337" lon="5.13411">
        <ele>513.2</ele>
        <time>2013-01-24T14:44:25.000Z</time>
      </trkpt>
      <trkpt lat="43.96334" lon="5.13412">
        <ele>513.5</ele>
        <time>2013-01-24T14:44:26.000Z</time>
      </trkpt>
      <trkpt lat="43.96332" lon="5.13411">
        <ele>513.4</ele>
        <time>2013-01-24T14:44:27.000Z</time>
      </trkpt>
      <trkpt lat="43.96329" lon="5.13411">
        <ele>513.5</ele>
        <time>2013-01-24T14:44:28.000Z</time>
      </trkpt>
      <trkpt lat="43.96326" lon="5.13411">
        <ele>513.8</ele>
        <time>2013-01-24T14:44:29.000Z</time>
      </trkpt>
      <trkpt lat="43.96322" lon="5.13411">
        <ele>513.7</ele>
        <time>2013-01-24T14:44:31.000Z</time>
      </trkpt>
      <trkpt lat="43.9632" lon="5.1341">
        <ele>513.8</ele>
        <time>2013-01-24T14:44:32.000Z</time>
      </trkpt>
      <trkpt lat="43.96317" lon="5.1341">
        <ele>514.3</ele>
        <time>2013-01-24T14:44:33.000Z</time>
      </trkpt>
      <trkpt lat="43.96315" lon="5.1341">
        <ele>514.5</ele>
        <time>2013-01-24T14:44:34.000Z</time>
      </trkpt>
      <trkpt lat="43.9631" lon="5.13409">
        <ele>514.8</ele>
        <time>2013-01-24T14:44:36.000Z</time>
      </trkpt>
      <trkpt lat="43.96309" lon="5.13409">
        <ele>515.2</ele>
        <time>2013-01-24T14:44:37.000Z</time>
      </trkpt>
      <trkpt lat="43.96304" lon="5.13409">
        <ele>515.6</ele>
        <time>2013-01-24T14:44:39.000Z</time>
      </trkpt>
      <trkpt lat="43.96302" lon="5.13409">
        <ele>515.6</ele>
        <time>2013-01-24T14:44:40.000Z</time>
      </trkpt>
      <trkpt lat="43.96298" lon="5.1341">
        <ele>516.1</ele>
        <time>2013-01-24T14:44:42.000Z</time>
      </trkpt>
      <trkpt lat="43.96296" lon="5.1341">
        <ele>516</ele>
        <time>2013-01-24T14:44:43.000Z</time>
      </trkpt>
      <trkpt lat="43.96292" lon="5.13411">
        <ele>516.3</ele>
        <time>2013-01-24T14:44:45.000Z</time>
      </trkpt>
      <trkpt lat="43.9629" lon="5.13411">
        <ele>516.4</ele>
        <time>2013-01-24T14:44:46.000Z</time>
      </trkpt>
      <trkpt lat="43.96287" lon="5.13411">
        <ele>517.1</ele>
        <time>2013-01-24T14:44:48.000Z</time>
      </trkpt>
      <trkpt lat="43.96285" lon="5.1341">
        <ele>517.8</ele>
        <time>2013-01-24T14:44:49.000Z</time>
      </trkpt>
      <trkpt lat="43.96281" lon="5.1341">
        <ele>517.7</ele>
        <time>2013-01-24T14:44:51.000Z</time>
      </trkpt>
      <trkpt lat="43.96279" lon="5.13409">
        <ele>518.2</ele>
        <time>2013-01-24T14:44:52.000Z</time>
      </trkpt>
      <trkpt lat="43.96276" lon="5.13405">
        <ele>520.9</ele>
        <time>2013-01-24T14:44:54.000Z</time>
      </trkpt>
      <trkpt lat="43.96275" lon="5.13405">
        <ele>523.5</ele>
        <time>2013-01-24T14:44:55.000Z</time>
      </trkpt>
      <trkpt lat="43.96272" lon="5.13403">
        <ele>524.8</ele>
        <time>2013-01-24T14:44:57.000Z</time>
      </trkpt>
      <trkpt lat="43.9627" lon="5.13402">
        <ele>525.6</ele>
        <time>2013-01-24T14:44:58.000Z</time>
      </trkpt>
      <trkpt lat="43.96267" lon="5.13402">
        <ele>526.2</ele>
        <time>2013-01-24T14:45:00.000Z</time>
      </trkpt>
      <trkpt lat="43.96264" lon="5.13403">
        <ele>526.5</ele>
        <time>2013-01-24T14:45:01.000Z</time>
      </trkpt>
      <trkpt lat="43.96261" lon="5.13403">
        <ele>526.2</ele>
        <time>2013-01-24T14:45:03.000Z</time>
      </trkpt>
      <trkpt lat="43.96259" lon="5.13403">
        <ele>526.2</ele>
        <time>2013-01-24T14:45:04.000Z</time>
      </trkpt>
      <trkpt lat="43.96256" lon="5.13401">
        <ele>526.3</ele>
        <time>2013-01-24T14:45:06.000Z</time>
      </trkpt>
      <trkpt lat="43.96254" lon="5.134">
        <ele>525.9</ele>
        <time>2013-01-24T14:45:07.000Z</time>
      </trkpt>
      <trkpt lat="43.96252" lon="5.13398">
        <ele>526.8</ele>
        <time>2013-01-24T14:45:09.000Z</time>
      </trkpt>
      <trkpt lat="43.9625" lon="5.13396">
        <ele>527.8</ele>
        <time>2013-01-24T14:45:10.000Z</time>
      </trkpt>
      <trkpt lat="43.96249" lon="5.13391">
        <ele>530.3</ele>
        <time>2013-01-24T14:45:11.000Z</time>
      </trkpt>
      <trkpt lat="43.96249" lon="5.13387">
        <ele>532.5</ele>
        <time>2013-01-24T14:45:12.000Z</time>
      </trkpt>
      <trkpt lat="43.96248" lon="5.13388">
        <ele>536.9</ele>
        <time>2013-01-24T14:45:13.000Z</time>
      </trkpt>
      <trkpt lat="43.96244" lon="5.13389">
        <ele>538.3</ele>
        <time>2013-01-24T14:45:14.000Z</time>
      </trkpt>
      <trkpt lat="43.96241" lon="5.1339">
        <ele>540</ele>
        <time>2013-01-24T14:45:15.000Z</time>
      </trkpt>
      <trkpt lat="43.96239" lon="5.13392">
        <ele>539.3</ele>
        <time>2013-01-24T14:45:16.000Z</time>
      </trkpt>
      <trkpt lat="43.96237" lon="5.13393">
        <ele>539.1</ele>
        <time>2013-01-24T14:45:18.000Z</time>
      </trkpt>
      <trkpt lat="43.96235" lon="5.13394">
        <ele>538.6</ele>
        <time>2013-01-24T14:45:19.000Z</time>
      </trkpt>
      <trkpt lat="43.96231" lon="5.13396">
        <ele>537.4</ele>
        <time>2013-01-24T14:45:21.000Z</time>
      </trkpt>
      <trkpt lat="43.96229" lon="5.13398">
        <ele>536.7</ele>
        <time>2013-01-24T14:45:22.000Z</time>
      </trkpt>
      <trkpt lat="43.96226" lon="5.13401">
        <ele>535.8</ele>
        <time>2013-01-24T14:45:23.000Z</time>
      </trkpt>
      <trkpt lat="43.96226" lon="5.13392">
        <ele>537.5</ele>
        <time>2013-01-24T14:45:24.000Z</time>
      </trkpt>
      <trkpt lat="43.96223" lon="5.13391">
        <ele>535.6</ele>
        <time>2013-01-24T14:45:26.000Z</time>
      </trkpt>
      <trkpt lat="43.96221" lon="5.13391">
        <ele>534.1</ele>
        <time>2013-01-24T14:45:27.000Z</time>
      </trkpt>
      <trkpt lat="43.96218" lon="5.13389">
        <ele>534.2</ele>
        <time>2013-01-24T14:45:29.000Z</time>
      </trkpt>
      <trkpt lat="43.96216" lon="5.13388">
        <ele>533.3</ele>
        <time>2013-01-24T14:45:30.000Z</time>
      </trkpt>
      <trkpt lat="43.96212" lon="5.13386">
        <ele>531.5</ele>
        <time>2013-01-24T14:45:32.000Z</time>
      </trkpt>
      <trkpt lat="43.96211" lon="5.13386">
        <ele>530</ele>
        <time>2013-01-24T14:45:33.000Z</time>
      </trkpt>
      <trkpt lat="43.96207" lon="5.13384">
        <ele>529.1</ele>
        <time>2013-01-24T14:45:35.000Z</time>
      </trkpt>
      <trkpt lat="43.96205" lon="5.13384">
        <ele>528.3</ele>
        <time>2013-01-24T14:45:36.000Z</time>
      </trkpt>
      <trkpt lat="43.96202" lon="5.13384">
        <ele>527.1</ele>
        <time>2013-01-24T14:45:38.000Z</time>
      </trkpt>
      <trkpt lat="43.962" lon="5.13384">
        <ele>526.8</ele>
        <time>2013-01-24T14:45:39.000Z</time>
      </trkpt>
      <trkpt lat="43.96196" lon="5.13383">
        <ele>525.7</ele>
        <time>2013-01-24T14:45:41.000Z</time>
      </trkpt>
      <trkpt lat="43.96196" lon="5.1338">
        <ele>525.1</ele>
        <time>2013-01-24T14:45:42.000Z</time>
      </trkpt>
      <trkpt lat="43.96195" lon="5.13374">
        <ele>525.8</ele>
        <time>2013-01-24T14:45:43.000Z</time>
      </trkpt>
      <trkpt lat="43.96194" lon="5.13373">
        <ele>526.1</ele>
        <time>2013-01-24T14:45:44.000Z</time>
      </trkpt>
      <trkpt lat="43.96191" lon="5.13372">
        <ele>532.9</ele>
        <time>2013-01-24T14:45:46.000Z</time>
      </trkpt>
      <trkpt lat="43.96189" lon="5.13371">
        <ele>533.3</ele>
        <time>2013-01-24T14:45:47.000Z</time>
      </trkpt>
      <trkpt lat="43.96187" lon="5.13369">
        <ele>532.8</ele>
        <time>2013-01-24T14:45:49.000Z</time>
      </trkpt>
      <trkpt lat="43.96185" lon="5.13367">
        <ele>532.9</ele>
        <time>2013-01-24T14:45:50.000Z</time>
      </trkpt>
      <trkpt lat="43.96181" lon="5.13366">
        <ele>532.9</ele>
        <time>2013-01-24T14:45:52.000Z</time>
      </trkpt>
      <trkpt lat="43.9618" lon="5.13365">
        <ele>533.1</ele>
        <time>2013-01-24T14:45:53.000Z</time>
      </trkpt>
      <trkpt lat="43.96176" lon="5.13364">
        <ele>532.8</ele>
        <time>2013-01-24T14:45:55.000Z</time>
      </trkpt>
      <trkpt lat="43.96174" lon="5.13363">
        <ele>532.7</ele>
        <time>2013-01-24T14:45:56.000Z</time>
      </trkpt>
      <trkpt lat="43.9617" lon="5.13362">
        <ele>532.4</ele>
        <time>2013-01-24T14:45:58.000Z</time>
      </trkpt>
      <trkpt lat="43.96168" lon="5.13361">
        <ele>532.1</ele>
        <time>2013-01-24T14:45:59.000Z</time>
      </trkpt>
      <trkpt lat="43.96165" lon="5.13359">
        <ele>532.2</ele>
        <time>2013-01-24T14:46:01.000Z</time>
      </trkpt>
      <trkpt lat="43.96163" lon="5.13358">
        <ele>532</ele>
        <time>2013-01-24T14:46:02.000Z</time>
      </trkpt>
      <trkpt lat="43.9616" lon="5.13355">
        <ele>532.1</ele>
        <time>2013-01-24T14:46:04.000Z</time>
      </trkpt>
      <trkpt lat="43.96158" lon="5.13354">
        <ele>531.9</ele>
        <time>2013-01-24T14:46:05.000Z</time>
      </trkpt>
      <trkpt lat="43.96155" lon="5.13351">
        <ele>531.8</ele>
        <time>2013-01-24T14:46:07.000Z</time>
      </trkpt>
      <trkpt lat="43.96153" lon="5.1335">
        <ele>532</ele>
        <time>2013-01-24T14:46:08.000Z</time>
      </trkpt>
      <trkpt lat="43.96149" lon="5.13349">
        <ele>532.1</ele>
        <time>2013-01-24T14:46:10.000Z</time>
      </trkpt>
      <trkpt lat="43.96147" lon="5.13348">
        <ele>532.1</ele>
        <time>2013-01-24T14:46:11.000Z</time>
      </trkpt>
      <trkpt lat="43.96144" lon="5.13345">
        <ele>532.4</ele>
        <time>2013-01-24T14:46:13.000Z</time>
      </trkpt>
      <trkpt lat="43.96142" lon="5.13344">
        <ele>532.9</ele>
        <time>2013-01-24T14:46:14.000Z</time>
      </trkpt>
      <trkpt lat="43.96139" lon="5.13342">
        <ele>531.8</ele>
        <time>2013-01-24T14:46:16.000Z</time>
      </trkpt>
      <trkpt lat="43.96137" lon="5.1334">
        <ele>532.3</ele>
        <time>2013-01-24T14:46:17.000Z</time>
      </trkpt>
      <trkpt lat="43.96133" lon="5.13337">
        <ele>532.3</ele>
        <time>2013-01-24T14:46:19.000Z</time>
      </trkpt>
      <trkpt lat="43.96131" lon="5.13335">
        <ele>532</ele>
        <time>2013-01-24T14:46:20.000Z</time>
      </trkpt>
      <trkpt lat="43.96128" lon="5.13331">
        <ele>532.4</ele>
        <time>2013-01-24T14:46:22.000Z</time>
      </trkpt>
      <trkpt lat="43.96126" lon="5.13328">
        <ele>532.5</ele>
        <time>2013-01-24T14:46:23.000Z</time>
      </trkpt>
      <trkpt lat="43.96125" lon="5.13325">
        <ele>533.8</ele>
        <time>2013-01-24T14:46:24.000Z</time>
      </trkpt>
      <trkpt lat="43.96123" lon="5.13323">
        <ele>533.6</ele>
        <time>2013-01-24T14:46:25.000Z</time>
      </trkpt>
      <trkpt lat="43.96119" lon="5.13321">
        <ele>534.2</ele>
        <time>2013-01-24T14:46:27.000Z</time>
      </trkpt>
      <trkpt lat="43.96117" lon="5.13319">
        <ele>534.4</ele>
        <time>2013-01-24T14:46:28.000Z</time>
      </trkpt>
      <trkpt lat="43.96115" lon="5.13318">
        <ele>534.4</ele>
        <time>2013-01-24T14:46:29.000Z</time>
      </trkpt>
      <trkpt lat="43.96113" lon="5.13317">
        <ele>534.3</ele>
        <time>2013-01-24T14:46:30.000Z</time>
      </trkpt>
      <trkpt lat="43.96111" lon="5.13316">
        <ele>534.2</ele>
        <time>2013-01-24T14:46:31.000Z</time>
      </trkpt>
      <trkpt lat="43.96109" lon="5.13315">
        <ele>534.1</ele>
        <time>2013-01-24T14:46:32.000Z</time>
      </trkpt>
      <trkpt lat="43.96107" lon="5.13313">
        <ele>534.2</ele>
        <time>2013-01-24T14:46:33.000Z</time>
      </trkpt>
      <trkpt lat="43.96105" lon="5.13311">
        <ele>534.4</ele>
        <time>2013-01-24T14:46:34.000Z</time>
      </trkpt>
      <trkpt lat="43.96101" lon="5.13308">
        <ele>534.3</ele>
        <time>2013-01-24T14:46:36.000Z</time>
      </trkpt>
      <trkpt lat="43.96099" lon="5.13306">
        <ele>534.1</ele>
        <time>2013-01-24T14:46:37.000Z</time>
      </trkpt>
      <trkpt lat="43.96098" lon="5.13303">
        <ele>534</ele>
        <time>2013-01-24T14:46:38.000Z</time>
      </trkpt>
      <trkpt lat="43.96095" lon="5.13301">
        <ele>533.9</ele>
        <time>2013-01-24T14:46:39.000Z</time>
      </trkpt>
      <trkpt lat="43.96093" lon="5.13299">
        <ele>533.8</ele>
        <time>2013-01-24T14:46:40.000Z</time>
      </trkpt>
      <trkpt lat="43.96091" lon="5.13297">
        <ele>533.7</ele>
        <time>2013-01-24T14:46:41.000Z</time>
      </trkpt>
      <trkpt lat="43.96089" lon="5.13294">
        <ele>533.5</ele>
        <time>2013-01-24T14:46:42.000Z</time>
      </trkpt>
      <trkpt lat="43.96087" lon="5.13292">
        <ele>533.3</ele>
        <time>2013-01-24T14:46:43.000Z</time>
      </trkpt>
      <trkpt lat="43.96084" lon="5.13291">
        <ele>533</ele>
        <time>2013-01-24T14:46:44.000Z</time>
      </trkpt>
      <trkpt lat="43.96082" lon="5.13289">
        <ele>533</ele>
        <time>2013-01-24T14:46:45.000Z</time>
      </trkpt>
      <trkpt lat="43.96079" lon="5.13288">
        <ele>533</ele>
        <time>2013-01-24T14:46:46.000Z</time>
      </trkpt>
      <trkpt lat="43.96076" lon="5.13286">
        <ele>533.3</ele>
        <time>2013-01-24T14:46:47.000Z</time>
      </trkpt>
      <trkpt lat="43.96073" lon="5.13284">
        <ele>533</ele>
        <time>2013-01-24T14:46:48.000Z</time>
      </trkpt>
      <trkpt lat="43.9607" lon="5.13283">
        <ele>533</ele>
        <time>2013-01-24T14:46:49.000Z</time>
      </trkpt>
      <trkpt lat="43.96067" lon="5.13282">
        <ele>532.9</ele>
        <time>2013-01-24T14:46:50.000Z</time>
      </trkpt>
      <trkpt lat="43.96064" lon="5.1328">
        <ele>532.9</ele>
        <time>2013-01-24T14:46:51.000Z</time>
      </trkpt>
      <trkpt lat="43.96061" lon="5.13279">
        <ele>532.3</ele>
        <time>2013-01-24T14:46:52.000Z</time>
      </trkpt>
      <trkpt lat="43.96057" lon="5.13277">
        <ele>532.3</ele>
        <time>2013-01-24T14:46:53.000Z</time>
      </trkpt>
      <trkpt lat="43.96054" lon="5.13274">
        <ele>532.2</ele>
        <time>2013-01-24T14:46:54.000Z</time>
      </trkpt>
      <trkpt lat="43.96051" lon="5.13272">
        <ele>532.2</ele>
        <time>2013-01-24T14:46:55.000Z</time>
      </trkpt>
      <trkpt lat="43.96048" lon="5.1327">
        <ele>531.9</ele>
        <time>2013-01-24T14:46:56.000Z</time>
      </trkpt>
      <trkpt lat="43.96045" lon="5.13268">
        <ele>531.9</ele>
        <time>2013-01-24T14:46:57.000Z</time>
      </trkpt>
      <trkpt lat="43.96042" lon="5.13266">
        <ele>531.9</ele>
        <time>2013-01-24T14:46:58.000Z</time>
      </trkpt>
      <trkpt lat="43.96039" lon="5.13264">
        <ele>531.5</ele>
        <time>2013-01-24T14:46:59.000Z</time>
      </trkpt>
      <trkpt lat="43.96037" lon="5.13262">
        <ele>531.5</ele>
        <time>2013-01-24T14:47:00.000Z</time>
      </trkpt>
      <trkpt lat="43.96034" lon="5.13259">
        <ele>531.3</ele>
        <time>2013-01-24T14:47:01.000Z</time>
      </trkpt>
      <trkpt lat="43.96031" lon="5.13257">
        <ele>531.3</ele>
        <time>2013-01-24T14:47:02.000Z</time>
      </trkpt>
      <trkpt lat="43.96029" lon="5.13255">
        <ele>531.2</ele>
        <time>2013-01-24T14:47:03.000Z</time>
      </trkpt>
      <trkpt lat="43.96026" lon="5.13253">
        <ele>531.1</ele>
        <time>2013-01-24T14:47:04.000Z</time>
      </trkpt>
      <trkpt lat="43.96023" lon="5.13251">
        <ele>530.9</ele>
        <time>2013-01-24T14:47:05.000Z</time>
      </trkpt>
      <trkpt lat="43.96021" lon="5.13249">
        <ele>530.8</ele>
        <time>2013-01-24T14:47:06.000Z</time>
      </trkpt>
      <trkpt lat="43.96018" lon="5.13248">
        <ele>530.8</ele>
        <time>2013-01-24T14:47:07.000Z</time>
      </trkpt>
      <trkpt lat="43.96016" lon="5.13247">
        <ele>530.7</ele>
        <time>2013-01-24T14:47:08.000Z</time>
      </trkpt>
      <trkpt lat="43.96013" lon="5.13246">
        <ele>530.3</ele>
        <time>2013-01-24T14:47:09.000Z</time>
      </trkpt>
      <trkpt lat="43.9601" lon="5.13245">
        <ele>530.3</ele>
        <time>2013-01-24T14:47:10.000Z</time>
      </trkpt>
      <trkpt lat="43.96007" lon="5.13244">
        <ele>530.1</ele>
        <time>2013-01-24T14:47:11.000Z</time>
      </trkpt>
      <trkpt lat="43.96005" lon="5.13242">
        <ele>529.9</ele>
        <time>2013-01-24T14:47:12.000Z</time>
      </trkpt>
      <trkpt lat="43.96002" lon="5.13241">
        <ele>529.9</ele>
        <time>2013-01-24T14:47:13.000Z</time>
      </trkpt>
      <trkpt lat="43.95999" lon="5.1324">
        <ele>529.6</ele>
        <time>2013-01-24T14:47:14.000Z</time>
      </trkpt>
      <trkpt lat="43.95997" lon="5.13238">
        <ele>529.4</ele>
        <time>2013-01-24T14:47:15.000Z</time>
      </trkpt>
      <trkpt lat="43.95994" lon="5.13237">
        <ele>529.1</ele>
        <time>2013-01-24T14:47:16.000Z</time>
      </trkpt>
      <trkpt lat="43.95992" lon="5.13236">
        <ele>528.7</ele>
        <time>2013-01-24T14:47:17.000Z</time>
      </trkpt>
      <trkpt lat="43.95989" lon="5.13235">
        <ele>528.6</ele>
        <time>2013-01-24T14:47:18.000Z</time>
      </trkpt>
      <trkpt lat="43.95986" lon="5.13234">
        <ele>528.5</ele>
        <time>2013-01-24T14:47:19.000Z</time>
      </trkpt>
      <trkpt lat="43.95984" lon="5.13232">
        <ele>526.5</ele>
        <time>2013-01-24T14:47:22.000Z</time>
      </trkpt>
      <trkpt lat="43.95982" lon="5.13231">
        <ele>526.3</ele>
        <time>2013-01-24T14:47:23.000Z</time>
      </trkpt>
      <trkpt lat="43.95979" lon="5.13228">
        <ele>527.2</ele>
        <time>2013-01-24T14:47:26.000Z</time>
      </trkpt>
      <trkpt lat="43.95978" lon="5.13227">
        <ele>527.2</ele>
        <time>2013-01-24T14:47:27.000Z</time>
      </trkpt>
      <trkpt lat="43.95974" lon="5.13228">
        <ele>528.1</ele>
        <time>2013-01-24T14:47:35.000Z</time>
      </trkpt>
      <trkpt lat="43.95973" lon="5.13228">
        <ele>528.1</ele>
        <time>2013-01-24T14:47:36.000Z</time>
      </trkpt>
      <trkpt lat="43.9597" lon="5.13226">
        <ele>528.1</ele>
        <time>2013-01-24T14:47:47.000Z</time>
      </trkpt>
      <trkpt lat="43.95972" lon="5.13217">
        <ele>529.2</ele>
        <time>2013-01-24T14:47:48.000Z</time>
      </trkpt>
      <trkpt lat="43.95973" lon="5.13211">
        <ele>530.6</ele>
        <time>2013-01-24T14:47:49.000Z</time>
      </trkpt>
      <trkpt lat="43.95978" lon="5.13209">
        <ele>530.6</ele>
        <time>2013-01-24T14:47:50.000Z</time>
      </trkpt>
      <trkpt lat="43.95976" lon="5.13214">
        <ele>532.7</ele>
        <time>2013-01-24T14:47:53.000Z</time>
      </trkpt>
      <trkpt lat="43.95971" lon="5.13213">
        <ele>532.4</ele>
        <time>2013-01-24T14:47:54.000Z</time>
      </trkpt>
      <trkpt lat="43.95967" lon="5.1321">
        <ele>532.2</ele>
        <time>2013-01-24T14:47:56.000Z</time>
      </trkpt>
      <trkpt lat="43.95965" lon="5.13209">
        <ele>531.4</ele>
        <time>2013-01-24T14:47:57.000Z</time>
      </trkpt>
      <trkpt lat="43.95964" lon="5.1321">
        <ele>531.3</ele>
        <time>2013-01-24T14:47:58.000Z</time>
      </trkpt>
      <trkpt lat="43.95962" lon="5.13203">
        <ele>531</ele>
        <time>2013-01-24T14:47:59.000Z</time>
      </trkpt>
      <trkpt lat="43.95961" lon="5.13206">
        <ele>530.9</ele>
        <time>2013-01-24T14:48:00.000Z</time>
      </trkpt>
      <trkpt lat="43.95958" lon="5.13212">
        <ele>530.6</ele>
        <time>2013-01-24T14:48:01.000Z</time>
      </trkpt>
      <trkpt lat="43.95962" lon="5.13196">
        <ele>540.2</ele>
        <time>2013-01-24T14:48:02.000Z</time>
      </trkpt>
      <trkpt lat="43.95961" lon="5.13203">
        <ele>539.5</ele>
        <time>2013-01-24T14:48:03.000Z</time>
      </trkpt>
      <trkpt lat="43.95959" lon="5.13206">
        <ele>538</ele>
        <time>2013-01-24T14:48:05.000Z</time>
      </trkpt>
      <trkpt lat="43.95958" lon="5.13209">
        <ele>536.9</ele>
        <time>2013-01-24T14:48:06.000Z</time>
      </trkpt>
      <trkpt lat="43.95954" lon="5.1321">
        <ele>536.1</ele>
        <time>2013-01-24T14:48:08.000Z</time>
      </trkpt>
      <trkpt lat="43.95954" lon="5.13212">
        <ele>535.9</ele>
        <time>2013-01-24T14:48:09.000Z</time>
      </trkpt>
      <trkpt lat="43.95955" lon="5.13208">
        <ele>532.4</ele>
        <time>2013-01-24T14:48:20.000Z</time>
      </trkpt>
      <trkpt lat="43.95958" lon="5.13205">
        <ele>533</ele>
        <time>2013-01-24T14:48:21.000Z</time>
      </trkpt>
      <trkpt lat="43.95959" lon="5.13202">
        <ele>532</ele>
        <time>2013-01-24T14:48:22.000Z</time>
      </trkpt>
      <trkpt lat="43.9596" lon="5.13198">
        <ele>531.6</ele>
        <time>2013-01-24T14:48:23.000Z</time>
      </trkpt>
      <trkpt lat="43.95962" lon="5.13194">
        <ele>530.8</ele>
        <time>2013-01-24T14:48:24.000Z</time>
      </trkpt>
      <trkpt lat="43.95963" lon="5.13189">
        <ele>530.5</ele>
        <time>2013-01-24T14:48:25.000Z</time>
      </trkpt>
      <trkpt lat="43.95964" lon="5.13183">
        <ele>530</ele>
        <time>2013-01-24T14:48:26.000Z</time>
      </trkpt>
      <trkpt lat="43.95966" lon="5.13178">
        <ele>530.3</ele>
        <time>2013-01-24T14:48:27.000Z</time>
      </trkpt>
      <trkpt lat="43.95969" lon="5.13173">
        <ele>529.8</ele>
        <time>2013-01-24T14:48:28.000Z</time>
      </trkpt>
      <trkpt lat="43.95972" lon="5.13169">
        <ele>529.9</ele>
        <time>2013-01-24T14:48:29.000Z</time>
      </trkpt>
      <trkpt lat="43.95974" lon="5.13165">
        <ele>529.8</ele>
        <time>2013-01-24T14:48:30.000Z</time>
      </trkpt>
      <trkpt lat="43.95977" lon="5.13161">
        <ele>529.6</ele>
        <time>2013-01-24T14:48:31.000Z</time>
      </trkpt>
      <trkpt lat="43.9598" lon="5.13157">
        <ele>529.3</ele>
        <time>2013-01-24T14:48:32.000Z</time>
      </trkpt>
      <trkpt lat="43.95983" lon="5.13154">
        <ele>529.3</ele>
        <time>2013-01-24T14:48:33.000Z</time>
      </trkpt>
      <trkpt lat="43.95986" lon="5.13151">
        <ele>529.1</ele>
        <time>2013-01-24T14:48:34.000Z</time>
      </trkpt>
      <trkpt lat="43.95988" lon="5.13148">
        <ele>528.9</ele>
        <time>2013-01-24T14:48:35.000Z</time>
      </trkpt>
      <trkpt lat="43.95991" lon="5.13147">
        <ele>529</ele>
        <time>2013-01-24T14:48:36.000Z</time>
      </trkpt>
      <trkpt lat="43.95993" lon="5.13145">
        <ele>529.4</ele>
        <time>2013-01-24T14:48:37.000Z</time>
      </trkpt>
      <trkpt lat="43.95995" lon="5.13143">
        <ele>529.7</ele>
        <time>2013-01-24T14:48:38.000Z</time>
      </trkpt>
      <trkpt lat="43.95997" lon="5.13141">
        <ele>530.1</ele>
        <time>2013-01-24T14:48:39.000Z</time>
      </trkpt>
      <trkpt lat="43.95999" lon="5.13138">
        <ele>530.3</ele>
        <time>2013-01-24T14:48:40.000Z</time>
      </trkpt>
      <trkpt lat="43.96001" lon="5.13134">
        <ele>530.3</ele>
        <time>2013-01-24T14:48:41.000Z</time>
      </trkpt>
      <trkpt lat="43.96003" lon="5.13131">
        <ele>530.2</ele>
        <time>2013-01-24T14:48:42.000Z</time>
      </trkpt>
      <trkpt lat="43.96005" lon="5.13128">
        <ele>530.5</ele>
        <time>2013-01-24T14:48:43.000Z</time>
      </trkpt>
      <trkpt lat="43.96007" lon="5.13125">
        <ele>530.6</ele>
        <time>2013-01-24T14:48:44.000Z</time>
      </trkpt>
      <trkpt lat="43.96008" lon="5.13122">
        <ele>530.8</ele>
        <time>2013-01-24T14:48:45.000Z</time>
      </trkpt>
      <trkpt lat="43.96009" lon="5.13119">
        <ele>531.1</ele>
        <time>2013-01-24T14:48:46.000Z</time>
      </trkpt>
      <trkpt lat="43.9601" lon="5.13115">
        <ele>530.6</ele>
        <time>2013-01-24T14:48:47.000Z</time>
      </trkpt>
      <trkpt lat="43.96011" lon="5.13112">
        <ele>530.3</ele>
        <time>2013-01-24T14:48:48.000Z</time>
      </trkpt>
      <trkpt lat="43.96012" lon="5.13109">
        <ele>530.2</ele>
        <time>2013-01-24T14:48:49.000Z</time>
      </trkpt>
      <trkpt lat="43.96012" lon="5.13106">
        <ele>531.2</ele>
        <time>2013-01-24T14:48:50.000Z</time>
      </trkpt>
      <trkpt lat="43.96012" lon="5.131">
        <ele>531.5</ele>
        <time>2013-01-24T14:48:52.000Z</time>
      </trkpt>
      <trkpt lat="43.96013" lon="5.13098">
        <ele>531.7</ele>
        <time>2013-01-24T14:48:53.000Z</time>
      </trkpt>
      <trkpt lat="43.96013" lon="5.13093">
        <ele>532.1</ele>
        <time>2013-01-24T14:48:55.000Z</time>
      </trkpt>
      <trkpt lat="43.96013" lon="5.13091">
        <ele>532.3</ele>
        <time>2013-01-24T14:48:56.000Z</time>
      </trkpt>
      <trkpt lat="43.96014" lon="5.13086">
        <ele>532.9</ele>
        <time>2013-01-24T14:48:58.000Z</time>
      </trkpt>
      <trkpt lat="43.96014" lon="5.13083">
        <ele>532.8</ele>
        <time>2013-01-24T14:48:59.000Z</time>
      </trkpt>
      <trkpt lat="43.96015" lon="5.13078">
        <ele>533.7</ele>
        <time>2013-01-24T14:49:01.000Z</time>
      </trkpt>
      <trkpt lat="43.96016" lon="5.13076">
        <ele>533.7</ele>
        <time>2013-01-24T14:49:02.000Z</time>
      </trkpt>
      <trkpt lat="43.96018" lon="5.13071">
        <ele>533.9</ele>
        <time>2013-01-24T14:49:04.000Z</time>
      </trkpt>
      <trkpt lat="43.96019" lon="5.13068">
        <ele>534</ele>
        <time>2013-01-24T14:49:05.000Z</time>
      </trkpt>
      <trkpt lat="43.9602" lon="5.13065">
        <ele>534.3</ele>
        <time>2013-01-24T14:49:06.000Z</time>
      </trkpt>
      <trkpt lat="43.96021" lon="5.13062">
        <ele>534.4</ele>
        <time>2013-01-24T14:49:07.000Z</time>
      </trkpt>
      <trkpt lat="43.96022" lon="5.13057">
        <ele>534.4</ele>
        <time>2013-01-24T14:49:09.000Z</time>
      </trkpt>
      <trkpt lat="43.96022" lon="5.13054">
        <ele>534.2</ele>
        <time>2013-01-24T14:49:10.000Z</time>
      </trkpt>
      <trkpt lat="43.96024" lon="5.13048">
        <ele>534.7</ele>
        <time>2013-01-24T14:49:12.000Z</time>
      </trkpt>
      <trkpt lat="43.96024" lon="5.13045">
        <ele>534.8</ele>
        <time>2013-01-24T14:49:13.000Z</time>
      </trkpt>
      <trkpt lat="43.96025" lon="5.1304">
        <ele>535</ele>
        <time>2013-01-24T14:49:15.000Z</time>
      </trkpt>
      <trkpt lat="43.96025" lon="5.13038">
        <ele>535.2</ele>
        <time>2013-01-24T14:49:16.000Z</time>
      </trkpt>
      <trkpt lat="43.96026" lon="5.13033">
        <ele>536</ele>
        <time>2013-01-24T14:49:18.000Z</time>
      </trkpt>
      <trkpt lat="43.96026" lon="5.13031">
        <ele>535.9</ele>
        <time>2013-01-24T14:49:19.000Z</time>
      </trkpt>
      <trkpt lat="43.96027" lon="5.13026">
        <ele>535.8</ele>
        <time>2013-01-24T14:49:21.000Z</time>
      </trkpt>
      <trkpt lat="43.96027" lon="5.13023">
        <ele>536.1</ele>
        <time>2013-01-24T14:49:22.000Z</time>
      </trkpt>
      <trkpt lat="43.96027" lon="5.13018">
        <ele>536.2</ele>
        <time>2013-01-24T14:49:24.000Z</time>
      </trkpt>
      <trkpt lat="43.96028" lon="5.13016">
        <ele>536.4</ele>
        <time>2013-01-24T14:49:25.000Z</time>
      </trkpt>
      <trkpt lat="43.96027" lon="5.1301">
        <ele>536.5</ele>
        <time>2013-01-24T14:49:27.000Z</time>
      </trkpt>
      <trkpt lat="43.96027" lon="5.13008">
        <ele>536.7</ele>
        <time>2013-01-24T14:49:28.000Z</time>
      </trkpt>
      <trkpt lat="43.96026" lon="5.13003">
        <ele>537.3</ele>
        <time>2013-01-24T14:49:30.000Z</time>
      </trkpt>
      <trkpt lat="43.96026" lon="5.13">
        <ele>537.4</ele>
        <time>2013-01-24T14:49:31.000Z</time>
      </trkpt>
      <trkpt lat="43.96024" lon="5.12996">
        <ele>537.7</ele>
        <time>2013-01-24T14:49:33.000Z</time>
      </trkpt>
      <trkpt lat="43.96023" lon="5.12994">
        <ele>537.9</ele>
        <time>2013-01-24T14:49:34.000Z</time>
      </trkpt>
      <trkpt lat="43.96022" lon="5.1299">
        <ele>538.4</ele>
        <time>2013-01-24T14:49:36.000Z</time>
      </trkpt>
      <trkpt lat="43.96021" lon="5.12989">
        <ele>538.7</ele>
        <time>2013-01-24T14:49:37.000Z</time>
      </trkpt>
      <trkpt lat="43.96019" lon="5.12985">
        <ele>539</ele>
        <time>2013-01-24T14:49:39.000Z</time>
      </trkpt>
      <trkpt lat="43.96017" lon="5.12983">
        <ele>539</ele>
        <time>2013-01-24T14:49:40.000Z</time>
      </trkpt>
      <trkpt lat="43.96015" lon="5.1298">
        <ele>538.9</ele>
        <time>2013-01-24T14:49:42.000Z</time>
      </trkpt>
      <trkpt lat="43.96013" lon="5.12979">
        <ele>539.1</ele>
        <time>2013-01-24T14:49:43.000Z</time>
      </trkpt>
      <trkpt lat="43.9601" lon="5.12976">
        <ele>539.2</ele>
        <time>2013-01-24T14:49:45.000Z</time>
      </trkpt>
      <trkpt lat="43.96009" lon="5.12974">
        <ele>539.4</ele>
        <time>2013-01-24T14:49:46.000Z</time>
      </trkpt>
      <trkpt lat="43.96006" lon="5.12971">
        <ele>539.7</ele>
        <time>2013-01-24T14:49:48.000Z</time>
      </trkpt>
      <trkpt lat="43.96005" lon="5.12969">
        <ele>539.8</ele>
        <time>2013-01-24T14:49:49.000Z</time>
      </trkpt>
      <trkpt lat="43.96002" lon="5.12966">
        <ele>539.9</ele>
        <time>2013-01-24T14:49:51.000Z</time>
      </trkpt>
      <trkpt lat="43.96" lon="5.12964">
        <ele>539.8</ele>
        <time>2013-01-24T14:49:52.000Z</time>
      </trkpt>
      <trkpt lat="43.95997" lon="5.12962">
        <ele>540</ele>
        <time>2013-01-24T14:49:54.000Z</time>
      </trkpt>
      <trkpt lat="43.95995" lon="5.1296">
        <ele>540</ele>
        <time>2013-01-24T14:49:55.000Z</time>
      </trkpt>
      <trkpt lat="43.95992" lon="5.12957">
        <ele>540.1</ele>
        <time>2013-01-24T14:49:57.000Z</time>
      </trkpt>
      <trkpt lat="43.9599" lon="5.12956">
        <ele>540.2</ele>
        <time>2013-01-24T14:49:58.000Z</time>
      </trkpt>
      <trkpt lat="43.95986" lon="5.12953">
        <ele>540.3</ele>
        <time>2013-01-24T14:50:00.000Z</time>
      </trkpt>
      <trkpt lat="43.95984" lon="5.12951">
        <ele>540.2</ele>
        <time>2013-01-24T14:50:01.000Z</time>
      </trkpt>
      <trkpt lat="43.95981" lon="5.12948">
        <ele>540</ele>
        <time>2013-01-24T14:50:03.000Z</time>
      </trkpt>
      <trkpt lat="43.95978" lon="5.12947">
        <ele>539.9</ele>
        <time>2013-01-24T14:50:04.000Z</time>
      </trkpt>
      <trkpt lat="43.95976" lon="5.12946">
        <ele>540</ele>
        <time>2013-01-24T14:50:05.000Z</time>
      </trkpt>
      <trkpt lat="43.95974" lon="5.12945">
        <ele>540.1</ele>
        <time>2013-01-24T14:50:06.000Z</time>
      </trkpt>
      <trkpt lat="43.95972" lon="5.12944">
        <ele>540.1</ele>
        <time>2013-01-24T14:50:07.000Z</time>
      </trkpt>
      <trkpt lat="43.95969" lon="5.12943">
        <ele>539.9</ele>
        <time>2013-01-24T14:50:08.000Z</time>
      </trkpt>
      <trkpt lat="43.95967" lon="5.12942">
        <ele>539.8</ele>
        <time>2013-01-24T14:50:09.000Z</time>
      </trkpt>
      <trkpt lat="43.95964" lon="5.12941">
        <ele>539.7</ele>
        <time>2013-01-24T14:50:10.000Z</time>
      </trkpt>
      <trkpt lat="43.95962" lon="5.1294">
        <ele>539.7</ele>
        <time>2013-01-24T14:50:11.000Z</time>
      </trkpt>
      <trkpt lat="43.9596" lon="5.12939">
        <ele>539.8</ele>
        <time>2013-01-24T14:50:12.000Z</time>
      </trkpt>
      <trkpt lat="43.95957" lon="5.12937">
        <ele>539.7</ele>
        <time>2013-01-24T14:50:13.000Z</time>
      </trkpt>
      <trkpt lat="43.95954" lon="5.12936">
        <ele>539.6</ele>
        <time>2013-01-24T14:50:14.000Z</time>
      </trkpt>
      <trkpt lat="43.95952" lon="5.12935">
        <ele>539.7</ele>
        <time>2013-01-24T14:50:15.000Z</time>
      </trkpt>
      <trkpt lat="43.95949" lon="5.12933">
        <ele>539.2</ele>
        <time>2013-01-24T14:50:16.000Z</time>
      </trkpt>
      <trkpt lat="43.95946" lon="5.12931">
        <ele>539.4</ele>
        <time>2013-01-24T14:50:17.000Z</time>
      </trkpt>
      <trkpt lat="43.95943" lon="5.12929">
        <ele>539</ele>
        <time>2013-01-24T14:50:18.000Z</time>
      </trkpt>
      <trkpt lat="43.9594" lon="5.12926">
        <ele>538.9</ele>
        <time>2013-01-24T14:50:19.000Z</time>
      </trkpt>
      <trkpt lat="43.95937" lon="5.12922">
        <ele>538.5</ele>
        <time>2013-01-24T14:50:20.000Z</time>
      </trkpt>
      <trkpt lat="43.95935" lon="5.12917">
        <ele>537.8</ele>
        <time>2013-01-24T14:50:21.000Z</time>
      </trkpt>
      <trkpt lat="43.95932" lon="5.12912">
        <ele>537.4</ele>
        <time>2013-01-24T14:50:22.000Z</time>
      </trkpt>
      <trkpt lat="43.95927" lon="5.12908">
        <ele>536.6</ele>
        <time>2013-01-24T14:50:23.000Z</time>
      </trkpt>
      <trkpt lat="43.95922" lon="5.12903">
        <ele>536.7</ele>
        <time>2013-01-24T14:50:24.000Z</time>
      </trkpt>
      <trkpt lat="43.95916" lon="5.12902">
        <ele>536.3</ele>
        <time>2013-01-24T14:50:25.000Z</time>
      </trkpt>
      <trkpt lat="43.9591" lon="5.129">
        <ele>535.9</ele>
        <time>2013-01-24T14:50:26.000Z</time>
      </trkpt>
      <trkpt lat="43.95904" lon="5.12899">
        <ele>535.7</ele>
        <time>2013-01-24T14:50:27.000Z</time>
      </trkpt>
      <trkpt lat="43.95899" lon="5.12897">
        <ele>535.2</ele>
        <time>2013-01-24T14:50:28.000Z</time>
      </trkpt>
      <trkpt lat="43.95893" lon="5.12896">
        <ele>535</ele>
        <time>2013-01-24T14:50:29.000Z</time>
      </trkpt>
      <trkpt lat="43.95888" lon="5.12895">
        <ele>534.9</ele>
        <time>2013-01-24T14:50:30.000Z</time>
      </trkpt>
      <trkpt lat="43.95882" lon="5.12893">
        <ele>534.8</ele>
        <time>2013-01-24T14:50:31.000Z</time>
      </trkpt>
      <trkpt lat="43.95877" lon="5.12892">
        <ele>534.6</ele>
        <time>2013-01-24T14:50:32.000Z</time>
      </trkpt>
      <trkpt lat="43.95871" lon="5.12891">
        <ele>534.3</ele>
        <time>2013-01-24T14:50:33.000Z</time>
      </trkpt>
      <trkpt lat="43.95865" lon="5.12889">
        <ele>534.3</ele>
        <time>2013-01-24T14:50:34.000Z</time>
      </trkpt>
      <trkpt lat="43.95859" lon="5.12887">
        <ele>534.2</ele>
        <time>2013-01-24T14:50:35.000Z</time>
      </trkpt>
      <trkpt lat="43.95853" lon="5.12886">
        <ele>533.9</ele>
        <time>2013-01-24T14:50:36.000Z</time>
      </trkpt>
      <trkpt lat="43.95848" lon="5.12885">
        <ele>533.8</ele>
        <time>2013-01-24T14:50:37.000Z</time>
      </trkpt>
      <trkpt lat="43.95842" lon="5.12885">
        <ele>533.5</ele>
        <time>2013-01-24T14:50:38.000Z</time>
      </trkpt>
      <trkpt lat="43.95836" lon="5.12884">
        <ele>533.4</ele>
        <time>2013-01-24T14:50:39.000Z</time>
      </trkpt>
      <trkpt lat="43.9583" lon="5.12882">
        <ele>532.9</ele>
        <time>2013-01-24T14:50:40.000Z</time>
      </trkpt>
      <trkpt lat="43.95825" lon="5.1288">
        <ele>532.6</ele>
        <time>2013-01-24T14:50:41.000Z</time>
      </trkpt>
      <trkpt lat="43.95819" lon="5.12876">
        <ele>531.9</ele>
        <time>2013-01-24T14:50:42.000Z</time>
      </trkpt>
      <trkpt lat="43.95814" lon="5.12871">
        <ele>531.2</ele>
        <time>2013-01-24T14:50:43.000Z</time>
      </trkpt>
      <trkpt lat="43.95808" lon="5.12866">
        <ele>530.5</ele>
        <time>2013-01-24T14:50:44.000Z</time>
      </trkpt>
      <trkpt lat="43.95803" lon="5.12861">
        <ele>529.8</ele>
        <time>2013-01-24T14:50:45.000Z</time>
      </trkpt>
      <trkpt lat="43.95798" lon="5.12856">
        <ele>529.1</ele>
        <time>2013-01-24T14:50:46.000Z</time>
      </trkpt>
      <trkpt lat="43.95794" lon="5.12852">
        <ele>528.7</ele>
        <time>2013-01-24T14:50:47.000Z</time>
      </trkpt>
      <trkpt lat="43.95789" lon="5.12847">
        <ele>527.8</ele>
        <time>2013-01-24T14:50:48.000Z</time>
      </trkpt>
      <trkpt lat="43.95784" lon="5.12843">
        <ele>527.1</ele>
        <time>2013-01-24T14:50:49.000Z</time>
      </trkpt>
      <trkpt lat="43.9578" lon="5.12841">
        <ele>526.6</ele>
        <time>2013-01-24T14:50:50.000Z</time>
      </trkpt>
      <trkpt lat="43.95775" lon="5.12838">
        <ele>526</ele>
        <time>2013-01-24T14:50:51.000Z</time>
      </trkpt>
      <trkpt lat="43.95769" lon="5.12835">
        <ele>525.4</ele>
        <time>2013-01-24T14:50:52.000Z</time>
      </trkpt>
      <trkpt lat="43.95764" lon="5.12833">
        <ele>524.7</ele>
        <time>2013-01-24T14:50:53.000Z</time>
      </trkpt>
      <trkpt lat="43.95759" lon="5.12831">
        <ele>524.4</ele>
        <time>2013-01-24T14:50:54.000Z</time>
      </trkpt>
      <trkpt lat="43.95754" lon="5.12829">
        <ele>523.9</ele>
        <time>2013-01-24T14:50:55.000Z</time>
      </trkpt>
      <trkpt lat="43.95749" lon="5.12827">
        <ele>523.7</ele>
        <time>2013-01-24T14:50:56.000Z</time>
      </trkpt>
      <trkpt lat="43.95743" lon="5.12826">
        <ele>523</ele>
        <time>2013-01-24T14:50:57.000Z</time>
      </trkpt>
      <trkpt lat="43.95737" lon="5.12825">
        <ele>522.5</ele>
        <time>2013-01-24T14:50:58.000Z</time>
      </trkpt>
      <trkpt lat="43.9573" lon="5.12822">
        <ele>522.1</ele>
        <time>2013-01-24T14:50:59.000Z</time>
      </trkpt>
      <trkpt lat="43.95724" lon="5.1282">
        <ele>521.5</ele>
        <time>2013-01-24T14:51:00.000Z</time>
      </trkpt>
      <trkpt lat="43.95717" lon="5.12816">
        <ele>520.8</ele>
        <time>2013-01-24T14:51:01.000Z</time>
      </trkpt>
      <trkpt lat="43.95711" lon="5.12812">
        <ele>520.2</ele>
        <time>2013-01-24T14:51:02.000Z</time>
      </trkpt>
      <trkpt lat="43.95706" lon="5.12808">
        <ele>519.9</ele>
        <time>2013-01-24T14:51:03.000Z</time>
      </trkpt>
      <trkpt lat="43.95701" lon="5.12802">
        <ele>519.1</ele>
        <time>2013-01-24T14:51:04.000Z</time>
      </trkpt>
      <trkpt lat="43.95696" lon="5.12797">
        <ele>518.6</ele>
        <time>2013-01-24T14:51:05.000Z</time>
      </trkpt>
      <trkpt lat="43.95692" lon="5.12791">
        <ele>519.1</ele>
        <time>2013-01-24T14:51:06.000Z</time>
      </trkpt>
      <trkpt lat="43.95687" lon="5.12786">
        <ele>519.2</ele>
        <time>2013-01-24T14:51:07.000Z</time>
      </trkpt>
      <trkpt lat="43.95682" lon="5.1278">
        <ele>518</ele>
        <time>2013-01-24T14:51:08.000Z</time>
      </trkpt>
      <trkpt lat="43.95677" lon="5.12774">
        <ele>517.7</ele>
        <time>2013-01-24T14:51:09.000Z</time>
      </trkpt>
      <trkpt lat="43.95671" lon="5.1277">
        <ele>516.8</ele>
        <time>2013-01-24T14:51:10.000Z</time>
      </trkpt>
      <trkpt lat="43.95666" lon="5.12765">
        <ele>516</ele>
        <time>2013-01-24T14:51:11.000Z</time>
      </trkpt>
      <trkpt lat="43.95659" lon="5.12763">
        <ele>515.4</ele>
        <time>2013-01-24T14:51:12.000Z</time>
      </trkpt>
      <trkpt lat="43.95653" lon="5.1276">
        <ele>515.3</ele>
        <time>2013-01-24T14:51:13.000Z</time>
      </trkpt>
      <trkpt lat="43.95646" lon="5.12759">
        <ele>514.8</ele>
        <time>2013-01-24T14:51:14.000Z</time>
      </trkpt>
      <trkpt lat="43.95639" lon="5.12758">
        <ele>514.2</ele>
        <time>2013-01-24T14:51:15.000Z</time>
      </trkpt>
      <trkpt lat="43.95633" lon="5.12757">
        <ele>513.6</ele>
        <time>2013-01-24T14:51:16.000Z</time>
      </trkpt>
      <trkpt lat="43.95628" lon="5.12754">
        <ele>512.9</ele>
        <time>2013-01-24T14:51:17.000Z</time>
      </trkpt>
      <trkpt lat="43.95623" lon="5.12749">
        <ele>512.2</ele>
        <time>2013-01-24T14:51:18.000Z</time>
      </trkpt>
      <trkpt lat="43.95618" lon="5.12744">
        <ele>511.4</ele>
        <time>2013-01-24T14:51:19.000Z</time>
      </trkpt>
      <trkpt lat="43.95614" lon="5.12738">
        <ele>511</ele>
        <time>2013-01-24T14:51:20.000Z</time>
      </trkpt>
      <trkpt lat="43.95611" lon="5.12731">
        <ele>510.4</ele>
        <time>2013-01-24T14:51:21.000Z</time>
      </trkpt>
      <trkpt lat="43.95608" lon="5.12723">
        <ele>510.3</ele>
        <time>2013-01-24T14:51:22.000Z</time>
      </trkpt>
      <trkpt lat="43.95605" lon="5.12715">
        <ele>508.7</ele>
        <time>2013-01-24T14:51:23.000Z</time>
      </trkpt>
      <trkpt lat="43.95603" lon="5.12706">
        <ele>508.2</ele>
        <time>2013-01-24T14:51:24.000Z</time>
      </trkpt>
      <trkpt lat="43.95601" lon="5.12697">
        <ele>507.6</ele>
        <time>2013-01-24T14:51:25.000Z</time>
      </trkpt>
      <trkpt lat="43.956" lon="5.12689">
        <ele>507</ele>
        <time>2013-01-24T14:51:26.000Z</time>
      </trkpt>
      <trkpt lat="43.95599" lon="5.12681">
        <ele>506.5</ele>
        <time>2013-01-24T14:51:27.000Z</time>
      </trkpt>
      <trkpt lat="43.95599" lon="5.12673">
        <ele>505.9</ele>
        <time>2013-01-24T14:51:28.000Z</time>
      </trkpt>
      <trkpt lat="43.95599" lon="5.12665">
        <ele>505.3</ele>
        <time>2013-01-24T14:51:29.000Z</time>
      </trkpt>
      <trkpt lat="43.95598" lon="5.12658">
        <ele>504.9</ele>
        <time>2013-01-24T14:51:30.000Z</time>
      </trkpt>
      <trkpt lat="43.95597" lon="5.12652">
        <ele>505.3</ele>
        <time>2013-01-24T14:51:31.000Z</time>
      </trkpt>
      <trkpt lat="43.95595" lon="5.12646">
        <ele>505.4</ele>
        <time>2013-01-24T14:51:32.000Z</time>
      </trkpt>
      <trkpt lat="43.95593" lon="5.12641">
        <ele>504.6</ele>
        <time>2013-01-24T14:51:33.000Z</time>
      </trkpt>
      <trkpt lat="43.95591" lon="5.12636">
        <ele>503.9</ele>
        <time>2013-01-24T14:51:34.000Z</time>
      </trkpt>
      <trkpt lat="43.95588" lon="5.12632">
        <ele>503.7</ele>
        <time>2013-01-24T14:51:35.000Z</time>
      </trkpt>
      <trkpt lat="43.95586" lon="5.12628">
        <ele>503.2</ele>
        <time>2013-01-24T14:51:36.000Z</time>
      </trkpt>
      <trkpt lat="43.95583" lon="5.12623">
        <ele>502.8</ele>
        <time>2013-01-24T14:51:37.000Z</time>
      </trkpt>
      <trkpt lat="43.95581" lon="5.12618">
        <ele>502.6</ele>
        <time>2013-01-24T14:51:38.000Z</time>
      </trkpt>
      <trkpt lat="43.95579" lon="5.12613">
        <ele>502.7</ele>
        <time>2013-01-24T14:51:39.000Z</time>
      </trkpt>
      <trkpt lat="43.95578" lon="5.12608">
        <ele>502.3</ele>
        <time>2013-01-24T14:51:40.000Z</time>
      </trkpt>
      <trkpt lat="43.95577" lon="5.12602">
        <ele>502.4</ele>
        <time>2013-01-24T14:51:41.000Z</time>
      </trkpt>
      <trkpt lat="43.95576" lon="5.12596">
        <ele>502.2</ele>
        <time>2013-01-24T14:51:42.000Z</time>
      </trkpt>
      <trkpt lat="43.95575" lon="5.12591">
        <ele>502.1</ele>
        <time>2013-01-24T14:51:43.000Z</time>
      </trkpt>
      <trkpt lat="43.95574" lon="5.12585">
        <ele>501.7</ele>
        <time>2013-01-24T14:51:44.000Z</time>
      </trkpt>
      <trkpt lat="43.95573" lon="5.1258">
        <ele>501.7</ele>
        <time>2013-01-24T14:51:45.000Z</time>
      </trkpt>
      <trkpt lat="43.95572" lon="5.12576">
        <ele>501.7</ele>
        <time>2013-01-24T14:51:46.000Z</time>
      </trkpt>
      <trkpt lat="43.95571" lon="5.12572">
        <ele>501.2</ele>
        <time>2013-01-24T14:51:47.000Z</time>
      </trkpt>
      <trkpt lat="43.9557" lon="5.12568">
        <ele>501.4</ele>
        <time>2013-01-24T14:51:48.000Z</time>
      </trkpt>
      <trkpt lat="43.95569" lon="5.12563">
        <ele>501.7</ele>
        <time>2013-01-24T14:51:49.000Z</time>
      </trkpt>
      <trkpt lat="43.95567" lon="5.1256">
        <ele>500.8</ele>
        <time>2013-01-24T14:51:50.000Z</time>
      </trkpt>
      <trkpt lat="43.95565" lon="5.12556">
        <ele>500.9</ele>
        <time>2013-01-24T14:51:51.000Z</time>
      </trkpt>
      <trkpt lat="43.95563" lon="5.12553">
        <ele>500.8</ele>
        <time>2013-01-24T14:51:52.000Z</time>
      </trkpt>
      <trkpt lat="43.95561" lon="5.12549">
        <ele>500</ele>
        <time>2013-01-24T14:51:53.000Z</time>
      </trkpt>
      <trkpt lat="43.95558" lon="5.12545">
        <ele>499.3</ele>
        <time>2013-01-24T14:51:54.000Z</time>
      </trkpt>
      <trkpt lat="43.95554" lon="5.12544">
        <ele>499</ele>
        <time>2013-01-24T14:51:55.000Z</time>
      </trkpt>
      <trkpt lat="43.95549" lon="5.12542">
        <ele>498.6</ele>
        <time>2013-01-24T14:51:56.000Z</time>
      </trkpt>
      <trkpt lat="43.95555" lon="5.12534">
        <ele>502.4</ele>
        <time>2013-01-24T14:51:57.000Z</time>
      </trkpt>
      <trkpt lat="43.95553" lon="5.12531">
        <ele>502.2</ele>
        <time>2013-01-24T14:51:58.000Z</time>
      </trkpt>
      <trkpt lat="43.95552" lon="5.12529">
        <ele>502.1</ele>
        <time>2013-01-24T14:51:59.000Z</time>
      </trkpt>
      <trkpt lat="43.95548" lon="5.12529">
        <ele>502.2</ele>
        <time>2013-01-24T14:52:01.000Z</time>
      </trkpt>
      <trkpt lat="43.95545" lon="5.1253">
        <ele>502.4</ele>
        <time>2013-01-24T14:52:02.000Z</time>
      </trkpt>
      <trkpt lat="43.95542" lon="5.12533">
        <ele>502.1</ele>
        <time>2013-01-24T14:52:04.000Z</time>
      </trkpt>
      <trkpt lat="43.95541" lon="5.12535">
        <ele>501.8</ele>
        <time>2013-01-24T14:52:05.000Z</time>
      </trkpt>
      <trkpt lat="43.95539" lon="5.1254">
        <ele>501.3</ele>
        <time>2013-01-24T14:52:07.000Z</time>
      </trkpt>
      <trkpt lat="43.95539" lon="5.12542">
        <ele>500.9</ele>
        <time>2013-01-24T14:52:08.000Z</time>
      </trkpt>
      <trkpt lat="43.95538" lon="5.12548">
        <ele>500.4</ele>
        <time>2013-01-24T14:52:10.000Z</time>
      </trkpt>
      <trkpt lat="43.95538" lon="5.12551">
        <ele>500.3</ele>
        <time>2013-01-24T14:52:11.000Z</time>
      </trkpt>
      <trkpt lat="43.95539" lon="5.12556">
        <ele>500</ele>
        <time>2013-01-24T14:52:13.000Z</time>
      </trkpt>
      <trkpt lat="43.9554" lon="5.12558">
        <ele>499.9</ele>
        <time>2013-01-24T14:52:14.000Z</time>
      </trkpt>
      <trkpt lat="43.9554" lon="5.12564">
        <ele>500</ele>
        <time>2013-01-24T14:52:17.000Z</time>
      </trkpt>
      <trkpt lat="43.95539" lon="5.12565">
        <ele>499.7</ele>
        <time>2013-01-24T14:52:18.000Z</time>
      </trkpt>
      <trkpt lat="43.95538" lon="5.12559">
        <ele>499.5</ele>
        <time>2013-01-24T14:53:32.000Z</time>
      </trkpt>
      <trkpt lat="43.95538" lon="5.12557">
        <ele>499.7</ele>
        <time>2013-01-24T14:53:33.000Z</time>
      </trkpt>
      <trkpt lat="43.95538" lon="5.12552">
        <ele>499.9</ele>
        <time>2013-01-24T14:53:35.000Z</time>
      </trkpt>
      <trkpt lat="43.95538" lon="5.12549">
        <ele>499.9</ele>
        <time>2013-01-24T14:53:36.000Z</time>
      </trkpt>
      <trkpt lat="43.95539" lon="5.12544">
        <ele>500</ele>
        <time>2013-01-24T14:53:38.000Z</time>
      </trkpt>
      <trkpt lat="43.95539" lon="5.12542">
        <ele>500.4</ele>
        <time>2013-01-24T14:53:39.000Z</time>
      </trkpt>
      <trkpt lat="43.95541" lon="5.12537">
        <ele>500.4</ele>
        <time>2013-01-24T14:53:41.000Z</time>
      </trkpt>
      <trkpt lat="43.95542" lon="5.12534">
        <ele>500.5</ele>
        <time>2013-01-24T14:53:42.000Z</time>
      </trkpt>
      <trkpt lat="43.95544" lon="5.1253">
        <ele>500.5</ele>
        <time>2013-01-24T14:53:44.000Z</time>
      </trkpt>
      <trkpt lat="43.95545" lon="5.12529">
        <ele>500.6</ele>
        <time>2013-01-24T14:53:45.000Z</time>
      </trkpt>
      <trkpt lat="43.95549" lon="5.12531">
        <ele>500.3</ele>
        <time>2013-01-24T14:53:47.000Z</time>
      </trkpt>
      <trkpt lat="43.95552" lon="5.12533">
        <ele>500.6</ele>
        <time>2013-01-24T14:53:48.000Z</time>
      </trkpt>
      <trkpt lat="43.95553" lon="5.12535">
        <ele>500.7</ele>
        <time>2013-01-24T14:53:49.000Z</time>
      </trkpt>
      <trkpt lat="43.95555" lon="5.12538">
        <ele>500.7</ele>
        <time>2013-01-24T14:53:50.000Z</time>
      </trkpt>
      <trkpt lat="43.95556" lon="5.1254">
        <ele>500.9</ele>
        <time>2013-01-24T14:53:51.000Z</time>
      </trkpt>
      <trkpt lat="43.95558" lon="5.12543">
        <ele>501.2</ele>
        <time>2013-01-24T14:53:52.000Z</time>
      </trkpt>
      <trkpt lat="43.95559" lon="5.12545">
        <ele>501.5</ele>
        <time>2013-01-24T14:53:53.000Z</time>
      </trkpt>
      <trkpt lat="43.95561" lon="5.12548">
        <ele>501.8</ele>
        <time>2013-01-24T14:53:54.000Z</time>
      </trkpt>
      <trkpt lat="43.95562" lon="5.12553">
        <ele>502.1</ele>
        <time>2013-01-24T14:53:56.000Z</time>
      </trkpt>
      <trkpt lat="43.95563" lon="5.12555">
        <ele>502.4</ele>
        <time>2013-01-24T14:53:57.000Z</time>
      </trkpt>
      <trkpt lat="43.95565" lon="5.1256">
        <ele>502.2</ele>
        <time>2013-01-24T14:53:59.000Z</time>
      </trkpt>
      <trkpt lat="43.95566" lon="5.12562">
        <ele>502.5</ele>
        <time>2013-01-24T14:54:00.000Z</time>
      </trkpt>
      <trkpt lat="43.95568" lon="5.12567">
        <ele>502.5</ele>
        <time>2013-01-24T14:54:02.000Z</time>
      </trkpt>
      <trkpt lat="43.9557" lon="5.1257">
        <ele>502.8</ele>
        <time>2013-01-24T14:54:03.000Z</time>
      </trkpt>
      <trkpt lat="43.95571" lon="5.12575">
        <ele>503.3</ele>
        <time>2013-01-24T14:54:05.000Z</time>
      </trkpt>
      <trkpt lat="43.95572" lon="5.12578">
        <ele>503.8</ele>
        <time>2013-01-24T14:54:06.000Z</time>
      </trkpt>
      <trkpt lat="43.95573" lon="5.12583">
        <ele>504.2</ele>
        <time>2013-01-24T14:54:08.000Z</time>
      </trkpt>
      <trkpt lat="43.95574" lon="5.12585">
        <ele>504.1</ele>
        <time>2013-01-24T14:54:09.000Z</time>
      </trkpt>
      <trkpt lat="43.95575" lon="5.12591">
        <ele>504.3</ele>
        <time>2013-01-24T14:54:11.000Z</time>
      </trkpt>
      <trkpt lat="43.95575" lon="5.12593">
        <ele>504.2</ele>
        <time>2013-01-24T14:54:12.000Z</time>
      </trkpt>
      <trkpt lat="43.95577" lon="5.12599">
        <ele>504</ele>
        <time>2013-01-24T14:54:14.000Z</time>
      </trkpt>
      <trkpt lat="43.95577" lon="5.12602">
        <ele>503.8</ele>
        <time>2013-01-24T14:54:15.000Z</time>
      </trkpt>
      <trkpt lat="43.95578" lon="5.12606">
        <ele>503.8</ele>
        <time>2013-01-24T14:54:17.000Z</time>
      </trkpt>
      <trkpt lat="43.95578" lon="5.12609">
        <ele>503.9</ele>
        <time>2013-01-24T14:54:18.000Z</time>
      </trkpt>
      <trkpt lat="43.9558" lon="5.12614">
        <ele>504.3</ele>
        <time>2013-01-24T14:54:20.000Z</time>
      </trkpt>
      <trkpt lat="43.95581" lon="5.12616">
        <ele>504.3</ele>
        <time>2013-01-24T14:54:21.000Z</time>
      </trkpt>
      <trkpt lat="43.95583" lon="5.12621">
        <ele>504.6</ele>
        <time>2013-01-24T14:54:23.000Z</time>
      </trkpt>
      <trkpt lat="43.95584" lon="5.12623">
        <ele>504.7</ele>
        <time>2013-01-24T14:54:24.000Z</time>
      </trkpt>
      <trkpt lat="43.95586" lon="5.12628">
        <ele>505</ele>
        <time>2013-01-24T14:54:26.000Z</time>
      </trkpt>
      <trkpt lat="43.95586" lon="5.12629">
        <ele>505</ele>
        <time>2013-01-24T14:54:27.000Z</time>
      </trkpt>
      <trkpt lat="43.9559" lon="5.12632">
        <ele>506</ele>
        <time>2013-01-24T14:54:30.000Z</time>
      </trkpt>
      <trkpt lat="43.95591" lon="5.12633">
        <ele>506.2</ele>
        <time>2013-01-24T14:54:31.000Z</time>
      </trkpt>
      <trkpt lat="43.95594" lon="5.12635">
        <ele>506.2</ele>
        <time>2013-01-24T14:54:33.000Z</time>
      </trkpt>
      <trkpt lat="43.95596" lon="5.12635">
        <ele>506.1</ele>
        <time>2013-01-24T14:54:34.000Z</time>
      </trkpt>
      <trkpt lat="43.95599" lon="5.12636">
        <ele>505.7</ele>
        <time>2013-01-24T14:54:35.000Z</time>
      </trkpt>
      <trkpt lat="43.95601" lon="5.12637">
        <ele>505.4</ele>
        <time>2013-01-24T14:54:36.000Z</time>
      </trkpt>
      <trkpt lat="43.95603" lon="5.12638">
        <ele>505.5</ele>
        <time>2013-01-24T14:54:37.000Z</time>
      </trkpt>
      <trkpt lat="43.95605" lon="5.12639">
        <ele>505.3</ele>
        <time>2013-01-24T14:54:38.000Z</time>
      </trkpt>
      <trkpt lat="43.95607" lon="5.12641">
        <ele>505.1</ele>
        <time>2013-01-24T14:54:39.000Z</time>
      </trkpt>
      <trkpt lat="43.9561" lon="5.12643">
        <ele>505</ele>
        <time>2013-01-24T14:54:40.000Z</time>
      </trkpt>
      <trkpt lat="43.95612" lon="5.12645">
        <ele>504.8</ele>
        <time>2013-01-24T14:54:41.000Z</time>
      </trkpt>
      <trkpt lat="43.95616" lon="5.12646">
        <ele>504.8</ele>
        <time>2013-01-24T14:54:42.000Z</time>
      </trkpt>
      <trkpt lat="43.95619" lon="5.12648">
        <ele>504.6</ele>
        <time>2013-01-24T14:54:43.000Z</time>
      </trkpt>
      <trkpt lat="43.95624" lon="5.12649">
        <ele>504.5</ele>
        <time>2013-01-24T14:54:44.000Z</time>
      </trkpt>
      <trkpt lat="43.95628" lon="5.12651">
        <ele>504.3</ele>
        <time>2013-01-24T14:54:45.000Z</time>
      </trkpt>
      <trkpt lat="43.95633" lon="5.12652">
        <ele>503.9</ele>
        <time>2013-01-24T14:54:46.000Z</time>
      </trkpt>
      <trkpt lat="43.95637" lon="5.12652">
        <ele>503.4</ele>
        <time>2013-01-24T14:54:47.000Z</time>
      </trkpt>
      <trkpt lat="43.95642" lon="5.12652">
        <ele>503.4</ele>
        <time>2013-01-24T14:54:48.000Z</time>
      </trkpt>
      <trkpt lat="43.95646" lon="5.12651">
        <ele>503.6</ele>
        <time>2013-01-24T14:54:49.000Z</time>
      </trkpt>
      <trkpt lat="43.9565" lon="5.12651">
        <ele>503.5</ele>
        <time>2013-01-24T14:54:50.000Z</time>
      </trkpt>
      <trkpt lat="43.95653" lon="5.12651">
        <ele>503.7</ele>
        <time>2013-01-24T14:54:51.000Z</time>
      </trkpt>
      <trkpt lat="43.95656" lon="5.12651">
        <ele>503.7</ele>
        <time>2013-01-24T14:54:52.000Z</time>
      </trkpt>
      <trkpt lat="43.9566" lon="5.12651">
        <ele>503.7</ele>
        <time>2013-01-24T14:54:53.000Z</time>
      </trkpt>
      <trkpt lat="43.95663" lon="5.12651">
        <ele>504.1</ele>
        <time>2013-01-24T14:54:54.000Z</time>
      </trkpt>
      <trkpt lat="43.95666" lon="5.12651">
        <ele>504.3</ele>
        <time>2013-01-24T14:54:55.000Z</time>
      </trkpt>
      <trkpt lat="43.95669" lon="5.1265">
        <ele>504.4</ele>
        <time>2013-01-24T14:54:56.000Z</time>
      </trkpt>
      <trkpt lat="43.95673" lon="5.12651">
        <ele>504.9</ele>
        <time>2013-01-24T14:54:57.000Z</time>
      </trkpt>
      <trkpt lat="43.95676" lon="5.12651">
        <ele>505.4</ele>
        <time>2013-01-24T14:54:58.000Z</time>
      </trkpt>
      <trkpt lat="43.9568" lon="5.12652">
        <ele>505.7</ele>
        <time>2013-01-24T14:54:59.000Z</time>
      </trkpt>
      <trkpt lat="43.95683" lon="5.12653">
        <ele>506.6</ele>
        <time>2013-01-24T14:55:00.000Z</time>
      </trkpt>
      <trkpt lat="43.95686" lon="5.12654">
        <ele>507.2</ele>
        <time>2013-01-24T14:55:01.000Z</time>
      </trkpt>
      <trkpt lat="43.9569" lon="5.12655">
        <ele>506.8</ele>
        <time>2013-01-24T14:55:02.000Z</time>
      </trkpt>
      <trkpt lat="43.95693" lon="5.12657">
        <ele>507.5</ele>
        <time>2013-01-24T14:55:03.000Z</time>
      </trkpt>
      <trkpt lat="43.95696" lon="5.12658">
        <ele>507.9</ele>
        <time>2013-01-24T14:55:04.000Z</time>
      </trkpt>
      <trkpt lat="43.95699" lon="5.1266">
        <ele>507.7</ele>
        <time>2013-01-24T14:55:05.000Z</time>
      </trkpt>
      <trkpt lat="43.95703" lon="5.12662">
        <ele>508</ele>
        <time>2013-01-24T14:55:06.000Z</time>
      </trkpt>
      <trkpt lat="43.95706" lon="5.12663">
        <ele>507.8</ele>
        <time>2013-01-24T14:55:07.000Z</time>
      </trkpt>
      <trkpt lat="43.95709" lon="5.12664">
        <ele>507.4</ele>
        <time>2013-01-24T14:55:08.000Z</time>
      </trkpt>
      <trkpt lat="43.95713" lon="5.12664">
        <ele>506.8</ele>
        <time>2013-01-24T14:55:09.000Z</time>
      </trkpt>
      <trkpt lat="43.95717" lon="5.12666">
        <ele>507.3</ele>
        <time>2013-01-24T14:55:10.000Z</time>
      </trkpt>
      <trkpt lat="43.95721" lon="5.12667">
        <ele>507.4</ele>
        <time>2013-01-24T14:55:11.000Z</time>
      </trkpt>
      <trkpt lat="43.95724" lon="5.12669">
        <ele>507.6</ele>
        <time>2013-01-24T14:55:12.000Z</time>
      </trkpt>
      <trkpt lat="43.95727" lon="5.12671">
        <ele>507.7</ele>
        <time>2013-01-24T14:55:13.000Z</time>
      </trkpt>
      <trkpt lat="43.9573" lon="5.12673">
        <ele>507.5</ele>
        <time>2013-01-24T14:55:14.000Z</time>
      </trkpt>
      <trkpt lat="43.95734" lon="5.12675">
        <ele>507.4</ele>
        <time>2013-01-24T14:55:15.000Z</time>
      </trkpt>
      <trkpt lat="43.95737" lon="5.12676">
        <ele>507</ele>
        <time>2013-01-24T14:55:16.000Z</time>
      </trkpt>
      <trkpt lat="43.95742" lon="5.12678">
        <ele>506.7</ele>
        <time>2013-01-24T14:55:17.000Z</time>
      </trkpt>
      <trkpt lat="43.95746" lon="5.12679">
        <ele>506.4</ele>
        <time>2013-01-24T14:55:18.000Z</time>
      </trkpt>
      <trkpt lat="43.9575" lon="5.12681">
        <ele>506.7</ele>
        <time>2013-01-24T14:55:19.000Z</time>
      </trkpt>
      <trkpt lat="43.95754" lon="5.12683">
        <ele>506.7</ele>
        <time>2013-01-24T14:55:20.000Z</time>
      </trkpt>
      <trkpt lat="43.95759" lon="5.12683">
        <ele>506.7</ele>
        <time>2013-01-24T14:55:21.000Z</time>
      </trkpt>
      <trkpt lat="43.95763" lon="5.12683">
        <ele>507</ele>
        <time>2013-01-24T14:55:22.000Z</time>
      </trkpt>
      <trkpt lat="43.95767" lon="5.12683">
        <ele>507.1</ele>
        <time>2013-01-24T14:55:23.000Z</time>
      </trkpt>
      <trkpt lat="43.95772" lon="5.12684">
        <ele>507.4</ele>
        <time>2013-01-24T14:55:24.000Z</time>
      </trkpt>
      <trkpt lat="43.95776" lon="5.12683">
        <ele>507.4</ele>
        <time>2013-01-24T14:55:25.000Z</time>
      </trkpt>
      <trkpt lat="43.9578" lon="5.12683">
        <ele>507.4</ele>
        <time>2013-01-24T14:55:26.000Z</time>
      </trkpt>
      <trkpt lat="43.95784" lon="5.12684">
        <ele>507.6</ele>
        <time>2013-01-24T14:55:27.000Z</time>
      </trkpt>
      <trkpt lat="43.95788" lon="5.12686">
        <ele>507.7</ele>
        <time>2013-01-24T14:55:28.000Z</time>
      </trkpt>
      <trkpt lat="43.95792" lon="5.12687">
        <ele>507.9</ele>
        <time>2013-01-24T14:55:29.000Z</time>
      </trkpt>
      <trkpt lat="43.95796" lon="5.12688">
        <ele>508.3</ele>
        <time>2013-01-24T14:55:30.000Z</time>
      </trkpt>
      <trkpt lat="43.958" lon="5.12688">
        <ele>508.4</ele>
        <time>2013-01-24T14:55:31.000Z</time>
      </trkpt>
      <trkpt lat="43.95804" lon="5.12689">
        <ele>508.5</ele>
        <time>2013-01-24T14:55:32.000Z</time>
      </trkpt>
      <trkpt lat="43.95807" lon="5.12689">
        <ele>508.7</ele>
        <time>2013-01-24T14:55:33.000Z</time>
      </trkpt>
      <trkpt lat="43.95811" lon="5.1269">
        <ele>508.9</ele>
        <time>2013-01-24T14:55:34.000Z</time>
      </trkpt>
      <trkpt lat="43.95814" lon="5.12691">
        <ele>509.2</ele>
        <time>2013-01-24T14:55:35.000Z</time>
      </trkpt>
      <trkpt lat="43.95818" lon="5.12692">
        <ele>509.4</ele>
        <time>2013-01-24T14:55:36.000Z</time>
      </trkpt>
      <trkpt lat="43.95821" lon="5.12692">
        <ele>509.6</ele>
        <time>2013-01-24T14:55:37.000Z</time>
      </trkpt>
      <trkpt lat="43.95824" lon="5.12692">
        <ele>509.5</ele>
        <time>2013-01-24T14:55:38.000Z</time>
      </trkpt>
      <trkpt lat="43.95827" lon="5.12692">
        <ele>509.9</ele>
        <time>2013-01-24T14:55:39.000Z</time>
      </trkpt>
      <trkpt lat="43.9583" lon="5.12691">
        <ele>509.6</ele>
        <time>2013-01-24T14:55:40.000Z</time>
      </trkpt>
      <trkpt lat="43.95833" lon="5.1269">
        <ele>509.7</ele>
        <time>2013-01-24T14:55:41.000Z</time>
      </trkpt>
      <trkpt lat="43.95836" lon="5.1269">
        <ele>509.6</ele>
        <time>2013-01-24T14:55:42.000Z</time>
      </trkpt>
      <trkpt lat="43.95839" lon="5.1269">
        <ele>509.6</ele>
        <time>2013-01-24T14:55:43.000Z</time>
      </trkpt>
      <trkpt lat="43.95842" lon="5.12691">
        <ele>509.8</ele>
        <time>2013-01-24T14:55:44.000Z</time>
      </trkpt>
      <trkpt lat="43.95845" lon="5.12692">
        <ele>509.7</ele>
        <time>2013-01-24T14:55:45.000Z</time>
      </trkpt>
      <trkpt lat="43.95849" lon="5.12692">
        <ele>509.6</ele>
        <time>2013-01-24T14:55:46.000Z</time>
      </trkpt>
      <trkpt lat="43.95852" lon="5.12692">
        <ele>509.5</ele>
        <time>2013-01-24T14:55:47.000Z</time>
      </trkpt>
      <trkpt lat="43.95855" lon="5.12692">
        <ele>509.7</ele>
        <time>2013-01-24T14:55:48.000Z</time>
      </trkpt>
      <trkpt lat="43.95858" lon="5.12692">
        <ele>509.9</ele>
        <time>2013-01-24T14:55:49.000Z</time>
      </trkpt>
      <trkpt lat="43.95861" lon="5.12692">
        <ele>509.9</ele>
        <time>2013-01-24T14:55:50.000Z</time>
      </trkpt>
      <trkpt lat="43.95864" lon="5.12691">
        <ele>510.5</ele>
        <time>2013-01-24T14:55:51.000Z</time>
      </trkpt>
      <trkpt lat="43.95867" lon="5.12691">
        <ele>510.4</ele>
        <time>2013-01-24T14:55:52.000Z</time>
      </trkpt>
      <trkpt lat="43.9587" lon="5.12692">
        <ele>510.5</ele>
        <time>2013-01-24T14:55:53.000Z</time>
      </trkpt>
      <trkpt lat="43.95873" lon="5.12692">
        <ele>510.5</ele>
        <time>2013-01-24T14:55:54.000Z</time>
      </trkpt>
      <trkpt lat="43.95876" lon="5.12692">
        <ele>510.9</ele>
        <time>2013-01-24T14:55:55.000Z</time>
      </trkpt>
      <trkpt lat="43.95878" lon="5.12693">
        <ele>511.9</ele>
        <time>2013-01-24T14:55:56.000Z</time>
      </trkpt>
      <trkpt lat="43.95881" lon="5.12693">
        <ele>511.6</ele>
        <time>2013-01-24T14:55:57.000Z</time>
      </trkpt>
      <trkpt lat="43.95885" lon="5.12693">
        <ele>511.7</ele>
        <time>2013-01-24T14:55:58.000Z</time>
      </trkpt>
      <trkpt lat="43.95888" lon="5.12693">
        <ele>511.9</ele>
        <time>2013-01-24T14:55:59.000Z</time>
      </trkpt>
      <trkpt lat="43.95891" lon="5.12694">
        <ele>511.7</ele>
        <time>2013-01-24T14:56:00.000Z</time>
      </trkpt>
      <trkpt lat="43.95894" lon="5.12694">
        <ele>511.8</ele>
        <time>2013-01-24T14:56:01.000Z</time>
      </trkpt>
      <trkpt lat="43.95897" lon="5.12694">
        <ele>511.9</ele>
        <time>2013-01-24T14:56:02.000Z</time>
      </trkpt>
      <trkpt lat="43.959" lon="5.12694">
        <ele>512</ele>
        <time>2013-01-24T14:56:03.000Z</time>
      </trkpt>
      <trkpt lat="43.95903" lon="5.12694">
        <ele>512</ele>
        <time>2013-01-24T14:56:04.000Z</time>
      </trkpt>
      <trkpt lat="43.95906" lon="5.12694">
        <ele>512.2</ele>
        <time>2013-01-24T14:56:05.000Z</time>
      </trkpt>
      <trkpt lat="43.95909" lon="5.12694">
        <ele>512.4</ele>
        <time>2013-01-24T14:56:06.000Z</time>
      </trkpt>
      <trkpt lat="43.95913" lon="5.12695">
        <ele>512.6</ele>
        <time>2013-01-24T14:56:07.000Z</time>
      </trkpt>
      <trkpt lat="43.95916" lon="5.12695">
        <ele>512.9</ele>
        <time>2013-01-24T14:56:08.000Z</time>
      </trkpt>
      <trkpt lat="43.9592" lon="5.12696">
        <ele>513.1</ele>
        <time>2013-01-24T14:56:09.000Z</time>
      </trkpt>
      <trkpt lat="43.95923" lon="5.12697">
        <ele>513.2</ele>
        <time>2013-01-24T14:56:10.000Z</time>
      </trkpt>
      <trkpt lat="43.95926" lon="5.12698">
        <ele>513</ele>
        <time>2013-01-24T14:56:11.000Z</time>
      </trkpt>
      <trkpt lat="43.9593" lon="5.12699">
        <ele>513</ele>
        <time>2013-01-24T14:56:12.000Z</time>
      </trkpt>
      <trkpt lat="43.95933" lon="5.127">
        <ele>512.8</ele>
        <time>2013-01-24T14:56:13.000Z</time>
      </trkpt>
      <trkpt lat="43.95937" lon="5.12701">
        <ele>513.1</ele>
        <time>2013-01-24T14:56:14.000Z</time>
      </trkpt>
      <trkpt lat="43.9594" lon="5.12701">
        <ele>512.9</ele>
        <time>2013-01-24T14:56:15.000Z</time>
      </trkpt>
      <trkpt lat="43.95944" lon="5.12702">
        <ele>512.6</ele>
        <time>2013-01-24T14:56:16.000Z</time>
      </trkpt>
      <trkpt lat="43.95947" lon="5.12703">
        <ele>512.7</ele>
        <time>2013-01-24T14:56:17.000Z</time>
      </trkpt>
      <trkpt lat="43.95951" lon="5.12704">
        <ele>512.5</ele>
        <time>2013-01-24T14:56:18.000Z</time>
      </trkpt>
      <trkpt lat="43.95955" lon="5.12705">
        <ele>512.6</ele>
        <time>2013-01-24T14:56:19.000Z</time>
      </trkpt>
      <trkpt lat="43.95958" lon="5.12706">
        <ele>513.9</ele>
        <time>2013-01-24T14:56:20.000Z</time>
      </trkpt>
      <trkpt lat="43.95962" lon="5.12708">
        <ele>517</ele>
        <time>2013-01-24T14:56:21.000Z</time>
      </trkpt>
      <trkpt lat="43.95967" lon="5.12709">
        <ele>516.1</ele>
        <time>2013-01-24T14:56:22.000Z</time>
      </trkpt>
      <trkpt lat="43.95971" lon="5.12711">
        <ele>516.8</ele>
        <time>2013-01-24T14:56:23.000Z</time>
      </trkpt>
      <trkpt lat="43.95976" lon="5.12713">
        <ele>517.1</ele>
        <time>2013-01-24T14:56:24.000Z</time>
      </trkpt>
      <trkpt lat="43.9598" lon="5.12714">
        <ele>517.7</ele>
        <time>2013-01-24T14:56:25.000Z</time>
      </trkpt>
      <trkpt lat="43.95984" lon="5.12716">
        <ele>518.2</ele>
        <time>2013-01-24T14:56:26.000Z</time>
      </trkpt>
      <trkpt lat="43.95988" lon="5.12718">
        <ele>520</ele>
        <time>2013-01-24T14:56:27.000Z</time>
      </trkpt>
      <trkpt lat="43.95992" lon="5.1272">
        <ele>520.2</ele>
        <time>2013-01-24T14:56:28.000Z</time>
      </trkpt>
      <trkpt lat="43.95997" lon="5.12722">
        <ele>520</ele>
        <time>2013-01-24T14:56:29.000Z</time>
      </trkpt>
      <trkpt lat="43.96002" lon="5.12723">
        <ele>519.1</ele>
        <time>2013-01-24T14:56:30.000Z</time>
      </trkpt>
      <trkpt lat="43.96007" lon="5.12728">
        <ele>517.7</ele>
        <time>2013-01-24T14:56:31.000Z</time>
      </trkpt>
      <trkpt lat="43.9601" lon="5.1273">
        <ele>517.3</ele>
        <time>2013-01-24T14:56:32.000Z</time>
      </trkpt>
      <trkpt lat="43.96014" lon="5.1273">
        <ele>516.7</ele>
        <time>2013-01-24T14:56:33.000Z</time>
      </trkpt>
      <trkpt lat="43.96018" lon="5.12738">
        <ele>513.5</ele>
        <time>2013-01-24T14:56:34.000Z</time>
      </trkpt>
      <trkpt lat="43.96023" lon="5.12742">
        <ele>513.3</ele>
        <time>2013-01-24T14:56:35.000Z</time>
      </trkpt>
      <trkpt lat="43.96027" lon="5.12747">
        <ele>511.7</ele>
        <time>2013-01-24T14:56:36.000Z</time>
      </trkpt>
      <trkpt lat="43.96032" lon="5.12752">
        <ele>510.6</ele>
        <time>2013-01-24T14:56:37.000Z</time>
      </trkpt>
      <trkpt lat="43.96037" lon="5.12756">
        <ele>509.6</ele>
        <time>2013-01-24T14:56:38.000Z</time>
      </trkpt>
      <trkpt lat="43.96043" lon="5.12758">
        <ele>509</ele>
        <time>2013-01-24T14:56:39.000Z</time>
      </trkpt>
      <trkpt lat="43.96048" lon="5.12762">
        <ele>508</ele>
        <time>2013-01-24T14:56:40.000Z</time>
      </trkpt>
      <trkpt lat="43.96049" lon="5.12762">
        <ele>509.5</ele>
        <time>2013-01-24T14:56:41.000Z</time>
      </trkpt>
      <trkpt lat="43.96053" lon="5.12765">
        <ele>507.7</ele>
        <time>2013-01-24T14:56:42.000Z</time>
      </trkpt>
      <trkpt lat="43.96057" lon="5.12767">
        <ele>506.4</ele>
        <time>2013-01-24T14:56:43.000Z</time>
      </trkpt>
      <trkpt lat="43.96062" lon="5.12769">
        <ele>506.9</ele>
        <time>2013-01-24T14:56:44.000Z</time>
      </trkpt>
      <trkpt lat="43.96067" lon="5.12772">
        <ele>506.7</ele>
        <time>2013-01-24T14:56:45.000Z</time>
      </trkpt>
      <trkpt lat="43.96072" lon="5.12774">
        <ele>507.4</ele>
        <time>2013-01-24T14:56:46.000Z</time>
      </trkpt>
      <trkpt lat="43.96076" lon="5.12776">
        <ele>506.8</ele>
        <time>2013-01-24T14:56:47.000Z</time>
      </trkpt>
      <trkpt lat="43.9608" lon="5.12779">
        <ele>507.1</ele>
        <time>2013-01-24T14:56:48.000Z</time>
      </trkpt>
      <trkpt lat="43.96082" lon="5.12781">
        <ele>507.2</ele>
        <time>2013-01-24T14:56:49.000Z</time>
      </trkpt>
      <trkpt lat="43.96085" lon="5.12783">
        <ele>507.4</ele>
        <time>2013-01-24T14:56:50.000Z</time>
      </trkpt>
      <trkpt lat="43.96088" lon="5.12785">
        <ele>508</ele>
        <time>2013-01-24T14:56:51.000Z</time>
      </trkpt>
      <trkpt lat="43.96091" lon="5.12787">
        <ele>509.1</ele>
        <time>2013-01-24T14:56:52.000Z</time>
      </trkpt>
      <trkpt lat="43.96094" lon="5.12789">
        <ele>509.9</ele>
        <time>2013-01-24T14:56:53.000Z</time>
      </trkpt>
      <trkpt lat="43.96098" lon="5.12791">
        <ele>510.1</ele>
        <time>2013-01-24T14:56:54.000Z</time>
      </trkpt>
      <trkpt lat="43.96101" lon="5.12793">
        <ele>510.2</ele>
        <time>2013-01-24T14:56:55.000Z</time>
      </trkpt>
      <trkpt lat="43.96104" lon="5.12796">
        <ele>510.7</ele>
        <time>2013-01-24T14:56:56.000Z</time>
      </trkpt>
      <trkpt lat="43.96108" lon="5.12798">
        <ele>508.7</ele>
        <time>2013-01-24T14:56:57.000Z</time>
      </trkpt>
      <trkpt lat="43.96112" lon="5.128">
        <ele>508.8</ele>
        <time>2013-01-24T14:56:58.000Z</time>
      </trkpt>
      <trkpt lat="43.96117" lon="5.12802">
        <ele>508.6</ele>
        <time>2013-01-24T14:56:59.000Z</time>
      </trkpt>
      <trkpt lat="43.96121" lon="5.12804">
        <ele>508.4</ele>
        <time>2013-01-24T14:57:00.000Z</time>
      </trkpt>
      <trkpt lat="43.96125" lon="5.12806">
        <ele>508.8</ele>
        <time>2013-01-24T14:57:01.000Z</time>
      </trkpt>
      <trkpt lat="43.96129" lon="5.12808">
        <ele>508.3</ele>
        <time>2013-01-24T14:57:02.000Z</time>
      </trkpt>
      <trkpt lat="43.96134" lon="5.1281">
        <ele>507.9</ele>
        <time>2013-01-24T14:57:03.000Z</time>
      </trkpt>
      <trkpt lat="43.96138" lon="5.12812">
        <ele>506.8</ele>
        <time>2013-01-24T14:57:04.000Z</time>
      </trkpt>
      <trkpt lat="43.96142" lon="5.12814">
        <ele>506.2</ele>
        <time>2013-01-24T14:57:05.000Z</time>
      </trkpt>
      <trkpt lat="43.96146" lon="5.12817">
        <ele>505.4</ele>
        <time>2013-01-24T14:57:06.000Z</time>
      </trkpt>
      <trkpt lat="43.96153" lon="5.12822">
        <ele>506</ele>
        <time>2013-01-24T14:57:07.000Z</time>
      </trkpt>
      <trkpt lat="43.96158" lon="5.12825">
        <ele>505.2</ele>
        <time>2013-01-24T14:57:08.000Z</time>
      </trkpt>
      <trkpt lat="43.96162" lon="5.12827">
        <ele>503.9</ele>
        <time>2013-01-24T14:57:09.000Z</time>
      </trkpt>
      <trkpt lat="43.96167" lon="5.12829">
        <ele>502.4</ele>
        <time>2013-01-24T14:57:10.000Z</time>
      </trkpt>
      <trkpt lat="43.96172" lon="5.12832">
        <ele>501.6</ele>
        <time>2013-01-24T14:57:11.000Z</time>
      </trkpt>
      <trkpt lat="43.96175" lon="5.1284">
        <ele>503.2</ele>
        <time>2013-01-24T14:57:12.000Z</time>
      </trkpt>
      <trkpt lat="43.96181" lon="5.12841">
        <ele>501.6</ele>
        <time>2013-01-24T14:57:13.000Z</time>
      </trkpt>
      <trkpt lat="43.96185" lon="5.12846">
        <ele>500.8</ele>
        <time>2013-01-24T14:57:14.000Z</time>
      </trkpt>
      <trkpt lat="43.96191" lon="5.12848">
        <ele>500.6</ele>
        <time>2013-01-24T14:57:15.000Z</time>
      </trkpt>
      <trkpt lat="43.96196" lon="5.12851">
        <ele>501.2</ele>
        <time>2013-01-24T14:57:16.000Z</time>
      </trkpt>
      <trkpt lat="43.96201" lon="5.12855">
        <ele>499.3</ele>
        <time>2013-01-24T14:57:17.000Z</time>
      </trkpt>
      <trkpt lat="43.96207" lon="5.12859">
        <ele>500.4</ele>
        <time>2013-01-24T14:57:18.000Z</time>
      </trkpt>
      <trkpt lat="43.96214" lon="5.1286">
        <ele>498.9</ele>
        <time>2013-01-24T14:57:19.000Z</time>
      </trkpt>
      <trkpt lat="43.9622" lon="5.12863">
        <ele>498.5</ele>
        <time>2013-01-24T14:57:20.000Z</time>
      </trkpt>
      <trkpt lat="43.96227" lon="5.12866">
        <ele>497.6</ele>
        <time>2013-01-24T14:57:21.000Z</time>
      </trkpt>
      <trkpt lat="43.96234" lon="5.12869">
        <ele>496</ele>
        <time>2013-01-24T14:57:22.000Z</time>
      </trkpt>
      <trkpt lat="43.96239" lon="5.12873">
        <ele>494.8</ele>
        <time>2013-01-24T14:57:23.000Z</time>
      </trkpt>
      <trkpt lat="43.96245" lon="5.12876">
        <ele>494.2</ele>
        <time>2013-01-24T14:57:24.000Z</time>
      </trkpt>
      <trkpt lat="43.96252" lon="5.12874">
        <ele>496.3</ele>
        <time>2013-01-24T14:57:25.000Z</time>
      </trkpt>
      <trkpt lat="43.96259" lon="5.12876">
        <ele>496.1</ele>
        <time>2013-01-24T14:57:26.000Z</time>
      </trkpt>
      <trkpt lat="43.96265" lon="5.12878">
        <ele>495</ele>
        <time>2013-01-24T14:57:27.000Z</time>
      </trkpt>
      <trkpt lat="43.96272" lon="5.1288">
        <ele>495.5</ele>
        <time>2013-01-24T14:57:28.000Z</time>
      </trkpt>
      <trkpt lat="43.96278" lon="5.12881">
        <ele>496</ele>
        <time>2013-01-24T14:57:29.000Z</time>
      </trkpt>
      <trkpt lat="43.96284" lon="5.12885">
        <ele>496.1</ele>
        <time>2013-01-24T14:57:30.000Z</time>
      </trkpt>
      <trkpt lat="43.96289" lon="5.12888">
        <ele>495.6</ele>
        <time>2013-01-24T14:57:31.000Z</time>
      </trkpt>
      <trkpt lat="43.96294" lon="5.12892">
        <ele>495.6</ele>
        <time>2013-01-24T14:57:32.000Z</time>
      </trkpt>
      <trkpt lat="43.96299" lon="5.12896">
        <ele>495</ele>
        <time>2013-01-24T14:57:33.000Z</time>
      </trkpt>
      <trkpt lat="43.96304" lon="5.129">
        <ele>494.9</ele>
        <time>2013-01-24T14:57:34.000Z</time>
      </trkpt>
      <trkpt lat="43.96308" lon="5.12903">
        <ele>495.3</ele>
        <time>2013-01-24T14:57:35.000Z</time>
      </trkpt>
      <trkpt lat="43.96312" lon="5.12905">
        <ele>494.5</ele>
        <time>2013-01-24T14:57:36.000Z</time>
      </trkpt>
      <trkpt lat="43.96315" lon="5.12909">
        <ele>494</ele>
        <time>2013-01-24T14:57:37.000Z</time>
      </trkpt>
      <trkpt lat="43.96318" lon="5.12912">
        <ele>493.9</ele>
        <time>2013-01-24T14:57:38.000Z</time>
      </trkpt>
      <trkpt lat="43.96321" lon="5.12915">
        <ele>493.1</ele>
        <time>2013-01-24T14:57:39.000Z</time>
      </trkpt>
      <trkpt lat="43.96323" lon="5.12915">
        <ele>492.8</ele>
        <time>2013-01-24T14:57:40.000Z</time>
      </trkpt>
      <trkpt lat="43.96327" lon="5.12916">
        <ele>492.8</ele>
        <time>2013-01-24T14:57:41.000Z</time>
      </trkpt>
      <trkpt lat="43.96329" lon="5.12917">
        <ele>492.4</ele>
        <time>2013-01-24T14:57:42.000Z</time>
      </trkpt>
      <trkpt lat="43.96332" lon="5.12918">
        <ele>491.8</ele>
        <time>2013-01-24T14:57:43.000Z</time>
      </trkpt>
      <trkpt lat="43.96335" lon="5.12918">
        <ele>491.3</ele>
        <time>2013-01-24T14:57:44.000Z</time>
      </trkpt>
      <trkpt lat="43.96338" lon="5.12918">
        <ele>490.8</ele>
        <time>2013-01-24T14:57:45.000Z</time>
      </trkpt>
      <trkpt lat="43.96341" lon="5.12919">
        <ele>490.1</ele>
        <time>2013-01-24T14:57:46.000Z</time>
      </trkpt>
      <trkpt lat="43.96343" lon="5.12919">
        <ele>489.9</ele>
        <time>2013-01-24T14:57:47.000Z</time>
      </trkpt>
      <trkpt lat="43.96345" lon="5.12921">
        <ele>489.3</ele>
        <time>2013-01-24T14:57:48.000Z</time>
      </trkpt>
      <trkpt lat="43.96348" lon="5.12922">
        <ele>488.4</ele>
        <time>2013-01-24T14:57:49.000Z</time>
      </trkpt>
      <trkpt lat="43.96351" lon="5.12923">
        <ele>488</ele>
        <time>2013-01-24T14:57:50.000Z</time>
      </trkpt>
      <trkpt lat="43.96354" lon="5.12923">
        <ele>487</ele>
        <time>2013-01-24T14:57:51.000Z</time>
      </trkpt>
      <trkpt lat="43.96357" lon="5.12923">
        <ele>486.3</ele>
        <time>2013-01-24T14:57:52.000Z</time>
      </trkpt>
      <trkpt lat="43.96359" lon="5.12924">
        <ele>485.7</ele>
        <time>2013-01-24T14:57:53.000Z</time>
      </trkpt>
      <trkpt lat="43.96362" lon="5.12924">
        <ele>485.2</ele>
        <time>2013-01-24T14:57:54.000Z</time>
      </trkpt>
      <trkpt lat="43.96365" lon="5.12926">
        <ele>484.9</ele>
        <time>2013-01-24T14:57:55.000Z</time>
      </trkpt>
      <trkpt lat="43.96367" lon="5.12926">
        <ele>484.4</ele>
        <time>2013-01-24T14:57:56.000Z</time>
      </trkpt>
      <trkpt lat="43.9637" lon="5.12928">
        <ele>483.8</ele>
        <time>2013-01-24T14:57:57.000Z</time>
      </trkpt>
      <trkpt lat="43.96372" lon="5.1293">
        <ele>483.4</ele>
        <time>2013-01-24T14:57:58.000Z</time>
      </trkpt>
      <trkpt lat="43.96374" lon="5.12934">
        <ele>482.6</ele>
        <time>2013-01-24T14:57:59.000Z</time>
      </trkpt>
      <trkpt lat="43.96377" lon="5.12936">
        <ele>482.1</ele>
        <time>2013-01-24T14:58:00.000Z</time>
      </trkpt>
      <trkpt lat="43.9638" lon="5.12936">
        <ele>481.5</ele>
        <time>2013-01-24T14:58:01.000Z</time>
      </trkpt>
      <trkpt lat="43.96384" lon="5.12935">
        <ele>480.7</ele>
        <time>2013-01-24T14:58:02.000Z</time>
      </trkpt>
      <trkpt lat="43.96388" lon="5.12935">
        <ele>479.8</ele>
        <time>2013-01-24T14:58:03.000Z</time>
      </trkpt>
      <trkpt lat="43.96392" lon="5.12935">
        <ele>478.9</ele>
        <time>2013-01-24T14:58:04.000Z</time>
      </trkpt>
      <trkpt lat="43.96397" lon="5.12936">
        <ele>478.7</ele>
        <time>2013-01-24T14:58:05.000Z</time>
      </trkpt>
      <trkpt lat="43.96401" lon="5.12937">
        <ele>478.3</ele>
        <time>2013-01-24T14:58:06.000Z</time>
      </trkpt>
      <trkpt lat="43.96406" lon="5.12938">
        <ele>477.4</ele>
        <time>2013-01-24T14:58:07.000Z</time>
      </trkpt>
      <trkpt lat="43.96411" lon="5.12936">
        <ele>479.1</ele>
        <time>2013-01-24T14:58:08.000Z</time>
      </trkpt>
      <trkpt lat="43.96415" lon="5.12935">
        <ele>478.1</ele>
        <time>2013-01-24T14:58:09.000Z</time>
      </trkpt>
      <trkpt lat="43.96418" lon="5.12933">
        <ele>477.1</ele>
        <time>2013-01-24T14:58:10.000Z</time>
      </trkpt>
      <trkpt lat="43.96422" lon="5.12932">
        <ele>476.4</ele>
        <time>2013-01-24T14:58:11.000Z</time>
      </trkpt>
      <trkpt lat="43.96425" lon="5.12933">
        <ele>475.5</ele>
        <time>2013-01-24T14:58:12.000Z</time>
      </trkpt>
      <trkpt lat="43.96428" lon="5.12934">
        <ele>474.7</ele>
        <time>2013-01-24T14:58:13.000Z</time>
      </trkpt>
      <trkpt lat="43.9643" lon="5.12936">
        <ele>474.5</ele>
        <time>2013-01-24T14:58:14.000Z</time>
      </trkpt>
      <trkpt lat="43.96431" lon="5.12941">
        <ele>474.2</ele>
        <time>2013-01-24T14:58:16.000Z</time>
      </trkpt>
      <trkpt lat="43.96431" lon="5.12944">
        <ele>474.3</ele>
        <time>2013-01-24T14:58:17.000Z</time>
      </trkpt>
      <trkpt lat="43.96429" lon="5.12947">
        <ele>474.7</ele>
        <time>2013-01-24T14:58:18.000Z</time>
      </trkpt>
      <trkpt lat="43.96429" lon="5.1295">
        <ele>474.8</ele>
        <time>2013-01-24T14:58:19.000Z</time>
      </trkpt>
      <trkpt lat="43.96427" lon="5.12953">
        <ele>472.9</ele>
        <time>2013-01-24T14:58:20.000Z</time>
      </trkpt>
      <trkpt lat="43.96424" lon="5.12957">
        <ele>471.5</ele>
        <time>2013-01-24T14:58:21.000Z</time>
      </trkpt>
      <trkpt lat="43.96423" lon="5.12961">
        <ele>470.7</ele>
        <time>2013-01-24T14:58:22.000Z</time>
      </trkpt>
      <trkpt lat="43.96421" lon="5.12965">
        <ele>470.1</ele>
        <time>2013-01-24T14:58:23.000Z</time>
      </trkpt>
      <trkpt lat="43.96419" lon="5.12968">
        <ele>469.6</ele>
        <time>2013-01-24T14:58:24.000Z</time>
      </trkpt>
      <trkpt lat="43.96415" lon="5.12972">
        <ele>470.5</ele>
        <time>2013-01-24T14:58:25.000Z</time>
      </trkpt>
      <trkpt lat="43.96413" lon="5.12975">
        <ele>470.5</ele>
        <time>2013-01-24T14:58:26.000Z</time>
      </trkpt>
      <trkpt lat="43.96411" lon="5.12979">
        <ele>469.1</ele>
        <time>2013-01-24T14:58:27.000Z</time>
      </trkpt>
      <trkpt lat="43.96409" lon="5.12983">
        <ele>468.6</ele>
        <time>2013-01-24T14:58:28.000Z</time>
      </trkpt>
      <trkpt lat="43.96407" lon="5.12985">
        <ele>468.8</ele>
        <time>2013-01-24T14:58:29.000Z</time>
      </trkpt>
      <trkpt lat="43.96405" lon="5.1299">
        <ele>468.4</ele>
        <time>2013-01-24T14:59:17.000Z</time>
      </trkpt>
      <trkpt lat="43.96405" lon="5.12991">
        <ele>468.4</ele>
        <time>2013-01-24T14:59:18.000Z</time>
      </trkpt>
      <trkpt lat="43.96405" lon="5.12995">
        <ele>467.1</ele>
        <time>2013-01-24T14:59:20.000Z</time>
      </trkpt>
      <trkpt lat="43.96405" lon="5.12997">
        <ele>466.6</ele>
        <time>2013-01-24T14:59:21.000Z</time>
      </trkpt>
      <trkpt lat="43.96404" lon="5.13001">
        <ele>468.9</ele>
        <time>2013-01-24T14:59:23.000Z</time>
      </trkpt>
      <trkpt lat="43.96404" lon="5.13004">
        <ele>468.2</ele>
        <time>2013-01-24T14:59:24.000Z</time>
      </trkpt>
      <trkpt lat="43.96403" lon="5.1301">
        <ele>467.4</ele>
        <time>2013-01-24T14:59:28.000Z</time>
      </trkpt>
      <trkpt lat="43.96402" lon="5.13012">
        <ele>467.6</ele>
        <time>2013-01-24T14:59:29.000Z</time>
      </trkpt>
      <trkpt lat="43.96403" lon="5.13015">
        <ele>466.8</ele>
        <time>2013-01-24T14:59:30.000Z</time>
      </trkpt>
      <trkpt lat="43.96404" lon="5.13018">
        <ele>466.1</ele>
        <time>2013-01-24T14:59:31.000Z</time>
      </trkpt>
      <trkpt lat="43.96406" lon="5.13021">
        <ele>465.5</ele>
        <time>2013-01-24T14:59:32.000Z</time>
      </trkpt>
      <trkpt lat="43.96408" lon="5.13024">
        <ele>465</ele>
        <time>2013-01-24T14:59:33.000Z</time>
      </trkpt>
      <trkpt lat="43.96409" lon="5.13028">
        <ele>465.1</ele>
        <time>2013-01-24T14:59:34.000Z</time>
      </trkpt>
      <trkpt lat="43.96411" lon="5.13031">
        <ele>464.8</ele>
        <time>2013-01-24T14:59:35.000Z</time>
      </trkpt>
      <trkpt lat="43.96413" lon="5.13034">
        <ele>464</ele>
        <time>2013-01-24T14:59:36.000Z</time>
      </trkpt>
      <trkpt lat="43.96415" lon="5.13036">
        <ele>463.4</ele>
        <time>2013-01-24T14:59:37.000Z</time>
      </trkpt>
      <trkpt lat="43.96418" lon="5.13038">
        <ele>463</ele>
        <time>2013-01-24T14:59:38.000Z</time>
      </trkpt>
      <trkpt lat="43.9642" lon="5.1304">
        <ele>463.3</ele>
        <time>2013-01-24T14:59:39.000Z</time>
      </trkpt>
      <trkpt lat="43.96421" lon="5.13038">
        <ele>468.3</ele>
        <time>2013-01-24T14:59:48.000Z</time>
      </trkpt>
      <trkpt lat="43.96425" lon="5.13038">
        <ele>467.6</ele>
        <time>2013-01-24T14:59:49.000Z</time>
      </trkpt>
      <trkpt lat="43.96428" lon="5.13037">
        <ele>466.6</ele>
        <time>2013-01-24T14:59:50.000Z</time>
      </trkpt>
      <trkpt lat="43.9643" lon="5.13036">
        <ele>466.1</ele>
        <time>2013-01-24T14:59:51.000Z</time>
      </trkpt>
      <trkpt lat="43.96432" lon="5.13036">
        <ele>465</ele>
        <time>2013-01-24T14:59:52.000Z</time>
      </trkpt>
      <trkpt lat="43.96435" lon="5.13038">
        <ele>466.9</ele>
        <time>2013-01-24T14:59:53.000Z</time>
      </trkpt>
      <trkpt lat="43.96438" lon="5.13037">
        <ele>467</ele>
        <time>2013-01-24T14:59:54.000Z</time>
      </trkpt>
      <trkpt lat="43.96441" lon="5.13038">
        <ele>468.2</ele>
        <time>2013-01-24T14:59:55.000Z</time>
      </trkpt>
      <trkpt lat="43.96444" lon="5.13037">
        <ele>465.4</ele>
        <time>2013-01-24T14:59:56.000Z</time>
      </trkpt>
      <trkpt lat="43.96446" lon="5.13037">
        <ele>465.2</ele>
        <time>2013-01-24T14:59:57.000Z</time>
      </trkpt>
      <trkpt lat="43.9645" lon="5.13037">
        <ele>464.9</ele>
        <time>2013-01-24T14:59:58.000Z</time>
      </trkpt>
      <trkpt lat="43.96453" lon="5.13037">
        <ele>464.3</ele>
        <time>2013-01-24T14:59:59.000Z</time>
      </trkpt>
      <trkpt lat="43.96456" lon="5.13037">
        <ele>464.1</ele>
        <time>2013-01-24T15:00:00.000Z</time>
      </trkpt>
      <trkpt lat="43.9646" lon="5.13037">
        <ele>463.7</ele>
        <time>2013-01-24T15:00:01.000Z</time>
      </trkpt>
      <trkpt lat="43.96463" lon="5.13037">
        <ele>464.6</ele>
        <time>2013-01-24T15:00:02.000Z</time>
      </trkpt>
      <trkpt lat="43.96466" lon="5.13038">
        <ele>465.1</ele>
        <time>2013-01-24T15:00:03.000Z</time>
      </trkpt>
      <trkpt lat="43.96469" lon="5.13038">
        <ele>466.1</ele>
        <time>2013-01-24T15:00:04.000Z</time>
      </trkpt>
      <trkpt lat="43.96473" lon="5.13039">
        <ele>467.4</ele>
        <time>2013-01-24T15:00:05.000Z</time>
      </trkpt>
      <trkpt lat="43.96476" lon="5.13042">
        <ele>468.8</ele>
        <time>2013-01-24T15:00:06.000Z</time>
      </trkpt>
      <trkpt lat="43.96478" lon="5.1304">
        <ele>471.8</ele>
        <time>2013-01-24T15:00:07.000Z</time>
      </trkpt>
      <trkpt lat="43.96481" lon="5.13036">
        <ele>472.8</ele>
        <time>2013-01-24T15:00:09.000Z</time>
      </trkpt>
      <trkpt lat="43.96484" lon="5.13032">
        <ele>475.9</ele>
        <time>2013-01-24T15:00:10.000Z</time>
      </trkpt>
      <trkpt lat="43.96487" lon="5.13029">
        <ele>483.5</ele>
        <time>2013-01-24T15:00:15.000Z</time>
      </trkpt>
      <trkpt lat="43.96491" lon="5.13032">
        <ele>483.4</ele>
        <time>2013-01-24T15:00:16.000Z</time>
      </trkpt>
      <trkpt lat="43.96493" lon="5.13035">
        <ele>481.1</ele>
        <time>2013-01-24T15:00:17.000Z</time>
      </trkpt>
      <trkpt lat="43.96495" lon="5.13036">
        <ele>480.3</ele>
        <time>2013-01-24T15:00:18.000Z</time>
      </trkpt>
      <trkpt lat="43.96498" lon="5.13041">
        <ele>477.8</ele>
        <time>2013-01-24T15:00:21.000Z</time>
      </trkpt>
      <trkpt lat="43.96499" lon="5.1304">
        <ele>476.6</ele>
        <time>2013-01-24T15:00:22.000Z</time>
      </trkpt>
      <trkpt lat="43.96502" lon="5.13041">
        <ele>477.5</ele>
        <time>2013-01-24T15:00:24.000Z</time>
      </trkpt>
      <trkpt lat="43.96504" lon="5.13042">
        <ele>477.7</ele>
        <time>2013-01-24T15:00:25.000Z</time>
      </trkpt>
      <trkpt lat="43.96504" lon="5.13043">
        <ele>478.2</ele>
        <time>2013-01-24T15:00:26.000Z</time>
      </trkpt>
      <trkpt lat="43.965" lon="5.13046">
        <ele>475.6</ele>
        <time>2013-01-24T15:00:27.000Z</time>
      </trkpt>
      <trkpt lat="43.965" lon="5.13051">
        <ele>470.1</ele>
        <time>2013-01-24T15:01:09.000Z</time>
      </trkpt>
      <trkpt lat="43.96502" lon="5.13053">
        <ele>468.9</ele>
        <time>2013-01-24T15:01:10.000Z</time>
      </trkpt>
      <trkpt lat="43.96503" lon="5.13049">
        <ele>465.7</ele>
        <time>2013-01-24T15:01:17.000Z</time>
      </trkpt>
      <trkpt lat="43.96506" lon="5.13047">
        <ele>465.9</ele>
        <time>2013-01-24T15:01:18.000Z</time>
      </trkpt>
      <trkpt lat="43.96504" lon="5.13043">
        <ele>465.3</ele>
        <time>2013-01-24T15:01:20.000Z</time>
      </trkpt>
      <trkpt lat="43.96504" lon="5.13039">
        <ele>462.4</ele>
        <time>2013-01-24T15:01:21.000Z</time>
      </trkpt>
      <trkpt lat="43.96507" lon="5.13035">
        <ele>462.7</ele>
        <time>2013-01-24T15:01:23.000Z</time>
      </trkpt>
      <trkpt lat="43.96507" lon="5.13034">
        <ele>462.8</ele>
        <time>2013-01-24T15:01:24.000Z</time>
      </trkpt>
      <trkpt lat="43.96506" lon="5.1303">
        <ele>463.9</ele>
        <time>2013-01-24T15:01:25.000Z</time>
      </trkpt>
      <trkpt lat="43.96505" lon="5.13026">
        <ele>466.3</ele>
        <time>2013-01-24T15:01:26.000Z</time>
      </trkpt>
      <trkpt lat="43.96506" lon="5.1303">
        <ele>467.1</ele>
        <time>2013-01-24T15:01:27.000Z</time>
      </trkpt>
      <trkpt lat="43.96508" lon="5.1303">
        <ele>467.6</ele>
        <time>2013-01-24T15:01:28.000Z</time>
      </trkpt>
      <trkpt lat="43.96511" lon="5.13032">
        <ele>469.8</ele>
        <time>2013-01-24T15:01:29.000Z</time>
      </trkpt>
      <trkpt lat="43.96514" lon="5.13032">
        <ele>469.9</ele>
        <time>2013-01-24T15:01:30.000Z</time>
      </trkpt>
      <trkpt lat="43.96516" lon="5.13032">
        <ele>469.6</ele>
        <time>2013-01-24T15:01:31.000Z</time>
      </trkpt>
      <trkpt lat="43.96519" lon="5.13033">
        <ele>468.7</ele>
        <time>2013-01-24T15:01:32.000Z</time>
      </trkpt>
      <trkpt lat="43.96522" lon="5.13033">
        <ele>468.2</ele>
        <time>2013-01-24T15:01:33.000Z</time>
      </trkpt>
      <trkpt lat="43.96525" lon="5.13033">
        <ele>467.9</ele>
        <time>2013-01-24T15:01:34.000Z</time>
      </trkpt>
      <trkpt lat="43.96528" lon="5.13034">
        <ele>467.1</ele>
        <time>2013-01-24T15:01:35.000Z</time>
      </trkpt>
      <trkpt lat="43.96531" lon="5.13034">
        <ele>466.5</ele>
        <time>2013-01-24T15:01:36.000Z</time>
      </trkpt>
      <trkpt lat="43.96534" lon="5.13034">
        <ele>466.5</ele>
        <time>2013-01-24T15:01:38.000Z</time>
      </trkpt>
      <trkpt lat="43.96536" lon="5.13034">
        <ele>466.7</ele>
        <time>2013-01-24T15:01:39.000Z</time>
      </trkpt>
      <trkpt lat="43.96539" lon="5.13035">
        <ele>466.8</ele>
        <time>2013-01-24T15:01:42.000Z</time>
      </trkpt>
      <trkpt lat="43.9654" lon="5.13036">
        <ele>467</ele>
        <time>2013-01-24T15:01:43.000Z</time>
      </trkpt>
      <trkpt lat="43.96543" lon="5.13037">
        <ele>466.9</ele>
        <time>2013-01-24T15:01:45.000Z</time>
      </trkpt>
      <trkpt lat="43.96545" lon="5.13038">
        <ele>466</ele>
        <time>2013-01-24T15:01:46.000Z</time>
      </trkpt>
      <trkpt lat="43.96549" lon="5.13038">
        <ele>464.1</ele>
        <time>2013-01-24T15:01:48.000Z</time>
      </trkpt>
      <trkpt lat="43.9655" lon="5.13039">
        <ele>462.9</ele>
        <time>2013-01-24T15:01:49.000Z</time>
      </trkpt>
      <trkpt lat="43.96554" lon="5.1304">
        <ele>460.9</ele>
        <time>2013-01-24T15:02:06.000Z</time>
      </trkpt>
      <trkpt lat="43.96555" lon="5.1304">
        <ele>461.3</ele>
        <time>2013-01-24T15:02:07.000Z</time>
      </trkpt>
      <trkpt lat="43.96558" lon="5.13041">
        <ele>460.1</ele>
        <time>2013-01-24T15:02:09.000Z</time>
      </trkpt>
      <trkpt lat="43.9656" lon="5.13041">
        <ele>459.8</ele>
        <time>2013-01-24T15:02:10.000Z</time>
      </trkpt>
      <trkpt lat="43.96564" lon="5.13042">
        <ele>459.1</ele>
        <time>2013-01-24T15:02:13.000Z</time>
      </trkpt>
      <trkpt lat="43.96566" lon="5.13042">
        <ele>458.8</ele>
        <time>2013-01-24T15:02:14.000Z</time>
      </trkpt>
      <trkpt lat="43.96567" lon="5.13036">
        <ele>456.9</ele>
        <time>2013-01-24T15:02:19.000Z</time>
      </trkpt>
      <trkpt lat="43.96567" lon="5.13035">
        <ele>456.4</ele>
        <time>2013-01-24T15:02:20.000Z</time>
      </trkpt>
      <trkpt lat="43.96565" lon="5.13033">
        <ele>452.4</ele>
        <time>2013-01-24T15:03:10.000Z</time>
      </trkpt>
      <trkpt lat="43.96563" lon="5.13034">
        <ele>452.6</ele>
        <time>2013-01-24T15:03:11.000Z</time>
      </trkpt>
      <trkpt lat="43.9656" lon="5.13037">
        <ele>453.4</ele>
        <time>2013-01-24T15:03:14.000Z</time>
      </trkpt>
      <trkpt lat="43.96558" lon="5.13037">
        <ele>453.7</ele>
        <time>2013-01-24T15:03:15.000Z</time>
      </trkpt>
      <trkpt lat="43.96556" lon="5.13036">
        <ele>454.7</ele>
        <time>2013-01-24T15:03:17.000Z</time>
      </trkpt>
      <trkpt lat="43.96555" lon="5.13032">
        <ele>457.2</ele>
        <time>2013-01-24T15:03:18.000Z</time>
      </trkpt>
      <trkpt lat="43.96552" lon="5.13036">
        <ele>458.2</ele>
        <time>2013-01-24T15:03:22.000Z</time>
      </trkpt>
      <trkpt lat="43.9655" lon="5.13035">
        <ele>458.9</ele>
        <time>2013-01-24T15:03:23.000Z</time>
      </trkpt>
      <trkpt lat="43.96547" lon="5.13034">
        <ele>458.4</ele>
        <time>2013-01-24T15:03:25.000Z</time>
      </trkpt>
      <trkpt lat="43.96546" lon="5.13032">
        <ele>460.4</ele>
        <time>2013-01-24T15:03:26.000Z</time>
      </trkpt>
      <trkpt lat="43.96542" lon="5.13032">
        <ele>459.2</ele>
        <time>2013-01-24T15:03:28.000Z</time>
      </trkpt>
      <trkpt lat="43.96541" lon="5.13033">
        <ele>458.1</ele>
        <time>2013-01-24T15:03:29.000Z</time>
      </trkpt>
      <trkpt lat="43.96537" lon="5.13034">
        <ele>456.7</ele>
        <time>2013-01-24T15:03:31.000Z</time>
      </trkpt>
      <trkpt lat="43.96535" lon="5.1303">
        <ele>460.4</ele>
        <time>2013-01-24T15:03:32.000Z</time>
      </trkpt>
      <trkpt lat="43.96533" lon="5.1303">
        <ele>460.4</ele>
        <time>2013-01-24T15:03:33.000Z</time>
      </trkpt>
      <trkpt lat="43.96531" lon="5.1303">
        <ele>460.2</ele>
        <time>2013-01-24T15:03:34.000Z</time>
      </trkpt>
      <trkpt lat="43.96526" lon="5.13029">
        <ele>461.8</ele>
        <time>2013-01-24T15:03:36.000Z</time>
      </trkpt>
      <trkpt lat="43.96525" lon="5.13029">
        <ele>458.9</ele>
        <time>2013-01-24T15:03:37.000Z</time>
      </trkpt>
      <trkpt lat="43.96521" lon="5.13029">
        <ele>458.6</ele>
        <time>2013-01-24T15:03:39.000Z</time>
      </trkpt>
      <trkpt lat="43.96519" lon="5.13029">
        <ele>458.6</ele>
        <time>2013-01-24T15:03:40.000Z</time>
      </trkpt>
      <trkpt lat="43.96516" lon="5.13029">
        <ele>459.1</ele>
        <time>2013-01-24T15:03:41.000Z</time>
      </trkpt>
      <trkpt lat="43.96514" lon="5.13029">
        <ele>459.9</ele>
        <time>2013-01-24T15:03:42.000Z</time>
      </trkpt>
      <trkpt lat="43.96512" lon="5.13029">
        <ele>459.3</ele>
        <time>2013-01-24T15:03:43.000Z</time>
      </trkpt>
      <trkpt lat="43.96509" lon="5.1303">
        <ele>459.8</ele>
        <time>2013-01-24T15:03:44.000Z</time>
      </trkpt>
      <trkpt lat="43.96507" lon="5.13031">
        <ele>459.9</ele>
        <time>2013-01-24T15:03:45.000Z</time>
      </trkpt>
      <trkpt lat="43.96505" lon="5.13033">
        <ele>459.5</ele>
        <time>2013-01-24T15:03:46.000Z</time>
      </trkpt>
      <trkpt lat="43.96503" lon="5.13034">
        <ele>460</ele>
        <time>2013-01-24T15:03:47.000Z</time>
      </trkpt>
      <trkpt lat="43.96501" lon="5.13035">
        <ele>459.9</ele>
        <time>2013-01-24T15:03:48.000Z</time>
      </trkpt>
      <trkpt lat="43.96498" lon="5.13035">
        <ele>460.2</ele>
        <time>2013-01-24T15:03:49.000Z</time>
      </trkpt>
      <trkpt lat="43.96496" lon="5.13035">
        <ele>459.9</ele>
        <time>2013-01-24T15:03:50.000Z</time>
      </trkpt>
      <trkpt lat="43.96493" lon="5.13035">
        <ele>460</ele>
        <time>2013-01-24T15:03:51.000Z</time>
      </trkpt>
      <trkpt lat="43.96491" lon="5.13035">
        <ele>459</ele>
        <time>2013-01-24T15:03:52.000Z</time>
      </trkpt>
      <trkpt lat="43.96489" lon="5.13036">
        <ele>457.9</ele>
        <time>2013-01-24T15:03:53.000Z</time>
      </trkpt>
      <trkpt lat="43.96486" lon="5.13036">
        <ele>457</ele>
        <time>2013-01-24T15:03:54.000Z</time>
      </trkpt>
      <trkpt lat="43.96482" lon="5.13035">
        <ele>459.7</ele>
        <time>2013-01-24T15:03:56.000Z</time>
      </trkpt>
      <trkpt lat="43.96479" lon="5.13035">
        <ele>459.6</ele>
        <time>2013-01-24T15:03:57.000Z</time>
      </trkpt>
      <trkpt lat="43.96477" lon="5.13035">
        <ele>459.7</ele>
        <time>2013-01-24T15:03:58.000Z</time>
      </trkpt>
      <trkpt lat="43.96475" lon="5.13035">
        <ele>459.7</ele>
        <time>2013-01-24T15:03:59.000Z</time>
      </trkpt>
      <trkpt lat="43.96471" lon="5.13035">
        <ele>461.8</ele>
        <time>2013-01-24T15:04:01.000Z</time>
      </trkpt>
      <trkpt lat="43.96469" lon="5.13036">
        <ele>461.6</ele>
        <time>2013-01-24T15:04:02.000Z</time>
      </trkpt>
      <trkpt lat="43.96467" lon="5.13035">
        <ele>462.8</ele>
        <time>2013-01-24T15:04:03.000Z</time>
      </trkpt>
      <trkpt lat="43.96465" lon="5.13034">
        <ele>462.7</ele>
        <time>2013-01-24T15:04:04.000Z</time>
      </trkpt>
      <trkpt lat="43.96461" lon="5.13034">
        <ele>462.8</ele>
        <time>2013-01-24T15:04:06.000Z</time>
      </trkpt>
      <trkpt lat="43.96458" lon="5.13034">
        <ele>462.5</ele>
        <time>2013-01-24T15:04:07.000Z</time>
      </trkpt>
      <trkpt lat="43.96455" lon="5.13034">
        <ele>462.3</ele>
        <time>2013-01-24T15:04:08.000Z</time>
      </trkpt>
      <trkpt lat="43.96453" lon="5.13034">
        <ele>461.6</ele>
        <time>2013-01-24T15:04:09.000Z</time>
      </trkpt>
      <trkpt lat="43.96451" lon="5.13034">
        <ele>461.2</ele>
        <time>2013-01-24T15:04:10.000Z</time>
      </trkpt>
      <trkpt lat="43.96448" lon="5.13033">
        <ele>461.1</ele>
        <time>2013-01-24T15:04:11.000Z</time>
      </trkpt>
      <trkpt lat="43.96446" lon="5.13033">
        <ele>461.3</ele>
        <time>2013-01-24T15:04:12.000Z</time>
      </trkpt>
      <trkpt lat="43.96443" lon="5.13033">
        <ele>461</ele>
        <time>2013-01-24T15:04:13.000Z</time>
      </trkpt>
      <trkpt lat="43.96441" lon="5.13033">
        <ele>461.2</ele>
        <time>2013-01-24T15:04:14.000Z</time>
      </trkpt>
      <trkpt lat="43.96438" lon="5.13032">
        <ele>461.3</ele>
        <time>2013-01-24T15:04:15.000Z</time>
      </trkpt>
      <trkpt lat="43.96434" lon="5.13031">
        <ele>461.4</ele>
        <time>2013-01-24T15:04:17.000Z</time>
      </trkpt>
      <trkpt lat="43.96433" lon="5.13029">
        <ele>462</ele>
        <time>2013-01-24T15:04:18.000Z</time>
      </trkpt>
      <trkpt lat="43.9643" lon="5.13024">
        <ele>464.2</ele>
        <time>2013-01-24T15:04:19.000Z</time>
      </trkpt>
      <trkpt lat="43.96427" lon="5.13019">
        <ele>464.5</ele>
        <time>2013-01-24T15:04:20.000Z</time>
      </trkpt>
      <trkpt lat="43.96425" lon="5.13025">
        <ele>467.2</ele>
        <time>2013-01-24T15:04:21.000Z</time>
      </trkpt>
      <trkpt lat="43.96421" lon="5.13026">
        <ele>468.3</ele>
        <time>2013-01-24T15:04:22.000Z</time>
      </trkpt>
      <trkpt lat="43.96419" lon="5.13028">
        <ele>469</ele>
        <time>2013-01-24T15:04:23.000Z</time>
      </trkpt>
      <trkpt lat="43.96415" lon="5.13029">
        <ele>468.7</ele>
        <time>2013-01-24T15:04:25.000Z</time>
      </trkpt>
      <trkpt lat="43.96414" lon="5.13028">
        <ele>468.4</ele>
        <time>2013-01-24T15:04:26.000Z</time>
      </trkpt>
      <trkpt lat="43.96411" lon="5.13024">
        <ele>467.9</ele>
        <time>2013-01-24T15:04:28.000Z</time>
      </trkpt>
      <trkpt lat="43.96411" lon="5.13023">
        <ele>467.5</ele>
        <time>2013-01-24T15:04:29.000Z</time>
      </trkpt>
      <trkpt lat="43.96409" lon="5.13018">
        <ele>467.3</ele>
        <time>2013-01-24T15:04:31.000Z</time>
      </trkpt>
      <trkpt lat="43.96408" lon="5.13016">
        <ele>466.8</ele>
        <time>2013-01-24T15:04:32.000Z</time>
      </trkpt>
      <trkpt lat="43.96405" lon="5.13012">
        <ele>466.3</ele>
        <time>2013-01-24T15:04:34.000Z</time>
      </trkpt>
      <trkpt lat="43.96405" lon="5.1301">
        <ele>466.4</ele>
        <time>2013-01-24T15:04:35.000Z</time>
      </trkpt>
      <trkpt lat="43.96406" lon="5.13004">
        <ele>466.4</ele>
        <time>2013-01-24T15:04:37.000Z</time>
      </trkpt>
      <trkpt lat="43.96406" lon="5.13001">
        <ele>466.2</ele>
        <time>2013-01-24T15:04:38.000Z</time>
      </trkpt>
      <trkpt lat="43.96406" lon="5.12998">
        <ele>466.3</ele>
        <time>2013-01-24T15:04:39.000Z</time>
      </trkpt>
      <trkpt lat="43.96406" lon="5.12995">
        <ele>466.4</ele>
        <time>2013-01-24T15:04:40.000Z</time>
      </trkpt>
      <trkpt lat="43.96407" lon="5.1299">
        <ele>466.3</ele>
        <time>2013-01-24T15:04:42.000Z</time>
      </trkpt>
      <trkpt lat="43.96408" lon="5.12988">
        <ele>466.1</ele>
        <time>2013-01-24T15:04:43.000Z</time>
      </trkpt>
      <trkpt lat="43.9641" lon="5.12984">
        <ele>465.8</ele>
        <time>2013-01-24T15:04:45.000Z</time>
      </trkpt>
      <trkpt lat="43.96411" lon="5.12982">
        <ele>465.7</ele>
        <time>2013-01-24T15:04:46.000Z</time>
      </trkpt>
      <trkpt lat="43.96414" lon="5.12978">
        <ele>465.7</ele>
        <time>2013-01-24T15:05:08.000Z</time>
      </trkpt>
      <trkpt lat="43.96415" lon="5.12976">
        <ele>465.7</ele>
        <time>2013-01-24T15:05:09.000Z</time>
      </trkpt>
      <trkpt lat="43.96416" lon="5.12971">
        <ele>465.8</ele>
        <time>2013-01-24T15:05:12.000Z</time>
      </trkpt>
      <trkpt lat="43.96418" lon="5.1297">
        <ele>467.9</ele>
        <time>2013-01-24T15:05:13.000Z</time>
      </trkpt>
      <trkpt lat="43.96421" lon="5.12967">
        <ele>467.6</ele>
        <time>2013-01-24T15:05:15.000Z</time>
      </trkpt>
      <trkpt lat="43.96422" lon="5.12966">
        <ele>467.6</ele>
        <time>2013-01-24T15:05:16.000Z</time>
      </trkpt>
      <trkpt lat="43.96425" lon="5.12964">
        <ele>467.3</ele>
        <time>2013-01-24T15:05:18.000Z</time>
      </trkpt>
      <trkpt lat="43.96427" lon="5.12963">
        <ele>466.9</ele>
        <time>2013-01-24T15:05:19.000Z</time>
      </trkpt>
      <trkpt lat="43.96431" lon="5.1296">
        <ele>465.8</ele>
        <time>2013-01-24T15:05:21.000Z</time>
      </trkpt>
      <trkpt lat="43.96432" lon="5.12959">
        <ele>465.5</ele>
        <time>2013-01-24T15:05:22.000Z</time>
      </trkpt>
      <trkpt lat="43.96434" lon="5.12958">
        <ele>465.6</ele>
        <time>2013-01-24T15:05:23.000Z</time>
      </trkpt>
      <trkpt lat="43.96437" lon="5.12957">
        <ele>466.5</ele>
        <time>2013-01-24T15:05:24.000Z</time>
      </trkpt>
      <trkpt lat="43.9644" lon="5.12954">
        <ele>466</ele>
        <time>2013-01-24T15:05:25.000Z</time>
      </trkpt>
      <trkpt lat="43.96442" lon="5.12951">
        <ele>466</ele>
        <time>2013-01-24T15:05:26.000Z</time>
      </trkpt>
      <trkpt lat="43.96444" lon="5.12949">
        <ele>466.3</ele>
        <time>2013-01-24T15:05:27.000Z</time>
      </trkpt>
      <trkpt lat="43.96447" lon="5.12946">
        <ele>466.2</ele>
        <time>2013-01-24T15:05:28.000Z</time>
      </trkpt>
      <trkpt lat="43.96449" lon="5.12943">
        <ele>466.2</ele>
        <time>2013-01-24T15:05:29.000Z</time>
      </trkpt>
      <trkpt lat="43.96451" lon="5.1294">
        <ele>466.2</ele>
        <time>2013-01-24T15:05:30.000Z</time>
      </trkpt>
      <trkpt lat="43.96451" lon="5.12934">
        <ele>465.9</ele>
        <time>2013-01-24T15:05:32.000Z</time>
      </trkpt>
      <trkpt lat="43.96452" lon="5.1293">
        <ele>465.5</ele>
        <time>2013-01-24T15:05:33.000Z</time>
      </trkpt>
      <trkpt lat="43.96453" lon="5.12927">
        <ele>465.5</ele>
        <time>2013-01-24T15:05:34.000Z</time>
      </trkpt>
      <trkpt lat="43.96454" lon="5.12924">
        <ele>465.7</ele>
        <time>2013-01-24T15:05:35.000Z</time>
      </trkpt>
      <trkpt lat="43.96454" lon="5.1292">
        <ele>466.1</ele>
        <time>2013-01-24T15:05:36.000Z</time>
      </trkpt>
      <trkpt lat="43.96455" lon="5.12917">
        <ele>466.2</ele>
        <time>2013-01-24T15:05:37.000Z</time>
      </trkpt>
      <trkpt lat="43.96456" lon="5.12914">
        <ele>466.3</ele>
        <time>2013-01-24T15:05:38.000Z</time>
      </trkpt>
      <trkpt lat="43.96457" lon="5.1291">
        <ele>466.3</ele>
        <time>2013-01-24T15:05:39.000Z</time>
      </trkpt>
      <trkpt lat="43.96458" lon="5.12906">
        <ele>466.5</ele>
        <time>2013-01-24T15:05:40.000Z</time>
      </trkpt>
      <trkpt lat="43.96459" lon="5.12901">
        <ele>466.7</ele>
        <time>2013-01-24T15:05:41.000Z</time>
      </trkpt>
      <trkpt lat="43.96459" lon="5.12896">
        <ele>466.8</ele>
        <time>2013-01-24T15:05:42.000Z</time>
      </trkpt>
      <trkpt lat="43.9646" lon="5.12891">
        <ele>466.3</ele>
        <time>2013-01-24T15:05:43.000Z</time>
      </trkpt>
      <trkpt lat="43.9646" lon="5.12887">
        <ele>466.3</ele>
        <time>2013-01-24T15:05:44.000Z</time>
      </trkpt>
      <trkpt lat="43.96461" lon="5.12882">
        <ele>466.2</ele>
        <time>2013-01-24T15:05:45.000Z</time>
      </trkpt>
      <trkpt lat="43.96461" lon="5.12878">
        <ele>466.1</ele>
        <time>2013-01-24T15:05:46.000Z</time>
      </trkpt>
      <trkpt lat="43.96458" lon="5.12873">
        <ele>466.4</ele>
        <time>2013-01-24T15:05:47.000Z</time>
      </trkpt>
      <trkpt lat="43.96457" lon="5.12869">
        <ele>466.3</ele>
        <time>2013-01-24T15:05:48.000Z</time>
      </trkpt>
      <trkpt lat="43.96456" lon="5.12864">
        <ele>466</ele>
        <time>2013-01-24T15:05:49.000Z</time>
      </trkpt>
      <trkpt lat="43.96455" lon="5.12859">
        <ele>466.3</ele>
        <time>2013-01-24T15:05:50.000Z</time>
      </trkpt>
      <trkpt lat="43.96453" lon="5.12855">
        <ele>466.7</ele>
        <time>2013-01-24T15:05:51.000Z</time>
      </trkpt>
      <trkpt lat="43.96452" lon="5.12851">
        <ele>466.4</ele>
        <time>2013-01-24T15:05:52.000Z</time>
      </trkpt>
      <trkpt lat="43.96451" lon="5.12848">
        <ele>466.6</ele>
        <time>2013-01-24T15:05:53.000Z</time>
      </trkpt>
      <trkpt lat="43.96449" lon="5.12844">
        <ele>466.7</ele>
        <time>2013-01-24T15:05:54.000Z</time>
      </trkpt>
      <trkpt lat="43.96448" lon="5.1284">
        <ele>466.8</ele>
        <time>2013-01-24T15:05:55.000Z</time>
      </trkpt>
      <trkpt lat="43.96446" lon="5.12837">
        <ele>466.6</ele>
        <time>2013-01-24T15:05:56.000Z</time>
      </trkpt>
      <trkpt lat="43.96443" lon="5.12834">
        <ele>466.5</ele>
        <time>2013-01-24T15:05:57.000Z</time>
      </trkpt>
      <trkpt lat="43.96439" lon="5.12834">
        <ele>467</ele>
        <time>2013-01-24T15:05:58.000Z</time>
      </trkpt>
      <trkpt lat="43.96437" lon="5.12832">
        <ele>467.5</ele>
        <time>2013-01-24T15:05:59.000Z</time>
      </trkpt>
      <trkpt lat="43.96435" lon="5.1283">
        <ele>467.5</ele>
        <time>2013-01-24T15:06:00.000Z</time>
      </trkpt>
      <trkpt lat="43.96434" lon="5.12827">
        <ele>467.5</ele>
        <time>2013-01-24T15:06:01.000Z</time>
      </trkpt>
      <trkpt lat="43.96432" lon="5.12825">
        <ele>467.9</ele>
        <time>2013-01-24T15:06:02.000Z</time>
      </trkpt>
      <trkpt lat="43.9643" lon="5.12823">
        <ele>468.1</ele>
        <time>2013-01-24T15:06:03.000Z</time>
      </trkpt>
      <trkpt lat="43.96427" lon="5.12821">
        <ele>468.2</ele>
        <time>2013-01-24T15:06:04.000Z</time>
      </trkpt>
      <trkpt lat="43.96425" lon="5.1282">
        <ele>468.2</ele>
        <time>2013-01-24T15:06:05.000Z</time>
      </trkpt>
      <trkpt lat="43.96422" lon="5.12818">
        <ele>468</ele>
        <time>2013-01-24T15:06:06.000Z</time>
      </trkpt>
      <trkpt lat="43.96419" lon="5.12817">
        <ele>468.3</ele>
        <time>2013-01-24T15:06:07.000Z</time>
      </trkpt>
      <trkpt lat="43.96417" lon="5.12813">
        <ele>467.7</ele>
        <time>2013-01-24T15:06:09.000Z</time>
      </trkpt>
      <trkpt lat="43.96415" lon="5.12809">
        <ele>467.9</ele>
        <time>2013-01-24T15:06:10.000Z</time>
      </trkpt>
      <trkpt lat="43.96413" lon="5.12806">
        <ele>468.1</ele>
        <time>2013-01-24T15:06:11.000Z</time>
      </trkpt>
      <trkpt lat="43.96411" lon="5.12803">
        <ele>467.6</ele>
        <time>2013-01-24T15:06:12.000Z</time>
      </trkpt>
      <trkpt lat="43.96408" lon="5.12799">
        <ele>467.2</ele>
        <time>2013-01-24T15:06:13.000Z</time>
      </trkpt>
      <trkpt lat="43.96405" lon="5.12795">
        <ele>466.9</ele>
        <time>2013-01-24T15:06:14.000Z</time>
      </trkpt>
      <trkpt lat="43.96402" lon="5.12791">
        <ele>467</ele>
        <time>2013-01-24T15:06:15.000Z</time>
      </trkpt>
      <trkpt lat="43.96399" lon="5.12788">
        <ele>466.6</ele>
        <time>2013-01-24T15:06:16.000Z</time>
      </trkpt>
      <trkpt lat="43.96396" lon="5.12786">
        <ele>466.4</ele>
        <time>2013-01-24T15:06:17.000Z</time>
      </trkpt>
      <trkpt lat="43.96393" lon="5.12787">
        <ele>464.1</ele>
        <time>2013-01-24T15:06:18.000Z</time>
      </trkpt>
      <trkpt lat="43.9639" lon="5.12785">
        <ele>464.4</ele>
        <time>2013-01-24T15:06:19.000Z</time>
      </trkpt>
      <trkpt lat="43.96387" lon="5.12783">
        <ele>464.6</ele>
        <time>2013-01-24T15:06:20.000Z</time>
      </trkpt>
      <trkpt lat="43.96384" lon="5.12783">
        <ele>465</ele>
        <time>2013-01-24T15:06:21.000Z</time>
      </trkpt>
      <trkpt lat="43.96381" lon="5.12783">
        <ele>464.7</ele>
        <time>2013-01-24T15:06:22.000Z</time>
      </trkpt>
      <trkpt lat="43.96379" lon="5.12782">
        <ele>464.2</ele>
        <time>2013-01-24T15:06:23.000Z</time>
      </trkpt>
      <trkpt lat="43.96377" lon="5.12781">
        <ele>462.7</ele>
        <time>2013-01-24T15:06:24.000Z</time>
      </trkpt>
      <trkpt lat="43.96374" lon="5.12781">
        <ele>461.6</ele>
        <time>2013-01-24T15:06:25.000Z</time>
      </trkpt>
      <trkpt lat="43.96372" lon="5.12781">
        <ele>459.9</ele>
        <time>2013-01-24T15:06:26.000Z</time>
      </trkpt>
      <trkpt lat="43.96369" lon="5.12779">
        <ele>458</ele>
        <time>2013-01-24T15:06:27.000Z</time>
      </trkpt>
      <trkpt lat="43.96367" lon="5.12777">
        <ele>457.6</ele>
        <time>2013-01-24T15:06:28.000Z</time>
      </trkpt>
      <trkpt lat="43.96364" lon="5.12774">
        <ele>457</ele>
        <time>2013-01-24T15:06:29.000Z</time>
      </trkpt>
      <trkpt lat="43.96361" lon="5.12772">
        <ele>457.1</ele>
        <time>2013-01-24T15:06:30.000Z</time>
      </trkpt>
      <trkpt lat="43.96358" lon="5.1277">
        <ele>456.6</ele>
        <time>2013-01-24T15:06:31.000Z</time>
      </trkpt>
      <trkpt lat="43.96356" lon="5.12769">
        <ele>457.1</ele>
        <time>2013-01-24T15:06:32.000Z</time>
      </trkpt>
      <trkpt lat="43.96353" lon="5.12768">
        <ele>457.8</ele>
        <time>2013-01-24T15:06:33.000Z</time>
      </trkpt>
      <trkpt lat="43.9635" lon="5.12767">
        <ele>457.7</ele>
        <time>2013-01-24T15:06:34.000Z</time>
      </trkpt>
      <trkpt lat="43.96348" lon="5.12765">
        <ele>457.7</ele>
        <time>2013-01-24T15:06:35.000Z</time>
      </trkpt>
      <trkpt lat="43.96345" lon="5.12764">
        <ele>458.1</ele>
        <time>2013-01-24T15:06:36.000Z</time>
      </trkpt>
      <trkpt lat="43.96342" lon="5.12762">
        <ele>457.8</ele>
        <time>2013-01-24T15:06:37.000Z</time>
      </trkpt>
      <trkpt lat="43.96339" lon="5.12762">
        <ele>458</ele>
        <time>2013-01-24T15:06:38.000Z</time>
      </trkpt>
      <trkpt lat="43.96337" lon="5.12762">
        <ele>458.3</ele>
        <time>2013-01-24T15:06:39.000Z</time>
      </trkpt>
      <trkpt lat="43.96335" lon="5.12763">
        <ele>458.4</ele>
        <time>2013-01-24T15:06:40.000Z</time>
      </trkpt>
      <trkpt lat="43.96332" lon="5.12763">
        <ele>457.9</ele>
        <time>2013-01-24T15:06:41.000Z</time>
      </trkpt>
      <trkpt lat="43.9633" lon="5.12764">
        <ele>458.1</ele>
        <time>2013-01-24T15:06:42.000Z</time>
      </trkpt>
      <trkpt lat="43.96326" lon="5.12763">
        <ele>459.6</ele>
        <time>2013-01-24T15:06:45.000Z</time>
      </trkpt>
      <trkpt lat="43.96323" lon="5.12762">
        <ele>459.9</ele>
        <time>2013-01-24T15:06:46.000Z</time>
      </trkpt>
      <trkpt lat="43.96319" lon="5.12758">
        <ele>458.3</ele>
        <time>2013-01-24T15:06:47.000Z</time>
      </trkpt>
      <trkpt lat="43.96316" lon="5.12756">
        <ele>458.4</ele>
        <time>2013-01-24T15:06:48.000Z</time>
      </trkpt>
      <trkpt lat="43.96314" lon="5.12755">
        <ele>458</ele>
        <time>2013-01-24T15:06:49.000Z</time>
      </trkpt>
      <trkpt lat="43.96311" lon="5.12755">
        <ele>458.1</ele>
        <time>2013-01-24T15:06:50.000Z</time>
      </trkpt>
      <trkpt lat="43.96309" lon="5.12754">
        <ele>458.5</ele>
        <time>2013-01-24T15:06:51.000Z</time>
      </trkpt>
      <trkpt lat="43.96306" lon="5.12754">
        <ele>458.9</ele>
        <time>2013-01-24T15:06:52.000Z</time>
      </trkpt>
      <trkpt lat="43.96304" lon="5.12753">
        <ele>459</ele>
        <time>2013-01-24T15:06:53.000Z</time>
      </trkpt>
      <trkpt lat="43.963" lon="5.12756">
        <ele>460.1</ele>
        <time>2013-01-24T15:06:57.000Z</time>
      </trkpt>
      <trkpt lat="43.96298" lon="5.12756">
        <ele>459.7</ele>
        <time>2013-01-24T15:06:58.000Z</time>
      </trkpt>
      <trkpt lat="43.96295" lon="5.12756">
        <ele>460</ele>
        <time>2013-01-24T15:06:59.000Z</time>
      </trkpt>
      <trkpt lat="43.96293" lon="5.12755">
        <ele>460.8</ele>
        <time>2013-01-24T15:07:00.000Z</time>
      </trkpt>
      <trkpt lat="43.96291" lon="5.12754">
        <ele>460.9</ele>
        <time>2013-01-24T15:07:01.000Z</time>
      </trkpt>
      <trkpt lat="43.96288" lon="5.12754">
        <ele>461.2</ele>
        <time>2013-01-24T15:07:02.000Z</time>
      </trkpt>
      <trkpt lat="43.96286" lon="5.12755">
        <ele>461.3</ele>
        <time>2013-01-24T15:07:03.000Z</time>
      </trkpt>
      <trkpt lat="43.96284" lon="5.12756">
        <ele>461.4</ele>
        <time>2013-01-24T15:07:04.000Z</time>
      </trkpt>
      <trkpt lat="43.9628" lon="5.12756">
        <ele>461.4</ele>
        <time>2013-01-24T15:07:06.000Z</time>
      </trkpt>
      <trkpt lat="43.96279" lon="5.12754">
        <ele>462</ele>
        <time>2013-01-24T15:07:07.000Z</time>
      </trkpt>
      <trkpt lat="43.96277" lon="5.12753">
        <ele>461.8</ele>
        <time>2013-01-24T15:07:08.000Z</time>
      </trkpt>
      <trkpt lat="43.96274" lon="5.12752">
        <ele>461.6</ele>
        <time>2013-01-24T15:07:09.000Z</time>
      </trkpt>
      <trkpt lat="43.9627" lon="5.12752">
        <ele>461.9</ele>
        <time>2013-01-24T15:07:11.000Z</time>
      </trkpt>
      <trkpt lat="43.96268" lon="5.12751">
        <ele>461.3</ele>
        <time>2013-01-24T15:07:12.000Z</time>
      </trkpt>
      <trkpt lat="43.96265" lon="5.12748">
        <ele>461</ele>
        <time>2013-01-24T15:07:13.000Z</time>
      </trkpt>
      <trkpt lat="43.96263" lon="5.12745">
        <ele>460.7</ele>
        <time>2013-01-24T15:07:14.000Z</time>
      </trkpt>
      <trkpt lat="43.96261" lon="5.12743">
        <ele>460.3</ele>
        <time>2013-01-24T15:07:15.000Z</time>
      </trkpt>
      <trkpt lat="43.96258" lon="5.12742">
        <ele>460.7</ele>
        <time>2013-01-24T15:07:16.000Z</time>
      </trkpt>
      <trkpt lat="43.96256" lon="5.1274">
        <ele>460.8</ele>
        <time>2013-01-24T15:07:17.000Z</time>
      </trkpt>
      <trkpt lat="43.96253" lon="5.12738">
        <ele>460.7</ele>
        <time>2013-01-24T15:07:18.000Z</time>
      </trkpt>
      <trkpt lat="43.96251" lon="5.12736">
        <ele>460.9</ele>
        <time>2013-01-24T15:07:19.000Z</time>
      </trkpt>
      <trkpt lat="43.96248" lon="5.12737">
        <ele>461.2</ele>
        <time>2013-01-24T15:07:20.000Z</time>
      </trkpt>
      <trkpt lat="43.96246" lon="5.12736">
        <ele>462</ele>
        <time>2013-01-24T15:07:21.000Z</time>
      </trkpt>
      <trkpt lat="43.96244" lon="5.12734">
        <ele>461.2</ele>
        <time>2013-01-24T15:07:22.000Z</time>
      </trkpt>
      <trkpt lat="43.96241" lon="5.12731">
        <ele>460.6</ele>
        <time>2013-01-24T15:07:23.000Z</time>
      </trkpt>
      <trkpt lat="43.96238" lon="5.12729">
        <ele>460.2</ele>
        <time>2013-01-24T15:07:24.000Z</time>
      </trkpt>
      <trkpt lat="43.96234" lon="5.12727">
        <ele>460</ele>
        <time>2013-01-24T15:07:25.000Z</time>
      </trkpt>
      <trkpt lat="43.96231" lon="5.12725">
        <ele>459.1</ele>
        <time>2013-01-24T15:07:26.000Z</time>
      </trkpt>
      <trkpt lat="43.96226" lon="5.12723">
        <ele>460.9</ele>
        <time>2013-01-24T15:07:27.000Z</time>
      </trkpt>
      <trkpt lat="43.96223" lon="5.12722">
        <ele>461.3</ele>
        <time>2013-01-24T15:07:28.000Z</time>
      </trkpt>
      <trkpt lat="43.9622" lon="5.12719">
        <ele>461.6</ele>
        <time>2013-01-24T15:07:29.000Z</time>
      </trkpt>
      <trkpt lat="43.96216" lon="5.12715">
        <ele>461.4</ele>
        <time>2013-01-24T15:07:30.000Z</time>
      </trkpt>
      <trkpt lat="43.96213" lon="5.12711">
        <ele>461.7</ele>
        <time>2013-01-24T15:07:31.000Z</time>
      </trkpt>
      <trkpt lat="43.9621" lon="5.12708">
        <ele>462</ele>
        <time>2013-01-24T15:07:32.000Z</time>
      </trkpt>
      <trkpt lat="43.96207" lon="5.12705">
        <ele>462.4</ele>
        <time>2013-01-24T15:07:33.000Z</time>
      </trkpt>
      <trkpt lat="43.96208" lon="5.12699">
        <ele>462.3</ele>
        <time>2013-01-24T15:07:35.000Z</time>
      </trkpt>
      <trkpt lat="43.9621" lon="5.12697">
        <ele>462</ele>
        <time>2013-01-24T15:07:36.000Z</time>
      </trkpt>
      <trkpt lat="43.96218" lon="5.12698">
        <ele>461.5</ele>
        <time>2013-01-24T15:07:37.000Z</time>
      </trkpt>
      <trkpt lat="43.96221" lon="5.12697">
        <ele>461.3</ele>
        <time>2013-01-24T15:07:38.000Z</time>
      </trkpt>
      <trkpt lat="43.96222" lon="5.12695">
        <ele>460.8</ele>
        <time>2013-01-24T15:07:39.000Z</time>
      </trkpt>
      <trkpt lat="43.96224" lon="5.12692">
        <ele>459.9</ele>
        <time>2013-01-24T15:07:40.000Z</time>
      </trkpt>
      <trkpt lat="43.96226" lon="5.12688">
        <ele>459.3</ele>
        <time>2013-01-24T15:07:41.000Z</time>
      </trkpt>
      <trkpt lat="43.96227" lon="5.12685">
        <ele>458.7</ele>
        <time>2013-01-24T15:07:42.000Z</time>
      </trkpt>
      <trkpt lat="43.9623" lon="5.12683">
        <ele>458.5</ele>
        <time>2013-01-24T15:07:43.000Z</time>
      </trkpt>
      <trkpt lat="43.96234" lon="5.12684">
        <ele>457.6</ele>
        <time>2013-01-24T15:07:44.000Z</time>
      </trkpt>
      <trkpt lat="43.96238" lon="5.12682">
        <ele>457.2</ele>
        <time>2013-01-24T15:07:45.000Z</time>
      </trkpt>
      <trkpt lat="43.96241" lon="5.12677">
        <ele>456</ele>
        <time>2013-01-24T15:07:46.000Z</time>
      </trkpt>
      <trkpt lat="43.96244" lon="5.12673">
        <ele>455.2</ele>
        <time>2013-01-24T15:07:47.000Z</time>
      </trkpt>
      <trkpt lat="43.96247" lon="5.12669">
        <ele>454.6</ele>
        <time>2013-01-24T15:07:48.000Z</time>
      </trkpt>
      <trkpt lat="43.96249" lon="5.12666">
        <ele>454.3</ele>
        <time>2013-01-24T15:07:49.000Z</time>
      </trkpt>
      <trkpt lat="43.96248" lon="5.12662">
        <ele>453.8</ele>
        <time>2013-01-24T15:07:50.000Z</time>
      </trkpt>
      <trkpt lat="43.96251" lon="5.1266">
        <ele>452.1</ele>
        <time>2013-01-24T15:07:53.000Z</time>
      </trkpt>
      <trkpt lat="43.96253" lon="5.1266">
        <ele>451.4</ele>
        <time>2013-01-24T15:07:54.000Z</time>
      </trkpt>
      <trkpt lat="43.96255" lon="5.12666">
        <ele>451.3</ele>
        <time>2013-01-24T15:07:57.000Z</time>
      </trkpt>
      <trkpt lat="43.96256" lon="5.12667">
        <ele>451</ele>
        <time>2013-01-24T15:07:58.000Z</time>
      </trkpt>
      <trkpt lat="43.96259" lon="5.12671">
        <ele>451.1</ele>
        <time>2013-01-24T15:08:00.000Z</time>
      </trkpt>
      <trkpt lat="43.96262" lon="5.12672">
        <ele>451</ele>
        <time>2013-01-24T15:08:01.000Z</time>
      </trkpt>
      <trkpt lat="43.96265" lon="5.12672">
        <ele>451</ele>
        <time>2013-01-24T15:08:02.000Z</time>
      </trkpt>
      <trkpt lat="43.96268" lon="5.12673">
        <ele>450.8</ele>
        <time>2013-01-24T15:08:03.000Z</time>
      </trkpt>
      <trkpt lat="43.96271" lon="5.12675">
        <ele>450.2</ele>
        <time>2013-01-24T15:08:04.000Z</time>
      </trkpt>
      <trkpt lat="43.96274" lon="5.12676">
        <ele>450.7</ele>
        <time>2013-01-24T15:08:05.000Z</time>
      </trkpt>
      <trkpt lat="43.96277" lon="5.12676">
        <ele>450.8</ele>
        <time>2013-01-24T15:08:06.000Z</time>
      </trkpt>
      <trkpt lat="43.9628" lon="5.12675">
        <ele>450.5</ele>
        <time>2013-01-24T15:08:07.000Z</time>
      </trkpt>
      <trkpt lat="43.96283" lon="5.12673">
        <ele>450.3</ele>
        <time>2013-01-24T15:08:08.000Z</time>
      </trkpt>
      <trkpt lat="43.96284" lon="5.12666">
        <ele>448.4</ele>
        <time>2013-01-24T15:08:09.000Z</time>
      </trkpt>
      <trkpt lat="43.96283" lon="5.12662">
        <ele>447.2</ele>
        <time>2013-01-24T15:08:10.000Z</time>
      </trkpt>
      <trkpt lat="43.96281" lon="5.12658">
        <ele>446.4</ele>
        <time>2013-01-24T15:08:11.000Z</time>
      </trkpt>
      <trkpt lat="43.96279" lon="5.12655">
        <ele>445.6</ele>
        <time>2013-01-24T15:08:12.000Z</time>
      </trkpt>
      <trkpt lat="43.96278" lon="5.12652">
        <ele>445.2</ele>
        <time>2013-01-24T15:08:13.000Z</time>
      </trkpt>
      <trkpt lat="43.96277" lon="5.12648">
        <ele>445.2</ele>
        <time>2013-01-24T15:08:14.000Z</time>
      </trkpt>
      <trkpt lat="43.96281" lon="5.12645">
        <ele>444.6</ele>
        <time>2013-01-24T15:08:15.000Z</time>
      </trkpt>
      <trkpt lat="43.96282" lon="5.12639">
        <ele>444.2</ele>
        <time>2013-01-24T15:08:17.000Z</time>
      </trkpt>
      <trkpt lat="43.96283" lon="5.12637">
        <ele>444</ele>
        <time>2013-01-24T15:08:18.000Z</time>
      </trkpt>
      <trkpt lat="43.96284" lon="5.12632">
        <ele>442.6</ele>
        <time>2013-01-24T15:08:20.000Z</time>
      </trkpt>
      <trkpt lat="43.96285" lon="5.12628">
        <ele>441.3</ele>
        <time>2013-01-24T15:08:21.000Z</time>
      </trkpt>
      <trkpt lat="43.96286" lon="5.12625">
        <ele>440.5</ele>
        <time>2013-01-24T15:08:22.000Z</time>
      </trkpt>
      <trkpt lat="43.96288" lon="5.12622">
        <ele>440.1</ele>
        <time>2013-01-24T15:08:23.000Z</time>
      </trkpt>
      <trkpt lat="43.9629" lon="5.12619">
        <ele>439.6</ele>
        <time>2013-01-24T15:08:25.000Z</time>
      </trkpt>
      <trkpt lat="43.96293" lon="5.12617">
        <ele>438.4</ele>
        <time>2013-01-24T15:08:26.000Z</time>
      </trkpt>
      <trkpt lat="43.96295" lon="5.12612">
        <ele>437.9</ele>
        <time>2013-01-24T15:08:28.000Z</time>
      </trkpt>
      <trkpt lat="43.96296" lon="5.12609">
        <ele>437.6</ele>
        <time>2013-01-24T15:08:29.000Z</time>
      </trkpt>
      <trkpt lat="43.96297" lon="5.12605">
        <ele>437</ele>
        <time>2013-01-24T15:08:30.000Z</time>
      </trkpt>
      <trkpt lat="43.96298" lon="5.12603">
        <ele>436.8</ele>
        <time>2013-01-24T15:08:31.000Z</time>
      </trkpt>
      <trkpt lat="43.96299" lon="5.126">
        <ele>436.6</ele>
        <time>2013-01-24T15:08:32.000Z</time>
      </trkpt>
      <trkpt lat="43.96301" lon="5.12598">
        <ele>435.5</ele>
        <time>2013-01-24T15:08:33.000Z</time>
      </trkpt>
      <trkpt lat="43.96303" lon="5.12596">
        <ele>434.8</ele>
        <time>2013-01-24T15:08:34.000Z</time>
      </trkpt>
      <trkpt lat="43.96305" lon="5.12595">
        <ele>434.4</ele>
        <time>2013-01-24T15:08:35.000Z</time>
      </trkpt>
      <trkpt lat="43.96308" lon="5.12594">
        <ele>433.4</ele>
        <time>2013-01-24T15:08:36.000Z</time>
      </trkpt>
      <trkpt lat="43.96311" lon="5.12592">
        <ele>432.5</ele>
        <time>2013-01-24T15:08:37.000Z</time>
      </trkpt>
      <trkpt lat="43.96314" lon="5.1259">
        <ele>432.1</ele>
        <time>2013-01-24T15:08:38.000Z</time>
      </trkpt>
      <trkpt lat="43.96316" lon="5.12585">
        <ele>431</ele>
        <time>2013-01-24T15:08:39.000Z</time>
      </trkpt>
      <trkpt lat="43.96319" lon="5.12582">
        <ele>430.6</ele>
        <time>2013-01-24T15:08:40.000Z</time>
      </trkpt>
      <trkpt lat="43.96323" lon="5.12581">
        <ele>430.3</ele>
        <time>2013-01-24T15:08:41.000Z</time>
      </trkpt>
      <trkpt lat="43.96325" lon="5.1258">
        <ele>430.3</ele>
        <time>2013-01-24T15:08:42.000Z</time>
      </trkpt>
      <trkpt lat="43.96328" lon="5.12577">
        <ele>429.7</ele>
        <time>2013-01-24T15:08:43.000Z</time>
      </trkpt>
      <trkpt lat="43.9633" lon="5.12575">
        <ele>429.3</ele>
        <time>2013-01-24T15:08:44.000Z</time>
      </trkpt>
      <trkpt lat="43.96332" lon="5.12573">
        <ele>429.4</ele>
        <time>2013-01-24T15:08:45.000Z</time>
      </trkpt>
      <trkpt lat="43.96336" lon="5.12571">
        <ele>429.2</ele>
        <time>2013-01-24T15:08:48.000Z</time>
      </trkpt>
      <trkpt lat="43.96338" lon="5.1257">
        <ele>429.2</ele>
        <time>2013-01-24T15:08:49.000Z</time>
      </trkpt>
      <trkpt lat="43.96341" lon="5.12568">
        <ele>428.9</ele>
        <time>2013-01-24T15:08:50.000Z</time>
      </trkpt>
      <trkpt lat="43.96343" lon="5.12568">
        <ele>429.1</ele>
        <time>2013-01-24T15:08:51.000Z</time>
      </trkpt>
      <trkpt lat="43.96346" lon="5.12568">
        <ele>429.5</ele>
        <time>2013-01-24T15:08:52.000Z</time>
      </trkpt>
      <trkpt lat="43.96349" lon="5.12568">
        <ele>429.3</ele>
        <time>2013-01-24T15:08:53.000Z</time>
      </trkpt>
      <trkpt lat="43.96352" lon="5.12568">
        <ele>429.1</ele>
        <time>2013-01-24T15:08:54.000Z</time>
      </trkpt>
      <trkpt lat="43.96355" lon="5.12567">
        <ele>428.9</ele>
        <time>2013-01-24T15:08:55.000Z</time>
      </trkpt>
      <trkpt lat="43.96357" lon="5.12564">
        <ele>428.5</ele>
        <time>2013-01-24T15:08:56.000Z</time>
      </trkpt>
      <trkpt lat="43.96359" lon="5.12562">
        <ele>427.7</ele>
        <time>2013-01-24T15:08:57.000Z</time>
      </trkpt>
      <trkpt lat="43.96361" lon="5.1256">
        <ele>427</ele>
        <time>2013-01-24T15:08:58.000Z</time>
      </trkpt>
      <trkpt lat="43.96364" lon="5.12559">
        <ele>426.8</ele>
        <time>2013-01-24T15:08:59.000Z</time>
      </trkpt>
      <trkpt lat="43.96367" lon="5.12559">
        <ele>426.4</ele>
        <time>2013-01-24T15:09:00.000Z</time>
      </trkpt>
      <trkpt lat="43.96371" lon="5.12559">
        <ele>426.1</ele>
        <time>2013-01-24T15:09:01.000Z</time>
      </trkpt>
      <trkpt lat="43.96373" lon="5.12561">
        <ele>425.9</ele>
        <time>2013-01-24T15:09:02.000Z</time>
      </trkpt>
      <trkpt lat="43.96376" lon="5.12562">
        <ele>425.4</ele>
        <time>2013-01-24T15:09:03.000Z</time>
      </trkpt>
      <trkpt lat="43.96378" lon="5.12561">
        <ele>424.9</ele>
        <time>2013-01-24T15:09:04.000Z</time>
      </trkpt>
      <trkpt lat="43.9638" lon="5.12559">
        <ele>424.3</ele>
        <time>2013-01-24T15:09:05.000Z</time>
      </trkpt>
      <trkpt lat="43.96382" lon="5.12555">
        <ele>423.6</ele>
        <time>2013-01-24T15:09:06.000Z</time>
      </trkpt>
      <trkpt lat="43.96383" lon="5.1255">
        <ele>422.8</ele>
        <time>2013-01-24T15:09:07.000Z</time>
      </trkpt>
      <trkpt lat="43.96383" lon="5.12545">
        <ele>422.1</ele>
        <time>2013-01-24T15:09:08.000Z</time>
      </trkpt>
      <trkpt lat="43.96385" lon="5.1254">
        <ele>421.5</ele>
        <time>2013-01-24T15:09:09.000Z</time>
      </trkpt>
      <trkpt lat="43.96388" lon="5.12537">
        <ele>421</ele>
        <time>2013-01-24T15:09:10.000Z</time>
      </trkpt>
      <trkpt lat="43.96392" lon="5.12535">
        <ele>420.5</ele>
        <time>2013-01-24T15:09:11.000Z</time>
      </trkpt>
      <trkpt lat="43.96396" lon="5.12535">
        <ele>420.2</ele>
        <time>2013-01-24T15:09:12.000Z</time>
      </trkpt>
      <trkpt lat="43.964" lon="5.12534">
        <ele>419.4</ele>
        <time>2013-01-24T15:09:13.000Z</time>
      </trkpt>
      <trkpt lat="43.96404" lon="5.12534">
        <ele>418.8</ele>
        <time>2013-01-24T15:09:14.000Z</time>
      </trkpt>
      <trkpt lat="43.96408" lon="5.12532">
        <ele>418</ele>
        <time>2013-01-24T15:09:15.000Z</time>
      </trkpt>
      <trkpt lat="43.96411" lon="5.1253">
        <ele>417</ele>
        <time>2013-01-24T15:09:16.000Z</time>
      </trkpt>
      <trkpt lat="43.96415" lon="5.12528">
        <ele>416.2</ele>
        <time>2013-01-24T15:09:17.000Z</time>
      </trkpt>
      <trkpt lat="43.96421" lon="5.12526">
        <ele>415.5</ele>
        <time>2013-01-24T15:09:18.000Z</time>
      </trkpt>
      <trkpt lat="43.96426" lon="5.12525">
        <ele>414.5</ele>
        <time>2013-01-24T15:09:19.000Z</time>
      </trkpt>
      <trkpt lat="43.96432" lon="5.12524">
        <ele>413.4</ele>
        <time>2013-01-24T15:09:20.000Z</time>
      </trkpt>
      <trkpt lat="43.96439" lon="5.12524">
        <ele>413</ele>
        <time>2013-01-24T15:09:21.000Z</time>
      </trkpt>
      <trkpt lat="43.96445" lon="5.12523">
        <ele>412.9</ele>
        <time>2013-01-24T15:09:22.000Z</time>
      </trkpt>
      <trkpt lat="43.96451" lon="5.1252">
        <ele>412.6</ele>
        <time>2013-01-24T15:09:23.000Z</time>
      </trkpt>
      <trkpt lat="43.96457" lon="5.12517">
        <ele>412.3</ele>
        <time>2013-01-24T15:09:24.000Z</time>
      </trkpt>
      <trkpt lat="43.96462" lon="5.12513">
        <ele>412.4</ele>
        <time>2013-01-24T15:09:25.000Z</time>
      </trkpt>
      <trkpt lat="43.96466" lon="5.1251">
        <ele>412.6</ele>
        <time>2013-01-24T15:09:26.000Z</time>
      </trkpt>
      <trkpt lat="43.9647" lon="5.12508">
        <ele>412.9</ele>
        <time>2013-01-24T15:09:27.000Z</time>
      </trkpt>
      <trkpt lat="43.96473" lon="5.12506">
        <ele>413.7</ele>
        <time>2013-01-24T15:09:28.000Z</time>
      </trkpt>
      <trkpt lat="43.96477" lon="5.12505">
        <ele>413.6</ele>
        <time>2013-01-24T15:09:30.000Z</time>
      </trkpt>
      <trkpt lat="43.96478" lon="5.12504">
        <ele>413.3</ele>
        <time>2013-01-24T15:09:31.000Z</time>
      </trkpt>
      <trkpt lat="43.96481" lon="5.12505">
        <ele>413.6</ele>
        <time>2013-01-24T15:09:32.000Z</time>
      </trkpt>
      <trkpt lat="43.96483" lon="5.12505">
        <ele>413.5</ele>
        <time>2013-01-24T15:09:33.000Z</time>
      </trkpt>
      <trkpt lat="43.96485" lon="5.12505">
        <ele>413.6</ele>
        <time>2013-01-24T15:09:34.000Z</time>
      </trkpt>
      <trkpt lat="43.96487" lon="5.12505">
        <ele>413.5</ele>
        <time>2013-01-24T15:09:35.000Z</time>
      </trkpt>
      <trkpt lat="43.9649" lon="5.12505">
        <ele>414.3</ele>
        <time>2013-01-24T15:09:36.000Z</time>
      </trkpt>
      <trkpt lat="43.96493" lon="5.12504">
        <ele>413.1</ele>
        <time>2013-01-24T15:09:37.000Z</time>
      </trkpt>
      <trkpt lat="43.96496" lon="5.12504">
        <ele>412.6</ele>
        <time>2013-01-24T15:09:38.000Z</time>
      </trkpt>
      <trkpt lat="43.96499" lon="5.12504">
        <ele>412.1</ele>
        <time>2013-01-24T15:09:39.000Z</time>
      </trkpt>
      <trkpt lat="43.96502" lon="5.12503">
        <ele>411.5</ele>
        <time>2013-01-24T15:09:40.000Z</time>
      </trkpt>
      <trkpt lat="43.96505" lon="5.12504">
        <ele>414.9</ele>
        <time>2013-01-24T15:09:41.000Z</time>
      </trkpt>
      <trkpt lat="43.96508" lon="5.12503">
        <ele>413.9</ele>
        <time>2013-01-24T15:09:42.000Z</time>
      </trkpt>
      <trkpt lat="43.96511" lon="5.12502">
        <ele>413.3</ele>
        <time>2013-01-24T15:09:43.000Z</time>
      </trkpt>
      <trkpt lat="43.96514" lon="5.12502">
        <ele>413.3</ele>
        <time>2013-01-24T15:09:44.000Z</time>
      </trkpt>
      <trkpt lat="43.96517" lon="5.12501">
        <ele>413.1</ele>
        <time>2013-01-24T15:09:45.000Z</time>
      </trkpt>
      <trkpt lat="43.96521" lon="5.12502">
        <ele>412.6</ele>
        <time>2013-01-24T15:09:46.000Z</time>
      </trkpt>
      <trkpt lat="43.96524" lon="5.12502">
        <ele>412.2</ele>
        <time>2013-01-24T15:09:47.000Z</time>
      </trkpt>
      <trkpt lat="43.96528" lon="5.12503">
        <ele>412.1</ele>
        <time>2013-01-24T15:09:48.000Z</time>
      </trkpt>
      <trkpt lat="43.96531" lon="5.12503">
        <ele>412.3</ele>
        <time>2013-01-24T15:09:49.000Z</time>
      </trkpt>
      <trkpt lat="43.96534" lon="5.12503">
        <ele>412.1</ele>
        <time>2013-01-24T15:09:50.000Z</time>
      </trkpt>
      <trkpt lat="43.96538" lon="5.12504">
        <ele>411.8</ele>
        <time>2013-01-24T15:09:51.000Z</time>
      </trkpt>
      <trkpt lat="43.96541" lon="5.12505">
        <ele>411.9</ele>
        <time>2013-01-24T15:09:52.000Z</time>
      </trkpt>
      <trkpt lat="43.96544" lon="5.12506">
        <ele>411.7</ele>
        <time>2013-01-24T15:09:53.000Z</time>
      </trkpt>
      <trkpt lat="43.96548" lon="5.12507">
        <ele>411.7</ele>
        <time>2013-01-24T15:09:54.000Z</time>
      </trkpt>
      <trkpt lat="43.96551" lon="5.12507">
        <ele>411.9</ele>
        <time>2013-01-24T15:09:55.000Z</time>
      </trkpt>
      <trkpt lat="43.96555" lon="5.12507">
        <ele>411.8</ele>
        <time>2013-01-24T15:09:56.000Z</time>
      </trkpt>
      <trkpt lat="43.96558" lon="5.12507">
        <ele>411.7</ele>
        <time>2013-01-24T15:09:57.000Z</time>
      </trkpt>
      <trkpt lat="43.96562" lon="5.12507">
        <ele>411.6</ele>
        <time>2013-01-24T15:09:58.000Z</time>
      </trkpt>
      <trkpt lat="43.96565" lon="5.12507">
        <ele>411.6</ele>
        <time>2013-01-24T15:09:59.000Z</time>
      </trkpt>
      <trkpt lat="43.96568" lon="5.12507">
        <ele>411.8</ele>
        <time>2013-01-24T15:10:00.000Z</time>
      </trkpt>
      <trkpt lat="43.96572" lon="5.12507">
        <ele>411.8</ele>
        <time>2013-01-24T15:10:01.000Z</time>
      </trkpt>
      <trkpt lat="43.96575" lon="5.12507">
        <ele>412.1</ele>
        <time>2013-01-24T15:10:02.000Z</time>
      </trkpt>
      <trkpt lat="43.96579" lon="5.12507">
        <ele>412.3</ele>
        <time>2013-01-24T15:10:03.000Z</time>
      </trkpt>
      <trkpt lat="43.96582" lon="5.12507">
        <ele>412.3</ele>
        <time>2013-01-24T15:10:04.000Z</time>
      </trkpt>
      <trkpt lat="43.96586" lon="5.12508">
        <ele>412.5</ele>
        <time>2013-01-24T15:10:05.000Z</time>
      </trkpt>
      <trkpt lat="43.96589" lon="5.12508">
        <ele>412.5</ele>
        <time>2013-01-24T15:10:06.000Z</time>
      </trkpt>
      <trkpt lat="43.96593" lon="5.12508">
        <ele>412.5</ele>
        <time>2013-01-24T15:10:07.000Z</time>
      </trkpt>
      <trkpt lat="43.96596" lon="5.12508">
        <ele>412.4</ele>
        <time>2013-01-24T15:10:08.000Z</time>
      </trkpt>
      <trkpt lat="43.966" lon="5.12507">
        <ele>412.5</ele>
        <time>2013-01-24T15:10:09.000Z</time>
      </trkpt>
      <trkpt lat="43.96603" lon="5.12507">
        <ele>412.5</ele>
        <time>2013-01-24T15:10:10.000Z</time>
      </trkpt>
      <trkpt lat="43.96606" lon="5.12507">
        <ele>412.6</ele>
        <time>2013-01-24T15:10:11.000Z</time>
      </trkpt>
      <trkpt lat="43.9661" lon="5.12506">
        <ele>412.5</ele>
        <time>2013-01-24T15:10:12.000Z</time>
      </trkpt>
      <trkpt lat="43.96613" lon="5.12506">
        <ele>412.3</ele>
        <time>2013-01-24T15:10:13.000Z</time>
      </trkpt>
      <trkpt lat="43.96616" lon="5.12505">
        <ele>412.4</ele>
        <time>2013-01-24T15:10:14.000Z</time>
      </trkpt>
      <trkpt lat="43.96619" lon="5.12505">
        <ele>412.6</ele>
        <time>2013-01-24T15:10:15.000Z</time>
      </trkpt>
      <trkpt lat="43.96622" lon="5.12505">
        <ele>412.5</ele>
        <time>2013-01-24T15:10:16.000Z</time>
      </trkpt>
      <trkpt lat="43.96625" lon="5.12505">
        <ele>412.4</ele>
        <time>2013-01-24T15:10:17.000Z</time>
      </trkpt>
      <trkpt lat="43.96629" lon="5.12505">
        <ele>412.5</ele>
        <time>2013-01-24T15:10:18.000Z</time>
      </trkpt>
      <trkpt lat="43.96632" lon="5.12505">
        <ele>412.7</ele>
        <time>2013-01-24T15:10:19.000Z</time>
      </trkpt>
      <trkpt lat="43.96635" lon="5.12504">
        <ele>412.5</ele>
        <time>2013-01-24T15:10:20.000Z</time>
      </trkpt>
      <trkpt lat="43.96638" lon="5.12504">
        <ele>412.4</ele>
        <time>2013-01-24T15:10:21.000Z</time>
      </trkpt>
      <trkpt lat="43.96642" lon="5.12503">
        <ele>412.8</ele>
        <time>2013-01-24T15:10:22.000Z</time>
      </trkpt>
      <trkpt lat="43.96645" lon="5.12503">
        <ele>412.8</ele>
        <time>2013-01-24T15:10:23.000Z</time>
      </trkpt>
      <trkpt lat="43.96648" lon="5.12502">
        <ele>412.7</ele>
        <time>2013-01-24T15:10:24.000Z</time>
      </trkpt>
      <trkpt lat="43.96651" lon="5.12502">
        <ele>412.6</ele>
        <time>2013-01-24T15:10:25.000Z</time>
      </trkpt>
      <trkpt lat="43.96654" lon="5.12503">
        <ele>412.6</ele>
        <time>2013-01-24T15:10:26.000Z</time>
      </trkpt>
      <trkpt lat="43.96656" lon="5.12503">
        <ele>412.6</ele>
        <time>2013-01-24T15:10:27.000Z</time>
      </trkpt>
      <trkpt lat="43.9666" lon="5.12502">
        <ele>412.5</ele>
        <time>2013-01-24T15:10:28.000Z</time>
      </trkpt>
      <trkpt lat="43.96663" lon="5.12502">
        <ele>412.3</ele>
        <time>2013-01-24T15:10:29.000Z</time>
      </trkpt>
      <trkpt lat="43.96666" lon="5.12501">
        <ele>412.2</ele>
        <time>2013-01-24T15:10:30.000Z</time>
      </trkpt>
      <trkpt lat="43.96669" lon="5.125">
        <ele>412.3</ele>
        <time>2013-01-24T15:10:31.000Z</time>
      </trkpt>
      <trkpt lat="43.96672" lon="5.12499">
        <ele>412.3</ele>
        <time>2013-01-24T15:10:32.000Z</time>
      </trkpt>
      <trkpt lat="43.96674" lon="5.12498">
        <ele>412.5</ele>
        <time>2013-01-24T15:10:33.000Z</time>
      </trkpt>
      <trkpt lat="43.96677" lon="5.12497">
        <ele>412.7</ele>
        <time>2013-01-24T15:10:34.000Z</time>
      </trkpt>
      <trkpt lat="43.9668" lon="5.12497">
        <ele>412.5</ele>
        <time>2013-01-24T15:10:35.000Z</time>
      </trkpt>
      <trkpt lat="43.96683" lon="5.12496">
        <ele>412.9</ele>
        <time>2013-01-24T15:10:36.000Z</time>
      </trkpt>
      <trkpt lat="43.96685" lon="5.12496">
        <ele>413.7</ele>
        <time>2013-01-24T15:10:37.000Z</time>
      </trkpt>
      <trkpt lat="43.96688" lon="5.12498">
        <ele>416.1</ele>
        <time>2013-01-24T15:10:38.000Z</time>
      </trkpt>
      <trkpt lat="43.9669" lon="5.12495">
        <ele>415.1</ele>
        <time>2013-01-24T15:10:39.000Z</time>
      </trkpt>
      <trkpt lat="43.96692" lon="5.12494">
        <ele>415.3</ele>
        <time>2013-01-24T15:10:40.000Z</time>
      </trkpt>
      <trkpt lat="43.96694" lon="5.12493">
        <ele>414.5</ele>
        <time>2013-01-24T15:10:41.000Z</time>
      </trkpt>
      <trkpt lat="43.96697" lon="5.12491">
        <ele>413.7</ele>
        <time>2013-01-24T15:10:42.000Z</time>
      </trkpt>
      <trkpt lat="43.96698" lon="5.12489">
        <ele>414.2</ele>
        <time>2013-01-24T15:10:43.000Z</time>
      </trkpt>
      <trkpt lat="43.96701" lon="5.12487">
        <ele>413.5</ele>
        <time>2013-01-24T15:10:44.000Z</time>
      </trkpt>
      <trkpt lat="43.96702" lon="5.12486">
        <ele>412.8</ele>
        <time>2013-01-24T15:10:45.000Z</time>
      </trkpt>
      <trkpt lat="43.96705" lon="5.12485">
        <ele>411.9</ele>
        <time>2013-01-24T15:10:46.000Z</time>
      </trkpt>
      <trkpt lat="43.96708" lon="5.12483">
        <ele>411.5</ele>
        <time>2013-01-24T15:10:47.000Z</time>
      </trkpt>
      <trkpt lat="43.9671" lon="5.12481">
        <ele>410.9</ele>
        <time>2013-01-24T15:10:48.000Z</time>
      </trkpt>
      <trkpt lat="43.96712" lon="5.12478">
        <ele>410.5</ele>
        <time>2013-01-24T15:10:49.000Z</time>
      </trkpt>
      <trkpt lat="43.96715" lon="5.12476">
        <ele>410</ele>
        <time>2013-01-24T15:10:50.000Z</time>
      </trkpt>
      <trkpt lat="43.96717" lon="5.12474">
        <ele>409.5</ele>
        <time>2013-01-24T15:10:51.000Z</time>
      </trkpt>
      <trkpt lat="43.96719" lon="5.12471">
        <ele>409.1</ele>
        <time>2013-01-24T15:10:52.000Z</time>
      </trkpt>
      <trkpt lat="43.96722" lon="5.1247">
        <ele>408.6</ele>
        <time>2013-01-24T15:10:53.000Z</time>
      </trkpt>
      <trkpt lat="43.96724" lon="5.12468">
        <ele>408.3</ele>
        <time>2013-01-24T15:10:54.000Z</time>
      </trkpt>
      <trkpt lat="43.96727" lon="5.12465">
        <ele>408.1</ele>
        <time>2013-01-24T15:10:55.000Z</time>
      </trkpt>
      <trkpt lat="43.9673" lon="5.12463">
        <ele>408.1</ele>
        <time>2013-01-24T15:10:56.000Z</time>
      </trkpt>
      <trkpt lat="43.96732" lon="5.12461">
        <ele>407.7</ele>
        <time>2013-01-24T15:10:57.000Z</time>
      </trkpt>
      <trkpt lat="43.96735" lon="5.12459">
        <ele>408.6</ele>
        <time>2013-01-24T15:10:58.000Z</time>
      </trkpt>
      <trkpt lat="43.96738" lon="5.12459">
        <ele>409.9</ele>
        <time>2013-01-24T15:10:59.000Z</time>
      </trkpt>
      <trkpt lat="43.9674" lon="5.12454">
        <ele>408</ele>
        <time>2013-01-24T15:11:00.000Z</time>
      </trkpt>
      <trkpt lat="43.96743" lon="5.12452">
        <ele>408.2</ele>
        <time>2013-01-24T15:11:01.000Z</time>
      </trkpt>
      <trkpt lat="43.96746" lon="5.12449">
        <ele>408.3</ele>
        <time>2013-01-24T15:11:02.000Z</time>
      </trkpt>
      <trkpt lat="43.96748" lon="5.12446">
        <ele>408</ele>
        <time>2013-01-24T15:11:03.000Z</time>
      </trkpt>
      <trkpt lat="43.9675" lon="5.12443">
        <ele>408.1</ele>
        <time>2013-01-24T15:11:04.000Z</time>
      </trkpt>
      <trkpt lat="43.96752" lon="5.1244">
        <ele>408</ele>
        <time>2013-01-24T15:11:05.000Z</time>
      </trkpt>
      <trkpt lat="43.96755" lon="5.12436">
        <ele>407.9</ele>
        <time>2013-01-24T15:11:07.000Z</time>
      </trkpt>
      <trkpt lat="43.96757" lon="5.12436">
        <ele>408.3</ele>
        <time>2013-01-24T15:11:08.000Z</time>
      </trkpt>
      <trkpt lat="43.96758" lon="5.12437">
        <ele>408.3</ele>
        <time>2013-01-24T15:11:09.000Z</time>
      </trkpt>
      <trkpt lat="43.96761" lon="5.12439">
        <ele>407.5</ele>
        <time>2013-01-24T15:11:10.000Z</time>
      </trkpt>
      <trkpt lat="43.96764" lon="5.12441">
        <ele>407.2</ele>
        <time>2013-01-24T15:11:11.000Z</time>
      </trkpt>
      <trkpt lat="43.96767" lon="5.12441">
        <ele>406.7</ele>
        <time>2013-01-24T15:11:12.000Z</time>
      </trkpt>
      <trkpt lat="43.96771" lon="5.12442">
        <ele>406.3</ele>
        <time>2013-01-24T15:11:13.000Z</time>
      </trkpt>
      <trkpt lat="43.96775" lon="5.12442">
        <ele>405.9</ele>
        <time>2013-01-24T15:11:14.000Z</time>
      </trkpt>
      <trkpt lat="43.96779" lon="5.12441">
        <ele>405.8</ele>
        <time>2013-01-24T15:11:15.000Z</time>
      </trkpt>
      <trkpt lat="43.96783" lon="5.12441">
        <ele>405.5</ele>
        <time>2013-01-24T15:11:16.000Z</time>
      </trkpt>
      <trkpt lat="43.96786" lon="5.12442">
        <ele>405.1</ele>
        <time>2013-01-24T15:11:17.000Z</time>
      </trkpt>
      <trkpt lat="43.96789" lon="5.12443">
        <ele>404.5</ele>
        <time>2013-01-24T15:11:18.000Z</time>
      </trkpt>
      <trkpt lat="43.96793" lon="5.12442">
        <ele>403.8</ele>
        <time>2013-01-24T15:11:19.000Z</time>
      </trkpt>
      <trkpt lat="43.96795" lon="5.12439">
        <ele>403.6</ele>
        <time>2013-01-24T15:11:20.000Z</time>
      </trkpt>
      <trkpt lat="43.96797" lon="5.12437">
        <ele>403.3</ele>
        <time>2013-01-24T15:11:21.000Z</time>
      </trkpt>
      <trkpt lat="43.968" lon="5.12437">
        <ele>402.6</ele>
        <time>2013-01-24T15:11:22.000Z</time>
      </trkpt>
      <trkpt lat="43.96804" lon="5.12437">
        <ele>402.5</ele>
        <time>2013-01-24T15:11:23.000Z</time>
      </trkpt>
      <trkpt lat="43.96807" lon="5.12438">
        <ele>402.3</ele>
        <time>2013-01-24T15:11:24.000Z</time>
      </trkpt>
      <trkpt lat="43.9681" lon="5.1244">
        <ele>401.6</ele>
        <time>2013-01-24T15:11:25.000Z</time>
      </trkpt>
      <trkpt lat="43.96813" lon="5.12442">
        <ele>401.1</ele>
        <time>2013-01-24T15:11:26.000Z</time>
      </trkpt>
      <trkpt lat="43.96818" lon="5.12444">
        <ele>400.9</ele>
        <time>2013-01-24T15:11:27.000Z</time>
      </trkpt>
      <trkpt lat="43.96822" lon="5.12446">
        <ele>400.7</ele>
        <time>2013-01-24T15:11:28.000Z</time>
      </trkpt>
      <trkpt lat="43.96827" lon="5.12445">
        <ele>400.2</ele>
        <time>2013-01-24T15:11:29.000Z</time>
      </trkpt>
      <trkpt lat="43.9683" lon="5.12444">
        <ele>399.5</ele>
        <time>2013-01-24T15:11:30.000Z</time>
      </trkpt>
      <trkpt lat="43.96834" lon="5.12441">
        <ele>398.9</ele>
        <time>2013-01-24T15:11:31.000Z</time>
      </trkpt>
      <trkpt lat="43.96838" lon="5.12438">
        <ele>398.3</ele>
        <time>2013-01-24T15:11:32.000Z</time>
      </trkpt>
      <trkpt lat="43.96842" lon="5.12433">
        <ele>397.7</ele>
        <time>2013-01-24T15:11:33.000Z</time>
      </trkpt>
      <trkpt lat="43.96844" lon="5.12427">
        <ele>397.4</ele>
        <time>2013-01-24T15:11:34.000Z</time>
      </trkpt>
      <trkpt lat="43.96847" lon="5.12425">
        <ele>396.8</ele>
        <time>2013-01-24T15:11:36.000Z</time>
      </trkpt>
      <trkpt lat="43.96849" lon="5.12424">
        <ele>396.5</ele>
        <time>2013-01-24T15:11:37.000Z</time>
      </trkpt>
      <trkpt lat="43.9685" lon="5.12427">
        <ele>396.1</ele>
        <time>2013-01-24T15:11:38.000Z</time>
      </trkpt>
      <trkpt lat="43.96851" lon="5.1243">
        <ele>395.9</ele>
        <time>2013-01-24T15:11:39.000Z</time>
      </trkpt>
      <trkpt lat="43.96851" lon="5.12434">
        <ele>396.2</ele>
        <time>2013-01-24T15:11:40.000Z</time>
      </trkpt>
      <trkpt lat="43.9685" lon="5.12438">
        <ele>395.6</ele>
        <time>2013-01-24T15:11:41.000Z</time>
      </trkpt>
      <trkpt lat="43.96849" lon="5.12442">
        <ele>395.5</ele>
        <time>2013-01-24T15:11:42.000Z</time>
      </trkpt>
      <trkpt lat="43.96848" lon="5.12445">
        <ele>395.4</ele>
        <time>2013-01-24T15:11:43.000Z</time>
      </trkpt>
      <trkpt lat="43.96848" lon="5.12449">
        <ele>394.9</ele>
        <time>2013-01-24T15:11:44.000Z</time>
      </trkpt>
      <trkpt lat="43.96849" lon="5.12452">
        <ele>394.5</ele>
        <time>2013-01-24T15:11:45.000Z</time>
      </trkpt>
      <trkpt lat="43.96851" lon="5.12455">
        <ele>394.2</ele>
        <time>2013-01-24T15:11:46.000Z</time>
      </trkpt>
      <trkpt lat="43.96853" lon="5.12457">
        <ele>393.9</ele>
        <time>2013-01-24T15:11:47.000Z</time>
      </trkpt>
      <trkpt lat="43.96855" lon="5.1246">
        <ele>393.8</ele>
        <time>2013-01-24T15:11:48.000Z</time>
      </trkpt>
      <trkpt lat="43.96857" lon="5.12461">
        <ele>393.6</ele>
        <time>2013-01-24T15:11:49.000Z</time>
      </trkpt>
      <trkpt lat="43.9686" lon="5.12459">
        <ele>393.1</ele>
        <time>2013-01-24T15:11:50.000Z</time>
      </trkpt>
      <trkpt lat="43.96864" lon="5.12457">
        <ele>391.5</ele>
        <time>2013-01-24T15:11:51.000Z</time>
      </trkpt>
      <trkpt lat="43.96868" lon="5.12455">
        <ele>390.8</ele>
        <time>2013-01-24T15:11:52.000Z</time>
      </trkpt>
      <trkpt lat="43.96872" lon="5.12451">
        <ele>391.2</ele>
        <time>2013-01-24T15:11:53.000Z</time>
      </trkpt>
      <trkpt lat="43.96876" lon="5.12447">
        <ele>391</ele>
        <time>2013-01-24T15:11:54.000Z</time>
      </trkpt>
      <trkpt lat="43.96879" lon="5.12443">
        <ele>390.9</ele>
        <time>2013-01-24T15:11:55.000Z</time>
      </trkpt>
      <trkpt lat="43.96881" lon="5.12439">
        <ele>391</ele>
        <time>2013-01-24T15:11:56.000Z</time>
      </trkpt>
      <trkpt lat="43.96883" lon="5.12436">
        <ele>391.4</ele>
        <time>2013-01-24T15:11:57.000Z</time>
      </trkpt>
      <trkpt lat="43.96885" lon="5.12433">
        <ele>391.7</ele>
        <time>2013-01-24T15:11:58.000Z</time>
      </trkpt>
      <trkpt lat="43.96887" lon="5.1243">
        <ele>391.6</ele>
        <time>2013-01-24T15:11:59.000Z</time>
      </trkpt>
      <trkpt lat="43.96888" lon="5.12427">
        <ele>392.1</ele>
        <time>2013-01-24T15:12:00.000Z</time>
      </trkpt>
      <trkpt lat="43.96889" lon="5.12423">
        <ele>391.9</ele>
        <time>2013-01-24T15:12:01.000Z</time>
      </trkpt>
      <trkpt lat="43.9689" lon="5.12419">
        <ele>391.5</ele>
        <time>2013-01-24T15:12:02.000Z</time>
      </trkpt>
      <trkpt lat="43.96891" lon="5.12414">
        <ele>391.3</ele>
        <time>2013-01-24T15:12:03.000Z</time>
      </trkpt>
      <trkpt lat="43.96892" lon="5.1241">
        <ele>391.1</ele>
        <time>2013-01-24T15:12:04.000Z</time>
      </trkpt>
      <trkpt lat="43.96894" lon="5.12407">
        <ele>391</ele>
        <time>2013-01-24T15:12:05.000Z</time>
      </trkpt>
      <trkpt lat="43.96897" lon="5.12404">
        <ele>391.5</ele>
        <time>2013-01-24T15:12:06.000Z</time>
      </trkpt>
      <trkpt lat="43.969" lon="5.12404">
        <ele>392.9</ele>
        <time>2013-01-24T15:12:07.000Z</time>
      </trkpt>
      <trkpt lat="43.96903" lon="5.12401">
        <ele>393.2</ele>
        <time>2013-01-24T15:12:08.000Z</time>
      </trkpt>
      <trkpt lat="43.96905" lon="5.12398">
        <ele>392.9</ele>
        <time>2013-01-24T15:12:09.000Z</time>
      </trkpt>
      <trkpt lat="43.96907" lon="5.12394">
        <ele>393.2</ele>
        <time>2013-01-24T15:12:10.000Z</time>
      </trkpt>
      <trkpt lat="43.96909" lon="5.1239">
        <ele>393.3</ele>
        <time>2013-01-24T15:12:11.000Z</time>
      </trkpt>
      <trkpt lat="43.96913" lon="5.12384">
        <ele>395.1</ele>
        <time>2013-01-24T15:12:12.000Z</time>
      </trkpt>
      <trkpt lat="43.96916" lon="5.12378">
        <ele>395.8</ele>
        <time>2013-01-24T15:12:13.000Z</time>
      </trkpt>
      <trkpt lat="43.96917" lon="5.12372">
        <ele>395.6</ele>
        <time>2013-01-24T15:12:14.000Z</time>
      </trkpt>
      <trkpt lat="43.96919" lon="5.12366">
        <ele>395.7</ele>
        <time>2013-01-24T15:12:15.000Z</time>
      </trkpt>
      <trkpt lat="43.9692" lon="5.12363">
        <ele>395.6</ele>
        <time>2013-01-24T15:12:16.000Z</time>
      </trkpt>
      <trkpt lat="43.96922" lon="5.12359">
        <ele>395.2</ele>
        <time>2013-01-24T15:12:17.000Z</time>
      </trkpt>
      <trkpt lat="43.96924" lon="5.12355">
        <ele>395.2</ele>
        <time>2013-01-24T15:12:18.000Z</time>
      </trkpt>
      <trkpt lat="43.96927" lon="5.12352">
        <ele>395.3</ele>
        <time>2013-01-24T15:12:19.000Z</time>
      </trkpt>
      <trkpt lat="43.96928" lon="5.12349">
        <ele>395.7</ele>
        <time>2013-01-24T15:12:20.000Z</time>
      </trkpt>
      <trkpt lat="43.9693" lon="5.12346">
        <ele>395.3</ele>
        <time>2013-01-24T15:12:21.000Z</time>
      </trkpt>
      <trkpt lat="43.96934" lon="5.12342">
        <ele>395.3</ele>
        <time>2013-01-24T15:12:22.000Z</time>
      </trkpt>
      <trkpt lat="43.96936" lon="5.12336">
        <ele>394.6</ele>
        <time>2013-01-24T15:12:23.000Z</time>
      </trkpt>
      <trkpt lat="43.96938" lon="5.12332">
        <ele>394</ele>
        <time>2013-01-24T15:12:24.000Z</time>
      </trkpt>
      <trkpt lat="43.96944" lon="5.1232">
        <ele>396</ele>
        <time>2013-01-24T15:12:25.000Z</time>
      </trkpt>
      <trkpt lat="43.96947" lon="5.12312">
        <ele>396.4</ele>
        <time>2013-01-24T15:12:26.000Z</time>
      </trkpt>
      <trkpt lat="43.9695" lon="5.12301">
        <ele>397.5</ele>
        <time>2013-01-24T15:12:27.000Z</time>
      </trkpt>
      <trkpt lat="43.96953" lon="5.12294">
        <ele>397.6</ele>
        <time>2013-01-24T15:12:28.000Z</time>
      </trkpt>
      <trkpt lat="43.96957" lon="5.12285">
        <ele>397</ele>
        <time>2013-01-24T15:12:29.000Z</time>
      </trkpt>
      <trkpt lat="43.9696" lon="5.12279">
        <ele>396.9</ele>
        <time>2013-01-24T15:12:30.000Z</time>
      </trkpt>
      <trkpt lat="43.96961" lon="5.12276">
        <ele>396.4</ele>
        <time>2013-01-24T15:12:31.000Z</time>
      </trkpt>
      <trkpt lat="43.96963" lon="5.12272">
        <ele>395.9</ele>
        <time>2013-01-24T15:12:32.000Z</time>
      </trkpt>
      <trkpt lat="43.96963" lon="5.12267">
        <ele>395.6</ele>
        <time>2013-01-24T15:12:33.000Z</time>
      </trkpt>
      <trkpt lat="43.96962" lon="5.12264">
        <ele>395</ele>
        <time>2013-01-24T15:12:34.000Z</time>
      </trkpt>
      <trkpt lat="43.96959" lon="5.12259">
        <ele>393.7</ele>
        <time>2013-01-24T15:12:35.000Z</time>
      </trkpt>
      <trkpt lat="43.96953" lon="5.12252">
        <ele>392</ele>
        <time>2013-01-24T15:12:36.000Z</time>
      </trkpt>
      <trkpt lat="43.96951" lon="5.12247">
        <ele>391.6</ele>
        <time>2013-01-24T15:12:37.000Z</time>
      </trkpt>
      <trkpt lat="43.96949" lon="5.12242">
        <ele>391.6</ele>
        <time>2013-01-24T15:12:38.000Z</time>
      </trkpt>
      <trkpt lat="43.96948" lon="5.12239">
        <ele>391.1</ele>
        <time>2013-01-24T15:12:39.000Z</time>
      </trkpt>
      <trkpt lat="43.96948" lon="5.12236">
        <ele>390.9</ele>
        <time>2013-01-24T15:12:40.000Z</time>
      </trkpt>
      <trkpt lat="43.96948" lon="5.12233">
        <ele>390.3</ele>
        <time>2013-01-24T15:12:41.000Z</time>
      </trkpt>
      <trkpt lat="43.96947" lon="5.12229">
        <ele>390.3</ele>
        <time>2013-01-24T15:12:42.000Z</time>
      </trkpt>
      <trkpt lat="43.96949" lon="5.12226">
        <ele>391.7</ele>
        <time>2013-01-24T15:12:43.000Z</time>
      </trkpt>
      <trkpt lat="43.96949" lon="5.12223">
        <ele>391.7</ele>
        <time>2013-01-24T15:12:44.000Z</time>
      </trkpt>
      <trkpt lat="43.96949" lon="5.12219">
        <ele>391.8</ele>
        <time>2013-01-24T15:12:45.000Z</time>
      </trkpt>
      <trkpt lat="43.96949" lon="5.12214">
        <ele>392.8</ele>
        <time>2013-01-24T15:12:46.000Z</time>
      </trkpt>
      <trkpt lat="43.9695" lon="5.12209">
        <ele>393.4</ele>
        <time>2013-01-24T15:12:47.000Z</time>
      </trkpt>
      <trkpt lat="43.9695" lon="5.12205">
        <ele>394.1</ele>
        <time>2013-01-24T15:12:48.000Z</time>
      </trkpt>
      <trkpt lat="43.96951" lon="5.12201">
        <ele>393.3</ele>
        <time>2013-01-24T15:12:49.000Z</time>
      </trkpt>
      <trkpt lat="43.96953" lon="5.12197">
        <ele>393.3</ele>
        <time>2013-01-24T15:12:50.000Z</time>
      </trkpt>
      <trkpt lat="43.96954" lon="5.12192">
        <ele>392.6</ele>
        <time>2013-01-24T15:12:51.000Z</time>
      </trkpt>
      <trkpt lat="43.96953" lon="5.12184">
        <ele>394.2</ele>
        <time>2013-01-24T15:12:52.000Z</time>
      </trkpt>
      <trkpt lat="43.96953" lon="5.12178">
        <ele>394.8</ele>
        <time>2013-01-24T15:12:53.000Z</time>
      </trkpt>
      <trkpt lat="43.96953" lon="5.12174">
        <ele>394.2</ele>
        <time>2013-01-24T15:12:54.000Z</time>
      </trkpt>
      <trkpt lat="43.96953" lon="5.1217">
        <ele>393.5</ele>
        <time>2013-01-24T15:12:55.000Z</time>
      </trkpt>
      <trkpt lat="43.96956" lon="5.12167">
        <ele>393.7</ele>
        <time>2013-01-24T15:12:56.000Z</time>
      </trkpt>
      <trkpt lat="43.96958" lon="5.12164">
        <ele>392.9</ele>
        <time>2013-01-24T15:12:57.000Z</time>
      </trkpt>
      <trkpt lat="43.96959" lon="5.12161">
        <ele>392.5</ele>
        <time>2013-01-24T15:12:58.000Z</time>
      </trkpt>
      <trkpt lat="43.96962" lon="5.12158">
        <ele>392.1</ele>
        <time>2013-01-24T15:12:59.000Z</time>
      </trkpt>
      <trkpt lat="43.96963" lon="5.12153">
        <ele>392.1</ele>
        <time>2013-01-24T15:13:00.000Z</time>
      </trkpt>
      <trkpt lat="43.96965" lon="5.12149">
        <ele>393.3</ele>
        <time>2013-01-24T15:13:01.000Z</time>
      </trkpt>
      <trkpt lat="43.96968" lon="5.12145">
        <ele>394.5</ele>
        <time>2013-01-24T15:13:02.000Z</time>
      </trkpt>
      <trkpt lat="43.9697" lon="5.12141">
        <ele>395.2</ele>
        <time>2013-01-24T15:13:03.000Z</time>
      </trkpt>
      <trkpt lat="43.96972" lon="5.12138">
        <ele>395.7</ele>
        <time>2013-01-24T15:13:04.000Z</time>
      </trkpt>
      <trkpt lat="43.96973" lon="5.12131">
        <ele>395</ele>
        <time>2013-01-24T15:13:05.000Z</time>
      </trkpt>
      <trkpt lat="43.96975" lon="5.12126">
        <ele>394.7</ele>
        <time>2013-01-24T15:13:06.000Z</time>
      </trkpt>
      <trkpt lat="43.96975" lon="5.12121">
        <ele>394</ele>
        <time>2013-01-24T15:13:07.000Z</time>
      </trkpt>
      <trkpt lat="43.96976" lon="5.12117">
        <ele>393.4</ele>
        <time>2013-01-24T15:13:08.000Z</time>
      </trkpt>
      <trkpt lat="43.96982" lon="5.12111">
        <ele>393.9</ele>
        <time>2013-01-24T15:13:09.000Z</time>
      </trkpt>
      <trkpt lat="43.96985" lon="5.12104">
        <ele>392.2</ele>
        <time>2013-01-24T15:13:10.000Z</time>
      </trkpt>
      <trkpt lat="43.96988" lon="5.12096">
        <ele>392</ele>
        <time>2013-01-24T15:13:11.000Z</time>
      </trkpt>
      <trkpt lat="43.9699" lon="5.1209">
        <ele>392.2</ele>
        <time>2013-01-24T15:13:12.000Z</time>
      </trkpt>
      <trkpt lat="43.96995" lon="5.12085">
        <ele>390.4</ele>
        <time>2013-01-24T15:13:13.000Z</time>
      </trkpt>
      <trkpt lat="43.96999" lon="5.12081">
        <ele>389.6</ele>
        <time>2013-01-24T15:13:14.000Z</time>
      </trkpt>
      <trkpt lat="43.97002" lon="5.12076">
        <ele>388.3</ele>
        <time>2013-01-24T15:13:15.000Z</time>
      </trkpt>
      <trkpt lat="43.97006" lon="5.12071">
        <ele>387.6</ele>
        <time>2013-01-24T15:13:16.000Z</time>
      </trkpt>
      <trkpt lat="43.9701" lon="5.12066">
        <ele>387.6</ele>
        <time>2013-01-24T15:13:17.000Z</time>
      </trkpt>
      <trkpt lat="43.97012" lon="5.12059">
        <ele>387.5</ele>
        <time>2013-01-24T15:13:18.000Z</time>
      </trkpt>
      <trkpt lat="43.97013" lon="5.12054">
        <ele>386.9</ele>
        <time>2013-01-24T15:13:19.000Z</time>
      </trkpt>
      <trkpt lat="43.97014" lon="5.1205">
        <ele>386.6</ele>
        <time>2013-01-24T15:13:20.000Z</time>
      </trkpt>
      <trkpt lat="43.97016" lon="5.12047">
        <ele>386.5</ele>
        <time>2013-01-24T15:13:21.000Z</time>
      </trkpt>
      <trkpt lat="43.97021" lon="5.12045">
        <ele>388.4</ele>
        <time>2013-01-24T15:13:22.000Z</time>
      </trkpt>
      <trkpt lat="43.97023" lon="5.12042">
        <ele>388.9</ele>
        <time>2013-01-24T15:13:23.000Z</time>
      </trkpt>
      <trkpt lat="43.97026" lon="5.12038">
        <ele>388</ele>
        <time>2013-01-24T15:13:24.000Z</time>
      </trkpt>
      <trkpt lat="43.97028" lon="5.12034">
        <ele>386.9</ele>
        <time>2013-01-24T15:13:25.000Z</time>
      </trkpt>
      <trkpt lat="43.97029" lon="5.12028">
        <ele>386.2</ele>
        <time>2013-01-24T15:13:26.000Z</time>
      </trkpt>
      <trkpt lat="43.97031" lon="5.12022">
        <ele>386.9</ele>
        <time>2013-01-24T15:13:27.000Z</time>
      </trkpt>
      <trkpt lat="43.97033" lon="5.12017">
        <ele>386.5</ele>
        <time>2013-01-24T15:13:28.000Z</time>
      </trkpt>
      <trkpt lat="43.97034" lon="5.12012">
        <ele>385.8</ele>
        <time>2013-01-24T15:13:29.000Z</time>
      </trkpt>
      <trkpt lat="43.97036" lon="5.12007">
        <ele>384.3</ele>
        <time>2013-01-24T15:13:30.000Z</time>
      </trkpt>
      <trkpt lat="43.97038" lon="5.12002">
        <ele>383.1</ele>
        <time>2013-01-24T15:13:31.000Z</time>
      </trkpt>
      <trkpt lat="43.97039" lon="5.11998">
        <ele>382.7</ele>
        <time>2013-01-24T15:13:32.000Z</time>
      </trkpt>
      <trkpt lat="43.97039" lon="5.11993">
        <ele>381</ele>
        <time>2013-01-24T15:13:34.000Z</time>
      </trkpt>
      <trkpt lat="43.97041" lon="5.11988">
        <ele>380</ele>
        <time>2013-01-24T15:13:35.000Z</time>
      </trkpt>
      <trkpt lat="43.97042" lon="5.11984">
        <ele>379.2</ele>
        <time>2013-01-24T15:13:36.000Z</time>
      </trkpt>
      <trkpt lat="43.97043" lon="5.11979">
        <ele>378.3</ele>
        <time>2013-01-24T15:13:37.000Z</time>
      </trkpt>
      <trkpt lat="43.97044" lon="5.11975">
        <ele>377.4</ele>
        <time>2013-01-24T15:13:38.000Z</time>
      </trkpt>
      <trkpt lat="43.97043" lon="5.11971">
        <ele>376.4</ele>
        <time>2013-01-24T15:13:39.000Z</time>
      </trkpt>
      <trkpt lat="43.97045" lon="5.11967">
        <ele>374.1</ele>
        <time>2013-01-24T15:13:41.000Z</time>
      </trkpt>
      <trkpt lat="43.9705" lon="5.11969">
        <ele>373.1</ele>
        <time>2013-01-24T15:13:42.000Z</time>
      </trkpt>
      <trkpt lat="43.97054" lon="5.11968">
        <ele>373.1</ele>
        <time>2013-01-24T15:13:43.000Z</time>
      </trkpt>
      <trkpt lat="43.97056" lon="5.11966">
        <ele>372.9</ele>
        <time>2013-01-24T15:13:44.000Z</time>
      </trkpt>
      <trkpt lat="43.97054" lon="5.11959">
        <ele>372.1</ele>
        <time>2013-01-24T15:13:45.000Z</time>
      </trkpt>
      <trkpt lat="43.97055" lon="5.11954">
        <ele>371.3</ele>
        <time>2013-01-24T15:13:46.000Z</time>
      </trkpt>
      <trkpt lat="43.97056" lon="5.11949">
        <ele>370.9</ele>
        <time>2013-01-24T15:13:47.000Z</time>
      </trkpt>
      <trkpt lat="43.97056" lon="5.11943">
        <ele>370</ele>
        <time>2013-01-24T15:13:48.000Z</time>
      </trkpt>
      <trkpt lat="43.97057" lon="5.11937">
        <ele>369.6</ele>
        <time>2013-01-24T15:13:49.000Z</time>
      </trkpt>
      <trkpt lat="43.97057" lon="5.1193">
        <ele>368.9</ele>
        <time>2013-01-24T15:13:50.000Z</time>
      </trkpt>
      <trkpt lat="43.97059" lon="5.11924">
        <ele>368.1</ele>
        <time>2013-01-24T15:13:51.000Z</time>
      </trkpt>
      <trkpt lat="43.97061" lon="5.11917">
        <ele>367.5</ele>
        <time>2013-01-24T15:13:52.000Z</time>
      </trkpt>
      <trkpt lat="43.97061" lon="5.11909">
        <ele>367.4</ele>
        <time>2013-01-24T15:13:53.000Z</time>
      </trkpt>
      <trkpt lat="43.97061" lon="5.11901">
        <ele>366</ele>
        <time>2013-01-24T15:13:54.000Z</time>
      </trkpt>
      <trkpt lat="43.97062" lon="5.11893">
        <ele>365.3</ele>
        <time>2013-01-24T15:13:55.000Z</time>
      </trkpt>
      <trkpt lat="43.97062" lon="5.11886">
        <ele>364.9</ele>
        <time>2013-01-24T15:13:56.000Z</time>
      </trkpt>
      <trkpt lat="43.97065" lon="5.11879">
        <ele>365.8</ele>
        <time>2013-01-24T15:13:57.000Z</time>
      </trkpt>
      <trkpt lat="43.97067" lon="5.11872">
        <ele>366.4</ele>
        <time>2013-01-24T15:13:58.000Z</time>
      </trkpt>
      <trkpt lat="43.97066" lon="5.11863">
        <ele>365.8</ele>
        <time>2013-01-24T15:13:59.000Z</time>
      </trkpt>
      <trkpt lat="43.97066" lon="5.11854">
        <ele>365.2</ele>
        <time>2013-01-24T15:14:00.000Z</time>
      </trkpt>
      <trkpt lat="43.97065" lon="5.11847">
        <ele>364.7</ele>
        <time>2013-01-24T15:14:01.000Z</time>
      </trkpt>
      <trkpt lat="43.97066" lon="5.11841">
        <ele>363.9</ele>
        <time>2013-01-24T15:14:02.000Z</time>
      </trkpt>
      <trkpt lat="43.97068" lon="5.11838">
        <ele>365.3</ele>
        <time>2013-01-24T15:14:03.000Z</time>
      </trkpt>
      <trkpt lat="43.9707" lon="5.11834">
        <ele>365.4</ele>
        <time>2013-01-24T15:14:04.000Z</time>
      </trkpt>
      <trkpt lat="43.97072" lon="5.11831">
        <ele>365.1</ele>
        <time>2013-01-24T15:14:05.000Z</time>
      </trkpt>
      <trkpt lat="43.97075" lon="5.11829">
        <ele>365.3</ele>
        <time>2013-01-24T15:14:06.000Z</time>
      </trkpt>
      <trkpt lat="43.97079" lon="5.11829">
        <ele>365.1</ele>
        <time>2013-01-24T15:14:07.000Z</time>
      </trkpt>
      <trkpt lat="43.97083" lon="5.11829">
        <ele>364.7</ele>
        <time>2013-01-24T15:14:08.000Z</time>
      </trkpt>
      <trkpt lat="43.97086" lon="5.1183">
        <ele>364.1</ele>
        <time>2013-01-24T15:14:09.000Z</time>
      </trkpt>
      <trkpt lat="43.97089" lon="5.11829">
        <ele>364.1</ele>
        <time>2013-01-24T15:14:10.000Z</time>
      </trkpt>
      <trkpt lat="43.97093" lon="5.11829">
        <ele>363.7</ele>
        <time>2013-01-24T15:14:11.000Z</time>
      </trkpt>
      <trkpt lat="43.97097" lon="5.11829">
        <ele>363.5</ele>
        <time>2013-01-24T15:14:12.000Z</time>
      </trkpt>
      <trkpt lat="43.97102" lon="5.11828">
        <ele>363.2</ele>
        <time>2013-01-24T15:14:13.000Z</time>
      </trkpt>
      <trkpt lat="43.97107" lon="5.11827">
        <ele>362.8</ele>
        <time>2013-01-24T15:14:14.000Z</time>
      </trkpt>
      <trkpt lat="43.97112" lon="5.11826">
        <ele>362.3</ele>
        <time>2013-01-24T15:14:15.000Z</time>
      </trkpt>
      <trkpt lat="43.97116" lon="5.11826">
        <ele>362</ele>
        <time>2013-01-24T15:14:16.000Z</time>
      </trkpt>
      <trkpt lat="43.97121" lon="5.11824">
        <ele>362</ele>
        <time>2013-01-24T15:14:17.000Z</time>
      </trkpt>
      <trkpt lat="43.97125" lon="5.11823">
        <ele>361.9</ele>
        <time>2013-01-24T15:14:18.000Z</time>
      </trkpt>
      <trkpt lat="43.97124" lon="5.1182">
        <ele>362.4</ele>
        <time>2013-01-24T15:14:19.000Z</time>
      </trkpt>
      <trkpt lat="43.97127" lon="5.11818">
        <ele>362.5</ele>
        <time>2013-01-24T15:14:20.000Z</time>
      </trkpt>
      <trkpt lat="43.97129" lon="5.11815">
        <ele>362.2</ele>
        <time>2013-01-24T15:14:21.000Z</time>
      </trkpt>
      <trkpt lat="43.9713" lon="5.1181">
        <ele>363.6</ele>
        <time>2013-01-24T15:14:22.000Z</time>
      </trkpt>
      <trkpt lat="43.97131" lon="5.11806">
        <ele>364.2</ele>
        <time>2013-01-24T15:14:23.000Z</time>
      </trkpt>
      <trkpt lat="43.97132" lon="5.11803">
        <ele>364</ele>
        <time>2013-01-24T15:14:24.000Z</time>
      </trkpt>
      <trkpt lat="43.97133" lon="5.118">
        <ele>363.9</ele>
        <time>2013-01-24T15:14:25.000Z</time>
      </trkpt>
      <trkpt lat="43.97135" lon="5.11797">
        <ele>363.9</ele>
        <time>2013-01-24T15:14:26.000Z</time>
      </trkpt>
      <trkpt lat="43.97136" lon="5.11794">
        <ele>364</ele>
        <time>2013-01-24T15:14:27.000Z</time>
      </trkpt>
      <trkpt lat="43.97138" lon="5.1179">
        <ele>364.1</ele>
        <time>2013-01-24T15:14:28.000Z</time>
      </trkpt>
      <trkpt lat="43.97142" lon="5.11786">
        <ele>364.7</ele>
        <time>2013-01-24T15:14:29.000Z</time>
      </trkpt>
      <trkpt lat="43.97144" lon="5.11783">
        <ele>365.1</ele>
        <time>2013-01-24T15:14:30.000Z</time>
      </trkpt>
      <trkpt lat="43.97145" lon="5.11779">
        <ele>364.9</ele>
        <time>2013-01-24T15:14:31.000Z</time>
      </trkpt>
      <trkpt lat="43.97147" lon="5.11775">
        <ele>364.9</ele>
        <time>2013-01-24T15:14:32.000Z</time>
      </trkpt>
      <trkpt lat="43.97149" lon="5.11772">
        <ele>364.4</ele>
        <time>2013-01-24T15:14:33.000Z</time>
      </trkpt>
      <trkpt lat="43.97149" lon="5.11772">
        <ele>364.7</ele>
        <time>2013-01-24T15:14:35.000Z</time>
      </trkpt>
      <trkpt lat="43.97145" lon="5.11777">
        <ele>363.8</ele>
        <time>2013-01-24T15:14:36.000Z</time>
      </trkpt>
      <trkpt lat="43.97148" lon="5.11774">
        <ele>362</ele>
        <time>2013-01-24T15:14:44.000Z</time>
      </trkpt>
      <trkpt lat="43.9715" lon="5.11774">
        <ele>362</ele>
        <time>2013-01-24T15:14:45.000Z</time>
      </trkpt>
      <trkpt lat="43.97153" lon="5.11773">
        <ele>361.6</ele>
        <time>2013-01-24T15:14:46.000Z</time>
      </trkpt>
      <trkpt lat="43.97156" lon="5.11772">
        <ele>361.1</ele>
        <time>2013-01-24T15:14:47.000Z</time>
      </trkpt>
      <trkpt lat="43.9716" lon="5.11771">
        <ele>360.8</ele>
        <time>2013-01-24T15:14:48.000Z</time>
      </trkpt>
      <trkpt lat="43.97163" lon="5.1177">
        <ele>360.5</ele>
        <time>2013-01-24T15:14:49.000Z</time>
      </trkpt>
      <trkpt lat="43.97167" lon="5.11769">
        <ele>360.3</ele>
        <time>2013-01-24T15:14:50.000Z</time>
      </trkpt>
      <trkpt lat="43.9717" lon="5.11768">
        <ele>359.9</ele>
        <time>2013-01-24T15:14:51.000Z</time>
      </trkpt>
      <trkpt lat="43.97173" lon="5.11767">
        <ele>359.1</ele>
        <time>2013-01-24T15:14:52.000Z</time>
      </trkpt>
      <trkpt lat="43.97176" lon="5.11765">
        <ele>358.8</ele>
        <time>2013-01-24T15:14:53.000Z</time>
      </trkpt>
      <trkpt lat="43.97179" lon="5.11764">
        <ele>358.4</ele>
        <time>2013-01-24T15:14:54.000Z</time>
      </trkpt>
      <trkpt lat="43.97183" lon="5.11763">
        <ele>357.7</ele>
        <time>2013-01-24T15:14:55.000Z</time>
      </trkpt>
      <trkpt lat="43.97186" lon="5.11762">
        <ele>357</ele>
        <time>2013-01-24T15:14:56.000Z</time>
      </trkpt>
      <trkpt lat="43.9719" lon="5.11761">
        <ele>356.3</ele>
        <time>2013-01-24T15:14:57.000Z</time>
      </trkpt>
      <trkpt lat="43.97194" lon="5.1176">
        <ele>355.8</ele>
        <time>2013-01-24T15:14:58.000Z</time>
      </trkpt>
      <trkpt lat="43.97197" lon="5.11759">
        <ele>355.4</ele>
        <time>2013-01-24T15:14:59.000Z</time>
      </trkpt>
      <trkpt lat="43.97201" lon="5.11757">
        <ele>354.8</ele>
        <time>2013-01-24T15:15:00.000Z</time>
      </trkpt>
      <trkpt lat="43.97204" lon="5.11755">
        <ele>354</ele>
        <time>2013-01-24T15:15:01.000Z</time>
      </trkpt>
      <trkpt lat="43.97208" lon="5.11753">
        <ele>353.5</ele>
        <time>2013-01-24T15:15:02.000Z</time>
      </trkpt>
      <trkpt lat="43.97211" lon="5.1175">
        <ele>352.8</ele>
        <time>2013-01-24T15:15:03.000Z</time>
      </trkpt>
      <trkpt lat="43.97214" lon="5.11747">
        <ele>352.6</ele>
        <time>2013-01-24T15:15:04.000Z</time>
      </trkpt>
      <trkpt lat="43.97218" lon="5.11744">
        <ele>352.1</ele>
        <time>2013-01-24T15:15:05.000Z</time>
      </trkpt>
      <trkpt lat="43.97221" lon="5.11741">
        <ele>351.8</ele>
        <time>2013-01-24T15:15:06.000Z</time>
      </trkpt>
      <trkpt lat="43.97225" lon="5.11738">
        <ele>351.1</ele>
        <time>2013-01-24T15:15:07.000Z</time>
      </trkpt>
      <trkpt lat="43.97229" lon="5.11735">
        <ele>350.7</ele>
        <time>2013-01-24T15:15:08.000Z</time>
      </trkpt>
      <trkpt lat="43.97234" lon="5.11732">
        <ele>350.4</ele>
        <time>2013-01-24T15:15:09.000Z</time>
      </trkpt>
      <trkpt lat="43.97238" lon="5.11729">
        <ele>349.8</ele>
        <time>2013-01-24T15:15:10.000Z</time>
      </trkpt>
      <trkpt lat="43.97242" lon="5.11725">
        <ele>349.8</ele>
        <time>2013-01-24T15:15:11.000Z</time>
      </trkpt>
      <trkpt lat="43.97246" lon="5.11723">
        <ele>349.4</ele>
        <time>2013-01-24T15:15:12.000Z</time>
      </trkpt>
      <trkpt lat="43.97248" lon="5.11721">
        <ele>348.8</ele>
        <time>2013-01-24T15:15:13.000Z</time>
      </trkpt>
      <trkpt lat="43.9725" lon="5.11719">
        <ele>348.2</ele>
        <time>2013-01-24T15:15:14.000Z</time>
      </trkpt>
      <trkpt lat="43.97253" lon="5.11718">
        <ele>347.5</ele>
        <time>2013-01-24T15:15:15.000Z</time>
      </trkpt>
      <trkpt lat="43.97252" lon="5.11712">
        <ele>346.4</ele>
        <time>2013-01-24T15:17:57.000Z</time>
      </trkpt>
      <trkpt lat="43.97251" lon="5.11711">
        <ele>347.2</ele>
        <time>2013-01-24T15:17:58.000Z</time>
      </trkpt>
      <trkpt lat="43.97251" lon="5.11705">
        <ele>347.6</ele>
        <time>2013-01-24T15:18:02.000Z</time>
      </trkpt>
      <trkpt lat="43.97251" lon="5.11704">
        <ele>347.5</ele>
        <time>2013-01-24T15:18:03.000Z</time>
      </trkpt>
      <trkpt lat="43.97252" lon="5.11709">
        <ele>351.8</ele>
        <time>2013-01-24T15:18:14.000Z</time>
      </trkpt>
      <trkpt lat="43.97252" lon="5.11712">
        <ele>350.6</ele>
        <time>2013-01-24T15:18:15.000Z</time>
      </trkpt>
      <trkpt lat="43.9725" lon="5.11717">
        <ele>349.8</ele>
        <time>2013-01-24T15:18:18.000Z</time>
      </trkpt>
      <trkpt lat="43.97249" lon="5.11718">
        <ele>349.4</ele>
        <time>2013-01-24T15:18:19.000Z</time>
      </trkpt>
      <trkpt lat="43.97245" lon="5.11717">
        <ele>351.1</ele>
        <time>2013-01-24T15:18:30.000Z</time>
      </trkpt>
      <trkpt lat="43.97244" lon="5.11717">
        <ele>351</ele>
        <time>2013-01-24T15:18:31.000Z</time>
      </trkpt>
      <trkpt lat="43.97248" lon="5.11716">
        <ele>349.6</ele>
        <time>2013-01-24T15:18:35.000Z</time>
      </trkpt>
      <trkpt lat="43.97249" lon="5.11713">
        <ele>349.3</ele>
        <time>2013-01-24T15:18:36.000Z</time>
      </trkpt>
      <trkpt lat="43.97251" lon="5.11708">
        <ele>349.6</ele>
        <time>2013-01-24T15:18:38.000Z</time>
      </trkpt>
      <trkpt lat="43.97252" lon="5.11707">
        <ele>350.6</ele>
        <time>2013-01-24T15:18:39.000Z</time>
      </trkpt>
      <trkpt lat="43.97251" lon="5.11701">
        <ele>350.7</ele>
        <time>2013-01-24T15:18:42.000Z</time>
      </trkpt>
      <trkpt lat="43.97251" lon="5.11699">
        <ele>350.8</ele>
        <time>2013-01-24T15:18:43.000Z</time>
      </trkpt>
      <trkpt lat="43.97252" lon="5.11693">
        <ele>351.6</ele>
        <time>2013-01-24T15:18:46.000Z</time>
      </trkpt>
      <trkpt lat="43.97253" lon="5.11691">
        <ele>351.9</ele>
        <time>2013-01-24T15:18:47.000Z</time>
      </trkpt>
      <trkpt lat="43.97252" lon="5.11686">
        <ele>355</ele>
        <time>2013-01-24T15:18:50.000Z</time>
      </trkpt>
      <trkpt lat="43.97252" lon="5.11684">
        <ele>355.5</ele>
        <time>2013-01-24T15:18:51.000Z</time>
      </trkpt>
      <trkpt lat="43.9725" lon="5.1168">
        <ele>355.6</ele>
        <time>2013-01-24T15:18:53.000Z</time>
      </trkpt>
      <trkpt lat="43.9725" lon="5.11678">
        <ele>355.9</ele>
        <time>2013-01-24T15:18:54.000Z</time>
      </trkpt>
      <trkpt lat="43.97248" lon="5.11674">
        <ele>355.7</ele>
        <time>2013-01-24T15:18:56.000Z</time>
      </trkpt>
      <trkpt lat="43.97247" lon="5.11673">
        <ele>356</ele>
        <time>2013-01-24T15:18:57.000Z</time>
      </trkpt>
      <trkpt lat="43.97249" lon="5.11669">
        <ele>356.1</ele>
        <time>2013-01-24T15:19:00.000Z</time>
      </trkpt>
      <trkpt lat="43.9725" lon="5.11668">
        <ele>356.1</ele>
        <time>2013-01-24T15:19:01.000Z</time>
      </trkpt>
      <trkpt lat="43.97251" lon="5.11662">
        <ele>357.1</ele>
        <time>2013-01-24T15:19:05.000Z</time>
      </trkpt>
      <trkpt lat="43.97252" lon="5.11661">
        <ele>357.8</ele>
        <time>2013-01-24T15:19:06.000Z</time>
      </trkpt>
      <trkpt lat="43.97254" lon="5.11656">
        <ele>358.2</ele>
        <time>2013-01-24T15:19:09.000Z</time>
      </trkpt>
      <trkpt lat="43.97254" lon="5.11654">
        <ele>357.7</ele>
        <time>2013-01-24T15:19:10.000Z</time>
      </trkpt>
      <trkpt lat="43.97257" lon="5.1165">
        <ele>357.3</ele>
        <time>2013-01-24T15:19:20.000Z</time>
      </trkpt>
      <trkpt lat="43.97257" lon="5.11648">
        <ele>357.4</ele>
        <time>2013-01-24T15:19:21.000Z</time>
      </trkpt>
      <trkpt lat="43.9726" lon="5.11644">
        <ele>358.5</ele>
        <time>2013-01-24T15:19:25.000Z</time>
      </trkpt>
      <trkpt lat="43.9726" lon="5.11643">
        <ele>358.9</ele>
        <time>2013-01-24T15:19:26.000Z</time>
      </trkpt>
      <trkpt lat="43.97262" lon="5.11638">
        <ele>359.4</ele>
        <time>2013-01-24T15:19:32.000Z</time>
      </trkpt>
      <trkpt lat="43.97262" lon="5.11637">
        <ele>359.4</ele>
        <time>2013-01-24T15:19:33.000Z</time>
      </trkpt>
      <trkpt lat="43.97265" lon="5.11632">
        <ele>359</ele>
        <time>2013-01-24T15:19:38.000Z</time>
      </trkpt>
      <trkpt lat="43.97265" lon="5.11631">
        <ele>358.8</ele>
        <time>2013-01-24T15:19:39.000Z</time>
      </trkpt>
      <trkpt lat="43.97268" lon="5.11626">
        <ele>358.5</ele>
        <time>2013-01-24T15:19:44.000Z</time>
      </trkpt>
      <trkpt lat="43.97268" lon="5.11625">
        <ele>358.5</ele>
        <time>2013-01-24T15:19:45.000Z</time>
      </trkpt>
      <trkpt lat="43.97271" lon="5.1162">
        <ele>359.5</ele>
        <time>2013-01-24T15:19:51.000Z</time>
      </trkpt>
      <trkpt lat="43.97271" lon="5.11619">
        <ele>359.7</ele>
        <time>2013-01-24T15:19:52.000Z</time>
      </trkpt>
      <trkpt lat="43.97274" lon="5.11614">
        <ele>360.6</ele>
        <time>2013-01-24T15:19:57.000Z</time>
      </trkpt>
      <trkpt lat="43.97275" lon="5.11613">
        <ele>360.4</ele>
        <time>2013-01-24T15:19:58.000Z</time>
      </trkpt>
      <trkpt lat="43.97277" lon="5.11608">
        <ele>360.6</ele>
        <time>2013-01-24T15:20:02.000Z</time>
      </trkpt>
      <trkpt lat="43.97278" lon="5.11607">
        <ele>360.2</ele>
        <time>2013-01-24T15:20:03.000Z</time>
      </trkpt>
      <trkpt lat="43.9728" lon="5.11602">
        <ele>361.1</ele>
        <time>2013-01-24T15:20:08.000Z</time>
      </trkpt>
      <trkpt lat="43.9728" lon="5.11601">
        <ele>361.2</ele>
        <time>2013-01-24T15:20:09.000Z</time>
      </trkpt>
      <trkpt lat="43.97282" lon="5.11596">
        <ele>361.7</ele>
        <time>2013-01-24T15:20:13.000Z</time>
      </trkpt>
      <trkpt lat="43.97283" lon="5.11595">
        <ele>362.1</ele>
        <time>2013-01-24T15:20:14.000Z</time>
      </trkpt>
      <trkpt lat="43.97286" lon="5.11591">
        <ele>363.1</ele>
        <time>2013-01-24T15:20:18.000Z</time>
      </trkpt>
      <trkpt lat="43.97287" lon="5.11591">
        <ele>363.7</ele>
        <time>2013-01-24T15:20:19.000Z</time>
      </trkpt>
      <trkpt lat="43.97289" lon="5.11588">
        <ele>365.1</ele>
        <time>2013-01-24T15:20:23.000Z</time>
      </trkpt>
      <trkpt lat="43.9729" lon="5.11586">
        <ele>364.7</ele>
        <time>2013-01-24T15:20:24.000Z</time>
      </trkpt>
      <trkpt lat="43.97291" lon="5.11581">
        <ele>365</ele>
        <time>2013-01-24T15:20:28.000Z</time>
      </trkpt>
      <trkpt lat="43.97291" lon="5.1158">
        <ele>364.8</ele>
        <time>2013-01-24T15:20:29.000Z</time>
      </trkpt>
      <trkpt lat="43.97294" lon="5.11575">
        <ele>365.3</ele>
        <time>2013-01-24T15:20:33.000Z</time>
      </trkpt>
      <trkpt lat="43.97294" lon="5.11574">
        <ele>365</ele>
        <time>2013-01-24T15:20:34.000Z</time>
      </trkpt>
      <trkpt lat="43.97297" lon="5.11569">
        <ele>367.1</ele>
        <time>2013-01-24T15:20:39.000Z</time>
      </trkpt>
      <trkpt lat="43.97297" lon="5.11567">
        <ele>366.4</ele>
        <time>2013-01-24T15:20:40.000Z</time>
      </trkpt>
      <trkpt lat="43.97299" lon="5.11564">
        <ele>367</ele>
        <time>2013-01-24T15:20:44.000Z</time>
      </trkpt>
      <trkpt lat="43.973" lon="5.11563">
        <ele>367.3</ele>
        <time>2013-01-24T15:20:45.000Z</time>
      </trkpt>
      <trkpt lat="43.97303" lon="5.11559">
        <ele>367.5</ele>
        <time>2013-01-24T15:20:49.000Z</time>
      </trkpt>
      <trkpt lat="43.97304" lon="5.11558">
        <ele>367.6</ele>
        <time>2013-01-24T15:20:50.000Z</time>
      </trkpt>
      <trkpt lat="43.97306" lon="5.11553">
        <ele>368.6</ele>
        <time>2013-01-24T15:20:54.000Z</time>
      </trkpt>
      <trkpt lat="43.97307" lon="5.11552">
        <ele>369</ele>
        <time>2013-01-24T15:20:55.000Z</time>
      </trkpt>
      <trkpt lat="43.97309" lon="5.11547">
        <ele>369.3</ele>
        <time>2013-01-24T15:20:59.000Z</time>
      </trkpt>
      <trkpt lat="43.9731" lon="5.11547">
        <ele>369.3</ele>
        <time>2013-01-24T15:21:00.000Z</time>
      </trkpt>
      <trkpt lat="43.97312" lon="5.11542">
        <ele>369.7</ele>
        <time>2013-01-24T15:21:04.000Z</time>
      </trkpt>
      <trkpt lat="43.97313" lon="5.11541">
        <ele>369.7</ele>
        <time>2013-01-24T15:21:05.000Z</time>
      </trkpt>
      <trkpt lat="43.97316" lon="5.11536">
        <ele>370.7</ele>
        <time>2013-01-24T15:21:09.000Z</time>
      </trkpt>
      <trkpt lat="43.97316" lon="5.11535">
        <ele>370.7</ele>
        <time>2013-01-24T15:21:10.000Z</time>
      </trkpt>
      <trkpt lat="43.97319" lon="5.11531">
        <ele>371.1</ele>
        <time>2013-01-24T15:21:14.000Z</time>
      </trkpt>
      <trkpt lat="43.97319" lon="5.1153">
        <ele>371.6</ele>
        <time>2013-01-24T15:21:15.000Z</time>
      </trkpt>
      <trkpt lat="43.97322" lon="5.11525">
        <ele>372.6</ele>
        <time>2013-01-24T15:21:20.000Z</time>
      </trkpt>
      <trkpt lat="43.97323" lon="5.11524">
        <ele>372.8</ele>
        <time>2013-01-24T15:21:21.000Z</time>
      </trkpt>
      <trkpt lat="43.97326" lon="5.1152">
        <ele>373.3</ele>
        <time>2013-01-24T15:21:26.000Z</time>
      </trkpt>
      <trkpt lat="43.97326" lon="5.11519">
        <ele>373.4</ele>
        <time>2013-01-24T15:21:27.000Z</time>
      </trkpt>
      <trkpt lat="43.9733" lon="5.11517">
        <ele>374.1</ele>
        <time>2013-01-24T15:21:34.000Z</time>
      </trkpt>
      <trkpt lat="43.97331" lon="5.11515">
        <ele>373.5</ele>
        <time>2013-01-24T15:21:35.000Z</time>
      </trkpt>
      <trkpt lat="43.97334" lon="5.11512">
        <ele>374.2</ele>
        <time>2013-01-24T15:21:38.000Z</time>
      </trkpt>
      <trkpt lat="43.97335" lon="5.1151">
        <ele>374.4</ele>
        <time>2013-01-24T15:21:39.000Z</time>
      </trkpt>
      <trkpt lat="43.97338" lon="5.11507">
        <ele>374.6</ele>
        <time>2013-01-24T15:21:42.000Z</time>
      </trkpt>
      <trkpt lat="43.97339" lon="5.11506">
        <ele>374.7</ele>
        <time>2013-01-24T15:21:43.000Z</time>
      </trkpt>
      <trkpt lat="43.97342" lon="5.11502">
        <ele>374.9</ele>
        <time>2013-01-24T15:21:45.000Z</time>
      </trkpt>
      <trkpt lat="43.97343" lon="5.11501">
        <ele>375</ele>
        <time>2013-01-24T15:21:46.000Z</time>
      </trkpt>
      <trkpt lat="43.97346" lon="5.11498">
        <ele>374.9</ele>
        <time>2013-01-24T15:21:48.000Z</time>
      </trkpt>
      <trkpt lat="43.97348" lon="5.11496">
        <ele>374.9</ele>
        <time>2013-01-24T15:21:49.000Z</time>
      </trkpt>
      <trkpt lat="43.97351" lon="5.11493">
        <ele>375.5</ele>
        <time>2013-01-24T15:21:51.000Z</time>
      </trkpt>
      <trkpt lat="43.97352" lon="5.11492">
        <ele>375.9</ele>
        <time>2013-01-24T15:21:52.000Z</time>
      </trkpt>
      <trkpt lat="43.97356" lon="5.11488">
        <ele>376.6</ele>
        <time>2013-01-24T15:21:55.000Z</time>
      </trkpt>
      <trkpt lat="43.97357" lon="5.11486">
        <ele>376.5</ele>
        <time>2013-01-24T15:21:56.000Z</time>
      </trkpt>
      <trkpt lat="43.9736" lon="5.11484">
        <ele>377.4</ele>
        <time>2013-01-24T15:21:58.000Z</time>
      </trkpt>
      <trkpt lat="43.97361" lon="5.11482">
        <ele>377.2</ele>
        <time>2013-01-24T15:21:59.000Z</time>
      </trkpt>
      <trkpt lat="43.97364" lon="5.11478">
        <ele>377.8</ele>
        <time>2013-01-24T15:22:01.000Z</time>
      </trkpt>
      <trkpt lat="43.97365" lon="5.11476">
        <ele>377.8</ele>
        <time>2013-01-24T15:22:02.000Z</time>
      </trkpt>
      <trkpt lat="43.97367" lon="5.11473">
        <ele>377.5</ele>
        <time>2013-01-24T15:22:04.000Z</time>
      </trkpt>
      <trkpt lat="43.97368" lon="5.11471">
        <ele>377.2</ele>
        <time>2013-01-24T15:22:05.000Z</time>
      </trkpt>
      <trkpt lat="43.97371" lon="5.11468">
        <ele>378.2</ele>
        <time>2013-01-24T15:22:08.000Z</time>
      </trkpt>
      <trkpt lat="43.97371" lon="5.11466">
        <ele>377.2</ele>
        <time>2013-01-24T15:22:09.000Z</time>
      </trkpt>
      <trkpt lat="43.97373" lon="5.11462">
        <ele>377.9</ele>
        <time>2013-01-24T15:22:11.000Z</time>
      </trkpt>
      <trkpt lat="43.97374" lon="5.11461">
        <ele>378.1</ele>
        <time>2013-01-24T15:22:12.000Z</time>
      </trkpt>
      <trkpt lat="43.97376" lon="5.11458">
        <ele>377.7</ele>
        <time>2013-01-24T15:22:14.000Z</time>
      </trkpt>
      <trkpt lat="43.97378" lon="5.11457">
        <ele>377.9</ele>
        <time>2013-01-24T15:22:15.000Z</time>
      </trkpt>
      <trkpt lat="43.97381" lon="5.11455">
        <ele>378.1</ele>
        <time>2013-01-24T15:22:17.000Z</time>
      </trkpt>
      <trkpt lat="43.97382" lon="5.11454">
        <ele>378.4</ele>
        <time>2013-01-24T15:22:18.000Z</time>
      </trkpt>
      <trkpt lat="43.97386" lon="5.11452">
        <ele>378.6</ele>
        <time>2013-01-24T15:22:20.000Z</time>
      </trkpt>
      <trkpt lat="43.97388" lon="5.1145">
        <ele>378.5</ele>
        <time>2013-01-24T15:22:21.000Z</time>
      </trkpt>
      <trkpt lat="43.9739" lon="5.11448">
        <ele>378.7</ele>
        <time>2013-01-24T15:22:23.000Z</time>
      </trkpt>
      <trkpt lat="43.97392" lon="5.11448">
        <ele>379</ele>
        <time>2013-01-24T15:22:24.000Z</time>
      </trkpt>
      <trkpt lat="43.97395" lon="5.11447">
        <ele>378.7</ele>
        <time>2013-01-24T15:22:26.000Z</time>
      </trkpt>
      <trkpt lat="43.97397" lon="5.11446">
        <ele>379</ele>
        <time>2013-01-24T15:22:27.000Z</time>
      </trkpt>
      <trkpt lat="43.974" lon="5.11445">
        <ele>379.5</ele>
        <time>2013-01-24T15:22:29.000Z</time>
      </trkpt>
      <trkpt lat="43.97403" lon="5.11444">
        <ele>379.9</ele>
        <time>2013-01-24T15:22:30.000Z</time>
      </trkpt>
      <trkpt lat="43.97405" lon="5.11442">
        <ele>380.2</ele>
        <time>2013-01-24T15:22:31.000Z</time>
      </trkpt>
      <trkpt lat="43.97407" lon="5.11441">
        <ele>380.4</ele>
        <time>2013-01-24T15:22:32.000Z</time>
      </trkpt>
      <trkpt lat="43.97409" lon="5.1144">
        <ele>380.5</ele>
        <time>2013-01-24T15:22:33.000Z</time>
      </trkpt>
      <trkpt lat="43.97412" lon="5.11438">
        <ele>380.2</ele>
        <time>2013-01-24T15:22:34.000Z</time>
      </trkpt>
      <trkpt lat="43.97414" lon="5.11436">
        <ele>380.1</ele>
        <time>2013-01-24T15:22:35.000Z</time>
      </trkpt>
      <trkpt lat="43.97416" lon="5.11435">
        <ele>380.1</ele>
        <time>2013-01-24T15:22:36.000Z</time>
      </trkpt>
      <trkpt lat="43.97418" lon="5.11434">
        <ele>379.8</ele>
        <time>2013-01-24T15:22:37.000Z</time>
      </trkpt>
      <trkpt lat="43.9742" lon="5.11432">
        <ele>379.6</ele>
        <time>2013-01-24T15:22:38.000Z</time>
      </trkpt>
      <trkpt lat="43.97423" lon="5.11431">
        <ele>379.4</ele>
        <time>2013-01-24T15:22:39.000Z</time>
      </trkpt>
      <trkpt lat="43.97425" lon="5.1143">
        <ele>379.5</ele>
        <time>2013-01-24T15:22:40.000Z</time>
      </trkpt>
      <trkpt lat="43.97428" lon="5.11428">
        <ele>380.2</ele>
        <time>2013-01-24T15:22:42.000Z</time>
      </trkpt>
      <trkpt lat="43.9743" lon="5.11428">
        <ele>380.3</ele>
        <time>2013-01-24T15:22:43.000Z</time>
      </trkpt>
      <trkpt lat="43.97434" lon="5.11425">
        <ele>381.2</ele>
        <time>2013-01-24T15:22:46.000Z</time>
      </trkpt>
      <trkpt lat="43.97435" lon="5.11425">
        <ele>381</ele>
        <time>2013-01-24T15:22:47.000Z</time>
      </trkpt>
      <trkpt lat="43.97438" lon="5.11423">
        <ele>381.1</ele>
        <time>2013-01-24T15:22:49.000Z</time>
      </trkpt>
      <trkpt lat="43.97439" lon="5.11423">
        <ele>381.2</ele>
        <time>2013-01-24T15:22:50.000Z</time>
      </trkpt>
      <trkpt lat="43.97442" lon="5.11422">
        <ele>382</ele>
        <time>2013-01-24T15:22:52.000Z</time>
      </trkpt>
      <trkpt lat="43.97444" lon="5.11422">
        <ele>382.2</ele>
        <time>2013-01-24T15:22:53.000Z</time>
      </trkpt>
      <trkpt lat="43.97447" lon="5.11421">
        <ele>382.6</ele>
        <time>2013-01-24T15:22:55.000Z</time>
      </trkpt>
      <trkpt lat="43.97448" lon="5.1142">
        <ele>382.4</ele>
        <time>2013-01-24T15:22:56.000Z</time>
      </trkpt>
      <trkpt lat="43.97451" lon="5.11418">
        <ele>382.7</ele>
        <time>2013-01-24T15:22:58.000Z</time>
      </trkpt>
      <trkpt lat="43.97453" lon="5.11418">
        <ele>383.1</ele>
        <time>2013-01-24T15:22:59.000Z</time>
      </trkpt>
      <trkpt lat="43.97456" lon="5.11415">
        <ele>383.6</ele>
        <time>2013-01-24T15:23:01.000Z</time>
      </trkpt>
      <trkpt lat="43.97457" lon="5.11415">
        <ele>383.8</ele>
        <time>2013-01-24T15:23:02.000Z</time>
      </trkpt>
      <trkpt lat="43.97461" lon="5.11413">
        <ele>383.9</ele>
        <time>2013-01-24T15:23:04.000Z</time>
      </trkpt>
      <trkpt lat="43.97462" lon="5.11412">
        <ele>384.1</ele>
        <time>2013-01-24T15:23:05.000Z</time>
      </trkpt>
      <trkpt lat="43.97465" lon="5.11411">
        <ele>384.3</ele>
        <time>2013-01-24T15:23:07.000Z</time>
      </trkpt>
      <trkpt lat="43.97467" lon="5.11409">
        <ele>384.5</ele>
        <time>2013-01-24T15:23:08.000Z</time>
      </trkpt>
      <trkpt lat="43.97469" lon="5.11407">
        <ele>384.9</ele>
        <time>2013-01-24T15:23:10.000Z</time>
      </trkpt>
      <trkpt lat="43.9747" lon="5.11405">
        <ele>384.8</ele>
        <time>2013-01-24T15:23:11.000Z</time>
      </trkpt>
      <trkpt lat="43.97473" lon="5.11402">
        <ele>384.8</ele>
        <time>2013-01-24T15:23:13.000Z</time>
      </trkpt>
      <trkpt lat="43.97474" lon="5.11401">
        <ele>384.7</ele>
        <time>2013-01-24T15:23:14.000Z</time>
      </trkpt>
      <trkpt lat="43.97476" lon="5.11398">
        <ele>384.8</ele>
        <time>2013-01-24T15:23:16.000Z</time>
      </trkpt>
      <trkpt lat="43.97478" lon="5.11396">
        <ele>385.2</ele>
        <time>2013-01-24T15:23:17.000Z</time>
      </trkpt>
      <trkpt lat="43.9748" lon="5.11392">
        <ele>385.8</ele>
        <time>2013-01-24T15:23:19.000Z</time>
      </trkpt>
      <trkpt lat="43.97481" lon="5.11391">
        <ele>385.8</ele>
        <time>2013-01-24T15:23:20.000Z</time>
      </trkpt>
      <trkpt lat="43.97483" lon="5.11386">
        <ele>385.4</ele>
        <time>2013-01-24T15:23:23.000Z</time>
      </trkpt>
      <trkpt lat="43.97484" lon="5.11384">
        <ele>385.2</ele>
        <time>2013-01-24T15:23:24.000Z</time>
      </trkpt>
      <trkpt lat="43.97486" lon="5.11379">
        <ele>384.7</ele>
        <time>2013-01-24T15:23:28.000Z</time>
      </trkpt>
      <trkpt lat="43.97487" lon="5.11379">
        <ele>384.9</ele>
        <time>2013-01-24T15:23:29.000Z</time>
      </trkpt>
      <trkpt lat="43.97489" lon="5.11374">
        <ele>386.1</ele>
        <time>2013-01-24T15:23:33.000Z</time>
      </trkpt>
      <trkpt lat="43.9749" lon="5.11373">
        <ele>386.1</ele>
        <time>2013-01-24T15:23:34.000Z</time>
      </trkpt>
      <trkpt lat="43.97492" lon="5.1137">
        <ele>385.7</ele>
        <time>2013-01-24T15:23:35.000Z</time>
      </trkpt>
      <trkpt lat="43.97493" lon="5.11367">
        <ele>386.2</ele>
        <time>2013-01-24T15:23:36.000Z</time>
      </trkpt>
      <trkpt lat="43.97494" lon="5.11365">
        <ele>387.1</ele>
        <time>2013-01-24T15:23:37.000Z</time>
      </trkpt>
      <trkpt lat="43.97496" lon="5.11363">
        <ele>389.7</ele>
        <time>2013-01-24T15:23:38.000Z</time>
      </trkpt>
      <trkpt lat="43.97498" lon="5.11361">
        <ele>390.8</ele>
        <time>2013-01-24T15:23:39.000Z</time>
      </trkpt>
      <trkpt lat="43.975" lon="5.11358">
        <ele>390.1</ele>
        <time>2013-01-24T15:23:40.000Z</time>
      </trkpt>
      <trkpt lat="43.97504" lon="5.11358">
        <ele>394.7</ele>
        <time>2013-01-24T15:23:43.000Z</time>
      </trkpt>
      <trkpt lat="43.97507" lon="5.11357">
        <ele>394.6</ele>
        <time>2013-01-24T15:23:44.000Z</time>
      </trkpt>
      <trkpt lat="43.97509" lon="5.11356">
        <ele>393.8</ele>
        <time>2013-01-24T15:23:45.000Z</time>
      </trkpt>
      <trkpt lat="43.97512" lon="5.11354">
        <ele>393.2</ele>
        <time>2013-01-24T15:23:46.000Z</time>
      </trkpt>
      <trkpt lat="43.97515" lon="5.11353">
        <ele>392.9</ele>
        <time>2013-01-24T15:23:47.000Z</time>
      </trkpt>
      <trkpt lat="43.97518" lon="5.11351">
        <ele>393.3</ele>
        <time>2013-01-24T15:23:48.000Z</time>
      </trkpt>
      <trkpt lat="43.97522" lon="5.11349">
        <ele>394.4</ele>
        <time>2013-01-24T15:23:49.000Z</time>
      </trkpt>
      <trkpt lat="43.97525" lon="5.11349">
        <ele>396.7</ele>
        <time>2013-01-24T15:23:50.000Z</time>
      </trkpt>
      <trkpt lat="43.9753" lon="5.11347">
        <ele>395.4</ele>
        <time>2013-01-24T15:23:51.000Z</time>
      </trkpt>
      <trkpt lat="43.97533" lon="5.11346">
        <ele>395.9</ele>
        <time>2013-01-24T15:23:52.000Z</time>
      </trkpt>
      <trkpt lat="43.97537" lon="5.11346">
        <ele>396.4</ele>
        <time>2013-01-24T15:23:53.000Z</time>
      </trkpt>
      <trkpt lat="43.97542" lon="5.11344">
        <ele>396.3</ele>
        <time>2013-01-24T15:23:54.000Z</time>
      </trkpt>
      <trkpt lat="43.97545" lon="5.11341">
        <ele>396.6</ele>
        <time>2013-01-24T15:23:55.000Z</time>
      </trkpt>
      <trkpt lat="43.97549" lon="5.1134">
        <ele>396.3</ele>
        <time>2013-01-24T15:23:56.000Z</time>
      </trkpt>
      <trkpt lat="43.97554" lon="5.11338">
        <ele>396.8</ele>
        <time>2013-01-24T15:23:57.000Z</time>
      </trkpt>
      <trkpt lat="43.97556" lon="5.11335">
        <ele>394.5</ele>
        <time>2013-01-24T15:23:58.000Z</time>
      </trkpt>
      <trkpt lat="43.97559" lon="5.11332">
        <ele>393.6</ele>
        <time>2013-01-24T15:23:59.000Z</time>
      </trkpt>
      <trkpt lat="43.97562" lon="5.1133">
        <ele>392.8</ele>
        <time>2013-01-24T15:24:00.000Z</time>
      </trkpt>
      <trkpt lat="43.97565" lon="5.11326">
        <ele>391.5</ele>
        <time>2013-01-24T15:24:01.000Z</time>
      </trkpt>
      <trkpt lat="43.97568" lon="5.11321">
        <ele>389.1</ele>
        <time>2013-01-24T15:24:02.000Z</time>
      </trkpt>
      <trkpt lat="43.97571" lon="5.11317">
        <ele>387.9</ele>
        <time>2013-01-24T15:24:03.000Z</time>
      </trkpt>
      <trkpt lat="43.97573" lon="5.11316">
        <ele>387.4</ele>
        <time>2013-01-24T15:24:04.000Z</time>
      </trkpt>
      <trkpt lat="43.97576" lon="5.11313">
        <ele>386.7</ele>
        <time>2013-01-24T15:24:05.000Z</time>
      </trkpt>
      <trkpt lat="43.97579" lon="5.1131">
        <ele>386.4</ele>
        <time>2013-01-24T15:24:06.000Z</time>
      </trkpt>
      <trkpt lat="43.97582" lon="5.11307">
        <ele>386.3</ele>
        <time>2013-01-24T15:24:07.000Z</time>
      </trkpt>
      <trkpt lat="43.97585" lon="5.11305">
        <ele>386.3</ele>
        <time>2013-01-24T15:24:08.000Z</time>
      </trkpt>
      <trkpt lat="43.97588" lon="5.11303">
        <ele>385.7</ele>
        <time>2013-01-24T15:24:09.000Z</time>
      </trkpt>
      <trkpt lat="43.97592" lon="5.113">
        <ele>385.7</ele>
        <time>2013-01-24T15:24:10.000Z</time>
      </trkpt>
      <trkpt lat="43.97594" lon="5.11298">
        <ele>385.1</ele>
        <time>2013-01-24T15:24:11.000Z</time>
      </trkpt>
      <trkpt lat="43.97597" lon="5.11296">
        <ele>384.9</ele>
        <time>2013-01-24T15:24:12.000Z</time>
      </trkpt>
      <trkpt lat="43.976" lon="5.11293">
        <ele>384.9</ele>
        <time>2013-01-24T15:24:13.000Z</time>
      </trkpt>
      <trkpt lat="43.97602" lon="5.11292">
        <ele>384.6</ele>
        <time>2013-01-24T15:24:14.000Z</time>
      </trkpt>
      <trkpt lat="43.97604" lon="5.1129">
        <ele>384.6</ele>
        <time>2013-01-24T15:24:15.000Z</time>
      </trkpt>
      <trkpt lat="43.97607" lon="5.11288">
        <ele>384.1</ele>
        <time>2013-01-24T15:24:16.000Z</time>
      </trkpt>
      <trkpt lat="43.97609" lon="5.11287">
        <ele>384</ele>
        <time>2013-01-24T15:24:17.000Z</time>
      </trkpt>
      <trkpt lat="43.97611" lon="5.11285">
        <ele>383.6</ele>
        <time>2013-01-24T15:24:18.000Z</time>
      </trkpt>
      <trkpt lat="43.97613" lon="5.11283">
        <ele>383.5</ele>
        <time>2013-01-24T15:24:19.000Z</time>
      </trkpt>
      <trkpt lat="43.97615" lon="5.11281">
        <ele>383.5</ele>
        <time>2013-01-24T15:24:20.000Z</time>
      </trkpt>
      <trkpt lat="43.97617" lon="5.11279">
        <ele>383.5</ele>
        <time>2013-01-24T15:24:21.000Z</time>
      </trkpt>
      <trkpt lat="43.97619" lon="5.11278">
        <ele>384.5</ele>
        <time>2013-01-24T15:24:22.000Z</time>
      </trkpt>
      <trkpt lat="43.97622" lon="5.11277">
        <ele>385.3</ele>
        <time>2013-01-24T15:24:23.000Z</time>
      </trkpt>
      <trkpt lat="43.97625" lon="5.11279">
        <ele>387</ele>
        <time>2013-01-24T15:24:24.000Z</time>
      </trkpt>
      <trkpt lat="43.97627" lon="5.1128">
        <ele>389</ele>
        <time>2013-01-24T15:24:25.000Z</time>
      </trkpt>
      <trkpt lat="43.9763" lon="5.11279">
        <ele>389.5</ele>
        <time>2013-01-24T15:24:26.000Z</time>
      </trkpt>
      <trkpt lat="43.97632" lon="5.11279">
        <ele>388.9</ele>
        <time>2013-01-24T15:24:27.000Z</time>
      </trkpt>
      <trkpt lat="43.97635" lon="5.11277">
        <ele>388.8</ele>
        <time>2013-01-24T15:24:28.000Z</time>
      </trkpt>
      <trkpt lat="43.9764" lon="5.11277">
        <ele>388.4</ele>
        <time>2013-01-24T15:24:29.000Z</time>
      </trkpt>
      <trkpt lat="43.97641" lon="5.11273">
        <ele>391.8</ele>
        <time>2013-01-24T15:24:30.000Z</time>
      </trkpt>
      <trkpt lat="43.97642" lon="5.1127">
        <ele>390.3</ele>
        <time>2013-01-24T15:24:31.000Z</time>
      </trkpt>
      <trkpt lat="43.97643" lon="5.11267">
        <ele>388.8</ele>
        <time>2013-01-24T15:24:32.000Z</time>
      </trkpt>
      <trkpt lat="43.97646" lon="5.11264">
        <ele>387.6</ele>
        <time>2013-01-24T15:24:33.000Z</time>
      </trkpt>
      <trkpt lat="43.9765" lon="5.11261">
        <ele>387.3</ele>
        <time>2013-01-24T15:24:34.000Z</time>
      </trkpt>
      <trkpt lat="43.97653" lon="5.11259">
        <ele>386.2</ele>
        <time>2013-01-24T15:24:35.000Z</time>
      </trkpt>
      <trkpt lat="43.97656" lon="5.11257">
        <ele>384.9</ele>
        <time>2013-01-24T15:24:36.000Z</time>
      </trkpt>
      <trkpt lat="43.9766" lon="5.11255">
        <ele>384.3</ele>
        <time>2013-01-24T15:24:37.000Z</time>
      </trkpt>
      <trkpt lat="43.97664" lon="5.11254">
        <ele>383.4</ele>
        <time>2013-01-24T15:24:38.000Z</time>
      </trkpt>
      <trkpt lat="43.97669" lon="5.11252">
        <ele>383.2</ele>
        <time>2013-01-24T15:24:39.000Z</time>
      </trkpt>
      <trkpt lat="43.97673" lon="5.11251">
        <ele>382.2</ele>
        <time>2013-01-24T15:24:40.000Z</time>
      </trkpt>
      <trkpt lat="43.97677" lon="5.1125">
        <ele>381.6</ele>
        <time>2013-01-24T15:24:41.000Z</time>
      </trkpt>
      <trkpt lat="43.97682" lon="5.11249">
        <ele>381.3</ele>
        <time>2013-01-24T15:24:42.000Z</time>
      </trkpt>
      <trkpt lat="43.97687" lon="5.11246">
        <ele>378.4</ele>
        <time>2013-01-24T15:24:43.000Z</time>
      </trkpt>
      <trkpt lat="43.97692" lon="5.11245">
        <ele>379</ele>
        <time>2013-01-24T15:24:44.000Z</time>
      </trkpt>
      <trkpt lat="43.97697" lon="5.11243">
        <ele>378.3</ele>
        <time>2013-01-24T15:24:45.000Z</time>
      </trkpt>
      <trkpt lat="43.97702" lon="5.11242">
        <ele>377.5</ele>
        <time>2013-01-24T15:24:46.000Z</time>
      </trkpt>
      <trkpt lat="43.97708" lon="5.11239">
        <ele>376.9</ele>
        <time>2013-01-24T15:24:47.000Z</time>
      </trkpt>
      <trkpt lat="43.97714" lon="5.11238">
        <ele>376.7</ele>
        <time>2013-01-24T15:24:48.000Z</time>
      </trkpt>
      <trkpt lat="43.97721" lon="5.11237">
        <ele>375.4</ele>
        <time>2013-01-24T15:24:49.000Z</time>
      </trkpt>
      <trkpt lat="43.97727" lon="5.11235">
        <ele>374.5</ele>
        <time>2013-01-24T15:24:50.000Z</time>
      </trkpt>
      <trkpt lat="43.97733" lon="5.11232">
        <ele>373.4</ele>
        <time>2013-01-24T15:24:51.000Z</time>
      </trkpt>
      <trkpt lat="43.9774" lon="5.1123">
        <ele>372.2</ele>
        <time>2013-01-24T15:24:52.000Z</time>
      </trkpt>
      <trkpt lat="43.97745" lon="5.11229">
        <ele>371.8</ele>
        <time>2013-01-24T15:24:53.000Z</time>
      </trkpt>
      <trkpt lat="43.97752" lon="5.11228">
        <ele>371</ele>
        <time>2013-01-24T15:24:54.000Z</time>
      </trkpt>
      <trkpt lat="43.9776" lon="5.11226">
        <ele>370.9</ele>
        <time>2013-01-24T15:24:55.000Z</time>
      </trkpt>
      <trkpt lat="43.97768" lon="5.11223">
        <ele>369.7</ele>
        <time>2013-01-24T15:24:56.000Z</time>
      </trkpt>
      <trkpt lat="43.97775" lon="5.11221">
        <ele>369</ele>
        <time>2013-01-24T15:24:57.000Z</time>
      </trkpt>
      <trkpt lat="43.97783" lon="5.11218">
        <ele>368.2</ele>
        <time>2013-01-24T15:24:58.000Z</time>
      </trkpt>
      <trkpt lat="43.9779" lon="5.11216">
        <ele>367.1</ele>
        <time>2013-01-24T15:24:59.000Z</time>
      </trkpt>
      <trkpt lat="43.97798" lon="5.11212">
        <ele>366.5</ele>
        <time>2013-01-24T15:25:00.000Z</time>
      </trkpt>
      <trkpt lat="43.97806" lon="5.11208">
        <ele>366</ele>
        <time>2013-01-24T15:25:01.000Z</time>
      </trkpt>
      <trkpt lat="43.97814" lon="5.11203">
        <ele>365.9</ele>
        <time>2013-01-24T15:25:02.000Z</time>
      </trkpt>
      <trkpt lat="43.97821" lon="5.11198">
        <ele>365.7</ele>
        <time>2013-01-24T15:25:03.000Z</time>
      </trkpt>
      <trkpt lat="43.97827" lon="5.11193">
        <ele>365.6</ele>
        <time>2013-01-24T15:25:04.000Z</time>
      </trkpt>
      <trkpt lat="43.97834" lon="5.11188">
        <ele>365.5</ele>
        <time>2013-01-24T15:25:05.000Z</time>
      </trkpt>
      <trkpt lat="43.97841" lon="5.11183">
        <ele>365.1</ele>
        <time>2013-01-24T15:25:06.000Z</time>
      </trkpt>
      <trkpt lat="43.97848" lon="5.11178">
        <ele>364.9</ele>
        <time>2013-01-24T15:25:07.000Z</time>
      </trkpt>
      <trkpt lat="43.97855" lon="5.11172">
        <ele>363.8</ele>
        <time>2013-01-24T15:25:08.000Z</time>
      </trkpt>
      <trkpt lat="43.97861" lon="5.11168">
        <ele>363.8</ele>
        <time>2013-01-24T15:25:09.000Z</time>
      </trkpt>
      <trkpt lat="43.97867" lon="5.11163">
        <ele>363.6</ele>
        <time>2013-01-24T15:25:10.000Z</time>
      </trkpt>
      <trkpt lat="43.97872" lon="5.11159">
        <ele>363.6</ele>
        <time>2013-01-24T15:25:11.000Z</time>
      </trkpt>
      <trkpt lat="43.97876" lon="5.11155">
        <ele>363.7</ele>
        <time>2013-01-24T15:25:12.000Z</time>
      </trkpt>
      <trkpt lat="43.9788" lon="5.11153">
        <ele>363.6</ele>
        <time>2013-01-24T15:25:13.000Z</time>
      </trkpt>
      <trkpt lat="43.97882" lon="5.1115">
        <ele>363.4</ele>
        <time>2013-01-24T15:25:14.000Z</time>
      </trkpt>
      <trkpt lat="43.97885" lon="5.11148">
        <ele>363.1</ele>
        <time>2013-01-24T15:25:15.000Z</time>
      </trkpt>
      <trkpt lat="43.97888" lon="5.11147">
        <ele>362.8</ele>
        <time>2013-01-24T15:25:16.000Z</time>
      </trkpt>
      <trkpt lat="43.9789" lon="5.11145">
        <ele>362.6</ele>
        <time>2013-01-24T15:25:17.000Z</time>
      </trkpt>
      <trkpt lat="43.97893" lon="5.11143">
        <ele>362.7</ele>
        <time>2013-01-24T15:25:18.000Z</time>
      </trkpt>
      <trkpt lat="43.97895" lon="5.11141">
        <ele>362.5</ele>
        <time>2013-01-24T15:25:19.000Z</time>
      </trkpt>
      <trkpt lat="43.97898" lon="5.11139">
        <ele>362.5</ele>
        <time>2013-01-24T15:25:20.000Z</time>
      </trkpt>
      <trkpt lat="43.979" lon="5.11136">
        <ele>362.5</ele>
        <time>2013-01-24T15:25:22.000Z</time>
      </trkpt>
      <trkpt lat="43.97899" lon="5.11133">
        <ele>362.4</ele>
        <time>2013-01-24T15:25:23.000Z</time>
      </trkpt>
      <trkpt lat="43.97898" lon="5.1113">
        <ele>362.8</ele>
        <time>2013-01-24T15:25:24.000Z</time>
      </trkpt>
      <trkpt lat="43.97895" lon="5.11127">
        <ele>364.8</ele>
        <time>2013-01-24T15:25:25.000Z</time>
      </trkpt>
      <trkpt lat="43.97888" lon="5.11127">
        <ele>368</ele>
        <time>2013-01-24T15:25:26.000Z</time>
      </trkpt>
      <trkpt lat="43.97883" lon="5.11104">
        <ele>372.3</ele>
        <time>2013-01-24T15:25:27.000Z</time>
      </trkpt>
      <trkpt lat="43.97888" lon="5.11119">
        <ele>373.1</ele>
        <time>2013-01-24T15:25:28.000Z</time>
      </trkpt>
      <trkpt lat="43.97888" lon="5.11122">
        <ele>373.2</ele>
        <time>2013-01-24T15:25:29.000Z</time>
      </trkpt>
      <trkpt lat="43.97883" lon="5.11119">
        <ele>372.9</ele>
        <time>2013-01-24T15:25:30.000Z</time>
      </trkpt>
      <trkpt lat="43.9788" lon="5.11124">
        <ele>372.4</ele>
        <time>2013-01-24T15:25:31.000Z</time>
      </trkpt>
      <trkpt lat="43.97876" lon="5.11129">
        <ele>372.4</ele>
        <time>2013-01-24T15:25:32.000Z</time>
      </trkpt>
      <trkpt lat="43.97866" lon="5.11129">
        <ele>372.4</ele>
        <time>2013-01-24T15:25:33.000Z</time>
      </trkpt>
      <trkpt lat="43.9786" lon="5.11129">
        <ele>372.3</ele>
        <time>2013-01-24T15:25:34.000Z</time>
      </trkpt>
      <trkpt lat="43.97856" lon="5.11128">
        <ele>372.3</ele>
        <time>2013-01-24T15:25:35.000Z</time>
      </trkpt>
      <trkpt lat="43.97882" lon="5.11102">
        <ele>390.9</ele>
        <time>2013-01-24T15:25:36.000Z</time>
      </trkpt>
      <trkpt lat="43.9788" lon="5.11098">
        <ele>389.2</ele>
        <time>2013-01-24T15:25:37.000Z</time>
      </trkpt>
      <trkpt lat="43.97879" lon="5.11093">
        <ele>387.3</ele>
        <time>2013-01-24T15:25:38.000Z</time>
      </trkpt>
      <trkpt lat="43.97878" lon="5.11087">
        <ele>386.4</ele>
        <time>2013-01-24T15:25:39.000Z</time>
      </trkpt>
      <trkpt lat="43.97876" lon="5.1108">
        <ele>382.9</ele>
        <time>2013-01-24T15:25:40.000Z</time>
      </trkpt>
      <trkpt lat="43.97874" lon="5.11072">
        <ele>380.1</ele>
        <time>2013-01-24T15:25:41.000Z</time>
      </trkpt>
      <trkpt lat="43.97871" lon="5.11064">
        <ele>378.5</ele>
        <time>2013-01-24T15:25:42.000Z</time>
      </trkpt>
      <trkpt lat="43.97868" lon="5.11055">
        <ele>376.7</ele>
        <time>2013-01-24T15:25:43.000Z</time>
      </trkpt>
      <trkpt lat="43.97865" lon="5.11046">
        <ele>374.6</ele>
        <time>2013-01-24T15:25:44.000Z</time>
      </trkpt>
      <trkpt lat="43.97861" lon="5.11038">
        <ele>371.9</ele>
        <time>2013-01-24T15:25:45.000Z</time>
      </trkpt>
      <trkpt lat="43.97858" lon="5.11028">
        <ele>370.1</ele>
        <time>2013-01-24T15:25:46.000Z</time>
      </trkpt>
      <trkpt lat="43.97855" lon="5.11019">
        <ele>368.5</ele>
        <time>2013-01-24T15:25:47.000Z</time>
      </trkpt>
      <trkpt lat="43.97852" lon="5.11013">
        <ele>367.1</ele>
        <time>2013-01-24T15:25:48.000Z</time>
      </trkpt>
      <trkpt lat="43.97849" lon="5.11007">
        <ele>365.7</ele>
        <time>2013-01-24T15:25:49.000Z</time>
      </trkpt>
      <trkpt lat="43.97848" lon="5.11002">
        <ele>364.8</ele>
        <time>2013-01-24T15:25:50.000Z</time>
      </trkpt>
      <trkpt lat="43.97849" lon="5.10997">
        <ele>363.6</ele>
        <time>2013-01-24T15:25:51.000Z</time>
      </trkpt>
      <trkpt lat="43.9785" lon="5.10992">
        <ele>362.1</ele>
        <time>2013-01-24T15:25:52.000Z</time>
      </trkpt>
      <trkpt lat="43.97853" lon="5.10989">
        <ele>361.4</ele>
        <time>2013-01-24T15:25:53.000Z</time>
      </trkpt>
      <trkpt lat="43.97856" lon="5.10985">
        <ele>360.7</ele>
        <time>2013-01-24T15:25:54.000Z</time>
      </trkpt>
      <trkpt lat="43.97861" lon="5.10981">
        <ele>360.2</ele>
        <time>2013-01-24T15:25:55.000Z</time>
      </trkpt>
      <trkpt lat="43.97865" lon="5.10977">
        <ele>359.8</ele>
        <time>2013-01-24T15:25:56.000Z</time>
      </trkpt>
      <trkpt lat="43.97868" lon="5.10975">
        <ele>360.5</ele>
        <time>2013-01-24T15:25:57.000Z</time>
      </trkpt>
      <trkpt lat="43.97872" lon="5.10971">
        <ele>360.1</ele>
        <time>2013-01-24T15:25:58.000Z</time>
      </trkpt>
      <trkpt lat="43.97875" lon="5.10968">
        <ele>360.3</ele>
        <time>2013-01-24T15:25:59.000Z</time>
      </trkpt>
      <trkpt lat="43.97878" lon="5.10967">
        <ele>360.3</ele>
        <time>2013-01-24T15:26:00.000Z</time>
      </trkpt>
      <trkpt lat="43.97879" lon="5.1096">
        <ele>356.6</ele>
        <time>2013-01-24T15:26:01.000Z</time>
      </trkpt>
      <trkpt lat="43.97881" lon="5.10956">
        <ele>355.7</ele>
        <time>2013-01-24T15:26:02.000Z</time>
      </trkpt>
      <trkpt lat="43.97882" lon="5.10951">
        <ele>354.2</ele>
        <time>2013-01-24T15:26:03.000Z</time>
      </trkpt>
      <trkpt lat="43.97882" lon="5.10946">
        <ele>353</ele>
        <time>2013-01-24T15:26:04.000Z</time>
      </trkpt>
      <trkpt lat="43.97882" lon="5.10941">
        <ele>352</ele>
        <time>2013-01-24T15:26:05.000Z</time>
      </trkpt>
      <trkpt lat="43.97882" lon="5.10936">
        <ele>351.3</ele>
        <time>2013-01-24T15:26:06.000Z</time>
      </trkpt>
      <trkpt lat="43.97881" lon="5.10931">
        <ele>351.1</ele>
        <time>2013-01-24T15:26:07.000Z</time>
      </trkpt>
      <trkpt lat="43.9788" lon="5.10928">
        <ele>351.1</ele>
        <time>2013-01-24T15:26:08.000Z</time>
      </trkpt>
      <trkpt lat="43.9788" lon="5.10924">
        <ele>350.2</ele>
        <time>2013-01-24T15:26:09.000Z</time>
      </trkpt>
      <trkpt lat="43.97879" lon="5.10918">
        <ele>349.9</ele>
        <time>2013-01-24T15:26:11.000Z</time>
      </trkpt>
      <trkpt lat="43.97879" lon="5.10914">
        <ele>350.1</ele>
        <time>2013-01-24T15:26:12.000Z</time>
      </trkpt>
      <trkpt lat="43.97879" lon="5.10909">
        <ele>350.2</ele>
        <time>2013-01-24T15:26:13.000Z</time>
      </trkpt>
      <trkpt lat="43.97878" lon="5.10905">
        <ele>350.5</ele>
        <time>2013-01-24T15:26:14.000Z</time>
      </trkpt>
      <trkpt lat="43.97878" lon="5.109">
        <ele>350.4</ele>
        <time>2013-01-24T15:26:15.000Z</time>
      </trkpt>
      <trkpt lat="43.97879" lon="5.10896">
        <ele>350.3</ele>
        <time>2013-01-24T15:26:16.000Z</time>
      </trkpt>
      <trkpt lat="43.97879" lon="5.10891">
        <ele>350.8</ele>
        <time>2013-01-24T15:26:17.000Z</time>
      </trkpt>
      <trkpt lat="43.97879" lon="5.10888">
        <ele>350.9</ele>
        <time>2013-01-24T15:26:18.000Z</time>
      </trkpt>
      <trkpt lat="43.9788" lon="5.10884">
        <ele>351.4</ele>
        <time>2013-01-24T15:26:19.000Z</time>
      </trkpt>
      <trkpt lat="43.9788" lon="5.10881">
        <ele>351.3</ele>
        <time>2013-01-24T15:26:20.000Z</time>
      </trkpt>
      <trkpt lat="43.97881" lon="5.10877">
        <ele>351.4</ele>
        <time>2013-01-24T15:26:21.000Z</time>
      </trkpt>
      <trkpt lat="43.97881" lon="5.10873">
        <ele>351.4</ele>
        <time>2013-01-24T15:26:22.000Z</time>
      </trkpt>
      <trkpt lat="43.97882" lon="5.1087">
        <ele>351.1</ele>
        <time>2013-01-24T15:26:23.000Z</time>
      </trkpt>
      <trkpt lat="43.97883" lon="5.10867">
        <ele>351.4</ele>
        <time>2013-01-24T15:26:24.000Z</time>
      </trkpt>
      <trkpt lat="43.97885" lon="5.10864">
        <ele>351.7</ele>
        <time>2013-01-24T15:26:25.000Z</time>
      </trkpt>
      <trkpt lat="43.97886" lon="5.10861">
        <ele>351.4</ele>
        <time>2013-01-24T15:26:26.000Z</time>
      </trkpt>
      <trkpt lat="43.97887" lon="5.10858">
        <ele>351.4</ele>
        <time>2013-01-24T15:26:27.000Z</time>
      </trkpt>
      <trkpt lat="43.97889" lon="5.10855">
        <ele>351.5</ele>
        <time>2013-01-24T15:26:28.000Z</time>
      </trkpt>
      <trkpt lat="43.97891" lon="5.10852">
        <ele>351.5</ele>
        <time>2013-01-24T15:26:29.000Z</time>
      </trkpt>
      <trkpt lat="43.97893" lon="5.10849">
        <ele>351.9</ele>
        <time>2013-01-24T15:26:30.000Z</time>
      </trkpt>
      <trkpt lat="43.97894" lon="5.10847">
        <ele>352.7</ele>
        <time>2013-01-24T15:26:31.000Z</time>
      </trkpt>
      <trkpt lat="43.97897" lon="5.10845">
        <ele>352.3</ele>
        <time>2013-01-24T15:26:32.000Z</time>
      </trkpt>
      <trkpt lat="43.97899" lon="5.10843">
        <ele>352.5</ele>
        <time>2013-01-24T15:26:33.000Z</time>
      </trkpt>
      <trkpt lat="43.97901" lon="5.10841">
        <ele>352.2</ele>
        <time>2013-01-24T15:26:34.000Z</time>
      </trkpt>
      <trkpt lat="43.97904" lon="5.10839">
        <ele>351.9</ele>
        <time>2013-01-24T15:26:35.000Z</time>
      </trkpt>
      <trkpt lat="43.97907" lon="5.10838">
        <ele>352</ele>
        <time>2013-01-24T15:26:36.000Z</time>
      </trkpt>
      <trkpt lat="43.9791" lon="5.10836">
        <ele>351.9</ele>
        <time>2013-01-24T15:26:37.000Z</time>
      </trkpt>
      <trkpt lat="43.97912" lon="5.10835">
        <ele>351.9</ele>
        <time>2013-01-24T15:26:38.000Z</time>
      </trkpt>
      <trkpt lat="43.97916" lon="5.10832">
        <ele>353.6</ele>
        <time>2013-01-24T15:26:40.000Z</time>
      </trkpt>
      <trkpt lat="43.97918" lon="5.10831">
        <ele>353.4</ele>
        <time>2013-01-24T15:26:41.000Z</time>
      </trkpt>
      <trkpt lat="43.97921" lon="5.1083">
        <ele>353.9</ele>
        <time>2013-01-24T15:26:42.000Z</time>
      </trkpt>
      <trkpt lat="43.97924" lon="5.10829">
        <ele>353.6</ele>
        <time>2013-01-24T15:26:43.000Z</time>
      </trkpt>
      <trkpt lat="43.97927" lon="5.10827">
        <ele>353.5</ele>
        <time>2013-01-24T15:26:44.000Z</time>
      </trkpt>
      <trkpt lat="43.9793" lon="5.10824">
        <ele>353.4</ele>
        <time>2013-01-24T15:26:45.000Z</time>
      </trkpt>
      <trkpt lat="43.97933" lon="5.10821">
        <ele>352.8</ele>
        <time>2013-01-24T15:26:46.000Z</time>
      </trkpt>
      <trkpt lat="43.97935" lon="5.10818">
        <ele>352.6</ele>
        <time>2013-01-24T15:26:47.000Z</time>
      </trkpt>
      <trkpt lat="43.97937" lon="5.10815">
        <ele>352.5</ele>
        <time>2013-01-24T15:26:48.000Z</time>
      </trkpt>
      <trkpt lat="43.97938" lon="5.10811">
        <ele>352.7</ele>
        <time>2013-01-24T15:26:49.000Z</time>
      </trkpt>
      <trkpt lat="43.9794" lon="5.10808">
        <ele>353.1</ele>
        <time>2013-01-24T15:26:50.000Z</time>
      </trkpt>
      <trkpt lat="43.97941" lon="5.10805">
        <ele>352.7</ele>
        <time>2013-01-24T15:26:51.000Z</time>
      </trkpt>
      <trkpt lat="43.97942" lon="5.108">
        <ele>352.2</ele>
        <time>2013-01-24T15:26:53.000Z</time>
      </trkpt>
      <trkpt lat="43.97942" lon="5.10798">
        <ele>352.2</ele>
        <time>2013-01-24T15:26:54.000Z</time>
      </trkpt>
      <trkpt lat="43.97943" lon="5.10794">
        <ele>351.6</ele>
        <time>2013-01-24T15:26:56.000Z</time>
      </trkpt>
      <trkpt lat="43.97943" lon="5.10791">
        <ele>351.2</ele>
        <time>2013-01-24T15:26:57.000Z</time>
      </trkpt>
      <trkpt lat="43.97943" lon="5.10787">
        <ele>351.1</ele>
        <time>2013-01-24T15:26:58.000Z</time>
      </trkpt>
      <trkpt lat="43.97944" lon="5.10784">
        <ele>350.8</ele>
        <time>2013-01-24T15:26:59.000Z</time>
      </trkpt>
      <trkpt lat="43.97945" lon="5.1078">
        <ele>350.7</ele>
        <time>2013-01-24T15:27:00.000Z</time>
      </trkpt>
      <trkpt lat="43.97946" lon="5.10777">
        <ele>350.5</ele>
        <time>2013-01-24T15:27:01.000Z</time>
      </trkpt>
      <trkpt lat="43.97946" lon="5.10774">
        <ele>350.4</ele>
        <time>2013-01-24T15:27:02.000Z</time>
      </trkpt>
      <trkpt lat="43.97947" lon="5.10771">
        <ele>350.5</ele>
        <time>2013-01-24T15:27:03.000Z</time>
      </trkpt>
      <trkpt lat="43.97947" lon="5.10767">
        <ele>350.3</ele>
        <time>2013-01-24T15:27:04.000Z</time>
      </trkpt>
      <trkpt lat="43.97948" lon="5.10763">
        <ele>350</ele>
        <time>2013-01-24T15:27:05.000Z</time>
      </trkpt>
      <trkpt lat="43.97949" lon="5.10759">
        <ele>349.5</ele>
        <time>2013-01-24T15:27:06.000Z</time>
      </trkpt>
      <trkpt lat="43.97951" lon="5.10752">
        <ele>350.2</ele>
        <time>2013-01-24T15:27:07.000Z</time>
      </trkpt>
      <trkpt lat="43.97951" lon="5.10748">
        <ele>349.8</ele>
        <time>2013-01-24T15:27:08.000Z</time>
      </trkpt>
      <trkpt lat="43.97952" lon="5.10744">
        <ele>349.6</ele>
        <time>2013-01-24T15:27:09.000Z</time>
      </trkpt>
      <trkpt lat="43.97953" lon="5.10741">
        <ele>349.3</ele>
        <time>2013-01-24T15:27:10.000Z</time>
      </trkpt>
      <trkpt lat="43.97954" lon="5.10737">
        <ele>349.1</ele>
        <time>2013-01-24T15:27:11.000Z</time>
      </trkpt>
      <trkpt lat="43.97956" lon="5.10734">
        <ele>349.5</ele>
        <time>2013-01-24T15:27:12.000Z</time>
      </trkpt>
      <trkpt lat="43.97957" lon="5.10732">
        <ele>349.5</ele>
        <time>2013-01-24T15:27:13.000Z</time>
      </trkpt>
      <trkpt lat="43.97959" lon="5.10727">
        <ele>349.9</ele>
        <time>2013-01-24T15:27:15.000Z</time>
      </trkpt>
      <trkpt lat="43.9796" lon="5.10724">
        <ele>349.6</ele>
        <time>2013-01-24T15:27:16.000Z</time>
      </trkpt>
      <trkpt lat="43.97963" lon="5.1072">
        <ele>350.5</ele>
        <time>2013-01-24T15:27:18.000Z</time>
      </trkpt>
      <trkpt lat="43.97964" lon="5.10718">
        <ele>350.7</ele>
        <time>2013-01-24T15:27:19.000Z</time>
      </trkpt>
      <trkpt lat="43.97967" lon="5.10714">
        <ele>349.9</ele>
        <time>2013-01-24T15:27:22.000Z</time>
      </trkpt>
      <trkpt lat="43.97968" lon="5.10714">
        <ele>349.7</ele>
        <time>2013-01-24T15:27:23.000Z</time>
      </trkpt>
      <trkpt lat="43.97967" lon="5.10717">
        <ele>349.4</ele>
        <time>2013-01-24T15:27:25.000Z</time>
      </trkpt>
      <trkpt lat="43.97964" lon="5.1072">
        <ele>349.2</ele>
        <time>2013-01-24T15:27:27.000Z</time>
      </trkpt>
      <trkpt lat="43.97961" lon="5.10724">
        <ele>348.4</ele>
        <time>2013-01-24T15:27:29.000Z</time>
      </trkpt>
      <trkpt lat="43.9796" lon="5.10726">
        <ele>348.2</ele>
        <time>2013-01-24T15:27:30.000Z</time>
      </trkpt>
      <trkpt lat="43.97957" lon="5.10729">
        <ele>348.8</ele>
        <time>2013-01-24T15:27:32.000Z</time>
      </trkpt>
      <trkpt lat="43.97955" lon="5.10731">
        <ele>349.5</ele>
        <time>2013-01-24T15:27:33.000Z</time>
      </trkpt>
      <trkpt lat="43.97955" lon="5.10734">
        <ele>348</ele>
        <time>2013-01-24T15:27:34.000Z</time>
      </trkpt>
      <trkpt lat="43.97954" lon="5.10737">
        <ele>348</ele>
        <time>2013-01-24T15:27:35.000Z</time>
      </trkpt>
      <trkpt lat="43.97953" lon="5.1074">
        <ele>348</ele>
        <time>2013-01-24T15:27:36.000Z</time>
      </trkpt>
      <trkpt lat="43.97952" lon="5.10743">
        <ele>348.1</ele>
        <time>2013-01-24T15:27:37.000Z</time>
      </trkpt>
      <trkpt lat="43.97951" lon="5.10748">
        <ele>348.5</ele>
        <time>2013-01-24T15:27:39.000Z</time>
      </trkpt>
      <trkpt lat="43.97951" lon="5.10751">
        <ele>348.5</ele>
        <time>2013-01-24T15:27:40.000Z</time>
      </trkpt>
      <trkpt lat="43.9795" lon="5.10756">
        <ele>348</ele>
        <time>2013-01-24T15:27:42.000Z</time>
      </trkpt>
      <trkpt lat="43.97949" lon="5.10759">
        <ele>348.4</ele>
        <time>2013-01-24T15:27:43.000Z</time>
      </trkpt>
      <trkpt lat="43.97948" lon="5.10764">
        <ele>349</ele>
        <time>2013-01-24T15:27:45.000Z</time>
      </trkpt>
      <trkpt lat="43.97948" lon="5.10766">
        <ele>348.9</ele>
        <time>2013-01-24T15:27:46.000Z</time>
      </trkpt>
      <trkpt lat="43.97946" lon="5.10771">
        <ele>349.2</ele>
        <time>2013-01-24T15:27:48.000Z</time>
      </trkpt>
      <trkpt lat="43.97946" lon="5.10774">
        <ele>349.3</ele>
        <time>2013-01-24T15:27:49.000Z</time>
      </trkpt>
      <trkpt lat="43.97945" lon="5.10779">
        <ele>349.6</ele>
        <time>2013-01-24T15:27:51.000Z</time>
      </trkpt>
      <trkpt lat="43.97944" lon="5.10781">
        <ele>349.8</ele>
        <time>2013-01-24T15:27:52.000Z</time>
      </trkpt>
      <trkpt lat="43.97943" lon="5.10787">
        <ele>350.2</ele>
        <time>2013-01-24T15:27:55.000Z</time>
      </trkpt>
      <trkpt lat="43.97943" lon="5.10789">
        <ele>350.3</ele>
        <time>2013-01-24T15:27:56.000Z</time>
      </trkpt>
      <trkpt lat="43.97942" lon="5.10794">
        <ele>350.2</ele>
        <time>2013-01-24T15:27:58.000Z</time>
      </trkpt>
      <trkpt lat="43.97942" lon="5.10796">
        <ele>350</ele>
        <time>2013-01-24T15:27:59.000Z</time>
      </trkpt>
      <trkpt lat="43.97941" lon="5.10801">
        <ele>350.5</ele>
        <time>2013-01-24T15:28:01.000Z</time>
      </trkpt>
      <trkpt lat="43.9794" lon="5.10805">
        <ele>350.3</ele>
        <time>2013-01-24T15:28:02.000Z</time>
      </trkpt>
      <trkpt lat="43.97937" lon="5.10809">
        <ele>350.1</ele>
        <time>2013-01-24T15:28:05.000Z</time>
      </trkpt>
      <trkpt lat="43.97936" lon="5.1081">
        <ele>350</ele>
        <time>2013-01-24T15:28:06.000Z</time>
      </trkpt>
      <trkpt lat="43.97935" lon="5.10814">
        <ele>350</ele>
        <time>2013-01-24T15:28:08.000Z</time>
      </trkpt>
      <trkpt lat="43.97934" lon="5.10817">
        <ele>350</ele>
        <time>2013-01-24T15:28:09.000Z</time>
      </trkpt>
      <trkpt lat="43.97931" lon="5.10821">
        <ele>350.4</ele>
        <time>2013-01-24T15:28:12.000Z</time>
      </trkpt>
      <trkpt lat="43.9793" lon="5.10822">
        <ele>350.4</ele>
        <time>2013-01-24T15:28:13.000Z</time>
      </trkpt>
      <trkpt lat="43.97926" lon="5.10825">
        <ele>350.4</ele>
        <time>2013-01-24T15:28:16.000Z</time>
      </trkpt>
      <trkpt lat="43.97925" lon="5.10826">
        <ele>350.3</ele>
        <time>2013-01-24T15:28:17.000Z</time>
      </trkpt>
      <trkpt lat="43.97921" lon="5.10828">
        <ele>350.7</ele>
        <time>2013-01-24T15:28:19.000Z</time>
      </trkpt>
      <trkpt lat="43.97919" lon="5.10829">
        <ele>350.7</ele>
        <time>2013-01-24T15:28:20.000Z</time>
      </trkpt>
      <trkpt lat="43.97915" lon="5.10831">
        <ele>350.6</ele>
        <time>2013-01-24T15:28:22.000Z</time>
      </trkpt>
      <trkpt lat="43.97913" lon="5.10832">
        <ele>351</ele>
        <time>2013-01-24T15:28:23.000Z</time>
      </trkpt>
      <trkpt lat="43.9791" lon="5.10833">
        <ele>351.4</ele>
        <time>2013-01-24T15:28:24.000Z</time>
      </trkpt>
      <trkpt lat="43.97908" lon="5.10835">
        <ele>350.5</ele>
        <time>2013-01-24T15:28:25.000Z</time>
      </trkpt>
      <trkpt lat="43.97906" lon="5.10836">
        <ele>350.1</ele>
        <time>2013-01-24T15:28:26.000Z</time>
      </trkpt>
      <trkpt lat="43.97904" lon="5.10837">
        <ele>350.3</ele>
        <time>2013-01-24T15:28:27.000Z</time>
      </trkpt>
      <trkpt lat="43.97902" lon="5.10839">
        <ele>350.4</ele>
        <time>2013-01-24T15:28:28.000Z</time>
      </trkpt>
      <trkpt lat="43.979" lon="5.1084">
        <ele>350.5</ele>
        <time>2013-01-24T15:28:29.000Z</time>
      </trkpt>
      <trkpt lat="43.97897" lon="5.10841">
        <ele>350.7</ele>
        <time>2013-01-24T15:28:30.000Z</time>
      </trkpt>
      <trkpt lat="43.97895" lon="5.10843">
        <ele>350.6</ele>
        <time>2013-01-24T15:28:31.000Z</time>
      </trkpt>
      <trkpt lat="43.97893" lon="5.10846">
        <ele>349.3</ele>
        <time>2013-01-24T15:28:32.000Z</time>
      </trkpt>
      <trkpt lat="43.97891" lon="5.10848">
        <ele>350.1</ele>
        <time>2013-01-24T15:28:33.000Z</time>
      </trkpt>
      <trkpt lat="43.97889" lon="5.10851">
        <ele>350.6</ele>
        <time>2013-01-24T15:28:34.000Z</time>
      </trkpt>
      <trkpt lat="43.97887" lon="5.10853">
        <ele>351.3</ele>
        <time>2013-01-24T15:28:35.000Z</time>
      </trkpt>
      <trkpt lat="43.97884" lon="5.10857">
        <ele>352.7</ele>
        <time>2013-01-24T15:28:37.000Z</time>
      </trkpt>
      <trkpt lat="43.97883" lon="5.1086">
        <ele>353.1</ele>
        <time>2013-01-24T15:28:38.000Z</time>
      </trkpt>
      <trkpt lat="43.97881" lon="5.10863">
        <ele>353.4</ele>
        <time>2013-01-24T15:28:39.000Z</time>
      </trkpt>
      <trkpt lat="43.9788" lon="5.10867">
        <ele>353.5</ele>
        <time>2013-01-24T15:28:40.000Z</time>
      </trkpt>
      <trkpt lat="43.97878" lon="5.1087">
        <ele>352.9</ele>
        <time>2013-01-24T15:28:41.000Z</time>
      </trkpt>
      <trkpt lat="43.97877" lon="5.10874">
        <ele>353</ele>
        <time>2013-01-24T15:28:42.000Z</time>
      </trkpt>
      <trkpt lat="43.97877" lon="5.10878">
        <ele>353.3</ele>
        <time>2013-01-24T15:28:43.000Z</time>
      </trkpt>
      <trkpt lat="43.97877" lon="5.10881">
        <ele>353.4</ele>
        <time>2013-01-24T15:28:44.000Z</time>
      </trkpt>
      <trkpt lat="43.97876" lon="5.10886">
        <ele>353.2</ele>
        <time>2013-01-24T15:28:45.000Z</time>
      </trkpt>
      <trkpt lat="43.97875" lon="5.1089">
        <ele>352.9</ele>
        <time>2013-01-24T15:28:46.000Z</time>
      </trkpt>
      <trkpt lat="43.97875" lon="5.10895">
        <ele>352.9</ele>
        <time>2013-01-24T15:28:47.000Z</time>
      </trkpt>
      <trkpt lat="43.97875" lon="5.10901">
        <ele>352.6</ele>
        <time>2013-01-24T15:28:48.000Z</time>
      </trkpt>
      <trkpt lat="43.97875" lon="5.10907">
        <ele>352.5</ele>
        <time>2013-01-24T15:28:49.000Z</time>
      </trkpt>
      <trkpt lat="43.97875" lon="5.10912">
        <ele>352</ele>
        <time>2013-01-24T15:28:50.000Z</time>
      </trkpt>
      <trkpt lat="43.97875" lon="5.10918">
        <ele>351.7</ele>
        <time>2013-01-24T15:28:51.000Z</time>
      </trkpt>
      <trkpt lat="43.97875" lon="5.10924">
        <ele>351.5</ele>
        <time>2013-01-24T15:28:52.000Z</time>
      </trkpt>
      <trkpt lat="43.97875" lon="5.10931">
        <ele>351</ele>
        <time>2013-01-24T15:28:53.000Z</time>
      </trkpt>
      <trkpt lat="43.97874" lon="5.10937">
        <ele>350.5</ele>
        <time>2013-01-24T15:28:54.000Z</time>
      </trkpt>
      <trkpt lat="43.97875" lon="5.10944">
        <ele>350.3</ele>
        <time>2013-01-24T15:28:55.000Z</time>
      </trkpt>
      <trkpt lat="43.97874" lon="5.10951">
        <ele>350.1</ele>
        <time>2013-01-24T15:28:56.000Z</time>
      </trkpt>
      <trkpt lat="43.97873" lon="5.10957">
        <ele>349.9</ele>
        <time>2013-01-24T15:28:57.000Z</time>
      </trkpt>
      <trkpt lat="43.97872" lon="5.10963">
        <ele>349.6</ele>
        <time>2013-01-24T15:28:58.000Z</time>
      </trkpt>
      <trkpt lat="43.97869" lon="5.10968">
        <ele>350</ele>
        <time>2013-01-24T15:28:59.000Z</time>
      </trkpt>
      <trkpt lat="43.97867" lon="5.10973">
        <ele>350</ele>
        <time>2013-01-24T15:29:00.000Z</time>
      </trkpt>
      <trkpt lat="43.97863" lon="5.10977">
        <ele>349.5</ele>
        <time>2013-01-24T15:29:01.000Z</time>
      </trkpt>
      <trkpt lat="43.9786" lon="5.10981">
        <ele>349.2</ele>
        <time>2013-01-24T15:29:02.000Z</time>
      </trkpt>
      <trkpt lat="43.97856" lon="5.10983">
        <ele>349.2</ele>
        <time>2013-01-24T15:29:03.000Z</time>
      </trkpt>
      <trkpt lat="43.97853" lon="5.10986">
        <ele>349.1</ele>
        <time>2013-01-24T15:29:04.000Z</time>
      </trkpt>
      <trkpt lat="43.97849" lon="5.10988">
        <ele>348.8</ele>
        <time>2013-01-24T15:29:05.000Z</time>
      </trkpt>
      <trkpt lat="43.97846" lon="5.10989">
        <ele>348.8</ele>
        <time>2013-01-24T15:29:06.000Z</time>
      </trkpt>
      <trkpt lat="43.97843" lon="5.10991">
        <ele>348.8</ele>
        <time>2013-01-24T15:29:07.000Z</time>
      </trkpt>
      <trkpt lat="43.97839" lon="5.10993">
        <ele>349.3</ele>
        <time>2013-01-24T15:29:09.000Z</time>
      </trkpt>
      <trkpt lat="43.97838" lon="5.10994">
        <ele>349.7</ele>
        <time>2013-01-24T15:29:10.000Z</time>
      </trkpt>
      <trkpt lat="43.97835" lon="5.10998">
        <ele>349.6</ele>
        <time>2013-01-24T15:29:12.000Z</time>
      </trkpt>
      <trkpt lat="43.97836" lon="5.11001">
        <ele>350</ele>
        <time>2013-01-24T15:29:13.000Z</time>
      </trkpt>
      <trkpt lat="43.97837" lon="5.11004">
        <ele>350.1</ele>
        <time>2013-01-24T15:29:14.000Z</time>
      </trkpt>
      <trkpt lat="43.97838" lon="5.11007">
        <ele>350.5</ele>
        <time>2013-01-24T15:29:15.000Z</time>
      </trkpt>
      <trkpt lat="43.97839" lon="5.1101">
        <ele>350.7</ele>
        <time>2013-01-24T15:29:16.000Z</time>
      </trkpt>
      <trkpt lat="43.9784" lon="5.11013">
        <ele>351.1</ele>
        <time>2013-01-24T15:29:17.000Z</time>
      </trkpt>
      <trkpt lat="43.97841" lon="5.11016">
        <ele>351.4</ele>
        <time>2013-01-24T15:29:18.000Z</time>
      </trkpt>
      <trkpt lat="43.97842" lon="5.11019">
        <ele>351.8</ele>
        <time>2013-01-24T15:29:19.000Z</time>
      </trkpt>
      <trkpt lat="43.97844" lon="5.11023">
        <ele>352.4</ele>
        <time>2013-01-24T15:29:21.000Z</time>
      </trkpt>
      <trkpt lat="43.97845" lon="5.11026">
        <ele>352.3</ele>
        <time>2013-01-24T15:29:22.000Z</time>
      </trkpt>
      <trkpt lat="43.97846" lon="5.11031">
        <ele>352.7</ele>
        <time>2013-01-24T15:29:24.000Z</time>
      </trkpt>
      <trkpt lat="43.97847" lon="5.11033">
        <ele>353.1</ele>
        <time>2013-01-24T15:29:25.000Z</time>
      </trkpt>
      <trkpt lat="43.97849" lon="5.11038">
        <ele>353.8</ele>
        <time>2013-01-24T15:29:27.000Z</time>
      </trkpt>
      <trkpt lat="43.9785" lon="5.1104">
        <ele>354.1</ele>
        <time>2013-01-24T15:29:28.000Z</time>
      </trkpt>
      <trkpt lat="43.97852" lon="5.11045">
        <ele>354.5</ele>
        <time>2013-01-24T15:29:30.000Z</time>
      </trkpt>
      <trkpt lat="43.97852" lon="5.11048">
        <ele>354.6</ele>
        <time>2013-01-24T15:29:31.000Z</time>
      </trkpt>
      <trkpt lat="43.97854" lon="5.11053">
        <ele>355.7</ele>
        <time>2013-01-24T15:29:33.000Z</time>
      </trkpt>
      <trkpt lat="43.97855" lon="5.11056">
        <ele>356</ele>
        <time>2013-01-24T15:29:34.000Z</time>
      </trkpt>
      <trkpt lat="43.97857" lon="5.11061">
        <ele>355.9</ele>
        <time>2013-01-24T15:29:36.000Z</time>
      </trkpt>
      <trkpt lat="43.97858" lon="5.11064">
        <ele>356.2</ele>
        <time>2013-01-24T15:29:37.000Z</time>
      </trkpt>
      <trkpt lat="43.9786" lon="5.11069">
        <ele>356.3</ele>
        <time>2013-01-24T15:29:39.000Z</time>
      </trkpt>
      <trkpt lat="43.97861" lon="5.11071">
        <ele>356.7</ele>
        <time>2013-01-24T15:29:40.000Z</time>
      </trkpt>
      <trkpt lat="43.97862" lon="5.11076">
        <ele>357.9</ele>
        <time>2013-01-24T15:29:42.000Z</time>
      </trkpt>
      <trkpt lat="43.97863" lon="5.11079">
        <ele>358.1</ele>
        <time>2013-01-24T15:29:43.000Z</time>
      </trkpt>
      <trkpt lat="43.97864" lon="5.11082">
        <ele>358.2</ele>
        <time>2013-01-24T15:29:44.000Z</time>
      </trkpt>
      <trkpt lat="43.97865" lon="5.11084">
        <ele>358.3</ele>
        <time>2013-01-24T15:29:45.000Z</time>
      </trkpt>
      <trkpt lat="43.97867" lon="5.11089">
        <ele>358.5</ele>
        <time>2013-01-24T15:29:47.000Z</time>
      </trkpt>
      <trkpt lat="43.97869" lon="5.1109">
        <ele>359.5</ele>
        <time>2013-01-24T15:29:48.000Z</time>
      </trkpt>
      <trkpt lat="43.97872" lon="5.11092">
        <ele>365</ele>
        <time>2013-01-24T15:29:50.000Z</time>
      </trkpt>
      <trkpt lat="43.97874" lon="5.11091">
        <ele>365.7</ele>
        <time>2013-01-24T15:29:51.000Z</time>
      </trkpt>
      <trkpt lat="43.97875" lon="5.11096">
        <ele>366.7</ele>
        <time>2013-01-24T15:29:53.000Z</time>
      </trkpt>
      <trkpt lat="43.97878" lon="5.111">
        <ele>377.1</ele>
        <time>2013-01-24T15:29:54.000Z</time>
      </trkpt>
      <trkpt lat="43.97879" lon="5.11104">
        <ele>377.6</ele>
        <time>2013-01-24T15:29:55.000Z</time>
      </trkpt>
      <trkpt lat="43.9788" lon="5.11108">
        <ele>377.5</ele>
        <time>2013-01-24T15:29:56.000Z</time>
      </trkpt>
      <trkpt lat="43.97883" lon="5.11112">
        <ele>376.6</ele>
        <time>2013-01-24T15:29:57.000Z</time>
      </trkpt>
      <trkpt lat="43.97884" lon="5.11116">
        <ele>376.5</ele>
        <time>2013-01-24T15:29:58.000Z</time>
      </trkpt>
      <trkpt lat="43.97883" lon="5.11121">
        <ele>374.7</ele>
        <time>2013-01-24T15:29:59.000Z</time>
      </trkpt>
      <trkpt lat="43.97883" lon="5.11124">
        <ele>374.1</ele>
        <time>2013-01-24T15:30:00.000Z</time>
      </trkpt>
      <trkpt lat="43.97882" lon="5.1113">
        <ele>376.1</ele>
        <time>2013-01-24T15:30:03.000Z</time>
      </trkpt>
      <trkpt lat="43.97882" lon="5.11132">
        <ele>376</ele>
        <time>2013-01-24T15:30:04.000Z</time>
      </trkpt>
      <trkpt lat="43.97882" lon="5.11135">
        <ele>375.2</ele>
        <time>2013-01-24T15:30:05.000Z</time>
      </trkpt>
      <trkpt lat="43.97883" lon="5.11139">
        <ele>372.5</ele>
        <time>2013-01-24T15:30:06.000Z</time>
      </trkpt>
      <trkpt lat="43.9788" lon="5.1114">
        <ele>373.7</ele>
        <time>2013-01-24T15:30:07.000Z</time>
      </trkpt>
      <trkpt lat="43.97878" lon="5.11142">
        <ele>373.5</ele>
        <time>2013-01-24T15:30:08.000Z</time>
      </trkpt>
      <trkpt lat="43.97876" lon="5.11144">
        <ele>372.2</ele>
        <time>2013-01-24T15:30:09.000Z</time>
      </trkpt>
      <trkpt lat="43.97874" lon="5.11146">
        <ele>371.5</ele>
        <time>2013-01-24T15:30:10.000Z</time>
      </trkpt>
      <trkpt lat="43.97872" lon="5.11149">
        <ele>370.8</ele>
        <time>2013-01-24T15:30:11.000Z</time>
      </trkpt>
      <trkpt lat="43.9787" lon="5.11151">
        <ele>370.3</ele>
        <time>2013-01-24T15:30:12.000Z</time>
      </trkpt>
      <trkpt lat="43.97868" lon="5.11153">
        <ele>369.5</ele>
        <time>2013-01-24T15:30:13.000Z</time>
      </trkpt>
      <trkpt lat="43.97866" lon="5.11155">
        <ele>369.3</ele>
        <time>2013-01-24T15:30:14.000Z</time>
      </trkpt>
      <trkpt lat="43.97864" lon="5.11157">
        <ele>369</ele>
        <time>2013-01-24T15:30:15.000Z</time>
      </trkpt>
      <trkpt lat="43.97861" lon="5.11159">
        <ele>368.7</ele>
        <time>2013-01-24T15:30:16.000Z</time>
      </trkpt>
      <trkpt lat="43.97859" lon="5.11161">
        <ele>368.6</ele>
        <time>2013-01-24T15:30:17.000Z</time>
      </trkpt>
      <trkpt lat="43.97856" lon="5.11162">
        <ele>368.7</ele>
        <time>2013-01-24T15:30:18.000Z</time>
      </trkpt>
      <trkpt lat="43.97854" lon="5.11164">
        <ele>368.9</ele>
        <time>2013-01-24T15:30:19.000Z</time>
      </trkpt>
      <trkpt lat="43.97852" lon="5.11166">
        <ele>368.9</ele>
        <time>2013-01-24T15:30:20.000Z</time>
      </trkpt>
      <trkpt lat="43.9785" lon="5.11168">
        <ele>369</ele>
        <time>2013-01-24T15:30:21.000Z</time>
      </trkpt>
      <trkpt lat="43.97848" lon="5.1117">
        <ele>369</ele>
        <time>2013-01-24T15:30:22.000Z</time>
      </trkpt>
      <trkpt lat="43.97845" lon="5.11172">
        <ele>368.4</ele>
        <time>2013-01-24T15:30:23.000Z</time>
      </trkpt>
      <trkpt lat="43.97842" lon="5.11174">
        <ele>368.2</ele>
        <time>2013-01-24T15:30:24.000Z</time>
      </trkpt>
      <trkpt lat="43.97839" lon="5.11176">
        <ele>367.9</ele>
        <time>2013-01-24T15:30:25.000Z</time>
      </trkpt>
      <trkpt lat="43.97836" lon="5.11178">
        <ele>367.5</ele>
        <time>2013-01-24T15:30:26.000Z</time>
      </trkpt>
      <trkpt lat="43.97833" lon="5.1118">
        <ele>367.5</ele>
        <time>2013-01-24T15:30:27.000Z</time>
      </trkpt>
      <trkpt lat="43.97831" lon="5.11181">
        <ele>367.9</ele>
        <time>2013-01-24T15:30:28.000Z</time>
      </trkpt>
      <trkpt lat="43.97828" lon="5.11183">
        <ele>367.7</ele>
        <time>2013-01-24T15:30:29.000Z</time>
      </trkpt>
      <trkpt lat="43.97826" lon="5.11185">
        <ele>367.5</ele>
        <time>2013-01-24T15:30:30.000Z</time>
      </trkpt>
      <trkpt lat="43.97823" lon="5.11187">
        <ele>367.3</ele>
        <time>2013-01-24T15:30:31.000Z</time>
      </trkpt>
      <trkpt lat="43.97821" lon="5.11189">
        <ele>367</ele>
        <time>2013-01-24T15:30:32.000Z</time>
      </trkpt>
      <trkpt lat="43.97818" lon="5.11191">
        <ele>367.2</ele>
        <time>2013-01-24T15:30:33.000Z</time>
      </trkpt>
      <trkpt lat="43.97816" lon="5.11193">
        <ele>367.2</ele>
        <time>2013-01-24T15:30:34.000Z</time>
      </trkpt>
      <trkpt lat="43.97813" lon="5.11194">
        <ele>367</ele>
        <time>2013-01-24T15:30:35.000Z</time>
      </trkpt>
      <trkpt lat="43.9781" lon="5.11195">
        <ele>367.4</ele>
        <time>2013-01-24T15:30:36.000Z</time>
      </trkpt>
      <trkpt lat="43.97808" lon="5.11197">
        <ele>367.3</ele>
        <time>2013-01-24T15:30:37.000Z</time>
      </trkpt>
      <trkpt lat="43.97805" lon="5.11199">
        <ele>367.3</ele>
        <time>2013-01-24T15:30:38.000Z</time>
      </trkpt>
      <trkpt lat="43.97803" lon="5.112">
        <ele>367.3</ele>
        <time>2013-01-24T15:30:39.000Z</time>
      </trkpt>
      <trkpt lat="43.978" lon="5.11201">
        <ele>367</ele>
        <time>2013-01-24T15:30:40.000Z</time>
      </trkpt>
      <trkpt lat="43.97797" lon="5.11203">
        <ele>367</ele>
        <time>2013-01-24T15:30:41.000Z</time>
      </trkpt>
      <trkpt lat="43.97795" lon="5.11204">
        <ele>366.9</ele>
        <time>2013-01-24T15:30:42.000Z</time>
      </trkpt>
      <trkpt lat="43.97792" lon="5.11205">
        <ele>367</ele>
        <time>2013-01-24T15:30:43.000Z</time>
      </trkpt>
      <trkpt lat="43.9779" lon="5.11207">
        <ele>367</ele>
        <time>2013-01-24T15:30:44.000Z</time>
      </trkpt>
      <trkpt lat="43.97787" lon="5.11208">
        <ele>367.1</ele>
        <time>2013-01-24T15:30:45.000Z</time>
      </trkpt>
      <trkpt lat="43.97785" lon="5.11209">
        <ele>367.1</ele>
        <time>2013-01-24T15:30:46.000Z</time>
      </trkpt>
      <trkpt lat="43.97782" lon="5.1121">
        <ele>367.2</ele>
        <time>2013-01-24T15:30:47.000Z</time>
      </trkpt>
      <trkpt lat="43.97779" lon="5.1121">
        <ele>369.1</ele>
        <time>2013-01-24T15:30:48.000Z</time>
      </trkpt>
      <trkpt lat="43.97777" lon="5.11211">
        <ele>368.8</ele>
        <time>2013-01-24T15:30:49.000Z</time>
      </trkpt>
      <trkpt lat="43.97774" lon="5.11212">
        <ele>368.8</ele>
        <time>2013-01-24T15:30:50.000Z</time>
      </trkpt>
      <trkpt lat="43.97772" lon="5.11213">
        <ele>369.1</ele>
        <time>2013-01-24T15:30:51.000Z</time>
      </trkpt>
      <trkpt lat="43.97769" lon="5.11214">
        <ele>368.8</ele>
        <time>2013-01-24T15:30:52.000Z</time>
      </trkpt>
      <trkpt lat="43.97767" lon="5.11213">
        <ele>369.3</ele>
        <time>2013-01-24T15:30:53.000Z</time>
      </trkpt>
      <trkpt lat="43.97764" lon="5.11214">
        <ele>369.7</ele>
        <time>2013-01-24T15:30:54.000Z</time>
      </trkpt>
      <trkpt lat="43.97762" lon="5.11215">
        <ele>369.9</ele>
        <time>2013-01-24T15:30:55.000Z</time>
      </trkpt>
      <trkpt lat="43.9776" lon="5.11215">
        <ele>370.7</ele>
        <time>2013-01-24T15:30:56.000Z</time>
      </trkpt>
      <trkpt lat="43.97757" lon="5.11216">
        <ele>370.5</ele>
        <time>2013-01-24T15:30:57.000Z</time>
      </trkpt>
      <trkpt lat="43.97754" lon="5.11217">
        <ele>371</ele>
        <time>2013-01-24T15:30:58.000Z</time>
      </trkpt>
      <trkpt lat="43.97751" lon="5.11218">
        <ele>370.5</ele>
        <time>2013-01-24T15:30:59.000Z</time>
      </trkpt>
      <trkpt lat="43.97749" lon="5.11218">
        <ele>371.1</ele>
        <time>2013-01-24T15:31:00.000Z</time>
      </trkpt>
      <trkpt lat="43.97746" lon="5.11219">
        <ele>371.5</ele>
        <time>2013-01-24T15:31:01.000Z</time>
      </trkpt>
      <trkpt lat="43.97744" lon="5.1122">
        <ele>372.1</ele>
        <time>2013-01-24T15:31:02.000Z</time>
      </trkpt>
      <trkpt lat="43.97742" lon="5.1122">
        <ele>372.4</ele>
        <time>2013-01-24T15:31:03.000Z</time>
      </trkpt>
      <trkpt lat="43.97739" lon="5.11221">
        <ele>371.5</ele>
        <time>2013-01-24T15:31:04.000Z</time>
      </trkpt>
      <trkpt lat="43.97737" lon="5.11222">
        <ele>371.2</ele>
        <time>2013-01-24T15:31:05.000Z</time>
      </trkpt>
      <trkpt lat="43.97734" lon="5.11223">
        <ele>371.1</ele>
        <time>2013-01-24T15:31:06.000Z</time>
      </trkpt>
      <trkpt lat="43.97732" lon="5.11224">
        <ele>371.2</ele>
        <time>2013-01-24T15:31:07.000Z</time>
      </trkpt>
      <trkpt lat="43.97729" lon="5.11225">
        <ele>371.2</ele>
        <time>2013-01-24T15:31:08.000Z</time>
      </trkpt>
      <trkpt lat="43.97727" lon="5.11226">
        <ele>371.4</ele>
        <time>2013-01-24T15:31:09.000Z</time>
      </trkpt>
      <trkpt lat="43.97724" lon="5.11226">
        <ele>371.8</ele>
        <time>2013-01-24T15:31:10.000Z</time>
      </trkpt>
      <trkpt lat="43.9772" lon="5.11227">
        <ele>372</ele>
        <time>2013-01-24T15:31:12.000Z</time>
      </trkpt>
      <trkpt lat="43.97718" lon="5.11228">
        <ele>372.3</ele>
        <time>2013-01-24T15:31:13.000Z</time>
      </trkpt>
      <trkpt lat="43.97715" lon="5.11229">
        <ele>372.6</ele>
        <time>2013-01-24T15:31:14.000Z</time>
      </trkpt>
      <trkpt lat="43.97712" lon="5.11229">
        <ele>373.5</ele>
        <time>2013-01-24T15:31:15.000Z</time>
      </trkpt>
      <trkpt lat="43.9771" lon="5.1123">
        <ele>373.2</ele>
        <time>2013-01-24T15:31:16.000Z</time>
      </trkpt>
      <trkpt lat="43.97707" lon="5.11232">
        <ele>373.2</ele>
        <time>2013-01-24T15:31:17.000Z</time>
      </trkpt>
      <trkpt lat="43.97704" lon="5.11233">
        <ele>373.2</ele>
        <time>2013-01-24T15:31:18.000Z</time>
      </trkpt>
      <trkpt lat="43.97701" lon="5.11233">
        <ele>373.6</ele>
        <time>2013-01-24T15:31:19.000Z</time>
      </trkpt>
      <trkpt lat="43.97699" lon="5.11233">
        <ele>373.1</ele>
        <time>2013-01-24T15:31:20.000Z</time>
      </trkpt>
      <trkpt lat="43.97696" lon="5.11234">
        <ele>373</ele>
        <time>2013-01-24T15:31:21.000Z</time>
      </trkpt>
      <trkpt lat="43.97693" lon="5.11234">
        <ele>373</ele>
        <time>2013-01-24T15:31:22.000Z</time>
      </trkpt>
      <trkpt lat="43.97691" lon="5.11235">
        <ele>373.3</ele>
        <time>2013-01-24T15:31:23.000Z</time>
      </trkpt>
      <trkpt lat="43.97688" lon="5.11235">
        <ele>373.6</ele>
        <time>2013-01-24T15:31:24.000Z</time>
      </trkpt>
      <trkpt lat="43.97686" lon="5.11236">
        <ele>373.9</ele>
        <time>2013-01-24T15:31:25.000Z</time>
      </trkpt>
      <trkpt lat="43.97681" lon="5.11237">
        <ele>375</ele>
        <time>2013-01-24T15:31:27.000Z</time>
      </trkpt>
      <trkpt lat="43.97678" lon="5.11238">
        <ele>375.3</ele>
        <time>2013-01-24T15:31:28.000Z</time>
      </trkpt>
      <trkpt lat="43.97675" lon="5.11239">
        <ele>375.4</ele>
        <time>2013-01-24T15:31:29.000Z</time>
      </trkpt>
      <trkpt lat="43.97673" lon="5.1124">
        <ele>376</ele>
        <time>2013-01-24T15:31:30.000Z</time>
      </trkpt>
      <trkpt lat="43.97671" lon="5.1124">
        <ele>376.3</ele>
        <time>2013-01-24T15:31:31.000Z</time>
      </trkpt>
      <trkpt lat="43.97666" lon="5.11242">
        <ele>376.5</ele>
        <time>2013-01-24T15:31:33.000Z</time>
      </trkpt>
      <trkpt lat="43.97664" lon="5.11242">
        <ele>376.7</ele>
        <time>2013-01-24T15:31:34.000Z</time>
      </trkpt>
      <trkpt lat="43.97659" lon="5.11244">
        <ele>377</ele>
        <time>2013-01-24T15:31:36.000Z</time>
      </trkpt>
      <trkpt lat="43.97657" lon="5.11244">
        <ele>377.2</ele>
        <time>2013-01-24T15:31:37.000Z</time>
      </trkpt>
      <trkpt lat="43.97653" lon="5.11246">
        <ele>377.3</ele>
        <time>2013-01-24T15:31:39.000Z</time>
      </trkpt>
      <trkpt lat="43.97652" lon="5.11247">
        <ele>377.4</ele>
        <time>2013-01-24T15:31:40.000Z</time>
      </trkpt>
      <trkpt lat="43.9765" lon="5.11251">
        <ele>376.7</ele>
        <time>2013-01-24T15:31:43.000Z</time>
      </trkpt>
      <trkpt lat="43.97649" lon="5.11252">
        <ele>376.9</ele>
        <time>2013-01-24T15:31:44.000Z</time>
      </trkpt>
      <trkpt lat="43.97646" lon="5.11254">
        <ele>377</ele>
        <time>2013-01-24T15:31:47.000Z</time>
      </trkpt>
      <trkpt lat="43.97644" lon="5.11255">
        <ele>377.3</ele>
        <time>2013-01-24T15:31:48.000Z</time>
      </trkpt>
      <trkpt lat="43.97642" lon="5.11258">
        <ele>377.4</ele>
        <time>2013-01-24T15:31:50.000Z</time>
      </trkpt>
      <trkpt lat="43.97641" lon="5.1126">
        <ele>377.4</ele>
        <time>2013-01-24T15:31:51.000Z</time>
      </trkpt>
      <trkpt lat="43.97638" lon="5.11263">
        <ele>377.9</ele>
        <time>2013-01-24T15:31:53.000Z</time>
      </trkpt>
      <trkpt lat="43.97635" lon="5.11265">
        <ele>377.8</ele>
        <time>2013-01-24T15:31:54.000Z</time>
      </trkpt>
      <trkpt lat="43.97633" lon="5.11267">
        <ele>378.1</ele>
        <time>2013-01-24T15:31:55.000Z</time>
      </trkpt>
      <trkpt lat="43.9763" lon="5.11268">
        <ele>378.3</ele>
        <time>2013-01-24T15:31:56.000Z</time>
      </trkpt>
      <trkpt lat="43.97628" lon="5.1127">
        <ele>378.1</ele>
        <time>2013-01-24T15:31:57.000Z</time>
      </trkpt>
      <trkpt lat="43.97625" lon="5.11272">
        <ele>378.4</ele>
        <time>2013-01-24T15:31:58.000Z</time>
      </trkpt>
      <trkpt lat="43.97623" lon="5.11273">
        <ele>378.4</ele>
        <time>2013-01-24T15:31:59.000Z</time>
      </trkpt>
      <trkpt lat="43.97621" lon="5.11275">
        <ele>378.5</ele>
        <time>2013-01-24T15:32:00.000Z</time>
      </trkpt>
      <trkpt lat="43.97619" lon="5.11277">
        <ele>378.7</ele>
        <time>2013-01-24T15:32:01.000Z</time>
      </trkpt>
      <trkpt lat="43.97616" lon="5.11279">
        <ele>379</ele>
        <time>2013-01-24T15:32:02.000Z</time>
      </trkpt>
      <trkpt lat="43.97614" lon="5.11281">
        <ele>378.8</ele>
        <time>2013-01-24T15:32:03.000Z</time>
      </trkpt>
      <trkpt lat="43.97612" lon="5.11282">
        <ele>378.8</ele>
        <time>2013-01-24T15:32:04.000Z</time>
      </trkpt>
      <trkpt lat="43.97609" lon="5.11284">
        <ele>378.6</ele>
        <time>2013-01-24T15:32:05.000Z</time>
      </trkpt>
      <trkpt lat="43.97607" lon="5.11284">
        <ele>378.4</ele>
        <time>2013-01-24T15:32:06.000Z</time>
      </trkpt>
      <trkpt lat="43.97603" lon="5.11286">
        <ele>378.1</ele>
        <time>2013-01-24T15:32:08.000Z</time>
      </trkpt>
      <trkpt lat="43.97601" lon="5.11286">
        <ele>378</ele>
        <time>2013-01-24T15:32:09.000Z</time>
      </trkpt>
      <trkpt lat="43.97598" lon="5.11286">
        <ele>377.9</ele>
        <time>2013-01-24T15:32:11.000Z</time>
      </trkpt>
      <trkpt lat="43.97597" lon="5.11287">
        <ele>377.6</ele>
        <time>2013-01-24T15:32:12.000Z</time>
      </trkpt>
      <trkpt lat="43.97594" lon="5.11289">
        <ele>377.7</ele>
        <time>2013-01-24T15:32:14.000Z</time>
      </trkpt>
      <trkpt lat="43.97592" lon="5.1129">
        <ele>378</ele>
        <time>2013-01-24T15:32:15.000Z</time>
      </trkpt>
      <trkpt lat="43.97589" lon="5.11292">
        <ele>377.8</ele>
        <time>2013-01-24T15:32:17.000Z</time>
      </trkpt>
      <trkpt lat="43.97587" lon="5.11293">
        <ele>378.2</ele>
        <time>2013-01-24T15:32:18.000Z</time>
      </trkpt>
      <trkpt lat="43.97584" lon="5.11296">
        <ele>378.5</ele>
        <time>2013-01-24T15:32:20.000Z</time>
      </trkpt>
      <trkpt lat="43.97582" lon="5.11297">
        <ele>379</ele>
        <time>2013-01-24T15:32:21.000Z</time>
      </trkpt>
      <trkpt lat="43.97579" lon="5.113">
        <ele>378</ele>
        <time>2013-01-24T15:32:23.000Z</time>
      </trkpt>
      <trkpt lat="43.97577" lon="5.11302">
        <ele>377.3</ele>
        <time>2013-01-24T15:32:24.000Z</time>
      </trkpt>
      <trkpt lat="43.97573" lon="5.11304">
        <ele>378.9</ele>
        <time>2013-01-24T15:32:26.000Z</time>
      </trkpt>
      <trkpt lat="43.97572" lon="5.11306">
        <ele>379.1</ele>
        <time>2013-01-24T15:32:27.000Z</time>
      </trkpt>
      <trkpt lat="43.97568" lon="5.11309">
        <ele>379.5</ele>
        <time>2013-01-24T15:32:29.000Z</time>
      </trkpt>
      <trkpt lat="43.97566" lon="5.11311">
        <ele>379.7</ele>
        <time>2013-01-24T15:32:30.000Z</time>
      </trkpt>
      <trkpt lat="43.97563" lon="5.11314">
        <ele>379.2</ele>
        <time>2013-01-24T15:32:32.000Z</time>
      </trkpt>
      <trkpt lat="43.97561" lon="5.11315">
        <ele>379.5</ele>
        <time>2013-01-24T15:32:33.000Z</time>
      </trkpt>
      <trkpt lat="43.97557" lon="5.11318">
        <ele>379.6</ele>
        <time>2013-01-24T15:32:35.000Z</time>
      </trkpt>
      <trkpt lat="43.97555" lon="5.11319">
        <ele>379.7</ele>
        <time>2013-01-24T15:32:36.000Z</time>
      </trkpt>
      <trkpt lat="43.97551" lon="5.11322">
        <ele>380.1</ele>
        <time>2013-01-24T15:32:38.000Z</time>
      </trkpt>
      <trkpt lat="43.9755" lon="5.11323">
        <ele>380.1</ele>
        <time>2013-01-24T15:32:39.000Z</time>
      </trkpt>
      <trkpt lat="43.97546" lon="5.11326">
        <ele>380.5</ele>
        <time>2013-01-24T15:32:41.000Z</time>
      </trkpt>
      <trkpt lat="43.97544" lon="5.11327">
        <ele>380.5</ele>
        <time>2013-01-24T15:32:42.000Z</time>
      </trkpt>
      <trkpt lat="43.97542" lon="5.11328">
        <ele>380.8</ele>
        <time>2013-01-24T15:32:43.000Z</time>
      </trkpt>
      <trkpt lat="43.97539" lon="5.11329">
        <ele>380.9</ele>
        <time>2013-01-24T15:32:44.000Z</time>
      </trkpt>
      <trkpt lat="43.97537" lon="5.11331">
        <ele>381.1</ele>
        <time>2013-01-24T15:32:45.000Z</time>
      </trkpt>
      <trkpt lat="43.97535" lon="5.11332">
        <ele>380.9</ele>
        <time>2013-01-24T15:32:46.000Z</time>
      </trkpt>
      <trkpt lat="43.97533" lon="5.11334">
        <ele>380.8</ele>
        <time>2013-01-24T15:32:47.000Z</time>
      </trkpt>
      <trkpt lat="43.97531" lon="5.11335">
        <ele>380.7</ele>
        <time>2013-01-24T15:32:48.000Z</time>
      </trkpt>
      <trkpt lat="43.97528" lon="5.11336">
        <ele>381.3</ele>
        <time>2013-01-24T15:32:49.000Z</time>
      </trkpt>
      <trkpt lat="43.97526" lon="5.11337">
        <ele>381.2</ele>
        <time>2013-01-24T15:32:50.000Z</time>
      </trkpt>
      <trkpt lat="43.97524" lon="5.11338">
        <ele>381.3</ele>
        <time>2013-01-24T15:32:51.000Z</time>
      </trkpt>
      <trkpt lat="43.97522" lon="5.11339">
        <ele>381.4</ele>
        <time>2013-01-24T15:32:52.000Z</time>
      </trkpt>
      <trkpt lat="43.97519" lon="5.11341">
        <ele>381.4</ele>
        <time>2013-01-24T15:32:53.000Z</time>
      </trkpt>
      <trkpt lat="43.97517" lon="5.11341">
        <ele>381.6</ele>
        <time>2013-01-24T15:32:54.000Z</time>
      </trkpt>
      <trkpt lat="43.97515" lon="5.11342">
        <ele>382</ele>
        <time>2013-01-24T15:32:55.000Z</time>
      </trkpt>
      <trkpt lat="43.97512" lon="5.11343">
        <ele>382.1</ele>
        <time>2013-01-24T15:32:56.000Z</time>
      </trkpt>
      <trkpt lat="43.97508" lon="5.11345">
        <ele>382.2</ele>
        <time>2013-01-24T15:32:58.000Z</time>
      </trkpt>
      <trkpt lat="43.97506" lon="5.11346">
        <ele>382.3</ele>
        <time>2013-01-24T15:32:59.000Z</time>
      </trkpt>
      <trkpt lat="43.97502" lon="5.11349">
        <ele>382.3</ele>
        <time>2013-01-24T15:33:01.000Z</time>
      </trkpt>
      <trkpt lat="43.97501" lon="5.1135">
        <ele>382.5</ele>
        <time>2013-01-24T15:33:02.000Z</time>
      </trkpt>
      <trkpt lat="43.97498" lon="5.11354">
        <ele>383</ele>
        <time>2013-01-24T15:33:04.000Z</time>
      </trkpt>
      <trkpt lat="43.97496" lon="5.11356">
        <ele>382.9</ele>
        <time>2013-01-24T15:33:05.000Z</time>
      </trkpt>
      <trkpt lat="43.97493" lon="5.1136">
        <ele>382.6</ele>
        <time>2013-01-24T15:33:07.000Z</time>
      </trkpt>
      <trkpt lat="43.97492" lon="5.11363">
        <ele>382.6</ele>
        <time>2013-01-24T15:33:08.000Z</time>
      </trkpt>
      <trkpt lat="43.9749" lon="5.11368">
        <ele>382.8</ele>
        <time>2013-01-24T15:33:11.000Z</time>
      </trkpt>
      <trkpt lat="43.97489" lon="5.1137">
        <ele>382.7</ele>
        <time>2013-01-24T15:33:12.000Z</time>
      </trkpt>
      <trkpt lat="43.97487" lon="5.11375">
        <ele>383.2</ele>
        <time>2013-01-24T15:33:15.000Z</time>
      </trkpt>
      <trkpt lat="43.97485" lon="5.11377">
        <ele>383.2</ele>
        <time>2013-01-24T15:33:16.000Z</time>
      </trkpt>
      <trkpt lat="43.97483" lon="5.1138">
        <ele>383.2</ele>
        <time>2013-01-24T15:33:18.000Z</time>
      </trkpt>
      <trkpt lat="43.97482" lon="5.11383">
        <ele>383.5</ele>
        <time>2013-01-24T15:33:19.000Z</time>
      </trkpt>
      <trkpt lat="43.97481" lon="5.11385">
        <ele>383.4</ele>
        <time>2013-01-24T15:33:20.000Z</time>
      </trkpt>
      <trkpt lat="43.9748" lon="5.11389">
        <ele>383.3</ele>
        <time>2013-01-24T15:33:21.000Z</time>
      </trkpt>
      <trkpt lat="43.97479" lon="5.11392">
        <ele>383.7</ele>
        <time>2013-01-24T15:33:22.000Z</time>
      </trkpt>
      <trkpt lat="43.97478" lon="5.11395">
        <ele>384.1</ele>
        <time>2013-01-24T15:33:23.000Z</time>
      </trkpt>
      <trkpt lat="43.97476" lon="5.11397">
        <ele>383.8</ele>
        <time>2013-01-24T15:33:24.000Z</time>
      </trkpt>
      <trkpt lat="43.97474" lon="5.11399">
        <ele>384</ele>
        <time>2013-01-24T15:33:25.000Z</time>
      </trkpt>
      <trkpt lat="43.9747" lon="5.11405">
        <ele>383.6</ele>
        <time>2013-01-24T15:33:27.000Z</time>
      </trkpt>
      <trkpt lat="43.97467" lon="5.11406">
        <ele>385.1</ele>
        <time>2013-01-24T15:33:28.000Z</time>
      </trkpt>
      <trkpt lat="43.97464" lon="5.11408">
        <ele>385.9</ele>
        <time>2013-01-24T15:33:29.000Z</time>
      </trkpt>
      <trkpt lat="43.97461" lon="5.1141">
        <ele>384.8</ele>
        <time>2013-01-24T15:33:30.000Z</time>
      </trkpt>
      <trkpt lat="43.97458" lon="5.11411">
        <ele>384.3</ele>
        <time>2013-01-24T15:33:31.000Z</time>
      </trkpt>
      <trkpt lat="43.97456" lon="5.11413">
        <ele>384</ele>
        <time>2013-01-24T15:33:32.000Z</time>
      </trkpt>
      <trkpt lat="43.97454" lon="5.11414">
        <ele>384.9</ele>
        <time>2013-01-24T15:33:33.000Z</time>
      </trkpt>
      <trkpt lat="43.97451" lon="5.11415">
        <ele>385.3</ele>
        <time>2013-01-24T15:33:34.000Z</time>
      </trkpt>
      <trkpt lat="43.97447" lon="5.11417">
        <ele>384.9</ele>
        <time>2013-01-24T15:33:35.000Z</time>
      </trkpt>
      <trkpt lat="43.97444" lon="5.11418">
        <ele>384.9</ele>
        <time>2013-01-24T15:33:36.000Z</time>
      </trkpt>
      <trkpt lat="43.97439" lon="5.1142">
        <ele>384</ele>
        <time>2013-01-24T15:33:37.000Z</time>
      </trkpt>
      <trkpt lat="43.97434" lon="5.11422">
        <ele>383.2</ele>
        <time>2013-01-24T15:33:38.000Z</time>
      </trkpt>
      <trkpt lat="43.97429" lon="5.11424">
        <ele>382.8</ele>
        <time>2013-01-24T15:33:39.000Z</time>
      </trkpt>
      <trkpt lat="43.97424" lon="5.11427">
        <ele>382.8</ele>
        <time>2013-01-24T15:33:40.000Z</time>
      </trkpt>
      <trkpt lat="43.97419" lon="5.1143">
        <ele>382.4</ele>
        <time>2013-01-24T15:33:41.000Z</time>
      </trkpt>
      <trkpt lat="43.97414" lon="5.11431">
        <ele>382.3</ele>
        <time>2013-01-24T15:33:42.000Z</time>
      </trkpt>
      <trkpt lat="43.9741" lon="5.11434">
        <ele>382.1</ele>
        <time>2013-01-24T15:33:43.000Z</time>
      </trkpt>
      <trkpt lat="43.97406" lon="5.11437">
        <ele>381.9</ele>
        <time>2013-01-24T15:33:44.000Z</time>
      </trkpt>
      <trkpt lat="43.97402" lon="5.1144">
        <ele>382.1</ele>
        <time>2013-01-24T15:33:45.000Z</time>
      </trkpt>
      <trkpt lat="43.97399" lon="5.11442">
        <ele>382.4</ele>
        <time>2013-01-24T15:33:46.000Z</time>
      </trkpt>
      <trkpt lat="43.97395" lon="5.11444">
        <ele>382.4</ele>
        <time>2013-01-24T15:33:47.000Z</time>
      </trkpt>
      <trkpt lat="43.97391" lon="5.11447">
        <ele>382.2</ele>
        <time>2013-01-24T15:33:48.000Z</time>
      </trkpt>
      <trkpt lat="43.97387" lon="5.11451">
        <ele>382.5</ele>
        <time>2013-01-24T15:33:49.000Z</time>
      </trkpt>
      <trkpt lat="43.97383" lon="5.11454">
        <ele>382.8</ele>
        <time>2013-01-24T15:33:50.000Z</time>
      </trkpt>
      <trkpt lat="43.97379" lon="5.11456">
        <ele>383</ele>
        <time>2013-01-24T15:33:51.000Z</time>
      </trkpt>
      <trkpt lat="43.97374" lon="5.11459">
        <ele>382.7</ele>
        <time>2013-01-24T15:33:52.000Z</time>
      </trkpt>
      <trkpt lat="43.97372" lon="5.11464">
        <ele>381.8</ele>
        <time>2013-01-24T15:33:53.000Z</time>
      </trkpt>
      <trkpt lat="43.97369" lon="5.11469">
        <ele>380.8</ele>
        <time>2013-01-24T15:33:54.000Z</time>
      </trkpt>
      <trkpt lat="43.97366" lon="5.11473">
        <ele>380.7</ele>
        <time>2013-01-24T15:33:55.000Z</time>
      </trkpt>
      <trkpt lat="43.97363" lon="5.11477">
        <ele>379.6</ele>
        <time>2013-01-24T15:33:56.000Z</time>
      </trkpt>
      <trkpt lat="43.9736" lon="5.1148">
        <ele>378.8</ele>
        <time>2013-01-24T15:33:57.000Z</time>
      </trkpt>
      <trkpt lat="43.97358" lon="5.11484">
        <ele>377.8</ele>
        <time>2013-01-24T15:33:58.000Z</time>
      </trkpt>
      <trkpt lat="43.97357" lon="5.11488">
        <ele>376.9</ele>
        <time>2013-01-24T15:33:59.000Z</time>
      </trkpt>
      <trkpt lat="43.97344" lon="5.11497">
        <ele>378.9</ele>
        <time>2013-01-24T15:34:00.000Z</time>
      </trkpt>
      <trkpt lat="43.97339" lon="5.11504">
        <ele>377.7</ele>
        <time>2013-01-24T15:34:01.000Z</time>
      </trkpt>
      <trkpt lat="43.97334" lon="5.1151">
        <ele>376</ele>
        <time>2013-01-24T15:34:02.000Z</time>
      </trkpt>
      <trkpt lat="43.97329" lon="5.11515">
        <ele>375.1</ele>
        <time>2013-01-24T15:34:03.000Z</time>
      </trkpt>
      <trkpt lat="43.97325" lon="5.1152">
        <ele>374.2</ele>
        <time>2013-01-24T15:34:04.000Z</time>
      </trkpt>
      <trkpt lat="43.97322" lon="5.11524">
        <ele>373.6</ele>
        <time>2013-01-24T15:34:05.000Z</time>
      </trkpt>
      <trkpt lat="43.97318" lon="5.11529">
        <ele>373</ele>
        <time>2013-01-24T15:34:06.000Z</time>
      </trkpt>
      <trkpt lat="43.97316" lon="5.11533">
        <ele>371.7</ele>
        <time>2013-01-24T15:34:07.000Z</time>
      </trkpt>
      <trkpt lat="43.97313" lon="5.11537">
        <ele>370.8</ele>
        <time>2013-01-24T15:34:08.000Z</time>
      </trkpt>
      <trkpt lat="43.9731" lon="5.11543">
        <ele>369.7</ele>
        <time>2013-01-24T15:34:09.000Z</time>
      </trkpt>
      <trkpt lat="43.97306" lon="5.11549">
        <ele>369.1</ele>
        <time>2013-01-24T15:34:10.000Z</time>
      </trkpt>
      <trkpt lat="43.97304" lon="5.11555">
        <ele>369.1</ele>
        <time>2013-01-24T15:34:11.000Z</time>
      </trkpt>
      <trkpt lat="43.973" lon="5.1156">
        <ele>368.6</ele>
        <time>2013-01-24T15:34:12.000Z</time>
      </trkpt>
      <trkpt lat="43.97298" lon="5.11564">
        <ele>368.1</ele>
        <time>2013-01-24T15:34:13.000Z</time>
      </trkpt>
      <trkpt lat="43.97295" lon="5.11568">
        <ele>367.1</ele>
        <time>2013-01-24T15:34:14.000Z</time>
      </trkpt>
      <trkpt lat="43.97293" lon="5.11572">
        <ele>366.3</ele>
        <time>2013-01-24T15:34:15.000Z</time>
      </trkpt>
      <trkpt lat="43.97291" lon="5.11577">
        <ele>365.8</ele>
        <time>2013-01-24T15:34:16.000Z</time>
      </trkpt>
      <trkpt lat="43.97288" lon="5.11581">
        <ele>365.2</ele>
        <time>2013-01-24T15:34:17.000Z</time>
      </trkpt>
      <trkpt lat="43.97286" lon="5.11585">
        <ele>365.1</ele>
        <time>2013-01-24T15:34:18.000Z</time>
      </trkpt>
      <trkpt lat="43.97285" lon="5.11589">
        <ele>363.2</ele>
        <time>2013-01-24T15:34:19.000Z</time>
      </trkpt>
      <trkpt lat="43.97282" lon="5.11593">
        <ele>362.7</ele>
        <time>2013-01-24T15:34:20.000Z</time>
      </trkpt>
      <trkpt lat="43.9728" lon="5.11598">
        <ele>362.2</ele>
        <time>2013-01-24T15:34:21.000Z</time>
      </trkpt>
      <trkpt lat="43.97278" lon="5.11602">
        <ele>362.1</ele>
        <time>2013-01-24T15:34:22.000Z</time>
      </trkpt>
      <trkpt lat="43.97275" lon="5.11607">
        <ele>361.4</ele>
        <time>2013-01-24T15:34:23.000Z</time>
      </trkpt>
      <trkpt lat="43.97273" lon="5.11611">
        <ele>360.9</ele>
        <time>2013-01-24T15:34:24.000Z</time>
      </trkpt>
      <trkpt lat="43.97271" lon="5.11615">
        <ele>360.2</ele>
        <time>2013-01-24T15:34:25.000Z</time>
      </trkpt>
      <trkpt lat="43.97268" lon="5.1162">
        <ele>359.5</ele>
        <time>2013-01-24T15:34:26.000Z</time>
      </trkpt>
      <trkpt lat="43.97266" lon="5.11621">
        <ele>363.6</ele>
        <time>2013-01-24T15:34:27.000Z</time>
      </trkpt>
      <trkpt lat="43.97264" lon="5.11624">
        <ele>362.9</ele>
        <time>2013-01-24T15:34:28.000Z</time>
      </trkpt>
      <trkpt lat="43.97262" lon="5.11627">
        <ele>362</ele>
        <time>2013-01-24T15:34:29.000Z</time>
      </trkpt>
      <trkpt lat="43.9726" lon="5.11631">
        <ele>361.3</ele>
        <time>2013-01-24T15:34:30.000Z</time>
      </trkpt>
      <trkpt lat="43.97258" lon="5.11634">
        <ele>361.5</ele>
        <time>2013-01-24T15:34:31.000Z</time>
      </trkpt>
      <trkpt lat="43.97256" lon="5.11637">
        <ele>361.5</ele>
        <time>2013-01-24T15:34:32.000Z</time>
      </trkpt>
      <trkpt lat="43.97254" lon="5.11642">
        <ele>359.8</ele>
        <time>2013-01-24T15:34:33.000Z</time>
      </trkpt>
      <trkpt lat="43.97252" lon="5.11645">
        <ele>359.1</ele>
        <time>2013-01-24T15:34:34.000Z</time>
      </trkpt>
      <trkpt lat="43.9725" lon="5.1165">
        <ele>358.7</ele>
        <time>2013-01-24T15:34:35.000Z</time>
      </trkpt>
      <trkpt lat="43.97248" lon="5.11653">
        <ele>358.7</ele>
        <time>2013-01-24T15:34:36.000Z</time>
      </trkpt>
      <trkpt lat="43.97246" lon="5.11657">
        <ele>357.9</ele>
        <time>2013-01-24T15:34:37.000Z</time>
      </trkpt>
      <trkpt lat="43.97244" lon="5.11661">
        <ele>356.9</ele>
        <time>2013-01-24T15:34:38.000Z</time>
      </trkpt>
      <trkpt lat="43.97243" lon="5.11664">
        <ele>356.4</ele>
        <time>2013-01-24T15:34:39.000Z</time>
      </trkpt>
      <trkpt lat="43.97241" lon="5.11666">
        <ele>354.7</ele>
        <time>2013-01-24T15:34:40.000Z</time>
      </trkpt>
      <trkpt lat="43.97239" lon="5.11668">
        <ele>353.7</ele>
        <time>2013-01-24T15:34:41.000Z</time>
      </trkpt>
      <trkpt lat="43.97241" lon="5.11675">
        <ele>352.4</ele>
        <time>2013-01-24T15:34:42.000Z</time>
      </trkpt>
      <trkpt lat="43.97242" lon="5.1168">
        <ele>351.6</ele>
        <time>2013-01-24T15:34:43.000Z</time>
      </trkpt>
      <trkpt lat="43.97242" lon="5.11685">
        <ele>351.3</ele>
        <time>2013-01-24T15:34:44.000Z</time>
      </trkpt>
      <trkpt lat="43.97243" lon="5.11689">
        <ele>351.5</ele>
        <time>2013-01-24T15:34:45.000Z</time>
      </trkpt>
      <trkpt lat="43.97244" lon="5.11694">
        <ele>351.2</ele>
        <time>2013-01-24T15:34:46.000Z</time>
      </trkpt>
      <trkpt lat="43.97245" lon="5.11699">
        <ele>352.3</ele>
        <time>2013-01-24T15:34:47.000Z</time>
      </trkpt>
      <trkpt lat="43.97246" lon="5.11703">
        <ele>352.5</ele>
        <time>2013-01-24T15:34:48.000Z</time>
      </trkpt>
      <trkpt lat="43.97247" lon="5.11707">
        <ele>352.7</ele>
        <time>2013-01-24T15:34:49.000Z</time>
      </trkpt>
      <trkpt lat="43.97247" lon="5.11711">
        <ele>353.2</ele>
        <time>2013-01-24T15:34:50.000Z</time>
      </trkpt>
      <trkpt lat="43.97248" lon="5.11715">
        <ele>353.2</ele>
        <time>2013-01-24T15:34:51.000Z</time>
      </trkpt>
      <trkpt lat="43.97249" lon="5.11719">
        <ele>353.2</ele>
        <time>2013-01-24T15:34:52.000Z</time>
      </trkpt>
      <trkpt lat="43.97251" lon="5.11716">
        <ele>349.8</ele>
        <time>2013-01-24T15:35:13.000Z</time>
      </trkpt>
      <trkpt lat="43.97252" lon="5.11714">
        <ele>347.9</ele>
        <time>2013-01-24T15:35:14.000Z</time>
      </trkpt>
      <trkpt lat="43.97253" lon="5.11709">
        <ele>346.7</ele>
        <time>2013-01-24T15:35:15.000Z</time>
      </trkpt>
      <trkpt lat="43.97254" lon="5.11706">
        <ele>346.3</ele>
        <time>2013-01-24T15:35:16.000Z</time>
      </trkpt>
      <trkpt lat="43.97255" lon="5.11704">
        <ele>346.3</ele>
        <time>2013-01-24T15:35:17.000Z</time>
      </trkpt>
      <trkpt lat="43.97257" lon="5.117">
        <ele>345.9</ele>
        <time>2013-01-24T15:35:18.000Z</time>
      </trkpt>
      <trkpt lat="43.97259" lon="5.11696">
        <ele>345.9</ele>
        <time>2013-01-24T15:35:19.000Z</time>
      </trkpt>
      <trkpt lat="43.97261" lon="5.11692">
        <ele>345.7</ele>
        <time>2013-01-24T15:35:20.000Z</time>
      </trkpt>
      <trkpt lat="43.97263" lon="5.11688">
        <ele>345.7</ele>
        <time>2013-01-24T15:35:21.000Z</time>
      </trkpt>
      <trkpt lat="43.97264" lon="5.11686">
        <ele>345.5</ele>
        <time>2013-01-24T15:35:22.000Z</time>
      </trkpt>
      <trkpt lat="43.97267" lon="5.11685">
        <ele>343.8</ele>
        <time>2013-01-24T15:35:23.000Z</time>
      </trkpt>
      <trkpt lat="43.97269" lon="5.11681">
        <ele>342.7</ele>
        <time>2013-01-24T15:35:24.000Z</time>
      </trkpt>
      <trkpt lat="43.97271" lon="5.11679">
        <ele>342.2</ele>
        <time>2013-01-24T15:35:25.000Z</time>
      </trkpt>
      <trkpt lat="43.97273" lon="5.11677">
        <ele>342.4</ele>
        <time>2013-01-24T15:35:26.000Z</time>
      </trkpt>
      <trkpt lat="43.97276" lon="5.11675">
        <ele>342.7</ele>
        <time>2013-01-24T15:35:27.000Z</time>
      </trkpt>
      <trkpt lat="43.97278" lon="5.11673">
        <ele>342.6</ele>
        <time>2013-01-24T15:35:28.000Z</time>
      </trkpt>
      <trkpt lat="43.97282" lon="5.11671">
        <ele>342.1</ele>
        <time>2013-01-24T15:35:29.000Z</time>
      </trkpt>
      <trkpt lat="43.97285" lon="5.11669">
        <ele>341.7</ele>
        <time>2013-01-24T15:35:30.000Z</time>
      </trkpt>
      <trkpt lat="43.97289" lon="5.11665">
        <ele>341.7</ele>
        <time>2013-01-24T15:35:31.000Z</time>
      </trkpt>
      <trkpt lat="43.97292" lon="5.11662">
        <ele>342</ele>
        <time>2013-01-24T15:35:32.000Z</time>
      </trkpt>
      <trkpt lat="43.97296" lon="5.11659">
        <ele>342</ele>
        <time>2013-01-24T15:35:33.000Z</time>
      </trkpt>
      <trkpt lat="43.97299" lon="5.11655">
        <ele>342.3</ele>
        <time>2013-01-24T15:35:34.000Z</time>
      </trkpt>
      <trkpt lat="43.97303" lon="5.11652">
        <ele>342.5</ele>
        <time>2013-01-24T15:35:35.000Z</time>
      </trkpt>
      <trkpt lat="43.97306" lon="5.11649">
        <ele>342.3</ele>
        <time>2013-01-24T15:35:36.000Z</time>
      </trkpt>
      <trkpt lat="43.97309" lon="5.11647">
        <ele>342.1</ele>
        <time>2013-01-24T15:35:37.000Z</time>
      </trkpt>
      <trkpt lat="43.97312" lon="5.11644">
        <ele>342.5</ele>
        <time>2013-01-24T15:35:38.000Z</time>
      </trkpt>
      <trkpt lat="43.97317" lon="5.1164">
        <ele>343.2</ele>
        <time>2013-01-24T15:35:39.000Z</time>
      </trkpt>
      <trkpt lat="43.9732" lon="5.11637">
        <ele>343.3</ele>
        <time>2013-01-24T15:35:40.000Z</time>
      </trkpt>
      <trkpt lat="43.97322" lon="5.11635">
        <ele>341.9</ele>
        <time>2013-01-24T15:35:41.000Z</time>
      </trkpt>
      <trkpt lat="43.97326" lon="5.11633">
        <ele>342.2</ele>
        <time>2013-01-24T15:35:42.000Z</time>
      </trkpt>
      <trkpt lat="43.9733" lon="5.11629">
        <ele>341.1</ele>
        <time>2013-01-24T15:35:43.000Z</time>
      </trkpt>
      <trkpt lat="43.97335" lon="5.11626">
        <ele>340.6</ele>
        <time>2013-01-24T15:35:44.000Z</time>
      </trkpt>
      <trkpt lat="43.97339" lon="5.11622">
        <ele>339.6</ele>
        <time>2013-01-24T15:35:45.000Z</time>
      </trkpt>
      <trkpt lat="43.97345" lon="5.11617">
        <ele>338.9</ele>
        <time>2013-01-24T15:35:46.000Z</time>
      </trkpt>
      <trkpt lat="43.9735" lon="5.11614">
        <ele>338.5</ele>
        <time>2013-01-24T15:35:47.000Z</time>
      </trkpt>
      <trkpt lat="43.97355" lon="5.1161">
        <ele>338</ele>
        <time>2013-01-24T15:35:48.000Z</time>
      </trkpt>
      <trkpt lat="43.97362" lon="5.11605">
        <ele>337.1</ele>
        <time>2013-01-24T15:35:49.000Z</time>
      </trkpt>
      <trkpt lat="43.97369" lon="5.116">
        <ele>336.5</ele>
        <time>2013-01-24T15:35:50.000Z</time>
      </trkpt>
      <trkpt lat="43.97375" lon="5.11594">
        <ele>335.5</ele>
        <time>2013-01-24T15:35:51.000Z</time>
      </trkpt>
      <trkpt lat="43.97381" lon="5.1159">
        <ele>335</ele>
        <time>2013-01-24T15:35:52.000Z</time>
      </trkpt>
      <trkpt lat="43.97388" lon="5.11585">
        <ele>334.9</ele>
        <time>2013-01-24T15:35:53.000Z</time>
      </trkpt>
      <trkpt lat="43.97395" lon="5.11584">
        <ele>334.6</ele>
        <time>2013-01-24T15:35:54.000Z</time>
      </trkpt>
      <trkpt lat="43.97402" lon="5.11584">
        <ele>333.2</ele>
        <time>2013-01-24T15:35:55.000Z</time>
      </trkpt>
      <trkpt lat="43.9741" lon="5.11583">
        <ele>332.1</ele>
        <time>2013-01-24T15:35:56.000Z</time>
      </trkpt>
      <trkpt lat="43.97418" lon="5.1158">
        <ele>331.3</ele>
        <time>2013-01-24T15:35:57.000Z</time>
      </trkpt>
      <trkpt lat="43.97426" lon="5.11577">
        <ele>330.8</ele>
        <time>2013-01-24T15:35:58.000Z</time>
      </trkpt>
      <trkpt lat="43.97435" lon="5.11575">
        <ele>330.5</ele>
        <time>2013-01-24T15:35:59.000Z</time>
      </trkpt>
      <trkpt lat="43.97444" lon="5.11575">
        <ele>330.4</ele>
        <time>2013-01-24T15:36:00.000Z</time>
      </trkpt>
      <trkpt lat="43.97453" lon="5.11575">
        <ele>328.4</ele>
        <time>2013-01-24T15:36:01.000Z</time>
      </trkpt>
      <trkpt lat="43.97462" lon="5.11574">
        <ele>328</ele>
        <time>2013-01-24T15:36:02.000Z</time>
      </trkpt>
      <trkpt lat="43.9747" lon="5.11574">
        <ele>327.7</ele>
        <time>2013-01-24T15:36:03.000Z</time>
      </trkpt>
      <trkpt lat="43.97478" lon="5.11575">
        <ele>326.7</ele>
        <time>2013-01-24T15:36:04.000Z</time>
      </trkpt>
      <trkpt lat="43.97485" lon="5.11576">
        <ele>326.1</ele>
        <time>2013-01-24T15:36:05.000Z</time>
      </trkpt>
      <trkpt lat="43.9749" lon="5.11577">
        <ele>325.7</ele>
        <time>2013-01-24T15:36:06.000Z</time>
      </trkpt>
      <trkpt lat="43.97495" lon="5.11579">
        <ele>325.3</ele>
        <time>2013-01-24T15:36:07.000Z</time>
      </trkpt>
      <trkpt lat="43.97501" lon="5.11582">
        <ele>324.7</ele>
        <time>2013-01-24T15:36:08.000Z</time>
      </trkpt>
      <trkpt lat="43.97507" lon="5.11584">
        <ele>324.2</ele>
        <time>2013-01-24T15:36:09.000Z</time>
      </trkpt>
      <trkpt lat="43.97513" lon="5.11585">
        <ele>323.7</ele>
        <time>2013-01-24T15:36:10.000Z</time>
      </trkpt>
      <trkpt lat="43.9752" lon="5.11586">
        <ele>323.6</ele>
        <time>2013-01-24T15:36:11.000Z</time>
      </trkpt>
      <trkpt lat="43.97528" lon="5.11585">
        <ele>322.6</ele>
        <time>2013-01-24T15:36:12.000Z</time>
      </trkpt>
      <trkpt lat="43.97535" lon="5.11585">
        <ele>321.7</ele>
        <time>2013-01-24T15:36:13.000Z</time>
      </trkpt>
      <trkpt lat="43.97543" lon="5.11584">
        <ele>321</ele>
        <time>2013-01-24T15:36:14.000Z</time>
      </trkpt>
      <trkpt lat="43.97551" lon="5.11582">
        <ele>320.6</ele>
        <time>2013-01-24T15:36:15.000Z</time>
      </trkpt>
      <trkpt lat="43.9756" lon="5.1158">
        <ele>319.7</ele>
        <time>2013-01-24T15:36:16.000Z</time>
      </trkpt>
      <trkpt lat="43.97569" lon="5.11577">
        <ele>319.7</ele>
        <time>2013-01-24T15:36:17.000Z</time>
      </trkpt>
      <trkpt lat="43.97578" lon="5.11575">
        <ele>319.3</ele>
        <time>2013-01-24T15:36:18.000Z</time>
      </trkpt>
      <trkpt lat="43.97588" lon="5.11573">
        <ele>318.4</ele>
        <time>2013-01-24T15:36:19.000Z</time>
      </trkpt>
      <trkpt lat="43.97597" lon="5.11571">
        <ele>317.8</ele>
        <time>2013-01-24T15:36:20.000Z</time>
      </trkpt>
      <trkpt lat="43.97606" lon="5.11568">
        <ele>317.2</ele>
        <time>2013-01-24T15:36:21.000Z</time>
      </trkpt>
      <trkpt lat="43.97614" lon="5.11565">
        <ele>317.5</ele>
        <time>2013-01-24T15:36:22.000Z</time>
      </trkpt>
      <trkpt lat="43.97622" lon="5.11562">
        <ele>317.9</ele>
        <time>2013-01-24T15:36:23.000Z</time>
      </trkpt>
      <trkpt lat="43.97629" lon="5.11559">
        <ele>318</ele>
        <time>2013-01-24T15:36:24.000Z</time>
      </trkpt>
      <trkpt lat="43.97633" lon="5.11559">
        <ele>317.7</ele>
        <time>2013-01-24T15:36:25.000Z</time>
      </trkpt>
      <trkpt lat="43.97634" lon="5.11561">
        <ele>316.6</ele>
        <time>2013-01-24T15:36:26.000Z</time>
      </trkpt>
      <trkpt lat="43.97636" lon="5.11561">
        <ele>316.1</ele>
        <time>2013-01-24T15:36:27.000Z</time>
      </trkpt>
      <trkpt lat="43.97639" lon="5.11561">
        <ele>315.9</ele>
        <time>2013-01-24T15:36:28.000Z</time>
      </trkpt>
      <trkpt lat="43.97643" lon="5.1156">
        <ele>316.8</ele>
        <time>2013-01-24T15:36:29.000Z</time>
      </trkpt>
      <trkpt lat="43.97646" lon="5.11558">
        <ele>317.3</ele>
        <time>2013-01-24T15:36:30.000Z</time>
      </trkpt>
      <trkpt lat="43.9765" lon="5.11556">
        <ele>316.5</ele>
        <time>2013-01-24T15:36:31.000Z</time>
      </trkpt>
      <trkpt lat="43.97654" lon="5.11553">
        <ele>316.2</ele>
        <time>2013-01-24T15:36:32.000Z</time>
      </trkpt>
      <trkpt lat="43.97659" lon="5.1155">
        <ele>316.2</ele>
        <time>2013-01-24T15:36:33.000Z</time>
      </trkpt>
      <trkpt lat="43.97664" lon="5.11547">
        <ele>316.4</ele>
        <time>2013-01-24T15:36:34.000Z</time>
      </trkpt>
      <trkpt lat="43.9767" lon="5.11545">
        <ele>316.3</ele>
        <time>2013-01-24T15:36:35.000Z</time>
      </trkpt>
      <trkpt lat="43.97676" lon="5.11542">
        <ele>316.5</ele>
        <time>2013-01-24T15:36:36.000Z</time>
      </trkpt>
      <trkpt lat="43.97682" lon="5.11538">
        <ele>316</ele>
        <time>2013-01-24T15:36:37.000Z</time>
      </trkpt>
      <trkpt lat="43.97689" lon="5.11536">
        <ele>315.7</ele>
        <time>2013-01-24T15:36:38.000Z</time>
      </trkpt>
      <trkpt lat="43.97695" lon="5.11533">
        <ele>316.1</ele>
        <time>2013-01-24T15:36:39.000Z</time>
      </trkpt>
      <trkpt lat="43.97703" lon="5.11532">
        <ele>315</ele>
        <time>2013-01-24T15:36:40.000Z</time>
      </trkpt>
      <trkpt lat="43.9771" lon="5.1153">
        <ele>314.6</ele>
        <time>2013-01-24T15:36:41.000Z</time>
      </trkpt>
      <trkpt lat="43.97718" lon="5.11528">
        <ele>313.7</ele>
        <time>2013-01-24T15:36:42.000Z</time>
      </trkpt>
      <trkpt lat="43.97726" lon="5.11526">
        <ele>313.3</ele>
        <time>2013-01-24T15:36:43.000Z</time>
      </trkpt>
      <trkpt lat="43.97733" lon="5.11522">
        <ele>313.2</ele>
        <time>2013-01-24T15:36:44.000Z</time>
      </trkpt>
      <trkpt lat="43.97742" lon="5.1152">
        <ele>311.8</ele>
        <time>2013-01-24T15:36:45.000Z</time>
      </trkpt>
      <trkpt lat="43.97749" lon="5.11518">
        <ele>310.8</ele>
        <time>2013-01-24T15:36:46.000Z</time>
      </trkpt>
      <trkpt lat="43.97756" lon="5.11516">
        <ele>310.4</ele>
        <time>2013-01-24T15:36:47.000Z</time>
      </trkpt>
      <trkpt lat="43.97763" lon="5.11521">
        <ele>309.5</ele>
        <time>2013-01-24T15:36:48.000Z</time>
      </trkpt>
      <trkpt lat="43.9777" lon="5.11523">
        <ele>308.9</ele>
        <time>2013-01-24T15:36:49.000Z</time>
      </trkpt>
      <trkpt lat="43.9778" lon="5.11528">
        <ele>307</ele>
        <time>2013-01-24T15:36:50.000Z</time>
      </trkpt>
      <trkpt lat="43.9779" lon="5.11532">
        <ele>305.8</ele>
        <time>2013-01-24T15:36:51.000Z</time>
      </trkpt>
      <trkpt lat="43.97799" lon="5.11535">
        <ele>305.2</ele>
        <time>2013-01-24T15:36:52.000Z</time>
      </trkpt>
      <trkpt lat="43.97808" lon="5.11538">
        <ele>304.5</ele>
        <time>2013-01-24T15:36:53.000Z</time>
      </trkpt>
      <trkpt lat="43.97817" lon="5.11541">
        <ele>303.7</ele>
        <time>2013-01-24T15:36:54.000Z</time>
      </trkpt>
      <trkpt lat="43.97826" lon="5.11542">
        <ele>303.3</ele>
        <time>2013-01-24T15:36:55.000Z</time>
      </trkpt>
      <trkpt lat="43.97834" lon="5.11541">
        <ele>303.1</ele>
        <time>2013-01-24T15:36:56.000Z</time>
      </trkpt>
      <trkpt lat="43.97838" lon="5.11542">
        <ele>302.2</ele>
        <time>2013-01-24T15:36:57.000Z</time>
      </trkpt>
      <trkpt lat="43.97844" lon="5.11542">
        <ele>301.9</ele>
        <time>2013-01-24T15:36:58.000Z</time>
      </trkpt>
      <trkpt lat="43.97849" lon="5.11541">
        <ele>302.1</ele>
        <time>2013-01-24T15:36:59.000Z</time>
      </trkpt>
      <trkpt lat="43.97855" lon="5.11538">
        <ele>302.7</ele>
        <time>2013-01-24T15:37:00.000Z</time>
      </trkpt>
      <trkpt lat="43.97859" lon="5.11536">
        <ele>303.2</ele>
        <time>2013-01-24T15:37:01.000Z</time>
      </trkpt>
      <trkpt lat="43.97865" lon="5.11531">
        <ele>302.5</ele>
        <time>2013-01-24T15:37:02.000Z</time>
      </trkpt>
      <trkpt lat="43.9787" lon="5.11526">
        <ele>302.6</ele>
        <time>2013-01-24T15:37:03.000Z</time>
      </trkpt>
      <trkpt lat="43.97876" lon="5.11521">
        <ele>302.2</ele>
        <time>2013-01-24T15:37:04.000Z</time>
      </trkpt>
      <trkpt lat="43.97883" lon="5.11517">
        <ele>302.2</ele>
        <time>2013-01-24T15:37:05.000Z</time>
      </trkpt>
      <trkpt lat="43.9789" lon="5.11514">
        <ele>302.1</ele>
        <time>2013-01-24T15:37:06.000Z</time>
      </trkpt>
      <trkpt lat="43.97896" lon="5.11511">
        <ele>300.9</ele>
        <time>2013-01-24T15:37:07.000Z</time>
      </trkpt>
      <trkpt lat="43.97903" lon="5.11508">
        <ele>300.4</ele>
        <time>2013-01-24T15:37:08.000Z</time>
      </trkpt>
      <trkpt lat="43.9791" lon="5.11508">
        <ele>300.1</ele>
        <time>2013-01-24T15:37:09.000Z</time>
      </trkpt>
      <trkpt lat="43.97917" lon="5.11507">
        <ele>299.8</ele>
        <time>2013-01-24T15:37:10.000Z</time>
      </trkpt>
      <trkpt lat="43.97924" lon="5.11506">
        <ele>299.7</ele>
        <time>2013-01-24T15:37:11.000Z</time>
      </trkpt>
      <trkpt lat="43.97932" lon="5.11504">
        <ele>298.7</ele>
        <time>2013-01-24T15:37:12.000Z</time>
      </trkpt>
      <trkpt lat="43.97939" lon="5.11503">
        <ele>298.4</ele>
        <time>2013-01-24T15:37:13.000Z</time>
      </trkpt>
      <trkpt lat="43.97946" lon="5.11503">
        <ele>298.3</ele>
        <time>2013-01-24T15:37:14.000Z</time>
      </trkpt>
      <trkpt lat="43.97956" lon="5.11504">
        <ele>298.1</ele>
        <time>2013-01-24T15:37:15.000Z</time>
      </trkpt>
      <trkpt lat="43.97964" lon="5.11504">
        <ele>297.9</ele>
        <time>2013-01-24T15:37:16.000Z</time>
      </trkpt>
      <trkpt lat="43.97973" lon="5.11505">
        <ele>297.7</ele>
        <time>2013-01-24T15:37:17.000Z</time>
      </trkpt>
      <trkpt lat="43.97981" lon="5.11507">
        <ele>297.5</ele>
        <time>2013-01-24T15:37:18.000Z</time>
      </trkpt>
      <trkpt lat="43.97989" lon="5.11506">
        <ele>295.8</ele>
        <time>2013-01-24T15:37:19.000Z</time>
      </trkpt>
      <trkpt lat="43.97996" lon="5.11505">
        <ele>295.4</ele>
        <time>2013-01-24T15:37:20.000Z</time>
      </trkpt>
      <trkpt lat="43.98004" lon="5.11503">
        <ele>294.7</ele>
        <time>2013-01-24T15:37:21.000Z</time>
      </trkpt>
      <trkpt lat="43.98012" lon="5.11501">
        <ele>293.9</ele>
        <time>2013-01-24T15:37:22.000Z</time>
      </trkpt>
      <trkpt lat="43.9802" lon="5.11498">
        <ele>293.4</ele>
        <time>2013-01-24T15:37:23.000Z</time>
      </trkpt>
      <trkpt lat="43.9803" lon="5.11495">
        <ele>292.4</ele>
        <time>2013-01-24T15:37:24.000Z</time>
      </trkpt>
      <trkpt lat="43.98038" lon="5.11491">
        <ele>291.4</ele>
        <time>2013-01-24T15:37:25.000Z</time>
      </trkpt>
      <trkpt lat="43.98048" lon="5.11489">
        <ele>290.5</ele>
        <time>2013-01-24T15:37:26.000Z</time>
      </trkpt>
      <trkpt lat="43.98058" lon="5.11487">
        <ele>290.5</ele>
        <time>2013-01-24T15:37:27.000Z</time>
      </trkpt>
      <trkpt lat="43.98067" lon="5.11487">
        <ele>290.2</ele>
        <time>2013-01-24T15:37:28.000Z</time>
      </trkpt>
      <trkpt lat="43.98077" lon="5.11488">
        <ele>290.5</ele>
        <time>2013-01-24T15:37:29.000Z</time>
      </trkpt>
      <trkpt lat="43.98089" lon="5.11485">
        <ele>289.3</ele>
        <time>2013-01-24T15:37:30.000Z</time>
      </trkpt>
      <trkpt lat="43.98098" lon="5.11486">
        <ele>289.6</ele>
        <time>2013-01-24T15:37:31.000Z</time>
      </trkpt>
      <trkpt lat="43.98107" lon="5.11486">
        <ele>289.3</ele>
        <time>2013-01-24T15:37:32.000Z</time>
      </trkpt>
      <trkpt lat="43.98116" lon="5.11484">
        <ele>289.2</ele>
        <time>2013-01-24T15:37:33.000Z</time>
      </trkpt>
      <trkpt lat="43.98124" lon="5.11484">
        <ele>289.7</ele>
        <time>2013-01-24T15:37:34.000Z</time>
      </trkpt>
      <trkpt lat="43.98131" lon="5.11484">
        <ele>289.4</ele>
        <time>2013-01-24T15:37:35.000Z</time>
      </trkpt>
      <trkpt lat="43.98137" lon="5.1149">
        <ele>289.5</ele>
        <time>2013-01-24T15:37:36.000Z</time>
      </trkpt>
      <trkpt lat="43.98144" lon="5.11494">
        <ele>289.3</ele>
        <time>2013-01-24T15:37:37.000Z</time>
      </trkpt>
      <trkpt lat="43.9815" lon="5.11498">
        <ele>288.5</ele>
        <time>2013-01-24T15:37:38.000Z</time>
      </trkpt>
      <trkpt lat="43.98156" lon="5.11502">
        <ele>288.1</ele>
        <time>2013-01-24T15:37:39.000Z</time>
      </trkpt>
      <trkpt lat="43.98164" lon="5.11508">
        <ele>287.8</ele>
        <time>2013-01-24T15:37:40.000Z</time>
      </trkpt>
      <trkpt lat="43.98171" lon="5.11511">
        <ele>287.4</ele>
        <time>2013-01-24T15:37:41.000Z</time>
      </trkpt>
      <trkpt lat="43.98179" lon="5.11513">
        <ele>286.6</ele>
        <time>2013-01-24T15:37:42.000Z</time>
      </trkpt>
      <trkpt lat="43.98185" lon="5.11516">
        <ele>286.8</ele>
        <time>2013-01-24T15:37:43.000Z</time>
      </trkpt>
      <trkpt lat="43.98192" lon="5.11519">
        <ele>287.2</ele>
        <time>2013-01-24T15:37:44.000Z</time>
      </trkpt>
      <trkpt lat="43.98199" lon="5.11523">
        <ele>287.3</ele>
        <time>2013-01-24T15:37:45.000Z</time>
      </trkpt>
      <trkpt lat="43.98208" lon="5.11524">
        <ele>287.2</ele>
        <time>2013-01-24T15:37:46.000Z</time>
      </trkpt>
      <trkpt lat="43.98215" lon="5.11526">
        <ele>286.8</ele>
        <time>2013-01-24T15:37:47.000Z</time>
      </trkpt>
      <trkpt lat="43.98222" lon="5.11527">
        <ele>287.3</ele>
        <time>2013-01-24T15:37:48.000Z</time>
      </trkpt>
      <trkpt lat="43.98228" lon="5.11528">
        <ele>288.3</ele>
        <time>2013-01-24T15:37:49.000Z</time>
      </trkpt>
      <trkpt lat="43.98234" lon="5.11529">
        <ele>288.7</ele>
        <time>2013-01-24T15:37:50.000Z</time>
      </trkpt>
      <trkpt lat="43.9824" lon="5.11535">
        <ele>287.7</ele>
        <time>2013-01-24T15:37:51.000Z</time>
      </trkpt>
      <trkpt lat="43.98246" lon="5.11538">
        <ele>286.9</ele>
        <time>2013-01-24T15:37:52.000Z</time>
      </trkpt>
      <trkpt lat="43.98251" lon="5.11544">
        <ele>286.6</ele>
        <time>2013-01-24T15:37:53.000Z</time>
      </trkpt>
      <trkpt lat="43.98256" lon="5.11551">
        <ele>286.6</ele>
        <time>2013-01-24T15:37:54.000Z</time>
      </trkpt>
      <trkpt lat="43.98259" lon="5.11559">
        <ele>286.9</ele>
        <time>2013-01-24T15:37:55.000Z</time>
      </trkpt>
      <trkpt lat="43.98263" lon="5.11567">
        <ele>287.6</ele>
        <time>2013-01-24T15:37:56.000Z</time>
      </trkpt>
      <trkpt lat="43.98267" lon="5.11574">
        <ele>287.9</ele>
        <time>2013-01-24T15:37:57.000Z</time>
      </trkpt>
      <trkpt lat="43.9827" lon="5.11581">
        <ele>288</ele>
        <time>2013-01-24T15:37:58.000Z</time>
      </trkpt>
      <trkpt lat="43.98274" lon="5.11587">
        <ele>287.8</ele>
        <time>2013-01-24T15:37:59.000Z</time>
      </trkpt>
      <trkpt lat="43.98279" lon="5.11592">
        <ele>288.5</ele>
        <time>2013-01-24T15:38:00.000Z</time>
      </trkpt>
      <trkpt lat="43.98284" lon="5.11597">
        <ele>288.2</ele>
        <time>2013-01-24T15:38:01.000Z</time>
      </trkpt>
      <trkpt lat="43.98288" lon="5.11602">
        <ele>287.9</ele>
        <time>2013-01-24T15:38:02.000Z</time>
      </trkpt>
      <trkpt lat="43.98293" lon="5.11607">
        <ele>287.5</ele>
        <time>2013-01-24T15:38:03.000Z</time>
      </trkpt>
      <trkpt lat="43.98298" lon="5.11611">
        <ele>288</ele>
        <time>2013-01-24T15:38:04.000Z</time>
      </trkpt>
      <trkpt lat="43.98303" lon="5.11616">
        <ele>287.7</ele>
        <time>2013-01-24T15:38:05.000Z</time>
      </trkpt>
      <trkpt lat="43.98307" lon="5.11621">
        <ele>287.6</ele>
        <time>2013-01-24T15:38:06.000Z</time>
      </trkpt>
      <trkpt lat="43.98311" lon="5.11627">
        <ele>287.9</ele>
        <time>2013-01-24T15:38:07.000Z</time>
      </trkpt>
      <trkpt lat="43.98316" lon="5.11633">
        <ele>288.4</ele>
        <time>2013-01-24T15:38:08.000Z</time>
      </trkpt>
      <trkpt lat="43.98321" lon="5.11642">
        <ele>286.1</ele>
        <time>2013-01-24T15:38:09.000Z</time>
      </trkpt>
      <trkpt lat="43.98326" lon="5.11651">
        <ele>285.6</ele>
        <time>2013-01-24T15:38:10.000Z</time>
      </trkpt>
      <trkpt lat="43.9833" lon="5.11659">
        <ele>285.4</ele>
        <time>2013-01-24T15:38:11.000Z</time>
      </trkpt>
      <trkpt lat="43.98335" lon="5.11666">
        <ele>285</ele>
        <time>2013-01-24T15:38:12.000Z</time>
      </trkpt>
      <trkpt lat="43.9834" lon="5.11673">
        <ele>284.4</ele>
        <time>2013-01-24T15:38:13.000Z</time>
      </trkpt>
      <trkpt lat="43.98345" lon="5.1168">
        <ele>284.3</ele>
        <time>2013-01-24T15:38:14.000Z</time>
      </trkpt>
      <trkpt lat="43.98351" lon="5.11687">
        <ele>283.8</ele>
        <time>2013-01-24T15:38:15.000Z</time>
      </trkpt>
      <trkpt lat="43.98357" lon="5.11694">
        <ele>283</ele>
        <time>2013-01-24T15:38:16.000Z</time>
      </trkpt>
      <trkpt lat="43.98363" lon="5.117">
        <ele>283.1</ele>
        <time>2013-01-24T15:38:17.000Z</time>
      </trkpt>
      <trkpt lat="43.98369" lon="5.11707">
        <ele>282.8</ele>
        <time>2013-01-24T15:38:18.000Z</time>
      </trkpt>
      <trkpt lat="43.98374" lon="5.11714">
        <ele>282.4</ele>
        <time>2013-01-24T15:38:19.000Z</time>
      </trkpt>
      <trkpt lat="43.98379" lon="5.1172">
        <ele>283.1</ele>
        <time>2013-01-24T15:38:20.000Z</time>
      </trkpt>
      <trkpt lat="43.98385" lon="5.11726">
        <ele>282.3</ele>
        <time>2013-01-24T15:38:21.000Z</time>
      </trkpt>
      <trkpt lat="43.9839" lon="5.11734">
        <ele>281.6</ele>
        <time>2013-01-24T15:38:22.000Z</time>
      </trkpt>
      <trkpt lat="43.98396" lon="5.11741">
        <ele>281.5</ele>
        <time>2013-01-24T15:38:23.000Z</time>
      </trkpt>
      <trkpt lat="43.98399" lon="5.11746">
        <ele>280.8</ele>
        <time>2013-01-24T15:38:24.000Z</time>
      </trkpt>
      <trkpt lat="43.98402" lon="5.11752">
        <ele>281.9</ele>
        <time>2013-01-24T15:38:25.000Z</time>
      </trkpt>
      <trkpt lat="43.98404" lon="5.1176">
        <ele>280.7</ele>
        <time>2013-01-24T15:38:26.000Z</time>
      </trkpt>
      <trkpt lat="43.98407" lon="5.11768">
        <ele>280.9</ele>
        <time>2013-01-24T15:38:27.000Z</time>
      </trkpt>
      <trkpt lat="43.98409" lon="5.11774">
        <ele>280.6</ele>
        <time>2013-01-24T15:38:28.000Z</time>
      </trkpt>
      <trkpt lat="43.98411" lon="5.1178">
        <ele>279.9</ele>
        <time>2013-01-24T15:38:29.000Z</time>
      </trkpt>
      <trkpt lat="43.9841" lon="5.11783">
        <ele>282</ele>
        <time>2013-01-24T15:38:30.000Z</time>
      </trkpt>
      <trkpt lat="43.9841" lon="5.11787">
        <ele>281.4</ele>
        <time>2013-01-24T15:38:31.000Z</time>
      </trkpt>
      <trkpt lat="43.9841" lon="5.11793">
        <ele>280.6</ele>
        <time>2013-01-24T15:38:32.000Z</time>
      </trkpt>
      <trkpt lat="43.98408" lon="5.11798">
        <ele>279.9</ele>
        <time>2013-01-24T15:38:33.000Z</time>
      </trkpt>
      <trkpt lat="43.98404" lon="5.11797">
        <ele>281.8</ele>
        <time>2013-01-24T15:38:34.000Z</time>
      </trkpt>
      <trkpt lat="43.984" lon="5.118">
        <ele>282</ele>
        <time>2013-01-24T15:38:35.000Z</time>
      </trkpt>
      <trkpt lat="43.98398" lon="5.11802">
        <ele>282.1</ele>
        <time>2013-01-24T15:38:36.000Z</time>
      </trkpt>
      <trkpt lat="43.98396" lon="5.11806">
        <ele>281.8</ele>
        <time>2013-01-24T15:38:37.000Z</time>
      </trkpt>
      <trkpt lat="43.98393" lon="5.11808">
        <ele>281.1</ele>
        <time>2013-01-24T15:38:38.000Z</time>
      </trkpt>
      <trkpt lat="43.9839" lon="5.11811">
        <ele>282</ele>
        <time>2013-01-24T15:38:40.000Z</time>
      </trkpt>
      <trkpt lat="43.98388" lon="5.11813">
        <ele>282.5</ele>
        <time>2013-01-24T15:38:41.000Z</time>
      </trkpt>
      <trkpt lat="43.98386" lon="5.11816">
        <ele>282.8</ele>
        <time>2013-01-24T15:38:42.000Z</time>
      </trkpt>
      <trkpt lat="43.98383" lon="5.11819">
        <ele>283.1</ele>
        <time>2013-01-24T15:38:43.000Z</time>
      </trkpt>
      <trkpt lat="43.98379" lon="5.11819">
        <ele>283.3</ele>
        <time>2013-01-24T15:38:46.000Z</time>
      </trkpt>
      <trkpt lat="43.98378" lon="5.1182">
        <ele>283.3</ele>
        <time>2013-01-24T15:38:47.000Z</time>
      </trkpt>
      <trkpt lat="43.98376" lon="5.11822">
        <ele>283.1</ele>
        <time>2013-01-24T15:38:48.000Z</time>
      </trkpt>
      <trkpt lat="43.98374" lon="5.11824">
        <ele>283</ele>
        <time>2013-01-24T15:38:49.000Z</time>
      </trkpt>
      <trkpt lat="43.98372" lon="5.11826">
        <ele>282.4</ele>
        <time>2013-01-24T15:38:50.000Z</time>
      </trkpt>
      <trkpt lat="43.9837" lon="5.11828">
        <ele>281.9</ele>
        <time>2013-01-24T15:38:51.000Z</time>
      </trkpt>
      <trkpt lat="43.98366" lon="5.11832">
        <ele>282.4</ele>
        <time>2013-01-24T15:38:53.000Z</time>
      </trkpt>
      <trkpt lat="43.98365" lon="5.11833">
        <ele>282.6</ele>
        <time>2013-01-24T15:38:54.000Z</time>
      </trkpt>
      <trkpt lat="43.98363" lon="5.11835">
        <ele>282.7</ele>
        <time>2013-01-24T15:38:55.000Z</time>
      </trkpt>
      <trkpt lat="43.98361" lon="5.11836">
        <ele>282.7</ele>
        <time>2013-01-24T15:38:56.000Z</time>
      </trkpt>
      <trkpt lat="43.98357" lon="5.1184">
        <ele>283.6</ele>
        <time>2013-01-24T15:38:58.000Z</time>
      </trkpt>
      <trkpt lat="43.98355" lon="5.11842">
        <ele>283.7</ele>
        <time>2013-01-24T15:38:59.000Z</time>
      </trkpt>
      <trkpt lat="43.98353" lon="5.11843">
        <ele>283.9</ele>
        <time>2013-01-24T15:39:00.000Z</time>
      </trkpt>
      <trkpt lat="43.98352" lon="5.11845">
        <ele>284.6</ele>
        <time>2013-01-24T15:39:01.000Z</time>
      </trkpt>
      <trkpt lat="43.98349" lon="5.11848">
        <ele>286.4</ele>
        <time>2013-01-24T15:39:03.000Z</time>
      </trkpt>
      <trkpt lat="43.98347" lon="5.11849">
        <ele>286.6</ele>
        <time>2013-01-24T15:39:04.000Z</time>
      </trkpt>
      <trkpt lat="43.98343" lon="5.11853">
        <ele>287.1</ele>
        <time>2013-01-24T15:39:06.000Z</time>
      </trkpt>
      <trkpt lat="43.9834" lon="5.11855">
        <ele>286.1</ele>
        <time>2013-01-24T15:39:07.000Z</time>
      </trkpt>
      <trkpt lat="43.98338" lon="5.11857">
        <ele>286.2</ele>
        <time>2013-01-24T15:39:08.000Z</time>
      </trkpt>
      <trkpt lat="43.98336" lon="5.11858">
        <ele>286.2</ele>
        <time>2013-01-24T15:39:09.000Z</time>
      </trkpt>
      <trkpt lat="43.98333" lon="5.11862">
        <ele>287.7</ele>
        <time>2013-01-24T15:39:12.000Z</time>
      </trkpt>
      <trkpt lat="43.98332" lon="5.11864">
        <ele>287.8</ele>
        <time>2013-01-24T15:39:13.000Z</time>
      </trkpt>
      <trkpt lat="43.98332" lon="5.11867">
        <ele>288.4</ele>
        <time>2013-01-24T15:39:14.000Z</time>
      </trkpt>
      <trkpt lat="43.98331" lon="5.11872">
        <ele>289.4</ele>
        <time>2013-01-24T15:39:15.000Z</time>
      </trkpt>
      <trkpt lat="43.98331" lon="5.11875">
        <ele>289.4</ele>
        <time>2013-01-24T15:39:16.000Z</time>
      </trkpt>
      <trkpt lat="43.98331" lon="5.11879">
        <ele>289.7</ele>
        <time>2013-01-24T15:39:17.000Z</time>
      </trkpt>
      <trkpt lat="43.98331" lon="5.11884">
        <ele>290</ele>
        <time>2013-01-24T15:39:18.000Z</time>
      </trkpt>
      <trkpt lat="43.98332" lon="5.11887">
        <ele>290.3</ele>
        <time>2013-01-24T15:39:19.000Z</time>
      </trkpt>
      <trkpt lat="43.98334" lon="5.1189">
        <ele>290.1</ele>
        <time>2013-01-24T15:39:20.000Z</time>
      </trkpt>
      <trkpt lat="43.98335" lon="5.11893">
        <ele>290.6</ele>
        <time>2013-01-24T15:39:21.000Z</time>
      </trkpt>
      <trkpt lat="43.98337" lon="5.11896">
        <ele>291.2</ele>
        <time>2013-01-24T15:39:22.000Z</time>
      </trkpt>
      <trkpt lat="43.98338" lon="5.11898">
        <ele>291.2</ele>
        <time>2013-01-24T15:39:23.000Z</time>
      </trkpt>
      <trkpt lat="43.9834" lon="5.11903">
        <ele>291</ele>
        <time>2013-01-24T15:39:25.000Z</time>
      </trkpt>
      <trkpt lat="43.98342" lon="5.11905">
        <ele>291</ele>
        <time>2013-01-24T15:39:26.000Z</time>
      </trkpt>
      <trkpt lat="43.98343" lon="5.11907">
        <ele>290.9</ele>
        <time>2013-01-24T15:39:27.000Z</time>
      </trkpt>
      <trkpt lat="43.98347" lon="5.11904">
        <ele>290.6</ele>
        <time>2013-01-24T15:39:28.000Z</time>
      </trkpt>
      <trkpt lat="43.98349" lon="5.11901">
        <ele>290.6</ele>
        <time>2013-01-24T15:39:30.000Z</time>
      </trkpt>
      <trkpt lat="43.9835" lon="5.119">
        <ele>291</ele>
        <time>2013-01-24T15:39:31.000Z</time>
      </trkpt>
      <trkpt lat="43.98349" lon="5.11901">
        <ele>291.3</ele>
        <time>2013-01-24T15:39:55.000Z</time>
      </trkpt>
    </trkseg>
  </trk>
</gpx>